
Distance (Route):
Temperature : 21.4°C
Humidity : 48.2%
Pressure : 1007.42hPa| Receiver | Frames | First received | Last received |
|---|---|---|---|
| DL1XH-west | 675 | 2026-09-02 10:50:56 | 2026-09-02 12:58:51 |
| DF8AY | 652 | 2026-09-02 10:52:23 | 2026-09-02 13:03:54 |
| AA1-15 | 539 | 2026-09-02 10:55:53 | 2026-09-02 12:57:51 |
| BIOWL1-15 | 525 | 2026-09-02 10:51:08 | 2026-09-02 12:59:37 |
| DL1XH1-15 | 520 | 2026-09-02 10:51:01 | 2026-09-02 12:58:33 |
| DM0DOS-11 | 499 | 2026-09-02 10:49:34 | 2026-09-02 12:59:08 |
| DO2SHX-10 | 372 | 2026-09-02 11:02:25 | 2026-09-02 12:53:41 |
| DB0DAN | 366 | 2026-09-02 10:48:10 | 2026-09-02 13:04:40 |
| DL1XH-15 | 339 | 2026-09-02 10:51:14 | 2026-09-02 12:57:54 |
| HSKMA3-T | 311 | 2026-09-02 11:26:04 | 2026-09-02 12:40:13 |
| DL1NUX | 239 | 2026-09-02 11:31:53 | 2026-09-02 12:36:21 |
| DD8BA-10 | 154 | 2026-09-02 10:54:34 | 2026-09-02 12:51:52 |
| GOEST3-10 | 152 | 2026-09-02 10:59:19 | 2026-09-02 12:50:16 |
| DL3AQ-11 | 76 | 2026-09-02 10:57:54 | 2026-09-02 12:42:17 |
| DF8AY-15 | 61 | 2026-09-02 10:53:04 | 2026-09-02 13:03:14 |
| DF7ER-10 | 59 | 2026-09-02 11:00:15 | 2026-09-02 13:01:41 |
| DL4XJ-10 | 56 | 2026-09-02 10:50:21 | 2026-09-02 12:49:43 |
| AM1SDL-15 | 52 | 2026-09-02 10:53:49 | 2026-09-02 12:58:17 |
| BIOWL9-15 | 44 | 2026-09-02 10:52:46 | 2026-09-02 12:57:31 |
| DO2JMG | 44 | 2026-09-02 11:46:10 | 2026-09-02 12:32:08 |
| DL4BBY-15 | 42 | 2026-09-02 10:53:56 | 2026-09-02 12:52:46 |
| S3001 | 40 | 2026-09-02 10:57:59 | 2026-09-02 12:58:34 |
| EDDB2-12 | 40 | 2026-09-02 11:11:04 | 2026-09-02 12:59:12 |
| SMARD9-15 | 37 | 2026-09-02 10:59:27 | 2026-09-02 12:53:49 |
| SONCRA | 36 | 2026-09-02 10:58:05 | 2026-09-02 12:54:02 |
| BUE01 | 34 | 2026-09-02 11:03:39 | 2026-09-02 12:48:12 |
| DO3MHA-11 | 33 | 2026-09-02 11:52:48 | 2026-09-02 12:28:20 |
| TFSTFS | 32 | 2026-09-02 11:11:25 | 2026-09-02 12:58:15 |
| EDDB2-11 | 30 | 2026-09-02 11:20:40 | 2026-09-02 12:57:57 |
| DB0NH | 28 | 2026-09-02 11:08:57 | 2026-09-02 12:48:57 |
| DB0UT-7 | 25 | 2026-09-02 11:08:06 | 2026-09-02 12:44:59 |
| SONDE2-11 | 23 | 2026-09-02 11:11:20 | 2026-09-02 12:58:28 |
| SO1NDE-10 | 23 | 2026-09-02 11:32:21 | 2026-09-02 12:35:21 |
| SMARD9-10 | 21 | 2026-09-02 10:51:15 | 2026-09-02 12:58:25 |
| DJ2DS-15 | 21 | 2026-09-02 10:53:39 | 2026-09-02 12:55:06 |
| DO9LL-15 | 20 | 2026-09-02 11:02:57 | 2026-09-02 12:21:33 |
| DF7PN | 20 | 2026-09-02 11:37:45 | 2026-09-02 12:36:47 |
| HTAHTA | 19 | 2026-09-02 11:08:48 | 2026-09-02 12:44:33 |
| MECKS9 | 15 | 2026-09-02 11:46:42 | 2026-09-02 12:46:07 |
| DJ8HS-15 | 13 | 2026-09-02 12:16:13 | 2026-09-02 12:28:42 |
| DL1LOL-11 | 12 | 2026-09-02 10:56:09 | 2026-09-02 12:30:30 |
| AP2371 | 10 | 2026-09-02 11:06:38 | 2026-09-02 12:29:54 |
| NBG1-10 | 10 | 2026-09-02 11:30:27 | 2026-09-02 12:42:12 |
| DK1YY | 9 | 2026-09-02 11:05:29 | 2026-09-02 12:22:05 |
| DL8OAI-8 | 7 | 2026-09-02 11:01:23 | 2026-09-02 11:24:05 |
| SP3BTT-10 | 5 | 2026-09-02 11:47:38 | 2026-09-02 12:23:43 |
| DL2RXE-15 | 4 | 2026-09-02 11:26:41 | 2026-09-02 12:42:10 |
| DK7RCA | 4 | 2026-09-02 11:42:11 | 2026-09-02 11:50:19 |
| DL1CLM-18 | 4 | 2026-09-02 11:52:27 | 2026-09-02 11:59:50 |
| BIOWL7-15 | 2 | 2026-09-02 10:54:52 | 2026-09-02 11:37:43 |
| DJTTGO | 2 | 2026-09-02 11:58:25 | 2026-09-02 12:22:08 |
| FRANK-SWL | 2 | 2026-09-02 12:31:10 | 2026-09-02 12:39:10 |
| DO2LYB-13 | 1 | 2026-09-02 11:11:47 | 2026-09-02 11:11:47 |
| DL3OBA | 1 | 2026-09-02 12:11:49 | 2026-09-02 12:11:49 |
| Receiver | Date | Latitude | Longitude | Direction | Speed | Altitude | Climb | Temperature | Humidity | Pressure | Voltage | Killtimer | Uptime | BKT | XDATA |
|---|---|---|---|---|---|---|---|---|---|---|---|---|---|---|---|
| DB0DAN | 2026-09-02 13:04:40 | 52.62769 | 11.15539 | 80° | 15km/h | 130m | -5.3m/s | 21.4°C | 48.2% | 1007.42hPa | 2.7V | 00:00:00 | 00:00:00 | 00:00:00 | |
| DB0DAN | 2026-09-02 13:04:25 | 52.62762 | 11.15398 | 83° | 26km/h | 228m | -7.5m/s | 19.4°C | 53.1% | 995.91hPa | 2.7V | 00:00:00 | 00:00:00 | 00:00:00 | |
| DB0DAN | 2026-09-02 13:04:10 | 52.62746 | 11.15241 | 80° | 26km/h | 326m | -6.6m/s | 18.5°C | 55.6% | 984.64hPa | 2.7V | 00:00:00 | 00:00:00 | 00:00:00 | |
| DF8AY | 2026-09-02 13:03:54 | 52.62727 | 11.15053 | 84° | 31km/h | 434m | -6.6m/s | 17.5°C | 65.3% | 972.4hPa | 2.7V | 02:45:45 | 03:13:08 | 00:00:00 | |
| DF8AY | 2026-09-02 13:03:53 | 52.62727 | 11.15040 | 84° | 31km/h | 440m | -7.3m/s | 17.4°C | 65.5% | 971.7hPa | 2.7V | 02:45:45 | 03:13:07 | 00:00:00 | |
| DF8AY | 2026-09-02 13:03:51 | 52.62725 | 11.15014 | 84° | 31km/h | 454m | -7.4m/s | 17.3°C | 66.1% | 970hPa | 2.7V | 02:45:45 | 03:13:05 | 00:00:00 | |
| DF8AY | 2026-09-02 13:03:49 | 52.62721 | 11.14977 | 79° | 29km/h | 475m | -7.1m/s | 17.1°C | 66.1% | 967.5hPa | 2.7V | 02:45:45 | 03:13:02 | 00:00:00 | |
| DF8AY | 2026-09-02 13:03:46 | 52.62718 | 11.14952 | 76° | 31km/h | 490m | -7.6m/s | 16.9°C | 67.2% | 966.2hPa | 2.7V | 02:45:45 | 03:13:00 | 00:00:00 | |
| DF8AY | 2026-09-02 13:03:43 | 52.62713 | 11.14916 | 79° | 27km/h | 511m | -6.8m/s | 16.7°C | 68.5% | 963.5hPa | 2.7V | 02:45:45 | 03:12:57 | 00:00:00 | |
| DF8AY | 2026-09-02 13:03:42 | 52.62710 | 11.14893 | 81° | 29km/h | 526m | -7.2m/s | 16.6°C | 68.7% | 961.9hPa | 2.7V | 02:46:36 | 03:12:55 | 00:00:00 | |
| DB0DAN | 2026-09-02 13:03:40 | 52.62709 | 11.14881 | 80° | 29km/h | 533m | -7.3m/s | 16.5°C | 62.2% | 961.08hPa | 2.6V | 00:00:00 | 00:00:00 | 00:00:00 | |
| DF8AY | 2026-09-02 13:03:40 | 52.62708 | 11.14869 | 80° | 31km/h | 540m | -7.2m/s | 16.5°C | 68.8% | 960.3hPa | 2.7V | 02:46:36 | 03:12:53 | 00:00:00 | |
| DF8AY | 2026-09-02 13:03:39 | 52.62706 | 11.14856 | 79° | 31km/h | 547m | -6.4m/s | 16.4°C | 68.8% | 959.3hPa | 2.7V | 02:46:36 | 03:12:52 | 00:00:00 | |
| DF8AY | 2026-09-02 13:03:37 | 52.62705 | 11.14844 | 81° | 29km/h | 553m | -7.2m/s | 16.3°C | 69.9% | 958.6hPa | 2.7V | 02:46:36 | 03:12:51 | 00:00:00 | |
| DF8AY | 2026-09-02 13:03:35 | 52.62703 | 11.14820 | 83° | 27km/h | 567m | -7.2m/s | 16.2°C | 68.8% | 957.1hPa | 2.7V | 02:46:36 | 03:12:49 | 00:00:00 | |
| DF8AY | 2026-09-02 13:03:34 | 52.62702 | 11.14808 | 84° | 29km/h | 573m | -7.1m/s | 16.1°C | 69.4% | 956.5hPa | 2.7V | 02:46:36 | 03:12:48 | 00:00:00 | |
| DF8AY | 2026-09-02 13:03:32 | 52.62700 | 11.14785 | 83° | 27km/h | 587m | -6.9m/s | 16°C | 69.9% | 954.7hPa | 2.7V | 02:46:36 | 03:12:46 | 00:00:00 | |
| DF8AY | 2026-09-02 13:03:30 | 52.62698 | 11.14761 | 81° | 29km/h | 600m | -7m/s | 15.8°C | 71.1% | 953.4hPa | 2.7V | 02:46:36 | 03:12:44 | 00:00:00 | |
| DF8AY | 2026-09-02 13:03:29 | 52.62697 | 11.14750 | 81° | 29km/h | 607m | -7.8m/s | 15.8°C | 70.9% | 952.6hPa | 2.6V | 02:46:36 | 03:12:43 | 00:00:00 | |
| DF8AY | 2026-09-02 13:03:26 | 52.62694 | 11.14715 | 83° | 27km/h | 629m | -6.7m/s | 15.6°C | 68.8% | 949.9hPa | 2.7V | 02:46:36 | 03:12:40 | 00:00:00 | |
| DB0DAN | 2026-09-02 13:03:25 | 52.62693 | 11.14704 | 84° | 26km/h | 636m | -7.5m/s | 15.6°C | 62.1% | 949.29hPa | 2.7V | 00:00:00 | 00:00:00 | 00:00:00 | |
| DF8AY | 2026-09-02 13:03:25 | 52.62693 | 11.14704 | 84° | 27km/h | 636m | -7.5m/s | 15.6°C | 69.3% | 949.3hPa | 2.7V | 02:46:36 | 03:12:39 | 00:00:00 | |
| DF8AY | 2026-09-02 13:03:24 | 52.62692 | 11.14680 | 86° | 29km/h | 650m | -6.9m/s | 15.4°C | 69.8% | 947.8hPa | 2.7V | 02:46:36 | 03:12:37 | 00:00:00 | |
| DF8AY | 2026-09-02 13:03:23 | 52.62692 | 11.14668 | 89° | 29km/h | 657m | -6.8m/s | 15.4°C | 70.3% | 947.1hPa | 2.7V | 02:46:36 | 03:12:36 | 00:00:00 | |
| DF8AY | 2026-09-02 13:03:21 | 52.62692 | 11.14643 | 92° | 31km/h | 670m | -6.5m/s | 15.2°C | 70.9% | 945.6hPa | 2.7V | 02:46:36 | 03:12:34 | 00:00:00 | |
| DF8AY | 2026-09-02 13:03:20 | 52.62692 | 11.14604 | 87° | 33km/h | 690m | -6.9m/s | 15.1°C | 71% | 943.5hPa | 2.7V | 02:46:36 | 03:12:31 | 00:00:00 | |
| DF8AY | 2026-09-02 13:03:18 | 52.62691 | 11.14591 | 83° | 33km/h | 697m | -7.2m/s | 15°C | 71.1% | 942.5hPa | 2.7V | 02:46:36 | 03:12:30 | 00:00:00 | |
| DF8AY | 2026-09-02 13:03:17 | 52.62689 | 11.14564 | 86° | 31km/h | 710m | -6.6m/s | 14.8°C | 71.5% | 941hPa | 2.7V | 02:46:36 | 03:12:28 | 00:00:00 | |
| DF8AY | 2026-09-02 13:03:16 | 52.62687 | 11.14513 | 86° | 31km/h | 737m | -7.1m/s | 14.8°C | 67.7% | 938.5hPa | 2.7V | 02:46:36 | 03:12:24 | 00:00:00 | |
| DF8AY | 2026-09-02 13:03:15 | 52.62686 | 11.14500 | 83° | 33km/h | 744m | -6.5m/s | 14.7°C | 67.9% | 937.5hPa | 2.7V | 02:46:36 | 03:12:23 | 00:00:00 | |
| DF8AY-15 | 2026-09-02 13:03:14 | 52.62689 | 11.14564 | 86° | 31km/h | 710m | -6.5m/s | 14.8°C | 64.4% | 941.0hPa | 2.7V | 00:00:00 | 03:12:28 | 00:00:00 | |
| DB0DAN | 2026-09-02 13:03:10 | 52.62687 | 11.14513 | 86° | 29km/h | 737m | -7.1m/s | 14.8°C | 60.5% | 938.53hPa | 2.7V | 00:00:00 | 00:00:00 | 00:00:00 | |
| DF8AY | 2026-09-02 13:03:08 | 52.62685 | 11.14486 | 81° | 33km/h | 750m | -6.1m/s | 14.6°C | 68.3% | 936.9hPa | 2.6V | 02:46:36 | 03:12:22 | 00:00:00 | |
| DF8AY | 2026-09-02 13:03:06 | 52.62683 | 11.14460 | 81° | 31km/h | 763m | -7.5m/s | 14.5°C | 69.5% | 935.3hPa | 2.7V | 02:46:36 | 03:12:20 | 00:00:00 | |
| DF8AY | 2026-09-02 13:03:05 | 52.62682 | 11.14447 | 83° | 31km/h | 770m | -7.3m/s | 14.4°C | 69.8% | 934.4hPa | 2.7V | 02:46:36 | 03:12:19 | 00:00:00 | |
| DF8AY | 2026-09-02 13:03:04 | 52.62681 | 11.14435 | 84° | 29km/h | 777m | -7m/s | 14.3°C | 70.4% | 933.7hPa | 2.7V | 02:46:36 | 03:12:18 | 00:00:00 | |
| DF8AY | 2026-09-02 13:03:02 | 52.62678 | 11.14409 | 85° | 31km/h | 791m | -7m/s | 14.2°C | 71.2% | 932.3hPa | 2.7V | 02:46:36 | 03:12:16 | 00:00:00 | |
| DF8AY | 2026-09-02 13:03:01 | 52.62678 | 11.14396 | 83° | 33km/h | 797m | -6.2m/s | 14.1°C | 71% | 931.5hPa | 2.7V | 02:46:36 | 03:12:15 | 00:00:00 | |
| DF8AY | 2026-09-02 13:03:00 | 52.62676 | 11.14369 | 84° | 33km/h | 810m | -6.6m/s | 14°C | 73% | 930.2hPa | 2.7V | 02:46:36 | 03:12:13 | 00:00:00 | |
| DF8AY | 2026-09-02 13:02:58 | 52.62675 | 11.14356 | 87° | 33km/h | 817m | -7.7m/s | 13.9°C | 74.1% | 929.4hPa | 2.6V | 02:46:36 | 03:12:12 | 00:00:00 | |
| DF8AY | 2026-09-02 13:02:56 | 52.62674 | 11.14329 | 85° | 31km/h | 833m | -9.2m/s | 13.8°C | 73.2% | 927.7hPa | 2.7V | 02:46:36 | 03:12:10 | 00:00:00 | |
| DB0DAN | 2026-09-02 13:02:55 | 52.62673 | 11.14316 | 87° | 29km/h | 842m | -8.1m/s | 13.7°C | 66.1% | 926.54hPa | 2.7V | 00:00:00 | 00:00:00 | 00:00:00 | |
| DF8AY | 2026-09-02 13:02:54 | 52.62673 | 11.14303 | 85° | 33km/h | 849m | -8.5m/s | 13.7°C | 73.4% | 925.9hPa | 2.7V | 02:46:36 | 03:12:08 | 00:00:00 | |
| DF8AY | 2026-09-02 13:02:52 | 52.62671 | 11.14263 | 87° | 33km/h | 874m | -7.8m/s | 13.5°C | 72.8% | 923.2hPa | 2.7V | 02:47:27 | 03:12:05 | 00:00:00 | |
| DF8AY | 2026-09-02 13:02:51 | 52.62669 | 11.14220 | 86° | 35km/h | 897m | -7.6m/s | 13.2°C | 73.6% | 920.6hPa | 2.7V | 02:47:27 | 03:12:02 | 00:00:00 | |
| DF8AY | 2026-09-02 13:02:50 | 52.62667 | 11.14179 | 87° | 33km/h | 919m | -8.4m/s | 13°C | 74.9% | 918.3hPa | 2.7V | 02:47:27 | 03:11:59 | 00:00:00 | |
| DF8AY | 2026-09-02 13:02:49 | 52.62666 | 11.14138 | 85° | 33km/h | 943m | -8.1m/s | 12.7°C | 75.1% | 915.4hPa | 2.7V | 02:47:27 | 03:11:56 | 00:00:00 | |
| DF8AY | 2026-09-02 13:02:46 | 52.62665 | 11.14124 | 85° | 35km/h | 951m | -7.7m/s | 12.7°C | 75.5% | 914.7hPa | 2.7V | 02:47:27 | 03:11:55 | 00:00:00 | |
| DF8AY | 2026-09-02 13:02:38 | 52.62663 | 11.14080 | 86° | 37km/h | 973m | -7.3m/s | 12.5°C | 75.7% | 912.3hPa | 2.7V | 02:47:27 | 03:11:52 | 00:00:00 | |
| DF8AY | 2026-09-02 13:02:37 | 52.62662 | 11.14050 | 90° | 37km/h | 986m | -6.7m/s | 12.4°C | 74.2% | 910.7hPa | 2.7V | 02:47:27 | 03:11:50 | 00:00:00 | |
| DF8AY | 2026-09-02 13:02:35 | 52.62662 | 11.14020 | 89° | 37km/h | 999m | -6.9m/s | 12.3°C | 73.9% | 909.4hPa | 2.7V | 02:47:27 | 03:11:48 | 00:00:00 | |
| DF8AY | 2026-09-02 13:02:32 | 52.62662 | 11.13990 | 85° | 37km/h | 1013m | -7.5m/s | 12.2°C | 74.7% | 908hPa | 2.7V | 02:47:27 | 03:11:46 | 00:00:00 | |
| DF8AY | 2026-09-02 13:02:30 | 52.62660 | 11.13961 | 86° | 35km/h | 1027m | -7.1m/s | 12°C | 75.4% | 906.4hPa | 2.7V | 02:47:27 | 03:11:44 | 00:00:00 | |
| DF8AY | 2026-09-02 13:02:29 | 52.62659 | 11.13932 | 87° | 35km/h | 1041m | -7m/s | 11.9°C | 76.3% | 904.8hPa | 2.7V | 02:47:27 | 03:11:42 | 00:00:00 | |
| DF8AY | 2026-09-02 13:02:28 | 52.62659 | 11.13918 | 89° | 35km/h | 1048m | -7.5m/s | 11.8°C | 77% | 904hPa | 2.7V | 02:47:27 | 03:11:41 | 00:00:00 | |
| DF8AY | 2026-09-02 13:02:26 | 52.62658 | 11.13875 | 89° | 35km/h | 1070m | -7.9m/s | 11.6°C | 77% | 901.7hPa | 2.7V | 02:47:27 | 03:11:38 | 00:00:00 | |
| DB0DAN | 2026-09-02 13:02:25 | 52.62658 | 11.13889 | 88° | 33km/h | 1063m | -7.3m/s | 11.7°C | 68.9% | 902.41hPa | 2.7V | 00:00:00 | 00:00:00 | 00:00:00 | |
| DF8AY | 2026-09-02 13:02:23 | 52.62657 | 11.13860 | 88° | 35km/h | 1078m | -7.8m/s | 11.6°C | 77.3% | 900.9hPa | 2.7V | 02:47:27 | 03:11:37 | 00:00:00 | |
| DF8AY | 2026-09-02 13:02:22 | 52.62655 | 11.13817 | 83° | 35km/h | 1101m | -9.6m/s | 11.4°C | 78.4% | 898.5hPa | 2.7V | 02:47:27 | 03:11:34 | 00:00:00 | |
| DF8AY | 2026-09-02 13:02:21 | 52.62653 | 11.13773 | 87° | 35km/h | 1126m | -7.8m/s | 11.1°C | 78.6% | 895.8hPa | 2.7V | 02:47:27 | 03:11:31 | 00:00:00 | |
| DF8AY | 2026-09-02 13:02:19 | 52.62652 | 11.13731 | 89° | 33km/h | 1148m | -7.9m/s | 10.9°C | 78.4% | 893.6hPa | 2.6V | 02:47:27 | 03:11:28 | 00:00:00 | |
| DF8AY | 2026-09-02 13:02:18 | 52.62652 | 11.13717 | 87° | 33km/h | 1155m | -7.5m/s | 10.8°C | 79.4% | 892.7hPa | 2.7V | 02:47:27 | 03:11:27 | 00:00:00 | |
| DF8AY | 2026-09-02 13:02:17 | 52.62651 | 11.13703 | 85° | 33km/h | 1162m | -5.7m/s | 10.8°C | 80% | 891.8hPa | 2.7V | 02:47:27 | 03:11:26 | 00:00:00 | |
| DF8AY | 2026-09-02 13:02:15 | 52.62649 | 11.13675 | 81° | 35km/h | 1175m | -7.5m/s | 10.7°C | 80.6% | 890.5hPa | 2.7V | 02:47:27 | 03:11:24 | 00:00:00 | |
| DF8AY | 2026-09-02 13:02:13 | 52.62647 | 11.13648 | 85° | 33km/h | 1190m | -7.2m/s | 10.5°C | 81.3% | 888.9hPa | 2.7V | 02:47:27 | 03:11:22 | 00:00:00 | |
| DB0DAN | 2026-09-02 13:02:10 | 52.62649 | 11.13675 | 81° | 33km/h | 1175m | -7.5m/s | 10.7°C | 72.6% | 890.47hPa | 2.7V | 00:00:00 | 00:00:00 | 00:00:00 | |
| DF8AY | 2026-09-02 13:02:07 | 52.62647 | 11.13634 | 86° | 33km/h | 1197m | -7.6m/s | 10.5°C | 82.3% | 888.1hPa | 2.7V | 02:47:27 | 03:11:21 | 00:00:00 | |
| DF8AY | 2026-09-02 13:02:06 | 52.62646 | 11.13621 | 87° | 33km/h | 1204m | -6.9m/s | 10.4°C | 82.7% | 887.4hPa | 2.6V | 02:47:27 | 03:11:20 | 00:00:00 | |
| DF8AY | 2026-09-02 13:02:04 | 52.62645 | 11.13592 | 85° | 37km/h | 1220m | -9.2m/s | 10.3°C | 82.8% | 885.9hPa | 2.7V | 02:47:27 | 03:11:18 | 00:00:00 | |
| DF8AY | 2026-09-02 13:02:03 | 52.62644 | 11.13577 | 86° | 37km/h | 1227m | -7m/s | 10.2°C | 82.9% | 885hPa | 2.7V | 02:47:27 | 03:11:17 | 00:00:00 | |
| DF8AY | 2026-09-02 13:02:01 | 52.62643 | 11.13548 | 85° | 35km/h | 1241m | -6.9m/s | 10.1°C | 83.1% | 883.5hPa | 2.7V | 02:47:27 | 03:11:15 | 00:00:00 | |
| DF8AY | 2026-09-02 13:02:00 | 52.62641 | 11.13506 | 85° | 33km/h | 1260m | -6.8m/s | 9.9°C | 83.7% | 881.3hPa | 2.6V | 02:48:18 | 03:11:12 | 00:00:00 | |
| DF8AY | 2026-09-02 13:01:58 | 52.62637 | 11.13438 | 84° | 33km/h | 1293m | -6.7m/s | 9.6°C | 84% | 877.7hPa | 2.7V | 02:48:18 | 03:11:07 | 00:00:00 | |
| DF8AY | 2026-09-02 13:01:57 | 52.62636 | 11.13425 | 82° | 33km/h | 1300m | -6.9m/s | 9.6°C | 84.4% | 877.1hPa | 2.7V | 02:48:18 | 03:11:06 | 00:00:00 | |
| DF8AY | 2026-09-02 13:01:51 | 52.62635 | 11.13411 | 81° | 31km/h | 1307m | -8.3m/s | 9.5°C | 84.9% | 876.4hPa | 2.7V | 02:48:18 | 03:11:05 | 00:00:00 | |
| DF8AY | 2026-09-02 13:01:50 | 52.62632 | 11.13385 | 79° | 31km/h | 1323m | -8.5m/s | 9.4°C | 85.2% | 874.8hPa | 2.7V | 02:48:18 | 03:11:03 | 00:00:00 | |
| DF8AY | 2026-09-02 13:01:48 | 52.62627 | 11.13346 | 80° | 33km/h | 1346m | -8.4m/s | 9.1°C | 87.4% | 872.3hPa | 2.7V | 02:48:18 | 03:11:00 | 00:00:00 | |
| DF8AY | 2026-09-02 13:01:47 | 52.62624 | 11.13318 | 81° | 33km/h | 1361m | -6.9m/s | 9°C | 88.4% | 870.6hPa | 2.7V | 02:48:18 | 03:10:58 | 00:00:00 | |
| DF8AY | 2026-09-02 13:01:45 | 52.62619 | 11.13262 | 83° | 33km/h | 1391m | -8.3m/s | 8.7°C | 90.7% | 867.7hPa | 2.7V | 02:48:18 | 03:10:54 | 00:00:00 | |
| DF8AY | 2026-09-02 13:01:44 | 52.62617 | 11.13234 | 80° | 33km/h | 1407m | -8.7m/s | 8.6°C | 91.4% | 866hPa | 2.7V | 02:48:18 | 03:10:52 | 00:00:00 | |
| DF8AY | 2026-09-02 13:01:43 | 52.62616 | 11.13221 | 83° | 33km/h | 1416m | -8.1m/s | 8.5°C | 89.6% | 865.2hPa | 2.7V | 02:48:18 | 03:10:51 | 00:00:00 | |
| DF8AY | 2026-09-02 13:01:42 | 52.62615 | 11.13207 | 84° | 33km/h | 1424m | -8.2m/s | 8.5°C | 90.6% | 864.2hPa | 2.7V | 02:48:18 | 03:10:50 | 00:00:00 | |
| DF7ER-10 | 2026-09-02 13:01:41 | 52.62622 | 11.13290 | 83° | 35km/h | 1375m | -7.3m/s | 8.9°C | 83.0% | 869.0hPa | 2.7V | 02:48:00 | 00:00:00 | 00:00:00 | |
| DB0DAN | 2026-09-02 13:01:40 | 52.62619 | 11.13262 | 83° | 31km/h | 1391m | -8.3m/s | 8.7°C | 83.4% | 867.68hPa | 2.7V | 00:00:00 | 00:00:00 | 00:00:00 | |
| DF8AY | 2026-09-02 13:01:40 | 52.62614 | 11.13193 | 85° | 33km/h | 1432m | -9m/s | 8.4°C | 90.5% | 863.5hPa | 2.6V | 02:48:18 | 03:10:49 | 00:00:00 | |
| DF8AY | 2026-09-02 13:01:39 | 52.62613 | 11.13179 | 84° | 35km/h | 1441m | -8.8m/s | 8.4°C | 89.9% | 862.6hPa | 2.7V | 02:48:18 | 03:10:48 | 00:00:00 | |
| DF8AY | 2026-09-02 13:01:37 | 52.62609 | 11.13122 | 81° | 35km/h | 1475m | -8.4m/s | 8°C | 89.9% | 858.9hPa | 2.7V | 02:48:18 | 03:10:44 | 00:00:00 | |
| DF8AY | 2026-09-02 13:01:36 | 52.62605 | 11.13064 | 88° | 37km/h | 1504m | -6.8m/s | 7.9°C | 87.7% | 855.9hPa | 2.7V | 02:48:18 | 03:10:40 | 00:00:00 | |
| DF8AY | 2026-09-02 13:01:24 | 52.62603 | 11.13017 | 87° | 37km/h | 1525m | -7.4m/s | 7.7°C | 88.3% | 853.7hPa | 2.7V | 02:48:18 | 03:10:37 | 00:00:00 | |
| DF8AY | 2026-09-02 13:01:22 | 52.62602 | 11.12987 | 86° | 35km/h | 1539m | -6.5m/s | 7.6°C | 89.7% | 852.2hPa | 2.6V | 02:48:18 | 03:10:35 | 00:00:00 | |
| DF8AY | 2026-09-02 13:01:21 | 52.62602 | 11.12972 | 86° | 37km/h | 1546m | -8.6m/s | 7.5°C | 90.5% | 851.7hPa | 2.7V | 02:48:18 | 03:10:34 | 00:00:00 | |
| DF8AY | 2026-09-02 13:01:19 | 52.62601 | 11.12958 | 87° | 35km/h | 1554m | -7.6m/s | 7.4°C | 91.1% | 850.7hPa | 2.7V | 02:48:18 | 03:10:33 | 00:00:00 | |
| DF8AY | 2026-09-02 13:01:18 | 52.62601 | 11.12943 | 85° | 37km/h | 1561m | -7.6m/s | 7.4°C | 90.3% | 850hPa | 2.7V | 02:48:18 | 03:10:32 | 00:00:00 | |
| DF8AY | 2026-09-02 13:01:16 | 52.62599 | 11.12913 | 86° | 35km/h | 1578m | -8.7m/s | 7.3°C | 89.2% | 848.4hPa | 2.7V | 02:48:18 | 03:10:30 | 00:00:00 | |
| DF8AY | 2026-09-02 13:01:15 | 52.62598 | 11.12884 | 85° | 35km/h | 1594m | -7.6m/s | 7.2°C | 89.7% | 846.6hPa | 2.6V | 02:48:18 | 03:10:28 | 00:00:00 | |
| DF8AY | 2026-09-02 13:01:12 | 52.62596 | 11.12855 | 85° | 35km/h | 1610m | -9.2m/s | 7.1°C | 88.7% | 845.3hPa | 2.7V | 02:48:18 | 03:10:26 | 00:00:00 | |
| DF8AY | 2026-09-02 13:01:11 | 52.62594 | 11.12802 | 84° | 31km/h | 1641m | -7.9m/s | 7°C | 87.7% | 841.8hPa | 2.7V | 02:49:09 | 03:10:22 | 00:00:00 | |
| DF8AY | 2026-09-02 13:01:09 | 52.62593 | 11.12789 | 86° | 31km/h | 1649m | -8.2m/s | 6.9°C | 87.6% | 841hPa | 2.6V | 02:49:09 | 03:10:21 | 00:00:00 | |
| DF8AY | 2026-09-02 13:01:06 | 52.62592 | 11.12776 | 85° | 33km/h | 1657m | -8.8m/s | 6.9°C | 87.5% | 840.2hPa | 2.7V | 02:49:09 | 03:10:20 | 00:00:00 | |
| DF8AY | 2026-09-02 13:01:04 | 52.62591 | 11.12749 | 83° | 33km/h | 1673m | -7.9m/s | 6.8°C | 87.6% | 838.7hPa | 2.7V | 02:49:09 | 03:10:18 | 00:00:00 | |
| DF8AY | 2026-09-02 13:01:02 | 52.62589 | 11.12722 | 81° | 33km/h | 1689m | -8.1m/s | 6.7°C | 86.4% | 836.9hPa | 2.7V | 02:49:09 | 03:10:16 | 00:00:00 | |
| DF8AY | 2026-09-02 13:01:02 | 52.62588 | 11.12708 | 81° | 33km/h | 1697m | -8.2m/s | 6.7°C | 86.7% | 836.2hPa | 2.7V | 02:49:09 | 03:10:15 | 00:00:00 | |
| DF8AY | 2026-09-02 13:00:59 | 52.62584 | 11.12682 | 80° | 31km/h | 1713m | -7.2m/s | 6.6°C | 86.4% | 834.6hPa | 2.7V | 02:49:09 | 03:10:13 | 00:00:00 | |
| DF8AY | 2026-09-02 13:00:58 | 52.62581 | 11.12656 | 78° | 33km/h | 1727m | -8.2m/s | 6.6°C | 86.2% | 833.1hPa | 2.7V | 02:49:09 | 03:10:11 | 00:00:00 | |
| DF8AY | 2026-09-02 13:00:56 | 52.62579 | 11.12643 | 75° | 33km/h | 1736m | -7.7m/s | 6.6°C | 86% | 832.3hPa | 2.6V | 02:49:09 | 03:10:10 | 00:00:00 | |
| DF8AY | 2026-09-02 13:00:53 | 52.62573 | 11.12605 | 74° | 33km/h | 1759m | -8.4m/s | 6.5°C | 86% | 830.1hPa | 2.7V | 02:49:09 | 03:10:07 | 00:00:00 | |
| DF8AY | 2026-09-02 13:00:51 | 52.62569 | 11.12579 | 71° | 33km/h | 1775m | -8.8m/s | 6.4°C | 86.3% | 828.1hPa | 2.7V | 02:49:09 | 03:10:05 | 00:00:00 | |
| DF8AY | 2026-09-02 13:00:49 | 52.62562 | 11.12539 | 73° | 35km/h | 1801m | -9.8m/s | 6.2°C | 86.1% | 825.8hPa | 2.6V | 02:49:09 | 03:10:02 | 00:00:00 | |
| DF8AY | 2026-09-02 13:00:47 | 52.62559 | 11.12525 | 72° | 35km/h | 1810m | -8.5m/s | 6.1°C | 86.6% | 824.7hPa | 2.7V | 02:49:09 | 03:10:01 | 00:00:00 | |
| DF8AY | 2026-09-02 13:00:47 | 52.62557 | 11.12511 | 75° | 35km/h | 1818m | -9.1m/s | 6.1°C | 86.4% | 824hPa | 2.7V | 02:49:09 | 03:10:00 | 00:00:00 | |
| DF8AY | 2026-09-02 13:00:44 | 52.62552 | 11.12483 | 73° | 37km/h | 1835m | -7.9m/s | 5.9°C | 85.6% | 822.1hPa | 2.7V | 02:49:09 | 03:09:58 | 00:00:00 | |
| DF8AY | 2026-09-02 13:00:43 | 52.62549 | 11.12469 | 72° | 35km/h | 1842m | -7.4m/s | 5.9°C | 86% | 821.3hPa | 2.7V | 02:49:09 | 03:09:57 | 00:00:00 | |
| DF8AY | 2026-09-02 13:00:41 | 52.62544 | 11.12443 | 71° | 35km/h | 1857m | -8.2m/s | 5.8°C | 86.9% | 819.9hPa | 2.7V | 02:49:09 | 03:09:55 | 00:00:00 | |
| DB0DAN | 2026-09-02 13:00:40 | 52.62541 | 11.12430 | 70° | 33km/h | 1865m | -7.8m/s | 5.7°C | 79.3% | 819.3hPa | 2.7V | 00:00:00 | 00:00:00 | 00:00:00 | |
| DF8AY | 2026-09-02 13:00:40 | 52.62538 | 11.12417 | 71° | 35km/h | 1872m | -7.6m/s | 5.6°C | 87.8% | 818.3hPa | 2.7V | 02:49:09 | 03:09:53 | 00:00:00 | |
| DF8AY | 2026-09-02 13:00:39 | 52.62532 | 11.12390 | 71° | 35km/h | 1890m | -9.6m/s | 5.5°C | 88.8% | 816.8hPa | 2.6V | 02:49:09 | 03:09:51 | 00:00:00 | |
| DF8AY | 2026-09-02 13:00:38 | 52.62529 | 11.12377 | 70° | 33km/h | 1899m | -8.8m/s | 5.5°C | 88.7% | 815.8hPa | 2.7V | 02:49:09 | 03:09:50 | 00:00:00 | |
| DF8AY | 2026-09-02 13:00:34 | 52.62524 | 11.12351 | 69° | 33km/h | 1914m | -8.2m/s | 5.3°C | 88.9% | 814.2hPa | 2.7V | 02:49:09 | 03:09:48 | 00:00:00 | |
| DF8AY | 2026-09-02 13:00:33 | 52.62519 | 11.12326 | 70° | 31km/h | 1931m | -8.2m/s | 5.1°C | 89.8% | 812.5hPa | 2.7V | 02:49:09 | 03:09:46 | 00:00:00 | |
| DF8AY | 2026-09-02 13:00:31 | 52.62516 | 11.12314 | 69° | 31km/h | 1939m | -7.9m/s | 5.1°C | 89.4% | 811.6hPa | 2.7V | 02:49:09 | 03:09:45 | 00:00:00 | |
| DF8AY | 2026-09-02 13:00:30 | 52.62513 | 11.12302 | 68° | 31km/h | 1946m | -8m/s | 5°C | 89.6% | 810.8hPa | 2.6V | 02:49:09 | 03:09:44 | 00:00:00 | |
| DF8AY | 2026-09-02 13:00:29 | 52.62510 | 11.12290 | 68° | 31km/h | 1954m | -8.5m/s | 4.9°C | 89.7% | 810.2hPa | 2.7V | 02:49:09 | 03:09:43 | 00:00:00 | |
| DF8AY | 2026-09-02 13:00:27 | 52.62502 | 11.12255 | 71° | 29km/h | 1978m | -7.9m/s | 4.8°C | 89.2% | 807.8hPa | 2.7V | 02:49:09 | 03:09:40 | 00:00:00 | |
| DF8AY | 2026-09-02 13:00:24 | 52.62497 | 11.12233 | 68° | 31km/h | 1992m | -7.5m/s | 4.7°C | 90.1% | 806.2hPa | 2.6V | 02:49:09 | 03:09:38 | 00:00:00 | |
| DF8AY | 2026-09-02 13:00:22 | 52.62491 | 11.12209 | 68° | 29km/h | 2009m | -9.2m/s | 4.6°C | 91.4% | 804.8hPa | 2.7V | 02:49:09 | 03:09:36 | 00:00:00 | |
| DF8AY | 2026-09-02 13:00:12 | 52.62457 | 11.12088 | 63° | 29km/h | 2104m | -8.7m/s | 3.7°C | 95.1% | 795.5hPa | 2.7V | 02:50:00 | 03:09:25 | 00:00:00 | |
| DF8AY | 2026-09-02 13:00:00 | 52.62400 | 11.11914 | 59° | 29km/h | 2246m | -8m/s | 2.5°C | 100% | 781.5hPa | 2.7V | 02:50:00 | 03:09:08 | 00:00:00 | |
| DF7ER-10 | 2026-09-02 12:59:56 | 52.62411 | 11.11942 | 62° | 27km/h | 2223m | -8.6m/s | 2.7°C | 92.7% | 783.9hPa | 2.7V | 02:50:00 | 00:00:00 | 00:00:00 | |
| DB0DAN | 2026-09-02 12:59:55 | 52.62404 | 11.11923 | 57° | 26km/h | 2239m | -7.8m/s | 2.6°C | 93.3% | 782.26hPa | 2.7V | 00:00:00 | 00:00:00 | 00:00:00 | |
| DF8AY | 2026-09-02 12:59:46 | 52.62362 | 11.11816 | 55° | 29km/h | 2322m | -7.5m/s | 2.1°C | 97.9% | 774.2hPa | 2.6V | 02:50:00 | 03:08:58 | 00:00:00 | |
| BIOWL1-15 | 2026-09-02 12:59:37 | 52.62332 | 11.11749 | 53° | 27km/h | 2374m | -7.1m/s | 1.6°C | 98.2% | 769.3hPa | 2.7V | 02:50:00 | 03:08:51 | 00:00:00 | |
| DF8AY | 2026-09-02 12:59:36 | 52.62328 | 11.11739 | 54° | 29km/h | 2381m | -8.2m/s | 1.6°C | 98.7% | 768.5hPa | 2.7V | 02:50:00 | 03:08:50 | 00:00:00 | |
| BIOWL1-15 | 2026-09-02 12:59:27 | 52.62290 | 11.11647 | 56° | 31km/h | 2448m | -8.2m/s | 1°C | 99.7% | 762.3hPa | 2.7V | 02:50:51 | 03:08:41 | 00:00:00 | |
| DF8AY | 2026-09-02 12:59:26 | 52.62265 | 11.11563 | 68° | 26km/h | 2517m | -8.6m/s | 0.9°C | 85.6% | 755.9hPa | 2.7V | 02:50:51 | 03:08:33 | 00:00:00 | |
| BIOWL1-15 | 2026-09-02 12:59:17 | 52.62260 | 11.11542 | 72° | 27km/h | 2533m | -7.5m/s | 0.9°C | 81.3% | 754.4hPa | 2.7V | 02:50:51 | 03:08:31 | 00:00:00 | |
| DF8AY-15 | 2026-09-02 12:59:13 | 52.62253 | 11.11500 | 75° | 24km/h | 2561m | -7.0m/s | 0.8°C | 74.5% | 751.7hPa | 2.7V | 02:50:00 | 03:08:27 | 00:00:00 | |
| EDDB2-12 | 2026-09-02 12:59:12 | 52.62251 | 11.11490 | 72° | 26km/h | 2568m | -7.7m/s | 0.8°C | 73.6% | 751.0hPa | 2.7V | 00:00:00 | 00:00:00 | 00:00:00 | |
| DB0DAN | 2026-09-02 12:59:10 | 52.62247 | 11.11470 | 68° | 24km/h | 2583m | -8.3m/s | 0.6°C | 74.4% | 749.64hPa | 2.7V | 00:00:00 | 00:00:00 | 00:00:00 | |
| DF8AY | 2026-09-02 12:59:09 | 52.62242 | 11.11451 | 68° | 24km/h | 2599m | -7.1m/s | 0.5°C | 76.8% | 748.1hPa | 2.6V | 02:50:51 | 03:08:22 | 00:00:00 | |
| DM0DOS-11 | 2026-09-02 12:59:08 | 52.62238 | 11.11433 | 71° | 22km/h | 2614m | -9.8m/s | 0.5°C | 72.9% | 746.9hPa | 2.7V | 02:50:22 | 03:08:20 | 00:00:00 | |
| BIOWL1-15 | 2026-09-02 12:59:07 | 52.62240 | 11.11442 | 70° | 24km/h | 2606m | -7.3m/s | 0.5°C | 77.5% | 747.5hPa | 2.7V | 02:50:51 | 03:08:21 | 00:00:00 | |
| DF8AY | 2026-09-02 12:58:59 | 52.62227 | 11.11357 | 83° | 24km/h | 2678m | -8.6m/s | 1.2°C | 60.8% | 741hPa | 2.6V | 02:50:51 | 03:08:12 | 00:00:00 | |
| DM0DOS-11 | 2026-09-02 12:58:58 | 52.62221 | 11.11298 | 79° | 24km/h | 2721m | -6.8m/s | 1.5°C | 46.2% | 736.9hPa | 2.7V | 02:50:36 | 03:08:06 | 00:00:00 | |
| BIOWL1-15 | 2026-09-02 12:58:57 | 52.62225 | 11.11337 | 83° | 24km/h | 2694m | -6.9m/s | 1.5°C | 55.4% | 739.5hPa | 2.7V | 02:50:51 | 03:08:10 | 00:00:00 | |
| DL1XH-west | 2026-09-02 12:58:51 | 52.62220 | 11.11288 | 82° | 26km/h | 2729m | -8.6m/s | 1.5°C | 52.4% | 736.4hPa | 2.7V | 02:51:42 | 03:08:05 | 00:00:00 | |
| DF8AY | 2026-09-02 12:58:48 | 52.62218 | 11.11245 | 88° | 27km/h | 2759m | -7.7m/s | 1.5°C | 50.5% | 733.4hPa | 2.7V | 02:50:51 | 03:08:01 | 00:00:00 | |
| BIOWL1-15 | 2026-09-02 12:58:46 | 52.62218 | 11.11234 | 90° | 27km/h | 2766m | -8m/s | 1.4°C | 49.7% | 732.8hPa | 2.7V | 02:50:51 | 03:08:00 | 00:00:00 | |
| DL1XH-west | 2026-09-02 12:58:41 | 52.62219 | 11.11167 | 96° | 26km/h | 2810m | -7m/s | 1.2°C | 54.6% | 728.8hPa | 2.7V | 02:51:42 | 03:07:54 | 00:00:00 | |
| DF8AY | 2026-09-02 12:58:38 | 52.62226 | 11.11064 | 98° | 26km/h | 2872m | -7.3m/s | 0.6°C | 56% | 723hPa | 2.7V | 02:51:42 | 03:07:45 | 00:00:00 | |
| BIOWL1-15 | 2026-09-02 12:58:35 | 52.62224 | 11.11098 | 97° | 29km/h | 2852m | -6.8m/s | 0.8°C | 55.5% | 724.8hPa | 2.7V | 02:51:42 | 03:07:48 | 00:00:00 | |
| S3001 | 2026-09-02 12:58:34 | 52.62224 | 11.11098 | 97° | 27km/h | 2852m | -6.8m/s | 0.8°C | 48.2% | 724.8hPa | 2.7V | 00:00:00 | 00:00:00 | 00:00:00 | |
| DL1XH1-15 | 2026-09-02 12:58:33 | 52.62229 | 11.11032 | 99° | 26km/h | 2895m | -7.3m/s | 0.4°C | 48.9% | 720.9hPa | 2.7V | 02:51:00 | 03:07:42 | 00:00:00 | |
| DF8AY-15 | 2026-09-02 12:58:33 | 52.62225 | 11.11086 | 97° | 29km/h | 2859m | -7.3m/s | 0.7°C | 48.2% | 724.1hPa | 2.7V | 00:00:00 | 03:07:47 | 00:00:00 | |
| DM0DOS-11 | 2026-09-02 12:58:32 | 52.62228 | 11.11042 | 97° | 26km/h | 2887m | -8.9m/s | 0.5°C | 48.5% | 721.6hPa | 2.7V | 02:50:59 | 03:07:43 | 00:00:00 | |
| DL1XH-west | 2026-09-02 12:58:29 | 52.62228 | 11.11042 | 98° | 26km/h | 2887m | -8.9m/s | 0.5°C | 55.2% | 721.6hPa | 2.7V | 02:51:42 | 03:07:43 | 00:00:00 | |
| SONDE2-11 | 2026-09-02 12:58:28 | 52.62230 | 11.11021 | 101° | 26km/h | 2903m | -7.3m/s | 0.3°C | 48.4% | 720.3hPa | 2.6V | 00:00:00 | 00:00:00 | 00:00:00 | |
| SMARD9-10 | 2026-09-02 12:58:25 | 52.62233 | 11.11000 | 103° | 27km/h | 2916m | -7.6m/s | 0.2°C | 48.6% | 719.0hPa | 2.6V | 00:00:00 | 00:00:00 | 00:00:00 | |
| DL1XH1-15 | 2026-09-02 12:58:22 | 52.62245 | 11.10916 | 98° | 31km/h | 2969m | -7m/s | -0.3°C | 49.4% | 714.3hPa | 2.6V | 02:51:10 | 03:07:32 | 00:00:00 | |
| DM0DOS-11 | 2026-09-02 12:58:22 | 52.62244 | 11.10928 | 99° | 31km/h | 2963m | -7m/s | -0.2°C | 49.5% | 714.9hPa | 2.7V | 02:51:09 | 03:07:33 | 00:00:00 | |
| DF8AY | 2026-09-02 12:58:21 | 52.62244 | 11.10928 | 100° | 31km/h | 2963m | -7m/s | -0.2°C | 55.4% | 714.9hPa | 2.7V | 02:51:42 | 03:07:33 | 00:00:00 | |
| DL1XH-west | 2026-09-02 12:58:18 | 52.62245 | 11.10916 | 99° | 31km/h | 2970m | -7m/s | -0.3°C | 55.4% | 714.3hPa | 2.6V | 02:51:42 | 03:07:32 | 00:00:00 | |
| AM1SDL-15 | 2026-09-02 12:58:17 | 52.62246 | 11.10903 | 97° | 31km/h | 2976m | -6.8m/s | -0.3°C | 49.3% | 713.8hPa | 2.7V | 00:00:00 | 03:07:31 | 00:00:00 | |
| DL1XH1-15 | 2026-09-02 12:58:17 | 52.62251 | 11.10854 | 100° | 31km/h | 3005m | -8.2m/s | -0.4°C | 50.3% | 711.3hPa | 2.7V | 02:51:15 | 03:07:27 | 00:00:00 | |
| TFSTFS | 2026-09-02 12:58:15 | 52.62247 | 11.10891 | 98° | 29km/h | 2983m | -7.3m/s | -0.4°C | 48.6% | 713.1hPa | 2.7V | 02:51:00 | 00:00:00 | 00:00:00 | |
| DF8AY-15 | 2026-09-02 12:58:13 | 52.62250 | 11.10854 | 101° | 35km/h | 3005m | -8.1m/s | -0.3°C | 50.3% | 711.3hPa | 2.7V | 02:51:00 | 03:07:27 | 00:00:00 | |
| DL1XH1-15 | 2026-09-02 12:58:12 | 52.62259 | 11.10791 | 103° | 33km/h | 3042m | -8.3m/s | -0.6°C | 50.7% | 708.1hPa | 2.7V | 02:51:20 | 03:07:22 | 00:00:00 | |
| DM0DOS-11 | 2026-09-02 12:58:11 | 52.62262 | 11.10762 | 98° | 37km/h | 3056m | -6.8m/s | -0.7°C | 50.9% | 706.6hPa | 2.7V | 02:51:22 | 03:07:20 | 00:00:00 | |
| DF8AY | 2026-09-02 12:58:10 | 52.62259 | 11.10791 | 103° | 33km/h | 3042m | -8.3m/s | -0.6°C | 57% | 708.1hPa | 2.7V | 02:51:42 | 03:07:22 | 00:00:00 | |
| BIOWL1-15 | 2026-09-02 12:58:09 | 52.62261 | 11.10777 | 100° | 35km/h | 3049m | -7.1m/s | -0.7°C | 57% | 707.3hPa | 2.7V | 02:51:42 | 03:07:21 | 00:00:00 | |
| DL1XH-west | 2026-09-02 12:58:08 | 52.62262 | 11.10762 | 98° | 37km/h | 3056m | -6.8m/s | -0.7°C | 57.1% | 706.6hPa | 2.7V | 02:51:42 | 03:07:20 | 00:00:00 | |
| DL1XH1-15 | 2026-09-02 12:58:07 | 52.62265 | 11.10718 | 92° | 37km/h | 3076m | -6.9m/s | -0.9°C | 51.1% | 704.9hPa | 2.7V | 02:51:25 | 03:07:17 | 00:00:00 | |
| DM0DOS-11 | 2026-09-02 12:58:06 | 52.62269 | 11.10659 | 97° | 35km/h | 3104m | -6.6m/s | -1.1°C | 51.6% | 702.4hPa | 2.7V | 02:51:29 | 03:07:13 | 00:00:00 | |
| AM1SDL-15 | 2026-09-02 12:58:03 | 52.62265 | 11.10718 | 93° | 35km/h | 3076m | -6.9m/s | -0.8°C | 51.1% | 704.8hPa | 2.6V | 00:00:00 | 03:07:17 | 00:00:00 | |
| DL1XH1-15 | 2026-09-02 12:58:02 | 52.62274 | 11.10617 | 101° | 33km/h | 3125m | -7.4m/s | -1.3°C | 51.5% | 700.7hPa | 2.6V | 02:51:32 | 03:07:10 | 00:00:00 | |
| DM0DOS-11 | 2026-09-02 12:58:00 | 52.62278 | 11.10589 | 101° | 37km/h | 3138m | -7.1m/s | -1.3°C | 54.1% | 699.5hPa | 2.7V | 02:51:34 | 03:07:08 | 00:00:00 | |
| DF8AY | 2026-09-02 12:57:58 | 52.62271 | 11.10645 | 101° | 35km/h | 3111m | -7.2m/s | -1.2°C | 57.3% | 701.9hPa | 2.7V | 02:51:42 | 03:07:12 | 00:00:00 | |
| DL1XH-west | 2026-09-02 12:57:58 | 52.62274 | 11.10617 | 102° | 33km/h | 3125m | -7.4m/s | -1.3°C | 57.4% | 700.7hPa | 2.6V | 02:51:42 | 03:07:10 | 00:00:00 | |
| EDDB2-11 | 2026-09-02 12:57:57 | 52.62281 | 11.10559 | 97° | 38km/h | 3151m | -6.4m/s | -1.5°C | 54.9% | 698.2hPa | 2.7V | 00:00:00 | 00:00:00 | 00:00:00 | |
| TFSTFS | 2026-09-02 12:57:55 | 52.62274 | 11.10617 | 103° | 33km/h | 3125m | -7.4m/s | -1.3°C | 50.6% | 700.7hPa | 2.7V | 02:51:00 | 00:00:00 | 00:00:00 | |
| DM0DOS-11 | 2026-09-02 12:57:54 | 52.62285 | 11.10510 | 98° | 38km/h | 3170m | -6.1m/s | -1.6°C | 58.2% | 696.6hPa | 2.7V | 02:51:39 | 03:07:03 | 00:00:00 | |
| DL1XH-15 | 2026-09-02 12:57:54 | 52.62282 | 11.10542 | 98° | 40km/h | 3157m | -6.3m/s | -1.5°C | 56.5% | 697.7hPa | 2.7V | 02:51:37 | 03:07:05 | 00:00:00 | |
| AA1-15 | 2026-09-02 12:57:51 | 52.62282 | 11.10542 | 98° | 40km/h | 3157m | -6.3m/s | -1.5°C | 62.6% | 697.7hPa | 2.7V | 02:52:33 | 03:07:05 | 00:00:00 | |
| DM0DOS-11 | 2026-09-02 12:57:49 | 52.62292 | 11.10437 | 98° | 35km/h | 3201m | -6.5m/s | -1.8°C | 59.5% | 693.7hPa | 2.7V | 02:51:44 | 03:06:58 | 00:00:00 | |
| DF8AY | 2026-09-02 12:57:48 | 52.62287 | 11.10494 | 98° | 37km/h | 3176m | -6.5m/s | -1.6°C | 66% | 696hPa | 2.6V | 02:51:42 | 03:07:02 | 00:00:00 | |
| BIOWL1-15 | 2026-09-02 12:57:47 | 52.62295 | 11.10409 | 103° | 35km/h | 3214m | -7.1m/s | -1.9°C | 65.2% | 692.6hPa | 2.7V | 02:53:24 | 03:06:56 | 00:00:00 | |
| DL1XH-west | 2026-09-02 12:57:47 | 52.62289 | 11.10465 | 98° | 33km/h | 3188m | -6.7m/s | -1.7°C | 65.9% | 694.9hPa | 2.7V | 02:51:42 | 03:07:00 | 00:00:00 | |
| DL1XH1-15 | 2026-09-02 12:57:46 | 52.62297 | 11.10395 | 101° | 35km/h | 3221m | -6.9m/s | -1.9°C | 60.4% | 692hPa | 2.7V | 02:51:47 | 03:06:55 | 00:00:00 | |
| DM0DOS-11 | 2026-09-02 12:57:44 | 52.62300 | 11.10366 | 98° | 37km/h | 3236m | -7.7m/s | -2°C | 56.2% | 690.8hPa | 2.6V | 02:51:49 | 03:06:53 | 00:00:00 | |
| DL1XH1-15 | 2026-09-02 12:57:41 | 52.62304 | 11.10319 | 97° | 40km/h | 3259m | -8.3m/s | -2.1°C | 49.4% | 688.9hPa | 2.7V | 02:51:52 | 03:06:50 | 00:00:00 | |
| SMARD9-10 | 2026-09-02 12:57:40 | 52.62345 | 11.09826 | 100° | 33km/h | 3498m | -6.3m/s | -2.0°C | 57.4% | 691.6hPa | 2.7V | 02:52:00 | 00:00:00 | 00:00:00 | |
| DM0DOS-11 | 2026-09-02 12:57:39 | 52.62307 | 11.10288 | 100° | 38km/h | 3274m | -7m/s | -2.2°C | 52.8% | 687.5hPa | 2.7V | 02:51:54 | 03:06:48 | 00:00:00 | |
| BIOWL1-15 | 2026-09-02 12:57:37 | 52.62303 | 11.10335 | 97° | 38km/h | 3251m | -7.7m/s | -2.1°C | 59.5% | 689.5hPa | 2.7V | 02:53:24 | 03:06:51 | 00:00:00 | |
| DL1XH1-15 | 2026-09-02 12:57:36 | 52.62315 | 11.10214 | 98° | 35km/h | 3310m | -7.3m/s | -2.5°C | 51% | 684.4hPa | 2.7V | 02:51:59 | 03:06:43 | 00:00:00 | |
| DL1XH-west | 2026-09-02 12:57:36 | 52.62304 | 11.10319 | 98° | 40km/h | 3259m | -8.3m/s | -2.1°C | 55.9% | 688.9hPa | 2.7V | 02:52:33 | 03:06:50 | 00:00:00 | |
| AA1-15 | 2026-09-02 12:57:31 | 52.62314 | 11.10228 | 99° | 35km/h | 3303m | -7.5m/s | -2.5°C | 59.5% | 685.1hPa | 2.6V | 02:52:33 | 03:06:44 | 00:00:00 | |
| BIOWL9-15 | 2026-09-02 12:57:31 | 52.62314 | 11.10228 | 99° | 35km/h | 3303m | -7.5m/s | -2.5°C | 52.5% | 685.1hPa | 2.7V | 00:00:00 | 00:00:00 | 00:00:00 | |
| DL1XH1-15 | 2026-09-02 12:57:30 | 52.62321 | 11.10138 | 96° | 37km/h | 3345m | -8.2m/s | -2.8°C | 49.6% | 681.5hPa | 2.7V | 02:52:04 | 03:06:38 | 00:00:00 | |
| DL1XH-15 | 2026-09-02 12:57:29 | 52.62319 | 11.10169 | 96° | 37km/h | 3331m | -7.2m/s | -2.6°C | 48.7% | 682.6hPa | 2.7V | 02:52:02 | 03:06:40 | 00:00:00 | |
| BIOWL1-15 | 2026-09-02 12:57:27 | 52.62318 | 11.10184 | 96° | 37km/h | 3324m | -6.8m/s | -2.6°C | 53.8% | 683.3hPa | 2.7V | 02:53:24 | 03:06:41 | 00:00:00 | |
| DL1XH-west | 2026-09-02 12:57:26 | 52.62319 | 11.10169 | 97° | 37km/h | 3331m | -7.2m/s | -2.7°C | 55% | 682.6hPa | 2.7V | 02:52:33 | 03:06:40 | 00:00:00 | |
| AA1-15 | 2026-09-02 12:57:19 | 52.62326 | 11.10063 | 96° | 35km/h | 3382m | -7.1m/s | -3.1°C | 57.3% | 678.3hPa | 2.7V | 02:52:33 | 03:06:33 | 00:00:00 | |
| DF8AY | 2026-09-02 12:57:16 | 52.62328 | 11.10020 | 96° | 35km/h | 3402m | -6.9m/s | -3.2°C | 53.6% | 676.5hPa | 2.6V | 02:53:24 | 03:06:30 | 00:00:00 | |
| DL1XH-west | 2026-09-02 12:57:15 | 52.62330 | 11.09991 | 97° | 37km/h | 3416m | -7.5m/s | -3.3°C | 53.7% | 675.4hPa | 2.6V | 02:52:33 | 03:06:28 | 00:00:00 | |
| DL1XH1-15 | 2026-09-02 12:57:14 | 52.62336 | 11.09920 | 100° | 33km/h | 3451m | -7.8m/s | -3.6°C | 50.4% | 672.5hPa | 2.7V | 02:52:19 | 03:06:23 | 00:00:00 | |
| AM1SDL-15 | 2026-09-02 12:57:14 | 52.62331 | 11.09977 | 97° | 33km/h | 3423m | -6.6m/s | -3.3°C | 48.2% | 674.8hPa | 2.7V | 02:52:00 | 03:06:27 | 00:00:00 | |
| DL1XH-15 | 2026-09-02 12:57:13 | 52.62337 | 11.09907 | 100° | 33km/h | 3458m | -6.4m/s | -3.6°C | 51.3% | 671.9hPa | 2.7V | 02:52:20 | 03:06:22 | 00:00:00 | |
| DF8AY-15 | 2026-09-02 12:57:13 | 52.62331 | 11.09977 | 97° | 35km/h | 3423m | -6.6m/s | -3.3°C | 48.2% | 674.8hPa | 2.7V | 02:52:00 | 03:06:27 | 00:00:00 | |
| TFSTFS | 2026-09-02 12:57:11 | 52.62332 | 11.09962 | 99° | 37km/h | 3430m | -6.6m/s | -3.4°C | 48.3% | 674.2hPa | 2.7V | 02:52:00 | 00:00:00 | 00:00:00 | |
| DB0DAN | 2026-09-02 12:57:10 | 52.62334 | 11.09933 | 100° | 33km/h | 3444m | -7.2m/s | -3.5°C | 48.7% | 673.04hPa | 2.7V | 00:00:00 | 00:00:00 | 00:00:00 | |
| BIOWL1-15 | 2026-09-02 12:57:10 | 52.62346 | 11.09812 | 99° | 35km/h | 3505m | -7.7m/s | -4°C | 59.4% | 667.9hPa | 2.7V | 02:53:24 | 03:06:15 | 00:00:00 | |
| DL1XH1-15 | 2026-09-02 12:57:09 | 52.62342 | 11.09853 | 96° | 33km/h | 3484m | -7.2m/s | -3.8°C | 52.8% | 669.5hPa | 2.7V | 02:52:24 | 03:06:18 | 00:00:00 | |
| AA1-15 | 2026-09-02 12:57:09 | 52.62336 | 11.09920 | 100° | 33km/h | 3451m | -7.8m/s | -3.6°C | 56.6% | 672.5hPa | 2.7V | 02:52:33 | 03:06:23 | 00:00:00 | |
| DF8AY | 2026-09-02 12:57:05 | 52.62343 | 11.09853 | 96° | 33km/h | 3485m | -7.2m/s | -3.8°C | 58.4% | 669.5hPa | 2.7V | 02:53:24 | 03:06:18 | 00:00:00 | |
| DL1XH-west | 2026-09-02 12:57:05 | 52.62344 | 11.09840 | 97° | 33km/h | 3491m | -6.2m/s | -3.9°C | 58.5% | 668.9hPa | 2.7V | 02:52:33 | 03:06:17 | 00:00:00 | |
| DL1XH1-15 | 2026-09-02 12:57:04 | 52.62349 | 11.09784 | 100° | 33km/h | 3518m | -6.8m/s | -4.1°C | 55.6% | 666.7hPa | 2.6V | 02:52:29 | 03:06:13 | 00:00:00 | |
| DL1XH-15 | 2026-09-02 12:57:03 | 52.62350 | 11.09770 | 99° | 33km/h | 3525m | -6.8m/s | -4.2°C | 56% | 666hPa | 2.6V | 02:52:30 | 03:06:12 | 00:00:00 | |
| S3001 | 2026-09-02 12:57:02 | 52.62346 | 11.09812 | 99° | 33km/h | 3504m | -7.7m/s | -4.0°C | 52.3% | 667.9hPa | 2.7V | 00:00:00 | 00:00:00 | 00:00:00 | |
| AM1SDL-15 | 2026-09-02 12:57:01 | 52.62346 | 11.09812 | 100° | 35km/h | 3505m | -7.7m/s | -4.0°C | 53.5% | 667.9hPa | 2.7V | 00:00:00 | 03:06:15 | 00:00:00 | |
| DL1XH1-15 | 2026-09-02 12:56:59 | 52.62357 | 11.09714 | 100° | 35km/h | 3551m | -6.4m/s | -4.4°C | 57.4% | 663.9hPa | 2.7V | 02:52:34 | 03:06:08 | 00:00:00 | |
| AA1-15 | 2026-09-02 12:56:59 | 52.62351 | 11.09771 | 100° | 33km/h | 3525m | -6.9m/s | -4.2°C | 61.5% | 666.1hPa | 2.6V | 02:52:33 | 03:06:12 | 00:00:00 | |
| DL1XH-15 | 2026-09-02 12:56:58 | 52.62358 | 11.09700 | 99° | 35km/h | 3559m | -7.6m/s | -4.5°C | 56.8% | 663.3hPa | 2.6V | 02:52:35 | 03:06:07 | 00:00:00 | |
| DF7ER-10 | 2026-09-02 12:56:57 | 52.62350 | 11.09770 | 101° | 33km/h | 3525m | -6.9m/s | -4.2°C | 54.8% | 666.1hPa | 2.7V | 02:52:00 | 00:00:00 | 00:00:00 | |
| DB0DAN | 2026-09-02 12:56:55 | 52.62355 | 11.09728 | 101° | 33km/h | 3545m | -7.1m/s | -4.4°C | 55.9% | 664.53hPa | 2.7V | 00:00:00 | 00:00:00 | 00:00:00 | |
| EDDB2-11 | 2026-09-02 12:56:55 | 52.62357 | 11.09714 | 100° | 35km/h | 3551m | -6.4m/s | -4.4°C | 56.1% | 663.9hPa | 2.7V | 00:00:00 | 00:00:00 | 00:00:00 | |
| DL1XH1-15 | 2026-09-02 12:56:54 | 52.62363 | 11.09646 | 99° | 31km/h | 3587m | -7.1m/s | -4.6°C | 58.3% | 661hPa | 2.7V | 02:52:39 | 03:06:03 | 00:00:00 | |
| DL1XH-west | 2026-09-02 12:56:54 | 52.62357 | 11.09714 | 100° | 35km/h | 3552m | -6.4m/s | -4.4°C | 62.9% | 663.9hPa | 2.7V | 02:53:24 | 03:06:08 | 00:00:00 | |
| DL1XH-15 | 2026-09-02 12:56:53 | 52.62365 | 11.09633 | 101° | 31km/h | 3594m | -6.7m/s | -4.7°C | 59.2% | 660.3hPa | 2.7V | 02:52:40 | 03:06:02 | 00:00:00 | |
| BIOWL1-15 | 2026-09-02 12:56:51 | 52.62361 | 11.09672 | 97° | 33km/h | 3573m | -7m/s | -4.6°C | 62.9% | 662.1hPa | 2.6V | 02:53:24 | 03:06:05 | 00:00:00 | |
| SMARD9-10 | 2026-09-02 12:56:51 | 52.62360 | 11.09686 | 100° | 33km/h | 3566m | -6.8m/s | -4.5°C | 55.3% | 662.7hPa | 2.6V | 02:53:00 | 00:00:00 | 00:00:00 | |
| DL1XH1-15 | 2026-09-02 12:56:49 | 52.62371 | 11.09580 | 102° | 35km/h | 3621m | -6.5m/s | -4.9°C | 65% | 657.9hPa | 2.6V | 02:52:44 | 03:05:58 | 00:00:00 | |
| AA1-15 | 2026-09-02 12:56:47 | 52.62366 | 11.09620 | 99° | 31km/h | 3601m | -7.3m/s | -4.7°C | 68.6% | 659.8hPa | 2.6V | 02:53:24 | 03:06:01 | 00:00:00 | |
| DL1XH-west | 2026-09-02 12:56:44 | 52.62371 | 11.09580 | 103° | 35km/h | 3621m | -6.5m/s | -4.9°C | 70.1% | 657.9hPa | 2.6V | 02:53:24 | 03:05:58 | 00:00:00 | |
| DL1XH-15 | 2026-09-02 12:56:42 | 52.62382 | 11.09498 | 100° | 33km/h | 3661m | -6.2m/s | -5.2°C | 70.8% | 654.8hPa | 2.6V | 02:52:50 | 03:05:52 | 00:00:00 | |
| DF8AY | 2026-09-02 12:56:40 | 52.62379 | 11.09525 | 103° | 35km/h | 3649m | -6m/s | -5.1°C | 72.5% | 655.8hPa | 2.6V | 02:53:24 | 03:05:54 | 00:00:00 | |
| TFSTFS | 2026-09-02 12:56:40 | 52.62379 | 11.09525 | 104° | 35km/h | 3649m | -6.0m/s | -5.1°C | 67.1% | 655.8hPa | 2.7V | 00:00:00 | 00:00:00 | 00:00:00 | |
| DL1XH1-15 | 2026-09-02 12:56:39 | 52.62387 | 11.09448 | 98° | 31km/h | 3687m | -7.3m/s | -5.4°C | 76.7% | 652.6hPa | 2.7V | 02:52:54 | 03:05:48 | 00:00:00 | |
| AA1-15 | 2026-09-02 12:56:36 | 52.62385 | 11.09473 | 101° | 29km/h | 3674m | -6.3m/s | -5.3°C | 76.1% | 653.6hPa | 2.6V | 02:53:24 | 03:05:50 | 00:00:00 | |
| DL1XH-west | 2026-09-02 12:56:33 | 52.62391 | 11.09409 | 97° | 33km/h | 3706m | -6.2m/s | -5.5°C | 86.1% | 651hPa | 2.7V | 02:53:24 | 03:05:45 | 00:00:00 | |
| BIOWL1-15 | 2026-09-02 12:56:31 | 52.62393 | 11.09382 | 98° | 33km/h | 3719m | -7.2m/s | -5.6°C | 86.8% | 650hPa | 2.6V | 02:53:24 | 03:05:43 | 00:00:00 | |
| DF8AY | 2026-09-02 12:56:29 | 52.62395 | 11.09355 | 99° | 33km/h | 3733m | -6.5m/s | -5.6°C | 85.8% | 648.8hPa | 2.6V | 02:53:24 | 03:05:41 | 00:00:00 | |
| DL1XH-15 | 2026-09-02 12:56:29 | 52.62395 | 11.09355 | 98° | 33km/h | 3733m | -6.5m/s | -5.6°C | 82.6% | 648.8hPa | 2.6V | 02:53:01 | 03:05:41 | 00:00:00 | |
| TFSTFS | 2026-09-02 12:56:29 | 52.62393 | 11.09382 | 99° | 33km/h | 3719m | -7.2m/s | -5.6°C | 82.1% | 650.0hPa | 2.6V | 00:00:00 | 00:00:00 | 00:00:00 | |
| BIOWL9-15 | 2026-09-02 12:56:28 | 52.62394 | 11.09368 | 98° | 33km/h | 3726m | -6.4m/s | -5.6°C | 81.8% | 649.2hPa | 2.6V | 00:00:00 | 00:00:00 | 00:00:00 | |
| DL1XH1-15 | 2026-09-02 12:56:28 | 52.62402 | 11.09303 | 102° | 31km/h | 3760m | -6.5m/s | -5.7°C | 82.8% | 646.6hPa | 2.6V | 02:53:05 | 03:05:37 | 00:00:00 | |
| DM0DOS-11 | 2026-09-02 12:56:27 | 52.62403 | 11.09291 | 100° | 29km/h | 3766m | -5.8m/s | -5.8°C | 83.1% | 646hPa | 2.6V | 02:53:06 | 03:05:36 | 00:00:00 | |
| AA1-15 | 2026-09-02 12:56:26 | 52.62397 | 11.09341 | 102° | 33km/h | 3739m | -6.5m/s | -5.6°C | 86.3% | 648.3hPa | 2.6V | 02:53:24 | 03:05:40 | 00:00:00 | |
| DL1XH-west | 2026-09-02 12:56:23 | 52.62402 | 11.09303 | 103° | 31km/h | 3760m | -6.5m/s | -5.7°C | 85.9% | 646.6hPa | 2.6V | 02:53:24 | 03:05:37 | 00:00:00 | |
| AM1SDL-15 | 2026-09-02 12:56:23 | 52.62402 | 11.09303 | 103° | 31km/h | 3760m | -6.5m/s | -5.7°C | 82.8% | 646.6hPa | 2.6V | 00:00:00 | 03:05:37 | 00:00:00 | |
| DM0DOS-11 | 2026-09-02 12:56:21 | 52.62409 | 11.09229 | 96° | 33km/h | 3799m | -6.3m/s | -5.7°C | 84% | 643.2hPa | 2.6V | 02:53:11 | 03:05:31 | 00:00:00 | |
| BIOWL1-15 | 2026-09-02 12:56:19 | 52.62409 | 11.09229 | 96° | 33km/h | 3799m | -6.3m/s | -5.7°C | 87.8% | 643.2hPa | 2.6V | 02:53:24 | 03:05:31 | 00:00:00 | |
| DL1XH1-15 | 2026-09-02 12:56:18 | 52.62413 | 11.09173 | 100° | 33km/h | 3825m | -6.6m/s | -5.8°C | 83.3% | 641.1hPa | 2.6V | 02:53:15 | 03:05:27 | 00:00:00 | |
| DF8AY | 2026-09-02 12:56:17 | 52.62410 | 11.09215 | 95° | 33km/h | 3806m | -7.2m/s | -5.8°C | 86.3% | 642.7hPa | 2.7V | 02:53:24 | 03:05:30 | 00:00:00 | |
| AA1-15 | 2026-09-02 12:56:15 | 52.62412 | 11.09187 | 98° | 35km/h | 3818m | -6.2m/s | -5.8°C | 87.1% | 641.6hPa | 2.6V | 02:53:24 | 03:05:28 | 00:00:00 | |
| DL1XH-west | 2026-09-02 12:56:13 | 52.62413 | 11.09173 | 101° | 33km/h | 3825m | -6.6m/s | -5.8°C | 86.7% | 641.1hPa | 2.6V | 02:53:24 | 03:05:27 | 00:00:00 | |
| DF8AY-15 | 2026-09-02 12:56:13 | 52.62413 | 11.09173 | 101° | 33km/h | 3825m | -6.6m/s | -5.7°C | 83.3% | 641.1hPa | 2.6V | 02:53:00 | 03:05:27 | 00:00:00 | |
| SMARD9-10 | 2026-09-02 12:56:12 | 52.62413 | 11.09173 | 102° | 33km/h | 3825m | -6.6m/s | -5.8°C | 81.3% | 641.1hPa | 2.6V | 02:53:00 | 00:00:00 | 00:00:00 | |
| AM1SDL-15 | 2026-09-02 12:56:11 | 52.62417 | 11.09146 | 102° | 33km/h | 3837m | -6.4m/s | -5.8°C | 83.2% | 640.0hPa | 2.6V | 00:00:00 | 03:05:25 | 00:00:00 | |
| DL1XH1-15 | 2026-09-02 12:56:08 | 52.62428 | 11.09040 | 107° | 33km/h | 3894m | -7.1m/s | -6.2°C | 82.6% | 635.4hPa | 2.6V | 02:53:25 | 03:05:17 | 00:00:00 | |
| DL1XH-15 | 2026-09-02 12:56:07 | 52.62431 | 11.09027 | 108° | 33km/h | 3901m | -7.3m/s | -6.2°C | 82.9% | 635hPa | 2.6V | 02:53:26 | 03:05:16 | 00:00:00 | |
| DF8AY | 2026-09-02 12:56:05 | 52.62426 | 11.09053 | 105° | 31km/h | 3887m | -8.6m/s | -6.1°C | 86.3% | 636.2hPa | 2.6V | 02:53:24 | 03:05:18 | 00:00:00 | |
| AA1-15 | 2026-09-02 12:56:04 | 52.62428 | 11.09040 | 107° | 33km/h | 3894m | -7.1m/s | -6.2°C | 86.5% | 635.4hPa | 2.6V | 02:54:15 | 03:05:17 | 00:00:00 | |
| DL1XH-west | 2026-09-02 12:56:03 | 52.62431 | 11.09027 | 109° | 33km/h | 3901m | -7.3m/s | -6.2°C | 86.8% | 635hPa | 2.6V | 02:54:15 | 03:05:16 | 00:00:00 | |
| BIOWL1-15 | 2026-09-02 12:55:59 | 52.62442 | 11.08946 | 101° | 31km/h | 3941m | -7.3m/s | -6.5°C | 88.6% | 631.8hPa | 2.6V | 02:54:15 | 03:05:10 | 00:00:00 | |
| DL1XH1-15 | 2026-09-02 12:55:58 | 52.62446 | 11.08907 | 98° | 31km/h | 3962m | -6.5m/s | -6.7°C | 84.7% | 629.9hPa | 2.6V | 02:53:35 | 03:05:07 | 00:00:00 | |
| BIOWL9-15 | 2026-09-02 12:55:57 | 52.62441 | 11.08959 | 98° | 31km/h | 3935m | -6.3m/s | -6.5°C | 81.3% | 632.2hPa | 2.6V | 00:00:00 | 00:00:00 | 00:00:00 | |
| DL1XH-15 | 2026-09-02 12:55:55 | 52.62447 | 11.08894 | 98° | 31km/h | 3969m | -7m/s | -6.8°C | 84.7% | 629.4hPa | 2.6V | 02:53:36 | 03:05:06 | 00:00:00 | |
| DF8AY | 2026-09-02 12:55:54 | 52.62446 | 11.08907 | 98° | 31km/h | 3962m | -6.6m/s | -6.7°C | 89.7% | 629.9hPa | 2.6V | 02:54:15 | 03:05:07 | 00:00:00 | |
| AA1-15 | 2026-09-02 12:55:53 | 52.62447 | 11.08894 | 98° | 31km/h | 3969m | -7m/s | -6.8°C | 89.9% | 629.4hPa | 2.6V | 02:54:15 | 03:05:06 | 00:00:00 | |
| DL1XH-west | 2026-09-02 12:55:51 | 52.62448 | 11.08881 | 98° | 33km/h | 3976m | -6.7m/s | -6.8°C | 89.7% | 628.9hPa | 2.6V | 02:54:15 | 03:05:05 | 00:00:00 | |
| DL1XH1-15 | 2026-09-02 12:55:48 | 52.62458 | 11.08744 | 98° | 31km/h | 4044m | -6.6m/s | -7.4°C | 87% | 623.4hPa | 2.6V | 02:53:47 | 03:04:55 | 00:00:00 | |
| BIOWL1-15 | 2026-09-02 12:55:46 | 52.62456 | 11.08784 | 94° | 33km/h | 4025m | -6.8m/s | -7.2°C | 89.1% | 624.9hPa | 2.6V | 02:54:15 | 03:04:58 | 00:00:00 | |
| DF8AY | 2026-09-02 12:55:42 | 52.62457 | 11.08757 | 97° | 31km/h | 4038m | -6.8m/s | -7.3°C | 89.6% | 623.7hPa | 2.6V | 02:54:15 | 03:04:56 | 00:00:00 | |
| DL1XH-west | 2026-09-02 12:55:41 | 52.62458 | 11.08744 | 98° | 31km/h | 4044m | -6.6m/s | -7.4°C | 89.7% | 623.4hPa | 2.6V | 02:54:15 | 03:04:55 | 00:00:00 | |
| DB0DAN | 2026-09-02 12:55:40 | 52.62459 | 11.08732 | 99° | 29km/h | 4051m | -6.7m/s | -7.4°C | 84.2% | 622.88hPa | 2.6V | 00:00:00 | 00:00:00 | 00:00:00 | |
| DL1XH1-15 | 2026-09-02 12:55:36 | 52.62471 | 11.08607 | 99° | 33km/h | 4114m | -7.4m/s | -7.8°C | 82.8% | 617.8hPa | 2.5V | 02:53:57 | 03:04:45 | 00:00:00 | |
| BIOWL1-15 | 2026-09-02 12:55:35 | 52.62466 | 11.08665 | 97° | 37km/h | 4086m | -6.7m/s | -7.6°C | 86.7% | 620hPa | 2.6V | 02:54:15 | 03:04:49 | 00:00:00 | |
| DL1XH-15 | 2026-09-02 12:55:35 | 52.62473 | 11.08580 | 93° | 33km/h | 4128m | -7.6m/s | -7.9°C | 86.5% | 616.8hPa | 2.6V | 02:53:59 | 03:04:43 | 00:00:00 | |
| DF8AY | 2026-09-02 12:55:32 | 52.62470 | 11.08621 | 100° | 35km/h | 4107m | -7.3m/s | -7.7°C | 86.2% | 618.3hPa | 2.6V | 02:54:15 | 03:04:46 | 00:00:00 | |
| AA1-15 | 2026-09-02 12:55:31 | 52.62471 | 11.08607 | 99° | 35km/h | 4114m | -7.4m/s | -7.8°C | 86.7% | 617.8hPa | 2.5V | 02:54:15 | 03:04:45 | 00:00:00 | |
| DL1XH-west | 2026-09-02 12:55:31 | 52.62473 | 11.08580 | 94° | 33km/h | 4128m | -7.6m/s | -7.9°C | 90.2% | 616.8hPa | 2.6V | 02:54:15 | 03:04:43 | 00:00:00 | |
| DL1XH-15 | 2026-09-02 12:55:30 | 52.62475 | 11.08494 | 94° | 37km/h | 4171m | -7.1m/s | -8.2°C | 84.9% | 613.4hPa | 2.6V | 02:54:05 | 03:04:37 | 00:00:00 | |
| S3001 | 2026-09-02 12:55:29 | 52.62474 | 11.08566 | 93° | 31km/h | 4135m | -6.8m/s | -8.0°C | 85.5% | 616.1hPa | 2.6V | 00:00:00 | 00:00:00 | 00:00:00 | |
| DM0DOS-11 | 2026-09-02 12:55:28 | 52.62476 | 11.08479 | 96° | 37km/h | 4178m | -7.5m/s | -8.2°C | 84.9% | 612.8hPa | 2.6V | 02:54:06 | 03:04:36 | 00:00:00 | |
| DB0DAN | 2026-09-02 12:55:25 | 52.62475 | 11.08524 | 91° | 33km/h | 4157m | -7.1m/s | -8°C | 82.9% | 614.46hPa | 2.6V | 00:00:00 | 00:00:00 | 00:00:00 | |
| DL1XH1-15 | 2026-09-02 12:55:25 | 52.62479 | 11.08448 | 96° | 38km/h | 4192m | -7.4m/s | -8.3°C | 84.1% | 611.6hPa | 2.6V | 02:54:08 | 03:04:34 | 00:00:00 | |
| BIOWL1-15 | 2026-09-02 12:55:24 | 52.62475 | 11.08509 | 91° | 35km/h | 4164m | -7.1m/s | -8.1°C | 88% | 614hPa | 2.5V | 02:54:15 | 03:04:38 | 00:00:00 | |
| DL1XH-15 | 2026-09-02 12:55:23 | 52.62482 | 11.08401 | 94° | 38km/h | 4213m | -7m/s | -8.4°C | 80.2% | 610hPa | 2.5V | 02:54:11 | 03:04:31 | 00:00:00 | |
| AA1-15 | 2026-09-02 12:55:21 | 52.62478 | 11.08464 | 98° | 38km/h | 4185m | -7m/s | -8.3°C | 87.8% | 612.2hPa | 2.6V | 02:54:15 | 03:04:35 | 00:00:00 | |
| DL1XH-west | 2026-09-02 12:55:20 | 52.62479 | 11.08448 | 97° | 38km/h | 4192m | -7.4m/s | -8.3°C | 87.3% | 611.6hPa | 2.6V | 02:54:15 | 03:04:34 | 00:00:00 | |
| DM0DOS-11 | 2026-09-02 12:55:17 | 52.62484 | 11.08325 | 92° | 37km/h | 4250m | -7.3m/s | -8.6°C | 80.6% | 607.1hPa | 2.6V | 02:54:16 | 03:04:26 | 00:00:00 | |
| BIOWL1-15 | 2026-09-02 12:55:15 | 52.62483 | 11.08340 | 92° | 35km/h | 4243m | -7.2m/s | -8.6°C | 84.6% | 607.8hPa | 2.6V | 02:54:15 | 03:04:27 | 00:00:00 | |
| DL1XH1-15 | 2026-09-02 12:55:15 | 52.62485 | 11.08294 | 94° | 38km/h | 4265m | -7.4m/s | -8.7°C | 81.1% | 605.9hPa | 2.5V | 02:54:18 | 03:04:24 | 00:00:00 | |
| DF8AY-15 | 2026-09-02 12:55:13 | 52.62483 | 11.08340 | 93° | 38km/h | 4243m | -7.2m/s | -8.5°C | 80.9% | 607.7hPa | 2.6V | 02:54:00 | 03:04:27 | 00:00:00 | |
| DL1XH-15 | 2026-09-02 12:55:12 | 52.62487 | 11.08247 | 95° | 37km/h | 4287m | -7.8m/s | -8.9°C | 82.7% | 604.3hPa | 2.6V | 02:54:21 | 03:04:21 | 00:00:00 | |
| DF8AY | 2026-09-02 12:55:11 | 52.62484 | 11.08310 | 94° | 37km/h | 4257m | -7.4m/s | -8.7°C | 84.6% | 606.6hPa | 2.6V | 02:55:57 | 03:04:25 | 00:00:00 | |
| DB0DAN | 2026-09-02 12:55:10 | 52.62485 | 11.08294 | 94° | 37km/h | 4265m | -7.4m/s | -8.7°C | 78.8% | 605.88hPa | 2.5V | 00:00:00 | 00:00:00 | 00:00:00 | |
| AA1-15 | 2026-09-02 12:55:10 | 52.62485 | 11.08294 | 95° | 38km/h | 4265m | -7.4m/s | -8.7°C | 85.1% | 605.9hPa | 2.5V | 02:55:06 | 03:04:24 | 00:00:00 | |
| DL1XH-west | 2026-09-02 12:55:09 | 52.62486 | 11.08278 | 95° | 37km/h | 4272m | -7.6m/s | -8.8°C | 86.4% | 605.4hPa | 2.5V | 02:55:06 | 03:04:23 | 00:00:00 | |
| DM0DOS-11 | 2026-09-02 12:55:07 | 52.62489 | 11.08170 | 91° | 38km/h | 4328m | -7m/s | -9.1°C | 82.1% | 601.1hPa | 2.5V | 02:54:26 | 03:04:16 | 00:00:00 | |
| DJ2DS-15 | 2026-09-02 12:55:06 | 52.62489 | 11.08217 | 91° | 35km/h | 4303m | -7.6m/s | -9.0°C | 80.3% | 603.0hPa | 2.6V | 00:00:00 | 00:00:00 | 00:00:00 | |
| DL1XH1-15 | 2026-09-02 12:55:05 | 52.62491 | 11.08122 | 96° | 38km/h | 4351m | -7.1m/s | -9.2°C | 81.2% | 599.4hPa | 2.6V | 02:54:29 | 03:04:13 | 00:00:00 | |
| EDDB2-12 | 2026-09-02 12:55:04 | 52.62489 | 11.08186 | 90° | 38km/h | 4321m | -8.3m/s | -9.1°C | 80.4% | 601.7hPa | 2.5V | 00:00:00 | 00:00:00 | 00:00:00 | |
| DM0DOS-11 | 2026-09-02 12:55:02 | 52.62496 | 11.08075 | 101° | 38km/h | 4372m | -7.4m/s | -9.4°C | 82.2% | 597.7hPa | 2.5V | 02:54:32 | 03:04:10 | 00:00:00 | |
| DF8AY | 2026-09-02 12:55:00 | 52.62490 | 11.08138 | 95° | 38km/h | 4343m | -7.8m/s | -9.2°C | 84.1% | 600hPa | 2.6V | 02:55:57 | 03:04:14 | 00:00:00 | |
| AA1-15 | 2026-09-02 12:54:59 | 52.62491 | 11.08122 | 97° | 38km/h | 4351m | -7.1m/s | -9.2°C | 84.6% | 599.4hPa | 2.6V | 02:55:06 | 03:04:13 | 00:00:00 | |
| DL1XH-west | 2026-09-02 12:54:58 | 52.62492 | 11.08106 | 100° | 38km/h | 4358m | -6.9m/s | -9.3°C | 85.1% | 598.8hPa | 2.6V | 02:55:06 | 03:04:12 | 00:00:00 | |
| S3001 | 2026-09-02 12:54:57 | 52.62494 | 11.08090 | 101° | 37km/h | 4365m | -7.2m/s | -9.4°C | 79.6% | 598.2hPa | 2.6V | 00:00:00 | 00:00:00 | 00:00:00 | |
| DM0DOS-11 | 2026-09-02 12:54:56 | 52.62502 | 11.07994 | 91° | 42km/h | 4408m | -7.2m/s | -9.6°C | 82.5% | 594.9hPa | 2.6V | 02:54:37 | 03:04:05 | 00:00:00 | |
| BIOWL9-15 | 2026-09-02 12:54:55 | 52.62499 | 11.08043 | 98° | 38km/h | 4386m | -7.2m/s | -9.5°C | 80.1% | 596.6hPa | 2.5V | 00:00:00 | 00:00:00 | 00:00:00 | |
| DL1XH1-15 | 2026-09-02 12:54:54 | 52.62503 | 11.07960 | 92° | 42km/h | 4423m | -7.7m/s | -9.7°C | 83.2% | 593.9hPa | 2.5V | 02:54:39 | 03:04:03 | 00:00:00 | |
| DF8AY-15 | 2026-09-02 12:54:53 | 52.62501 | 11.08027 | 96° | 42km/h | 4394m | -7.0m/s | -9.5°C | 82.5% | 596.0hPa | 2.6V | 00:00:00 | 03:04:07 | 00:00:00 | |
| DM0DOS-11 | 2026-09-02 12:54:50 | 52.62504 | 11.07890 | 92° | 40km/h | 4453m | -7.8m/s | -10°C | 84.5% | 591.5hPa | 2.6V | 02:54:43 | 03:03:59 | 00:00:00 | |
| DF8AY | 2026-09-02 12:54:49 | 52.62503 | 11.07960 | 93° | 42km/h | 4423m | -7.7m/s | -9.7°C | 86% | 593.9hPa | 2.5V | 02:55:57 | 03:04:03 | 00:00:00 | |
| AA1-15 | 2026-09-02 12:54:48 | 52.62503 | 11.07942 | 93° | 42km/h | 4431m | -7.4m/s | -9.8°C | 86.7% | 593.3hPa | 2.6V | 02:55:06 | 03:04:02 | 00:00:00 | |
| DL1XH-west | 2026-09-02 12:54:47 | 52.62503 | 11.07924 | 93° | 42km/h | 4438m | -7.5m/s | -9.8°C | 86.9% | 592.7hPa | 2.6V | 02:55:06 | 03:04:01 | 00:00:00 | |
| DM0DOS-11 | 2026-09-02 12:54:45 | 52.62508 | 11.07802 | 96° | 44km/h | 4490m | -7m/s | -10.3°C | 86.6% | 588.6hPa | 2.6V | 02:54:48 | 03:03:54 | 00:00:00 | |
| DL1XH-15 | 2026-09-02 12:54:41 | 52.62513 | 11.07726 | 95° | 46km/h | 4520m | -7.2m/s | -10.6°C | 87.3% | 586.3hPa | 2.5V | 02:54:52 | 03:03:50 | 00:00:00 | |
| DM0DOS-11 | 2026-09-02 12:54:40 | 52.62514 | 11.07708 | 95° | 44km/h | 4527m | -7.4m/s | -10.5°C | 86.7% | 585.8hPa | 2.6V | 02:54:53 | 03:03:49 | 00:00:00 | |
| DL1XH1-15 | 2026-09-02 12:54:39 | 52.62515 | 11.07690 | 95° | 44km/h | 4534m | -7.1m/s | -10.6°C | 85.2% | 585.3hPa | 2.6V | 02:54:54 | 03:03:48 | 00:00:00 | |
| AA1-15 | 2026-09-02 12:54:38 | 52.62511 | 11.07765 | 98° | 46km/h | 4505m | -7.7m/s | -10.5°C | 88.4% | 587.4hPa | 2.6V | 02:55:06 | 03:03:52 | 00:00:00 | |
| DL1XH-west | 2026-09-02 12:54:36 | 52.62513 | 11.07726 | 95° | 46km/h | 4520m | -7.2m/s | -10.6°C | 88% | 586.3hPa | 2.5V | 02:55:06 | 03:03:50 | 00:00:00 | |
| DL1XH-15 | 2026-09-02 12:54:36 | 52.62519 | 11.07634 | 99° | 44km/h | 4556m | -7.6m/s | -10.6°C | 82.4% | 583.5hPa | 2.5V | 02:54:57 | 03:03:45 | 00:00:00 | |
| BIOWL1-15 | 2026-09-02 12:54:36 | 52.62521 | 11.07616 | 100° | 44km/h | 4563m | -7.9m/s | -10.6°C | 82.8% | 582.9hPa | 2.5V | 02:55:06 | 03:03:44 | 00:00:00 | |
| EDDB2-12 | 2026-09-02 12:54:32 | 52.62518 | 11.07653 | 98° | 44km/h | 4549m | -6.8m/s | -10.6°C | 80.4% | 584.0hPa | 2.6V | 00:00:00 | 00:00:00 | 00:00:00 | |
| DL1XH-15 | 2026-09-02 12:54:31 | 52.62531 | 11.07527 | 99° | 46km/h | 4600m | -7.9m/s | -10.9°C | 82.1% | 580.1hPa | 2.6V | 02:55:03 | 03:03:39 | 00:00:00 | |
| DJ2DS-15 | 2026-09-02 12:54:30 | 52.62523 | 11.07599 | 100° | 42km/h | 4571m | -7.6m/s | -10.7°C | 78.8% | 582.3hPa | 2.5V | 00:00:00 | 00:00:00 | 00:00:00 | |
| DL1XH1-15 | 2026-09-02 12:54:29 | 52.62534 | 11.07488 | 98° | 47km/h | 4616m | -7.9m/s | -10.9°C | 80.9% | 579hPa | 2.5V | 02:55:05 | 03:03:37 | 00:00:00 | |
| AA1-15 | 2026-09-02 12:54:28 | 52.62525 | 11.07581 | 100° | 42km/h | 4578m | -6.8m/s | -10.7°C | 83.7% | 581.8hPa | 2.6V | 02:55:06 | 03:03:42 | 00:00:00 | |
| DL1XH-west | 2026-09-02 12:54:25 | 52.62530 | 11.07527 | 99° | 46km/h | 4600m | -7.9m/s | -10.9°C | 84.1% | 580.1hPa | 2.6V | 02:55:06 | 03:03:39 | 00:00:00 | |
| DM0DOS-11 | 2026-09-02 12:54:24 | 52.62541 | 11.07413 | 98° | 46km/h | 4648m | -7.5m/s | -11.1°C | 80.1% | 576.6hPa | 2.6V | 02:55:09 | 03:03:33 | 00:00:00 | |
| DL1XH1-15 | 2026-09-02 12:54:24 | 52.62543 | 11.07394 | 98° | 46km/h | 4656m | -8.5m/s | -11.1°C | 79.8% | 576hPa | 2.5V | 02:55:10 | 03:03:32 | 00:00:00 | |
| BIOWL1-15 | 2026-09-02 12:54:23 | 52.62534 | 11.07488 | 98° | 47km/h | 4616m | -7.9m/s | -10.9°C | 83.6% | 579hPa | 2.5V | 02:55:06 | 03:03:37 | 00:00:00 | |
| DF8AY | 2026-09-02 12:54:18 | 52.62557 | 11.07258 | 98° | 47km/h | 4711m | -7.4m/s | -11.3°C | 80.9% | 571.9hPa | 2.5V | 02:55:57 | 03:03:25 | 00:00:00 | |
| DL1XH1-15 | 2026-09-02 12:54:18 | 52.62554 | 11.07297 | 98° | 47km/h | 4695m | -9.5m/s | -11.2°C | 77.6% | 573.2hPa | 2.6V | 02:55:15 | 03:03:27 | 00:00:00 | |
| AA1-15 | 2026-09-02 12:54:17 | 52.62545 | 11.07375 | 100° | 46km/h | 4664m | -7.1m/s | -11.1°C | 81.9% | 575.4hPa | 2.5V | 02:55:57 | 03:03:31 | 00:00:00 | |
| DF7ER-10 | 2026-09-02 12:54:17 | 52.62545 | 11.07375 | 101° | 46km/h | 4664m | -7.1m/s | -11.1°C | 77.1% | 575.4hPa | 2.6V | 02:55:00 | 00:00:00 | 00:00:00 | |
| DL1XH-15 | 2026-09-02 12:54:14 | 52.62561 | 11.07220 | 98° | 46km/h | 4727m | -8.8m/s | -11.4°C | 77.4% | 570.8hPa | 2.6V | 02:55:19 | 03:03:23 | 00:00:00 | |
| DL1XH-west | 2026-09-02 12:54:14 | 52.62552 | 11.07317 | 101° | 49km/h | 4687m | -7.4m/s | -11.2°C | 82.1% | 573.8hPa | 2.6V | 02:55:57 | 03:03:28 | 00:00:00 | |
| BIOWL1-15 | 2026-09-02 12:54:13 | 52.62554 | 11.07297 | 99° | 47km/h | 4695m | -9.5m/s | -11.2°C | 81.2% | 573.2hPa | 2.6V | 02:55:57 | 03:03:27 | 00:00:00 | |
| DF8AY-15 | 2026-09-02 12:54:13 | 52.62554 | 11.07297 | 99° | 46km/h | 4695m | -9.4m/s | -11.2°C | 77.6% | 573.2hPa | 2.6V | 02:55:00 | 03:03:27 | 00:00:00 | |
| SMARD9-10 | 2026-09-02 12:54:12 | 52.62554 | 11.07297 | 100° | 47km/h | 4695m | -9.5m/s | -11.2°C | 75.1% | 573.3hPa | 2.5V | 00:00:00 | 00:00:00 | 00:00:00 | |
| DM0DOS-11 | 2026-09-02 12:54:09 | 52.62572 | 11.07126 | 101° | 47km/h | 4765m | -7.6m/s | -11.6°C | 75.5% | 567.9hPa | 2.5V | 02:55:24 | 03:03:18 | 00:00:00 | |
| DL1XH1-15 | 2026-09-02 12:54:08 | 52.62575 | 11.07107 | 102° | 46km/h | 4772m | -7.8m/s | -11.7°C | 75.3% | 567.4hPa | 2.6V | 02:55:25 | 03:03:17 | 00:00:00 | |
| DF8AY | 2026-09-02 12:54:07 | 52.62580 | 11.07070 | 102° | 46km/h | 4788m | -7.8m/s | -11.8°C | 78.1% | 566.1hPa | 2.6V | 02:55:57 | 03:03:15 | 00:00:00 | |
| AA1-15 | 2026-09-02 12:54:07 | 52.62567 | 11.07165 | 103° | 46km/h | 4750m | -7.7m/s | -11.5°C | 78.4% | 569hPa | 2.6V | 02:55:57 | 03:03:20 | 00:00:00 | |
| DL1XH-west | 2026-09-02 12:54:04 | 52.62572 | 11.07126 | 102° | 47km/h | 4765m | -7.6m/s | -11.6°C | 78.6% | 567.9hPa | 2.5V | 02:55:57 | 03:03:18 | 00:00:00 | |
| BIOWL1-15 | 2026-09-02 12:54:02 | 52.62586 | 11.07015 | 103° | 44km/h | 4812m | -7.3m/s | -11.9°C | 77.4% | 564.6hPa | 2.5V | 02:55:57 | 03:03:12 | 00:00:00 | |
| SONCRA | 2026-09-02 12:54:02 | 52.62580 | 11.07070 | 101° | 44km/h | 4788m | -7.8m/s | -11.8°C | 72.3% | 566.1hPa | 2.5V | 00:00:00 | 00:00:00 | 00:00:00 | |
| EDDB2-12 | 2026-09-02 12:54:01 | 52.62580 | 11.07070 | 101° | 44km/h | 4788m | -7.8m/s | -11.8°C | 72.3% | 566.1hPa | 2.5V | 00:00:00 | 00:00:00 | 00:00:00 | |
| DM0DOS-11 | 2026-09-02 12:53:58 | 52.62601 | 11.06928 | 104° | 47km/h | 4848m | -7.2m/s | -12.2°C | 74.1% | 561.8hPa | 2.5V | 02:55:35 | 03:03:07 | 00:00:00 | |
| AA1-15 | 2026-09-02 12:53:57 | 52.62597 | 11.06946 | 106° | 46km/h | 4841m | -6.7m/s | -12.1°C | 77% | 562.3hPa | 2.6V | 02:55:57 | 03:03:08 | 00:00:00 | |
| DF8AY | 2026-09-02 12:53:55 | 52.62607 | 11.06889 | 105° | 49km/h | 4863m | -8m/s | -12.3°C | 77.1% | 560.7hPa | 2.6V | 02:55:57 | 03:03:05 | 00:00:00 | |
| BIOWL1-15 | 2026-09-02 12:53:53 | 52.62604 | 11.06909 | 106° | 47km/h | 4855m | -7.7m/s | -12.2°C | 77.5% | 561.3hPa | 2.5V | 02:55:57 | 03:03:06 | 00:00:00 | |
| BIOWL9-15 | 2026-09-02 12:53:53 | 52.62604 | 11.06909 | 105° | 47km/h | 4855m | -7.7m/s | -12.2°C | 71.1% | 561.3hPa | 2.6V | 00:00:00 | 00:00:00 | 00:00:00 | |
| SMARD9-15 | 2026-09-02 12:53:49 | 52.62629 | 11.06758 | 104° | 44km/h | 4914m | -7.3m/s | 0°C | -1.0% | -1.0hPa | 2.6V | 00:00:00 | 00:00:00 | 00:00:00 | |
| DM0DOS-11 | 2026-09-02 12:53:48 | 52.62632 | 11.06740 | 102° | 46km/h | 4922m | -7m/s | -12.6°C | 71.9% | 556.4hPa | 2.6V | 02:55:45 | 03:02:57 | 00:00:00 | |
| AA1-15 | 2026-09-02 12:53:46 | 52.62626 | 11.06776 | 104° | 44km/h | 4907m | -7.2m/s | -12.5°C | 74.8% | 557.3hPa | 2.6V | 02:55:57 | 03:02:59 | 00:00:00 | |
| DF8AY | 2026-09-02 12:53:44 | 52.62632 | 11.06740 | 103° | 46km/h | 4922m | -7m/s | -12.6°C | 75.3% | 556.4hPa | 2.6V | 02:55:57 | 03:02:57 | 00:00:00 | |
| DL1XH-west | 2026-09-02 12:53:42 | 52.62634 | 11.06722 | 103° | 46km/h | 4929m | -7.2m/s | -12.7°C | 75.4% | 555.8hPa | 2.6V | 02:55:57 | 03:02:56 | 00:00:00 | |
| BIOWL1-15 | 2026-09-02 12:53:41 | 52.62637 | 11.06703 | 101° | 47km/h | 4936m | -7.1m/s | -12.7°C | 75.8% | 555.2hPa | 2.5V | 02:55:57 | 03:02:55 | 00:00:00 | |
| DO2SHX-10 | 2026-09-02 12:53:41 | 52.62636 | 11.06703 | 101° | 47km/h | 4936m | -7.1m/s | -12.7°C | 72.2% | 555.2hPa | 2.6V | 00:00:00 | 03:02:55 | 00:00:00 | |
| DO2SHX-10 | 2026-09-02 12:53:37 | 52.62645 | 11.06623 | 101° | 49km/h | 4965m | -7.1m/s | -12.9°C | 73.1% | 553.1hPa | 2.6V | 02:55:00 | 03:02:51 | 00:00:00 | |
| DL1XH-15 | 2026-09-02 12:53:35 | 52.62656 | 11.06545 | 104° | 47km/h | 4995m | -7.2m/s | -13.2°C | 74.3% | 550.9hPa | 2.6V | 02:55:55 | 03:02:47 | 00:00:00 | |
| BIOWL1-15 | 2026-09-02 12:53:35 | 52.62662 | 11.06507 | 102° | 46km/h | 5011m | -7.6m/s | -13.4°C | 77.9% | 549.8hPa | 2.6V | 02:55:57 | 03:02:45 | 00:00:00 | |
| AA1-15 | 2026-09-02 12:53:34 | 52.62653 | 11.06565 | 105° | 47km/h | 4988m | -7.7m/s | -13.1°C | 76.9% | 551.5hPa | 2.5V | 02:55:57 | 03:02:48 | 00:00:00 | |
| DO2SHX-10 | 2026-09-02 12:53:34 | 52.62653 | 11.06564 | 105° | 51km/h | 4988m | -7.7m/s | -13.1°C | 74.1% | 551.5hPa | 2.5V | 00:00:00 | 03:02:48 | 00:00:00 | |
| DL1XH1-15 | 2026-09-02 12:53:33 | 52.62669 | 11.06450 | 100° | 47km/h | 5034m | -7.5m/s | -13.6°C | 76.1% | 548.2hPa | 2.5V | 02:56:00 | 03:02:42 | 00:00:00 | |
| DL1XH-west | 2026-09-02 12:53:32 | 52.62659 | 11.06526 | 104° | 47km/h | 5003m | -8m/s | -13.3°C | 77.5% | 550.4hPa | 2.6V | 02:55:57 | 03:02:46 | 00:00:00 | |
| SONCRA | 2026-09-02 12:53:31 | 52.62667 | 11.06469 | 101° | 46km/h | 5026m | -7.8m/s | -13.5°C | 72.8% | 548.7hPa | 2.6V | 00:00:00 | 00:00:00 | 00:00:00 | |
| EDDB2-12 | 2026-09-02 12:53:30 | 52.62667 | 11.06469 | 101° | 46km/h | 5026m | -7.8m/s | -13.5°C | 72.8% | 548.7hPa | 2.6V | 00:00:00 | 00:00:00 | 00:00:00 | |
| DL1XH-15 | 2026-09-02 12:53:29 | 52.62679 | 11.06369 | 102° | 51km/h | 5063m | -7.6m/s | -13.8°C | 76.8% | 546.1hPa | 2.6V | 02:56:04 | 03:02:38 | 00:00:00 | |
| DM0DOS-11 | 2026-09-02 12:53:28 | 52.62674 | 11.06410 | 100° | 51km/h | 5048m | -7.4m/s | -13.7°C | 76.5% | 547.1hPa | 2.6V | 02:56:02 | 03:02:40 | 00:00:00 | |
| AA1-15 | 2026-09-02 12:53:24 | 52.62682 | 11.06348 | 104° | 49km/h | 5071m | -8.2m/s | -13.9°C | 79.4% | 545.5hPa | 2.5V | 02:56:48 | 03:02:37 | 00:00:00 | |
| DF8AY | 2026-09-02 12:53:22 | 52.62685 | 11.06328 | 104° | 49km/h | 5079m | -8.1m/s | -13.9°C | 79.3% | 545hPa | 2.5V | 02:56:48 | 03:02:36 | 00:00:00 | |
| DL1XH-west | 2026-09-02 12:53:21 | 52.62688 | 11.06308 | 103° | 49km/h | 5087m | -8.3m/s | -14°C | 79.4% | 544.4hPa | 2.6V | 02:56:48 | 03:02:35 | 00:00:00 | |
| BIOWL1-15 | 2026-09-02 12:53:19 | 52.62694 | 11.06269 | 103° | 49km/h | 5102m | -7.6m/s | -14.1°C | 80.3% | 543.3hPa | 2.6V | 02:56:48 | 03:02:33 | 00:00:00 | |
| DM0DOS-11 | 2026-09-02 12:53:19 | 52.62701 | 11.06208 | 100° | 51km/h | 5126m | -8.9m/s | -14.3°C | 77.9% | 541.7hPa | 2.5V | 02:56:12 | 03:02:30 | 00:00:00 | |
| AA1-15 | 2026-09-02 12:53:13 | 52.62708 | 11.06146 | 100° | 51km/h | 5150m | -7.4m/s | -14.5°C | 80.7% | 539.9hPa | 2.6V | 02:56:48 | 03:02:27 | 00:00:00 | |
| DL1XH1-15 | 2026-09-02 12:53:13 | 52.62720 | 11.06040 | 101° | 51km/h | 5187m | -7.4m/s | -14.8°C | 81.8% | 537.2hPa | 2.6V | 02:56:20 | 03:02:22 | 00:00:00 | |
| DF8AY | 2026-09-02 12:53:12 | 52.62713 | 11.06103 | 101° | 51km/h | 5165m | -7.7m/s | -14.6°C | 82.3% | 538.9hPa | 2.5V | 02:56:48 | 03:02:25 | 00:00:00 | |
| DL1XH-west | 2026-09-02 12:53:10 | 52.62718 | 11.06061 | 101° | 51km/h | 5180m | -7.5m/s | -14.8°C | 83.1% | 537.8hPa | 2.6V | 02:56:48 | 03:02:23 | 00:00:00 | |
| DM0DOS-11 | 2026-09-02 12:53:08 | 52.62725 | 11.05998 | 100° | 51km/h | 5202m | -7.8m/s | -14.9°C | 82.5% | 536.2hPa | 2.5V | 02:56:22 | 03:02:20 | 00:00:00 | |
| AA1-15 | 2026-09-02 12:53:02 | 52.62736 | 11.05911 | 101° | 55km/h | 5231m | -7m/s | -15.1°C | 83.9% | 534.2hPa | 2.6V | 02:56:48 | 03:02:16 | 00:00:00 | |
| DL1XH1-15 | 2026-09-02 12:53:02 | 52.62749 | 11.05823 | 103° | 55km/h | 5261m | -7.4m/s | -15.3°C | 82.5% | 532hPa | 2.6V | 02:56:30 | 03:02:12 | 00:00:00 | |
| DF8AY | 2026-09-02 12:53:00 | 52.62752 | 11.05801 | 103° | 55km/h | 5268m | -7m/s | -15.3°C | 82.9% | 531.5hPa | 2.6V | 02:56:48 | 03:02:11 | 00:00:00 | |
| DL1XH-west | 2026-09-02 12:53:00 | 52.62749 | 11.05823 | 103° | 55km/h | 5261m | -7.4m/s | -15.3°C | 83.5% | 532hPa | 2.6V | 02:56:48 | 03:02:12 | 00:00:00 | |
| BIOWL1-15 | 2026-09-02 12:52:59 | 52.62755 | 11.05779 | 103° | 53km/h | 5275m | -7.4m/s | -15.4°C | 82.5% | 530.9hPa | 2.6V | 02:56:48 | 03:02:10 | 00:00:00 | |
| DB0DAN | 2026-09-02 12:52:55 | 52.62758 | 11.05758 | 103° | 49km/h | 5283m | -7.8m/s | -15.4°C | 77.8% | 530.58hPa | 2.6V | 00:00:00 | 00:00:00 | 00:00:00 | |
| AA1-15 | 2026-09-02 12:52:53 | 52.62770 | 11.05677 | 104° | 53km/h | 5313m | -7.2m/s | -15.6°C | 81.9% | 528.3hPa | 2.6V | 02:56:48 | 03:02:05 | 00:00:00 | |
| BIOWL9-15 | 2026-09-02 12:52:51 | 52.62776 | 11.05635 | 105° | 51km/h | 5328m | -7.2m/s | -15.7°C | 78.0% | 527.3hPa | 2.5V | 00:00:00 | 00:00:00 | 00:00:00 | |
| DL1XH1-15 | 2026-09-02 12:52:49 | 52.62780 | 11.05614 | 107° | 53km/h | 5336m | -6.9m/s | -15.8°C | 82.2% | 526.7hPa | 2.5V | 02:56:40 | 03:02:02 | 00:00:00 | |
| DF8AY | 2026-09-02 12:52:48 | 52.62780 | 11.05614 | 108° | 53km/h | 5336m | -6.9m/s | -15.8°C | 82% | 526.7hPa | 2.5V | 02:56:48 | 03:02:02 | 00:00:00 | |
| BIOWL1-15 | 2026-09-02 12:52:47 | 52.62784 | 11.05593 | 107° | 53km/h | 5343m | -7.1m/s | -15.8°C | 82.4% | 526.3hPa | 2.5V | 02:56:48 | 03:02:01 | 00:00:00 | |
| EDDB2-11 | 2026-09-02 12:52:47 | 52.62788 | 11.05572 | 106° | 51km/h | 5350m | -7.1m/s | -15.9°C | 79.2% | 525.9hPa | 2.5V | 00:00:00 | 00:00:00 | 00:00:00 | |
| DL4BBY-15 | 2026-09-02 12:52:46 | 52.62788 | 11.05572 | 107° | 49km/h | 5350m | -7.1m/s | -15.7°C | 0% | 0hPa | 2.5V | 00:00:00 | 00:00:00 | 00:00:00 | |
| DL1XH1-15 | 2026-09-02 12:52:43 | 52.62822 | 11.05389 | 106° | 51km/h | 5416m | -7.4m/s | -16.4°C | 83.4% | 521.2hPa | 2.5V | 02:56:51 | 03:01:51 | 00:00:00 | |
| AA1-15 | 2026-09-02 12:52:41 | 52.62808 | 11.05470 | 107° | 51km/h | 5388m | -7m/s | -16.2°C | 81.8% | 523.2hPa | 2.6V | 02:56:48 | 03:01:55 | 00:00:00 | |
| DM0DOS-11 | 2026-09-02 12:52:38 | 52.62833 | 11.05328 | 105° | 49km/h | 5438m | -7.4m/s | -16.5°C | 82.1% | 519.6hPa | 2.6V | 02:56:54 | 03:01:48 | 00:00:00 | |
| DL1XH-west | 2026-09-02 12:52:38 | 52.62818 | 11.05409 | 106° | 51km/h | 5409m | -7.6m/s | -16.4°C | 82.3% | 521.8hPa | 2.6V | 02:57:39 | 03:01:52 | 00:00:00 | |
| DF8AY | 2026-09-02 12:52:38 | 52.62825 | 11.05368 | 108° | 51km/h | 5424m | -7.2m/s | -16.4°C | 82.1% | 520.7hPa | 2.5V | 02:57:39 | 03:01:50 | 00:00:00 | |
| BIOWL1-15 | 2026-09-02 12:52:37 | 52.62822 | 11.05389 | 106° | 51km/h | 5416m | -7.4m/s | -16.4°C | 82.4% | 521.2hPa | 2.5V | 02:57:39 | 03:01:51 | 00:00:00 | |
| DF8AY-15 | 2026-09-02 12:52:33 | 52.62836 | 11.05309 | 106° | 51km/h | 5446m | -7.8m/s | -16.5°C | 81.9% | 519.2hPa | 2.6V | 00:00:00 | 03:01:47 | 00:00:00 | |
| DL1XH1-15 | 2026-09-02 12:52:32 | 52.62853 | 11.05187 | 102° | 51km/h | 5494m | -8.2m/s | -16.7°C | 79.8% | 516hPa | 2.6V | 02:57:01 | 03:01:41 | 00:00:00 | |
| AA1-15 | 2026-09-02 12:52:30 | 52.62848 | 11.05229 | 102° | 51km/h | 5478m | -8m/s | -16.6°C | 80.9% | 517hPa | 2.6V | 02:57:39 | 03:01:43 | 00:00:00 | |
| DL1XH-west | 2026-09-02 12:52:28 | 52.62850 | 11.05208 | 103° | 51km/h | 5485m | -8.2m/s | -16.6°C | 80.5% | 516.5hPa | 2.6V | 02:57:39 | 03:01:42 | 00:00:00 | |
| BIOWL1-15 | 2026-09-02 12:52:27 | 52.62856 | 11.05166 | 103° | 53km/h | 5502m | -7.7m/s | -16.7°C | 80.3% | 515.4hPa | 2.5V | 02:57:39 | 03:01:40 | 00:00:00 | |
| DF8AY | 2026-09-02 12:52:23 | 52.62865 | 11.05103 | 101° | 51km/h | 5524m | -7.2m/s | -16.8°C | 79.8% | 513.8hPa | 2.6V | 02:57:39 | 03:01:37 | 00:00:00 | |
| DL1XH1-15 | 2026-09-02 12:52:22 | 52.62877 | 11.04979 | 97° | 49km/h | 5570m | -7.2m/s | -17.1°C | 75.3% | 510.8hPa | 2.6V | 02:57:11 | 03:01:31 | 00:00:00 | |
| AA1-15 | 2026-09-02 12:52:20 | 52.62873 | 11.05020 | 98° | 49km/h | 5555m | -7.5m/s | -17.1°C | 76.6% | 511.7hPa | 2.5V | 02:57:39 | 03:01:33 | 00:00:00 | |
| DL1XH-15 | 2026-09-02 12:52:19 | 52.62883 | 11.04915 | 99° | 53km/h | 5591m | -7.7m/s | -17.2°C | 74.9% | 509.3hPa | 2.5V | 02:57:14 | 03:01:28 | 00:00:00 | |
| DL1XH-west | 2026-09-02 12:52:18 | 52.62878 | 11.04958 | 98° | 51km/h | 5577m | -6.7m/s | -17.1°C | 75.2% | 510.2hPa | 2.6V | 02:57:39 | 03:01:30 | 00:00:00 | |
| DF8AY | 2026-09-02 12:52:13 | 52.62885 | 11.04893 | 98° | 53km/h | 5599m | -7.6m/s | -17.3°C | 75.3% | 508.8hPa | 2.6V | 02:57:39 | 03:01:27 | 00:00:00 | |
| DF8AY-15 | 2026-09-02 12:52:13 | 52.62884 | 11.04893 | 99° | 49km/h | 5599m | -7.5m/s | -17.2°C | 75.2% | 508.8hPa | 2.6V | 02:57:00 | 03:01:27 | 00:00:00 | |
| DL1XH1-15 | 2026-09-02 12:52:12 | 52.62891 | 11.04765 | 92° | 47km/h | 5645m | -7.1m/s | -17.6°C | 76.6% | 505.7hPa | 2.6V | 02:57:21 | 03:01:21 | 00:00:00 | |
| DB0DAN | 2026-09-02 12:52:10 | 52.62889 | 11.04828 | 94° | 49km/h | 5621m | -7.4m/s | -17.4°C | 72.5% | 507.24hPa | 2.6V | 00:00:00 | 00:00:00 | 00:00:00 | |
| AA1-15 | 2026-09-02 12:52:09 | 52.62890 | 11.04785 | 93° | 49km/h | 5637m | -8m/s | -17.5°C | 75.9% | 506.1hPa | 2.5V | 02:57:39 | 03:01:22 | 00:00:00 | |
| DM0DOS-11 | 2026-09-02 12:52:09 | 52.62894 | 11.04706 | 97° | 46km/h | 5668m | -7.6m/s | -17.8°C | 77.4% | 504.1hPa | 2.5V | 02:57:24 | 03:01:18 | 00:00:00 | |
| DL1XH-west | 2026-09-02 12:52:06 | 52.62891 | 11.04745 | 94° | 47km/h | 5652m | -8.2m/s | -17.7°C | 76.2% | 505.1hPa | 2.6V | 02:57:39 | 03:01:20 | 00:00:00 | |
| BIOWL1-15 | 2026-09-02 12:52:03 | 52.62895 | 11.04687 | 99° | 47km/h | 5676m | -7.1m/s | -17.8°C | 76% | 503.5hPa | 2.5V | 02:57:39 | 03:01:17 | 00:00:00 | |
| DF8AY | 2026-09-02 12:52:03 | 52.62897 | 11.04668 | 99° | 46km/h | 5683m | -7.7m/s | -17.9°C | 76% | 503.1hPa | 2.6V | 02:57:39 | 03:01:16 | 00:00:00 | |
| AA1-15 | 2026-09-02 12:51:57 | 52.62908 | 11.04549 | 97° | 49km/h | 5728m | -7.9m/s | -18°C | 75.5% | 500hPa | 2.6V | 02:57:39 | 03:01:10 | 00:00:00 | |
| DL1XH-west | 2026-09-02 12:51:57 | 52.62909 | 11.04529 | 96° | 49km/h | 5737m | -7.9m/s | -18°C | 75.6% | 499.4hPa | 2.6V | 02:57:39 | 03:01:09 | 00:00:00 | |
| DM0DOS-11 | 2026-09-02 12:51:57 | 52.62910 | 11.04509 | 98° | 47km/h | 5745m | -7.9m/s | -18.1°C | 75.6% | 499hPa | 2.6V | 02:57:34 | 03:01:08 | 00:00:00 | |
| DF8AY | 2026-09-02 12:51:52 | 52.62913 | 11.04471 | 95° | 44km/h | 5761m | -7.9m/s | -18.2°C | 73.7% | 497.9hPa | 2.5V | 02:57:39 | 03:01:06 | 00:00:00 | |
| BIOWL1-15 | 2026-09-02 12:51:52 | 52.62915 | 11.04435 | 96° | 44km/h | 5777m | -7.5m/s | -18°C | 70.6% | 496.9hPa | 2.6V | 02:57:39 | 03:01:04 | 00:00:00 | |
| DD8BA-10 | 2026-09-02 12:51:52 | 52.62913 | 11.04471 | 95° | 46km/h | 5761m | -7.9m/s | -18.1°C | 73.9% | 497.9hPa | 2.5V | 02:57:00 | 00:00:00 | 00:00:00 | |
| DL1XH1-15 | 2026-09-02 12:51:51 | 52.62922 | 11.04362 | 100° | 46km/h | 5808m | -7.9m/s | -18.1°C | 65.7% | 494.8hPa | 2.6V | 02:57:42 | 03:01:00 | 00:00:00 | |
| S3001 | 2026-09-02 12:51:51 | 52.62915 | 11.04435 | 95° | 42km/h | 5777m | -7.5m/s | -18.0°C | 67.0% | 496.9hPa | 2.6V | 00:00:00 | 00:00:00 | 00:00:00 | |
| DF7ER-10 | 2026-09-02 12:51:50 | 52.62914 | 11.04453 | 96° | 44km/h | 5770m | -8.5m/s | -18.0°C | 67.2% | 497.3hPa | 2.6V | 02:57:00 | 00:00:00 | 00:00:00 | |
| DM0DOS-11 | 2026-09-02 12:51:48 | 52.62926 | 11.04324 | 101° | 47km/h | 5823m | -6.8m/s | -18.1°C | 62.2% | 493.7hPa | 2.6V | 02:57:44 | 03:00:58 | 00:00:00 | |
| AA1-15 | 2026-09-02 12:51:47 | 52.62919 | 11.04380 | 100° | 46km/h | 5800m | -7.5m/s | -18.1°C | 69.1% | 495.3hPa | 2.5V | 02:58:30 | 03:01:01 | 00:00:00 | |
| DL1XH-west | 2026-09-02 12:51:46 | 52.62921 | 11.04362 | 101° | 46km/h | 5808m | -7.9m/s | -18.1°C | 67.2% | 494.8hPa | 2.6V | 02:58:30 | 03:01:00 | 00:00:00 | |
| SONDE2-11 | 2026-09-02 12:51:45 | 52.62926 | 11.04324 | 101° | 47km/h | 5823m | -6.9m/s | -18.1°C | 59.3% | 493.7hPa | 2.5V | 00:00:00 | 00:00:00 | 00:00:00 | |
| BIOWL1-15 | 2026-09-02 12:51:44 | 52.62930 | 11.04284 | 98° | 49km/h | 5838m | -8m/s | -18.3°C | 65.7% | 492.7hPa | 2.5V | 02:58:30 | 03:00:56 | 00:00:00 | |
| DF8AY | 2026-09-02 12:51:42 | 52.62932 | 11.04264 | 97° | 49km/h | 5846m | -8.3m/s | -18.4°C | 65.8% | 492.2hPa | 2.5V | 02:58:30 | 03:00:55 | 00:00:00 | |
| DB0DAN | 2026-09-02 12:51:40 | 52.62933 | 11.04244 | 97° | 46km/h | 5854m | -6.7m/s | -18.4°C | 61.2% | 491.66hPa | 2.6V | 00:00:00 | 00:00:00 | 00:00:00 | |
| AM1SDL-15 | 2026-09-02 12:51:40 | 52.62935 | 11.04223 | 97° | 49km/h | 5861m | -6.9m/s | -18.4°C | 64.8% | 491.1hPa | 2.6V | 02:57:00 | 03:00:53 | 00:00:00 | |
| DM0DOS-11 | 2026-09-02 12:51:37 | 52.62944 | 11.04125 | 99° | 49km/h | 5898m | -7.1m/s | -18.6°C | 63.7% | 488.8hPa | 2.6V | 02:57:54 | 03:00:48 | 00:00:00 | |
| AA1-15 | 2026-09-02 12:51:37 | 52.62940 | 11.04165 | 99° | 49km/h | 5883m | -7.4m/s | -18.5°C | 66.2% | 489.8hPa | 2.5V | 02:58:30 | 03:00:50 | 00:00:00 | |
| DL1XH1-15 | 2026-09-02 12:51:36 | 52.62942 | 11.04145 | 99° | 49km/h | 5890m | -7.7m/s | -18.5°C | 63.6% | 489.2hPa | 2.6V | 02:57:53 | 03:00:49 | 00:00:00 | |
| DL1XH-west | 2026-09-02 12:51:34 | 52.62944 | 11.04125 | 99° | 49km/h | 5898m | -7.1m/s | -18.6°C | 65.5% | 488.8hPa | 2.6V | 02:58:30 | 03:00:48 | 00:00:00 | |
| BIOWL1-15 | 2026-09-02 12:51:32 | 52.62979 | 11.03783 | 100° | 49km/h | 6031m | -7.3m/s | -19.7°C | 61.4% | 480.1hPa | 2.6V | 02:58:30 | 03:00:31 | 00:00:00 | |
| DJ2DS-15 | 2026-09-02 12:51:29 | 52.62951 | 11.04022 | 95° | 47km/h | 5936m | -7.3m/s | -18.9°C | 56.6% | 486.2hPa | 2.5V | 00:00:00 | 00:00:00 | 00:00:00 | |
| AM1SDL-15 | 2026-09-02 12:51:27 | 52.62954 | 11.03982 | 100° | 49km/h | 5951m | -7.7m/s | -18.9°C | 60.1% | 485.3hPa | 2.5V | 00:00:00 | 03:00:41 | 00:00:00 | |
| DL1XH1-15 | 2026-09-02 12:51:26 | 52.62959 | 11.03942 | 100° | 49km/h | 5967m | -8.1m/s | -19.1°C | 59.1% | 484.2hPa | 2.5V | 02:58:03 | 03:00:39 | 00:00:00 | |
| EDDB2-12 | 2026-09-02 12:51:26 | 52.62956 | 11.03962 | 101° | 49km/h | 5959m | -8.7m/s | -19.1°C | 56.5% | 484.8hPa | 2.6V | 00:00:00 | 00:00:00 | 00:00:00 | |
| DM0DOS-11 | 2026-09-02 12:51:25 | 52.62962 | 11.03921 | 102° | 49km/h | 5975m | -8.2m/s | -19.2°C | 59.2% | 483.7hPa | 2.6V | 02:58:04 | 03:00:38 | 00:00:00 | |
| AA1-15 | 2026-09-02 12:51:25 | 52.62959 | 11.03942 | 101° | 49km/h | 5967m | -8.1m/s | -19.1°C | 61.8% | 484.3hPa | 2.5V | 02:58:30 | 03:00:39 | 00:00:00 | |
| DL1XH-west | 2026-09-02 12:51:23 | 52.62967 | 11.03882 | 102° | 47km/h | 5992m | -7.6m/s | -19.4°C | 62% | 482.7hPa | 2.6V | 02:58:30 | 03:00:36 | 00:00:00 | |
| BIOWL1-15 | 2026-09-02 12:51:22 | 52.62983 | 11.03743 | 101° | 49km/h | 6047m | -8.7m/s | -19.9°C | 60.1% | 479.1hPa | 2.5V | 02:58:30 | 03:00:29 | 00:00:00 | |
| DD8BA-10 | 2026-09-02 12:51:21 | 52.62969 | 11.03862 | 102° | 49km/h | 6000m | -8.5m/s | -19.4°C | 59.8% | 482.0hPa | 2.5V | 02:58:00 | 00:00:00 | 00:00:00 | |
| DF7ER-10 | 2026-09-02 12:51:20 | 52.62972 | 11.03842 | 105° | 49km/h | 6008m | -7.5m/s | -19.5°C | 56.6% | 481.6hPa | 2.5V | 02:58:00 | 00:00:00 | 00:00:00 | |
| BIOWL9-15 | 2026-09-02 12:51:17 | 52.62979 | 11.03783 | 100° | 47km/h | 6031m | -7.3m/s | -19.7°C | 56.2% | 480.1hPa | 2.5V | 00:00:00 | 00:00:00 | 00:00:00 | |
| DL1XH1-15 | 2026-09-02 12:51:16 | 52.62983 | 11.03743 | 100° | 49km/h | 6047m | -8.7m/s | -19.9°C | 57.7% | 479.1hPa | 2.5V | 02:58:13 | 03:00:29 | 00:00:00 | |
| DL1XH-15 | 2026-09-02 12:51:15 | 52.62986 | 11.03723 | 101° | 49km/h | 6056m | -8.7m/s | -19.9°C | 57.8% | 478.4hPa | 2.5V | 02:58:14 | 03:00:28 | 00:00:00 | |
| AA1-15 | 2026-09-02 12:51:14 | 52.62986 | 11.03723 | 101° | 49km/h | 6056m | -8.7m/s | -19.9°C | 60.1% | 478.4hPa | 2.5V | 02:58:30 | 03:00:28 | 00:00:00 | |
| DL1XH-west | 2026-09-02 12:51:13 | 52.62988 | 11.03703 | 103° | 49km/h | 6064m | -8.6m/s | -20°C | 60.3% | 477.9hPa | 2.5V | 02:58:30 | 03:00:27 | 00:00:00 | |
| DD8BA-10 | 2026-09-02 12:51:11 | 52.62994 | 11.03664 | 105° | 47km/h | 6080m | -8.2m/s | -20.1°C | 58.8% | 476.8hPa | 2.6V | 00:00:00 | 00:00:00 | 00:00:00 | |
| DF7ER-10 | 2026-09-02 12:51:08 | 52.63000 | 11.03624 | 107° | 49km/h | 6098m | -8.5m/s | -20.3°C | 54.8% | 475.8hPa | 2.6V | 02:58:00 | 00:00:00 | 00:00:00 | |
| DL1XH1-15 | 2026-09-02 12:51:06 | 52.63012 | 11.03547 | 101° | 47km/h | 6129m | -8m/s | -20.5°C | 56.2% | 473.8hPa | 2.6V | 02:58:23 | 03:00:19 | 00:00:00 | |
| BIOWL1-15 | 2026-09-02 12:51:06 | 52.63012 | 11.03547 | 101° | 47km/h | 6129m | -8m/s | -20.5°C | 58.6% | 473.9hPa | 2.6V | 02:58:30 | 03:00:19 | 00:00:00 | |
| DL1XH-15 | 2026-09-02 12:51:05 | 52.63015 | 11.03527 | 104° | 49km/h | 6137m | -7.8m/s | -20.6°C | 55.8% | 473.4hPa | 2.6V | 02:58:24 | 03:00:18 | 00:00:00 | |
| AA1-15 | 2026-09-02 12:51:03 | 52.63017 | 11.03508 | 103° | 47km/h | 6145m | -8.4m/s | -20.7°C | 58.1% | 472.9hPa | 2.5V | 02:58:30 | 03:00:17 | 00:00:00 | |
| DL1XH-west | 2026-09-02 12:51:02 | 52.63020 | 11.03488 | 104° | 49km/h | 6153m | -7.8m/s | -20.7°C | 58.3% | 472.3hPa | 2.5V | 02:58:30 | 03:00:16 | 00:00:00 | |
| DD8BA-10 | 2026-09-02 12:51:01 | 52.63023 | 11.03469 | 102° | 47km/h | 6161m | -8.0m/s | -20.7°C | 55.4% | 471.7hPa | 2.6V | 00:00:00 | 00:00:00 | 00:00:00 | |
| DF7ER-10 | 2026-09-02 12:50:58 | 52.63031 | 11.03409 | 104° | 47km/h | 6186m | -7.0m/s | -21.0°C | 54.0% | 470.2hPa | 2.6V | 02:58:00 | 00:00:00 | 00:00:00 | |
| DL1XH1-15 | 2026-09-02 12:50:56 | 52.63040 | 11.03352 | 104° | 47km/h | 6208m | -7.8m/s | -21.2°C | 57.3% | 468.7hPa | 2.6V | 02:58:33 | 03:00:09 | 00:00:00 | |
| BIOWL1-15 | 2026-09-02 12:50:55 | 52.63064 | 11.03178 | 102° | 47km/h | 6283m | -8m/s | -21.9°C | 64.5% | 464.1hPa | 2.6V | 02:59:21 | 03:00:00 | 00:00:00 | |
| DL1XH-15 | 2026-09-02 12:50:55 | 52.63043 | 11.03333 | 105° | 47km/h | 6217m | -9.2m/s | -21.3°C | 57.2% | 468.2hPa | 2.6V | 02:58:34 | 03:00:08 | 00:00:00 | |
| DF8AY | 2026-09-02 12:50:51 | 52.63051 | 11.03276 | 104° | 47km/h | 6242m | -7.6m/s | -21.5°C | 61.4% | 466.7hPa | 2.6V | 02:59:21 | 03:00:05 | 00:00:00 | |
| S3001 | 2026-09-02 12:50:49 | 52.63059 | 11.03217 | 101° | 47km/h | 6266m | -8.2m/s | -21.7°C | 58.0% | 465.2hPa | 2.5V | 00:00:00 | 00:00:00 | 00:00:00 | |
| BIOWL9-15 | 2026-09-02 12:50:47 | 52.63064 | 11.03178 | 102° | 47km/h | 6283m | -8.0m/s | -21.9°C | 59.0% | 464.1hPa | 2.5V | 00:00:00 | 00:00:00 | 00:00:00 | |
| BIOWL1-15 | 2026-09-02 12:50:43 | 52.63073 | 11.03121 | 105° | 46km/h | 6305m | -8.3m/s | -22.1°C | 65.8% | 462.6hPa | 2.5V | 02:59:21 | 02:59:57 | 00:00:00 | |
| DL1XH-west | 2026-09-02 12:50:41 | 52.63077 | 11.03084 | 103° | 46km/h | 6322m | -8.4m/s | -22.2°C | 65.9% | 461.6hPa | 2.6V | 02:59:21 | 02:59:55 | 00:00:00 | |
| AA1-15 | 2026-09-02 12:50:41 | 52.63080 | 11.03066 | 106° | 46km/h | 6330m | -8.1m/s | -22.3°C | 66% | 461hPa | 2.6V | 02:59:21 | 02:59:54 | 00:00:00 | |
| DF8AY | 2026-09-02 12:50:41 | 52.63097 | 11.02954 | 104° | 47km/h | 6379m | -7.9m/s | -22.8°C | 65.5% | 458hPa | 2.6V | 02:59:21 | 02:59:48 | 00:00:00 | |
| DD8BA-10 | 2026-09-02 12:50:40 | 52.63080 | 11.03066 | 107° | 46km/h | 6330m | -8.1m/s | -22.3°C | 63.3% | 461.0hPa | 2.6V | 00:00:00 | 00:00:00 | 00:00:00 | |
| AM1SDL-15 | 2026-09-02 12:50:39 | 52.63083 | 11.03047 | 105° | 47km/h | 6339m | -8.4m/s | -22.3°C | 62.9% | 460.5hPa | 2.6V | 00:00:00 | 02:59:53 | 00:00:00 | |
| DF7ER-10 | 2026-09-02 12:50:37 | 52.63086 | 11.03029 | 105° | 46km/h | 6347m | -8.1m/s | -22.5°C | 59.3% | 460.1hPa | 2.6V | 02:59:00 | 00:00:00 | 00:00:00 | |
| DL1XH1-15 | 2026-09-02 12:50:36 | 52.63094 | 11.02973 | 102° | 47km/h | 6371m | -7.8m/s | -22.7°C | 63.4% | 458.4hPa | 2.6V | 02:58:53 | 02:59:49 | 00:00:00 | |
| DF8AY | 2026-09-02 12:50:35 | 52.63113 | 11.02838 | 104° | 49km/h | 6427m | -7.4m/s | -23.2°C | 67.5% | 454.9hPa | 2.5V | 02:59:21 | 02:59:42 | 00:00:00 | |
| BIOWL1-15 | 2026-09-02 12:50:33 | 52.63102 | 11.02916 | 103° | 47km/h | 6395m | -7.8m/s | -22.9°C | 65.6% | 457hPa | 2.5V | 02:59:21 | 02:59:46 | 00:00:00 | |
| DL1XH-west | 2026-09-02 12:50:31 | 52.63105 | 11.02897 | 105° | 47km/h | 6403m | -7.9m/s | -22.9°C | 66.1% | 456.4hPa | 2.6V | 02:59:21 | 02:59:45 | 00:00:00 | |
| AA1-15 | 2026-09-02 12:50:31 | 52.63110 | 11.02858 | 103° | 47km/h | 6419m | -8m/s | -23.1°C | 67% | 455.5hPa | 2.6V | 02:59:21 | 02:59:43 | 00:00:00 | |
| DD8BA-10 | 2026-09-02 12:50:30 | 52.63108 | 11.02877 | 104° | 49km/h | 6411m | -8.4m/s | -23.0°C | 63.9% | 456.0hPa | 2.6V | 00:00:00 | 00:00:00 | 00:00:00 | |
| DM0DOS-11 | 2026-09-02 12:50:29 | 52.63124 | 11.02760 | 102° | 49km/h | 6457m | -8.5m/s | -23.4°C | 67.3% | 453.2hPa | 2.6V | 02:59:04 | 02:59:38 | 00:00:00 | |
| AM1SDL-15 | 2026-09-02 12:50:27 | 52.63116 | 11.02819 | 103° | 49km/h | 6434m | -7.2m/s | -23.2°C | 65.7% | 454.4hPa | 2.5V | 02:59:00 | 02:59:41 | 00:00:00 | |
| DL1XH1-15 | 2026-09-02 12:50:26 | 52.63122 | 11.02780 | 104° | 49km/h | 6449m | -7.9m/s | -23.4°C | 66.9% | 453.6hPa | 2.6V | 02:59:03 | 02:59:39 | 00:00:00 | |
| DB0DAN | 2026-09-02 12:50:25 | 52.63122 | 11.02780 | 105° | 46km/h | 6449m | -7.9m/s | -23.4°C | 63.1% | 453.64hPa | 2.6V | 00:00:00 | 00:00:00 | 00:00:00 | |
| DL1XH-west | 2026-09-02 12:50:21 | 52.63133 | 11.02700 | 104° | 49km/h | 6481m | -7.3m/s | -23.7°C | 70.8% | 451.6hPa | 2.6V | 02:59:21 | 02:59:35 | 00:00:00 | |
| AA1-15 | 2026-09-02 12:50:18 | 52.63141 | 11.02641 | 103° | 49km/h | 6506m | -7.9m/s | -23.9°C | 71.3% | 450.1hPa | 2.5V | 02:59:21 | 02:59:32 | 00:00:00 | |
| DF8AY | 2026-09-02 12:50:17 | 52.63154 | 11.02540 | 102° | 49km/h | 6546m | -8.5m/s | -24.3°C | 72.5% | 447.8hPa | 2.5V | 02:59:21 | 02:59:27 | 00:00:00 | |
| DL1XH1-15 | 2026-09-02 12:50:16 | 52.63149 | 11.02580 | 101° | 49km/h | 6529m | -6.8m/s | -24.1°C | 69.6% | 448.6hPa | 2.6V | 02:59:13 | 02:59:29 | 00:00:00 | |
| GOEST3-10 | 2026-09-02 12:50:16 | 52.63149 | 11.02580 | 102° | 49km/h | 6529m | -6.8m/s | -24.1°C | 69.6% | 448.6hPa | 2.5V | 00:00:00 | 02:59:29 | 00:00:00 | |
| DL4BBY-15 | 2026-09-02 12:50:15 | 52.63149 | 11.02580 | 102° | 51km/h | 6529m | -6.8m/s | -23.9°C | 0% | 0hPa | 2.5V | 00:00:00 | 00:00:00 | 00:00:00 | |
| DF8AY-15 | 2026-09-02 12:50:13 | 52.63154 | 11.02540 | 102° | 49km/h | 6546m | -8.5m/s | -24.2°C | 70.4% | 447.7hPa | 2.5V | 02:59:00 | 02:59:27 | 00:00:00 | |
| DB0DAN | 2026-09-02 12:50:10 | 52.63161 | 11.02481 | 101° | 46km/h | 6569m | -7.4m/s | -24.5°C | 70.3% | 446.17hPa | 2.6V | 00:00:00 | 00:00:00 | 00:00:00 | |
| DL1XH-west | 2026-09-02 12:50:10 | 52.63161 | 11.02481 | 101° | 49km/h | 6569m | -7.4m/s | -24.5°C | 76.1% | 446.2hPa | 2.6V | 02:59:21 | 02:59:24 | 00:00:00 | |
| BIOWL1-15 | 2026-09-02 12:50:10 | 52.63176 | 11.02341 | 98° | 49km/h | 6622m | -8.1m/s | -25°C | 87.7% | 442.9hPa | 2.5V | 03:00:12 | 02:59:17 | 00:00:00 | |
| DD8BA-10 | 2026-09-02 12:50:10 | 52.63161 | 11.02481 | 102° | 49km/h | 6569m | -7.4m/s | -24.4°C | 74.6% | 446.1hPa | 2.6V | 00:00:00 | 00:00:00 | 00:00:00 | |
| DL1XH1-15 | 2026-09-02 12:50:08 | 52.63172 | 11.02381 | 99° | 49km/h | 6607m | -7.4m/s | -24.9°C | 86.8% | 443.9hPa | 2.6V | 02:59:23 | 02:59:19 | 00:00:00 | |
| AA1-15 | 2026-09-02 12:50:07 | 52.63168 | 11.02421 | 101° | 49km/h | 6592m | -7.6m/s | -24.7°C | 84.8% | 444.8hPa | 2.5V | 02:59:21 | 02:59:21 | 00:00:00 | |
| DF7ER-10 | 2026-09-02 12:50:06 | 52.63168 | 11.02421 | 102° | 49km/h | 6592m | -7.6m/s | -24.7°C | 79.8% | 444.8hPa | 2.6V | 02:59:00 | 00:00:00 | 00:00:00 | |
| DM0DOS-11 | 2026-09-02 12:50:05 | 52.63174 | 11.02361 | 98° | 47km/h | 6614m | -7.5m/s | -24.9°C | 87.3% | 443.4hPa | 2.6V | 02:59:24 | 02:59:18 | 00:00:00 | |
| DL1XH-west | 2026-09-02 12:49:59 | 52.63185 | 11.02241 | 99° | 49km/h | 6662m | -8.4m/s | -25.4°C | 89% | 440.6hPa | 2.6V | 03:00:12 | 02:59:12 | 00:00:00 | |
| DD8BA-10 | 2026-09-02 12:49:59 | 52.63183 | 11.02261 | 99° | 53km/h | 6654m | -7.7m/s | -25.3°C | 89.3% | 440.9hPa | 2.6V | 00:00:00 | 00:00:00 | 00:00:00 | |
| DL1XH-15 | 2026-09-02 12:49:58 | 52.63194 | 11.02157 | 98° | 53km/h | 6696m | -8.7m/s | -25.7°C | 89.1% | 438.6hPa | 2.6V | 02:59:34 | 02:59:08 | 00:00:00 | |
| DL1XH1-15 | 2026-09-02 12:49:57 | 52.63192 | 11.02178 | 98° | 51km/h | 6687m | -8.4m/s | -25.6°C | 90% | 439hPa | 2.5V | 02:59:33 | 02:59:09 | 00:00:00 | |
| AA1-15 | 2026-09-02 12:49:56 | 52.63190 | 11.02199 | 100° | 51km/h | 6679m | -8.6m/s | -25.6°C | 89.9% | 439.5hPa | 2.5V | 03:00:12 | 02:59:10 | 00:00:00 | |
| BIOWL1-15 | 2026-09-02 12:49:51 | 52.63200 | 11.02090 | 98° | 53km/h | 6723m | -8.9m/s | -25.9°C | 87.8% | 436.9hPa | 2.5V | 03:00:12 | 02:59:05 | 00:00:00 | |
| DL1XH-west | 2026-09-02 12:49:49 | 52.63210 | 11.01980 | 99° | 55km/h | 6767m | -8.5m/s | -26.2°C | 81.7% | 434.4hPa | 2.6V | 03:00:12 | 02:59:00 | 00:00:00 | |
| DM0DOS-11 | 2026-09-02 12:49:48 | 52.63216 | 11.01914 | 98° | 53km/h | 6791m | -7.8m/s | -26.3°C | 79% | 432.9hPa | 2.5V | 02:59:45 | 02:58:57 | 00:00:00 | |
| DF8AY | 2026-09-02 12:49:48 | 52.63212 | 11.01958 | 98° | 53km/h | 6775m | -8.1m/s | -26.2°C | 82% | 433.8hPa | 2.5V | 03:01:03 | 02:58:59 | 00:00:00 | |
| S3001 | 2026-09-02 12:49:47 | 52.63210 | 11.01980 | 99° | 53km/h | 6767m | -8.5m/s | -26.2°C | 75.8% | 434.4hPa | 2.5V | 00:00:00 | 00:00:00 | 00:00:00 | |
| DL1XH-15 | 2026-09-02 12:49:46 | 52.63214 | 11.01936 | 97° | 53km/h | 6783m | -7.8m/s | -26.3°C | 79.9% | 433.3hPa | 2.5V | 02:59:44 | 02:58:58 | 00:00:00 | |
| AA1-15 | 2026-09-02 12:49:46 | 52.63214 | 11.01936 | 97° | 53km/h | 6783m | -7.8m/s | -26.3°C | 81% | 433.3hPa | 2.5V | 03:00:12 | 02:58:58 | 00:00:00 | |
| BIOWL9-15 | 2026-09-02 12:49:45 | 52.63214 | 11.01936 | 97° | 53km/h | 6783m | -7.8m/s | -26.3°C | 75.1% | 433.3hPa | 2.6V | 00:00:00 | 00:00:00 | 00:00:00 | |
| DL4XJ-10 | 2026-09-02 12:49:43 | 52.63216 | 11.01914 | 99° | 51km/h | 6791m | -7.8m/s | -26.1°C | 0% | 0hPa | 2.6V | 00:00:00 | 00:00:00 | 00:00:00 | |
| DL1XH1-15 | 2026-09-02 12:49:41 | 52.63230 | 11.01720 | 95° | 53km/h | 6862m | -8.1m/s | -26.9°C | 75.6% | 428.6hPa | 2.6V | 02:59:54 | 02:58:48 | 00:00:00 | |
| BIOWL1-15 | 2026-09-02 12:49:40 | 52.63220 | 11.01850 | 96° | 51km/h | 6816m | -7.9m/s | -26.6°C | 79.7% | 431.3hPa | 2.6V | 03:00:12 | 02:58:54 | 00:00:00 | |
| EDDB2-11 | 2026-09-02 12:49:40 | 52.63222 | 11.01829 | 97° | 51km/h | 6824m | -7.8m/s | -26.6°C | 75.1% | 430.9hPa | 2.6V | 00:00:00 | 00:00:00 | 00:00:00 | |
| AM1SDL-15 | 2026-09-02 12:49:39 | 52.63222 | 11.01829 | 98° | 51km/h | 6824m | -7.7m/s | -26.6°C | 80.0% | 430.8hPa | 2.6V | 00:00:00 | 02:58:53 | 00:00:00 | |
| DL1XH-15 | 2026-09-02 12:49:38 | 52.63230 | 11.01720 | 95° | 53km/h | 6862m | -8.1m/s | -26.9°C | 75.6% | 428.6hPa | 2.6V | 02:59:54 | 02:58:48 | 00:00:00 | |
| DM0DOS-11 | 2026-09-02 12:49:38 | 52.63231 | 11.01698 | 95° | 53km/h | 6870m | -7.9m/s | -26.9°C | 74.8% | 428hPa | 2.5V | 02:59:55 | 02:58:47 | 00:00:00 | |
| DL1XH-west | 2026-09-02 12:49:38 | 52.63226 | 11.01786 | 96° | 53km/h | 6839m | -6.9m/s | -26.8°C | 80.2% | 429.8hPa | 2.6V | 03:00:12 | 02:58:51 | 00:00:00 | |
| DF8AY | 2026-09-02 12:49:36 | 52.63228 | 11.01742 | 96° | 53km/h | 6854m | -7.9m/s | -26.8°C | 77.6% | 429.1hPa | 2.6V | 03:01:03 | 02:58:49 | 00:00:00 | |
| AA1-15 | 2026-09-02 12:49:33 | 52.63231 | 11.01698 | 95° | 53km/h | 6870m | -7.9m/s | -27°C | 75.7% | 428hPa | 2.5V | 03:00:12 | 02:58:47 | 00:00:00 | |
| BIOWL1-15 | 2026-09-02 12:49:29 | 52.63236 | 11.01612 | 95° | 51km/h | 6902m | -9m/s | -27.2°C | 72.7% | 426.3hPa | 2.6V | 03:00:12 | 02:58:43 | 00:00:00 | |
| DL1XH1-15 | 2026-09-02 12:49:29 | 52.63241 | 11.01526 | 94° | 49km/h | 6937m | -7.6m/s | -27.5°C | 71.6% | 424.3hPa | 2.5V | 03:00:03 | 02:58:39 | 00:00:00 | |
| DL1XH-15 | 2026-09-02 12:49:28 | 52.63242 | 11.01506 | 93° | 49km/h | 6944m | -8m/s | -27.5°C | 72.2% | 423.6hPa | 2.5V | 03:00:04 | 02:58:38 | 00:00:00 | |
| DL1XH-west | 2026-09-02 12:49:26 | 52.63241 | 11.01526 | 95° | 49km/h | 6937m | -7.6m/s | -27.5°C | 71.4% | 424.4hPa | 2.5V | 03:00:12 | 02:58:39 | 00:00:00 | |
| AA1-15 | 2026-09-02 12:49:23 | 52.63244 | 11.01464 | 92° | 49km/h | 6961m | -7.6m/s | -27.7°C | 72.5% | 422.8hPa | 2.6V | 03:00:12 | 02:58:36 | 00:00:00 | |
| BIOWL1-15 | 2026-09-02 12:49:19 | 52.63249 | 11.01331 | 95° | 57km/h | 7012m | -8.9m/s | -28.1°C | 74.3% | 419.9hPa | 2.6V | 03:00:12 | 02:58:30 | 00:00:00 | |
| DL1XH1-15 | 2026-09-02 12:49:19 | 52.63251 | 11.01308 | 97° | 57km/h | 7020m | -8.8m/s | -28.2°C | 75.6% | 419.4hPa | 2.6V | 03:00:13 | 02:58:29 | 00:00:00 | |
| DL1XH-15 | 2026-09-02 12:49:18 | 52.63253 | 11.01284 | 97° | 57km/h | 7030m | -9.5m/s | -28.2°C | 75.9% | 418.9hPa | 2.6V | 03:00:14 | 02:58:28 | 00:00:00 | |
| DM0DOS-11 | 2026-09-02 12:49:18 | 52.63258 | 11.01237 | 100° | 58km/h | 7048m | -8.5m/s | -28.3°C | 72.5% | 417.6hPa | 2.5V | 03:00:16 | 02:58:26 | 00:00:00 | |
| DF8AY | 2026-09-02 12:49:15 | 52.63260 | 11.01213 | 100° | 58km/h | 7056m | -8.6m/s | -28.3°C | 69.7% | 417.3hPa | 2.5V | 03:01:03 | 02:58:25 | 00:00:00 | |
| DL1XH-west | 2026-09-02 12:49:15 | 52.63253 | 11.01284 | 98° | 57km/h | 7030m | -9.5m/s | -28.3°C | 74.5% | 418.9hPa | 2.6V | 03:01:03 | 02:58:28 | 00:00:00 | |
| AA1-15 | 2026-09-02 12:49:12 | 52.63258 | 11.01237 | 100° | 58km/h | 7048m | -8.5m/s | -28.3°C | 71% | 417.7hPa | 2.5V | 03:01:03 | 02:58:26 | 00:00:00 | |
| DB0DAN | 2026-09-02 12:49:10 | 52.63263 | 11.01189 | 101° | 55km/h | 7064m | -7.4m/s | -28.3°C | 66% | 416.71hPa | 2.5V | 00:00:00 | 00:00:00 | 00:00:00 | |
| SMARD9-15 | 2026-09-02 12:49:10 | 52.63266 | 11.01166 | 99° | 57km/h | 7072m | -8.2m/s | -28.4°C | 65.2% | 416.2hPa | 2.5V | 00:00:00 | 00:00:00 | 00:00:00 | |
| EDDB2-11 | 2026-09-02 12:49:09 | 52.63268 | 11.01142 | 101° | 57km/h | 7080m | -7.9m/s | -28.4°C | 64.2% | 415.8hPa | 2.5V | 00:00:00 | 00:00:00 | 00:00:00 | |
| DL1XH-15 | 2026-09-02 12:49:08 | 52.63278 | 11.01046 | 97° | 58km/h | 7114m | -8.2m/s | -28.5°C | 59% | 413.9hPa | 2.5V | 03:00:24 | 02:58:18 | 00:00:00 | |
| BIOWL1-15 | 2026-09-02 12:49:07 | 52.63271 | 11.01119 | 99° | 58km/h | 7088m | -8.2m/s | -28.5°C | 65.6% | 415.3hPa | 2.6V | 03:01:03 | 02:58:21 | 00:00:00 | |
| DM0DOS-11 | 2026-09-02 12:49:07 | 52.63282 | 11.00998 | 98° | 57km/h | 7129m | -7.9m/s | -28.3°C | 50.9% | 413hPa | 2.6V | 03:00:26 | 02:58:16 | 00:00:00 | |
| DL1XH-west | 2026-09-02 12:49:04 | 52.63278 | 11.01046 | 97° | 58km/h | 7114m | -8.2m/s | -28.5°C | 58% | 413.9hPa | 2.5V | 03:01:03 | 02:58:18 | 00:00:00 | |
| DF8AY | 2026-09-02 12:49:03 | 52.63280 | 11.01022 | 99° | 58km/h | 7122m | -7.5m/s | -28.4°C | 54.8% | 413.4hPa | 2.5V | 03:01:03 | 02:58:17 | 00:00:00 | |
| AA1-15 | 2026-09-02 12:49:01 | 52.63285 | 11.00975 | 99° | 57km/h | 7137m | -7.5m/s | -28.2°C | 49.9% | 412.5hPa | 2.6V | 03:01:03 | 02:58:15 | 00:00:00 | |
| TFSTFS | 2026-09-02 12:48:59 | 52.63289 | 11.00929 | 101° | 57km/h | 7154m | -9.1m/s | -28.2°C | 43.7% | 412.1hPa | 2.6V | 03:01:00 | 00:00:00 | 00:00:00 | |
| DM0DOS-11 | 2026-09-02 12:48:58 | 52.63311 | 11.00736 | 101° | 62km/h | 7223m | -8.3m/s | -28.2°C | 35% | 407.6hPa | 2.6V | 03:00:37 | 02:58:05 | 00:00:00 | |
| BIOWL1-15 | 2026-09-02 12:48:57 | 52.63308 | 11.00761 | 101° | 60km/h | 7215m | -8.3m/s | -28.2°C | 38.7% | 408.1hPa | 2.6V | 03:01:03 | 02:58:06 | 00:00:00 | |
| DB0NH | 2026-09-02 12:48:57 | 52.63294 | 11.00882 | 100° | 62km/h | 7172m | -8.9m/s | -28.2°C | 43.3% | 410.4hPa | 2.6V | 00:00:00 | 02:58:11 | 00:00:00 | |
| DB0DAN | 2026-09-02 12:48:55 | 52.63299 | 11.00835 | 100° | 57km/h | 7189m | -8.4m/s | -28.2°C | 36.7% | 409.6hPa | 2.6V | 00:00:00 | 00:00:00 | 00:00:00 | |
| DL1XH-west | 2026-09-02 12:48:54 | 52.63302 | 11.00810 | 101° | 60km/h | 7198m | -9.1m/s | -28.2°C | 40.7% | 409.1hPa | 2.5V | 03:01:03 | 02:58:08 | 00:00:00 | |
| DF8AY | 2026-09-02 12:48:53 | 52.63311 | 11.00736 | 102° | 62km/h | 7223m | -8.3m/s | -28.3°C | 37.4% | 407.6hPa | 2.6V | 03:01:03 | 02:58:05 | 00:00:00 | |
| AA1-15 | 2026-09-02 12:48:51 | 52.63317 | 11.00685 | 102° | 62km/h | 7241m | -8.1m/s | -28.2°C | 34.3% | 406.6hPa | 2.5V | 03:01:03 | 02:58:03 | 00:00:00 | |
| DL1XH1-15 | 2026-09-02 12:48:50 | 52.63330 | 11.00585 | 103° | 62km/h | 7274m | -8.3m/s | -28.2°C | 26.5% | 404.7hPa | 2.6V | 03:00:43 | 02:57:59 | 00:00:00 | |
| BIOWL1-15 | 2026-09-02 12:48:46 | 52.63355 | 11.00435 | 107° | 62km/h | 7328m | -9.1m/s | -28.3°C | 23.8% | 401.6hPa | 2.6V | 03:01:03 | 02:57:53 | 00:00:00 | |
| DM0DOS-11 | 2026-09-02 12:48:46 | 52.63342 | 11.00510 | 105° | 64km/h | 7300m | -9.9m/s | -28.2°C | 23.5% | 403.3hPa | 2.5V | 03:00:46 | 02:57:56 | 00:00:00 | |
| DL1XH-west | 2026-09-02 12:48:44 | 52.63338 | 11.00535 | 106° | 62km/h | 7291m | -9m/s | -28.2°C | 27.4% | 403.8hPa | 2.6V | 03:01:03 | 02:57:57 | 00:00:00 | |
| DF8AY | 2026-09-02 12:48:43 | 52.63342 | 11.00510 | 106° | 64km/h | 7300m | -9.9m/s | -28.3°C | 26.6% | 403.3hPa | 2.5V | 03:01:03 | 02:57:56 | 00:00:00 | |
| AA1-15 | 2026-09-02 12:48:40 | 52.63360 | 11.00410 | 109° | 64km/h | 7337m | -8.5m/s | -28.3°C | 23.1% | 401.1hPa | 2.6V | 03:01:03 | 02:57:52 | 00:00:00 | |
| DL1XH1-15 | 2026-09-02 12:48:40 | 52.63375 | 11.00337 | 109° | 62km/h | 7363m | -9.2m/s | -28.4°C | 17.8% | 399.6hPa | 2.5V | 03:00:53 | 02:57:49 | 00:00:00 | |
| DB0DAN | 2026-09-02 12:48:40 | 52.63350 | 11.00459 | 105° | 60km/h | 7319m | -9.8m/s | -28.3°C | 19.3% | 402.14hPa | 2.5V | 00:00:00 | 00:00:00 | 00:00:00 | |
| SMARD9-15 | 2026-09-02 12:48:39 | 52.63360 | 11.00410 | 108° | 62km/h | 7337m | -8.5m/s | -28.3°C | 18.3% | 401.1hPa | 2.5V | 00:00:00 | 00:00:00 | 00:00:00 | |
| EDDB2-11 | 2026-09-02 12:48:38 | 52.63365 | 11.00385 | 108° | 60km/h | 7345m | -8.5m/s | -28.4°C | 17.4% | 400.6hPa | 2.5V | 00:00:00 | 00:00:00 | 00:00:00 | |
| DL1XH-15 | 2026-09-02 12:48:37 | 52.63381 | 11.00313 | 110° | 62km/h | 7373m | -8.7m/s | -28.4°C | 17.3% | 399.1hPa | 2.5V | 03:00:54 | 02:57:48 | 00:00:00 | |
| DM0DOS-11 | 2026-09-02 12:48:34 | 52.63392 | 11.00265 | 112° | 64km/h | 7390m | -9m/s | -28.6°C | 16.8% | 398.2hPa | 2.6V | 03:00:56 | 02:57:46 | 00:00:00 | |
| DF8AY | 2026-09-02 12:48:32 | 52.63392 | 11.00265 | 112° | 64km/h | 7390m | -9m/s | -28.6°C | 19.6% | 398.2hPa | 2.6V | 03:01:03 | 02:57:46 | 00:00:00 | |
| AA1-15 | 2026-09-02 12:48:30 | 52.63417 | 11.00165 | 112° | 66km/h | 7424m | -9.1m/s | -28.9°C | 18.4% | 396.2hPa | 2.5V | 03:01:03 | 02:57:42 | 00:00:00 | |
| DL1XH1-15 | 2026-09-02 12:48:30 | 52.63437 | 11.00087 | 113° | 68km/h | 7452m | -9m/s | -29°C | 14.9% | 394.7hPa | 2.6V | 03:01:03 | 02:57:39 | 00:00:00 | |
| DD8BA-10 | 2026-09-02 12:48:28 | 52.63417 | 11.00164 | 113° | 68km/h | 7424m | -9.1m/s | -28.8°C | 15.8% | 396.2hPa | 2.5V | 00:00:00 | 00:00:00 | 00:00:00 | |
| DL1XH-15 | 2026-09-02 12:48:27 | 52.63443 | 11.00061 | 113° | 68km/h | 7461m | -9.1m/s | -29.1°C | 15% | 394.2hPa | 2.5V | 03:01:04 | 02:57:38 | 00:00:00 | |
| DO2SHX-10 | 2026-09-02 12:48:25 | 52.63436 | 11.00087 | 114° | 68km/h | 7452m | -8.9m/s | -28.9°C | 14.9% | 394.6hPa | 2.5V | 00:00:00 | 02:57:39 | 00:00:00 | |
| DM0DOS-11 | 2026-09-02 12:48:23 | 52.63457 | 11.00011 | 114° | 68km/h | 7479m | -9.7m/s | -29.2°C | 15% | 393.2hPa | 2.5V | 03:01:06 | 02:57:36 | 00:00:00 | |
| DF8AY | 2026-09-02 12:48:22 | 52.63457 | 11.00011 | 115° | 68km/h | 7479m | -9.7m/s | -29.2°C | 17.5% | 393.2hPa | 2.5V | 03:01:54 | 02:57:36 | 00:00:00 | |
| AA1-15 | 2026-09-02 12:48:19 | 52.63491 | 10.99884 | 115° | 68km/h | 7525m | -9.4m/s | -29.6°C | 18% | 390.7hPa | 2.5V | 03:01:54 | 02:57:31 | 00:00:00 | |
| DL1XH1-15 | 2026-09-02 12:48:18 | 52.63504 | 10.99834 | 113° | 66km/h | 7543m | -8.8m/s | -29.7°C | 15.6% | 389.7hPa | 2.5V | 03:01:13 | 02:57:29 | 00:00:00 | |
| DM0DOS-11 | 2026-09-02 12:48:18 | 52.63524 | 10.99757 | 113° | 68km/h | 7569m | -9.9m/s | -29.9°C | 15.8% | 388.4hPa | 2.6V | 03:01:16 | 02:57:26 | 00:00:00 | |
| BIOWL1-15 | 2026-09-02 12:48:18 | 52.63575 | 10.99550 | 112° | 68km/h | 7642m | -9m/s | -30.6°C | 19.1% | 384.4hPa | 2.5V | 03:02:45 | 02:57:18 | 00:00:00 | |
| SMARD9-10 | 2026-09-02 12:48:17 | 52.63484 | 10.99909 | 114° | 66km/h | 7516m | -8.5m/s | -29.5°C | 13.6% | 391.2hPa | 2.6V | 03:01:00 | 00:00:00 | 00:00:00 | |
| DL1XH-15 | 2026-09-02 12:48:16 | 52.63511 | 10.99809 | 113° | 68km/h | 7551m | -9.2m/s | -29.8°C | 15.7% | 389.3hPa | 2.6V | 03:01:14 | 02:57:28 | 00:00:00 | |
| DL1XH-west | 2026-09-02 12:48:12 | 52.63524 | 10.99757 | 113° | 68km/h | 7569m | -9.9m/s | -30°C | 18.4% | 388.4hPa | 2.6V | 03:01:54 | 02:57:26 | 00:00:00 | |
| BUE01 | 2026-09-02 12:48:12 | 52.63524 | 10.99757 | 113° | 68km/h | 7569m | -9.9m/s | -30.0°C | 14.0% | 388.4hPa | 2.5V | 00:00:00 | 00:00:00 | 00:00:00 | |
| DL4BBY-15 | 2026-09-02 12:48:11 | 52.63530 | 10.99732 | 112° | 68km/h | 7579m | -9.1m/s | -29.8°C | 0% | 0hPa | 2.5V | 00:00:00 | 00:00:00 | 00:00:00 | |
| DO2SHX-10 | 2026-09-02 12:48:10 | 52.63537 | 10.99706 | 113° | 68km/h | 7588m | -9.6m/s | -30.1°C | 16.1% | 387.2hPa | 2.5V | 00:00:00 | 02:57:24 | 00:00:00 | |
| DL1XH1-15 | 2026-09-02 12:48:08 | 52.63569 | 10.99576 | 111° | 68km/h | 7633m | -8.3m/s | -30.5°C | 16.5% | 384.9hPa | 2.5V | 03:01:23 | 02:57:19 | 00:00:00 | |
| AA1-15 | 2026-09-02 12:48:08 | 52.63569 | 10.99576 | 112° | 68km/h | 7633m | -8.3m/s | -30.5°C | 19% | 384.9hPa | 2.5V | 03:01:54 | 02:57:19 | 00:00:00 | |
| SMARD9-15 | 2026-09-02 12:48:08 | 52.63556 | 10.99628 | 112° | 68km/h | 7615m | -9.2m/s | -30.4°C | 14.4% | 385.8hPa | 2.6V | 00:00:00 | 00:00:00 | 00:00:00 | |
| DM0DOS-11 | 2026-09-02 12:48:07 | 52.63588 | 10.99498 | 111° | 68km/h | 7659m | -9.3m/s | -30.8°C | 16.7% | 383.5hPa | 2.6V | 03:01:26 | 02:57:16 | 00:00:00 | |
| EDDB2-11 | 2026-09-02 12:48:07 | 52.63563 | 10.99602 | 111° | 66km/h | 7624m | -9.2m/s | -30.4°C | 14.5% | 385.4hPa | 2.5V | 00:00:00 | 00:00:00 | 00:00:00 | |
| DL1XH-15 | 2026-09-02 12:48:06 | 52.63575 | 10.99550 | 112° | 68km/h | 7642m | -9m/s | -30.6°C | 16.5% | 384.4hPa | 2.5V | 03:01:24 | 02:57:18 | 00:00:00 | |
| BIOWL1-15 | 2026-09-02 12:48:03 | 52.63582 | 10.99524 | 112° | 68km/h | 7650m | -8.8m/s | -30.7°C | 19.1% | 383.9hPa | 2.6V | 03:02:45 | 02:57:17 | 00:00:00 | |
| DL1XH-west | 2026-09-02 12:48:02 | 52.63588 | 10.99498 | 112° | 68km/h | 7659m | -9.3m/s | -30.8°C | 19.2% | 383.5hPa | 2.6V | 03:01:54 | 02:57:16 | 00:00:00 | |
| DO2SHX-10 | 2026-09-02 12:48:01 | 52.63595 | 10.99472 | 113° | 68km/h | 7668m | -9.2m/s | -30.8°C | 16.6% | 382.9hPa | 2.6V | 03:01:00 | 02:57:15 | 00:00:00 | |
| DF7ER-10 | 2026-09-02 12:48:00 | 52.63595 | 10.99472 | 113° | 69km/h | 7668m | -9.2m/s | -30.8°C | 14.7% | 383.0hPa | 2.6V | 03:01:00 | 00:00:00 | 00:00:00 | |
| DO2SHX-10 | 2026-09-02 12:47:58 | 52.63614 | 10.99394 | 112° | 68km/h | 7696m | -8.9m/s | -31.0°C | 16.7% | 381.4hPa | 2.6V | 00:00:00 | 02:57:12 | 00:00:00 | |
| DM0DOS-11 | 2026-09-02 12:47:57 | 52.63662 | 10.99209 | 113° | 71km/h | 7759m | -9.3m/s | -31.6°C | 17% | 378hPa | 2.6V | 03:01:37 | 02:57:05 | 00:00:00 | |
| AA1-15 | 2026-09-02 12:47:56 | 52.63647 | 10.99263 | 114° | 71km/h | 7741m | -9.1m/s | -31.5°C | 19.4% | 379hPa | 2.5V | 03:01:54 | 02:57:07 | 00:00:00 | |
| DB0DAN | 2026-09-02 12:47:55 | 52.63633 | 10.99316 | 113° | 66km/h | 7724m | -9m/s | -31.3°C | 14.7% | 379.96hPa | 2.6V | 00:00:00 | 00:00:00 | 00:00:00 | |
| BIOWL1-15 | 2026-09-02 12:47:52 | 52.63655 | 10.99236 | 114° | 71km/h | 7750m | -10.1m/s | -31.5°C | 19.5% | 378.4hPa | 2.5V | 03:02:45 | 02:57:06 | 00:00:00 | |
| DL1XH-west | 2026-09-02 12:47:52 | 52.63662 | 10.99209 | 114° | 71km/h | 7759m | -9.3m/s | -31.6°C | 19.6% | 378hPa | 2.6V | 03:01:54 | 02:57:05 | 00:00:00 | |
| AM1SDL-15 | 2026-09-02 12:47:51 | 52.63662 | 10.99209 | 114° | 69km/h | 7759m | -9.3m/s | -31.6°C | 17.0% | 378.0hPa | 2.5V | 00:00:00 | 02:57:05 | 00:00:00 | |
| DF7ER-10 | 2026-09-02 12:47:50 | 52.63662 | 10.99209 | 115° | 71km/h | 7759m | -9.3m/s | -31.6°C | 15.0% | 378.0hPa | 2.5V | 03:01:00 | 00:00:00 | 00:00:00 | |
| DO2SHX-10 | 2026-09-02 12:47:49 | 52.63676 | 10.99156 | 114° | 69km/h | 7779m | -10.5m/s | -31.7°C | 16.9% | 376.9hPa | 2.5V | 03:01:00 | 02:57:03 | 00:00:00 | |
| DD8BA-10 | 2026-09-02 12:47:48 | 52.63683 | 10.99130 | 115° | 69km/h | 7789m | -9.8m/s | -31.9°C | 17.1% | 376.4hPa | 2.5V | 00:00:00 | 00:00:00 | 00:00:00 | |
| DM0DOS-11 | 2026-09-02 12:47:46 | 52.63736 | 10.98947 | 117° | 73km/h | 7855m | -10.8m/s | -32.4°C | 15% | 373.1hPa | 2.5V | 03:01:47 | 02:56:55 | 00:00:00 | |
| AA1-15 | 2026-09-02 12:47:46 | 52.63720 | 10.99000 | 116° | 69km/h | 7836m | -9m/s | -32.3°C | 18.3% | 373.9hPa | 2.6V | 03:01:54 | 02:56:57 | 00:00:00 | |
| DL1XH-15 | 2026-09-02 12:47:45 | 52.63712 | 10.99026 | 116° | 69km/h | 7827m | -9.1m/s | -32.2°C | 16.4% | 374.4hPa | 2.6V | 03:01:44 | 02:56:58 | 00:00:00 | |
| BIOWL1-15 | 2026-09-02 12:47:42 | 52.63771 | 10.98842 | 118° | 73km/h | 7895m | -10m/s | -32.7°C | 16.1% | 370.9hPa | 2.5V | 03:02:45 | 02:56:51 | 00:00:00 | |
| DL1XH-west | 2026-09-02 12:47:41 | 52.63754 | 10.98895 | 118° | 71km/h | 7875m | -9.4m/s | -32.6°C | 16.5% | 371.9hPa | 2.6V | 03:01:54 | 02:56:53 | 00:00:00 | |
| DF8AY | 2026-09-02 12:47:40 | 52.63762 | 10.98869 | 120° | 73km/h | 7885m | -10m/s | -32.6°C | 16.3% | 371.4hPa | 2.6V | 03:01:54 | 02:56:52 | 00:00:00 | |
| AM1SDL-15 | 2026-09-02 12:47:40 | 52.63753 | 10.98895 | 118° | 73km/h | 7875m | -9.3m/s | -32.5°C | 14.4% | 371.8hPa | 2.6V | 03:01:00 | 02:56:53 | 00:00:00 | |
| DL1XH1-15 | 2026-09-02 12:47:40 | 52.63788 | 10.98789 | 118° | 73km/h | 7914m | -9.9m/s | -32.9°C | 13.6% | 369.8hPa | 2.5V | 03:01:53 | 02:56:49 | 00:00:00 | |
| DL1XH-15 | 2026-09-02 12:47:39 | 52.63797 | 10.98763 | 118° | 73km/h | 7924m | -9.6m/s | -32.9°C | 13.4% | 369.4hPa | 2.6V | 03:01:54 | 02:56:48 | 00:00:00 | |
| DD8BA-10 | 2026-09-02 12:47:38 | 52.63762 | 10.98869 | 120° | 75km/h | 7885m | -9.9m/s | -32.6°C | 14.2% | 371.3hPa | 2.5V | 00:00:00 | 00:00:00 | 00:00:00 | |
| DO2SHX-10 | 2026-09-02 12:47:37 | 52.63771 | 10.98842 | 118° | 73km/h | 7895m | -9.9m/s | -32.7°C | 14.0% | 370.9hPa | 2.5V | 03:01:00 | 02:56:51 | 00:00:00 | |
| DM0DOS-11 | 2026-09-02 12:47:36 | 52.63824 | 10.98681 | 118° | 75km/h | 7953m | -9.9m/s | -33.1°C | 12.2% | 367.9hPa | 2.5V | 03:01:57 | 02:56:45 | 00:00:00 | |
| AA1-15 | 2026-09-02 12:47:35 | 52.63806 | 10.98736 | 118° | 73km/h | 7934m | -9.5m/s | -33°C | 14.9% | 368.8hPa | 2.6V | 03:02:45 | 02:56:47 | 00:00:00 | |
| BIOWL1-15 | 2026-09-02 12:47:32 | 52.63824 | 10.98681 | 119° | 75km/h | 7953m | -9.9m/s | -33.1°C | 13.9% | 367.9hPa | 2.5V | 03:02:45 | 02:56:45 | 00:00:00 | |
| DL1XH-west | 2026-09-02 12:47:30 | 52.63843 | 10.98625 | 119° | 78km/h | 7973m | -9.6m/s | -33.2°C | 12.4% | 366.8hPa | 2.6V | 03:02:45 | 02:56:43 | 00:00:00 | |
| DF7ER-10 | 2026-09-02 12:47:29 | 52.63833 | 10.98653 | 119° | 77km/h | 7963m | -10.3m/s | -33.2°C | 10.0% | 367.3hPa | 2.5V | 03:02:00 | 00:00:00 | 00:00:00 | |
| DL1XH1-15 | 2026-09-02 12:47:28 | 52.63882 | 10.98513 | 121° | 78km/h | 8010m | -9.3m/s | -33.5°C | 9.5% | 364.9hPa | 2.5V | 03:02:03 | 02:56:39 | 00:00:00 | |
| DF8AY | 2026-09-02 12:47:27 | 52.63862 | 10.98569 | 120° | 77km/h | 7991m | -9.4m/s | -33.3°C | 11.2% | 365.8hPa | 2.6V | 03:02:45 | 02:56:41 | 00:00:00 | |
| DB0NH | 2026-09-02 12:47:27 | 52.63862 | 10.98569 | 121° | 82km/h | 7991m | -9.4m/s | -33.3°C | 10.2% | 365.7hPa | 2.5V | 00:00:00 | 02:56:41 | 00:00:00 | |
| DL1XH-15 | 2026-09-02 12:47:26 | 52.63893 | 10.98485 | 121° | 78km/h | 8019m | -8.8m/s | -33.5°C | 9.2% | 364.3hPa | 2.5V | 03:02:04 | 02:56:38 | 00:00:00 | |
| TFSTFS | 2026-09-02 12:47:25 | 52.63882 | 10.98513 | 122° | 78km/h | 8010m | -9.3m/s | -33.5°C | 8.0% | 364.9hPa | 2.6V | 00:00:00 | 00:00:00 | 00:00:00 | |
| DM0DOS-11 | 2026-09-02 12:47:24 | 52.63924 | 10.98402 | 120° | 78km/h | 8047m | -9.9m/s | -33.7°C | 8.8% | 362.9hPa | 2.6V | 03:02:07 | 02:56:35 | 00:00:00 | |
| AA1-15 | 2026-09-02 12:47:24 | 52.63914 | 10.98430 | 120° | 77km/h | 8038m | -9.4m/s | -33.6°C | 9.5% | 363.4hPa | 2.6V | 03:02:45 | 02:56:36 | 00:00:00 | |
| DL1XH-west | 2026-09-02 12:47:20 | 52.63934 | 10.98373 | 121° | 80km/h | 8056m | -9.7m/s | -33.8°C | 9.3% | 362.5hPa | 2.5V | 03:02:45 | 02:56:34 | 00:00:00 | |
| DF8AY | 2026-09-02 12:47:17 | 52.63966 | 10.98287 | 123° | 80km/h | 8085m | -9.5m/s | -33.9°C | 9.1% | 361hPa | 2.6V | 03:02:45 | 02:56:31 | 00:00:00 | |
| DD8BA-10 | 2026-09-02 12:47:17 | 52.63966 | 10.98286 | 124° | 82km/h | 8085m | -9.4m/s | -33.9°C | 8.5% | 360.9hPa | 2.6V | 03:02:00 | 00:00:00 | 00:00:00 | |
| DL1XH1-15 | 2026-09-02 12:47:16 | 52.63988 | 10.98229 | 123° | 84km/h | 8104m | -10.7m/s | -34.1°C | 8.6% | 360hPa | 2.5V | 03:02:13 | 02:56:29 | 00:00:00 | |
| AA1-15 | 2026-09-02 12:47:13 | 52.64035 | 10.98114 | 123° | 82km/h | 8145m | -9.7m/s | -34.4°C | 9.8% | 357.9hPa | 2.6V | 03:02:45 | 02:56:25 | 00:00:00 | |
| BIOWL1-15 | 2026-09-02 12:47:10 | 52.64046 | 10.98085 | 123° | 84km/h | 8155m | -9.7m/s | -34.4°C | 9.9% | 357.5hPa | 2.6V | 03:02:45 | 02:56:24 | 00:00:00 | |
| DL1XH1-15 | 2026-09-02 12:47:10 | 52.64119 | 10.97909 | 125° | 88km/h | 8214m | -9.5m/s | -35°C | 9.9% | 354.4hPa | 2.5V | 03:02:24 | 02:56:18 | 00:00:00 | |
| DB0DAN | 2026-09-02 12:47:10 | 52.64046 | 10.98085 | 123° | 80km/h | 8155m | -9.7m/s | -34.4°C | 7.6% | 357.47hPa | 2.6V | 00:00:00 | 00:00:00 | 00:00:00 | |
| DL1XH-west | 2026-09-02 12:47:10 | 52.64082 | 10.97998 | 124° | 86km/h | 8184m | -10.9m/s | -34.7°C | 10.3% | 355.9hPa | 2.6V | 03:02:45 | 02:56:21 | 00:00:00 | |
| DF8AY | 2026-09-02 12:47:06 | 52.64119 | 10.97909 | 126° | 88km/h | 8214m | -9.5m/s | -35°C | 10.9% | 354.4hPa | 2.5V | 03:02:45 | 02:56:18 | 00:00:00 | |
| DL1XH-15 | 2026-09-02 12:47:06 | 52.64119 | 10.97909 | 125° | 88km/h | 8214m | -9.5m/s | -35°C | 9.9% | 354.4hPa | 2.5V | 03:02:24 | 02:56:18 | 00:00:00 | |
| AA1-15 | 2026-09-02 12:47:02 | 52.64145 | 10.97849 | 124° | 89km/h | 8234m | -10m/s | -35.1°C | 11.3% | 353.5hPa | 2.6V | 03:02:45 | 02:56:16 | 00:00:00 | |
| DL1XH-west | 2026-09-02 12:46:59 | 52.64195 | 10.97729 | 125° | 88km/h | 8274m | -9.9m/s | -35.5°C | 11.8% | 351.4hPa | 2.5V | 03:02:45 | 02:56:12 | 00:00:00 | |
| DO2SHX-10 | 2026-09-02 12:46:58 | 52.64195 | 10.97729 | 125° | 86km/h | 8274m | -9.8m/s | -35.4°C | 10.6% | 351.4hPa | 2.5V | 00:00:00 | 02:56:12 | 00:00:00 | |
| DD8BA-10 | 2026-09-02 12:46:57 | 52.64208 | 10.97699 | 124° | 88km/h | 8284m | -9.7m/s | -35.5°C | 10.6% | 350.8hPa | 2.6V | 00:00:00 | 00:00:00 | 00:00:00 | |
| DM0DOS-11 | 2026-09-02 12:46:56 | 52.64282 | 10.97520 | 124° | 88km/h | 8340m | -9.1m/s | -36°C | 10.9% | 347.9hPa | 2.6V | 03:02:37 | 02:56:05 | 00:00:00 | |
| DF8AY | 2026-09-02 12:46:56 | 52.64232 | 10.97639 | 124° | 86km/h | 8302m | -9.1m/s | -35.7°C | 11.8% | 349.9hPa | 2.6V | 03:02:45 | 02:56:09 | 00:00:00 | |
| DL1XH-15 | 2026-09-02 12:46:55 | 52.64244 | 10.97609 | 124° | 86km/h | 8312m | -9.6m/s | -35.8°C | 10.6% | 349.5hPa | 2.5V | 03:02:34 | 02:56:08 | 00:00:00 | |
| DB0DAN | 2026-09-02 12:46:55 | 52.64232 | 10.97639 | 124° | 82km/h | 8302m | -9.1m/s | -35.7°C | 8.8% | 349.94hPa | 2.6V | 00:00:00 | 00:00:00 | 00:00:00 | |
| BIOWL1-15 | 2026-09-02 12:46:50 | 52.64294 | 10.97490 | 125° | 88km/h | 8349m | -9.9m/s | -36.1°C | 12.1% | 347.4hPa | 2.6V | 03:02:45 | 02:56:04 | 00:00:00 | |
| DO2SHX-10 | 2026-09-02 12:46:49 | 52.64307 | 10.97460 | 124° | 88km/h | 8359m | -9.0m/s | -36.1°C | 11.1% | 346.8hPa | 2.5V | 03:02:00 | 02:56:03 | 00:00:00 | |
| DL1XH1-15 | 2026-09-02 12:46:48 | 52.64369 | 10.97311 | 124° | 86km/h | 8407m | -10.2m/s | -36.5°C | 11.4% | 344.5hPa | 2.6V | 03:02:44 | 02:55:58 | 00:00:00 | |
| DL1XH-west | 2026-09-02 12:46:47 | 52.64331 | 10.97400 | 124° | 88km/h | 8377m | -9.6m/s | -36.3°C | 12.4% | 346hPa | 2.5V | 03:02:45 | 02:56:01 | 00:00:00 | |
| DF8AY | 2026-09-02 12:46:45 | 52.64356 | 10.97341 | 125° | 88km/h | 8397m | -10.1m/s | -36.4°C | 12.5% | 345hPa | 2.6V | 03:02:45 | 02:55:59 | 00:00:00 | |
| DM0DOS-11 | 2026-09-02 12:46:44 | 52.64407 | 10.97221 | 125° | 89km/h | 8436m | -9.5m/s | -36.8°C | 12.1% | 343.1hPa | 2.6V | 03:02:47 | 02:55:55 | 00:00:00 | |
| GOEST3-10 | 2026-09-02 12:46:44 | 52.64369 | 10.97311 | 125° | 88km/h | 8407m | -10.2m/s | -36.5°C | 11.4% | 344.5hPa | 2.6V | 00:00:00 | 00:00:00 | 00:00:00 | |
| DO2SHX-10 | 2026-09-02 12:46:43 | 52.64382 | 10.97281 | 126° | 89km/h | 8417m | -9.6m/s | -36.6°C | 11.6% | 344.0hPa | 2.6V | 00:00:00 | 02:55:57 | 00:00:00 | |
| DB0DAN | 2026-09-02 12:46:40 | 52.64420 | 10.97191 | 124° | 84km/h | 8445m | -9.6m/s | -36.9°C | 10.3% | 342.6hPa | 2.6V | 00:00:00 | 00:00:00 | 00:00:00 | |
| BIOWL1-15 | 2026-09-02 12:46:40 | 52.64420 | 10.97191 | 124° | 88km/h | 8445m | -9.6m/s | -36.9°C | 13.7% | 342.6hPa | 2.6V | 03:03:36 | 02:55:54 | 00:00:00 | |
| DL1XH-west | 2026-09-02 12:46:36 | 52.64470 | 10.97069 | 124° | 89km/h | 8482m | -9.6m/s | -37.2°C | 14.8% | 340.7hPa | 2.6V | 03:03:36 | 02:55:50 | 00:00:00 | |
| DF8AY | 2026-09-02 12:46:35 | 52.64496 | 10.97007 | 124° | 89km/h | 8501m | -10.4m/s | -37.3°C | 15.5% | 339.8hPa | 2.5V | 03:05:18 | 02:55:48 | 00:00:00 | |
| AA1-15 | 2026-09-02 12:46:30 | 52.64546 | 10.96884 | 124° | 88km/h | 8541m | -10.5m/s | -37.6°C | 16.5% | 337.9hPa | 2.6V | 03:03:36 | 02:55:44 | 00:00:00 | |
| BIOWL1-15 | 2026-09-02 12:46:29 | 52.64558 | 10.96854 | 123° | 88km/h | 8551m | -10.3m/s | -37.7°C | 16.6% | 337.3hPa | 2.6V | 03:03:36 | 02:55:43 | 00:00:00 | |
| DF8AY | 2026-09-02 12:46:24 | 52.64621 | 10.96702 | 124° | 89km/h | 8602m | -10.6m/s | -38.1°C | 17.7% | 334.9hPa | 2.5V | 03:05:18 | 02:55:38 | 00:00:00 | |
| GOEST3-10 | 2026-09-02 12:46:24 | 52.64621 | 10.96702 | 125° | 91km/h | 8603m | -10.5m/s | -38.1°C | 15.6% | 334.8hPa | 2.6V | 00:00:00 | 00:00:00 | 00:00:00 | |
| DM0DOS-11 | 2026-09-02 12:46:22 | 52.64661 | 10.96609 | 125° | 93km/h | 8633m | -10.3m/s | -38.3°C | 16.1% | 333.5hPa | 2.6V | 03:03:07 | 02:55:35 | 00:00:00 | |
| AA1-15 | 2026-09-02 12:46:20 | 52.64688 | 10.96547 | 126° | 91km/h | 8655m | -11m/s | -38.5°C | 19% | 332.4hPa | 2.5V | 03:03:36 | 02:55:33 | 00:00:00 | |
| BIOWL1-15 | 2026-09-02 12:46:18 | 52.64702 | 10.96516 | 126° | 91km/h | 8665m | -10m/s | -38.6°C | 19.4% | 331.9hPa | 2.5V | 03:03:36 | 02:55:32 | 00:00:00 | |
| DL1XH-west | 2026-09-02 12:46:15 | 52.64743 | 10.96423 | 126° | 93km/h | 8694m | -9.7m/s | -38.8°C | 20.5% | 330.5hPa | 2.6V | 03:03:36 | 02:55:29 | 00:00:00 | |
| DF8AY | 2026-09-02 12:46:14 | 52.64814 | 10.96268 | 127° | 91km/h | 8747m | -10.3m/s | -39.3°C | 22.3% | 328.1hPa | 2.6V | 03:05:18 | 02:55:24 | 00:00:00 | |
| GOEST3-10 | 2026-09-02 12:46:14 | 52.64757 | 10.96392 | 127° | 93km/h | 8704m | -10.7m/s | -38.8°C | 18.3% | 330.1hPa | 2.6V | 03:03:00 | 00:00:00 | 00:00:00 | |
| DO2SHX-10 | 2026-09-02 12:46:13 | 52.64771 | 10.96362 | 127° | 95km/h | 8715m | -11.1m/s | -38.9°C | 18.5% | 329.5hPa | 2.5V | 03:03:00 | 02:55:27 | 00:00:00 | |
| SMARD9-10 | 2026-09-02 12:46:12 | 52.64771 | 10.96362 | 128° | 95km/h | 8715m | -11.1m/s | -39.0°C | 15.8% | 329.6hPa | 2.6V | 00:00:00 | 00:00:00 | 00:00:00 | |
| DB0DAN | 2026-09-02 12:46:10 | 52.64814 | 10.96268 | 127° | 88km/h | 8747m | -10.3m/s | -39.3°C | 16.8% | 328.11hPa | 2.6V | 00:00:00 | 00:00:00 | 00:00:00 | |
| AA1-15 | 2026-09-02 12:46:08 | 52.64842 | 10.96206 | 127° | 93km/h | 8768m | -10.9m/s | -39.5°C | 23% | 327.1hPa | 2.5V | 03:03:36 | 02:55:22 | 00:00:00 | |
| BIOWL1-15 | 2026-09-02 12:46:08 | 52.64974 | 10.95928 | 129° | 97km/h | 8864m | -10.8m/s | -40.4°C | 25.4% | 322.5hPa | 2.6V | 03:03:36 | 02:55:13 | 00:00:00 | |
| BUE01 | 2026-09-02 12:46:08 | 52.64842 | 10.96206 | 127° | 93km/h | 8768m | -10.9m/s | -39.5°C | 17.3% | 327.1hPa | 2.5V | 00:00:00 | 00:00:00 | 00:00:00 | |
| MECKS9 | 2026-09-02 12:46:07 | 52.64857 | 10.96175 | 128° | 95km/h | 8778m | -11.1m/s | -39.6°C | 17.6% | 326.6hPa | 2.5V | 00:00:00 | 00:00:00 | 00:00:00 | |
| DL1XH-15 | 2026-09-02 12:46:06 | 52.64900 | 10.96082 | 128° | 93km/h | 8810m | -10.9m/s | -39.9°C | 21.3% | 325hPa | 2.5V | 03:03:24 | 02:55:18 | 00:00:00 | |
| DL1XH-west | 2026-09-02 12:46:05 | 52.64930 | 10.96021 | 129° | 95km/h | 8832m | -10.5m/s | -40.1°C | 24.5% | 324hPa | 2.5V | 03:03:36 | 02:55:16 | 00:00:00 | |
| DM0DOS-11 | 2026-09-02 12:46:04 | 52.64944 | 10.95990 | 128° | 93km/h | 8842m | -11.4m/s | -40.2°C | 22.1% | 323.5hPa | 2.6V | 03:03:27 | 02:55:15 | 00:00:00 | |
| DF8AY | 2026-09-02 12:46:04 | 52.65033 | 10.95803 | 127° | 95km/h | 8907m | -10m/s | -40.8°C | 26.6% | 320.5hPa | 2.6V | 03:05:18 | 02:55:09 | 00:00:00 | |
| AA1-15 | 2026-09-02 12:45:58 | 52.64989 | 10.95897 | 128° | 93km/h | 8875m | -11.1m/s | -40.5°C | 25.7% | 322hPa | 2.5V | 03:03:36 | 02:55:12 | 00:00:00 | |
| DF8AY | 2026-09-02 12:45:58 | 52.65195 | 10.95459 | 127° | 99km/h | 9025m | -12.3m/s | -42°C | 29% | 314.8hPa | 2.6V | 03:05:18 | 02:54:58 | 00:00:00 | |
| DO2SHX-10 | 2026-09-02 12:45:58 | 52.64989 | 10.95897 | 129° | 95km/h | 8875m | -11.0m/s | -40.5°C | 23.0% | 321.9hPa | 2.5V | 00:00:00 | 02:55:12 | 00:00:00 | |
| DL1XH1-15 | 2026-09-02 12:45:57 | 52.65047 | 10.95772 | 126° | 95km/h | 8917m | -10.7m/s | -40.9°C | 24.1% | 319.9hPa | 2.5V | 03:03:34 | 02:55:08 | 00:00:00 | |
| BIOWL1-15 | 2026-09-02 12:45:57 | 52.65018 | 10.95834 | 129° | 95km/h | 8897m | -10.5m/s | -40.7°C | 26.3% | 321hPa | 2.6V | 03:03:36 | 02:55:10 | 00:00:00 | |
| DM0DOS-11 | 2026-09-02 12:45:57 | 52.65092 | 10.95678 | 127° | 95km/h | 8947m | -10.3m/s | -41.2°C | 24.8% | 318.5hPa | 2.6V | 03:03:37 | 02:55:05 | 00:00:00 | |
| DB0DAN | 2026-09-02 12:45:55 | 52.65033 | 10.95803 | 127° | 91km/h | 8907m | -10m/s | -40.8°C | 20.4% | 320.48hPa | 2.6V | 00:00:00 | 00:00:00 | 00:00:00 | |
| DL1XH-west | 2026-09-02 12:45:52 | 52.65092 | 10.95678 | 128° | 95km/h | 8947m | -10.4m/s | -41.2°C | 27.7% | 318.5hPa | 2.6V | 03:04:27 | 02:55:05 | 00:00:00 | |
| AA1-15 | 2026-09-02 12:45:48 | 52.65150 | 10.95553 | 127° | 93km/h | 8990m | -11.9m/s | -41.6°C | 28.5% | 316.4hPa | 2.5V | 03:04:27 | 02:55:01 | 00:00:00 | |
| BIOWL1-15 | 2026-09-02 12:45:46 | 52.65165 | 10.95522 | 128° | 97km/h | 9001m | -12.3m/s | -41.7°C | 28.7% | 316hPa | 2.6V | 03:04:27 | 02:55:00 | 00:00:00 | |
| DO2SHX-10 | 2026-09-02 12:45:46 | 52.65165 | 10.95522 | 129° | 99km/h | 9002m | -12.3m/s | -41.7°C | 25.5% | 315.9hPa | 2.6V | 00:00:00 | 02:55:00 | 00:00:00 | |
| DL1XH1-15 | 2026-09-02 12:45:45 | 52.65195 | 10.95459 | 127° | 99km/h | 9025m | -12.3m/s | -42°C | 25.8% | 314.8hPa | 2.6V | 03:03:44 | 02:54:58 | 00:00:00 | |
| SONCRA | 2026-09-02 12:45:45 | 52.65195 | 10.95459 | 127° | 99km/h | 9025m | -12.3m/s | -42.0°C | 22.1% | 314.8hPa | 2.6V | 00:00:00 | 00:00:00 | 00:00:00 | |
| DM0DOS-11 | 2026-09-02 12:45:44 | 52.65240 | 10.95362 | 127° | 97km/h | 9060m | -12.3m/s | -42.3°C | 25.8% | 313.3hPa | 2.6V | 03:03:47 | 02:54:55 | 00:00:00 | |
| DL1XH-west | 2026-09-02 12:45:42 | 52.65240 | 10.95362 | 128° | 97km/h | 9061m | -12.3m/s | -42.3°C | 29.1% | 313.3hPa | 2.6V | 03:04:27 | 02:54:55 | 00:00:00 | |
| DB0DAN | 2026-09-02 12:45:40 | 52.65254 | 10.95331 | 128° | 91km/h | 9073m | -12.3m/s | -42.4°C | 22.1% | 312.75hPa | 2.6V | 00:00:00 | 00:00:00 | 00:00:00 | |
| AA1-15 | 2026-09-02 12:45:38 | 52.65298 | 10.95236 | 126° | 95km/h | 9107m | -10.6m/s | -42.7°C | 29.5% | 311.1hPa | 2.6V | 03:04:27 | 02:54:51 | 00:00:00 | |
| BIOWL1-15 | 2026-09-02 12:45:36 | 52.65342 | 10.95140 | 127° | 95km/h | 9139m | -11m/s | -43°C | 29.7% | 309.7hPa | 2.5V | 03:04:27 | 02:54:48 | 00:00:00 | |
| DO2SHX-10 | 2026-09-02 12:45:36 | 52.65313 | 10.95204 | 127° | 95km/h | 9117m | -10.9m/s | -42.7°C | 26.4% | 310.6hPa | 2.6V | 03:03:00 | 02:54:50 | 00:00:00 | |
| DL1XH-15 | 2026-09-02 12:45:35 | 52.65342 | 10.95140 | 127° | 95km/h | 9139m | -11m/s | -43°C | 26.5% | 309.6hPa | 2.5V | 03:03:54 | 02:54:48 | 00:00:00 | |
| DM0DOS-11 | 2026-09-02 12:45:34 | 52.65385 | 10.95046 | 128° | 95km/h | 9170m | -10m/s | -43.2°C | 26.8% | 308.2hPa | 2.6V | 03:03:57 | 02:54:45 | 00:00:00 | |
| DL1XH-west | 2026-09-02 12:45:31 | 52.65400 | 10.95014 | 127° | 95km/h | 9180m | -11.1m/s | -43.3°C | 29.9% | 307.8hPa | 2.6V | 03:04:27 | 02:54:44 | 00:00:00 | |
| DL1XH-15 | 2026-09-02 12:45:29 | 52.65486 | 10.94825 | 126° | 95km/h | 9243m | -11.3m/s | -43.9°C | 25.9% | 304.9hPa | 2.5V | 03:04:04 | 02:54:38 | 00:00:00 | |
| DF8AY | 2026-09-02 12:45:29 | 52.65556 | 10.94668 | 127° | 91km/h | 9297m | -10m/s | -44.4°C | 28.1% | 302.4hPa | 2.5V | 03:05:18 | 02:54:33 | 00:00:00 | |
| AA1-15 | 2026-09-02 12:45:28 | 52.65458 | 10.94887 | 127° | 93km/h | 9223m | -10.1m/s | -43.7°C | 29.4% | 305.8hPa | 2.6V | 03:04:27 | 02:54:40 | 00:00:00 | |
| DO2SHX-10 | 2026-09-02 12:45:27 | 52.65458 | 10.94887 | 128° | 95km/h | 9223m | -10.1m/s | -43.7°C | 26.3% | 305.8hPa | 2.6V | 00:00:00 | 02:54:40 | 00:00:00 | |
| BIOWL1-15 | 2026-09-02 12:45:25 | 52.65720 | 10.94304 | 127° | 89km/h | 9424m | -10.8m/s | -45.5°C | 29.6% | 296.8hPa | 2.6V | 03:04:27 | 02:54:21 | 00:00:00 | |
| DM0DOS-11 | 2026-09-02 12:45:24 | 52.65528 | 10.94730 | 125° | 93km/h | 9276m | -10.6m/s | -44.2°C | 25.3% | 303.4hPa | 2.6V | 03:04:07 | 02:54:35 | 00:00:00 | |
| DL1XH-west | 2026-09-02 12:45:21 | 52.65583 | 10.94607 | 127° | 91km/h | 9318m | -10.9m/s | -44.6°C | 28.1% | 301.5hPa | 2.5V | 03:04:27 | 02:54:31 | 00:00:00 | |
| AA1-15 | 2026-09-02 12:45:16 | 52.65597 | 10.94576 | 126° | 91km/h | 9328m | -10.4m/s | -44.7°C | 28.2% | 301hPa | 2.6V | 03:04:27 | 02:54:30 | 00:00:00 | |
| BIOWL1-15 | 2026-09-02 12:45:15 | 52.65733 | 10.94274 | 127° | 89km/h | 9435m | -10.9m/s | -45.6°C | 29.8% | 296.3hPa | 2.6V | 03:04:27 | 02:54:20 | 00:00:00 | |
| SONCRA | 2026-09-02 12:45:14 | 52.65638 | 10.94484 | 126° | 89km/h | 9360m | -11.2m/s | -44.9°C | 21.4% | 299.6hPa | 2.5V | 00:00:00 | 00:00:00 | 00:00:00 | |
| DF8AY-15 | 2026-09-02 12:45:13 | 52.65638 | 10.94484 | 127° | 88km/h | 9360m | -11.2m/s | -44.9°C | 25.5% | 299.5hPa | 2.5V | 00:00:00 | 02:54:27 | 00:00:00 | |
| DF7ER-10 | 2026-09-02 12:45:12 | 52.65638 | 10.94484 | 127° | 91km/h | 9360m | -11.2m/s | -44.9°C | 21.4% | 299.6hPa | 2.6V | 03:04:00 | 00:00:00 | 00:00:00 | |
| DM0DOS-11 | 2026-09-02 12:45:12 | 52.65665 | 10.94423 | 126° | 89km/h | 9381m | -10.5m/s | -45.1°C | 25.9% | 298.6hPa | 2.6V | 03:04:17 | 02:54:25 | 00:00:00 | |
| DB0DAN | 2026-09-02 12:45:10 | 52.65679 | 10.94393 | 127° | 86km/h | 9392m | -10.6m/s | -45.2°C | 21.8% | 298.23hPa | 2.6V | 00:00:00 | 00:00:00 | 00:00:00 | |
| DL1XH-west | 2026-09-02 12:45:09 | 52.65774 | 10.94185 | 127° | 88km/h | 9466m | -9.7m/s | -45.9°C | 30.3% | 294.8hPa | 2.5V | 03:04:27 | 02:54:17 | 00:00:00 | |
| GOEST3-10 | 2026-09-02 12:45:09 | 52.65692 | 10.94363 | 128° | 89km/h | 9403m | -11.2m/s | -45.3°C | 26.3% | 297.6hPa | 2.5V | 00:00:00 | 02:54:23 | 00:00:00 | |
| DO2SHX-10 | 2026-09-02 12:45:08 | 52.65706 | 10.94333 | 127° | 89km/h | 9414m | -10.5m/s | -45.4°C | 26.4% | 297.2hPa | 2.5V | 00:00:00 | 02:54:22 | 00:00:00 | |
| DM0DOS-11 | 2026-09-02 12:45:07 | 52.65800 | 10.94127 | 126° | 86km/h | 9485m | -10.2m/s | -46°C | 27.3% | 294.1hPa | 2.6V | 03:04:27 | 02:54:15 | 00:00:00 | |
| DD8BA-10 | 2026-09-02 12:45:07 | 52.65720 | 10.94304 | 127° | 88km/h | 9424m | -10.8m/s | -45.5°C | 26.7% | 296.7hPa | 2.5V | 00:00:00 | 00:00:00 | 00:00:00 | |
| DL1XH1-15 | 2026-09-02 12:45:06 | 52.65760 | 10.94215 | 126° | 88km/h | 9456m | -9.8m/s | -45.8°C | 27.4% | 295.3hPa | 2.5V | 03:04:24 | 02:54:18 | 00:00:00 | |
| AA1-15 | 2026-09-02 12:45:06 | 52.65787 | 10.94156 | 127° | 88km/h | 9476m | -10.1m/s | -46°C | 30.5% | 294.4hPa | 2.5V | 03:04:27 | 02:54:16 | 00:00:00 | |
| BIOWL1-15 | 2026-09-02 12:45:05 | 52.65800 | 10.94127 | 127° | 86km/h | 9485m | -10.3m/s | -46°C | 30.6% | 294.1hPa | 2.6V | 03:04:27 | 02:54:15 | 00:00:00 | |
| DF8AY | 2026-09-02 12:45:02 | 52.65840 | 10.94041 | 128° | 88km/h | 9518m | -11.5m/s | -46.3°C | 30.8% | 292.6hPa | 2.5V | 03:05:18 | 02:54:12 | 00:00:00 | |
| SMARD9-15 | 2026-09-02 12:45:01 | 52.65800 | 10.94127 | 126° | 86km/h | 9485m | -10.3m/s | -46.0°C | 22.8% | 294.1hPa | 2.6V | 00:00:00 | 00:00:00 | 00:00:00 | |
| SONDE2-11 | 2026-09-02 12:45:00 | 52.65826 | 10.94070 | 126° | 86km/h | 9507m | -11.5m/s | -46.2°C | 22.7% | 293.1hPa | 2.6V | 00:00:00 | 00:00:00 | 00:00:00 | |
| DB0UT-7 | 2026-09-02 12:44:59 | 52.65826 | 10.94070 | 127° | 86km/h | 9507m | -11.5m/s | -46.2°C | 27.2% | 293.1hPa | 2.6V | 03:04:00 | 02:54:13 | 00:00:00 | |
| DD8BA-10 | 2026-09-02 12:44:57 | 52.65853 | 10.94012 | 128° | 88km/h | 9529m | -10.4m/s | -46.4°C | 27.6% | 292.0hPa | 2.5V | 00:00:00 | 00:00:00 | 00:00:00 | |
| DO2SHX-10 | 2026-09-02 12:44:56 | 52.65866 | 10.93983 | 129° | 88km/h | 9540m | -10.6m/s | -46.4°C | 27.7% | 291.6hPa | 2.5V | 00:00:00 | 02:54:10 | 00:00:00 | |
| DL1XH-west | 2026-09-02 12:44:56 | 52.65921 | 10.93868 | 128° | 88km/h | 9582m | -9.7m/s | -46.8°C | 32.1% | 289.7hPa | 2.6V | 03:05:18 | 02:54:06 | 00:00:00 | |
| DL1XH1-15 | 2026-09-02 12:44:55 | 52.65894 | 10.93926 | 127° | 88km/h | 9561m | -10.9m/s | -46.6°C | 28.4% | 290.6hPa | 2.5V | 03:04:34 | 02:54:08 | 00:00:00 | |
| DB0DAN | 2026-09-02 12:44:55 | 52.65880 | 10.93955 | 128° | 84km/h | 9550m | -10.9m/s | -46.5°C | 23.4% | 291.08hPa | 2.6V | 00:00:00 | 00:00:00 | 00:00:00 | |
| AA1-15 | 2026-09-02 12:44:54 | 52.65948 | 10.93811 | 128° | 86km/h | 9601m | -9.3m/s | -47°C | 32.8% | 288.9hPa | 2.6V | 03:05:18 | 02:54:04 | 00:00:00 | |
| BIOWL1-15 | 2026-09-02 12:44:53 | 52.66003 | 10.93698 | 130° | 88km/h | 9642m | -11m/s | -47.4°C | 33.9% | 287.1hPa | 2.6V | 03:05:18 | 02:54:00 | 00:00:00 | |
| DO2SHX-10 | 2026-09-02 12:44:53 | 52.65907 | 10.93897 | 129° | 88km/h | 9571m | -10.4m/s | -46.7°C | 28.8% | 290.2hPa | 2.6V | 00:00:00 | 02:54:07 | 00:00:00 | |
| DF7ER-10 | 2026-09-02 12:44:52 | 52.65934 | 10.93840 | 129° | 88km/h | 9591m | -9.4m/s | -46.9°C | 24.9% | 289.3hPa | 2.6V | 03:05:00 | 00:00:00 | 00:00:00 | |
| DO2SHX-10 | 2026-09-02 12:44:50 | 52.65948 | 10.93811 | 129° | 88km/h | 9601m | -9.3m/s | -46.9°C | 29.8% | 288.9hPa | 2.6V | 00:00:00 | 02:54:04 | 00:00:00 | |
| DL1XH1-15 | 2026-09-02 12:44:49 | 52.66031 | 10.93641 | 128° | 88km/h | 9664m | -11.9m/s | -47.6°C | 31.3% | 286.2hPa | 2.6V | 03:04:44 | 02:53:58 | 00:00:00 | |
| DL1XH-west | 2026-09-02 12:44:44 | 52.66031 | 10.93641 | 128° | 88km/h | 9664m | -11.9m/s | -47.6°C | 34.5% | 286.2hPa | 2.6V | 03:05:18 | 02:53:58 | 00:00:00 | |
| AA1-15 | 2026-09-02 12:44:43 | 52.66058 | 10.93585 | 129° | 86km/h | 9687m | -10.8m/s | -47.8°C | 35.1% | 285.2hPa | 2.5V | 03:05:18 | 02:53:56 | 00:00:00 | |
| EDDB2-12 | 2026-09-02 12:44:43 | 52.66058 | 10.93585 | 128° | 84km/h | 9687m | -10.8m/s | -47.8°C | 26.8% | 285.2hPa | 2.6V | 00:00:00 | 00:00:00 | 00:00:00 | |
| DM0DOS-11 | 2026-09-02 12:44:42 | 52.66085 | 10.93529 | 128° | 88km/h | 9708m | -11.5m/s | -48°C | 32.6% | 284.2hPa | 2.6V | 03:04:48 | 02:53:54 | 00:00:00 | |
| DB0DAN | 2026-09-02 12:44:40 | 52.66085 | 10.93529 | 128° | 82km/h | 9708m | -11.5m/s | -48°C | 27.3% | 284.26hPa | 2.6V | 00:00:00 | 00:00:00 | 00:00:00 | |
| GOEST3-10 | 2026-09-02 12:44:39 | 52.66098 | 10.93501 | 127° | 86km/h | 9720m | -11.7m/s | -48.0°C | 32.9% | 283.7hPa | 2.5V | 00:00:00 | 02:53:53 | 00:00:00 | |
| DL1XH-15 | 2026-09-02 12:44:37 | 52.66162 | 10.93359 | 126° | 82km/h | 9776m | -11.7m/s | -48.5°C | 34.4% | 281.4hPa | 2.5V | 03:04:54 | 02:53:48 | 00:00:00 | |
| DD8BA-10 | 2026-09-02 12:44:37 | 52.66124 | 10.93443 | 127° | 84km/h | 9743m | -10.8m/s | -48.2°C | 33.7% | 282.7hPa | 2.6V | 03:04:00 | 00:00:00 | 00:00:00 | |
| DO2SHX-10 | 2026-09-02 12:44:36 | 52.66137 | 10.93415 | 127° | 82km/h | 9754m | -10.6m/s | -48.3°C | 34.0% | 282.3hPa | 2.6V | 00:00:00 | 02:53:50 | 00:00:00 | |
| DM0DOS-11 | 2026-09-02 12:44:35 | 52.66224 | 10.93220 | 125° | 82km/h | 9833m | -12.2m/s | -49°C | 36% | 279.1hPa | 2.6V | 03:04:59 | 02:53:43 | 00:00:00 | |
| DL1XH-west | 2026-09-02 12:44:35 | 52.66162 | 10.93359 | 127° | 82km/h | 9776m | -11.7m/s | -48.6°C | 37.5% | 281.4hPa | 2.5V | 03:05:18 | 02:53:48 | 00:00:00 | |
| AA1-15 | 2026-09-02 12:44:34 | 52.66175 | 10.93331 | 126° | 84km/h | 9787m | -11.7m/s | -48.7°C | 37.8% | 281hPa | 2.5V | 03:05:18 | 02:53:47 | 00:00:00 | |
| HTAHTA | 2026-09-02 12:44:33 | 52.66187 | 10.93303 | 125° | 82km/h | 9797m | -11.1m/s | -48.8°C | 29.3% | 280.4hPa | 2.6V | 00:00:00 | 00:00:00 | 00:00:00 | |
| DF7ER-10 | 2026-09-02 12:44:30 | 52.66224 | 10.93219 | 127° | 82km/h | 9833m | -12.2m/s | -49.0°C | 29.7% | 279.5hPa | 2.6V | 03:05:00 | 00:00:00 | 00:00:00 | |
| GOEST3-10 | 2026-09-02 12:44:29 | 52.66224 | 10.93219 | 126° | 82km/h | 9833m | -12.1m/s | -49.0°C | 36.0% | 279.0hPa | 2.6V | 00:00:00 | 02:53:43 | 00:00:00 | |
| DL1XH1-15 | 2026-09-02 12:44:28 | 52.66282 | 10.93079 | 123° | 82km/h | 9888m | -11.8m/s | -49.5°C | 37.5% | 276.7hPa | 2.5V | 03:05:04 | 02:53:38 | 00:00:00 | |
| BIOWL1-15 | 2026-09-02 12:44:25 | 52.66336 | 10.92935 | 121° | 82km/h | 9944m | -11.5m/s | -49.9°C | 41.7% | 274.4hPa | 2.5V | 03:05:18 | 02:53:33 | 00:00:00 | |
| DL1XH-west | 2026-09-02 12:44:24 | 52.66293 | 10.93051 | 122° | 80km/h | 9900m | -11m/s | -49.6°C | 40.6% | 276.2hPa | 2.5V | 03:05:18 | 02:53:37 | 00:00:00 | |
| DM0DOS-11 | 2026-09-02 12:44:24 | 52.66336 | 10.92935 | 120° | 82km/h | 9944m | -11.4m/s | -49.9°C | 39% | 274.4hPa | 2.5V | 03:05:09 | 02:53:33 | 00:00:00 | |
| AA1-15 | 2026-09-02 12:44:22 | 52.66304 | 10.93022 | 121° | 80km/h | 9911m | -10.9m/s | -49.7°C | 40.9% | 275.8hPa | 2.6V | 03:05:18 | 02:53:36 | 00:00:00 | |
| DO2SHX-10 | 2026-09-02 12:44:21 | 52.66314 | 10.92993 | 121° | 82km/h | 9922m | -10.9m/s | -49.7°C | 38.5% | 275.3hPa | 2.5V | 03:05:00 | 02:53:35 | 00:00:00 | |
| GOEST3-10 | 2026-09-02 12:44:19 | 52.66336 | 10.92935 | 121° | 82km/h | 9944m | -11.4m/s | -49.9°C | 39.0% | 274.3hPa | 2.5V | 00:00:00 | 02:53:33 | 00:00:00 | |
| DF7ER-10 | 2026-09-02 12:44:18 | 52.66336 | 10.92935 | 122° | 82km/h | 9944m | -11.5m/s | -49.9°C | 32.7% | 274.4hPa | 2.5V | 03:05:00 | 00:00:00 | 00:00:00 | |
| DO2SHX-10 | 2026-09-02 12:44:17 | 52.66357 | 10.92876 | 120° | 84km/h | 9967m | -11.9m/s | -50.1°C | 39.6% | 273.5hPa | 2.5V | 00:00:00 | 02:53:31 | 00:00:00 | |
| DL1XH1-15 | 2026-09-02 12:44:16 | 52.66388 | 10.92785 | 119° | 84km/h | 10000m | -10.6m/s | -50.4°C | 40.7% | 272hPa | 2.6V | 03:05:14 | 02:53:28 | 00:00:00 | |
| DJ2DS-15 | 2026-09-02 12:44:16 | 52.66367 | 10.92846 | 120° | 82km/h | 9979m | -11.3m/s | -50.2°C | 33.7% | 273.0hPa | 2.6V | 00:00:00 | 00:00:00 | 00:00:00 | |
| DD8BA-10 | 2026-09-02 12:44:14 | 52.66388 | 10.92785 | 120° | 86km/h | 10000m | -10.6m/s | -50.3°C | 40.7% | 272.0hPa | 2.6V | 00:00:00 | 00:00:00 | 00:00:00 | |
| DF8AY | 2026-09-02 12:44:14 | 52.66514 | 10.92361 | 112° | 89km/h | 10136m | -10.8m/s | -51.6°C | 46.1% | 266.4hPa | 2.6V | 03:06:09 | 02:53:15 | 00:00:00 | |
| DF8AY-15 | 2026-09-02 12:44:13 | 52.66399 | 10.92754 | 119° | 89km/h | 10011m | -10.8m/s | -50.4°C | 40.9% | 271.6hPa | 2.5V | 00:00:00 | 02:53:27 | 00:00:00 | |
| DM0DOS-11 | 2026-09-02 12:44:12 | 52.66439 | 10.92627 | 116° | 88km/h | 10053m | -10.5m/s | -50.8°C | 42.4% | 269.9hPa | 2.5V | 03:05:19 | 02:53:23 | 00:00:00 | |
| BIOWL1-15 | 2026-09-02 12:44:12 | 52.66409 | 10.92723 | 118° | 84km/h | 10022m | -10.6m/s | -50.6°C | 43.7% | 271.1hPa | 2.5V | 03:05:18 | 02:53:26 | 00:00:00 | |
| AA1-15 | 2026-09-02 12:44:11 | 52.66419 | 10.92691 | 117° | 86km/h | 10032m | -9.7m/s | -50.6°C | 43.9% | 270.7hPa | 2.6V | 03:05:18 | 02:53:25 | 00:00:00 | |
| GOEST3-10 | 2026-09-02 12:44:09 | 52.66438 | 10.92627 | 117° | 88km/h | 10053m | -10.4m/s | -50.8°C | 42.4% | 269.8hPa | 2.6V | 00:00:00 | 02:53:23 | 00:00:00 | |
| DF7ER-10 | 2026-09-02 12:44:07 | 52.66449 | 10.92594 | 117° | 88km/h | 10064m | -9.8m/s | -50.9°C | 35.7% | 269.5hPa | 2.6V | 03:06:00 | 00:00:00 | 00:00:00 | |
| DB0UT-7 | 2026-09-02 12:44:06 | 52.66468 | 10.92529 | 116° | 95km/h | 10083m | -10.3m/s | -51.0°C | 42.7% | 268.5hPa | 2.6V | 00:00:00 | 00:00:00 | 00:00:00 | |
| DL1XH-15 | 2026-09-02 12:44:06 | 52.66486 | 10.92462 | 115° | 88km/h | 10104m | -10.8m/s | -51.3°C | 43.6% | 267.7hPa | 2.5V | 03:05:24 | 02:53:18 | 00:00:00 | |
| S3001 | 2026-09-02 12:44:05 | 52.66486 | 10.92462 | 115° | 88km/h | 10104m | -10.8m/s | -51.3°C | 36.4% | 267.7hPa | 2.6V | 00:00:00 | 00:00:00 | 00:00:00 | |
| DM0DOS-11 | 2026-09-02 12:44:04 | 52.66531 | 10.92290 | 112° | 91km/h | 10157m | -9.9m/s | -51.7°C | 45.7% | 265.5hPa | 2.6V | 03:05:29 | 02:53:13 | 00:00:00 | |
| AA1-15 | 2026-09-02 12:44:01 | 52.66522 | 10.92326 | 112° | 91km/h | 10146m | -9.8m/s | -51.6°C | 46.3% | 266hPa | 2.6V | 03:06:09 | 02:53:14 | 00:00:00 | |
| DL1XH-west | 2026-09-02 12:43:52 | 52.66594 | 10.92036 | 114° | 99km/h | 10232m | -11.4m/s | -52.3°C | 46.9% | 262.4hPa | 2.6V | 03:06:09 | 02:53:06 | 00:00:00 | |
| BIOWL1-15 | 2026-09-02 12:43:52 | 52.66615 | 10.91960 | 115° | 100km/h | 10253m | -10.7m/s | -52.5°C | 46.7% | 261.4hPa | 2.6V | 03:06:09 | 02:53:04 | 00:00:00 | |
| DO2SHX-10 | 2026-09-02 12:43:52 | 52.66594 | 10.92036 | 115° | 100km/h | 10232m | -11.4m/s | -52.3°C | 46.9% | 262.4hPa | 2.6V | 03:05:00 | 02:53:06 | 00:00:00 | |
| DM0DOS-11 | 2026-09-02 12:43:50 | 52.66626 | 10.91923 | 114° | 100km/h | 10264m | -10.3m/s | -52.5°C | 46.4% | 261.1hPa | 2.5V | 03:05:39 | 02:53:03 | 00:00:00 | |
| AA1-15 | 2026-09-02 12:43:49 | 52.66626 | 10.91923 | 115° | 100km/h | 10264m | -10.3m/s | -52.5°C | 46.4% | 261.1hPa | 2.5V | 03:06:09 | 02:53:03 | 00:00:00 | |
| GOEST3-10 | 2026-09-02 12:43:49 | 52.66626 | 10.91923 | 115° | 99km/h | 10264m | -10.3m/s | -52.5°C | 46.4% | 261.1hPa | 2.6V | 00:00:00 | 02:53:03 | 00:00:00 | |
| DO2SHX-10 | 2026-09-02 12:43:48 | 52.66636 | 10.91885 | 115° | 97km/h | 10275m | -11.5m/s | -52.6°C | 46.0% | 260.6hPa | 2.6V | 00:00:00 | 02:53:02 | 00:00:00 | |
| AM1SDL-15 | 2026-09-02 12:43:46 | 52.66656 | 10.91810 | 114° | 97km/h | 10296m | -10.1m/s | -52.7°C | 44.4% | 259.8hPa | 2.6V | 00:00:00 | 02:53:00 | 00:00:00 | |
| DF7ER-10 | 2026-09-02 12:43:45 | 52.66656 | 10.91810 | 115° | 97km/h | 10296m | -10.2m/s | -52.8°C | 36.8% | 259.8hPa | 2.6V | 03:06:00 | 00:00:00 | 00:00:00 | |
| DM0DOS-11 | 2026-09-02 12:43:44 | 52.66728 | 10.91556 | 115° | 95km/h | 10373m | -10.2m/s | -52.6°C | 36.5% | 256.7hPa | 2.6V | 03:05:49 | 02:52:53 | 00:00:00 | |
| DL1XH-west | 2026-09-02 12:43:42 | 52.66697 | 10.91665 | 115° | 97km/h | 10339m | -11.7m/s | -52.8°C | 40% | 258hPa | 2.5V | 03:06:09 | 02:52:56 | 00:00:00 | |
| BIOWL1-15 | 2026-09-02 12:43:39 | 52.66728 | 10.91556 | 115° | 95km/h | 10373m | -10.3m/s | -52.6°C | 36.8% | 256.7hPa | 2.6V | 03:06:09 | 02:52:53 | 00:00:00 | |
| AA1-15 | 2026-09-02 12:43:39 | 52.66738 | 10.91520 | 115° | 97km/h | 10384m | -10.2m/s | -52.6°C | 36.1% | 256.3hPa | 2.5V | 03:06:09 | 02:52:52 | 00:00:00 | |
| DL1XH-west | 2026-09-02 12:43:31 | 52.66816 | 10.91264 | 118° | 100km/h | 10460m | -10.1m/s | -52.9°C | 34% | 253.3hPa | 2.5V | 03:06:09 | 02:52:45 | 00:00:00 | |
| AA1-15 | 2026-09-02 12:43:28 | 52.66853 | 10.91154 | 119° | 100km/h | 10491m | -10.7m/s | -53.1°C | 33% | 252.1hPa | 2.5V | 03:06:09 | 02:52:42 | 00:00:00 | |
| DB0NH | 2026-09-02 12:43:27 | 52.66865 | 10.91118 | 120° | 88km/h | 10502m | -11.4m/s | -53.1°C | 33.1% | 251.6hPa | 2.5V | 00:00:00 | 02:52:41 | 00:00:00 | |
| DF8AY | 2026-09-02 12:43:26 | 52.67141 | 10.90466 | 126° | 80km/h | 10724m | -10.9m/s | -52.5°C | 24.3% | 243.1hPa | 2.5V | 03:07:00 | 02:52:20 | 00:00:00 | |
| DL1XH-west | 2026-09-02 12:43:21 | 52.66955 | 10.90875 | 124° | 97km/h | 10576m | -10.9m/s | -53.4°C | 30.5% | 248.8hPa | 2.6V | 03:06:09 | 02:52:34 | 00:00:00 | |
| DM0DOS-11 | 2026-09-02 12:43:20 | 52.66969 | 10.90841 | 124° | 97km/h | 10587m | -11.1m/s | -53.4°C | 31.3% | 248.4hPa | 2.6V | 03:06:09 | 02:52:33 | 00:00:00 | |
| AA1-15 | 2026-09-02 12:43:18 | 52.66983 | 10.90808 | 125° | 97km/h | 10598m | -10.8m/s | -53.4°C | 29.8% | 247.9hPa | 2.6V | 03:07:00 | 02:52:32 | 00:00:00 | |
| BIOWL1-15 | 2026-09-02 12:43:17 | 52.67053 | 10.90655 | 128° | 88km/h | 10653m | -10m/s | -53.3°C | 27.8% | 245.8hPa | 2.6V | 03:07:00 | 02:52:27 | 00:00:00 | |
| DM0DOS-11 | 2026-09-02 12:43:14 | 52.67105 | 10.90545 | 126° | 80km/h | 10694m | -10.5m/s | -52.9°C | 25.5% | 244.2hPa | 2.6V | 03:06:19 | 02:52:23 | 00:00:00 | |
| DL1XH-west | 2026-09-02 12:43:09 | 52.67106 | 10.90545 | 126° | 80km/h | 10694m | -10.5m/s | -52.9°C | 25.4% | 244.2hPa | 2.6V | 03:07:00 | 02:52:23 | 00:00:00 | |
| AA1-15 | 2026-09-02 12:43:08 | 52.67118 | 10.90519 | 126° | 78km/h | 10704m | -10.5m/s | -52.8°C | 25% | 243.8hPa | 2.6V | 03:07:00 | 02:52:22 | 00:00:00 | |
| DO2SHX-10 | 2026-09-02 12:43:06 | 52.67140 | 10.90466 | 127° | 77km/h | 10724m | -10.9m/s | -52.5°C | 23.9% | 243.0hPa | 2.6V | 00:00:00 | 02:52:20 | 00:00:00 | |
| DB0UT-7 | 2026-09-02 12:43:04 | 52.67164 | 10.90414 | 126° | 71km/h | 10746m | -11.2m/s | -52.6°C | 23.7% | 242.1hPa | 2.6V | 00:00:00 | 00:00:00 | 00:00:00 | |
| DM0DOS-11 | 2026-09-02 12:43:03 | 52.67219 | 10.90291 | 127° | 71km/h | 10802m | -12.1m/s | -52.5°C | 22.2% | 240.1hPa | 2.5V | 03:06:29 | 02:52:13 | 00:00:00 | |
| BIOWL1-15 | 2026-09-02 12:43:02 | 52.67197 | 10.90339 | 126° | 73km/h | 10778m | -11.7m/s | -52.6°C | 23% | 241hPa | 2.5V | 03:07:00 | 02:52:15 | 00:00:00 | |
| DL1XH-west | 2026-09-02 12:42:58 | 52.67230 | 10.90268 | 129° | 73km/h | 10813m | -12.4m/s | -52.6°C | 22.1% | 239.7hPa | 2.6V | 03:07:00 | 02:52:12 | 00:00:00 | |
| AA1-15 | 2026-09-02 12:42:57 | 52.67242 | 10.90245 | 129° | 69km/h | 10825m | -11.5m/s | -52.5°C | 21.9% | 239.3hPa | 2.6V | 03:07:00 | 02:52:11 | 00:00:00 | |
| BIOWL1-15 | 2026-09-02 12:42:50 | 52.67366 | 10.89991 | 126° | 69km/h | 10950m | -11.4m/s | -52.7°C | 19.2% | 234.7hPa | 2.6V | 03:07:00 | 02:52:00 | 00:00:00 | |
| DM0DOS-11 | 2026-09-02 12:42:50 | 52.67334 | 10.90061 | 128° | 71km/h | 10916m | -12m/s | -52.6°C | 20% | 236hPa | 2.5V | 03:06:39 | 02:52:03 | 00:00:00 | |
| DL1XH-west | 2026-09-02 12:42:48 | 52.67345 | 10.90037 | 127° | 69km/h | 10928m | -11.6m/s | -52.7°C | 19.8% | 235.6hPa | 2.5V | 03:07:00 | 02:52:02 | 00:00:00 | |
| AA1-15 | 2026-09-02 12:42:47 | 52.67356 | 10.90014 | 127° | 69km/h | 10939m | -11m/s | -52.7°C | 19.6% | 235.1hPa | 2.6V | 03:07:00 | 02:52:01 | 00:00:00 | |
| DF8AY | 2026-09-02 12:42:45 | 52.67502 | 10.89583 | 117° | 71km/h | 11127m | -11.4m/s | -52.6°C | 14.6% | 228.5hPa | 2.6V | 03:07:00 | 02:51:44 | 00:00:00 | |
| DL1XH1-15 | 2026-09-02 12:42:44 | 52.67394 | 10.89921 | 121° | 68km/h | 10983m | -11.3m/s | -52.8°C | 18.8% | 233.6hPa | 2.5V | 03:06:45 | 02:51:57 | 00:00:00 | |
| DM0DOS-11 | 2026-09-02 12:42:44 | 52.67437 | 10.89796 | 117° | 71km/h | 11037m | -10.3m/s | -52.8°C | 17.8% | 231.5hPa | 2.6V | 03:06:50 | 02:51:52 | 00:00:00 | |
| BIOWL1-15 | 2026-09-02 12:42:39 | 52.67429 | 10.89822 | 117° | 69km/h | 11027m | -10.7m/s | -52.8°C | 17.3% | 232hPa | 2.5V | 03:07:00 | 02:51:53 | 00:00:00 | |
| DL1XH-west | 2026-09-02 12:42:38 | 52.67445 | 10.89769 | 117° | 73km/h | 11048m | -10.2m/s | -52.7°C | 16.7% | 231.3hPa | 2.6V | 03:07:00 | 02:51:51 | 00:00:00 | |
| DL1XH-15 | 2026-09-02 12:42:38 | 52.67486 | 10.89636 | 117° | 71km/h | 11104m | -11.2m/s | -52.7°C | 16% | 229.2hPa | 2.6V | 03:06:56 | 02:51:46 | 00:00:00 | |
| AA1-15 | 2026-09-02 12:42:37 | 52.67454 | 10.89742 | 117° | 71km/h | 11058m | -10.8m/s | -52.7°C | 16.4% | 230.8hPa | 2.6V | 03:07:00 | 02:51:50 | 00:00:00 | |
| DL1XH-west | 2026-09-02 12:42:28 | 52.67533 | 10.89475 | 114° | 73km/h | 11172m | -11.1m/s | -52.5°C | 13.4% | 226.8hPa | 2.5V | 03:07:51 | 02:51:40 | 00:00:00 | |
| DL1XH-15 | 2026-09-02 12:42:27 | 52.67556 | 10.89388 | 112° | 78km/h | 11205m | -10.3m/s | -52.4°C | 13.4% | 225.6hPa | 2.6V | 03:07:05 | 02:51:37 | 00:00:00 | |
| AA1-15 | 2026-09-02 12:42:25 | 52.67549 | 10.89418 | 114° | 77km/h | 11194m | -11.1m/s | -52.4°C | 12.9% | 226hPa | 2.6V | 03:07:51 | 02:51:38 | 00:00:00 | |
| DO2SHX-10 | 2026-09-02 12:42:24 | 52.67549 | 10.89418 | 114° | 78km/h | 11195m | -11.1m/s | -52.4°C | 13.8% | 226.0hPa | 2.6V | 03:07:00 | 02:51:38 | 00:00:00 | |
| DF7ER-10 | 2026-09-02 12:42:23 | 52.67549 | 10.89418 | 115° | 77km/h | 11195m | -11.1m/s | -52.4°C | 9.8% | 226.0hPa | 2.5V | 03:07:00 | 00:00:00 | 00:00:00 | |
| DO2SHX-10 | 2026-09-02 12:42:21 | 52.67571 | 10.89328 | 113° | 78km/h | 11226m | -10.1m/s | -52.3°C | 12.7% | 224.9hPa | 2.5V | 00:00:00 | 02:51:35 | 00:00:00 | |
| DL3AQ-11 | 2026-09-02 12:42:17 | 52.67610 | 10.89177 | 112° | 78km/h | 11280m | -10.5m/s | -52.5°C | -1.0% | -1.0hPa | 2.5V | 00:00:00 | 00:00:00 | 00:00:00 | |
| DL1XH-15 | 2026-09-02 12:42:16 | 52.67633 | 10.89087 | 113° | 78km/h | 11313m | -11.7m/s | -51.7°C | 10.5% | 221.9hPa | 2.5V | 03:07:15 | 02:51:27 | 00:00:00 | |
| DL1XH-west | 2026-09-02 12:42:15 | 52.67641 | 10.89057 | 113° | 77km/h | 11324m | -10.8m/s | -51.7°C | 9.2% | 221.5hPa | 2.6V | 03:07:51 | 02:51:26 | 00:00:00 | |
| DF8AY | 2026-09-02 12:42:15 | 52.67664 | 10.88969 | 114° | 77km/h | 11357m | -10.8m/s | -51.9°C | 8.7% | 220.4hPa | 2.5V | 03:07:51 | 02:51:23 | 00:00:00 | |
| AA1-15 | 2026-09-02 12:42:14 | 52.67633 | 10.89087 | 114° | 78km/h | 11313m | -11.7m/s | -51.7°C | 9.4% | 222hPa | 2.5V | 03:07:51 | 02:51:27 | 00:00:00 | |
| BIOWL1-15 | 2026-09-02 12:42:13 | 52.67648 | 10.89028 | 114° | 77km/h | 11335m | -11.3m/s | -51.7°C | 9% | 221.2hPa | 2.6V | 03:07:51 | 02:51:25 | 00:00:00 | |
| NBG1-10 | 2026-09-02 12:42:12 | 52.67640 | 10.89057 | 113° | 73km/h | 11324m | -10.8m/s | -51.6°C | 10.3% | 221.4hPa | 2.6V | 00:00:00 | 02:51:26 | 00:00:00 | |
| DO2SHX-10 | 2026-09-02 12:42:11 | 52.67648 | 10.89028 | 115° | 77km/h | 11335m | -11.3m/s | -51.7°C | 10.2% | 221.2hPa | 2.6V | 03:07:00 | 02:51:25 | 00:00:00 | |
| DL2RXE-15 | 2026-09-02 12:42:10 | 52.67648 | 10.89028 | 115° | 77km/h | 11335m | -11.3m/s | -51.7°C | 6.9% | 221.2hPa | 2.6V | 00:00:00 | 00:00:00 | 00:00:00 | |
| DO2SHX-10 | 2026-09-02 12:42:07 | 52.67680 | 10.88912 | 115° | 75km/h | 11379m | -11.4m/s | -51.8°C | 9.8% | 219.6hPa | 2.6V | 00:00:00 | 02:51:21 | 00:00:00 | |
| MECKS9 | 2026-09-02 12:42:06 | 52.67680 | 10.88912 | 115° | 75km/h | 11379m | -11.4m/s | -51.8°C | 6.5% | 219.7hPa | 2.6V | 00:00:00 | 00:00:00 | 00:00:00 | |
| DL1XH-15 | 2026-09-02 12:42:05 | 52.67713 | 10.88802 | 117° | 73km/h | 11424m | -11m/s | -51.9°C | 9.2% | 218.1hPa | 2.6V | 03:07:25 | 02:51:17 | 00:00:00 | |
| DL1XH-west | 2026-09-02 12:42:05 | 52.67705 | 10.88829 | 117° | 73km/h | 11412m | -11.5m/s | -52°C | 7.8% | 218.5hPa | 2.5V | 03:07:51 | 02:51:18 | 00:00:00 | |
| DM0DOS-11 | 2026-09-02 12:42:04 | 52.67748 | 10.88697 | 119° | 73km/h | 11469m | -11.9m/s | -51.9°C | 8.7% | 216.6hPa | 2.5V | 03:07:29 | 02:51:13 | 00:00:00 | |
| AA1-15 | 2026-09-02 12:42:04 | 52.67713 | 10.88802 | 117° | 73km/h | 11424m | -11m/s | -51.9°C | 7.7% | 218.1hPa | 2.6V | 03:07:51 | 02:51:17 | 00:00:00 | |
| DF8AY | 2026-09-02 12:42:02 | 52.67757 | 10.88670 | 119° | 73km/h | 11481m | -11.5m/s | -51.9°C | 6.7% | 216.1hPa | 2.5V | 03:07:51 | 02:51:12 | 00:00:00 | |
| GOEST3-10 | 2026-09-02 12:42:02 | 52.67722 | 10.88776 | 118° | 73km/h | 11435m | -11.6m/s | -51.9°C | 9.1% | 217.6hPa | 2.5V | 00:00:00 | 00:00:00 | 00:00:00 | |
| BIOWL1-15 | 2026-09-02 12:42:02 | 52.67730 | 10.88749 | 118° | 71km/h | 11446m | -10.9m/s | -52°C | 7.3% | 217.4hPa | 2.6V | 03:07:51 | 02:51:15 | 00:00:00 | |
| S3001 | 2026-09-02 12:42:01 | 52.67748 | 10.88697 | 119° | 71km/h | 11469m | -11.9m/s | -51.9°C | 5.5% | 216.6hPa | 2.5V | 00:00:00 | 00:00:00 | 00:00:00 | |
| BUE01 | 2026-09-02 12:41:59 | 52.67748 | 10.88697 | 119° | 71km/h | 11469m | -11.9m/s | -51.9°C | 5.5% | 216.6hPa | 2.5V | 00:00:00 | 00:00:00 | 00:00:00 | |
| DO2SHX-10 | 2026-09-02 12:41:58 | 52.67757 | 10.88670 | 120° | 73km/h | 11481m | -11.5m/s | -51.8°C | 8.5% | 216.1hPa | 2.5V | 03:07:00 | 02:51:12 | 00:00:00 | |
| DB0NH | 2026-09-02 12:41:57 | 52.67766 | 10.88644 | 119° | 73km/h | 11492m | -11.6m/s | -51.8°C | 8.3% | 215.8hPa | 2.5V | 03:07:00 | 02:51:11 | 00:00:00 | |
| DL1XH-15 | 2026-09-02 12:41:55 | 52.67800 | 10.88539 | 117° | 69km/h | 11535m | -11.1m/s | -52°C | 8% | 214.4hPa | 2.5V | 03:07:35 | 02:51:07 | 00:00:00 | |
| DB0DAN | 2026-09-02 12:41:55 | 52.67784 | 10.88591 | 118° | 69km/h | 11514m | -10.7m/s | -52°C | 5.1% | 215.14hPa | 2.6V | 00:00:00 | 00:00:00 | 00:00:00 | |
| DL1XH-west | 2026-09-02 12:41:55 | 52.67784 | 10.88591 | 118° | 71km/h | 11513m | -10.7m/s | -52°C | 6.3% | 215.1hPa | 2.6V | 03:07:51 | 02:51:09 | 00:00:00 | |
| DO2SHX-10 | 2026-09-02 12:41:55 | 52.67784 | 10.88591 | 119° | 71km/h | 11514m | -10.7m/s | -51.9°C | 8.2% | 215.1hPa | 2.6V | 00:00:00 | 02:51:09 | 00:00:00 | |
| DM0DOS-11 | 2026-09-02 12:41:54 | 52.67829 | 10.88436 | 113° | 69km/h | 11579m | -11.3m/s | -51.7°C | 7.5% | 213hPa | 2.6V | 03:07:39 | 02:51:03 | 00:00:00 | |
| AA1-15 | 2026-09-02 12:41:54 | 52.67800 | 10.88539 | 117° | 69km/h | 11535m | -11.1m/s | -52°C | 6% | 214.4hPa | 2.5V | 03:07:51 | 02:51:07 | 00:00:00 | |
| DF8AY | 2026-09-02 12:41:51 | 52.67815 | 10.88488 | 115° | 68km/h | 11557m | -11.2m/s | -51.9°C | 5.5% | 213.7hPa | 2.5V | 03:07:51 | 02:51:05 | 00:00:00 | |
| BIOWL1-15 | 2026-09-02 12:41:51 | 52.67850 | 10.88356 | 114° | 73km/h | 11610m | -10.5m/s | -51.7°C | 4.8% | 212hPa | 2.5V | 03:07:51 | 02:51:00 | 00:00:00 | |
| DL3AQ-11 | 2026-09-02 12:41:50 | 52.67829 | 10.88436 | 113° | 68km/h | 11579m | -11.3m/s | -51.8°C | -1.0% | -1.0hPa | 2.5V | 00:00:00 | 00:00:00 | 00:00:00 | |
| DO2SHX-10 | 2026-09-02 12:41:49 | 52.67829 | 10.88436 | 114° | 69km/h | 11579m | -11.2m/s | -51.7°C | 7.5% | 212.9hPa | 2.5V | 00:00:00 | 02:51:03 | 00:00:00 | |
| GOEST3-10 | 2026-09-02 12:41:48 | 52.67836 | 10.88410 | 114° | 71km/h | 11590m | -10.7m/s | -51.7°C | 7.4% | 212.5hPa | 2.5V | 03:07:00 | 00:00:00 | 00:00:00 | |
| DO2SHX-10 | 2026-09-02 12:41:46 | 52.67850 | 10.88356 | 115° | 75km/h | 11610m | -10.5m/s | -51.7°C | 7.1% | 211.9hPa | 2.5V | 03:07:00 | 02:51:00 | 00:00:00 | |
| DL1XH-15 | 2026-09-02 12:41:45 | 52.67873 | 10.88270 | 112° | 77km/h | 11642m | -10.5m/s | -51.7°C | 6.8% | 210.9hPa | 2.5V | 03:07:45 | 02:50:57 | 00:00:00 | |
| DL1XH-west | 2026-09-02 12:41:44 | 52.67865 | 10.88299 | 114° | 75km/h | 11632m | -10.7m/s | -51.7°C | 4.6% | 211.2hPa | 2.6V | 03:07:51 | 02:50:58 | 00:00:00 | |
| AA1-15 | 2026-09-02 12:41:42 | 52.67888 | 10.88209 | 112° | 78km/h | 11665m | -12.6m/s | -51.7°C | 4.2% | 210.2hPa | 2.6V | 03:07:51 | 02:50:55 | 00:00:00 | |
| DF8AY | 2026-09-02 12:41:39 | 52.67921 | 10.88054 | 107° | 77km/h | 11723m | -12.4m/s | -51.6°C | 3.6% | 208.3hPa | 2.5V | 03:08:42 | 02:50:50 | 00:00:00 | |
| NBG1-10 | 2026-09-02 12:41:38 | 52.67908 | 10.88116 | 109° | 66km/h | 11700m | -11.3m/s | -51.5°C | 6.3% | 209.0hPa | 2.5V | 00:00:00 | 02:50:52 | 00:00:00 | |
| DL3AQ-11 | 2026-09-02 12:41:37 | 52.67921 | 10.88054 | 107° | 77km/h | 11723m | -12.4m/s | 0°C | -1.0% | -1.0hPa | 2.5V | 00:00:00 | 00:00:00 | 00:00:00 | |
| DO2SHX-10 | 2026-09-02 12:41:36 | 52.67921 | 10.88054 | 108° | 75km/h | 11723m | -12.3m/s | -51.5°C | 6.1% | 208.3hPa | 2.5V | 00:00:00 | 02:50:50 | 00:00:00 | |
| DL1XH1-15 | 2026-09-02 12:41:35 | 52.67937 | 10.87964 | 105° | 73km/h | 11757m | -10.2m/s | -51.4°C | 5.9% | 207.2hPa | 2.6V | 03:07:55 | 02:50:47 | 00:00:00 | |
| DM0DOS-11 | 2026-09-02 12:41:34 | 52.67958 | 10.87846 | 106° | 75km/h | 11802m | -10.7m/s | -51.2°C | 5.5% | 205.7hPa | 2.5V | 03:07:59 | 02:50:43 | 00:00:00 | |
| DL1XH-west | 2026-09-02 12:41:34 | 52.67932 | 10.87994 | 106° | 75km/h | 11746m | -11.6m/s | -51.6°C | 3.4% | 207.6hPa | 2.6V | 03:08:42 | 02:50:48 | 00:00:00 | |
| AA1-15 | 2026-09-02 12:41:31 | 52.67952 | 10.87876 | 106° | 75km/h | 11791m | -12.3m/s | -51.2°C | 2.9% | 206.2hPa | 2.5V | 03:08:42 | 02:50:44 | 00:00:00 | |
| DF8AY | 2026-09-02 12:41:26 | 52.68033 | 10.87440 | 106° | 80km/h | 11949m | -10.9m/s | -50.9°C | 1.8% | 201.2hPa | 2.5V | 03:08:42 | 02:50:30 | 00:00:00 | |
| DL1XH1-15 | 2026-09-02 12:41:25 | 52.67990 | 10.87662 | 107° | 78km/h | 11870m | -11.4m/s | -51.2°C | 5.2% | 203.6hPa | 2.6V | 03:08:05 | 02:50:37 | 00:00:00 | |
| BIOWL1-15 | 2026-09-02 12:41:25 | 52.67990 | 10.87662 | 107° | 78km/h | 11870m | -11.4m/s | -51.2°C | 2.4% | 203.6hPa | 2.6V | 03:08:42 | 02:50:37 | 00:00:00 | |
| DM0DOS-11 | 2026-09-02 12:41:24 | 52.68015 | 10.87535 | 108° | 80km/h | 11916m | -10.9m/s | -51.3°C | 5.1% | 202.3hPa | 2.6V | 03:08:09 | 02:50:33 | 00:00:00 | |
| DL1XH-west | 2026-09-02 12:41:24 | 52.67996 | 10.87631 | 108° | 78km/h | 11882m | -11.2m/s | -51.3°C | 2.4% | 203.2hPa | 2.6V | 03:08:42 | 02:50:36 | 00:00:00 | |
| AA1-15 | 2026-09-02 12:41:20 | 52.68015 | 10.87535 | 108° | 80km/h | 11916m | -10.9m/s | -51.3°C | 2.1% | 202.3hPa | 2.6V | 03:08:42 | 02:50:33 | 00:00:00 | |
| DO2SHX-10 | 2026-09-02 12:41:19 | 52.68015 | 10.87535 | 109° | 80km/h | 11916m | -10.9m/s | -51.3°C | 5.1% | 202.2hPa | 2.6V | 03:08:00 | 02:50:33 | 00:00:00 | |
| DL1XH-15 | 2026-09-02 12:41:17 | 52.68055 | 10.87314 | 106° | 80km/h | 11992m | -11m/s | -50.7°C | 4.6% | 199.9hPa | 2.6V | 03:08:16 | 02:50:26 | 00:00:00 | |
| DO2SHX-10 | 2026-09-02 12:41:16 | 52.68033 | 10.87440 | 107° | 78km/h | 11949m | -10.9m/s | -50.8°C | 4.8% | 201.1hPa | 2.5V | 00:00:00 | 02:50:30 | 00:00:00 | |
| DL1XH1-15 | 2026-09-02 12:41:15 | 52.68049 | 10.87346 | 105° | 78km/h | 11981m | -11m/s | -50.8°C | 4.7% | 200.1hPa | 2.6V | 03:08:15 | 02:50:27 | 00:00:00 | |
| BIOWL1-15 | 2026-09-02 12:41:14 | 52.68060 | 10.87282 | 106° | 80km/h | 12003m | -11.1m/s | -50.7°C | 1.5% | 199.5hPa | 2.6V | 03:08:42 | 02:50:25 | 00:00:00 | |
| DL1XH-west | 2026-09-02 12:41:13 | 52.68055 | 10.87314 | 106° | 80km/h | 11992m | -11m/s | -50.8°C | 1.7% | 199.9hPa | 2.6V | 03:08:42 | 02:50:26 | 00:00:00 | |
| DM0DOS-11 | 2026-09-02 12:41:12 | 52.68072 | 10.87218 | 107° | 82km/h | 12026m | -11.7m/s | -50.6°C | 4.4% | 198.8hPa | 2.5V | 03:08:19 | 02:50:23 | 00:00:00 | |
| DO2SHX-10 | 2026-09-02 12:41:12 | 52.68055 | 10.87314 | 107° | 80km/h | 11992m | -11.0m/s | -50.7°C | 4.6% | 199.8hPa | 2.6V | 00:00:00 | 02:50:26 | 00:00:00 | |
| SMARD9-10 | 2026-09-02 12:41:11 | 52.68055 | 10.87314 | 107° | 80km/h | 11992m | -11.0m/s | -50.7°C | 2.2% | 199.9hPa | 2.6V | 00:00:00 | 00:00:00 | 00:00:00 | |
| DB0DAN | 2026-09-02 12:41:10 | 52.68066 | 10.87250 | 107° | 77km/h | 12015m | -11.8m/s | -50.7°C | 2.1% | 199.18hPa | 2.6V | 00:00:00 | 00:00:00 | 00:00:00 | |
| AA1-15 | 2026-09-02 12:41:10 | 52.68072 | 10.87218 | 108° | 82km/h | 12026m | -11.7m/s | -50.6°C | 1.4% | 198.8hPa | 2.5V | 03:08:42 | 02:50:23 | 00:00:00 | |
| DF8AY | 2026-09-02 12:41:07 | 52.68092 | 10.87118 | 108° | 88km/h | 12060m | -11m/s | -50.6°C | 1.2% | 197.8hPa | 2.6V | 03:08:42 | 02:50:20 | 00:00:00 | |
| DO2SHX-10 | 2026-09-02 12:41:06 | 52.68092 | 10.87118 | 108° | 86km/h | 12061m | -10.9m/s | -50.5°C | 4.3% | 197.8hPa | 2.6V | 03:08:00 | 02:50:20 | 00:00:00 | |
| DL1XH1-15 | 2026-09-02 12:41:05 | 52.68113 | 10.87016 | 110° | 86km/h | 12095m | -11.9m/s | -50.8°C | 4.3% | 196.8hPa | 2.5V | 03:08:25 | 02:50:17 | 00:00:00 | |
| BIOWL1-15 | 2026-09-02 12:41:04 | 52.68106 | 10.87050 | 109° | 86km/h | 12083m | -12.3m/s | -50.7°C | 1.2% | 197.1hPa | 2.6V | 03:08:42 | 02:50:18 | 00:00:00 | |
| DL1XH-west | 2026-09-02 12:41:02 | 52.68120 | 10.86982 | 111° | 84km/h | 12106m | -10.5m/s | -50.8°C | 1.1% | 196.4hPa | 2.5V | 03:08:42 | 02:50:16 | 00:00:00 | |
| DO2SHX-10 | 2026-09-02 12:41:02 | 52.68120 | 10.86982 | 111° | 84km/h | 12107m | -10.4m/s | -50.7°C | 4.2% | 196.3hPa | 2.5V | 00:00:00 | 02:50:16 | 00:00:00 | |
| DL4XJ-10 | 2026-09-02 12:41:01 | 52.68128 | 10.86949 | 112° | 86km/h | 12117m | -11.0m/s | -50.6°C | 0% | 0hPa | 2.5V | 00:00:00 | 00:00:00 | 00:00:00 | |
| DM0DOS-11 | 2026-09-02 12:41:00 | 52.68145 | 10.86884 | 114° | 84km/h | 12141m | -11.9m/s | -50.6°C | 4.1% | 195.4hPa | 2.5V | 03:08:29 | 02:50:13 | 00:00:00 | |
| AA1-15 | 2026-09-02 12:40:59 | 52.68154 | 10.86852 | 115° | 86km/h | 12152m | -11.1m/s | -50.5°C | 0.8% | 195.1hPa | 2.5V | 03:08:42 | 02:50:12 | 00:00:00 | |
| S3001 | 2026-09-02 12:40:59 | 52.68154 | 10.86852 | 114° | 84km/h | 12152m | -11.1m/s | -50.5°C | 1.7% | 195.1hPa | 2.5V | 00:00:00 | 00:00:00 | 00:00:00 | |
| DL1XH1-15 | 2026-09-02 12:40:58 | 52.68200 | 10.86691 | 114° | 88km/h | 12211m | -11.6m/s | -50.6°C | 3.9% | 193.2hPa | 2.5V | 03:08:35 | 02:50:07 | 00:00:00 | |
| DL1XH-15 | 2026-09-02 12:40:57 | 52.68218 | 10.86626 | 115° | 86km/h | 12234m | -11.5m/s | -50.7°C | 3.9% | 192.5hPa | 2.6V | 03:08:37 | 02:50:05 | 00:00:00 | |
| DF8AY | 2026-09-02 12:40:55 | 52.68264 | 10.86467 | 118° | 84km/h | 12294m | -12.1m/s | -50.6°C | 0.6% | 190.8hPa | 2.5V | 03:08:42 | 02:50:00 | 00:00:00 | |
| DM0DOS-11 | 2026-09-02 12:40:54 | 52.68236 | 10.86561 | 114° | 84km/h | 12257m | -12.4m/s | -50.6°C | 3.8% | 191.9hPa | 2.6V | 03:08:39 | 02:50:03 | 00:00:00 | |
| BIOWL1-15 | 2026-09-02 12:40:54 | 52.68236 | 10.86561 | 115° | 84km/h | 12257m | -12.4m/s | -50.6°C | 0.6% | 191.9hPa | 2.6V | 03:08:42 | 02:50:03 | 00:00:00 | |
| DL1XH-west | 2026-09-02 12:40:52 | 52.68218 | 10.86626 | 115° | 86km/h | 12234m | -11.5m/s | -50.7°C | 0.6% | 192.5hPa | 2.6V | 03:08:42 | 02:50:05 | 00:00:00 | |
| DF8AY | 2026-09-02 12:40:49 | 52.68285 | 10.86405 | 120° | 86km/h | 12317m | -10.6m/s | -50.5°C | 0.5% | 190.1hPa | 2.6V | 03:10:24 | 02:49:58 | 00:00:00 | |
| AA1-15 | 2026-09-02 12:40:49 | 52.68245 | 10.86529 | 116° | 84km/h | 12270m | -12.6m/s | -50.6°C | 0.6% | 191.5hPa | 2.6V | 03:08:42 | 02:50:02 | 00:00:00 | |
| DF7ER-10 | 2026-09-02 12:40:48 | 52.68236 | 10.86561 | 116° | 84km/h | 12257m | -12.4m/s | -50.6°C | 1.6% | 191.9hPa | 2.5V | 03:08:00 | 00:00:00 | 00:00:00 | |
| DL1XH-15 | 2026-09-02 12:40:46 | 52.68317 | 10.86313 | 120° | 86km/h | 12350m | -11.3m/s | -50.5°C | 3.7% | 189.2hPa | 2.5V | 03:08:47 | 02:49:55 | 00:00:00 | |
| DO2SHX-10 | 2026-09-02 12:40:46 | 52.68264 | 10.86467 | 118° | 84km/h | 12294m | -12.0m/s | -50.6°C | 3.9% | 190.8hPa | 2.5V | 00:00:00 | 02:50:00 | 00:00:00 | |
| DD8BA-10 | 2026-09-02 12:40:44 | 52.68285 | 10.86405 | 120° | 84km/h | 12317m | -10.6m/s | -50.4°C | 3.8% | 190.0hPa | 2.6V | 00:00:00 | 00:00:00 | 00:00:00 | |
| DM0DOS-11 | 2026-09-02 12:40:42 | 52.68338 | 10.86251 | 119° | 84km/h | 12373m | -11.9m/s | -50.5°C | 3.6% | 188.4hPa | 2.6V | 03:08:49 | 02:49:53 | 00:00:00 | |
| BIOWL1-15 | 2026-09-02 12:40:42 | 52.68317 | 10.86313 | 120° | 86km/h | 12350m | -11.3m/s | -50.5°C | 0.3% | 189.2hPa | 2.5V | 03:09:33 | 02:49:55 | 00:00:00 | |
| DL1XH-west | 2026-09-02 12:40:41 | 52.68339 | 10.86251 | 119° | 84km/h | 12373m | -11.9m/s | -50.5°C | 0.3% | 188.4hPa | 2.6V | 03:09:33 | 02:49:53 | 00:00:00 | |
| AA1-15 | 2026-09-02 12:40:38 | 52.68349 | 10.86221 | 119° | 84km/h | 12385m | -11.6m/s | -50.4°C | 0.3% | 188.1hPa | 2.6V | 03:09:33 | 02:49:52 | 00:00:00 | |
| AM1SDL-15 | 2026-09-02 12:40:38 | 52.68349 | 10.86221 | 119° | 84km/h | 12385m | -11.5m/s | -50.4°C | 3.6% | 188.1hPa | 2.6V | 03:08:00 | 02:49:52 | 00:00:00 | |
| DL1XH-15 | 2026-09-02 12:40:36 | 52.68417 | 10.86005 | 114° | 82km/h | 12468m | -11.6m/s | -50.4°C | 3.4% | 185.8hPa | 2.6V | 03:08:57 | 02:49:45 | 00:00:00 | |
| DF8AY | 2026-09-02 12:40:34 | 52.68417 | 10.86005 | 115° | 82km/h | 12468m | -11.6m/s | -50.4°C | 0% | 185.8hPa | 2.6V | 03:10:24 | 02:49:45 | 00:00:00 | |
| BIOWL1-15 | 2026-09-02 12:40:34 | 52.68433 | 10.85942 | 113° | 82km/h | 12492m | -13m/s | -50.5°C | 0% | 185.1hPa | 2.5V | 03:09:33 | 02:49:43 | 00:00:00 | |
| DF8AY-15 | 2026-09-02 12:40:34 | 52.68399 | 10.86066 | 117° | 82km/h | 12446m | -12.3m/s | -50.3°C | 3.5% | 186.4hPa | 2.5V | 00:00:00 | 02:49:47 | 00:00:00 | |
| DO2SHX-10 | 2026-09-02 12:40:32 | 52.68408 | 10.86036 | 116° | 82km/h | 12457m | -11.1m/s | -50.3°C | 3.5% | 186.0hPa | 2.5V | 00:00:00 | 02:49:46 | 00:00:00 | |
| DM0DOS-11 | 2026-09-02 12:40:30 | 52.68433 | 10.85942 | 112° | 82km/h | 12492m | -13m/s | -50.5°C | 3.4% | 185.1hPa | 2.5V | 03:08:59 | 02:49:43 | 00:00:00 | |
| AA1-15 | 2026-09-02 12:40:28 | 52.68449 | 10.85878 | 110° | 82km/h | 12517m | -12m/s | -50.5°C | 0% | 184.5hPa | 2.6V | 03:09:33 | 02:49:41 | 00:00:00 | |
| S3001 | 2026-09-02 12:40:28 | 52.68449 | 10.85878 | 110° | 80km/h | 12517m | -12.0m/s | -50.5°C | 1.1% | 184.5hPa | 2.6V | 00:00:00 | 00:00:00 | 00:00:00 | |
| DB0NH | 2026-09-02 12:40:27 | 52.68449 | 10.85878 | 111° | 82km/h | 12517m | -11.9m/s | -50.5°C | 3.4% | 184.4hPa | 2.6V | 00:00:00 | 02:49:41 | 00:00:00 | |
| DL1XH-15 | 2026-09-02 12:40:26 | 52.68489 | 10.85685 | 109° | 82km/h | 12586m | -11.4m/s | -50.3°C | 3.2% | 182.4hPa | 2.6V | 03:09:07 | 02:49:35 | 00:00:00 | |
| DF8AY | 2026-09-02 12:40:24 | 52.68526 | 10.85522 | 112° | 84km/h | 12643m | -11.5m/s | -50.2°C | 0% | 180.9hPa | 2.6V | 03:10:24 | 02:49:30 | 00:00:00 | |
| BIOWL1-15 | 2026-09-02 12:40:21 | 52.68489 | 10.85685 | 110° | 82km/h | 12586m | -11.4m/s | -50.3°C | 0% | 182.4hPa | 2.6V | 03:09:33 | 02:49:35 | 00:00:00 | |
| AA1-15 | 2026-09-02 12:40:17 | 52.68518 | 10.85555 | 112° | 84km/h | 12632m | -10.7m/s | -50.2°C | 0% | 181.1hPa | 2.6V | 03:09:33 | 02:49:31 | 00:00:00 | |
| SMARD9-10 | 2026-09-02 12:40:17 | 52.68510 | 10.85587 | 112° | 84km/h | 12622m | -10.9m/s | -50.4°C | 1.0% | 181.4hPa | 2.6V | 00:00:00 | 00:00:00 | 00:00:00 | |
| DO2SHX-10 | 2026-09-02 12:40:16 | 52.68526 | 10.85522 | 113° | 82km/h | 12643m | -11.4m/s | -50.2°C | 3.2% | 180.8hPa | 2.6V | 00:00:00 | 02:49:30 | 00:00:00 | |
| DM0DOS-11 | 2026-09-02 12:40:15 | 52.68589 | 10.85271 | 111° | 82km/h | 12736m | -10.9m/s | -50.7°C | 3.3% | 178.2hPa | 2.5V | 03:09:20 | 02:49:22 | 00:00:00 | |
| DL1XH-15 | 2026-09-02 12:40:15 | 52.68567 | 10.85366 | 111° | 80km/h | 12701m | -11.7m/s | -50.6°C | 3.3% | 179.3hPa | 2.6V | 03:09:17 | 02:49:25 | 00:00:00 | |
| DD8BA-10 | 2026-09-02 12:40:14 | 52.68542 | 10.85459 | 114° | 82km/h | 12666m | -11.3m/s | -50.3°C | 3.3% | 180.1hPa | 2.5V | 00:00:00 | 00:00:00 | 00:00:00 | |
| DF8AY-15 | 2026-09-02 12:40:13 | 52.68551 | 10.85428 | 114° | 80km/h | 12678m | -11.2m/s | -50.4°C | 3.3% | 179.9hPa | 2.5V | 00:00:00 | 02:49:27 | 00:00:00 | |
| HSKMA3-T | 2026-09-02 12:40:13 | 52.68559 | 10.85397 | 113° | 80km/h | 12689m | -12.2m/s | -50.5°C | 0% | 179.6hPa | 2.5V | 03:09:33 | 02:49:26 | 00:00:00 | |
| DO2SHX-10 | 2026-09-02 12:40:12 | 52.68559 | 10.85397 | 114° | 80km/h | 12689m | -12.2m/s | -50.5°C | 3.3% | 179.6hPa | 2.6V | 03:09:00 | 02:49:26 | 00:00:00 | |
| DB0DAN | 2026-09-02 12:40:10 | 52.68574 | 10.85335 | 111° | 78km/h | 12713m | -12.2m/s | -50.7°C | 1% | 178.91hPa | 2.6V | 00:00:00 | 00:00:00 | 00:00:00 | |
| DF8AY | 2026-09-02 12:40:09 | 52.68629 | 10.85111 | 114° | 84km/h | 12795m | -11.6m/s | -50.2°C | 0% | 176.6hPa | 2.5V | 03:10:24 | 02:49:17 | 00:00:00 | |
| AA1-15 | 2026-09-02 12:40:07 | 52.68597 | 10.85240 | 112° | 82km/h | 12747m | -12.5m/s | -50.6°C | 0% | 177.9hPa | 2.5V | 03:09:33 | 02:49:21 | 00:00:00 | |
| DL1XH-west | 2026-09-02 12:40:07 | 52.68604 | 10.85208 | 112° | 84km/h | 12760m | -12.3m/s | -50.6°C | 0% | 177.6hPa | 2.6V | 03:09:33 | 02:49:20 | 00:00:00 | |
| DF8AY | 2026-09-02 12:40:04 | 52.68680 | 10.84928 | 116° | 78km/h | 12866m | -12.3m/s | -49.7°C | 0% | 174.8hPa | 2.6V | 03:10:24 | 02:49:11 | 00:00:00 | |
| DM0DOS-11 | 2026-09-02 12:40:03 | 52.68663 | 10.84987 | 114° | 78km/h | 12842m | -12.6m/s | -49.6°C | 3% | 175.4hPa | 2.6V | 03:09:29 | 02:49:13 | 00:00:00 | |
| HSKMA3-T | 2026-09-02 12:40:01 | 52.68646 | 10.85048 | 114° | 82km/h | 12818m | -12.1m/s | -49.8°C | 0% | 176.1hPa | 2.5V | 03:09:33 | 02:49:15 | 00:00:00 | |
| BIOWL1-15 | 2026-09-02 12:39:59 | 52.68671 | 10.84957 | 115° | 78km/h | 12854m | -11.9m/s | -49.7°C | 0% | 175.1hPa | 2.6V | 03:09:33 | 02:49:12 | 00:00:00 | |
| AA1-15 | 2026-09-02 12:39:57 | 52.68689 | 10.84899 | 117° | 77km/h | 12878m | -12.5m/s | -49.7°C | 0% | 174.4hPa | 2.5V | 03:09:33 | 02:49:10 | 00:00:00 | |
| DL1XH-west | 2026-09-02 12:39:56 | 52.68725 | 10.84787 | 119° | 75km/h | 12928m | -11.6m/s | -49.6°C | 0% | 173.2hPa | 2.6V | 03:10:24 | 02:49:06 | 00:00:00 | |
| DB0DAN | 2026-09-02 12:39:55 | 52.68697 | 10.84870 | 118° | 73km/h | 12891m | -12.3m/s | -49.7°C | 0.8% | 174.1hPa | 2.5V | 00:00:00 | 00:00:00 | 00:00:00 | |
| DD8BA-10 | 2026-09-02 12:39:54 | 52.68707 | 10.84842 | 119° | 71km/h | 12903m | -12.7m/s | -49.7°C | 3.0% | 173.7hPa | 2.5V | 03:09:00 | 00:00:00 | 00:00:00 | |
| DO2SHX-10 | 2026-09-02 12:39:53 | 52.68716 | 10.84814 | 120° | 75km/h | 12916m | -12.8m/s | -49.6°C | 2.9% | 173.4hPa | 2.5V | 00:00:00 | 02:49:07 | 00:00:00 | |
| DL1XH-15 | 2026-09-02 12:39:52 | 52.68743 | 10.84734 | 117° | 71km/h | 12952m | -12.3m/s | -49.4°C | 2.8% | 172.5hPa | 2.5V | 03:09:38 | 02:49:04 | 00:00:00 | |
| HSKMA3-T | 2026-09-02 12:39:49 | 52.68752 | 10.84708 | 118° | 71km/h | 12964m | -12.4m/s | -49.4°C | 0% | 172.2hPa | 2.5V | 03:15:30 | 02:49:03 | 00:00:00 | |
| BIOWL1-15 | 2026-09-02 12:39:48 | 52.68760 | 10.84682 | 118° | 69km/h | 12976m | -12.4m/s | -49.4°C | 0% | 171.9hPa | 2.6V | 03:10:24 | 02:49:02 | 00:00:00 | |
| DF8AY | 2026-09-02 12:39:48 | 52.68768 | 10.84656 | 117° | 69km/h | 12988m | -12.5m/s | -49.4°C | 0% | 171.6hPa | 2.6V | 03:10:24 | 02:49:01 | 00:00:00 | |
| AM1SDL-15 | 2026-09-02 12:39:48 | 52.68760 | 10.84682 | 118° | 68km/h | 12976m | -12.3m/s | -49.3°C | 2.8% | 171.8hPa | 2.6V | 03:09:00 | 02:49:02 | 00:00:00 | |
| DL1XH1-15 | 2026-09-02 12:39:47 | 52.68806 | 10.84529 | 115° | 68km/h | 13049m | -12.1m/s | -49.5°C | 2.8% | 170hPa | 2.6V | 03:09:46 | 02:48:56 | 00:00:00 | |
| AA1-15 | 2026-09-02 12:39:46 | 52.68784 | 10.84605 | 117° | 68km/h | 13013m | -11.3m/s | -49.3°C | 0% | 170.9hPa | 2.5V | 03:10:24 | 02:48:59 | 00:00:00 | |
| GOEST3-10 | 2026-09-02 12:39:46 | 52.68776 | 10.84630 | 117° | 68km/h | 13001m | -12.1m/s | -49.3°C | 2.8% | 171.2hPa | 2.5V | 03:09:00 | 00:00:00 | 00:00:00 | |
| DL1XH-15 | 2026-09-02 12:39:45 | 52.68829 | 10.84454 | 116° | 69km/h | 13085m | -12.7m/s | -49.6°C | 2.8% | 169hPa | 2.5V | 03:09:49 | 02:48:53 | 00:00:00 | |
| DL1XH-west | 2026-09-02 12:39:45 | 52.68792 | 10.84580 | 116° | 68km/h | 13024m | -12.8m/s | -49.4°C | 0% | 170.6hPa | 2.5V | 03:10:24 | 02:48:58 | 00:00:00 | |
| HSKMA3-T | 2026-09-02 12:39:38 | 52.68837 | 10.84429 | 116° | 68km/h | 13098m | -13.2m/s | -49.6°C | 0% | 168.7hPa | 2.5V | 03:15:30 | 02:48:52 | 00:00:00 | |
| BIOWL1-15 | 2026-09-02 12:39:38 | 52.68911 | 10.84175 | 115° | 69km/h | 13219m | -13.5m/s | -50.3°C | 0% | 165.6hPa | 2.6V | 03:10:24 | 02:48:42 | 00:00:00 | |
| DF8AY | 2026-09-02 12:39:38 | 52.68852 | 10.84378 | 116° | 68km/h | 13123m | -12m/s | -49.6°C | 0% | 168.1hPa | 2.6V | 03:10:24 | 02:48:50 | 00:00:00 | |
| AA1-15 | 2026-09-02 12:39:36 | 52.68859 | 10.84353 | 116° | 68km/h | 13135m | -11m/s | -49.7°C | 0% | 167.8hPa | 2.6V | 03:10:24 | 02:48:49 | 00:00:00 | |
| DL1XH-west | 2026-09-02 12:39:34 | 52.68874 | 10.84303 | 116° | 68km/h | 13158m | -12.1m/s | -49.9°C | 0% | 167.2hPa | 2.5V | 03:10:24 | 02:48:47 | 00:00:00 | |
| DF8AY | 2026-09-02 12:39:28 | 52.68933 | 10.84097 | 114° | 69km/h | 13256m | -12m/s | -50.4°C | 0% | 164.7hPa | 2.5V | 03:10:24 | 02:48:39 | 00:00:00 | |
| DB0NH | 2026-09-02 12:39:27 | 52.68918 | 10.84149 | 115° | 69km/h | 13232m | -12.5m/s | -50.3°C | 3.0% | 165.3hPa | 2.5V | 00:00:00 | 02:48:41 | 00:00:00 | |
| DL1XH1-15 | 2026-09-02 12:39:26 | 52.68953 | 10.84018 | 111° | 69km/h | 13293m | -13.3m/s | -50.4°C | 3% | 163.8hPa | 2.6V | 03:10:06 | 02:48:36 | 00:00:00 | |
| AA1-15 | 2026-09-02 12:39:26 | 52.68946 | 10.84044 | 112° | 69km/h | 13280m | -12.2m/s | -50.3°C | 0% | 164.1hPa | 2.6V | 03:10:24 | 02:48:37 | 00:00:00 | |
| DB0DAN | 2026-09-02 12:39:25 | 52.68933 | 10.84097 | 114° | 66km/h | 13256m | -12m/s | -50.4°C | 0.8% | 164.68hPa | 2.5V | 00:00:00 | 00:00:00 | 00:00:00 | |
| DL1XH-west | 2026-09-02 12:39:23 | 52.68979 | 10.83910 | 111° | 69km/h | 13344m | -11.9m/s | -50.5°C | 0% | 162.5hPa | 2.6V | 03:10:24 | 02:48:32 | 00:00:00 | |
| DF8AY | 2026-09-02 12:39:16 | 52.68991 | 10.83856 | 110° | 69km/h | 13370m | -13.5m/s | -50.3°C | 0% | 161.9hPa | 2.5V | 03:10:24 | 02:48:30 | 00:00:00 | |
| AA1-15 | 2026-09-02 12:39:14 | 52.69007 | 10.83772 | 106° | 69km/h | 13408m | -11.6m/s | -50.2°C | 0% | 160.9hPa | 2.6V | 03:10:24 | 02:48:27 | 00:00:00 | |
| DL1XH-west | 2026-09-02 12:39:10 | 52.69021 | 10.83688 | 104° | 69km/h | 13444m | -11m/s | -50.3°C | 0% | 160hPa | 2.5V | 03:10:24 | 02:48:24 | 00:00:00 | |
| DB0DAN | 2026-09-02 12:39:10 | 52.69021 | 10.83688 | 104° | 66km/h | 13444m | -11m/s | -50.3°C | 0.8% | 159.99hPa | 2.5V | 00:00:00 | 00:00:00 | 00:00:00 | |
| FRANK-SWL | 2026-09-02 12:39:10 | 52.69017 | 10.83683 | 104° | 66km/h | 13444m | -11m/s | -50.3°C | 0.8% | 159.99hPa | 2.5V | 03:10:24 | 00:00:00 | 00:00:00 | |
| BIOWL1-15 | 2026-09-02 12:39:09 | 52.69033 | 10.83604 | 105° | 69km/h | 13479m | -10.9m/s | -50.3°C | 0% | 159.2hPa | 2.6V | 03:10:24 | 02:48:21 | 00:00:00 | |
| DF8AY | 2026-09-02 12:39:05 | 52.69042 | 10.83549 | 105° | 69km/h | 13503m | -13.7m/s | -50.4°C | 0% | 158.7hPa | 2.5V | 03:10:24 | 02:48:19 | 00:00:00 | |
| AA1-15 | 2026-09-02 12:39:03 | 52.69052 | 10.83492 | 107° | 71km/h | 13528m | -12.7m/s | -50.1°C | 0% | 158hPa | 2.5V | 03:11:15 | 02:48:17 | 00:00:00 | |
| DL1XH-west | 2026-09-02 12:39:00 | 52.69094 | 10.83293 | 111° | 71km/h | 13608m | -11.6m/s | -50.3°C | 0% | 156hPa | 2.5V | 03:11:15 | 02:48:10 | 00:00:00 | |
| TFSTFS | 2026-09-02 12:38:59 | 52.69075 | 10.83378 | 110° | 73km/h | 13575m | -11.9m/s | -49.9°C | 0.8% | 157.1hPa | 2.5V | 00:00:00 | 00:00:00 | 00:00:00 | |
| DB0NH | 2026-09-02 12:38:57 | 52.69088 | 10.83321 | 110° | 66km/h | 13597m | -10.8m/s | -50.1°C | 3.0% | 156.2hPa | 2.5V | 00:00:00 | 02:48:11 | 00:00:00 | |
| DL1XH1-15 | 2026-09-02 12:38:56 | 52.69123 | 10.83189 | 118° | 66km/h | 13655m | -12.5m/s | -50.3°C | 3.1% | 154.9hPa | 2.5V | 03:10:36 | 02:48:06 | 00:00:00 | |
| DF8AY | 2026-09-02 12:38:55 | 52.69116 | 10.83214 | 117° | 68km/h | 13643m | -11.1m/s | -50.4°C | 0% | 155.2hPa | 2.6V | 03:11:15 | 02:48:07 | 00:00:00 | |
| DL1XH-15 | 2026-09-02 12:38:55 | 52.69147 | 10.83119 | 117° | 62km/h | 13689m | -11m/s | -50.2°C | 3% | 154.1hPa | 2.6V | 03:10:39 | 02:48:03 | 00:00:00 | |
| AA1-15 | 2026-09-02 12:38:54 | 52.69131 | 10.83166 | 120° | 64km/h | 13667m | -11.7m/s | -50.2°C | 0% | 154.7hPa | 2.5V | 03:11:15 | 02:48:05 | 00:00:00 | |
| DL1XH-west | 2026-09-02 12:38:49 | 52.69169 | 10.83049 | 116° | 66km/h | 13724m | -13.1m/s | -50.4°C | 0% | 153.2hPa | 2.5V | 03:11:15 | 02:48:00 | 00:00:00 | |
| EDDB2-11 | 2026-09-02 12:38:48 | 52.69155 | 10.83096 | 117° | 62km/h | 13701m | -10.9m/s | -50.3°C | 0.8% | 153.8hPa | 2.6V | 00:00:00 | 00:00:00 | 00:00:00 | |
| DF8AY | 2026-09-02 12:38:45 | 52.69190 | 10.82976 | 115° | 62km/h | 13765m | -13.7m/s | -50.2°C | 0% | 152.3hPa | 2.6V | 03:11:15 | 02:47:57 | 00:00:00 | |
| AA1-15 | 2026-09-02 12:38:42 | 52.69203 | 10.82929 | 114° | 60km/h | 13792m | -12.8m/s | -50°C | 0% | 151.7hPa | 2.6V | 03:11:15 | 02:47:55 | 00:00:00 | |
| DM0DOS-11 | 2026-09-02 12:38:41 | 52.69216 | 10.82882 | 113° | 62km/h | 13818m | -12.3m/s | -49.9°C | 2.9% | 151.1hPa | 2.5V | 03:10:49 | 02:47:53 | 00:00:00 | |
| DL1XH-west | 2026-09-02 12:38:39 | 52.69222 | 10.82858 | 112° | 64km/h | 13831m | -13m/s | -50°C | 0% | 150.8hPa | 2.5V | 03:11:15 | 02:47:52 | 00:00:00 | |
| HSKMA3-T | 2026-09-02 12:38:32 | 52.69261 | 10.82676 | 107° | 69km/h | 13922m | -12.9m/s | -50.3°C | 0% | 148.7hPa | 2.6V | 03:15:30 | 02:47:45 | 00:00:00 | |
| BIOWL1-15 | 2026-09-02 12:38:32 | 52.69256 | 10.82703 | 108° | 68km/h | 13909m | -13.6m/s | -50.4°C | 0% | 149hPa | 2.6V | 03:12:06 | 02:47:46 | 00:00:00 | |
| DF8AY | 2026-09-02 12:38:32 | 52.69266 | 10.82649 | 106° | 69km/h | 13935m | -13.2m/s | -50.3°C | 0% | 148.4hPa | 2.6V | 03:11:15 | 02:47:44 | 00:00:00 | |
| DM0DOS-11 | 2026-09-02 12:38:31 | 52.69271 | 10.82621 | 105° | 69km/h | 13947m | -13.2m/s | -50.4°C | 3.1% | 148.1hPa | 2.5V | 03:10:59 | 02:47:43 | 00:00:00 | |
| AA1-15 | 2026-09-02 12:38:30 | 52.69271 | 10.82621 | 106° | 69km/h | 13948m | -13.2m/s | -50.4°C | 0% | 148.1hPa | 2.5V | 03:11:15 | 02:47:43 | 00:00:00 | |
| DL1XH-west | 2026-09-02 12:38:27 | 52.69285 | 10.82537 | 105° | 71km/h | 13986m | -12.7m/s | -50.5°C | 0% | 147.2hPa | 2.6V | 03:11:15 | 02:47:40 | 00:00:00 | |
| DB0NH | 2026-09-02 12:38:27 | 52.69280 | 10.82565 | 105° | 71km/h | 13973m | -13.0m/s | -50.4°C | 3.1% | 147.5hPa | 2.6V | 00:00:00 | 02:47:41 | 00:00:00 | |
| DB0DAN | 2026-09-02 12:38:25 | 52.69289 | 10.82508 | 105° | 69km/h | 13999m | -12.9m/s | -50.6°C | 0.8% | 146.93hPa | 2.6V | 00:00:00 | 00:00:00 | 00:00:00 | |
| BIOWL1-15 | 2026-09-02 12:38:22 | 52.69322 | 10.82329 | 109° | 75km/h | 14079m | -13.1m/s | -50.7°C | 0% | 145.1hPa | 2.6V | 03:12:06 | 02:47:33 | 00:00:00 | |
| DO2SHX-10 | 2026-09-02 12:38:22 | 52.69305 | 10.82418 | 107° | 75km/h | 14040m | -12.9m/s | -50.6°C | 3.1% | 146.0hPa | 2.5V | 00:00:00 | 02:47:36 | 00:00:00 | |
| DM0DOS-11 | 2026-09-02 12:38:21 | 52.69322 | 10.82329 | 108° | 75km/h | 14079m | -13.1m/s | -50.7°C | 3.2% | 145.1hPa | 2.6V | 03:11:09 | 02:47:33 | 00:00:00 | |
| DF8AY | 2026-09-02 12:38:19 | 52.69329 | 10.82299 | 110° | 75km/h | 14092m | -12.1m/s | -50.7°C | 0% | 144.9hPa | 2.6V | 03:11:15 | 02:47:32 | 00:00:00 | |
| DL1XH-west | 2026-09-02 12:38:17 | 52.69342 | 10.82241 | 113° | 77km/h | 14117m | -14.3m/s | -50.6°C | 0% | 144.4hPa | 2.5V | 03:11:15 | 02:47:30 | 00:00:00 | |
| AA1-15 | 2026-09-02 12:38:09 | 52.69421 | 10.82007 | 125° | 66km/h | 14239m | -13.2m/s | -50.5°C | 0% | 141.7hPa | 2.6V | 03:12:06 | 02:47:21 | 00:00:00 | |
| DF8AY | 2026-09-02 12:38:08 | 52.69411 | 10.82030 | 125° | 68km/h | 14226m | -13m/s | -50.5°C | 0% | 141.9hPa | 2.6V | 03:12:06 | 02:47:22 | 00:00:00 | |
| DL1XH-west | 2026-09-02 12:38:06 | 52.69430 | 10.81985 | 125° | 66km/h | 14252m | -13.4m/s | -50.5°C | 0% | 141.4hPa | 2.6V | 03:12:06 | 02:47:20 | 00:00:00 | |
| DO2SHX-10 | 2026-09-02 12:38:06 | 52.69430 | 10.81985 | 126° | 66km/h | 14252m | -13.3m/s | -50.4°C | 3.0% | 141.3hPa | 2.5V | 03:11:00 | 02:47:20 | 00:00:00 | |
| DL1XH1-15 | 2026-09-02 12:38:05 | 52.69468 | 10.81895 | 122° | 66km/h | 14306m | -13.5m/s | -50.7°C | 3.1% | 140.2hPa | 2.5V | 03:11:26 | 02:47:16 | 00:00:00 | |
| DF8AY | 2026-09-02 12:37:58 | 52.69502 | 10.81800 | 121° | 66km/h | 14355m | -12.5m/s | -50.7°C | 0% | 139.1hPa | 2.5V | 03:12:06 | 02:47:12 | 00:00:00 | |
| BIOWL1-15 | 2026-09-02 12:37:57 | 52.69558 | 10.81656 | 124° | 68km/h | 14439m | -14.6m/s | -50.9°C | 0% | 137.4hPa | 2.5V | 03:12:06 | 02:47:06 | 00:00:00 | |
| AA1-15 | 2026-09-02 12:37:57 | 52.69520 | 10.81752 | 121° | 68km/h | 14381m | -14.2m/s | -50.7°C | 0% | 138.6hPa | 2.6V | 03:12:06 | 02:47:10 | 00:00:00 | |
| DL1XH-west | 2026-09-02 12:37:55 | 52.69548 | 10.81680 | 125° | 69km/h | 14423m | -15.1m/s | -50.8°C | 0% | 137.8hPa | 2.5V | 03:12:06 | 02:47:07 | 00:00:00 | |
| DL1XH1-15 | 2026-09-02 12:37:53 | 52.69558 | 10.81656 | 123° | 68km/h | 14439m | -14.6m/s | -50.9°C | 3% | 137.4hPa | 2.5V | 03:11:36 | 02:47:06 | 00:00:00 | |
| BIOWL1-15 | 2026-09-02 12:37:48 | 52.69608 | 10.81544 | 125° | 64km/h | 14508m | -12.9m/s | -50.6°C | 0% | 135.9hPa | 2.6V | 03:12:06 | 02:47:01 | 00:00:00 | |
| AA1-15 | 2026-09-02 12:37:45 | 52.69626 | 10.81501 | 125° | 60km/h | 14535m | -14.2m/s | -50.6°C | 0% | 135.4hPa | 2.5V | 03:12:06 | 02:46:59 | 00:00:00 | |
| DL1XH-west | 2026-09-02 12:37:44 | 52.69644 | 10.81461 | 126° | 60km/h | 14562m | -13.5m/s | -50.4°C | 0% | 134.8hPa | 2.6V | 03:12:06 | 02:46:57 | 00:00:00 | |
| BIOWL1-15 | 2026-09-02 12:37:37 | 52.69695 | 10.81348 | 123° | 53km/h | 14643m | -11.2m/s | -50.8°C | 0% | 133.1hPa | 2.6V | 03:12:06 | 02:46:51 | 00:00:00 | |
| AA1-15 | 2026-09-02 12:37:35 | 52.69715 | 10.81292 | 119° | 53km/h | 14679m | -13.4m/s | -51.1°C | 0% | 132.4hPa | 2.5V | 03:12:06 | 02:46:48 | 00:00:00 | |
| DL1XH-west | 2026-09-02 12:37:33 | 52.69722 | 10.81273 | 119° | 51km/h | 14692m | -11.8m/s | -51.2°C | 0% | 132.1hPa | 2.5V | 03:12:06 | 02:46:47 | 00:00:00 | |
| DL1XH-15 | 2026-09-02 12:37:33 | 52.69745 | 10.81200 | 113° | 49km/h | 14740m | -13.2m/s | -51.2°C | 3% | 131.1hPa | 2.6V | 03:11:59 | 02:46:43 | 00:00:00 | |
| BIOWL1-15 | 2026-09-02 12:37:28 | 52.69760 | 10.81140 | 111° | 51km/h | 14781m | -16.1m/s | -50.9°C | 0% | 130.3hPa | 2.5V | 03:12:06 | 02:46:40 | 00:00:00 | |
| EDDB2-12 | 2026-09-02 12:37:28 | 52.69755 | 10.81161 | 111° | 51km/h | 14767m | -13.8m/s | -50.9°C | 0.7% | 130.6hPa | 2.5V | 00:00:00 | 00:00:00 | 00:00:00 | |
| DB0NH | 2026-09-02 12:37:27 | 52.69755 | 10.81160 | 112° | 57km/h | 14767m | -13.7m/s | -50.9°C | 2.9% | 130.5hPa | 2.5V | 00:00:00 | 02:46:41 | 00:00:00 | |
| DO2SHX-10 | 2026-09-02 12:37:26 | 52.69760 | 10.81140 | 111° | 53km/h | 14782m | -16.1m/s | -50.9°C | 3.0% | 130.3hPa | 2.5V | 00:00:00 | 02:46:40 | 00:00:00 | |
| DL1XH1-15 | 2026-09-02 12:37:24 | 52.69778 | 10.81059 | 109° | 51km/h | 14840m | -14.7m/s | -51°C | 3% | 129.2hPa | 2.6V | 03:12:06 | 02:46:36 | 00:00:00 | |
| AA1-15 | 2026-09-02 12:37:24 | 52.69774 | 10.81079 | 110° | 53km/h | 14825m | -15.2m/s | -50.9°C | 0% | 129.5hPa | 2.6V | 03:12:06 | 02:46:37 | 00:00:00 | |
| DL1XH-west | 2026-09-02 12:37:23 | 52.69782 | 10.81038 | 109° | 53km/h | 14855m | -14m/s | -51.1°C | 0% | 128.9hPa | 2.5V | 03:12:57 | 02:46:35 | 00:00:00 | |
| DO2SHX-10 | 2026-09-02 12:37:22 | 52.69778 | 10.81059 | 110° | 53km/h | 14841m | -14.7m/s | -51.0°C | 3.0% | 129.2hPa | 2.5V | 00:00:00 | 02:46:36 | 00:00:00 | |
| DM0DOS-11 | 2026-09-02 12:37:21 | 52.69790 | 10.80997 | 103° | 53km/h | 14883m | -12.8m/s | -51.3°C | 3.1% | 128.3hPa | 2.5V | 03:12:09 | 02:46:33 | 00:00:00 | |
| BUE01 | 2026-09-02 12:37:20 | 52.69787 | 10.81018 | 106° | 51km/h | 14870m | -14.6m/s | -51.2°C | 0.6% | 128.7hPa | 2.6V | 00:00:00 | 00:00:00 | 00:00:00 | |
| DO2SHX-10 | 2026-09-02 12:37:19 | 52.69790 | 10.80997 | 104° | 53km/h | 14883m | -12.8m/s | -51.3°C | 3.1% | 128.3hPa | 2.6V | 00:00:00 | 02:46:33 | 00:00:00 | |
| DL1XH1-15 | 2026-09-02 12:37:18 | 52.69802 | 10.80834 | 96° | 57km/h | 14974m | -13.8m/s | -52°C | 3.2% | 126.6hPa | 2.6V | 03:12:16 | 02:46:26 | 00:00:00 | |
| DF8AY | 2026-09-02 12:37:18 | 52.69814 | 10.80741 | 105° | 57km/h | 15030m | -14m/s | -51.7°C | 0% | 125.5hPa | 2.5V | 03:12:57 | 02:46:22 | 00:00:00 | |
| BIOWL1-15 | 2026-09-02 12:37:16 | 52.69797 | 10.80930 | 97° | 57km/h | 14923m | -12.7m/s | -51.7°C | 0% | 127.5hPa | 2.6V | 03:12:57 | 02:46:30 | 00:00:00 | |
| DL1XH-west | 2026-09-02 12:37:13 | 52.69803 | 10.80834 | 97° | 57km/h | 14974m | -13.9m/s | -52°C | 0% | 126.6hPa | 2.6V | 03:12:57 | 02:46:26 | 00:00:00 | |
| DO2SHX-10 | 2026-09-02 12:37:12 | 52.69803 | 10.80834 | 97° | 57km/h | 14975m | -13.8m/s | -51.9°C | 3.2% | 126.5hPa | 2.6V | 00:00:00 | 02:46:26 | 00:00:00 | |
| GOEST3-10 | 2026-09-02 12:37:11 | 52.69805 | 10.80810 | 101° | 57km/h | 14989m | -13.9m/s | -51.9°C | 3.2% | 126.2hPa | 2.6V | 00:00:00 | 02:46:25 | 00:00:00 | |
| DO2SHX-10 | 2026-09-02 12:37:09 | 52.69811 | 10.80764 | 104° | 57km/h | 15016m | -14.5m/s | -51.7°C | 3.1% | 125.7hPa | 2.6V | 00:00:00 | 02:46:23 | 00:00:00 | |
| DL4BBY-15 | 2026-09-02 12:37:07 | 52.69818 | 10.80719 | 106° | 64km/h | 15044m | -14.8m/s | -51.5°C | 0% | 0hPa | 2.6V | 00:00:00 | 00:00:00 | 00:00:00 | |
| DO2SHX-10 | 2026-09-02 12:37:06 | 52.69821 | 10.80696 | 106° | 57km/h | 15059m | -13.5m/s | -51.4°C | 3.1% | 124.9hPa | 2.6V | 00:00:00 | 02:46:20 | 00:00:00 | |
| DL1XH1-15 | 2026-09-02 12:37:05 | 52.69837 | 10.80604 | 106° | 60km/h | 15116m | -14.4m/s | -51.3°C | 3.1% | 123.8hPa | 2.5V | 03:12:26 | 02:46:16 | 00:00:00 | |
| DF8AY | 2026-09-02 12:37:04 | 52.69829 | 10.80651 | 105° | 57km/h | 15087m | -14.3m/s | -51.3°C | 0% | 124.4hPa | 2.6V | 03:12:57 | 02:46:18 | 00:00:00 | |
| AA1-15 | 2026-09-02 12:37:02 | 52.69842 | 10.80579 | 107° | 62km/h | 15130m | -13.4m/s | -51.3°C | 0% | 123.5hPa | 2.5V | 03:12:57 | 02:46:15 | 00:00:00 | |
| DL1XH-west | 2026-09-02 12:37:02 | 52.69837 | 10.80603 | 106° | 60km/h | 15116m | -14.5m/s | -51.3°C | 0% | 123.8hPa | 2.5V | 03:12:57 | 02:46:16 | 00:00:00 | |
| EDDB2-12 | 2026-09-02 12:36:57 | 52.69867 | 10.80462 | 107° | 57km/h | 15200m | -15.1m/s | -51.4°C | 0.6% | 122.2hPa | 2.5V | 00:00:00 | 00:00:00 | 00:00:00 | |
| SONCRA | 2026-09-02 12:36:56 | 52.69867 | 10.80462 | 107° | 57km/h | 15200m | -15.1m/s | -51.4°C | 0.6% | 122.2hPa | 2.5V | 00:00:00 | 00:00:00 | 00:00:00 | |
| DB0DAN | 2026-09-02 12:36:55 | 52.69871 | 10.80439 | 106° | 55km/h | 15214m | -14m/s | -51.4°C | 0.6% | 121.91hPa | 2.5V | 00:00:00 | 00:00:00 | 00:00:00 | |
| DF8AY | 2026-09-02 12:36:54 | 52.69878 | 10.80391 | 103° | 62km/h | 15241m | -13.3m/s | -51.2°C | 0% | 121.4hPa | 2.6V | 03:12:57 | 02:46:07 | 00:00:00 | |
| DO2SHX-10 | 2026-09-02 12:36:54 | 52.69874 | 10.80415 | 104° | 62km/h | 15228m | -13.6m/s | -51.3°C | 3.1% | 121.6hPa | 2.6V | 00:00:00 | 02:46:08 | 00:00:00 | |
| DL1XH1-15 | 2026-09-02 12:36:53 | 52.69881 | 10.80365 | 101° | 64km/h | 15254m | -14.7m/s | -51.1°C | 3.1% | 121.2hPa | 2.6V | 03:12:36 | 02:46:06 | 00:00:00 | |
| BIOWL1-15 | 2026-09-02 12:36:52 | 52.69920 | 10.80061 | 104° | 68km/h | 15416m | -14.3m/s | -50.5°C | 0% | 118.2hPa | 2.6V | 03:12:57 | 02:45:55 | 00:00:00 | |
| AA1-15 | 2026-09-02 12:36:51 | 52.69888 | 10.80310 | 101° | 69km/h | 15284m | -15.9m/s | -51.1°C | 0% | 120.7hPa | 2.6V | 03:12:57 | 02:46:04 | 00:00:00 | |
| DO2SHX-10 | 2026-09-02 12:36:51 | 52.69884 | 10.80338 | 102° | 69km/h | 15269m | -14.6m/s | -51.0°C | 3.0% | 120.9hPa | 2.5V | 03:12:00 | 02:46:05 | 00:00:00 | |
| DM0DOS-11 | 2026-09-02 12:36:50 | 52.69891 | 10.80282 | 100° | 71km/h | 15299m | -13.9m/s | -51.1°C | 3.1% | 120.3hPa | 2.5V | 03:12:39 | 02:46:03 | 00:00:00 | |
| S3001 | 2026-09-02 12:36:50 | 52.69888 | 10.80310 | 100° | 69km/h | 15284m | -15.9m/s | -51.1°C | 0.6% | 120.7hPa | 2.5V | 00:00:00 | 00:00:00 | 00:00:00 | |
| BUE01 | 2026-09-02 12:36:49 | 52.69891 | 10.80282 | 100° | 69km/h | 15299m | -13.9m/s | -51.1°C | 0.6% | 120.3hPa | 2.5V | 00:00:00 | 00:00:00 | 00:00:00 | |
| DO2SHX-10 | 2026-09-02 12:36:48 | 52.69894 | 10.80253 | 102° | 69km/h | 15313m | -14.7m/s | -51.1°C | 3.1% | 120.0hPa | 2.5V | 00:00:00 | 02:46:02 | 00:00:00 | |
| DL1XH1-15 | 2026-09-02 12:36:47 | 52.69920 | 10.80061 | 104° | 68km/h | 15416m | -14.3m/s | -50.5°C | 3% | 118.2hPa | 2.6V | 03:12:47 | 02:45:55 | 00:00:00 | |
| DF7PN | 2026-09-02 12:36:47 | 52.69897 | 10.80225 | 101° | 68km/h | 15328m | -14.4m/s | -51.3°C | 0.6% | 119.8hPa | 2.5V | 00:00:00 | 00:00:00 | 00:00:00 | |
| SMARD9-15 | 2026-09-02 12:36:45 | 52.69908 | 10.80143 | 102° | 66km/h | 15371m | -15.5m/s | -51.1°C | 0.6% | 119.1hPa | 2.5V | 00:00:00 | 00:00:00 | 00:00:00 | |
| DM0DOS-11 | 2026-09-02 12:36:45 | 52.69930 | 10.80005 | 106° | 68km/h | 15445m | -14.3m/s | -50.3°C | 2.9% | 117.6hPa | 2.6V | 03:12:49 | 02:45:53 | 00:00:00 | |
| DF8AY | 2026-09-02 12:36:44 | 52.69912 | 10.80116 | 104° | 68km/h | 15386m | -14.9m/s | -51°C | 0% | 118.7hPa | 2.5V | 03:12:57 | 02:45:57 | 00:00:00 | |
| AA1-15 | 2026-09-02 12:36:40 | 52.69930 | 10.80005 | 107° | 68km/h | 15445m | -14.3m/s | -50.3°C | 0% | 117.6hPa | 2.6V | 03:12:57 | 02:45:53 | 00:00:00 | |
| BIOWL1-15 | 2026-09-02 12:36:33 | 52.69973 | 10.79822 | 117° | 51km/h | 15569m | -15.4m/s | -50°C | 0% | 115.5hPa | 2.5V | 03:12:57 | 02:45:45 | 00:00:00 | |
| DL1XH-west | 2026-09-02 12:36:30 | 52.69984 | 10.79784 | 117° | 51km/h | 15599m | -15m/s | -49.9°C | 0% | 114.9hPa | 2.5V | 03:13:48 | 02:45:43 | 00:00:00 | |
| AA1-15 | 2026-09-02 12:36:29 | 52.69990 | 10.79766 | 117° | 51km/h | 15613m | -13.9m/s | -49.8°C | 0% | 114.7hPa | 2.6V | 03:13:48 | 02:45:42 | 00:00:00 | |
| DF8AY-15 | 2026-09-02 12:36:29 | 52.69984 | 10.79784 | 117° | 42km/h | 15599m | -14.9m/s | -49.9°C | 2.8% | 114.9hPa | 2.5V | 00:00:00 | 02:45:43 | 00:00:00 | |
| DO2SHX-10 | 2026-09-02 12:36:27 | 52.69996 | 10.79747 | 117° | 49km/h | 15627m | -13.9m/s | -49.7°C | 2.8% | 114.4hPa | 2.5V | 03:13:00 | 02:45:41 | 00:00:00 | |
| GOEST3-10 | 2026-09-02 12:36:26 | 52.70001 | 10.79729 | 117° | 46km/h | 15641m | -14.2m/s | -49.6°C | 2.8% | 114.1hPa | 2.5V | 03:13:00 | 00:00:00 | 00:00:00 | |
| BIOWL1-15 | 2026-09-02 12:36:23 | 52.70068 | 10.79467 | 109° | 31km/h | 15911m | -15.9m/s | -50°C | 0% | 109.6hPa | 2.5V | 03:13:48 | 02:45:22 | 00:00:00 | |
| DL1XH-15 | 2026-09-02 12:36:23 | 52.70034 | 10.79609 | 113° | 42km/h | 15742m | -13.5m/s | -49.4°C | 2.7% | 112.4hPa | 2.6V | 03:13:09 | 02:45:33 | 00:00:00 | |
| DL1NUX | 2026-09-02 12:36:21 | 52.70046 | 10.79565 | 112° | 37km/h | 15787m | -14.9m/s | -49.4°C | 2.7% | 111.7hPa | 2.6V | 03:13:12 | 02:45:30 | 00:00:00 | |
| AA1-15 | 2026-09-02 12:36:18 | 52.70046 | 10.79565 | 112° | 37km/h | 15787m | -14.9m/s | -49.4°C | 0% | 111.7hPa | 2.6V | 03:13:48 | 02:45:30 | 00:00:00 | |
| DF8AY | 2026-09-02 12:36:17 | 52.70056 | 10.79526 | 110° | 31km/h | 15833m | -15.6m/s | -49.6°C | 0% | 110.9hPa | 2.5V | 03:13:48 | 02:45:27 | 00:00:00 | |
| BIOWL1-15 | 2026-09-02 12:36:12 | 52.70071 | 10.79455 | 110° | 33km/h | 15927m | -15.6m/s | -50°C | 0% | 109.3hPa | 2.5V | 03:13:48 | 02:45:21 | 00:00:00 | |
| DL1NUX | 2026-09-02 12:36:11 | 52.70074 | 10.79442 | 107° | 33km/h | 15942m | -15.3m/s | -50.1°C | 2.8% | 109hPa | 2.5V | 03:13:22 | 02:45:20 | 00:00:00 | |
| DO2SHX-10 | 2026-09-02 12:36:11 | 52.70061 | 10.79502 | 108° | 29km/h | 15864m | -14.8m/s | -49.7°C | 2.8% | 110.4hPa | 2.6V | 00:00:00 | 02:45:25 | 00:00:00 | |
| DM0DOS-11 | 2026-09-02 12:36:10 | 52.70066 | 10.79479 | 107° | 31km/h | 15895m | -16.4m/s | -49.9°C | 2.8% | 109.9hPa | 2.6V | 03:13:19 | 02:45:23 | 00:00:00 | |
| DL1XH-west | 2026-09-02 12:36:09 | 52.70074 | 10.79442 | 108° | 33km/h | 15943m | -15.3m/s | -50.1°C | 0% | 109hPa | 2.5V | 03:13:48 | 02:45:20 | 00:00:00 | |
| DF8AY | 2026-09-02 12:36:06 | 52.70086 | 10.79378 | 104° | 31km/h | 16016m | -15.7m/s | -50.2°C | 0% | 107.8hPa | 2.5V | 03:13:48 | 02:45:15 | 00:00:00 | |
| AA1-15 | 2026-09-02 12:36:05 | 52.70079 | 10.79416 | 108° | 33km/h | 15971m | -14m/s | -50.1°C | 0% | 108.5hPa | 2.6V | 03:13:48 | 02:45:18 | 00:00:00 | |
| DO2SHX-10 | 2026-09-02 12:36:04 | 52.70079 | 10.79416 | 108° | 33km/h | 15972m | -14.0m/s | -50.1°C | 2.9% | 108.5hPa | 2.5V | 00:00:00 | 02:45:18 | 00:00:00 | |
| DM0DOS-11 | 2026-09-02 12:36:03 | 52.70090 | 10.79354 | 107° | 31km/h | 16047m | -14.8m/s | -50.3°C | 2.9% | 107.3hPa | 2.5V | 03:13:29 | 02:45:13 | 00:00:00 | |
| BIOWL1-15 | 2026-09-02 12:35:58 | 52.70107 | 10.79253 | 101° | 31km/h | 16170m | -17.1m/s | -50.6°C | 0% | 105.4hPa | 2.6V | 03:13:48 | 02:45:05 | 00:00:00 | |
| DL1NUX | 2026-09-02 12:35:58 | 52.70097 | 10.79317 | 106° | 31km/h | 16092m | -14.2m/s | -50.5°C | 3% | 106.6hPa | 2.6V | 03:13:32 | 02:45:10 | 00:00:00 | |
| DL1XH-west | 2026-09-02 12:35:56 | 52.70097 | 10.79317 | 106° | 31km/h | 16092m | -14.2m/s | -50.5°C | 0% | 106.6hPa | 2.6V | 03:13:48 | 02:45:10 | 00:00:00 | |
| AA1-15 | 2026-09-02 12:35:54 | 52.70102 | 10.79291 | 107° | 33km/h | 16121m | -15.7m/s | -50.6°C | 0% | 106hPa | 2.5V | 03:13:48 | 02:45:08 | 00:00:00 | |
| DO2SHX-10 | 2026-09-02 12:35:54 | 52.70101 | 10.79291 | 108° | 33km/h | 16121m | -15.6m/s | -50.5°C | 2.9% | 106.0hPa | 2.5V | 00:00:00 | 02:45:08 | 00:00:00 | |
| DL1XH1-15 | 2026-09-02 12:35:53 | 52.70105 | 10.79266 | 101° | 33km/h | 16153m | -17.8m/s | -50.6°C | 2.9% | 105.6hPa | 2.5V | 03:13:36 | 02:45:06 | 00:00:00 | |
| DD8BA-10 | 2026-09-02 12:35:53 | 52.70103 | 10.79279 | 103° | 29km/h | 16137m | -16.2m/s | -50.5°C | 2.9% | 105.8hPa | 2.6V | 03:13:00 | 00:00:00 | 00:00:00 | |
| DM0DOS-11 | 2026-09-02 12:35:51 | 52.70110 | 10.79227 | 101° | 31km/h | 16202m | -16.3m/s | -50.7°C | 2.9% | 104.8hPa | 2.6V | 03:13:39 | 02:45:03 | 00:00:00 | |
| DO2SHX-10 | 2026-09-02 12:35:51 | 52.70107 | 10.79253 | 102° | 31km/h | 16171m | -17.0m/s | -50.6°C | 2.9% | 105.3hPa | 2.6V | 00:00:00 | 02:45:05 | 00:00:00 | |
| DF8AY-15 | 2026-09-02 12:35:49 | 52.70110 | 10.79227 | 102° | 31km/h | 16202m | -16.2m/s | -50.7°C | 2.9% | 104.7hPa | 2.5V | 00:00:00 | 02:45:03 | 00:00:00 | |
| DL1NUX | 2026-09-02 12:35:48 | 52.70114 | 10.79192 | 101° | 27km/h | 16249m | -16.2m/s | -50.8°C | 2.9% | 104.1hPa | 2.5V | 03:13:42 | 02:45:00 | 00:00:00 | |
| DL1XH1-15 | 2026-09-02 12:35:48 | 52.70118 | 10.79136 | 86° | 27km/h | 16329m | -16.8m/s | -51.2°C | 3% | 102.8hPa | 2.6V | 03:13:47 | 02:44:55 | 00:00:00 | |
| BIOWL1-15 | 2026-09-02 12:35:47 | 52.70114 | 10.79192 | 102° | 27km/h | 16249m | -16.2m/s | -50.8°C | 0% | 104.1hPa | 2.5V | 03:13:48 | 02:45:00 | 00:00:00 | |
| BUE01 | 2026-09-02 12:35:47 | 52.70113 | 10.79203 | 100° | 27km/h | 16233m | -16.2m/s | -50.8°C | 0.6% | 104.3hPa | 2.6V | 00:00:00 | 00:00:00 | 00:00:00 | |
| DL1XH-west | 2026-09-02 12:35:46 | 52.70118 | 10.79148 | 92° | 27km/h | 16312m | -16.6m/s | -51°C | 0% | 103hPa | 2.6V | 03:13:48 | 02:44:56 | 00:00:00 | |
| BIOWL9-15 | 2026-09-02 12:35:46 | 52.70117 | 10.79170 | 100° | 26km/h | 16280m | -15.5m/s | -50.9°C | 0.6% | 103.5hPa | 2.6V | 00:00:00 | 00:00:00 | 00:00:00 | |
| HTAHTA | 2026-09-02 12:35:45 | 52.70117 | 10.79170 | 100° | 26km/h | 16280m | -15.5m/s | -50.9°C | 0.6% | 103.5hPa | 2.6V | 00:00:00 | 00:00:00 | 00:00:00 | |
| AA1-15 | 2026-09-02 12:35:44 | 52.70118 | 10.79136 | 86° | 27km/h | 16329m | -16.8m/s | -51.2°C | 0% | 102.8hPa | 2.6V | 03:13:48 | 02:44:55 | 00:00:00 | |
| DO2SHX-10 | 2026-09-02 12:35:44 | 52.70117 | 10.79169 | 101° | 27km/h | 16281m | -15.5m/s | -50.8°C | 2.9% | 103.4hPa | 2.6V | 00:00:00 | 02:44:58 | 00:00:00 | |
| SMARD9-15 | 2026-09-02 12:35:43 | 52.70118 | 10.79148 | 92° | 26km/h | 16312m | -16.6m/s | -51.0°C | 0.6% | 103.0hPa | 2.6V | 00:00:00 | 00:00:00 | 00:00:00 | |
| GOEST3-10 | 2026-09-02 12:35:42 | 52.70118 | 10.79136 | 87° | 31km/h | 16329m | -16.7m/s | -51.1°C | 3.0% | 102.8hPa | 2.6V | 00:00:00 | 02:44:55 | 00:00:00 | |
| TFSTFS | 2026-09-02 12:35:40 | 52.70118 | 10.79136 | 87° | 27km/h | 16329m | -16.8m/s | -51.2°C | 0.6% | 102.8hPa | 2.6V | 00:00:00 | 00:00:00 | 00:00:00 | |
| DL1NUX | 2026-09-02 12:35:38 | 52.70110 | 10.79072 | 77° | 37km/h | 16405m | -14.5m/s | -51.3°C | 2.9% | 101.5hPa | 2.6V | 03:13:52 | 02:44:50 | 00:00:00 | |
| DL1XH-west | 2026-09-02 12:35:36 | 52.70105 | 10.78997 | 88° | 37km/h | 16482m | -15m/s | -51.7°C | 0% | 100.4hPa | 2.5V | 03:14:39 | 02:44:45 | 00:00:00 | |
| DL1XH1-15 | 2026-09-02 12:35:35 | 52.70105 | 10.78966 | 90° | 38km/h | 16514m | -16.2m/s | -51.6°C | 3% | 99.9hPa | 2.6V | 03:13:59 | 02:44:43 | 00:00:00 | |
| AA1-15 | 2026-09-02 12:35:34 | 52.70105 | 10.79012 | 86° | 37km/h | 16467m | -16.8m/s | -51.7°C | 0% | 100.6hPa | 2.5V | 03:14:39 | 02:44:46 | 00:00:00 | |
| DF8AY | 2026-09-02 12:35:31 | 52.70104 | 10.78949 | 89° | 38km/h | 16530m | -15.3m/s | -51.5°C | 0% | 99.7hPa | 2.6V | 03:14:39 | 02:44:42 | 00:00:00 | |
| DF8AY-15 | 2026-09-02 12:35:29 | 52.70104 | 10.78966 | 91° | 46km/h | 16514m | -16.2m/s | -51.5°C | 3.0% | 99.8hPa | 2.5V | 03:13:00 | 02:44:43 | 00:00:00 | |
| DO2SHX-10 | 2026-09-02 12:35:28 | 52.70104 | 10.78949 | 89° | 40km/h | 16530m | -15.3m/s | -51.5°C | 3.0% | 99.6hPa | 2.5V | 00:00:00 | 02:44:42 | 00:00:00 | |
| DB0NH | 2026-09-02 12:35:27 | 52.70104 | 10.78933 | 87° | 46km/h | 16545m | -15.2m/s | -51.5°C | 3.0% | 99.3hPa | 2.5V | 00:00:00 | 02:44:41 | 00:00:00 | |
| DB0DAN | 2026-09-02 12:35:25 | 52.70102 | 10.78898 | 83° | 42km/h | 16575m | -15.4m/s | -51.6°C | 0.6% | 98.93hPa | 2.5V | 00:00:00 | 00:00:00 | 00:00:00 | |
| DL1XH-west | 2026-09-02 12:35:25 | 52.70099 | 10.78860 | 81° | 47km/h | 16607m | -16.4m/s | -51.8°C | 0% | 98.4hPa | 2.6V | 03:14:39 | 02:44:37 | 00:00:00 | |
| HSKMA3-T | 2026-09-02 12:35:24 | 52.70101 | 10.78879 | 82° | 47km/h | 16591m | -15.9m/s | -51.7°C | 0% | 98.7hPa | 2.5V | 03:15:30 | 02:44:38 | 00:00:00 | |
| DL1XH1-15 | 2026-09-02 12:35:24 | 52.70093 | 10.78784 | 84° | 44km/h | 16669m | -15.2m/s | -52.1°C | 3.1% | 97.5hPa | 2.5V | 03:14:09 | 02:44:33 | 00:00:00 | |
| AA1-15 | 2026-09-02 12:35:23 | 52.70095 | 10.78821 | 83° | 47km/h | 16638m | -15.7m/s | -51.9°C | 0% | 98hPa | 2.6V | 03:14:39 | 02:44:35 | 00:00:00 | |
| BIOWL1-15 | 2026-09-02 12:35:23 | 52.70077 | 10.78613 | 86° | 57km/h | 16809m | -15.5m/s | -52.9°C | 0% | 95.4hPa | 2.5V | 03:14:39 | 02:44:24 | 00:00:00 | |
| DO2SHX-10 | 2026-09-02 12:35:22 | 52.70097 | 10.78840 | 82° | 47km/h | 16623m | -15.5m/s | -51.8°C | 3.1% | 98.2hPa | 2.6V | 03:14:00 | 02:44:36 | 00:00:00 | |
| SO1NDE-10 | 2026-09-02 12:35:21 | 52.70095 | 10.78821 | 84° | 46km/h | 16638m | -15.6m/s | -51.8°C | 3.1% | 97.9hPa | 2.6V | 00:00:00 | 02:44:35 | 00:00:00 | |
| DL1NUX | 2026-09-02 12:35:19 | 52.70089 | 10.78732 | 78° | 42km/h | 16716m | -16.5m/s | -52.4°C | 3.1% | 96.8hPa | 2.6V | 03:14:12 | 02:44:30 | 00:00:00 | |
| HSKMA3-T | 2026-09-02 12:35:14 | 52.70082 | 10.78678 | 78° | 49km/h | 16762m | -14.8m/s | -52.8°C | 0% | 96.1hPa | 2.6V | 03:15:30 | 02:44:27 | 00:00:00 | |
| DL1XH1-15 | 2026-09-02 12:35:13 | 52.70076 | 10.78589 | 89° | 58km/h | 16825m | -15.9m/s | -53°C | 3.4% | 95.2hPa | 2.6V | 03:14:19 | 02:44:23 | 00:00:00 | |
| DL1XH-west | 2026-09-02 12:35:13 | 52.70078 | 10.78636 | 84° | 55km/h | 16793m | -16.5m/s | -52.9°C | 0% | 95.7hPa | 2.5V | 03:14:39 | 02:44:25 | 00:00:00 | |
| AA1-15 | 2026-09-02 12:35:12 | 52.70080 | 10.78658 | 80° | 51km/h | 16777m | -15.4m/s | -52.8°C | 0% | 95.9hPa | 2.5V | 03:14:39 | 02:44:26 | 00:00:00 | |
| DL1XH-15 | 2026-09-02 12:35:12 | 52.70076 | 10.78565 | 91° | 57km/h | 16841m | -15.8m/s | -53°C | 3.4% | 94.9hPa | 2.6V | 03:14:20 | 02:44:22 | 00:00:00 | |
| SMARD9-15 | 2026-09-02 12:35:12 | 52.70078 | 10.78636 | 83° | 55km/h | 16793m | -16.5m/s | -52.9°C | 0.6% | 95.7hPa | 2.6V | 00:00:00 | 00:00:00 | 00:00:00 | |
| DL1NUX | 2026-09-02 12:35:11 | 52.70077 | 10.78520 | 92° | 53km/h | 16873m | -16.1m/s | -52.9°C | 3.3% | 94.5hPa | 2.6V | 03:14:22 | 02:44:20 | 00:00:00 | |
| BIOWL1-15 | 2026-09-02 12:35:11 | 52.70076 | 10.78589 | 89° | 58km/h | 16825m | -15.9m/s | -53°C | 0% | 95.2hPa | 2.6V | 03:14:39 | 02:44:23 | 00:00:00 | |
| DB0DAN | 2026-09-02 12:35:10 | 52.70077 | 10.78613 | 86° | 55km/h | 16809m | -15.5m/s | -52.9°C | 0.6% | 95.42hPa | 2.5V | 00:00:00 | 00:00:00 | 00:00:00 | |
| DF8AY | 2026-09-02 12:35:08 | 52.70076 | 10.78542 | 92° | 55km/h | 16856m | -16.1m/s | -52.9°C | 0% | 94.7hPa | 2.6V | 03:14:39 | 02:44:21 | 00:00:00 | |
| DL4BBY-15 | 2026-09-02 12:35:07 | 52.70077 | 10.78542 | 92° | 47km/h | 16857m | -16.1m/s | -52.7°C | 0% | 0hPa | 2.6V | 00:00:00 | 00:00:00 | 00:00:00 | |
| DO2SHX-10 | 2026-09-02 12:35:06 | 52.70077 | 10.78519 | 93° | 47km/h | 16873m | -16.1m/s | -52.8°C | 3.3% | 94.5hPa | 2.6V | 00:00:00 | 02:44:20 | 00:00:00 | |
| DB0UT-7 | 2026-09-02 12:35:04 | 52.70079 | 10.78478 | 93° | 47km/h | 16903m | -15.1m/s | -52.6°C | 3.3% | 94.0hPa | 2.6V | 00:00:00 | 00:00:00 | 00:00:00 | |
| DL1XH1-15 | 2026-09-02 12:35:03 | 52.70078 | 10.78394 | 88° | 38km/h | 16983m | -17m/s | -52.2°C | 3.1% | 92.9hPa | 2.6V | 03:14:29 | 02:44:13 | 00:00:00 | |
| AA1-15 | 2026-09-02 12:35:02 | 52.70079 | 10.78442 | 89° | 42km/h | 16935m | -16m/s | -52.3°C | 0% | 93.6hPa | 2.6V | 03:14:39 | 02:44:16 | 00:00:00 | |
| DO2SHX-10 | 2026-09-02 12:35:02 | 52.70079 | 10.78442 | 89° | 40km/h | 16935m | -16.0m/s | -52.3°C | 3.1% | 93.6hPa | 2.6V | 00:00:00 | 02:44:16 | 00:00:00 | |
| GOEST3-10 | 2026-09-02 12:35:01 | 52.70079 | 10.78426 | 87° | 38km/h | 16951m | -15.7m/s | -52.2°C | 3.1% | 93.3hPa | 2.5V | 00:00:00 | 02:44:15 | 00:00:00 | |
| DM0DOS-11 | 2026-09-02 12:34:59 | 52.70078 | 10.78378 | 87° | 38km/h | 17000m | -16.9m/s | -52.2°C | 3.1% | 92.7hPa | 2.5V | 03:14:30 | 02:44:12 | 00:00:00 | |
| DF8AY | 2026-09-02 12:34:57 | 52.70078 | 10.78362 | 91° | 40km/h | 17017m | -16.4m/s | -52.3°C | 0% | 92.5hPa | 2.5V | 03:14:39 | 02:44:11 | 00:00:00 | |
| DL4XJ-10 | 2026-09-02 12:34:57 | 52.70077 | 10.78362 | 91° | 49km/h | 17017m | -16.3m/s | -52.1°C | 0% | 0hPa | 2.6V | 00:00:00 | 00:00:00 | 00:00:00 | |
| DO2SHX-10 | 2026-09-02 12:34:56 | 52.70078 | 10.78345 | 90° | 42km/h | 17033m | -14.7m/s | -52.3°C | 3.2% | 92.1hPa | 2.6V | 03:14:00 | 02:44:10 | 00:00:00 | |
| DM0DOS-11 | 2026-09-02 12:34:53 | 52.70076 | 10.78205 | 82° | 44km/h | 17160m | -16.1m/s | -51.8°C | 3.2% | 90.4hPa | 2.6V | 03:14:40 | 02:44:02 | 00:00:00 | |
| DL1XH1-15 | 2026-09-02 12:34:53 | 52.70078 | 10.78224 | 81° | 44km/h | 17144m | -16.6m/s | -51.7°C | 3.2% | 90.6hPa | 2.5V | 03:14:39 | 02:44:03 | 00:00:00 | |
| DL1XH-west | 2026-09-02 12:34:52 | 52.70079 | 10.78259 | 90° | 42km/h | 17111m | -17m/s | -51.7°C | 0% | 91.1hPa | 2.5V | 03:14:39 | 02:44:05 | 00:00:00 | |
| BIOWL1-15 | 2026-09-02 12:34:51 | 52.70075 | 10.78052 | 98° | 58km/h | 17283m | -19.1m/s | -51.9°C | 0% | 88.7hPa | 2.6V | 03:15:30 | 02:43:55 | 00:00:00 | |
| DL1NUX | 2026-09-02 12:34:51 | 52.70073 | 10.78167 | 83° | 49km/h | 17193m | -16m/s | -51.9°C | 3.1% | 89.9hPa | 2.6V | 03:14:42 | 02:44:00 | 00:00:00 | |
| DF8AY | 2026-09-02 12:34:48 | 52.70073 | 10.78167 | 84° | 49km/h | 17193m | -16m/s | -51.9°C | 0% | 89.9hPa | 2.6V | 03:15:30 | 02:44:00 | 00:00:00 | |
| S3001 | 2026-09-02 12:34:46 | 52.70072 | 10.78123 | 88° | 53km/h | 17226m | -18.6m/s | -52.0°C | 0.5% | 89.5hPa | 2.6V | 00:00:00 | 00:00:00 | 00:00:00 | |
| BUE01 | 2026-09-02 12:34:45 | 52.70072 | 10.78123 | 88° | 53km/h | 17226m | -18.6m/s | -52.0°C | 0.5% | 89.5hPa | 2.6V | 00:00:00 | 00:00:00 | 00:00:00 | |
| BIOWL9-15 | 2026-09-02 12:34:44 | 52.70072 | 10.78100 | 92° | 57km/h | 17245m | -19.1m/s | -52.1°C | 0.6% | 89.2hPa | 2.6V | 00:00:00 | 00:00:00 | 00:00:00 | |
| DL1XH1-15 | 2026-09-02 12:34:43 | 52.70079 | 10.78005 | 101° | 58km/h | 17319m | -17.5m/s | -51.3°C | 3% | 88.2hPa | 2.6V | 03:14:49 | 02:43:53 | 00:00:00 | |
| DL1XH-west | 2026-09-02 12:34:41 | 52.70077 | 10.78029 | 99° | 58km/h | 17301m | -17.9m/s | -51.7°C | 0% | 88.5hPa | 2.6V | 03:15:30 | 02:43:54 | 00:00:00 | |
| DL1NUX | 2026-09-02 12:34:41 | 52.70087 | 10.77940 | 96° | 49km/h | 17372m | -17.5m/s | -50.9°C | 2.9% | 87.5hPa | 2.5V | 03:14:52 | 02:43:50 | 00:00:00 | |
| DB0DAN | 2026-09-02 12:34:40 | 52.70077 | 10.78029 | 99° | 55km/h | 17301m | -17.9m/s | -51.7°C | 0.5% | 88.46hPa | 2.6V | 00:00:00 | 00:00:00 | 00:00:00 | |
| DM0DOS-11 | 2026-09-02 12:34:39 | 52.70082 | 10.77982 | 99° | 53km/h | 17337m | -18.1m/s | -51°C | 2.9% | 88hPa | 2.6V | 03:14:50 | 02:43:52 | 00:00:00 | |
| BIOWL1-15 | 2026-09-02 12:34:36 | 52.70087 | 10.77940 | 97° | 49km/h | 17372m | -17.5m/s | -50.9°C | 0% | 87.5hPa | 2.5V | 03:15:30 | 02:43:50 | 00:00:00 | |
| DF8AY | 2026-09-02 12:34:35 | 52.70091 | 10.77767 | 96° | 47km/h | 17530m | -18.7m/s | -50.7°C | 0% | 85.4hPa | 2.6V | 03:15:30 | 02:43:41 | 00:00:00 | |
| DB0UT-7 | 2026-09-02 12:34:34 | 52.70088 | 10.77900 | 92° | 46km/h | 17406m | -16.3m/s | -50.6°C | 2.9% | 87.0hPa | 2.6V | 03:14:00 | 02:43:48 | 00:00:00 | |
| DM0DOS-11 | 2026-09-02 12:34:33 | 52.70089 | 10.77786 | 95° | 47km/h | 17511m | -19.2m/s | -50.8°C | 2.9% | 85.6hPa | 2.6V | 03:15:00 | 02:43:42 | 00:00:00 | |
| DL1XH1-15 | 2026-09-02 12:34:33 | 52.70088 | 10.77806 | 93° | 46km/h | 17493m | -17.8m/s | -50.8°C | 2.9% | 85.9hPa | 2.7V | 03:14:59 | 02:43:43 | 00:00:00 | |
| DL1XH-west | 2026-09-02 12:34:31 | 52.70088 | 10.77806 | 93° | 46km/h | 17493m | -17.8m/s | -50.8°C | 0% | 85.9hPa | 2.7V | 03:15:30 | 02:43:43 | 00:00:00 | |
| DF7ER-10 | 2026-09-02 12:34:30 | 52.70088 | 10.77843 | 90° | 46km/h | 17457m | -17.8m/s | -50.6°C | 0.5% | 86.3hPa | 2.6V | 03:15:00 | 00:00:00 | 00:00:00 | |
| DO2SHX-10 | 2026-09-02 12:34:29 | 52.70088 | 10.77806 | 94° | 47km/h | 17493m | -17.7m/s | -50.8°C | 2.9% | 85.8hPa | 2.6V | 03:14:00 | 02:43:43 | 00:00:00 | |
| AM1SDL-15 | 2026-09-02 12:34:28 | 52.70089 | 10.77786 | 96° | 47km/h | 17511m | -19.1m/s | -50.8°C | 2.9% | 85.6hPa | 2.6V | 00:00:00 | 02:43:42 | 00:00:00 | |
| DL1NUX | 2026-09-02 12:34:27 | 52.70092 | 10.77747 | 98° | 47km/h | 17549m | -18.5m/s | -50.7°C | 2.9% | 85.2hPa | 2.6V | 03:15:02 | 02:43:40 | 00:00:00 | |
| BIOWL1-15 | 2026-09-02 12:34:25 | 52.70107 | 10.77615 | 99° | 49km/h | 17679m | -16.1m/s | -51.4°C | 0% | 83.4hPa | 2.6V | 03:15:30 | 02:43:33 | 00:00:00 | |
| DF8AY | 2026-09-02 12:34:24 | 52.70143 | 10.77405 | 107° | 40km/h | 17883m | -18.9m/s | -50.5°C | 0% | 80.9hPa | 2.6V | 03:15:30 | 02:43:22 | 00:00:00 | |
| DD8BA-10 | 2026-09-02 12:34:24 | 52.70098 | 10.77692 | 102° | 49km/h | 17605m | -18.5m/s | -50.9°C | 2.9% | 84.4hPa | 2.6V | 00:00:00 | 00:00:00 | 00:00:00 | |
| GOEST3-10 | 2026-09-02 12:34:22 | 52.70103 | 10.77654 | 101° | 49km/h | 17643m | -19.9m/s | -51.1°C | 3.0% | 83.9hPa | 2.6V | 00:00:00 | 02:43:35 | 00:00:00 | |
| DL1XH1-15 | 2026-09-02 12:34:21 | 52.70107 | 10.77615 | 98° | 49km/h | 17679m | -16.1m/s | -51.4°C | 3% | 83.4hPa | 2.6V | 03:15:09 | 02:43:33 | 00:00:00 | |
| DL1NUX | 2026-09-02 12:34:21 | 52.70116 | 10.77552 | 104° | 53km/h | 17732m | -18.7m/s | -51.5°C | 3% | 82.8hPa | 2.5V | 03:15:12 | 02:43:30 | 00:00:00 | |
| DF7ER-10 | 2026-09-02 12:34:20 | 52.70103 | 10.77654 | 101° | 46km/h | 17643m | -19.9m/s | -51.2°C | 0.5% | 84.0hPa | 2.5V | 03:15:00 | 00:00:00 | 00:00:00 | |
| DL1XH-15 | 2026-09-02 12:34:19 | 52.70109 | 10.77594 | 102° | 51km/h | 17696m | -18.1m/s | -51.4°C | 3% | 83.3hPa | 2.5V | 03:15:10 | 02:43:32 | 00:00:00 | |
| DL1XH-west | 2026-09-02 12:34:19 | 52.70109 | 10.77594 | 103° | 51km/h | 17696m | -18.1m/s | -51.4°C | 0% | 83.3hPa | 2.5V | 03:15:30 | 02:43:32 | 00:00:00 | |
| DO2SHX-10 | 2026-09-02 12:34:19 | 52.70107 | 10.77614 | 99° | 51km/h | 17679m | -16.0m/s | -51.3°C | 3.0% | 83.4hPa | 2.6V | 00:00:00 | 02:43:33 | 00:00:00 | |
| DL4XJ-10 | 2026-09-02 12:34:17 | 52.70112 | 10.77573 | 104° | 40km/h | 17714m | -18.4m/s | -51.3°C | 0% | 0hPa | 2.6V | 00:00:00 | 00:00:00 | 00:00:00 | |
| DO2SHX-10 | 2026-09-02 12:34:16 | 52.70116 | 10.77552 | 105° | 49km/h | 17733m | -18.7m/s | -51.5°C | 3.0% | 82.7hPa | 2.6V | 03:15:00 | 02:43:30 | 00:00:00 | |
| DF8AY | 2026-09-02 12:34:15 | 52.70165 | 10.77223 | 92° | 24km/h | 18141m | -18.1m/s | -50.8°C | 0% | 77.7hPa | 2.6V | 03:16:21 | 02:43:08 | 00:00:00 | |
| S3001 | 2026-09-02 12:34:15 | 52.70123 | 10.77511 | 104° | 46km/h | 17770m | -19.0m/s | -51.3°C | 0.5% | 82.3hPa | 2.5V | 00:00:00 | 00:00:00 | 00:00:00 | |
| DL1XH1-15 | 2026-09-02 12:34:14 | 52.70140 | 10.77421 | 107° | 42km/h | 17864m | -18.9m/s | -50.5°C | 2.8% | 81.1hPa | 2.5V | 03:15:19 | 02:43:23 | 00:00:00 | |
| HSKMA3-T | 2026-09-02 12:34:11 | 52.70133 | 10.77456 | 110° | 46km/h | 17827m | -20.4m/s | -50.8°C | 0% | 81.6hPa | 2.5V | 03:15:30 | 02:43:25 | 00:00:00 | |
| DL1NUX | 2026-09-02 12:34:11 | 52.70150 | 10.77374 | 110° | 37km/h | 17919m | -19.1m/s | -50.5°C | 2.8% | 80.4hPa | 2.6V | 03:15:22 | 02:43:20 | 00:00:00 | |
| BIOWL1-15 | 2026-09-02 12:34:10 | 52.70149 | 10.77374 | 110° | 37km/h | 17919m | -19.1m/s | -50.5°C | 0% | 80.4hPa | 2.6V | 03:15:30 | 02:43:20 | 00:00:00 | |
| DB0DAN | 2026-09-02 12:34:10 | 52.70137 | 10.77439 | 106° | 42km/h | 17845m | -18m/s | -50.6°C | 0.5% | 81.39hPa | 2.5V | 00:00:00 | 00:00:00 | 00:00:00 | |
| DL1XH-west | 2026-09-02 12:34:09 | 52.70146 | 10.77389 | 109° | 40km/h | 17901m | -18.1m/s | -50.5°C | 0% | 80.7hPa | 2.6V | 03:15:30 | 02:43:21 | 00:00:00 | |
| SONDE2-11 | 2026-09-02 12:34:08 | 52.70143 | 10.77405 | 106° | 38km/h | 17883m | -18.9m/s | -50.5°C | 0.5% | 80.9hPa | 2.5V | 00:00:00 | 00:00:00 | 00:00:00 | |
| DO2SHX-10 | 2026-09-02 12:34:07 | 52.70149 | 10.77374 | 111° | 37km/h | 17919m | -19.1m/s | -50.5°C | 2.8% | 80.4hPa | 2.5V | 00:00:00 | 02:43:20 | 00:00:00 | |
| DB0UT-7 | 2026-09-02 12:34:04 | 52.70156 | 10.77345 | 108° | 31km/h | 17957m | -19.3m/s | -50.7°C | 2.9% | 79.9hPa | 2.5V | 00:00:00 | 00:00:00 | 00:00:00 | |
| DO2SHX-10 | 2026-09-02 12:34:03 | 52.70158 | 10.77332 | 105° | 33km/h | 17976m | -19.0m/s | -50.9°C | 2.9% | 79.7hPa | 2.7V | 03:15:00 | 02:43:17 | 00:00:00 | |
| DL1XH1-15 | 2026-09-02 12:34:02 | 52.70163 | 10.77280 | 95° | 33km/h | 18050m | -19.1m/s | -51.2°C | 2.9% | 78.8hPa | 2.5V | 03:15:29 | 02:43:13 | 00:00:00 | |
| DL1NUX | 2026-09-02 12:34:01 | 52.70164 | 10.77243 | 93° | 26km/h | 18106m | -17.4m/s | -51°C | 2.9% | 78.1hPa | 2.7V | 03:15:32 | 02:43:10 | 00:00:00 | |
| DF8AY | 2026-09-02 12:34:00 | 52.70165 | 10.77205 | 86° | 24km/h | 18174m | -16.4m/s | -51°C | 0% | 77.3hPa | 2.5V | 03:16:21 | 02:43:06 | 00:00:00 | |
| DM0DOS-11 | 2026-09-02 12:34:00 | 52.70163 | 10.77267 | 92° | 31km/h | 18069m | -19.1m/s | -51.1°C | 2.9% | 78.6hPa | 2.5V | 03:15:30 | 02:43:12 | 00:00:00 | |
| HSKMA3-T | 2026-09-02 12:33:58 | 52.70163 | 10.77267 | 93° | 31km/h | 18069m | -19.1m/s | -51.2°C | 0% | 78.6hPa | 2.5V | 03:15:30 | 02:43:12 | 00:00:00 | |
| DL1XH-west | 2026-09-02 12:33:57 | 52.70164 | 10.77254 | 94° | 29km/h | 18088m | -19.5m/s | -51.1°C | 0% | 78.3hPa | 2.5V | 03:16:21 | 02:43:11 | 00:00:00 | |
| DL4XJ-10 | 2026-09-02 12:33:57 | 52.70164 | 10.77254 | 94° | 31km/h | 18088m | -19.4m/s | -51.0°C | 0% | 0hPa | 2.6V | 00:00:00 | 00:00:00 | 00:00:00 | |
| GOEST3-10 | 2026-09-02 12:33:56 | 52.70164 | 10.77243 | 94° | 24km/h | 18107m | -17.3m/s | -51.0°C | 2.9% | 78.1hPa | 2.6V | 00:00:00 | 00:00:00 | 00:00:00 | |
| DL1XH1-15 | 2026-09-02 12:33:54 | 52.70162 | 10.77160 | 86° | 33km/h | 18239m | -16.7m/s | -51.3°C | 3% | 76.5hPa | 2.6V | 03:15:40 | 02:43:02 | 00:00:00 | |
| DO2SHX-10 | 2026-09-02 12:33:54 | 52.70165 | 10.77223 | 93° | 22km/h | 18141m | -18.0m/s | -50.8°C | 2.9% | 77.6hPa | 2.6V | 00:00:00 | 02:43:08 | 00:00:00 | |
| DL1XH-15 | 2026-09-02 12:33:53 | 52.70162 | 10.77147 | 87° | 33km/h | 18256m | -17.6m/s | -51.3°C | 3.1% | 76.3hPa | 2.5V | 03:15:41 | 02:43:01 | 00:00:00 | |
| DD8BA-10 | 2026-09-02 12:33:53 | 52.70165 | 10.77214 | 93° | 29km/h | 18158m | -16.8m/s | -50.9°C | 2.9% | 77.4hPa | 2.5V | 03:15:00 | 00:00:00 | 00:00:00 | |
| DL1NUX | 2026-09-02 12:33:52 | 52.70162 | 10.77134 | 91° | 31km/h | 18273m | -17.4m/s | -51.3°C | 3% | 76.1hPa | 2.5V | 03:15:42 | 02:43:00 | 00:00:00 | |
| HSKMA3-T | 2026-09-02 12:33:49 | 52.70162 | 10.77160 | 87° | 33km/h | 18239m | -16.7m/s | -51.3°C | 0% | 76.5hPa | 2.6V | 03:16:21 | 02:43:02 | 00:00:00 | |
| DL1XH-west | 2026-09-02 12:33:47 | 52.70162 | 10.77147 | 87° | 33km/h | 18256m | -17.6m/s | -51.3°C | 0% | 76.3hPa | 2.5V | 03:16:21 | 02:43:01 | 00:00:00 | |
| DO2SHX-10 | 2026-09-02 12:33:47 | 52.70162 | 10.77147 | 88° | 33km/h | 18256m | -17.5m/s | -51.3°C | 3.1% | 76.3hPa | 2.6V | 00:00:00 | 02:43:01 | 00:00:00 | |
| GOEST3-10 | 2026-09-02 12:33:46 | 52.70162 | 10.77134 | 92° | 33km/h | 18273m | -17.4m/s | -51.3°C | 3.0% | 76.1hPa | 2.6V | 03:15:00 | 00:00:00 | 00:00:00 | |
| S3001 | 2026-09-02 12:33:44 | 52.70165 | 10.77094 | 105° | 33km/h | 18330m | -20.3m/s | -51.3°C | 0.5% | 75.5hPa | 2.6V | 00:00:00 | 00:00:00 | 00:00:00 | |
| BUE01 | 2026-09-02 12:33:43 | 52.70167 | 10.77081 | 107° | 33km/h | 18349m | -18.9m/s | -51.3°C | 0.5% | 75.3hPa | 2.6V | 00:00:00 | 00:00:00 | 00:00:00 | |
| BIOWL9-15 | 2026-09-02 12:33:42 | 52.70170 | 10.77067 | 104° | 33km/h | 18368m | -20.0m/s | 0°C | -1.0% | -1.0hPa | 2.6V | 00:00:00 | 00:00:00 | 00:00:00 | |
| DL1NUX | 2026-09-02 12:33:41 | 52.70175 | 10.76996 | 88° | 37km/h | 18467m | -20.5m/s | -51°C | 2.9% | 74hPa | 2.6V | 03:15:52 | 02:42:50 | 00:00:00 | |
| DL1XH1-15 | 2026-09-02 12:33:41 | 52.70173 | 10.77040 | 98° | 35km/h | 18408m | -20.6m/s | -51.4°C | 3% | 74.6hPa | 2.7V | 03:15:49 | 02:42:53 | 00:00:00 | |
| DO2SHX-10 | 2026-09-02 12:33:41 | 52.70169 | 10.77067 | 105° | 35km/h | 18368m | -20.0m/s | -51.3°C | 3.0% | 75.0hPa | 2.6V | 00:00:00 | 02:42:55 | 00:00:00 | |
| DL1XH-15 | 2026-09-02 12:33:39 | 52.70174 | 10.77025 | 96° | 35km/h | 18427m | -19.3m/s | -51.4°C | 3% | 74.4hPa | 2.6V | 03:15:50 | 02:42:52 | 00:00:00 | |
| HSKMA3-T | 2026-09-02 12:33:37 | 52.70175 | 10.77011 | 91° | 37km/h | 18447m | -19.7m/s | -51.3°C | 0% | 74.2hPa | 2.6V | 03:16:21 | 02:42:51 | 00:00:00 | |
| DL1XH-west | 2026-09-02 12:33:36 | 52.70175 | 10.76996 | 88° | 37km/h | 18467m | -20.5m/s | -51°C | 0% | 74hPa | 2.6V | 03:16:21 | 02:42:50 | 00:00:00 | |
| GOEST3-10 | 2026-09-02 12:33:36 | 52.70175 | 10.76996 | 89° | 37km/h | 18467m | -20.5m/s | -50.9°C | 2.9% | 73.9hPa | 2.6V | 00:00:00 | 00:00:00 | 00:00:00 | |
| DO2SHX-10 | 2026-09-02 12:33:34 | 52.70174 | 10.76966 | 85° | 37km/h | 18509m | -20.3m/s | -51.1°C | 2.9% | 73.4hPa | 2.5V | 00:00:00 | 02:42:48 | 00:00:00 | |
| DD8BA-10 | 2026-09-02 12:33:33 | 52.70174 | 10.76951 | 90° | 38km/h | 18528m | -18.9m/s | -51.2°C | 3.0% | 73.2hPa | 2.5V | 00:00:00 | 00:00:00 | 00:00:00 | |
| DM0DOS-11 | 2026-09-02 12:33:32 | 52.70179 | 10.76874 | 101° | 38km/h | 18623m | -19.8m/s | -50.9°C | 2.9% | 72.2hPa | 2.5V | 03:16:00 | 02:42:42 | 00:00:00 | |
| DL1NUX | 2026-09-02 12:33:31 | 52.70183 | 10.76841 | 100° | 38km/h | 18661m | -18.8m/s | -51°C | 3% | 71.7hPa | 2.7V | 03:16:02 | 02:42:40 | 00:00:00 | |
| HSKMA3-T | 2026-09-02 12:33:27 | 52.70181 | 10.76858 | 100° | 42km/h | 18642m | -19.3m/s | -50.9°C | 0% | 72hPa | 2.6V | 03:16:21 | 02:42:41 | 00:00:00 | |
| AA1-15 | 2026-09-02 12:33:26 | 52.70183 | 10.76841 | 100° | 38km/h | 18661m | -18.8m/s | -51°C | 0% | 71.7hPa | 2.7V | 03:16:21 | 02:42:40 | 00:00:00 | |
| DL1XH-west | 2026-09-02 12:33:25 | 52.70187 | 10.76810 | 101° | 38km/h | 18701m | -20.6m/s | -51.1°C | 0% | 71.3hPa | 2.6V | 03:16:21 | 02:42:38 | 00:00:00 | |
| DL1XH1-15 | 2026-09-02 12:33:24 | 52.70190 | 10.76729 | 84° | 40km/h | 18791m | -16.7m/s | -51.1°C | 3% | 70.3hPa | 2.7V | 03:16:09 | 02:42:33 | 00:00:00 | |
| DF8AY | 2026-09-02 12:33:24 | 52.70187 | 10.76694 | 79° | 44km/h | 18827m | -18.4m/s | -51.3°C | 0% | 70hPa | 2.5V | 03:16:21 | 02:42:31 | 00:00:00 | |
| DD8BA-10 | 2026-09-02 12:33:23 | 52.70188 | 10.76794 | 98° | 42km/h | 18721m | -19.7m/s | -50.9°C | 3.0% | 71.0hPa | 2.5V | 00:00:00 | 00:00:00 | 00:00:00 | |
| DL1NUX | 2026-09-02 12:33:21 | 52.70185 | 10.76676 | 78° | 44km/h | 18845m | -19.1m/s | -51.3°C | 3.1% | 69.7hPa | 2.5V | 03:16:12 | 02:42:30 | 00:00:00 | |
| HSKMA3-T | 2026-09-02 12:33:16 | 52.70185 | 10.76676 | 78° | 44km/h | 18845m | -19.1m/s | -51.3°C | 0% | 69.7hPa | 2.5V | 03:16:21 | 02:42:30 | 00:00:00 | |
| AA1-15 | 2026-09-02 12:33:15 | 52.70183 | 10.76658 | 79° | 46km/h | 18864m | -18.5m/s | -51.2°C | 0% | 69.5hPa | 2.7V | 03:16:21 | 02:42:29 | 00:00:00 | |
| DL1XH-west | 2026-09-02 12:33:14 | 52.70180 | 10.76621 | 83° | 44km/h | 18900m | -18.7m/s | -51°C | 0% | 69.1hPa | 2.6V | 03:16:21 | 02:42:27 | 00:00:00 | |
| S3001 | 2026-09-02 12:33:13 | 52.70179 | 10.76602 | 87° | 46km/h | 18919m | -18.9m/s | -50.9°C | 0.4% | 69.0hPa | 2.5V | 00:00:00 | 00:00:00 | 00:00:00 | |
| BUE01 | 2026-09-02 12:33:12 | 52.70180 | 10.76547 | 98° | 40km/h | 18972m | -19.1m/s | -50.6°C | 0.4% | 68.4hPa | 2.5V | 00:00:00 | 00:00:00 | 00:00:00 | |
| DL1NUX | 2026-09-02 12:33:11 | 52.70188 | 10.76502 | 111° | 33km/h | 19029m | -18.2m/s | -50.2°C | 2.8% | 67.8hPa | 2.5V | 03:16:22 | 02:42:20 | 00:00:00 | |
| BIOWL1-15 | 2026-09-02 12:33:09 | 52.70180 | 10.76547 | 98° | 40km/h | 18972m | -19.1m/s | -50.6°C | 0% | 68.4hPa | 2.7V | 03:16:21 | 02:42:23 | 00:00:00 | |
| DM0DOS-11 | 2026-09-02 12:33:09 | 52.70182 | 10.76531 | 102° | 38km/h | 18991m | -19.5m/s | -50.5°C | 2.9% | 68.2hPa | 2.7V | 03:16:20 | 02:42:22 | 00:00:00 | |
| HSKMA3-T | 2026-09-02 12:33:06 | 52.70188 | 10.76502 | 111° | 33km/h | 19029m | -18.2m/s | -50.3°C | 0% | 67.8hPa | 2.5V | 03:17:12 | 02:42:20 | 00:00:00 | |
| AA1-15 | 2026-09-02 12:33:04 | 52.70194 | 10.76478 | 115° | 29km/h | 19065m | -19.3m/s | -50°C | 0% | 67.4hPa | 2.5V | 03:17:12 | 02:42:18 | 00:00:00 | |
| DL1XH1-15 | 2026-09-02 12:33:04 | 52.70208 | 10.76431 | 112° | 22km/h | 19155m | -19.5m/s | -50.1°C | 2.8% | 66.5hPa | 2.5V | 03:16:29 | 02:42:13 | 00:00:00 | |
| DL1XH-west | 2026-09-02 12:33:03 | 52.70201 | 10.76458 | 118° | 26km/h | 19102m | -18m/s | -50°C | 0% | 67hPa | 2.7V | 03:17:12 | 02:42:16 | 00:00:00 | |
| DF8AY | 2026-09-02 12:33:02 | 52.70215 | 10.76308 | 90° | 26km/h | 19381m | -18.7m/s | -50.9°C | 0% | 64.2hPa | 2.5V | 03:17:12 | 02:42:01 | 00:00:00 | |
| DL1NUX | 2026-09-02 12:33:01 | 52.70214 | 10.76403 | 99° | 24km/h | 19211m | -18.9m/s | -50°C | 2.8% | 65.9hPa | 2.7V | 03:16:32 | 02:42:10 | 00:00:00 | |
| BIOWL1-15 | 2026-09-02 12:33:00 | 52.70214 | 10.76403 | 99° | 24km/h | 19211m | -18.9m/s | -50°C | 0% | 65.9hPa | 2.7V | 03:18:03 | 02:42:10 | 00:00:00 | |
| HSKMA3-T | 2026-09-02 12:32:54 | 52.70216 | 10.76372 | 90° | 27km/h | 19269m | -19.1m/s | -50.3°C | 0% | 65.3hPa | 2.7V | 03:17:12 | 02:42:07 | 00:00:00 | |
| DD8BA-10 | 2026-09-02 12:32:54 | 52.70216 | 10.76371 | 91° | 26km/h | 19269m | -19.1m/s | -50.3°C | 2.8% | 65.3hPa | 2.5V | 00:00:00 | 00:00:00 | 00:00:00 | |
| DM0DOS-11 | 2026-09-02 12:32:52 | 52.70215 | 10.76319 | 88° | 26km/h | 19363m | -18.8m/s | -50.9°C | 2.9% | 64.4hPa | 2.5V | 03:16:40 | 02:42:02 | 00:00:00 | |
| DL1NUX | 2026-09-02 12:32:52 | 52.70215 | 10.76297 | 88° | 24km/h | 19400m | -19.2m/s | -50.8°C | 2.9% | 64hPa | 2.7V | 03:16:42 | 02:42:00 | 00:00:00 | |
| DL1XH-west | 2026-09-02 12:32:51 | 52.70216 | 10.76350 | 85° | 26km/h | 19307m | -19m/s | -50.6°C | 0% | 65hPa | 2.6V | 03:17:12 | 02:42:05 | 00:00:00 | |
| DJ2DS-15 | 2026-09-02 12:32:51 | 52.70215 | 10.76329 | 90° | 24km/h | 19345m | -18.1m/s | -50.8°C | 0.5% | 64.6hPa | 2.5V | 00:00:00 | 00:00:00 | 00:00:00 | |
| DL1XH1-15 | 2026-09-02 12:32:50 | 52.70215 | 10.76329 | 90° | 26km/h | 19344m | -18.1m/s | -50.8°C | 2.9% | 64.6hPa | 2.5V | 03:16:39 | 02:42:03 | 00:00:00 | |
| SONCRA | 2026-09-02 12:32:48 | 52.70215 | 10.76319 | 88° | 26km/h | 19363m | -18.8m/s | -50.9°C | 0.4% | 64.4hPa | 2.5V | 00:00:00 | 00:00:00 | 00:00:00 | |
| DF8AY | 2026-09-02 12:32:44 | 52.70210 | 10.76223 | 76° | 24km/h | 19551m | -20.5m/s | -51.2°C | 0% | 62.6hPa | 2.5V | 03:17:12 | 02:41:52 | 00:00:00 | |
| DL1XH1-15 | 2026-09-02 12:32:44 | 52.70211 | 10.76233 | 77° | 24km/h | 19532m | -19.4m/s | -51°C | 2.9% | 62.7hPa | 2.6V | 03:16:49 | 02:41:53 | 00:00:00 | |
| HSKMA3-T | 2026-09-02 12:32:42 | 52.70214 | 10.76259 | 79° | 22km/h | 19475m | -18m/s | -51°C | 0% | 63.3hPa | 2.5V | 03:17:12 | 02:41:56 | 00:00:00 | |
| S3001 | 2026-09-02 12:32:42 | 52.70213 | 10.76250 | 77° | 22km/h | 19493m | -19.3m/s | -51.0°C | 0.4% | 63.1hPa | 2.5V | 00:00:00 | 00:00:00 | 00:00:00 | |
| DO2SHX-10 | 2026-09-02 12:32:41 | 52.70213 | 10.76250 | 78° | 24km/h | 19493m | -19.2m/s | -51.0°C | 2.9% | 63.0hPa | 2.5V | 00:00:00 | 02:41:55 | 00:00:00 | |
| DL1XH-15 | 2026-09-02 12:32:39 | 52.70210 | 10.76223 | 75° | 24km/h | 19551m | -20.5m/s | -51.2°C | 3% | 62.5hPa | 2.5V | 03:16:50 | 02:41:52 | 00:00:00 | |
| DL1XH-west | 2026-09-02 12:32:39 | 52.70211 | 10.76232 | 77° | 24km/h | 19532m | -19.4m/s | -51.1°C | 0% | 62.7hPa | 2.6V | 03:17:12 | 02:41:53 | 00:00:00 | |
| DL1NUX | 2026-09-02 12:32:39 | 52.70206 | 10.76206 | 69° | 20km/h | 19590m | -18.6m/s | -51.2°C | 3% | 62.2hPa | 2.7V | 03:16:52 | 02:41:50 | 00:00:00 | |
| BIOWL1-15 | 2026-09-02 12:32:35 | 52.70204 | 10.76189 | 70° | 22km/h | 19629m | -19.6m/s | -51.1°C | 0% | 61.8hPa | 2.6V | 03:18:03 | 02:41:48 | 00:00:00 | |
| AA1-15 | 2026-09-02 12:32:32 | 52.70198 | 10.76166 | 59° | 20km/h | 19688m | -19.6m/s | -51.1°C | 0% | 61.3hPa | 2.7V | 03:17:12 | 02:41:45 | 00:00:00 | |
| DL1NUX | 2026-09-02 12:32:31 | 52.70188 | 10.76121 | 79° | 29km/h | 19785m | -19m/s | -51.1°C | 2.9% | 60.3hPa | 2.7V | 03:17:02 | 02:41:40 | 00:00:00 | |
| DO2SHX-10 | 2026-09-02 12:32:31 | 52.70198 | 10.76166 | 60° | 22km/h | 19688m | -19.5m/s | -51.0°C | 2.9% | 61.2hPa | 2.5V | 03:16:00 | 02:41:45 | 00:00:00 | |
| DM0DOS-11 | 2026-09-02 12:32:30 | 52.70192 | 10.76142 | 73° | 22km/h | 19746m | -19.9m/s | -51.1°C | 3% | 60.7hPa | 2.5V | 03:17:00 | 02:41:42 | 00:00:00 | |
| DL1XH1-15 | 2026-09-02 12:32:30 | 52.70193 | 10.76150 | 66° | 22km/h | 19726m | -20.4m/s | -51.1°C | 3.1% | 60.9hPa | 2.7V | 03:16:59 | 02:41:43 | 00:00:00 | |
| DL1XH-west | 2026-09-02 12:32:29 | 52.70193 | 10.76150 | 67° | 22km/h | 19726m | -20.4m/s | -51.2°C | 0% | 60.9hPa | 2.7V | 03:17:12 | 02:41:43 | 00:00:00 | |
| DF8AY-15 | 2026-09-02 12:32:29 | 52.70193 | 10.76150 | 67° | 22km/h | 19726m | -20.4m/s | -51.1°C | 3.1% | 60.9hPa | 2.6V | 00:00:00 | 02:41:43 | 00:00:00 | |
| GOEST3-10 | 2026-09-02 12:32:28 | 52.70192 | 10.76142 | 74° | 27km/h | 19746m | -19.9m/s | -51.1°C | 3.0% | 60.6hPa | 2.6V | 00:00:00 | 02:41:42 | 00:00:00 | |
| DB0NH | 2026-09-02 12:32:27 | 52.70190 | 10.76132 | 70° | 18km/h | 19766m | -19.9m/s | -51.1°C | 3.0% | 60.5hPa | 2.6V | 00:00:00 | 02:41:41 | 00:00:00 | |
| DL1XH1-15 | 2026-09-02 12:32:24 | 52.70187 | 10.76031 | 100° | 24km/h | 19913m | -19.1m/s | -51.2°C | 3% | 59.2hPa | 2.6V | 03:17:09 | 02:41:33 | 00:00:00 | |
| BIOWL1-15 | 2026-09-02 12:32:23 | 52.70185 | 10.76055 | 91° | 31km/h | 19876m | -18.7m/s | -51.5°C | 0% | 59.5hPa | 2.7V | 03:18:03 | 02:41:35 | 00:00:00 | |
| DD8BA-10 | 2026-09-02 12:32:23 | 52.70185 | 10.76082 | 90° | 26km/h | 19839m | -19.7m/s | -51.4°C | 3.1% | 59.8hPa | 2.7V | 00:00:00 | 00:00:00 | 00:00:00 | |
| DL1NUX | 2026-09-02 12:32:21 | 52.70192 | 10.76006 | 113° | 18km/h | 19969m | -17.3m/s | -50.9°C | 2.9% | 58.6hPa | 2.7V | 03:17:12 | 02:41:30 | 00:00:00 | |
| DL1XH-15 | 2026-09-02 12:32:19 | 52.70188 | 10.76022 | 106° | 22km/h | 19933m | -19.6m/s | -51.1°C | 3% | 59hPa | 2.5V | 03:17:10 | 02:41:32 | 00:00:00 | |
| DL1XH-west | 2026-09-02 12:32:19 | 52.70187 | 10.76031 | 101° | 24km/h | 19913m | -19.1m/s | -51.2°C | 0% | 59.2hPa | 2.6V | 03:17:12 | 02:41:33 | 00:00:00 | |
| BIOWL1-15 | 2026-09-02 12:32:14 | 52.70198 | 10.75981 | 94° | 9km/h | 20059m | -17.6m/s | -50.7°C | 0% | 57.8hPa | 2.7V | 03:18:03 | 02:41:25 | 00:00:00 | |
| GOEST3-10 | 2026-09-02 12:32:13 | 52.70196 | 10.75989 | 114° | 11km/h | 20024m | -17.6m/s | -50.7°C | 2.9% | 58.1hPa | 2.7V | 00:00:00 | 00:00:00 | 00:00:00 | |
| DL1NUX | 2026-09-02 12:32:12 | 52.70192 | 10.75962 | 42° | 15km/h | 20152m | -18.6m/s | -51°C | 2.9% | 57hPa | 2.7V | 03:17:22 | 02:41:20 | 00:00:00 | |
| DO2SHX-10 | 2026-09-02 12:32:11 | 52.70198 | 10.75981 | 94° | 11km/h | 20060m | -17.6m/s | -50.6°C | 2.8% | 57.8hPa | 2.7V | 00:00:00 | 02:41:25 | 00:00:00 | |
| DL1XH1-15 | 2026-09-02 12:32:10 | 52.70198 | 10.75974 | 65° | 11km/h | 20098m | -18.8m/s | -50.8°C | 2.9% | 57.5hPa | 2.7V | 03:17:19 | 02:41:23 | 00:00:00 | |
| DM0DOS-11 | 2026-09-02 12:32:09 | 52.70196 | 10.75970 | 56° | 11km/h | 20117m | -19.1m/s | -50.9°C | 2.9% | 57.3hPa | 2.5V | 03:17:20 | 02:41:22 | 00:00:00 | |
| DF8AY | 2026-09-02 12:32:09 | 52.70192 | 10.75962 | 42° | 15km/h | 20152m | -18.6m/s | -51°C | 0% | 57hPa | 2.7V | 03:18:03 | 02:41:20 | 00:00:00 | |
| DO2JMG | 2026-09-02 12:32:08 | 52.70196 | 10.75970 | 57° | 11km/h | 20117m | -19.1m/s | 0°C | 0% | 0hPa | 2.5V | 03:18:03 | 02:41:22 | 00:00:00 | |
| GOEST3-10 | 2026-09-02 12:32:08 | 52.70196 | 10.75970 | 57° | 15km/h | 20117m | -19.0m/s | -50.8°C | 2.9% | 57.3hPa | 2.7V | 00:00:00 | 02:41:22 | 00:00:00 | |
| DO2SHX-10 | 2026-09-02 12:32:07 | 52.70194 | 10.75966 | 54° | 15km/h | 20135m | -17.5m/s | -50.9°C | 2.9% | 57.1hPa | 2.7V | 00:00:00 | 02:41:21 | 00:00:00 | |
| SMARD9-15 | 2026-09-02 12:32:05 | 52.70187 | 10.75953 | 55° | 15km/h | 20191m | -19.6m/s | -51.0°C | 0.5% | 56.7hPa | 2.7V | 00:00:00 | 00:00:00 | 00:00:00 | |
| DL1XH1-15 | 2026-09-02 12:32:04 | 52.70181 | 10.75923 | 70° | 16km/h | 20289m | -17.7m/s | -51.1°C | 3% | 55.8hPa | 2.7V | 03:17:29 | 02:41:13 | 00:00:00 | |
| BIOWL1-15 | 2026-09-02 12:32:01 | 52.70181 | 10.75923 | 71° | 16km/h | 20289m | -17.7m/s | -51.1°C | 0% | 55.8hPa | 2.7V | 03:18:03 | 02:41:13 | 00:00:00 | |
| DL1NUX | 2026-09-02 12:32:01 | 52.70175 | 10.75903 | 55° | 20km/h | 20341m | -19.1m/s | -50.8°C | 2.8% | 55.4hPa | 2.7V | 03:17:32 | 02:41:10 | 00:00:00 | |
| DO2SHX-10 | 2026-09-02 12:32:01 | 52.70182 | 10.75935 | 81° | 16km/h | 20251m | -20.8m/s | -51.0°C | 3.0% | 56.1hPa | 2.5V | 00:00:00 | 02:41:15 | 00:00:00 | |
| DM0DOS-11 | 2026-09-02 12:31:59 | 52.70179 | 10.75917 | 72° | 16km/h | 20306m | -16.6m/s | -51°C | 3% | 55.6hPa | 2.5V | 03:17:30 | 02:41:12 | 00:00:00 | |
| DL1XH-west | 2026-09-02 12:31:58 | 52.70179 | 10.75917 | 72° | 18km/h | 20306m | -16.6m/s | -51°C | 0% | 55.6hPa | 2.5V | 03:18:03 | 02:41:12 | 00:00:00 | |
| DO2JMG | 2026-09-02 12:31:57 | 52.70178 | 10.75910 | 63° | 20km/h | 20323m | -17.6m/s | 0°C | 0% | 0hPa | 2.5V | 03:18:03 | 02:41:11 | 00:00:00 | |
| DB0NH | 2026-09-02 12:31:57 | 52.70178 | 10.75910 | 63° | 20km/h | 20323m | -17.6m/s | -50.9°C | 3.0% | 55.5hPa | 2.5V | 03:17:00 | 02:41:11 | 00:00:00 | |
| DB0DAN | 2026-09-02 12:31:55 | 52.70172 | 10.75896 | 51° | 22km/h | 20360m | -19.5m/s | -50.9°C | 0.4% | 55.2hPa | 2.7V | 00:00:00 | 00:00:00 | 00:00:00 | |
| DD8BA-10 | 2026-09-02 12:31:53 | 52.70165 | 10.75881 | 53° | 22km/h | 20398m | -19.9m/s | -51.1°C | 2.9% | 54.8hPa | 2.7V | 03:17:00 | 00:00:00 | 00:00:00 | |
| DO2SHX-10 | 2026-09-02 12:31:52 | 52.70162 | 10.75874 | 57° | 20km/h | 20418m | -20.7m/s | -51.2°C | 3.0% | 54.7hPa | 2.7V | 03:17:00 | 02:41:06 | 00:00:00 | |
| SO1NDE-10 | 2026-09-02 12:31:51 | 52.70159 | 10.75867 | 58° | 18km/h | 20437m | -19.0m/s | -51.3°C | 3.0% | 54.5hPa | 2.7V | 03:17:00 | 02:41:05 | 00:00:00 | |
| BIOWL1-15 | 2026-09-02 12:31:51 | 52.70152 | 10.75845 | 65° | 22km/h | 20495m | -20.5m/s | -51.2°C | 0% | 54hPa | 2.5V | 03:18:03 | 02:41:02 | 00:00:00 | |
| DO2SHX-10 | 2026-09-02 12:31:49 | 52.70154 | 10.75853 | 65° | 22km/h | 20476m | -19.5m/s | -51.2°C | 3.0% | 54.2hPa | 2.7V | 00:00:00 | 02:41:03 | 00:00:00 | |
| DL1NUX | 2026-09-02 12:31:48 | 52.70147 | 10.75827 | 69° | 26km/h | 20533m | -18.4m/s | -51.3°C | 2.9% | 53.8hPa | 2.7V | 03:17:42 | 02:41:00 | 00:00:00 | |
| DF8AY | 2026-09-02 12:31:47 | 52.70147 | 10.75827 | 70° | 26km/h | 20533m | -18.4m/s | -51.3°C | 0% | 53.8hPa | 2.7V | 03:18:03 | 02:41:00 | 00:00:00 | |
| HSKMA3-T | 2026-09-02 12:31:47 | 52.70150 | 10.75836 | 70° | 24km/h | 20515m | -19.2m/s | -51.2°C | 0% | 53.9hPa | 2.5V | 03:18:03 | 02:41:01 | 00:00:00 | |
| DO2JMG | 2026-09-02 12:31:45 | 52.70144 | 10.75804 | 79° | 29km/h | 20569m | -19.1m/s | 0°C | 0% | 0hPa | 2.7V | 03:18:03 | 02:40:58 | 00:00:00 | |
| DL1XH1-15 | 2026-09-02 12:31:45 | 52.70145 | 10.75747 | 103° | 26km/h | 20658m | -17.1m/s | -51.6°C | 3% | 52.7hPa | 2.7V | 03:17:49 | 02:40:53 | 00:00:00 | |
| DD8BA-10 | 2026-09-02 12:31:43 | 52.70143 | 10.75792 | 86° | 24km/h | 20588m | -18.6m/s | -51.4°C | 3.0% | 53.3hPa | 2.5V | 00:00:00 | 00:00:00 | 00:00:00 | |
| DO2SHX-10 | 2026-09-02 12:31:42 | 52.70142 | 10.75780 | 89° | 29km/h | 20606m | -18.5m/s | -51.4°C | 3.0% | 53.1hPa | 2.7V | 00:00:00 | 02:40:56 | 00:00:00 | |
| DL1NUX | 2026-09-02 12:31:41 | 52.70150 | 10.75721 | 108° | 20km/h | 20707m | -16.9m/s | -51.5°C | 3% | 52.3hPa | 2.7V | 03:17:52 | 02:40:50 | 00:00:00 | |
| S3001 | 2026-09-02 12:31:40 | 52.70145 | 10.75747 | 103° | 24km/h | 20658m | -17.1m/s | -51.6°C | 0.4% | 52.7hPa | 2.7V | 00:00:00 | 00:00:00 | 00:00:00 | |
| BIOWL1-15 | 2026-09-02 12:31:39 | 52.70166 | 10.75646 | 131° | 18km/h | 20989m | -18.9m/s | -52.3°C | 0% | 50.1hPa | 2.7V | 03:18:54 | 02:40:35 | 00:00:00 | |
| HSKMA3-T | 2026-09-02 12:31:36 | 52.70150 | 10.75721 | 109° | 20km/h | 20707m | -16.9m/s | -51.5°C | 0% | 52.3hPa | 2.7V | 03:18:03 | 02:40:50 | 00:00:00 | |
| DF8AY | 2026-09-02 12:31:35 | 52.70155 | 10.75691 | 100° | 16km/h | 20785m | -20.2m/s | -51.4°C | 0% | 51.7hPa | 2.5V | 03:18:03 | 02:40:46 | 00:00:00 | |
| DO2JMG | 2026-09-02 12:31:33 | 52.70154 | 10.75698 | 105° | 18km/h | 20764m | -21.5m/s | 0°C | 0% | 0hPa | 2.5V | 03:18:03 | 02:40:47 | 00:00:00 | |
| DM0DOS-11 | 2026-09-02 12:31:33 | 52.70156 | 10.75672 | 92° | 7km/h | 20859m | -18.8m/s | -51.7°C | 3% | 51.1hPa | 2.5V | 03:18:00 | 02:40:42 | 00:00:00 | |
| DD8BA-10 | 2026-09-02 12:31:33 | 52.70153 | 10.75697 | 105° | 11km/h | 20765m | -21.4m/s | -51.3°C | 3.0% | 51.8hPa | 2.7V | 00:00:00 | 00:00:00 | 00:00:00 | |
| DO2SHX-10 | 2026-09-02 12:31:32 | 52.70155 | 10.75690 | 100° | 15km/h | 20786m | -20.2m/s | -51.4°C | 2.9% | 51.7hPa | 2.7V | 00:00:00 | 02:40:46 | 00:00:00 | |
| DL1NUX | 2026-09-02 12:31:31 | 52.70157 | 10.75667 | 104° | 5km/h | 20896m | -19.4m/s | -51.8°C | 3% | 50.8hPa | 2.7V | 03:18:02 | 02:40:40 | 00:00:00 | |
| BIOWL1-15 | 2026-09-02 12:31:29 | 52.70176 | 10.75624 | 121° | 13km/h | 21067m | -19.4m/s | -52.4°C | 0% | 49.5hPa | 2.5V | 03:18:54 | 02:40:31 | 00:00:00 | |
| DL1XH-west | 2026-09-02 12:31:26 | 52.70157 | 10.75667 | 104° | 7km/h | 20896m | -19.5m/s | -51.8°C | 0% | 50.8hPa | 2.7V | 03:18:03 | 02:40:40 | 00:00:00 | |
| AA1-15 | 2026-09-02 12:31:25 | 52.70159 | 10.75661 | 126° | 13km/h | 20933m | -19.6m/s | -51.9°C | 0% | 50.5hPa | 2.7V | 03:18:54 | 02:40:38 | 00:00:00 | |
| DL1XH1-15 | 2026-09-02 12:31:24 | 52.70172 | 10.75634 | 127° | 16km/h | 21028m | -19m/s | -52.5°C | 3.3% | 49.8hPa | 2.6V | 03:18:09 | 02:40:33 | 00:00:00 | |
| DF8AY | 2026-09-02 12:31:23 | 52.70180 | 10.75606 | 97° | 11km/h | 21142m | -19.4m/s | -52.4°C | 0% | 49hPa | 2.5V | 03:18:54 | 02:40:27 | 00:00:00 | |
| DO2JMG | 2026-09-02 12:31:22 | 52.70163 | 10.75651 | 129° | 18km/h | 20971m | -19.3m/s | 0°C | 0% | 0hPa | 2.5V | 18:12:15 | 02:40:36 | 00:00:00 | |
| DL1NUX | 2026-09-02 12:31:22 | 52.70178 | 10.75619 | 117° | 13km/h | 21086m | -19.3m/s | -52.4°C | 3.2% | 49.4hPa | 2.7V | 03:18:12 | 02:40:30 | 00:00:00 | |
| DL1XH-west | 2026-09-02 12:31:14 | 52.70179 | 10.75611 | 107° | 11km/h | 21124m | -17.4m/s | -52.4°C | 0% | 49.1hPa | 2.7V | 03:18:54 | 02:40:28 | 00:00:00 | |
| DD8BA-10 | 2026-09-02 12:31:13 | 52.70180 | 10.75606 | 97° | 16km/h | 21142m | -19.4m/s | -52.3°C | 3.3% | 48.9hPa | 2.5V | 03:18:00 | 00:00:00 | 00:00:00 | |
| DL1NUX | 2026-09-02 12:31:11 | 52.70175 | 10.75561 | 73° | 22km/h | 21274m | -20.2m/s | -52.3°C | 3.3% | 47.9hPa | 2.7V | 03:18:22 | 02:40:20 | 00:00:00 | |
| DB0DAN | 2026-09-02 12:31:10 | 52.70179 | 10.75590 | 79° | 13km/h | 21198m | -17.9m/s | -52.6°C | 0.5% | 48.49hPa | 2.7V | 00:00:00 | 00:00:00 | 00:00:00 | |
| FRANK-SWL | 2026-09-02 12:31:10 | 52.70167 | 10.75583 | 79° | 13km/h | 21198m | -17.9m/s | 0°C | 0% | 0hPa | 2.7V | 18:12:15 | 00:00:00 | 00:00:00 | |
| DO2JMG | 2026-09-02 12:31:09 | 52.70178 | 10.75584 | 78° | 16km/h | 21215m | -17.5m/s | 0°C | 0% | 0hPa | 2.6V | 18:12:15 | 02:40:23 | 00:00:00 | |
| BIOWL1-15 | 2026-09-02 12:31:08 | 52.70177 | 10.75577 | 77° | 20km/h | 21234m | -19.7m/s | -52.6°C | 0% | 48.2hPa | 2.5V | 03:18:54 | 02:40:22 | 00:00:00 | |
| HSKMA3-T | 2026-09-02 12:31:04 | 52.70172 | 10.75542 | 75° | 24km/h | 21312m | -18.3m/s | -52.1°C | 0% | 47.6hPa | 2.7V | 03:18:54 | 02:40:18 | 00:00:00 | |
| DL1XH-west | 2026-09-02 12:31:03 | 52.70169 | 10.75522 | 80° | 24km/h | 21350m | -18.8m/s | -52.2°C | 0% | 47.3hPa | 2.5V | 03:18:54 | 02:40:16 | 00:00:00 | |
| EDDB2-11 | 2026-09-02 12:31:03 | 52.70169 | 10.75522 | 80° | 24km/h | 21351m | -18.8m/s | -52.2°C | 0.5% | 47.3hPa | 2.7V | 00:00:00 | 00:00:00 | 00:00:00 | |
| DO2SHX-10 | 2026-09-02 12:31:01 | 52.70168 | 10.75513 | 86° | 20km/h | 21370m | -20.9m/s | -52.0°C | 3.2% | 47.2hPa | 2.7V | 03:18:00 | 02:40:15 | 00:00:00 | |
| DL1NUX | 2026-09-02 12:31:01 | 52.70171 | 10.75479 | 106° | 13km/h | 21461m | -18.4m/s | -51.3°C | 3% | 46.5hPa | 2.7V | 03:18:32 | 02:40:10 | 00:00:00 | |
| DL1XH1-15 | 2026-09-02 12:31:00 | 52.70168 | 10.75496 | 96° | 18km/h | 21408m | -17.2m/s | -51.8°C | 3.2% | 46.9hPa | 2.7V | 03:18:29 | 02:40:13 | 00:00:00 | |
| BIOWL1-15 | 2026-09-02 12:30:58 | 52.70170 | 10.75484 | 106° | 13km/h | 21443m | -19.4m/s | -51.5°C | 0% | 46.7hPa | 2.5V | 03:18:54 | 02:40:11 | 00:00:00 | |
| DO2SHX-10 | 2026-09-02 12:30:58 | 52.70169 | 10.75490 | 103° | 15km/h | 21425m | -17.1m/s | -51.6°C | 3.1% | 46.8hPa | 2.5V | 00:00:00 | 02:40:12 | 00:00:00 | |
| DB0NH | 2026-09-02 12:30:57 | 52.70169 | 10.75484 | 106° | 9km/h | 21443m | -19.4m/s | -51.4°C | 3.1% | 46.6hPa | 2.7V | 00:00:00 | 02:40:11 | 00:00:00 | |
| DB0DAN | 2026-09-02 12:30:55 | 52.70172 | 10.75474 | 107° | 11km/h | 21479m | -17.2m/s | -51°C | 0.4% | 46.43hPa | 2.7V | 00:00:00 | 00:00:00 | 00:00:00 | |
| DO2SHX-10 | 2026-09-02 12:30:55 | 52.70171 | 10.75474 | 107° | 15km/h | 21479m | -17.1m/s | -51.0°C | 3.0% | 46.4hPa | 2.7V | 00:00:00 | 02:40:09 | 00:00:00 | |
| DL1XH1-15 | 2026-09-02 12:30:54 | 52.70176 | 10.75438 | 92° | 15km/h | 21585m | -19.1m/s | -50.7°C | 2.8% | 45.6hPa | 2.7V | 03:18:39 | 02:40:03 | 00:00:00 | |
| DO2JMG | 2026-09-02 12:30:53 | 52.70173 | 10.75463 | 102° | 15km/h | 21513m | -19m/s | 0°C | 0% | 0hPa | 2.5V | 18:12:15 | 02:40:07 | 00:00:00 | |
| DL4XJ-10 | 2026-09-02 12:30:53 | 52.70173 | 10.75463 | 103° | 9km/h | 21513m | -19.0m/s | -50.4°C | 0% | 0hPa | 2.7V | 00:00:00 | 00:00:00 | 00:00:00 | |
| DM0DOS-11 | 2026-09-02 12:30:52 | 52.70176 | 10.75432 | 92° | 13km/h | 21603m | -16.7m/s | -50.8°C | 2.9% | 45.5hPa | 2.7V | 03:18:40 | 02:40:02 | 00:00:00 | |
| DL1XH-west | 2026-09-02 12:30:52 | 52.70174 | 10.75457 | 101° | 16km/h | 21531m | -17.6m/s | -50.6°C | 0% | 46hPa | 2.5V | 03:18:54 | 02:40:06 | 00:00:00 | |
| DO2SHX-10 | 2026-09-02 12:30:52 | 52.70174 | 10.75456 | 101° | 16km/h | 21531m | -17.6m/s | -50.5°C | 2.8% | 46.0hPa | 2.5V | 00:00:00 | 02:40:06 | 00:00:00 | |
| DF8AY | 2026-09-02 12:30:52 | 52.70175 | 10.75450 | 102° | 16km/h | 21548m | -17.5m/s | -50.6°C | 0% | 45.9hPa | 2.7V | 03:18:54 | 02:40:05 | 00:00:00 | |
| DL1NUX | 2026-09-02 12:30:51 | 52.70176 | 10.75422 | 79° | 11km/h | 21639m | -20.3m/s | -50.9°C | 2.9% | 45.3hPa | 2.5V | 03:18:42 | 02:40:00 | 00:00:00 | |
| BIOWL1-15 | 2026-09-02 12:30:47 | 52.70175 | 10.75422 | 79° | 11km/h | 21639m | -20.3m/s | -50.9°C | 0% | 45.3hPa | 2.5V | 03:18:54 | 02:40:00 | 00:00:00 | |
| EDDB2-12 | 2026-09-02 12:30:44 | 52.70174 | 10.75413 | 78° | 11km/h | 21678m | -18.6m/s | -51.2°C | 0.4% | 45.0hPa | 2.6V | 00:00:00 | 00:00:00 | 00:00:00 | |
| DL1XH-west | 2026-09-02 12:30:42 | 52.70173 | 10.75405 | 72° | 9km/h | 21714m | -16.8m/s | -51.3°C | 0% | 44.7hPa | 2.6V | 03:18:54 | 02:39:56 | 00:00:00 | |
| DB0DAN | 2026-09-02 12:30:40 | 52.70172 | 10.75399 | 97° | 5km/h | 21752m | -20.3m/s | -51.3°C | 0.4% | 44.49hPa | 2.5V | 00:00:00 | 00:00:00 | 00:00:00 | |
| DL1XH1-15 | 2026-09-02 12:30:40 | 52.70173 | 10.75397 | 111° | 4km/h | 21771m | -18.1m/s | -51.4°C | 3% | 44.3hPa | 2.5V | 03:18:49 | 02:39:53 | 00:00:00 | |
| DL1XH-15 | 2026-09-02 12:30:39 | 52.70173 | 10.75395 | 114° | 4km/h | 21787m | -16.5m/s | -51.5°C | 3% | 44.2hPa | 2.7V | 03:18:50 | 02:39:52 | 00:00:00 | |
| BIOWL1-15 | 2026-09-02 12:30:36 | 52.70172 | 10.75364 | 85° | 15km/h | 22010m | -18.5m/s | -51.5°C | 0% | 42.7hPa | 2.7V | 03:19:45 | 02:39:40 | 00:00:00 | |
| DF8AY | 2026-09-02 12:30:34 | 52.70170 | 10.75351 | 74° | 18km/h | 22048m | -19.5m/s | -51.5°C | 0% | 42.5hPa | 2.6V | 03:19:45 | 02:39:38 | 00:00:00 | |
| DL1XH1-15 | 2026-09-02 12:30:34 | 52.70172 | 10.75379 | 93° | 11km/h | 21954m | -19.4m/s | -51.6°C | 3.1% | 43.1hPa | 2.5V | 03:18:59 | 02:39:43 | 00:00:00 | |
| HSKMA3-T | 2026-09-02 12:30:31 | 52.70172 | 10.75386 | 85° | 7km/h | 21918m | -17.3m/s | -51.8°C | 0% | 43.4hPa | 2.7V | 03:19:45 | 02:39:45 | 00:00:00 | |
| AA1-15 | 2026-09-02 12:30:31 | 52.70172 | 10.75379 | 94° | 11km/h | 21954m | -19.4m/s | -51.6°C | 0% | 43.1hPa | 2.5V | 03:19:45 | 02:39:43 | 00:00:00 | |
| DM0DOS-11 | 2026-09-02 12:30:31 | 52.70172 | 10.75375 | 97° | 11km/h | 21972m | -18.4m/s | -51.6°C | 3% | 43hPa | 2.7V | 03:19:00 | 02:39:42 | 00:00:00 | |
| DF7ER-10 | 2026-09-02 12:30:31 | 52.70172 | 10.75379 | 95° | 11km/h | 21954m | -19.4m/s | -51.7°C | 0.5% | 43.2hPa | 2.5V | 03:19:00 | 00:00:00 | 00:00:00 | |
| DL1LOL-11 | 2026-09-02 12:30:30 | 52.70172 | 10.75379 | 95° | 11km/h | 21954m | -19.4m/s | -51.7°C | 0.4% | 43.2hPa | 2.5V | 00:00:00 | 00:00:00 | 00:00:00 | |
| DO2SHX-10 | 2026-09-02 12:30:29 | 52.70172 | 10.75379 | 94° | 11km/h | 21954m | -19.4m/s | -51.5°C | 3.1% | 43.1hPa | 2.5V | 00:00:00 | 02:39:43 | 00:00:00 | |
| GOEST3-10 | 2026-09-02 12:30:28 | 52.70172 | 10.75375 | 98° | 15km/h | 21973m | -18.4m/s | -51.5°C | 3.0% | 42.9hPa | 2.7V | 00:00:00 | 02:39:42 | 00:00:00 | |
| DB0NH | 2026-09-02 12:30:27 | 52.70172 | 10.75370 | 88° | 18km/h | 21992m | -19.7m/s | -51.5°C | 3.1% | 42.8hPa | 2.7V | 00:00:00 | 02:39:41 | 00:00:00 | |
| DO2SHX-10 | 2026-09-02 12:30:26 | 52.70172 | 10.75364 | 85° | 16km/h | 22010m | -18.4m/s | -51.5°C | 3.1% | 42.7hPa | 2.7V | 00:00:00 | 02:39:40 | 00:00:00 | |
| DO2SHX-10 | 2026-09-02 12:30:23 | 52.70169 | 10.75343 | 71° | 22km/h | 22067m | -19.6m/s | -51.4°C | 3.1% | 42.3hPa | 2.7V | 03:19:00 | 02:39:37 | 00:00:00 | |
| DL1NUX | 2026-09-02 12:30:21 | 52.70156 | 10.75281 | 76° | 22km/h | 22202m | -19.8m/s | -51.2°C | 3% | 41.5hPa | 2.7V | 03:19:12 | 02:39:30 | 00:00:00 | |
| DL1XH1-15 | 2026-09-02 12:30:21 | 52.70161 | 10.75308 | 68° | 22km/h | 22141m | -20.9m/s | -51.4°C | 3.1% | 41.9hPa | 2.6V | 03:19:09 | 02:39:33 | 00:00:00 | |
| HSKMA3-T | 2026-09-02 12:30:20 | 52.70163 | 10.75317 | 70° | 24km/h | 22121m | -19.2m/s | -51.4°C | 0% | 42hPa | 2.5V | 03:19:45 | 02:39:34 | 00:00:00 | |
| DL1XH-west | 2026-09-02 12:30:20 | 52.70156 | 10.75281 | 76° | 22km/h | 22202m | -19.8m/s | -51.2°C | 0% | 41.5hPa | 2.7V | 03:19:45 | 02:39:30 | 00:00:00 | |
| DF8AY | 2026-09-02 12:30:20 | 52.70159 | 10.75299 | 74° | 24km/h | 22162m | -21.8m/s | -51.4°C | 0% | 41.8hPa | 2.7V | 03:19:45 | 02:39:32 | 00:00:00 | |
| DL1XH-15 | 2026-09-02 12:30:19 | 52.70159 | 10.75299 | 73° | 24km/h | 22162m | -21.8m/s | -51.4°C | 3% | 41.8hPa | 2.7V | 03:19:10 | 02:39:32 | 00:00:00 | |
| BIOWL1-15 | 2026-09-02 12:30:16 | 52.70158 | 10.75219 | 108° | 20km/h | 22335m | -20.6m/s | -51.1°C | 0% | 40.7hPa | 2.7V | 03:19:45 | 02:39:23 | 00:00:00 | |
| HSKMA3-T | 2026-09-02 12:30:11 | 52.70157 | 10.75227 | 105° | 22km/h | 22315m | -19.7m/s | -51.1°C | 0% | 40.8hPa | 2.7V | 03:19:45 | 02:39:24 | 00:00:00 | |
| DM0DOS-11 | 2026-09-02 12:30:10 | 52.70160 | 10.75210 | 108° | 22km/h | 22354m | -20m/s | -51.1°C | 3% | 40.5hPa | 2.7V | 03:19:20 | 02:39:22 | 00:00:00 | |
| DL1XH1-15 | 2026-09-02 12:30:10 | 52.70158 | 10.75219 | 107° | 20km/h | 22335m | -20.6m/s | -51.1°C | 3% | 40.7hPa | 2.7V | 03:19:19 | 02:39:23 | 00:00:00 | |
| AA1-15 | 2026-09-02 12:30:09 | 52.70160 | 10.75210 | 108° | 22km/h | 22354m | -20m/s | -51.1°C | 0% | 40.5hPa | 2.7V | 03:19:45 | 02:39:22 | 00:00:00 | |
| DF8AY | 2026-09-02 12:30:08 | 52.70162 | 10.75202 | 113° | 20km/h | 22374m | -19.2m/s | -51.1°C | 0% | 40.4hPa | 2.5V | 03:19:45 | 02:39:21 | 00:00:00 | |
| DO2SHX-10 | 2026-09-02 12:30:08 | 52.70160 | 10.75210 | 109° | 20km/h | 22355m | -20.0m/s | -51.0°C | 3.0% | 40.5hPa | 2.6V | 00:00:00 | 02:39:22 | 00:00:00 | |
| DL1NUX | 2026-09-02 12:30:07 | 52.70163 | 10.75195 | 116° | 18km/h | 22393m | -20.3m/s | -51°C | 2.9% | 40.3hPa | 2.6V | 03:19:22 | 02:39:20 | 00:00:00 | |
| DL1XH-west | 2026-09-02 12:30:06 | 52.70163 | 10.75195 | 116° | 18km/h | 22393m | -20.3m/s | -51°C | 0% | 40.3hPa | 2.6V | 03:19:45 | 02:39:20 | 00:00:00 | |
| AM1SDL-15 | 2026-09-02 12:30:06 | 52.70163 | 10.75195 | 117° | 11km/h | 22393m | -20.2m/s | -50.9°C | 2.9% | 40.2hPa | 2.7V | 00:00:00 | 02:39:20 | 00:00:00 | |
| DO2SHX-10 | 2026-09-02 12:30:05 | 52.70166 | 10.75189 | 125° | 15km/h | 22414m | -21.5m/s | -50.8°C | 2.9% | 40.1hPa | 2.7V | 00:00:00 | 02:39:19 | 00:00:00 | |
| DL1XH1-15 | 2026-09-02 12:30:04 | 52.70178 | 10.75175 | 190° | 5km/h | 22544m | -22.1m/s | -50.6°C | 2.8% | 39.4hPa | 2.7V | 03:19:29 | 02:39:13 | 00:00:00 | |
| HSKMA3-T | 2026-09-02 12:29:59 | 52.70178 | 10.75175 | 190° | 5km/h | 22544m | -22.1m/s | -50.6°C | 0% | 39.4hPa | 2.7V | 03:19:45 | 02:39:13 | 00:00:00 | |
| DL1XH-15 | 2026-09-02 12:29:59 | 52.70179 | 10.75176 | 234° | 5km/h | 22565m | -21m/s | -50.6°C | 2.8% | 39.2hPa | 2.7V | 03:19:30 | 02:39:12 | 00:00:00 | |
| AA1-15 | 2026-09-02 12:29:58 | 52.70180 | 10.75179 | 260° | 5km/h | 22587m | -22.9m/s | -50.7°C | 0% | 39.1hPa | 2.6V | 03:19:45 | 02:39:11 | 00:00:00 | |
| DF7ER-10 | 2026-09-02 12:29:58 | 52.70179 | 10.75176 | 235° | 5km/h | 22566m | -21.0m/s | -50.7°C | 0.4% | 39.3hPa | 2.5V | 03:19:00 | 00:00:00 | 00:00:00 | |
| DL1NUX | 2026-09-02 12:29:57 | 52.70179 | 10.75181 | 282° | 5km/h | 22608m | -20.9m/s | -50.9°C | 3% | 39hPa | 2.5V | 03:19:32 | 02:39:10 | 00:00:00 | |
| DF8AY | 2026-09-02 12:29:57 | 52.70180 | 10.75181 | 283° | 5km/h | 22608m | -21m/s | -50.9°C | 0% | 39hPa | 2.5V | 03:19:45 | 02:39:10 | 00:00:00 | |
| DL1XH-west | 2026-09-02 12:29:55 | 52.70179 | 10.75184 | 300° | 9km/h | 22629m | -20.2m/s | -51°C | 0% | 38.9hPa | 2.7V | 03:19:45 | 02:39:09 | 00:00:00 | |
| DB0DAN | 2026-09-02 12:29:55 | 52.70179 | 10.75184 | 299° | 9km/h | 22628m | -20.2m/s | -51°C | 0.3% | 38.88hPa | 2.7V | 00:00:00 | 00:00:00 | 00:00:00 | |
| AP2371 | 2026-09-02 12:29:54 | 52.70179 | 10.75184 | 300° | 9km/h | 22629m | -20.2m/s | -51.0°C | 0.3% | 38.9hPa | 2.7V | 00:00:00 | 00:00:00 | 00:00:00 | |
| DD8BA-10 | 2026-09-02 12:29:53 | 52.70175 | 10.75191 | 329° | 13km/h | 22668m | -20.8m/s | -51.0°C | 3.0% | 38.6hPa | 2.7V | 03:19:00 | 00:00:00 | 00:00:00 | |
| DM0DOS-11 | 2026-09-02 12:29:52 | 52.70158 | 10.75200 | 7° | 13km/h | 22767m | -20.9m/s | -51.4°C | 3% | 38hPa | 2.7V | 03:19:40 | 02:39:02 | 00:00:00 | |
| GOEST3-10 | 2026-09-02 12:29:52 | 52.70172 | 10.75194 | 326° | 15km/h | 22687m | -18.6m/s | -51.0°C | 2.9% | 38.4hPa | 2.7V | 00:00:00 | 00:00:00 | 00:00:00 | |
| DL1NUX | 2026-09-02 12:29:51 | 52.70153 | 10.75199 | 20° | 9km/h | 22808m | -22m/s | -51.3°C | 3.1% | 37.8hPa | 2.7V | 03:19:42 | 02:39:00 | 00:00:00 | |
| BIOWL1-15 | 2026-09-02 12:29:49 | 52.70161 | 10.75200 | 355° | 13km/h | 22746m | -21.3m/s | -51.3°C | 0% | 38.1hPa | 2.6V | 03:19:45 | 02:39:03 | 00:00:00 | |
| HSKMA3-T | 2026-09-02 12:29:48 | 52.70158 | 10.75200 | 7° | 13km/h | 22767m | -20.9m/s | -51.4°C | 0% | 38hPa | 2.7V | 03:19:45 | 02:39:02 | 00:00:00 | |
| AA1-15 | 2026-09-02 12:29:47 | 52.70153 | 10.75199 | 21° | 9km/h | 22808m | -22m/s | -51.3°C | 0% | 37.8hPa | 2.7V | 03:19:45 | 02:39:00 | 00:00:00 | |
| DF8AY | 2026-09-02 12:29:46 | 52.70151 | 10.75197 | 33° | 11km/h | 22830m | -22.2m/s | -51.2°C | 0% | 37.7hPa | 2.7V | 03:19:45 | 02:38:59 | 00:00:00 | |
| DL1XH-west | 2026-09-02 12:29:45 | 52.70149 | 10.75194 | 51° | 11km/h | 22851m | -21.6m/s | -51.1°C | 0% | 37.5hPa | 2.6V | 03:19:45 | 02:38:58 | 00:00:00 | |
| DL1XH1-15 | 2026-09-02 12:29:44 | 52.70140 | 10.75170 | 78° | 13km/h | 22960m | -21.9m/s | -50.9°C | 3% | 36.9hPa | 2.6V | 03:19:49 | 02:38:53 | 00:00:00 | |
| DO2SHX-10 | 2026-09-02 12:29:44 | 52.70149 | 10.75194 | 51° | 13km/h | 22851m | -21.6m/s | -51.1°C | 3.1% | 37.5hPa | 2.6V | 00:00:00 | 02:38:58 | 00:00:00 | |
| DD8BA-10 | 2026-09-02 12:29:43 | 52.70147 | 10.75190 | 59° | 11km/h | 22873m | -22.1m/s | -51.0°C | 2.9% | 37.4hPa | 2.6V | 00:00:00 | 00:00:00 | 00:00:00 | |
| GOEST3-10 | 2026-09-02 12:29:42 | 52.70145 | 10.75185 | 52° | 13km/h | 22895m | -22.3m/s | -50.9°C | 2.9% | 37.2hPa | 2.6V | 03:19:00 | 00:00:00 | 00:00:00 | |
| DO2SHX-10 | 2026-09-02 12:29:41 | 52.70143 | 10.75180 | 66° | 15km/h | 22917m | -22.1m/s | -50.8°C | 2.9% | 37.1hPa | 2.6V | 00:00:00 | 02:38:55 | 00:00:00 | |
| DM0DOS-11 | 2026-09-02 12:29:39 | 52.70140 | 10.75165 | 81° | 9km/h | 22981m | -21.4m/s | -50.9°C | 3% | 36.8hPa | 2.6V | 03:19:50 | 02:38:52 | 00:00:00 | |
| BIOWL1-15 | 2026-09-02 12:29:39 | 52.70104 | 10.75111 | 41° | 22km/h | 23348m | -18.4m/s | -51.2°C | 0% | 34.7hPa | 2.6V | 03:20:36 | 02:38:34 | 00:00:00 | |
| HSKMA3-T | 2026-09-02 12:29:37 | 52.70139 | 10.75162 | 91° | 9km/h | 23001m | -18.7m/s | -50.9°C | 0% | 36.7hPa | 2.7V | 03:20:36 | 02:38:51 | 00:00:00 | |
| DF8AY | 2026-09-02 12:29:36 | 52.70140 | 10.75156 | 101° | 4km/h | 23040m | -20.8m/s | -50.8°C | 0% | 36.5hPa | 2.7V | 03:20:36 | 02:38:49 | 00:00:00 | |
| DL1XH-west | 2026-09-02 12:29:34 | 52.70139 | 10.75152 | 36° | 5km/h | 23081m | -21.3m/s | -50.9°C | 0% | 36.2hPa | 2.6V | 03:20:36 | 02:38:47 | 00:00:00 | |
| DB0UT-7 | 2026-09-02 12:29:34 | 52.70140 | 10.75154 | 99° | 13km/h | 23060m | -21.0m/s | -50.8°C | 2.9% | 36.3hPa | 2.7V | 00:00:00 | 02:38:48 | 00:00:00 | |
| DM0DOS-11 | 2026-09-02 12:29:33 | 52.70129 | 10.75143 | 24° | 13km/h | 23188m | -20.7m/s | -50.8°C | 2.9% | 35.6hPa | 2.7V | 03:20:00 | 02:38:42 | 00:00:00 | |
| DO2SHX-10 | 2026-09-02 12:29:33 | 52.70138 | 10.75151 | 32° | 9km/h | 23103m | -22.1m/s | -50.9°C | 2.9% | 36.1hPa | 2.6V | 00:00:00 | 02:38:46 | 00:00:00 | |
| DL1NUX | 2026-09-02 12:29:31 | 52.70124 | 10.75138 | 36° | 11km/h | 23230m | -20.9m/s | -50.7°C | 2.9% | 35.4hPa | 2.6V | 03:20:02 | 02:38:40 | 00:00:00 | |
| BIOWL1-15 | 2026-09-02 12:29:29 | 52.70095 | 10.75099 | 40° | 22km/h | 23384m | -17.4m/s | -51.4°C | 0% | 34.5hPa | 2.6V | 03:20:36 | 02:38:32 | 00:00:00 | |
| AA1-15 | 2026-09-02 12:29:27 | 52.70126 | 10.75140 | 32° | 11km/h | 23209m | -21.7m/s | -50.7°C | 0% | 35.5hPa | 2.7V | 03:20:36 | 02:38:41 | 00:00:00 | |
| HSKMA3-T | 2026-09-02 12:29:26 | 52.70124 | 10.75138 | 36° | 11km/h | 23230m | -21m/s | -50.8°C | 0% | 35.4hPa | 2.6V | 03:20:36 | 02:38:40 | 00:00:00 | |
| DL1XH-west | 2026-09-02 12:29:25 | 52.70118 | 10.75131 | 40° | 15km/h | 23270m | -21.4m/s | -51°C | 0% | 35.2hPa | 2.7V | 03:20:36 | 02:38:38 | 00:00:00 | |
| DL1XH1-15 | 2026-09-02 12:29:24 | 52.70100 | 10.75105 | 40° | 22km/h | 23367m | -19.1m/s | -51.3°C | 3.1% | 34.7hPa | 2.6V | 03:20:09 | 02:38:33 | 00:00:00 | |
| DD8BA-10 | 2026-09-02 12:29:23 | 52.70116 | 10.75127 | 40° | 18km/h | 23291m | -20.6m/s | -51.0°C | 3.0% | 35.0hPa | 2.7V | 00:00:00 | 00:00:00 | 00:00:00 | |
| DO2SHX-10 | 2026-09-02 12:29:22 | 52.70112 | 10.75123 | 39° | 20km/h | 23310m | -18.5m/s | -51.1°C | 3.0% | 34.9hPa | 2.7V | 03:20:00 | 02:38:36 | 00:00:00 | |
| DL1NUX | 2026-09-02 12:29:21 | 52.70087 | 10.75088 | 40° | 18km/h | 23421m | -20.4m/s | -51.5°C | 3.1% | 34.4hPa | 2.7V | 03:20:12 | 02:38:30 | 00:00:00 | |
| AA1-15 | 2026-09-02 12:29:16 | 52.70088 | 10.75088 | 40° | 18km/h | 23421m | -20.4m/s | -51.5°C | 0% | 34.4hPa | 2.7V | 03:20:36 | 02:38:30 | 00:00:00 | |
| DJ2DS-15 | 2026-09-02 12:29:14 | 52.70082 | 10.75080 | 43° | 9km/h | 23464m | -22.1m/s | -51.5°C | 0.4% | 34.2hPa | 2.7V | 00:00:00 | 00:00:00 | 00:00:00 | |
| DL1XH-west | 2026-09-02 12:29:14 | 52.70081 | 10.75077 | 62° | 9km/h | 23485m | -21.7m/s | -51.4°C | 0% | 34hPa | 2.6V | 03:20:36 | 02:38:27 | 00:00:00 | |
| DL4XJ-10 | 2026-09-02 12:29:13 | 52.70081 | 10.75077 | 62° | 13km/h | 23485m | -21.6m/s | -51.3°C | 0% | 0hPa | 2.7V | 00:00:00 | 00:00:00 | 00:00:00 | |
| DO2SHX-10 | 2026-09-02 12:29:12 | 52.70080 | 10.75074 | 60° | 9km/h | 23506m | -19.5m/s | -51.3°C | 3.1% | 33.8hPa | 2.7V | 00:00:00 | 02:38:26 | 00:00:00 | |
| DL1NUX | 2026-09-02 12:29:11 | 52.70074 | 10.75049 | 85° | 13km/h | 23632m | -21.6m/s | -51°C | 3% | 33.3hPa | 2.7V | 03:20:22 | 02:38:20 | 00:00:00 | |
| BIOWL1-15 | 2026-09-02 12:29:11 | 52.70074 | 10.75049 | 86° | 13km/h | 23632m | -21.7m/s | -51°C | 0% | 33.3hPa | 2.7V | 03:20:36 | 02:38:20 | 00:00:00 | |
| DB0DAN | 2026-09-02 12:29:10 | 52.70078 | 10.75067 | 70° | 9km/h | 23548m | -23m/s | -51.4°C | 0.4% | 33.69hPa | 2.7V | 00:00:00 | 00:00:00 | 00:00:00 | |
| HSKMA3-T | 2026-09-02 12:29:04 | 52.70074 | 10.75040 | 93° | 11km/h | 23672m | -19.1m/s | -50.9°C | 0% | 33hPa | 2.7V | 03:20:36 | 02:38:18 | 00:00:00 | |
| DL1XH1-15 | 2026-09-02 12:29:04 | 52.70076 | 10.75014 | 105° | 16km/h | 23772m | -20.3m/s | -50.8°C | 2.9% | 32.5hPa | 2.7V | 03:20:29 | 02:38:13 | 00:00:00 | |
| DL1XH-west | 2026-09-02 12:29:02 | 52.70074 | 10.75031 | 96° | 13km/h | 23711m | -21.1m/s | -50.9°C | 0% | 32.8hPa | 2.5V | 03:20:36 | 02:38:16 | 00:00:00 | |
| DO2SHX-10 | 2026-09-02 12:29:02 | 52.70074 | 10.75030 | 96° | 13km/h | 23711m | -21.0m/s | -50.8°C | 2.9% | 32.8hPa | 2.7V | 00:00:00 | 02:38:16 | 00:00:00 | |
| DF7PN | 2026-09-02 12:29:01 | 52.70075 | 10.75020 | 104° | 15km/h | 23752m | -21.1m/s | -50.8°C | 0.3% | 32.6hPa | 2.7V | 00:00:00 | 00:00:00 | 00:00:00 | |
| AP2371 | 2026-09-02 12:29:00 | 52.70074 | 10.75025 | 102° | 13km/h | 23732m | -20.9m/s | -50.8°C | 0.4% | 32.7hPa | 2.7V | 00:00:00 | 00:00:00 | 00:00:00 | |
| DO2SHX-10 | 2026-09-02 12:28:59 | 52.70076 | 10.75014 | 106° | 15km/h | 23772m | -20.2m/s | -50.8°C | 2.9% | 32.5hPa | 2.7V | 00:00:00 | 02:38:13 | 00:00:00 | |
| DL1NUX | 2026-09-02 12:28:58 | 52.70080 | 10.74993 | 110° | 16km/h | 23830m | -19.8m/s | -50.9°C | 2.9% | 32.2hPa | 2.7V | 03:20:32 | 02:38:10 | 00:00:00 | |
| SONDE2-11 | 2026-09-02 12:28:58 | 52.70079 | 10.75000 | 107° | 18km/h | 23811m | -20.5m/s | -50.9°C | 0.3% | 32.4hPa | 2.7V | 00:00:00 | 00:00:00 | 00:00:00 | |
| DB0NH | 2026-09-02 12:28:57 | 52.70079 | 10.74999 | 108° | 13km/h | 23811m | -20.5m/s | -50.8°C | 2.9% | 32.3hPa | 2.7V | 00:00:00 | 02:38:11 | 00:00:00 | |
| DB0DAN | 2026-09-02 12:28:55 | 52.70081 | 10.74987 | 110° | 13km/h | 23851m | -21.1m/s | -50.9°C | 0.4% | 32.16hPa | 2.7V | 00:00:00 | 00:00:00 | 00:00:00 | |
| BIOWL1-15 | 2026-09-02 12:28:55 | 52.70092 | 10.74962 | 97° | 7km/h | 24000m | -20.8m/s | -51°C | 0% | 31.4hPa | 2.7V | 03:21:27 | 02:38:02 | 00:00:00 | |
| HSKMA3-T | 2026-09-02 12:28:53 | 52.70085 | 10.74977 | 134° | 15km/h | 23894m | -22.7m/s | -50.9°C | 0% | 31.9hPa | 2.6V | 03:20:36 | 02:38:07 | 00:00:00 | |
| DL1XH-west | 2026-09-02 12:28:52 | 52.70087 | 10.74974 | 139° | 11km/h | 23917m | -22.9m/s | -50.9°C | 0% | 31.8hPa | 2.6V | 03:20:36 | 02:38:06 | 00:00:00 | |
| DL1NUX | 2026-09-02 12:28:51 | 52.70092 | 10.74954 | 82° | 13km/h | 24041m | -21.2m/s | -51°C | 3% | 31.2hPa | 2.6V | 03:20:42 | 02:38:00 | 00:00:00 | |
| SO1NDE-10 | 2026-09-02 12:28:51 | 52.70089 | 10.74971 | 144° | 13km/h | 23939m | -22.8m/s | -50.8°C | 3.0% | 31.7hPa | 2.7V | 00:00:00 | 02:38:05 | 00:00:00 | |
| DL1XH1-15 | 2026-09-02 12:28:50 | 52.70092 | 10.74965 | 121° | 9km/h | 23981m | -19.8m/s | -51°C | 2.9% | 31.5hPa | 2.7V | 03:20:39 | 02:38:03 | 00:00:00 | |
| DF8AY | 2026-09-02 12:28:47 | 52.70092 | 10.74958 | 82° | 11km/h | 24021m | -21.1m/s | -51°C | 0% | 31.3hPa | 2.6V | 03:21:27 | 02:38:01 | 00:00:00 | |
| DL1XH-west | 2026-09-02 12:28:42 | 52.70089 | 10.74938 | 51° | 9km/h | 24129m | -22.3m/s | -51°C | 0% | 30.8hPa | 2.6V | 03:21:27 | 02:37:56 | 00:00:00 | |
| DJ8HS-15 | 2026-09-02 12:28:42 | 52.70089 | 10.74938 | 51° | 15km/h | 24129m | -22.2m/s | -50.9°C | 3.0% | 30.8hPa | 2.7V | 00:00:00 | 02:37:56 | 00:00:00 | |
| EDDB2-12 | 2026-09-02 12:28:40 | 52.70086 | 10.74932 | 40° | 11km/h | 24171m | -21.1m/s | -50.9°C | 0.4% | 30.6hPa | 2.7V | 00:00:00 | 00:00:00 | 00:00:00 | |
| DB0DAN | 2026-09-02 12:28:40 | 52.70086 | 10.74932 | 40° | 11km/h | 24171m | -21.1m/s | -50.9°C | 0.4% | 30.59hPa | 2.7V | 00:00:00 | 00:00:00 | 00:00:00 | |
| DL1XH-15 | 2026-09-02 12:28:39 | 52.70081 | 10.74925 | 40° | 15km/h | 24217m | -23.8m/s | -50.9°C | 2.9% | 30.4hPa | 2.7V | 03:20:50 | 02:37:52 | 00:00:00 | |
| BIOWL1-15 | 2026-09-02 12:28:38 | 52.70080 | 10.74925 | 41° | 15km/h | 24217m | -23.8m/s | -50.9°C | 0% | 30.4hPa | 2.7V | 03:21:27 | 02:37:52 | 00:00:00 | |
| DF8AY | 2026-09-02 12:28:38 | 52.70076 | 10.74914 | 60° | 15km/h | 24261m | -22.3m/s | -51°C | 0% | 30.2hPa | 2.6V | 03:21:27 | 02:37:50 | 00:00:00 | |
| DL4BBY-15 | 2026-09-02 12:28:37 | 52.70077 | 10.74920 | 57° | 11km/h | 24240m | -22.0m/s | -50.8°C | 0% | 0hPa | 2.7V | 00:00:00 | 00:00:00 | 00:00:00 | |
| AM1SDL-15 | 2026-09-02 12:28:35 | 52.70074 | 10.74909 | 63° | 11km/h | 24284m | -23.4m/s | -51.0°C | 2.9% | 30.1hPa | 2.7V | 00:00:00 | 02:37:49 | 00:00:00 | |
| DB0UT-7 | 2026-09-02 12:28:34 | 52.70072 | 10.74903 | 69° | 11km/h | 24307m | -23.6m/s | -51.0°C | 2.9% | 29.9hPa | 2.7V | 03:20:00 | 02:37:48 | 00:00:00 | |
| DM0DOS-11 | 2026-09-02 12:28:33 | 52.70071 | 10.74863 | 99° | 15km/h | 24443m | -24.1m/s | -51°C | 2.9% | 29.4hPa | 2.7V | 03:21:00 | 02:37:42 | 00:00:00 | |
| DL1XH-west | 2026-09-02 12:28:32 | 52.70070 | 10.74891 | 81° | 16km/h | 24354m | -23.7m/s | -51°C | 0% | 29.8hPa | 2.7V | 03:21:27 | 02:37:46 | 00:00:00 | |
| HSKMA3-T | 2026-09-02 12:28:32 | 52.70070 | 10.74884 | 89° | 18km/h | 24376m | -23m/s | -51.1°C | 0% | 29.6hPa | 2.6V | 03:21:27 | 02:37:45 | 00:00:00 | |
| BIOWL9-15 | 2026-09-02 12:28:31 | 52.70070 | 10.74884 | 89° | 16km/h | 24376m | -23.0m/s | -51.1°C | 0% | 29.6hPa | 2.7V | 00:00:00 | 00:00:00 | 00:00:00 | |
| DL1XH1-15 | 2026-09-02 12:28:30 | 52.70070 | 10.74870 | 104° | 16km/h | 24419m | -23.9m/s | -51°C | 2.9% | 29.5hPa | 2.7V | 03:20:59 | 02:37:43 | 00:00:00 | |
| BIOWL1-15 | 2026-09-02 12:28:28 | 52.70077 | 10.74840 | 135° | 9km/h | 24561m | -22.7m/s | -51.2°C | 0% | 28.8hPa | 2.7V | 03:21:27 | 02:37:37 | 00:00:00 | |
| DF8AY | 2026-09-02 12:28:25 | 52.70074 | 10.74847 | 117° | 11km/h | 24514m | -24.4m/s | -51.1°C | 0% | 29hPa | 2.6V | 03:21:27 | 02:37:39 | 00:00:00 | |
| DB0DAN | 2026-09-02 12:28:25 | 52.70074 | 10.74847 | 117° | 11km/h | 24514m | -24.4m/s | -51.1°C | 0.3% | 29.03hPa | 2.6V | 00:00:00 | 00:00:00 | 00:00:00 | |
| DL1XH1-15 | 2026-09-02 12:28:24 | 52.70086 | 10.74835 | 201° | 4km/h | 24677m | -22.3m/s | -51.5°C | 3.1% | 28.3hPa | 2.7V | 03:21:10 | 02:37:32 | 00:00:00 | |
| AA1-15 | 2026-09-02 12:28:22 | 52.70081 | 10.74835 | 159° | 11km/h | 24606m | -25.5m/s | -51.2°C | 0% | 28.6hPa | 2.6V | 03:21:27 | 02:37:35 | 00:00:00 | |
| HSKMA3-T | 2026-09-02 12:28:20 | 52.70083 | 10.74835 | 172° | 7km/h | 24631m | -24.6m/s | -51.3°C | 0% | 28.5hPa | 2.6V | 03:21:27 | 02:37:34 | 00:00:00 | |
| DO3MHA-11 | 2026-09-02 12:28:20 | 52.70083 | 10.74834 | 173° | 9km/h | 24631m | -24.5m/s | -51.2°C | 3.0% | 28.5hPa | 2.7V | 00:00:00 | 02:37:34 | 00:00:00 | |
| DM0DOS-11 | 2026-09-02 12:28:19 | 52.70086 | 10.74835 | 201° | 4km/h | 24677m | -22.3m/s | -51.5°C | 3.1% | 28.3hPa | 2.7V | 03:21:10 | 02:37:32 | 00:00:00 | |
| BIOWL1-15 | 2026-09-02 12:28:16 | 52.70084 | 10.74798 | 77° | 11km/h | 24912m | -21m/s | -51.6°C | 0% | 27.2hPa | 2.6V | 03:21:27 | 02:37:21 | 00:00:00 | |
| DF8AY | 2026-09-02 12:28:15 | 52.70085 | 10.74832 | 80° | 7km/h | 24764m | -22.2m/s | -51.9°C | 0% | 27.9hPa | 2.6V | 03:21:27 | 02:37:28 | 00:00:00 | |
| DM0DOS-11 | 2026-09-02 12:28:13 | 52.70085 | 10.74803 | 85° | 13km/h | 24891m | -21m/s | -51.7°C | 3.4% | 27.4hPa | 2.6V | 03:21:20 | 02:37:22 | 00:00:00 | |
| AA1-15 | 2026-09-02 12:28:11 | 52.70085 | 10.74820 | 101° | 13km/h | 24827m | -21.7m/s | -51.8°C | 0% | 27.6hPa | 2.7V | 03:21:27 | 02:37:25 | 00:00:00 | |
| HSKMA3-T | 2026-09-02 12:28:10 | 52.70085 | 10.74814 | 91° | 13km/h | 24848m | -21.7m/s | -51.8°C | 0% | 27.5hPa | 2.7V | 03:21:27 | 02:37:24 | 00:00:00 | |
| DL1XH1-15 | 2026-09-02 12:28:10 | 52.70085 | 10.74809 | 89° | 13km/h | 24870m | -22.5m/s | -51.7°C | 3.3% | 27.4hPa | 2.6V | 03:21:19 | 02:37:23 | 00:00:00 | |
| DB0DAN | 2026-09-02 12:28:10 | 52.70085 | 10.74814 | 91° | 13km/h | 24848m | -21.7m/s | -51.8°C | 0.4% | 27.52hPa | 2.7V | 00:00:00 | 00:00:00 | 00:00:00 | |
| BIOWL1-15 | 2026-09-02 12:28:09 | 52.70082 | 10.74790 | 57° | 11km/h | 24955m | -21.6m/s | -51.4°C | 0% | 27.1hPa | 2.7V | 03:21:27 | 02:37:19 | 00:00:00 | |
| DF8AY | 2026-09-02 12:28:04 | 52.70071 | 10.74776 | 40° | 13km/h | 25102m | -21.3m/s | -50.5°C | 0% | 26.4hPa | 2.7V | 03:24:00 | 02:37:12 | 00:00:00 | |
| DL1XH1-15 | 2026-09-02 12:28:04 | 52.70073 | 10.74778 | 51° | 7km/h | 25081m | -23.4m/s | -50.5°C | 3.1% | 26.5hPa | 2.6V | 03:21:29 | 02:37:13 | 00:00:00 | |
| AA1-15 | 2026-09-02 12:28:00 | 52.70074 | 10.74780 | 27° | 7km/h | 25059m | -21.6m/s | -50.6°C | 0% | 26.6hPa | 2.6V | 03:22:18 | 02:37:14 | 00:00:00 | |
| HSKMA3-T | 2026-09-02 12:27:59 | 52.70073 | 10.74778 | 52° | 7km/h | 25081m | -23.4m/s | -50.5°C | 0% | 26.5hPa | 2.6V | 03:22:18 | 02:37:13 | 00:00:00 | |
| DF7PN | 2026-09-02 12:27:59 | 52.70071 | 10.74776 | 39° | 11km/h | 25102m | -21.3m/s | -50.5°C | 0.3% | 26.4hPa | 2.7V | 00:00:00 | 00:00:00 | 00:00:00 | |
| SMARD9-15 | 2026-09-02 12:27:57 | 52.70066 | 10.74768 | 55° | 15km/h | 25145m | -24.2m/s | -50.3°C | 0.3% | 26.3hPa | 2.7V | 00:00:00 | 00:00:00 | 00:00:00 | |
| SONDE2-11 | 2026-09-02 12:27:56 | 52.70064 | 10.74762 | 65° | 16km/h | 25169m | -25.1m/s | -50.2°C | 0.3% | 26.2hPa | 2.7V | 00:00:00 | 00:00:00 | 00:00:00 | |
| DB0DAN | 2026-09-02 12:27:55 | 52.70064 | 10.74762 | 65° | 16km/h | 25169m | -25.1m/s | -50.2°C | 0.3% | 26.21hPa | 2.7V | 00:00:00 | 00:00:00 | 00:00:00 | |
| BIOWL1-15 | 2026-09-02 12:27:54 | 52.70062 | 10.74755 | 71° | 16km/h | 25195m | -26.6m/s | -50.2°C | 0% | 26.1hPa | 2.7V | 03:22:18 | 02:37:08 | 00:00:00 | |
| DM0DOS-11 | 2026-09-02 12:27:53 | 52.70073 | 10.74712 | 139° | 24km/h | 25364m | -24.9m/s | -49.4°C | 2.8% | 25.4hPa | 2.7V | 03:21:41 | 02:37:01 | 00:00:00 | |
| DL1XH-west | 2026-09-02 12:27:50 | 52.70069 | 10.74718 | 137° | 24km/h | 25340m | -23.6m/s | -49.5°C | 0% | 25.5hPa | 2.7V | 03:22:18 | 02:37:02 | 00:00:00 | |
| AA1-15 | 2026-09-02 12:27:50 | 52.70063 | 10.74731 | 122° | 20km/h | 25294m | -24.7m/s | -49.9°C | 0% | 25.7hPa | 2.7V | 03:22:18 | 02:37:04 | 00:00:00 | |
| HSKMA3-T | 2026-09-02 12:27:49 | 52.70066 | 10.74724 | 130° | 20km/h | 25317m | -23.7m/s | -49.7°C | 0% | 25.6hPa | 2.7V | 03:22:18 | 02:37:03 | 00:00:00 | |
| DF8AY | 2026-09-02 12:27:49 | 52.70073 | 10.74712 | 139° | 24km/h | 25365m | -24.9m/s | -49.4°C | 0% | 25.4hPa | 2.7V | 03:24:00 | 02:37:01 | 00:00:00 | |
| BIOWL1-15 | 2026-09-02 12:27:44 | 52.70094 | 10.74688 | 153° | 15km/h | 25486m | -25.5m/s | -48.5°C | 0% | 25hPa | 2.7V | 03:22:18 | 02:36:56 | 00:00:00 | |
| DL1XH1-15 | 2026-09-02 12:27:44 | 52.70102 | 10.74681 | 165° | 11km/h | 25555m | -23.1m/s | -48.4°C | 2.6% | 24.7hPa | 2.7V | 03:21:49 | 02:36:53 | 00:00:00 | |
| AA1-15 | 2026-09-02 12:27:40 | 52.70100 | 10.74683 | 160° | 13km/h | 25533m | -21.7m/s | -48.5°C | 0% | 24.8hPa | 2.7V | 03:22:18 | 02:36:54 | 00:00:00 | |
| DB0DAN | 2026-09-02 12:27:40 | 52.70100 | 10.74683 | 160° | 11km/h | 25533m | -21.7m/s | -48.5°C | 0.2% | 24.76hPa | 2.7V | 00:00:00 | 00:00:00 | 00:00:00 | |
| HSKMA3-T | 2026-09-02 12:27:39 | 52.70102 | 10.74681 | 166° | 11km/h | 25555m | -23.1m/s | -48.4°C | 0% | 24.7hPa | 2.7V | 03:22:18 | 02:36:53 | 00:00:00 | |
| DF8AY | 2026-09-02 12:27:37 | 52.70108 | 10.74680 | 173° | 11km/h | 25598m | -22.3m/s | -48.3°C | 0% | 24.5hPa | 2.6V | 03:24:00 | 02:36:51 | 00:00:00 | |
| DL1NUX | 2026-09-02 12:27:37 | 52.70111 | 10.74679 | 175° | 11km/h | 25620m | -22.4m/s | -48.2°C | 2.5% | 24.4hPa | 2.6V | 03:21:52 | 02:36:50 | 00:00:00 | |
| DO2JMG | 2026-09-02 12:27:33 | 52.70118 | 10.74678 | 175° | 7km/h | 25688m | -23.1m/s | 0°C | 0% | 0hPa | 2.7V | 18:12:15 | 02:36:47 | 00:00:00 | |
| BIOWL1-15 | 2026-09-02 12:27:33 | 52.70120 | 10.74675 | 79° | 7km/h | 25761m | -25.6m/s | -48.2°C | 0% | 23.9hPa | 2.7V | 03:22:18 | 02:36:44 | 00:00:00 | |
| DL4XJ-10 | 2026-09-02 12:27:33 | 52.70118 | 10.74678 | 176° | 11km/h | 25688m | -23.1m/s | -47.9°C | 0% | 0hPa | 2.7V | 00:00:00 | 00:00:00 | 00:00:00 | |
| GOEST3-10 | 2026-09-02 12:27:32 | 52.70120 | 10.74677 | 154° | 5km/h | 25711m | -25.2m/s | -48.1°C | 2.6% | 24.1hPa | 2.7V | 00:00:00 | 00:00:00 | 00:00:00 | |
| DM0DOS-11 | 2026-09-02 12:27:31 | 52.70119 | 10.74669 | 52° | 7km/h | 25814m | -26.4m/s | -48.4°C | 2.6% | 23.8hPa | 2.6V | 03:22:00 | 02:36:42 | 00:00:00 | |
| DL1NUX | 2026-09-02 12:27:31 | 52.70117 | 10.74664 | 65° | 5km/h | 25862m | -22.5m/s | -48.6°C | 2.7% | 23.6hPa | 2.7V | 03:22:02 | 02:36:40 | 00:00:00 | |
| DL1XH-west | 2026-09-02 12:27:29 | 52.70120 | 10.74672 | 74° | 7km/h | 25787m | -27.5m/s | -48.3°C | 0% | 23.9hPa | 2.6V | 03:22:18 | 02:36:43 | 00:00:00 | |
| AA1-15 | 2026-09-02 12:27:29 | 52.70118 | 10.74667 | 76° | 7km/h | 25839m | -25.3m/s | -48.5°C | 0% | 23.6hPa | 2.6V | 03:22:18 | 02:36:41 | 00:00:00 | |
| HSKMA3-T | 2026-09-02 12:27:28 | 52.70119 | 10.74669 | 53° | 7km/h | 25814m | -26.4m/s | -48.4°C | 0% | 23.8hPa | 2.6V | 03:22:18 | 02:36:42 | 00:00:00 | |
| DF8AY | 2026-09-02 12:27:26 | 52.70117 | 10.74664 | 65° | 5km/h | 25862m | -22.5m/s | -48.6°C | 0% | 23.6hPa | 2.7V | 03:24:00 | 02:36:40 | 00:00:00 | |
| DB0DAN | 2026-09-02 12:27:25 | 52.70117 | 10.74663 | 116° | 4km/h | 25885m | -23.2m/s | -48.6°C | 0.2% | 23.5hPa | 2.7V | 00:00:00 | 00:00:00 | 00:00:00 | |
| BIOWL1-15 | 2026-09-02 12:27:22 | 52.70122 | 10.74659 | 154° | 13km/h | 25954m | -25.4m/s | -48.4°C | 0% | 23.2hPa | 2.7V | 03:22:18 | 02:36:36 | 00:00:00 | |
| DO2SHX-10 | 2026-09-02 12:27:22 | 52.70121 | 10.74659 | 155° | 13km/h | 25955m | -25.3m/s | -48.3°C | 2.7% | 23.2hPa | 2.7V | 00:00:00 | 02:36:36 | 00:00:00 | |
| DL1NUX | 2026-09-02 12:27:21 | 52.70141 | 10.74637 | 147° | 18km/h | 26095m | -25.4m/s | -48.3°C | 2.7% | 22.7hPa | 2.7V | 03:22:12 | 02:36:30 | 00:00:00 | |
| DL1XH-west | 2026-09-02 12:27:19 | 52.70131 | 10.74650 | 143° | 15km/h | 26024m | -22.6m/s | -48.5°C | 0% | 23hPa | 2.6V | 03:22:18 | 02:36:33 | 00:00:00 | |
| DL1XH-15 | 2026-09-02 12:27:19 | 52.70134 | 10.74646 | 136° | 18km/h | 26047m | -24.2m/s | -48.5°C | 2.8% | 22.9hPa | 2.7V | 03:22:10 | 02:36:32 | 00:00:00 | |
| AA1-15 | 2026-09-02 12:27:18 | 52.70141 | 10.74637 | 148° | 18km/h | 26096m | -25.4m/s | -48.3°C | 0% | 22.7hPa | 2.7V | 03:22:18 | 02:36:30 | 00:00:00 | |
| HSKMA3-T | 2026-09-02 12:27:17 | 52.70137 | 10.74641 | 138° | 16km/h | 26071m | -25.1m/s | -48.4°C | 0% | 22.8hPa | 2.7V | 03:22:18 | 02:36:31 | 00:00:00 | |
| DF8AY | 2026-09-02 12:27:15 | 52.70152 | 10.74631 | 175° | 15km/h | 26171m | -23.1m/s | -47.7°C | 0% | 22.5hPa | 2.6V | 03:24:00 | 02:36:27 | 00:00:00 | |
| DL1XH-15 | 2026-09-02 12:27:13 | 52.70164 | 10.74627 | 133° | 9km/h | 26294m | -28.9m/s | -47°C | 2.4% | 22.1hPa | 2.6V | 03:22:20 | 02:36:22 | 00:00:00 | |
| BIOWL1-15 | 2026-09-02 12:27:11 | 52.70176 | 10.74608 | 142° | 16km/h | 26429m | -26.8m/s | -47.2°C | 0% | 21.6hPa | 2.6V | 03:23:09 | 02:36:17 | 00:00:00 | |
| DL1NUX | 2026-09-02 12:27:11 | 52.70168 | 10.74620 | 131° | 13km/h | 26348m | -26.8m/s | -47.1°C | 2.4% | 21.9hPa | 2.7V | 03:22:22 | 02:36:20 | 00:00:00 | |
| DL1XH1-15 | 2026-09-02 12:27:10 | 52.70163 | 10.74630 | 148° | 7km/h | 26266m | -28.1m/s | -47°C | 2.4% | 22.2hPa | 2.6V | 03:22:19 | 02:36:23 | 00:00:00 | |
| DB0DAN | 2026-09-02 12:27:10 | 52.70161 | 10.74631 | 165° | 7km/h | 26241m | -26.1m/s | -47.1°C | 0.2% | 22.26hPa | 2.7V | 00:00:00 | 00:00:00 | 00:00:00 | |
| DL1XH-west | 2026-09-02 12:27:09 | 52.70164 | 10.74628 | 133° | 9km/h | 26294m | -28.9m/s | -47°C | 0% | 22.1hPa | 2.6V | 03:23:09 | 02:36:22 | 00:00:00 | |
| HSKMA3-T | 2026-09-02 12:27:07 | 52.70166 | 10.74624 | 131° | 13km/h | 26322m | -26.9m/s | -47.1°C | 0% | 22hPa | 2.7V | 03:23:09 | 02:36:21 | 00:00:00 | |
| DF8AY | 2026-09-02 12:27:05 | 52.70171 | 10.74616 | 133° | 15km/h | 26375m | -27.2m/s | -47.1°C | 0% | 21.8hPa | 2.7V | 03:24:00 | 02:36:19 | 00:00:00 | |
| AM1SDL-15 | 2026-09-02 12:27:05 | 52.70171 | 10.74616 | 134° | 18km/h | 26375m | -27.1m/s | -47.1°C | 2.4% | 21.7hPa | 2.7V | 03:22:00 | 02:36:19 | 00:00:00 | |
| DL1XH1-15 | 2026-09-02 12:27:04 | 52.70192 | 10.74595 | 159° | 18km/h | 26530m | -25m/s | -47.3°C | 2.4% | 21.3hPa | 2.7V | 03:22:29 | 02:36:13 | 00:00:00 | |
| DO2SHX-10 | 2026-09-02 12:27:04 | 52.70173 | 10.74612 | 139° | 16km/h | 26402m | -27.3m/s | -47.1°C | 2.4% | 21.6hPa | 2.7V | 03:22:00 | 02:36:18 | 00:00:00 | |
| DD8BA-10 | 2026-09-02 12:27:03 | 52.70176 | 10.74608 | 143° | 20km/h | 26429m | -26.7m/s | -47.1°C | 2.5% | 21.6hPa | 2.7V | 00:00:00 | 00:00:00 | 00:00:00 | |
| DJ8HS-15 | 2026-09-02 12:27:02 | 52.70180 | 10.74604 | 148° | 26km/h | 26455m | -26.2m/s | -47.1°C | 2.4% | 21.5hPa | 2.7V | 00:00:00 | 02:36:16 | 00:00:00 | |
| DL1NUX | 2026-09-02 12:27:01 | 52.70206 | 10.74587 | 163° | 24km/h | 26603m | -25.8m/s | -47.5°C | 2.5% | 21hPa | 2.7V | 03:22:32 | 02:36:10 | 00:00:00 | |
| DL1XH-west | 2026-09-02 12:26:59 | 52.70196 | 10.74592 | 162° | 18km/h | 26555m | -25.8m/s | -47.4°C | 0% | 21.2hPa | 2.6V | 03:23:09 | 02:36:12 | 00:00:00 | |
| HSKMA3-T | 2026-09-02 12:26:57 | 52.70201 | 10.74590 | 158° | 20km/h | 26579m | -23.9m/s | -47.4°C | 0% | 21.1hPa | 2.6V | 03:23:09 | 02:36:11 | 00:00:00 | |
| AA1-15 | 2026-09-02 12:26:57 | 52.70206 | 10.74587 | 163° | 24km/h | 26603m | -25.8m/s | -47.5°C | 0% | 21hPa | 2.7V | 03:23:09 | 02:36:10 | 00:00:00 | |
| DF7PN | 2026-09-02 12:26:57 | 52.70206 | 10.74587 | 163° | 22km/h | 26604m | -25.8m/s | -47.5°C | 0.2% | 21.0hPa | 2.7V | 00:00:00 | 00:00:00 | 00:00:00 | |
| DB0DAN | 2026-09-02 12:26:55 | 52.70212 | 10.74584 | 167° | 22km/h | 26628m | -24.6m/s | -47.5°C | 0.2% | 20.95hPa | 2.7V | 00:00:00 | 00:00:00 | 00:00:00 | |
| DF8AY | 2026-09-02 12:26:54 | 52.70218 | 10.74582 | 166° | 26km/h | 26651m | -22.8m/s | -47.5°C | 0% | 20.9hPa | 2.7V | 03:24:00 | 02:36:08 | 00:00:00 | |
| SONDE2-11 | 2026-09-02 12:26:54 | 52.70224 | 10.74580 | 172° | 26km/h | 26675m | -25.5m/s | -47.5°C | 0.2% | 20.8hPa | 2.6V | 00:00:00 | 00:00:00 | 00:00:00 | |
| DL4XJ-10 | 2026-09-02 12:26:53 | 52.70225 | 10.74580 | 173° | 24km/h | 26675m | -25.5m/s | -47.4°C | 0% | 0hPa | 2.6V | 00:00:00 | 00:00:00 | 00:00:00 | |
| DF8AY-15 | 2026-09-02 12:26:52 | 52.70231 | 10.74579 | 174° | 22km/h | 26699m | -24.1m/s | -47.5°C | 2.6% | 20.7hPa | 2.6V | 00:00:00 | 02:36:06 | 00:00:00 | |
| DL1NUX | 2026-09-02 12:26:51 | 52.70277 | 10.74578 | 190° | 31km/h | 26853m | -25.7m/s | -47.4°C | 2.5% | 20.2hPa | 2.6V | 03:22:42 | 02:36:00 | 00:00:00 | |
| SO1NDE-10 | 2026-09-02 12:26:51 | 52.70239 | 10.74577 | 173° | 20km/h | 26723m | -24.5m/s | -47.5°C | 2.5% | 20.6hPa | 2.7V | 00:00:00 | 02:36:05 | 00:00:00 | |
| DL1XH1-15 | 2026-09-02 12:26:50 | 52.70254 | 10.74576 | 179° | 31km/h | 26774m | -28.3m/s | -47.4°C | 2.5% | 20.5hPa | 2.7V | 03:22:39 | 02:36:03 | 00:00:00 | |
| DL1XH-west | 2026-09-02 12:26:48 | 52.70262 | 10.74576 | 181° | 31km/h | 26801m | -27.9m/s | -47.4°C | 0% | 20.4hPa | 2.7V | 03:23:09 | 02:36:02 | 00:00:00 | |
| HSKMA3-T | 2026-09-02 12:26:46 | 52.70277 | 10.74578 | 191° | 31km/h | 26853m | -25.7m/s | -47.4°C | 0% | 20.2hPa | 2.6V | 03:23:09 | 02:36:00 | 00:00:00 | |
| AA1-15 | 2026-09-02 12:26:46 | 52.70293 | 10.74585 | 197° | 31km/h | 26903m | -26m/s | -47.4°C | 0% | 20.1hPa | 2.7V | 03:23:09 | 02:35:58 | 00:00:00 | |
| DL3AQ-11 | 2026-09-02 12:26:46 | 52.70285 | 10.74581 | 192° | 31km/h | 26879m | -25.5m/s | -47.4°C | 0.2% | 20.1hPa | 2.7V | 00:00:00 | 00:00:00 | 00:00:00 | |
| BIOWL1-15 | 2026-09-02 12:26:44 | 52.70306 | 10.74594 | 217° | 24km/h | 26955m | -26.4m/s | -47.3°C | 0% | 19.9hPa | 2.7V | 03:23:09 | 02:35:56 | 00:00:00 | |
| DL1XH1-15 | 2026-09-02 12:26:44 | 52.70314 | 10.74613 | 238° | 16km/h | 27036m | -26.5m/s | -47.5°C | 2.6% | 19.7hPa | 2.7V | 03:22:49 | 02:35:53 | 00:00:00 | |
| DO2SHX-10 | 2026-09-02 12:26:44 | 52.70293 | 10.74584 | 198° | 20km/h | 26904m | -26.0m/s | -47.3°C | 2.6% | 20.0hPa | 2.6V | 00:00:00 | 02:35:58 | 00:00:00 | |
| GOEST3-10 | 2026-09-02 12:26:43 | 52.70306 | 10.74594 | 218° | 18km/h | 26955m | -26.4m/s | -47.3°C | 2.6% | 19.9hPa | 2.6V | 03:22:00 | 00:00:00 | 00:00:00 | |
| DJ8HS-15 | 2026-09-02 12:26:42 | 52.70306 | 10.74594 | 218° | 16km/h | 26955m | -26.4m/s | -47.3°C | 2.6% | 19.9hPa | 2.6V | 03:22:00 | 02:35:56 | 00:00:00 | |
| DL1NUX | 2026-09-02 12:26:41 | 52.70319 | 10.74631 | 255° | 13km/h | 27110m | -25.7m/s | -46.7°C | 2.5% | 19.4hPa | 2.6V | 03:22:52 | 02:35:50 | 00:00:00 | |
| DB0DAN | 2026-09-02 12:26:40 | 52.70312 | 10.74607 | 238° | 16km/h | 27009m | -28m/s | -47.5°C | 0.2% | 19.76hPa | 2.6V | 00:00:00 | 00:00:00 | 00:00:00 | |
| DO2JMG | 2026-09-02 12:26:39 | 52.70314 | 10.74613 | 239° | 16km/h | 27036m | -26.5m/s | 0°C | 0% | 0hPa | 2.7V | 18:12:15 | 02:35:53 | 00:00:00 | |
| DL1XH-west | 2026-09-02 12:26:38 | 52.70317 | 10.74619 | 237° | 16km/h | 27061m | -24.7m/s | -47.4°C | 0% | 19.6hPa | 2.7V | 03:23:09 | 02:35:52 | 00:00:00 | |
| AA1-15 | 2026-09-02 12:26:35 | 52.70320 | 10.74637 | 265° | 13km/h | 27135m | -26m/s | -46.5°C | 0% | 19.4hPa | 2.6V | 03:23:09 | 02:35:49 | 00:00:00 | |
| BIOWL1-15 | 2026-09-02 12:26:33 | 52.70315 | 10.74647 | 332° | 16km/h | 27214m | -26.6m/s | -46.1°C | 0% | 19.1hPa | 2.7V | 03:23:09 | 02:35:46 | 00:00:00 | |
| DL4XJ-10 | 2026-09-02 12:26:33 | 52.70318 | 10.74644 | 324° | 15km/h | 27188m | -28.0m/s | -46.0°C | 0% | 0hPa | 2.7V | 00:00:00 | 00:00:00 | 00:00:00 | |
| DM0DOS-11 | 2026-09-02 12:26:32 | 52.70293 | 10.74656 | 353° | 22km/h | 27319m | -29.1m/s | -46.3°C | 2.3% | 18.8hPa | 2.7V | 03:23:00 | 02:35:42 | 00:00:00 | |
| DF8AY-15 | 2026-09-02 12:26:32 | 52.70315 | 10.74647 | 332° | 22km/h | 27215m | -26.5m/s | -46.0°C | 2.3% | 19.1hPa | 2.7V | 03:22:00 | 02:35:46 | 00:00:00 | |
| DL1NUX | 2026-09-02 12:26:31 | 52.70283 | 10.74658 | 354° | 16km/h | 27376m | -27.3m/s | -46.5°C | 2.4% | 18.7hPa | 2.7V | 03:23:02 | 02:35:40 | 00:00:00 | |
| DL1XH-west | 2026-09-02 12:26:27 | 52.70288 | 10.74657 | 354° | 20km/h | 27348m | -28.8m/s | -46.5°C | 0% | 18.8hPa | 2.7V | 03:23:09 | 02:35:41 | 00:00:00 | |
| DF8AY | 2026-09-02 12:26:26 | 52.70271 | 10.74656 | 35° | 11km/h | 27485m | -27m/s | -46.2°C | 0% | 18.4hPa | 2.7V | 03:24:00 | 02:35:36 | 00:00:00 | |
| DB0DAN | 2026-09-02 12:26:25 | 52.70279 | 10.74659 | 353° | 15km/h | 27402m | -25.6m/s | -46.5°C | 0.2% | 18.63hPa | 2.6V | 00:00:00 | 00:00:00 | 00:00:00 | |
| HSKMA3-T | 2026-09-02 12:26:24 | 52.70275 | 10.74659 | 9° | 11km/h | 27429m | -29.5m/s | -46.4°C | 0% | 18.6hPa | 2.6V | 03:23:09 | 02:35:38 | 00:00:00 | |
| BIOWL1-15 | 2026-09-02 12:26:22 | 52.70268 | 10.74638 | 161° | 9km/h | 27650m | -26.2m/s | -46.4°C | 0% | 17.9hPa | 2.7V | 03:24:51 | 02:35:30 | 00:00:00 | |
| DL1NUX | 2026-09-02 12:26:21 | 52.70268 | 10.74638 | 161° | 9km/h | 27650m | -26.2m/s | -46.4°C | 2.4% | 17.9hPa | 2.7V | 03:23:12 | 02:35:30 | 00:00:00 | |
| DL1XH-west | 2026-09-02 12:26:17 | 52.70266 | 10.74640 | 146° | 9km/h | 27622m | -29.3m/s | -46.3°C | 0% | 18hPa | 2.7V | 03:24:00 | 02:35:31 | 00:00:00 | |
| AA1-15 | 2026-09-02 12:26:13 | 52.70277 | 10.74639 | 202° | 15km/h | 27726m | -25.8m/s | -46.4°C | 0% | 17.7hPa | 2.6V | 03:24:00 | 02:35:27 | 00:00:00 | |
| BIOWL1-15 | 2026-09-02 12:26:11 | 52.70285 | 10.74651 | 274° | 7km/h | 27831m | -27.5m/s | -46.1°C | 0% | 17.4hPa | 2.7V | 03:24:51 | 02:35:23 | 00:00:00 | |
| DL1XH1-15 | 2026-09-02 12:26:10 | 52.70285 | 10.74651 | 273° | 7km/h | 27831m | -27.5m/s | -46.1°C | 2.4% | 17.4hPa | 2.7V | 03:23:19 | 02:35:23 | 00:00:00 | |
| DB0DAN | 2026-09-02 12:26:10 | 52.70284 | 10.74647 | 252° | 9km/h | 27804m | -27.9m/s | -46.3°C | 0.2% | 17.52hPa | 2.7V | 00:00:00 | 00:00:00 | 00:00:00 | |
| DL1NUX | 2026-09-02 12:26:08 | 52.70283 | 10.74656 | 15° | 4km/h | 27909m | -25.7m/s | -46°C | 2.3% | 17.2hPa | 2.7V | 03:23:22 | 02:35:20 | 00:00:00 | |
| DL1XH-west | 2026-09-02 12:26:06 | 52.70283 | 10.74656 | 15° | 5km/h | 27909m | -25.7m/s | -46.1°C | 0% | 17.2hPa | 2.7V | 03:24:00 | 02:35:20 | 00:00:00 | |
| DL3AQ-11 | 2026-09-02 12:26:06 | 52.70282 | 10.74655 | 37° | 5km/h | 27934m | -25.2m/s | -46.1°C | 0.2% | 17.1hPa | 2.7V | 00:00:00 | 00:00:00 | 00:00:00 | |
| EDDB2-12 | 2026-09-02 12:26:05 | 52.70280 | 10.74653 | 32° | 7km/h | 27959m | -25.6m/s | -46.0°C | 0.2% | 17.1hPa | 2.7V | 00:00:00 | 00:00:00 | 00:00:00 | |
| DL1XH1-15 | 2026-09-02 12:26:04 | 52.70261 | 10.74644 | 13° | 24km/h | 28090m | -25.4m/s | -45.9°C | 2.3% | 16.8hPa | 2.7V | 03:23:29 | 02:35:13 | 00:00:00 | |
| DO2JMG | 2026-09-02 12:26:03 | 52.70278 | 10.74652 | 25° | 11km/h | 27986m | -28.9m/s | 0°C | 0% | 0hPa | 2.6V | 18:12:15 | 02:35:17 | 00:00:00 | |
| AA1-15 | 2026-09-02 12:26:02 | 52.70275 | 10.74650 | 20° | 15km/h | 28013m | -27m/s | -45.7°C | 0% | 17hPa | 2.6V | 03:24:00 | 02:35:16 | 00:00:00 | |
| DJ8HS-15 | 2026-09-02 12:26:02 | 52.70275 | 10.74650 | 21° | 26km/h | 28014m | -27.0m/s | -45.7°C | 2.3% | 16.9hPa | 2.7V | 00:00:00 | 02:35:16 | 00:00:00 | |
| TFSTFS | 2026-09-02 12:26:00 | 52.70271 | 10.74648 | 14° | 18km/h | 28039m | -26.0m/s | -45.7°C | 0.2% | 16.9hPa | 2.7V | 03:24:00 | 00:00:00 | 00:00:00 | |
| DL1XH-15 | 2026-09-02 12:25:59 | 52.70255 | 10.74641 | 26° | 27km/h | 28115m | -26.2m/s | -45.8°C | 2.3% | 16.7hPa | 2.7V | 03:23:30 | 02:35:12 | 00:00:00 | |
| BIOWL1-15 | 2026-09-02 12:25:58 | 52.70255 | 10.74641 | 27° | 27km/h | 28116m | -26.2m/s | -45.8°C | 0% | 16.7hPa | 2.7V | 03:24:51 | 02:35:12 | 00:00:00 | |
| DL1XH-west | 2026-09-02 12:25:56 | 52.70236 | 10.74619 | 48° | 33km/h | 28191m | -26.7m/s | -46°C | 0% | 16.5hPa | 2.7V | 03:24:00 | 02:35:09 | 00:00:00 | |
| DB0DAN | 2026-09-02 12:25:55 | 52.70236 | 10.74619 | 48° | 31km/h | 28191m | -26.7m/s | -46°C | 0.2% | 16.49hPa | 2.7V | 00:00:00 | 00:00:00 | 00:00:00 | |
| DF8AY | 2026-09-02 12:25:52 | 52.70222 | 10.74589 | 56° | 29km/h | 28271m | -27.6m/s | -45.9°C | 0% | 16.3hPa | 2.6V | 03:24:00 | 02:35:06 | 00:00:00 | |
| HSKMA3-T | 2026-09-02 12:25:51 | 52.70218 | 10.74579 | 57° | 27km/h | 28298m | -27.9m/s | -45.8°C | 0% | 16.2hPa | 2.6V | 03:24:00 | 02:35:05 | 00:00:00 | |
| DM0DOS-11 | 2026-09-02 12:25:51 | 52.70206 | 10.74553 | 55° | 24km/h | 28374m | -27.4m/s | -46°C | 2.3% | 16hPa | 2.7V | 03:23:40 | 02:35:02 | 00:00:00 | |
| SO1NDE-10 | 2026-09-02 12:25:51 | 52.70218 | 10.74579 | 57° | 16km/h | 28299m | -27.9m/s | -45.7°C | 2.3% | 16.2hPa | 2.6V | 03:23:00 | 02:35:05 | 00:00:00 | |
| DL1XH1-15 | 2026-09-02 12:25:50 | 52.70210 | 10.74562 | 50° | 27km/h | 28349m | -24m/s | -45.8°C | 2.3% | 16.1hPa | 2.7V | 03:23:39 | 02:35:03 | 00:00:00 | |
| DL1XH-west | 2026-09-02 12:25:45 | 52.70197 | 10.74525 | 77° | 26km/h | 28454m | -29m/s | -46.2°C | 0% | 15.9hPa | 2.6V | 03:24:00 | 02:34:59 | 00:00:00 | |
| DL1XH1-15 | 2026-09-02 12:25:44 | 52.70205 | 10.74469 | 117° | 22km/h | 28608m | -25.2m/s | -45.7°C | 2.3% | 15.4hPa | 2.7V | 03:23:49 | 02:34:53 | 00:00:00 | |
| DF8AY | 2026-09-02 12:25:42 | 52.70200 | 10.74486 | 112° | 24km/h | 28560m | -24.1m/s | -45.9°C | 0% | 15.6hPa | 2.6V | 03:24:00 | 02:34:55 | 00:00:00 | |
| DL1NUX | 2026-09-02 12:25:41 | 52.70210 | 10.74449 | 101° | 16km/h | 28686m | -28.2m/s | -45.5°C | 2.3% | 15.3hPa | 2.7V | 03:23:52 | 02:34:50 | 00:00:00 | |
| AA1-15 | 2026-09-02 12:25:40 | 52.70203 | 10.74477 | 119° | 26km/h | 28584m | -24.7m/s | -45.8°C | 0% | 15.6hPa | 2.6V | 03:24:00 | 02:34:54 | 00:00:00 | |
| DB0DAN | 2026-09-02 12:25:40 | 52.70203 | 10.74477 | 119° | 24km/h | 28584m | -24.7m/s | -45.8°C | 0.2% | 15.55hPa | 2.6V | 00:00:00 | 00:00:00 | 00:00:00 | |
| HSKMA3-T | 2026-09-02 12:25:39 | 52.70205 | 10.74469 | 118° | 22km/h | 28608m | -25.2m/s | -45.7°C | 0% | 15.4hPa | 2.7V | 03:24:00 | 02:34:53 | 00:00:00 | |
| DL1XH-15 | 2026-09-02 12:25:39 | 52.70208 | 10.74461 | 116° | 18km/h | 28633m | -25.1m/s | -45.6°C | 2.3% | 15.4hPa | 2.7V | 03:23:50 | 02:34:52 | 00:00:00 | |
| DL1XH-west | 2026-09-02 12:25:35 | 52.70211 | 10.74443 | 106° | 15km/h | 28714m | -28m/s | -45.5°C | 0% | 15.2hPa | 2.6V | 03:24:00 | 02:34:49 | 00:00:00 | |
| DB0UT-7 | 2026-09-02 12:25:34 | 52.70212 | 10.74438 | 111° | 9km/h | 28742m | -29.3m/s | -45.4°C | 2.3% | 15.1hPa | 2.7V | 00:00:00 | 02:34:48 | 00:00:00 | |
| DM0DOS-11 | 2026-09-02 12:25:33 | 52.70224 | 10.74432 | 198° | 5km/h | 28921m | -28.7m/s | -45°C | 2.2% | 14.8hPa | 2.7V | 03:24:00 | 02:34:42 | 00:00:00 | |
| DF8AY | 2026-09-02 12:25:33 | 52.70217 | 10.74431 | 154° | 11km/h | 28833m | -30.7m/s | -45°C | 0% | 15hPa | 2.7V | 03:24:00 | 02:34:45 | 00:00:00 | |
| GOEST3-10 | 2026-09-02 12:25:33 | 52.70214 | 10.74432 | 145° | 9km/h | 28802m | -31.8m/s | -45.1°C | 2.2% | 15.0hPa | 2.7V | 00:00:00 | 00:00:00 | 00:00:00 | |
| DL1NUX | 2026-09-02 12:25:31 | 52.70226 | 10.74435 | 271° | 4km/h | 28980m | -28.6m/s | -44.9°C | 2.2% | 14.6hPa | 2.7V | 03:24:02 | 02:34:40 | 00:00:00 | |
| AA1-15 | 2026-09-02 12:25:31 | 52.70219 | 10.74430 | 178° | 11km/h | 28863m | -30.1m/s | -44.9°C | 0% | 14.9hPa | 2.6V | 03:24:00 | 02:34:44 | 00:00:00 | |
| DL1XH1-15 | 2026-09-02 12:25:30 | 52.70222 | 10.74431 | 188° | 11km/h | 28892m | -29.9m/s | -44.9°C | 2.2% | 14.8hPa | 2.6V | 03:23:59 | 02:34:43 | 00:00:00 | |
| HSKMA3-T | 2026-09-02 12:25:28 | 52.70224 | 10.74432 | 198° | 5km/h | 28921m | -28.7m/s | -45°C | 0% | 14.8hPa | 2.7V | 03:24:00 | 02:34:42 | 00:00:00 | |
| DO2SHX-10 | 2026-09-02 12:25:27 | 52.70225 | 10.74433 | 218° | 5km/h | 28951m | -30.4m/s | -44.9°C | 2.2% | 14.6hPa | 2.7V | 00:00:00 | 02:34:41 | 00:00:00 | |
| DB0DAN | 2026-09-02 12:25:25 | 52.70225 | 10.74437 | 318° | 5km/h | 29008m | -28.3m/s | -44.8°C | 0.2% | 14.57hPa | 2.7V | 00:00:00 | 00:00:00 | 00:00:00 | |
| DL1XH-west | 2026-09-02 12:25:25 | 52.70225 | 10.74437 | 318° | 5km/h | 29008m | -28.3m/s | -44.8°C | 0% | 14.6hPa | 2.7V | 03:24:51 | 02:34:39 | 00:00:00 | |
| DL1XH1-15 | 2026-09-02 12:25:24 | 52.70214 | 10.74435 | 78° | 5km/h | 29167m | -29.7m/s | -45.1°C | 2.3% | 14.2hPa | 2.6V | 03:24:09 | 02:34:33 | 00:00:00 | |
| HTAHTA | 2026-09-02 12:25:24 | 52.70221 | 10.74439 | 350° | 9km/h | 29061m | -26.2m/s | -44.9°C | 0.1% | 14.4hPa | 2.7V | 00:00:00 | 00:00:00 | 00:00:00 | |
| DO2SHX-10 | 2026-09-02 12:25:23 | 52.70221 | 10.74439 | 351° | 7km/h | 29062m | -26.2m/s | -44.8°C | 2.2% | 14.4hPa | 2.7V | 03:24:00 | 02:34:37 | 00:00:00 | |
| DJ8HS-15 | 2026-09-02 12:25:22 | 52.70219 | 10.74440 | 1° | 9km/h | 29088m | -26.6m/s | -44.9°C | 2.2% | 14.3hPa | 2.7V | 03:24:00 | 02:34:36 | 00:00:00 | |
| DL1NUX | 2026-09-02 12:25:21 | 52.70212 | 10.74425 | 68° | 11km/h | 29246m | -25.7m/s | -45.1°C | 2.3% | 14hPa | 2.7V | 03:24:12 | 02:34:30 | 00:00:00 | |
| AA1-15 | 2026-09-02 12:25:19 | 52.70214 | 10.74435 | 79° | 5km/h | 29168m | -29.7m/s | -45.1°C | 0% | 14.2hPa | 2.6V | 03:24:51 | 02:34:33 | 00:00:00 | |
| DM0DOS-11 | 2026-09-02 12:25:19 | 52.70214 | 10.74432 | 68° | 9km/h | 29196m | -27.6m/s | -45.1°C | 2.3% | 14.2hPa | 2.6V | 03:24:10 | 02:34:32 | 00:00:00 | |
| HSKMA3-T | 2026-09-02 12:25:18 | 52.70214 | 10.74432 | 69° | 9km/h | 29196m | -27.6m/s | -45.1°C | 0% | 14.2hPa | 2.6V | 03:24:51 | 02:34:32 | 00:00:00 | |
| DL1XH-west | 2026-09-02 12:25:15 | 52.70211 | 10.74422 | 67° | 11km/h | 29274m | -29.6m/s | -45.1°C | 0% | 13.9hPa | 2.7V | 03:24:51 | 02:34:29 | 00:00:00 | |
| DO2SHX-10 | 2026-09-02 12:25:15 | 52.70211 | 10.74421 | 67° | 9km/h | 29274m | -29.5m/s | -45.0°C | 2.3% | 13.9hPa | 2.6V | 00:00:00 | 02:34:29 | 00:00:00 | |
| DM0DOS-11 | 2026-09-02 12:25:13 | 52.70202 | 10.74405 | 72° | 7km/h | 29476m | -29.1m/s | -44.8°C | 2.4% | 13.5hPa | 2.6V | 03:24:20 | 02:34:22 | 00:00:00 | |
| DD8BA-10 | 2026-09-02 12:25:13 | 52.70208 | 10.74416 | 54° | 9km/h | 29334m | -31.3m/s | -45.0°C | 2.4% | 13.8hPa | 2.6V | 03:24:00 | 00:00:00 | 00:00:00 | |
| DO2SHX-10 | 2026-09-02 12:25:12 | 52.70207 | 10.74413 | 54° | 7km/h | 29364m | -30.6m/s | -45.0°C | 2.4% | 13.8hPa | 2.7V | 00:00:00 | 02:34:26 | 00:00:00 | |
| DL1NUX | 2026-09-02 12:25:11 | 52.70201 | 10.74398 | 86° | 11km/h | 29534m | -29.9m/s | -44.7°C | 2.4% | 13.5hPa | 2.7V | 03:24:22 | 02:34:20 | 00:00:00 | |
| DB0DAN | 2026-09-02 12:25:10 | 52.70204 | 10.74409 | 54° | 7km/h | 29421m | -27.8m/s | -45.1°C | 0.1% | 13.64hPa | 2.7V | 00:00:00 | 00:00:00 | 00:00:00 | |
| DF8AY | 2026-09-02 12:25:10 | 52.70203 | 10.74407 | 53° | 7km/h | 29449m | -27.9m/s | -45°C | 0% | 13.6hPa | 2.7V | 03:25:42 | 02:34:23 | 00:00:00 | |
| BIOWL1-15 | 2026-09-02 12:25:09 | 52.70201 | 10.74398 | 86° | 11km/h | 29534m | -29.9m/s | -44.7°C | 0% | 13.5hPa | 2.7V | 03:24:51 | 02:34:20 | 00:00:00 | |
| AA1-15 | 2026-09-02 12:25:08 | 52.70202 | 10.74405 | 72° | 7km/h | 29476m | -29.1m/s | -44.8°C | 0% | 13.5hPa | 2.6V | 03:24:51 | 02:34:22 | 00:00:00 | |
| DL1XH-west | 2026-09-02 12:25:05 | 52.70200 | 10.74387 | 79° | 16km/h | 29593m | -30m/s | -44.6°C | 0% | 13.3hPa | 2.7V | 03:24:51 | 02:34:18 | 00:00:00 | |
| AM1SDL-15 | 2026-09-02 12:25:05 | 52.70199 | 10.74387 | 80° | 16km/h | 29594m | -30.0m/s | -44.5°C | 2.3% | 13.3hPa | 2.7V | 03:24:00 | 02:34:18 | 00:00:00 | |
| DB0UT-7 | 2026-09-02 12:25:04 | 52.70199 | 10.74387 | 80° | 11km/h | 29594m | -30.0m/s | -44.5°C | 2.3% | 13.3hPa | 2.7V | 00:00:00 | 00:00:00 | 00:00:00 | |
| EDDB2-12 | 2026-09-02 12:25:03 | 52.70199 | 10.74375 | 88° | 13km/h | 29652m | -29.8m/s | -44.4°C | 0.2% | 13.2hPa | 2.6V | 00:00:00 | 00:00:00 | 00:00:00 | |
| DJ2DS-15 | 2026-09-02 12:25:02 | 52.70200 | 10.74370 | 117° | 13km/h | 29682m | -29.5m/s | -44.2°C | 0.1% | 13.1hPa | 2.6V | 00:00:00 | 00:00:00 | 00:00:00 | |
| DL1NUX | 2026-09-02 12:25:01 | 52.70217 | 10.74354 | 171° | 18km/h | 29824m | -28.8m/s | -43°C | 2.1% | 12.8hPa | 2.6V | 03:24:32 | 02:34:10 | 00:00:00 | |
| DF8AY | 2026-09-02 12:24:59 | 52.70204 | 10.74360 | 141° | 16km/h | 29738m | -27.4m/s | -43.7°C | 0% | 13hPa | 2.7V | 03:25:42 | 02:34:13 | 00:00:00 | |
| DL1XH-15 | 2026-09-02 12:24:59 | 52.70208 | 10.74357 | 158° | 18km/h | 29766m | -29.2m/s | -43.4°C | 2.1% | 12.9hPa | 2.7V | 03:24:30 | 02:34:12 | 00:00:00 | |
| AA1-15 | 2026-09-02 12:24:57 | 52.70217 | 10.74354 | 172° | 18km/h | 29824m | -28.8m/s | -43°C | 0% | 12.8hPa | 2.6V | 03:24:51 | 02:34:10 | 00:00:00 | |
| BIOWL1-15 | 2026-09-02 12:24:55 | 52.70225 | 10.74354 | 176° | 13km/h | 29884m | -31.3m/s | -43°C | 0% | 12.8hPa | 2.7V | 03:24:51 | 02:34:08 | 00:00:00 | |
| DB0DAN | 2026-09-02 12:24:55 | 52.70221 | 10.74354 | 178° | 15km/h | 29853m | -31.8m/s | -43°C | 0.1% | 12.79hPa | 2.7V | 00:00:00 | 00:00:00 | 00:00:00 | |
| DL1XH-west | 2026-09-02 12:24:53 | 52.70227 | 10.74354 | 186° | 11km/h | 29914m | -30.6m/s | -43°C | 0% | 12.7hPa | 2.7V | 03:24:51 | 02:34:07 | 00:00:00 | |
| HTAHTA | 2026-09-02 12:24:53 | 52.70233 | 10.74356 | 149° | 4km/h | 30035m | -30.5m/s | -42.7°C | 0.1% | 12.5hPa | 2.6V | 00:00:00 | 00:00:00 | 00:00:00 | |
| GOEST3-10 | 2026-09-02 12:24:52 | 52.70230 | 10.74355 | 198° | 5km/h | 29945m | -31.1m/s | -42.9°C | 0% | 12.6hPa | 2.6V | 00:00:00 | 00:00:00 | 00:00:00 | |
| DL1NUX | 2026-09-02 12:24:51 | 52.70236 | 10.74349 | 111° | 9km/h | 30126m | -30.4m/s | -42.7°C | 2% | 12.3hPa | 2.6V | 03:24:42 | 02:34:00 | 00:00:00 | |
| DO2SHX-10 | 2026-09-02 12:24:51 | 52.70231 | 10.74356 | 188° | 5km/h | 29975m | -30.6m/s | -42.9°C | 2.1% | 12.5hPa | 2.6V | 00:00:00 | 02:34:05 | 00:00:00 | |
| DL1XH1-15 | 2026-09-02 12:24:50 | 52.70233 | 10.74356 | 149° | 5km/h | 30034m | -30.5m/s | -42.7°C | 2% | 12.5hPa | 2.7V | 03:24:39 | 02:34:03 | 00:00:00 | |
| HSKMA3-T | 2026-09-02 12:24:47 | 52.70235 | 10.74352 | 123° | 11km/h | 30095m | -32.4m/s | -42.7°C | 0% | 12.3hPa | 2.7V | 03:24:51 | 02:34:01 | 00:00:00 | |
| AA1-15 | 2026-09-02 12:24:46 | 52.70236 | 10.74349 | 112° | 9km/h | 30126m | -30.4m/s | -42.7°C | 0% | 12.3hPa | 2.6V | 03:24:51 | 02:34:00 | 00:00:00 | |
| DL3AQ-11 | 2026-09-02 12:24:46 | 52.70239 | 10.74342 | 128° | 9km/h | 30186m | -30.9m/s | -42.9°C | 0.1% | 12.1hPa | 2.6V | 00:00:00 | 00:00:00 | 00:00:00 | |
| DL1XH1-15 | 2026-09-02 12:24:44 | 52.70241 | 10.74347 | 302° | 9km/h | 30334m | -32.5m/s | -42.9°C | 2.2% | 11.9hPa | 2.6V | 03:24:49 | 02:33:53 | 00:00:00 | |
| DO2SHX-10 | 2026-09-02 12:24:44 | 52.70238 | 10.74342 | 129° | 5km/h | 30186m | -30.9m/s | -42.8°C | 2.1% | 12.1hPa | 2.7V | 03:24:00 | 02:33:58 | 00:00:00 | |
| DD8BA-10 | 2026-09-02 12:24:43 | 52.70240 | 10.74340 | 152° | 7km/h | 30216m | -30.8m/s | -42.9°C | 2.1% | 12.0hPa | 2.7V | 00:00:00 | 00:00:00 | 00:00:00 | |
| DL1XH-west | 2026-09-02 12:24:43 | 52.70240 | 10.74340 | 151° | 5km/h | 30215m | -30.8m/s | -42.9°C | 0% | 12.1hPa | 2.7V | 03:24:51 | 02:33:57 | 00:00:00 | |
| DJ8HS-15 | 2026-09-02 12:24:42 | 52.70241 | 10.74340 | 188° | 9km/h | 30245m | -28.3m/s | -42.9°C | 2.1% | 12.0hPa | 2.7V | 00:00:00 | 02:33:56 | 00:00:00 | |
| DL1NUX | 2026-09-02 12:24:41 | 52.70238 | 10.74351 | 68° | 7km/h | 30424m | -28.6m/s | -42.6°C | 2.1% | 11.7hPa | 2.7V | 03:24:52 | 02:33:50 | 00:00:00 | |
| DO2SHX-10 | 2026-09-02 12:24:41 | 52.70242 | 10.74341 | 241° | 7km/h | 30273m | -28.6m/s | -42.9°C | 2.2% | 11.9hPa | 2.7V | 00:00:00 | 02:33:55 | 00:00:00 | |
| DL1XH-15 | 2026-09-02 12:24:39 | 52.70240 | 10.74350 | 310° | 5km/h | 30365m | -32m/s | -42.8°C | 2.1% | 11.8hPa | 2.7V | 03:24:50 | 02:33:52 | 00:00:00 | |
| DF8AY | 2026-09-02 12:24:38 | 52.70238 | 10.74335 | 99° | 9km/h | 30540m | -30.1m/s | -42°C | 0% | 11.5hPa | 2.7V | 03:25:42 | 02:33:46 | 00:00:00 | |
| HSKMA3-T | 2026-09-02 12:24:37 | 52.70239 | 10.74352 | 2° | 4km/h | 30396m | -28.7m/s | -42.7°C | 0% | 11.8hPa | 2.7V | 03:24:51 | 02:33:51 | 00:00:00 | |
| BIOWL1-15 | 2026-09-02 12:24:36 | 52.70238 | 10.74351 | 69° | 7km/h | 30424m | -28.6m/s | -42.6°C | 0% | 11.7hPa | 2.7V | 03:25:42 | 02:33:50 | 00:00:00 | |
| AA1-15 | 2026-09-02 12:24:34 | 52.70237 | 10.74344 | 90° | 13km/h | 30480m | -31.6m/s | -42.2°C | 0% | 11.7hPa | 2.6V | 03:25:42 | 02:33:48 | 00:00:00 | |
| DB0UT-7 | 2026-09-02 12:24:34 | 52.70237 | 10.74343 | 91° | 15km/h | 30481m | -31.5m/s | -42.2°C | 2.0% | 11.6hPa | 2.6V | 03:24:00 | 02:33:48 | 00:00:00 | |
| DM0DOS-11 | 2026-09-02 12:24:33 | 52.70238 | 10.74334 | 301° | 5km/h | 30656m | -29m/s | -41.5°C | 2% | 11.3hPa | 2.6V | 03:25:00 | 02:33:42 | 00:00:00 | |
| DL1XH-west | 2026-09-02 12:24:32 | 52.70239 | 10.74332 | 123° | 7km/h | 30570m | -29.6m/s | -41.9°C | 0% | 11.5hPa | 2.7V | 03:25:42 | 02:33:45 | 00:00:00 | |
| HSKMA3-T | 2026-09-02 12:24:27 | 52.70237 | 10.74335 | 335° | 4km/h | 30685m | -29.3m/s | -41.4°C | 0% | 11.3hPa | 2.7V | 03:25:42 | 02:33:41 | 00:00:00 | |
| AA1-15 | 2026-09-02 12:24:24 | 52.70232 | 10.74330 | 69° | 15km/h | 30783m | -33.8m/s | -40.6°C | 0% | 11.1hPa | 2.6V | 03:25:42 | 02:33:38 | 00:00:00 | |
| DL1XH1-15 | 2026-09-02 12:24:24 | 52.70223 | 10.74293 | 61° | 20km/h | 30942m | -29.9m/s | -40.5°C | 1.8% | 10.8hPa | 2.7V | 03:25:09 | 02:33:33 | 00:00:00 | |
| DL1XH-west | 2026-09-02 12:24:21 | 52.70228 | 10.74308 | 70° | 22km/h | 30881m | -31.5m/s | -40.7°C | 0% | 11hPa | 2.7V | 03:25:42 | 02:33:35 | 00:00:00 | |
| DL1NUX | 2026-09-02 12:24:21 | 52.70216 | 10.74274 | 58° | 18km/h | 31034m | -31.5m/s | -40.4°C | 1.9% | 10.7hPa | 2.6V | 03:25:12 | 02:33:30 | 00:00:00 | |
| HSKMA3-T | 2026-09-02 12:24:17 | 52.70218 | 10.74280 | 59° | 18km/h | 31003m | -31.2m/s | -40.5°C | 0% | 10.8hPa | 2.6V | 03:25:42 | 02:33:31 | 00:00:00 | |
| AA1-15 | 2026-09-02 12:24:13 | 52.70209 | 10.74259 | 60° | 15km/h | 31122m | -29.5m/s | -40.3°C | 0% | 10.5hPa | 2.7V | 03:25:42 | 02:33:27 | 00:00:00 | |
| DL1XH-west | 2026-09-02 12:24:11 | 52.70206 | 10.74250 | 63° | 13km/h | 31186m | -34.2m/s | -40.1°C | 0% | 10.5hPa | 2.7V | 03:25:42 | 02:33:25 | 00:00:00 | |
| BIOWL1-15 | 2026-09-02 12:24:11 | 52.70204 | 10.74245 | 51° | 15km/h | 31221m | -37.2m/s | -40.1°C | 0% | 10.4hPa | 2.7V | 03:25:42 | 02:33:24 | 00:00:00 | |
| DL1XH1-15 | 2026-09-02 12:24:10 | 52.70202 | 10.74240 | 48° | 16km/h | 31258m | -35.4m/s | -40.1°C | 1.9% | 10.4hPa | 2.6V | 03:25:19 | 02:33:23 | 00:00:00 | |
| DB0DAN | 2026-09-02 12:24:10 | 52.70204 | 10.74245 | 51° | 13km/h | 31221m | -37.2m/s | -40.1°C | 0.1% | 10.44hPa | 2.7V | 00:00:00 | 00:00:00 | 00:00:00 | |
| DM0DOS-11 | 2026-09-02 12:24:09 | 52.70199 | 10.74236 | 44° | 16km/h | 31291m | -33.8m/s | -40°C | 1.9% | 10.3hPa | 2.6V | 03:25:20 | 02:33:22 | 00:00:00 | |
| HSKMA3-T | 2026-09-02 12:24:06 | 52.70193 | 10.74228 | 25° | 15km/h | 31356m | -34.5m/s | -39.7°C | 0% | 10.2hPa | 2.7V | 03:25:42 | 02:33:20 | 00:00:00 | |
| DL3AQ-11 | 2026-09-02 12:24:06 | 52.70187 | 10.74224 | 30° | 9km/h | 31421m | -31.4m/s | -39.4°C | 0.1% | 10.1hPa | 2.6V | 00:00:00 | 00:00:00 | 00:00:00 | |
| DL1XH1-15 | 2026-09-02 12:24:04 | 52.70178 | 10.74203 | 48° | 24km/h | 31593m | -34.1m/s | -38.6°C | 1.7% | 9.8hPa | 2.6V | 03:25:29 | 02:33:13 | 00:00:00 | |
| AA1-15 | 2026-09-02 12:24:02 | 52.70185 | 10.74218 | 71° | 11km/h | 31487m | -36.1m/s | -39°C | 0% | 10hPa | 2.7V | 03:25:42 | 02:33:16 | 00:00:00 | |
| DL1XH-west | 2026-09-02 12:24:01 | 52.70184 | 10.74214 | 63° | 13km/h | 31524m | -37.3m/s | -38.8°C | 0% | 10hPa | 2.6V | 03:25:42 | 02:33:15 | 00:00:00 | |
| DL1NUX | 2026-09-02 12:24:01 | 52.70161 | 10.74179 | 41° | 33km/h | 31685m | -30.7m/s | -38.4°C | 1.7% | 9.7hPa | 2.7V | 03:25:32 | 02:33:10 | 00:00:00 | |
| BIOWL1-15 | 2026-09-02 12:24:00 | 52.70178 | 10.74203 | 49° | 24km/h | 31593m | -34.1m/s | -38.6°C | 0% | 9.8hPa | 2.6V | 03:25:42 | 02:33:13 | 00:00:00 | |
| DL1XH-15 | 2026-09-02 12:23:59 | 52.70173 | 10.74195 | 40° | 27km/h | 31625m | -31.5m/s | -38.5°C | 1.7% | 9.8hPa | 2.7V | 03:25:30 | 02:33:12 | 00:00:00 | |
| HSKMA3-T | 2026-09-02 12:23:55 | 52.70155 | 10.74170 | 45° | 29km/h | 31714m | -29.6m/s | -38.4°C | 0% | 9.7hPa | 2.7V | 03:25:42 | 02:33:09 | 00:00:00 | |
| DB0DAN | 2026-09-02 12:23:55 | 52.70155 | 10.74170 | 45° | 27km/h | 31714m | -29.6m/s | -38.4°C | 0% | 9.66hPa | 2.7V | 00:00:00 | 00:00:00 | 00:00:00 | |
| AA1-15 | 2026-09-02 12:23:51 | 52.70152 | 10.74139 | 82° | 15km/h | 31867m | -29.9m/s | -37.8°C | 0% | 9.4hPa | 2.7V | 03:25:42 | 02:33:04 | 00:00:00 | |
| DL1NUX | 2026-09-02 12:23:51 | 52.70134 | 10.74105 | 37° | 42km/h | 31959m | -17.5m/s | -37.6°C | 1.5% | 9.2hPa | 2.7V | 03:25:42 | 02:33:00 | 00:00:00 | |
| SO1NDE-10 | 2026-09-02 12:23:51 | 52.70151 | 10.74145 | 114° | 26km/h | 31838m | -31.5m/s | -37.9°C | 1.6% | 9.4hPa | 2.7V | 03:25:00 | 02:33:05 | 00:00:00 | |
| DM0DOS-11 | 2026-09-02 12:23:50 | 52.70147 | 10.74124 | 47° | 29km/h | 31920m | -23.9m/s | -37.7°C | 1.5% | 9.3hPa | 2.7V | 03:25:40 | 02:33:02 | 00:00:00 | |
| DL1XH1-15 | 2026-09-02 12:23:50 | 52.70151 | 10.74132 | 62° | 20km/h | 31895m | -28.3m/s | -37.8°C | 1.6% | 9.4hPa | 2.7V | 03:25:39 | 02:33:03 | 00:00:00 | |
| DL1XH-west | 2026-09-02 12:23:49 | 52.70151 | 10.74132 | 62° | 20km/h | 31895m | -28.3m/s | -37.8°C | 0% | 9.4hPa | 2.7V | 03:25:42 | 02:33:03 | 00:00:00 | |
| BIOWL1-15 | 2026-09-02 12:23:49 | 52.70119 | 10.74055 | 131° | 24km/h | 32091m | -30.5m/s | -37.2°C | 0% | 9.1hPa | 2.7V | 03:26:33 | 02:32:55 | 00:00:00 | |
| HSKMA3-T | 2026-09-02 12:23:45 | 52.70118 | 10.74082 | 50° | 35km/h | 32000m | -25.4m/s | -37.4°C | 0% | 9.2hPa | 2.6V | 03:26:33 | 02:32:58 | 00:00:00 | |
| DL1XH1-15 | 2026-09-02 12:23:44 | 52.70127 | 10.74042 | 127° | 22km/h | 32147m | -28.2m/s | -37.3°C | 1.5% | 9hPa | 2.7V | 03:25:49 | 02:32:53 | 00:00:00 | |
| DJ8HS-15 | 2026-09-02 12:23:44 | 52.70116 | 10.74063 | 117° | 26km/h | 32060m | -33.2m/s | -37.2°C | 1.5% | 9.1hPa | 2.6V | 00:00:00 | 02:32:56 | 00:00:00 | |
| SP3BTT-10 | 2026-09-02 12:23:43 | 52.70116 | 10.74063 | 117° | 24km/h | 32060m | -33.2m/s | -37.2°C | 1.5% | 9.1hPa | 2.6V | 00:00:00 | 00:00:00 | 00:00:00 | |
| DL1NUX | 2026-09-02 12:23:41 | 52.70125 | 10.74014 | 55° | 38km/h | 32219m | -21.4m/s | -37.1°C | 1.5% | 8.9hPa | 2.6V | 03:25:52 | 02:32:50 | 00:00:00 | |
| DO2SHX-10 | 2026-09-02 12:23:41 | 52.70119 | 10.74055 | 132° | 22km/h | 32091m | -30.5m/s | -37.2°C | 1.5% | 9.0hPa | 2.7V | 00:00:00 | 02:32:55 | 00:00:00 | |
| DL1LOL-11 | 2026-09-02 12:23:40 | 52.70119 | 10.74055 | 132° | 24km/h | 32091m | -30.5m/s | -37.2°C | 0.0% | 9.1hPa | 2.7V | 00:00:00 | 00:00:00 | 00:00:00 | |
| DL1XH-15 | 2026-09-02 12:23:39 | 52.70129 | 10.74034 | 95° | 20km/h | 32173m | -27.8m/s | -37.3°C | 1.6% | 9hPa | 2.7V | 03:25:50 | 02:32:52 | 00:00:00 | |
| DL1XH-west | 2026-09-02 12:23:39 | 52.70129 | 10.74034 | 95° | 20km/h | 32173m | -27.8m/s | -37.3°C | 0% | 9hPa | 2.7V | 03:26:33 | 02:32:52 | 00:00:00 | |
| BIOWL1-15 | 2026-09-02 12:23:37 | 52.70128 | 10.74025 | 74° | 26km/h | 32198m | -23.5m/s | -37.3°C | 0% | 8.9hPa | 2.6V | 03:26:33 | 02:32:51 | 00:00:00 | |
| HSKMA3-T | 2026-09-02 12:23:34 | 52.70115 | 10.73986 | 61° | 40km/h | 32247m | -6.5m/s | -37.1°C | 0% | 8.8hPa | 2.7V | 03:26:33 | 02:32:48 | 00:00:00 | |
| DD8BA-10 | 2026-09-02 12:23:33 | 52.70108 | 10.73973 | 42° | 22km/h | 32251m | -1.7m/s | -37.2°C | 1.5% | 8.8hPa | 2.7V | 00:00:00 | 00:00:00 | 00:00:00 | |
| DL1NUX | 2026-09-02 12:23:32 | 52.70081 | 10.73932 | 51° | 15km/h | 32213m | 7m/s | -37.4°C | 1.5% | 8.9hPa | 2.7V | 03:26:02 | 02:32:40 | 00:00:00 | |
| DO2SHX-10 | 2026-09-02 12:23:31 | 52.70097 | 10.73954 | 43° | 18km/h | 32247m | 6.2m/s | -37.2°C | 1.5% | 8.8hPa | 2.6V | 00:00:00 | 02:32:45 | 00:00:00 | |
| DL1XH1-15 | 2026-09-02 12:23:30 | 52.70088 | 10.73942 | 35° | 15km/h | 32232m | 7.3m/s | -37.3°C | 1.5% | 8.9hPa | 2.6V | 03:25:59 | 02:32:43 | 00:00:00 | |
| DM0DOS-11 | 2026-09-02 12:23:29 | 52.70086 | 10.73939 | 36° | 11km/h | 32225m | 6m/s | -37.3°C | 1.5% | 8.9hPa | 2.6V | 03:26:00 | 02:32:42 | 00:00:00 | |
| DL1XH-west | 2026-09-02 12:23:28 | 52.70086 | 10.73939 | 36° | 13km/h | 32225m | 6m/s | -37.3°C | 0% | 8.9hPa | 2.6V | 03:26:33 | 02:32:42 | 00:00:00 | |
| DF8AY | 2026-09-02 12:23:28 | 52.70083 | 10.73936 | 41° | 13km/h | 32219m | 5.8m/s | -37.4°C | 0% | 8.9hPa | 2.6V | 03:26:33 | 02:32:41 | 00:00:00 | |
| BIOWL1-15 | 2026-09-02 12:23:27 | 52.70081 | 10.73932 | 51° | 15km/h | 32213m | 7.1m/s | -37.4°C | 0% | 8.9hPa | 2.7V | 03:26:33 | 02:32:40 | 00:00:00 | |
| HSKMA3-T | 2026-09-02 12:23:24 | 52.70076 | 10.73918 | 68° | 24km/h | 32200m | 5.8m/s | -37.3°C | 0% | 8.9hPa | 2.7V | 03:26:33 | 02:32:38 | 00:00:00 | |
| DL1XH1-15 | 2026-09-02 12:23:24 | 52.70070 | 10.73870 | 67° | 22km/h | 32169m | 4.9m/s | -37.2°C | 1.5% | 8.9hPa | 2.6V | 03:26:09 | 02:32:33 | 00:00:00 | |
| DO2SHX-10 | 2026-09-02 12:23:24 | 52.70076 | 10.73918 | 68° | 24km/h | 32200m | 5.8m/s | -37.3°C | 1.5% | 8.9hPa | 2.7V | 00:00:00 | 02:32:38 | 00:00:00 | |
| S3001 | 2026-09-02 12:23:23 | 52.70073 | 10.73898 | 78° | 24km/h | 32187m | 7.4m/s | -37.1°C | 0.0% | 8.9hPa | 2.7V | 00:00:00 | 00:00:00 | 00:00:00 | |
| DL1NUX | 2026-09-02 12:23:22 | 52.70056 | 10.73845 | 34° | 35km/h | 32148m | 7.2m/s | -37.3°C | 1.5% | 9hPa | 2.7V | 03:26:12 | 02:32:30 | 00:00:00 | |
| DO2SHX-10 | 2026-09-02 12:23:21 | 52.70072 | 10.73888 | 83° | 24km/h | 32181m | 7.0m/s | -37.0°C | 1.5% | 8.9hPa | 2.7V | 03:26:00 | 02:32:35 | 00:00:00 | |
| DL1XH-15 | 2026-09-02 12:23:19 | 52.70066 | 10.73862 | 54° | 26km/h | 32163m | 5.9m/s | -37.3°C | 1.5% | 9hPa | 2.7V | 03:26:10 | 02:32:32 | 00:00:00 | |
| DL1XH-west | 2026-09-02 12:23:18 | 52.70066 | 10.73862 | 54° | 26km/h | 32163m | 5.9m/s | -37.3°C | 0% | 9hPa | 2.7V | 03:26:33 | 02:32:32 | 00:00:00 | |
| AA1-15 | 2026-09-02 12:23:18 | 52.70062 | 10.73854 | 44° | 29km/h | 32156m | 8m/s | -37.4°C | 0% | 8.9hPa | 2.7V | 03:26:33 | 02:32:31 | 00:00:00 | |
| DF8AY | 2026-09-02 12:23:14 | 52.70041 | 10.73832 | 25° | 31km/h | 32137m | 4.8m/s | -37.3°C | 0% | 9hPa | 2.7V | 03:26:33 | 02:32:28 | 00:00:00 | |
| HSKMA3-T | 2026-09-02 12:23:14 | 52.70029 | 10.73821 | 83° | 5km/h | 32119m | 6.8m/s | -37.2°C | 0% | 9.1hPa | 2.6V | 03:26:33 | 02:32:25 | 00:00:00 | |
| DO2SHX-10 | 2026-09-02 12:23:14 | 52.70041 | 10.73832 | 26° | 22km/h | 32138m | 4.8m/s | -37.3°C | 1.5% | 9.0hPa | 2.6V | 00:00:00 | 02:32:28 | 00:00:00 | |
| DD8BA-10 | 2026-09-02 12:23:13 | 52.70035 | 10.73827 | 25° | 22km/h | 32133m | 5.7m/s | -37.3°C | 1.6% | 9.0hPa | 2.6V | 03:26:00 | 00:00:00 | 00:00:00 | |
| DL1NUX | 2026-09-02 12:23:12 | 52.70037 | 10.73783 | 79° | 31km/h | 32088m | 6.1m/s | -37.3°C | 1.6% | 9.1hPa | 2.6V | 03:26:22 | 02:32:20 | 00:00:00 | |
| GOEST3-10 | 2026-09-02 12:23:12 | 52.70031 | 10.73823 | 32° | 15km/h | 32126m | 7.3m/s | -37.2°C | 1.6% | 9.0hPa | 2.7V | 00:00:00 | 00:00:00 | 00:00:00 | |
| DM0DOS-11 | 2026-09-02 12:23:11 | 52.70036 | 10.73806 | 115° | 24km/h | 32100m | 5.9m/s | -37.2°C | 1.5% | 9hPa | 2.7V | 03:26:20 | 02:32:22 | 00:00:00 | |
| DL1XH-west | 2026-09-02 12:23:08 | 52.70037 | 10.73796 | 98° | 27km/h | 32094m | 6.4m/s | -37.2°C | 0% | 9.1hPa | 2.7V | 03:26:33 | 02:32:21 | 00:00:00 | |
| AA1-15 | 2026-09-02 12:23:07 | 52.70037 | 10.73783 | 80° | 31km/h | 32088m | 6.1m/s | -37.3°C | 0% | 9.1hPa | 2.6V | 03:26:33 | 02:32:20 | 00:00:00 | |
| DF8AY | 2026-09-02 12:23:04 | 52.70030 | 10.73758 | 51° | 35km/h | 32076m | 6m/s | -37.5°C | 0% | 9.1hPa | 2.7V | 03:26:33 | 02:32:18 | 00:00:00 | |
| BIOWL1-15 | 2026-09-02 12:23:01 | 52.70012 | 10.73737 | 21° | 22km/h | 32057m | 5.6m/s | -37.4°C | 0% | 9.1hPa | 2.6V | 03:26:33 | 02:32:15 | 00:00:00 | |
| DL1NUX | 2026-09-02 12:23:01 | 52.70004 | 10.73714 | 96° | 22km/h | 32026m | 6.4m/s | -37.5°C | 1.6% | 9.1hPa | 2.7V | 03:26:32 | 02:32:10 | 00:00:00 | |
| DO2SHX-10 | 2026-09-02 12:23:01 | 52.70012 | 10.73737 | 22° | 15km/h | 32057m | 5.6m/s | -37.3°C | 1.5% | 9.1hPa | 2.7V | 00:00:00 | 02:32:15 | 00:00:00 | |
| DL1XH-15 | 2026-09-02 12:22:59 | 52.70004 | 10.73728 | 77° | 11km/h | 32039m | 6.5m/s | -37.4°C | 1.5% | 9.2hPa | 2.7V | 03:26:30 | 02:32:12 | 00:00:00 | |
| DL1XH-west | 2026-09-02 12:22:57 | 52.70004 | 10.73722 | 91° | 16km/h | 32033m | 7.1m/s | -37.4°C | 0% | 9.2hPa | 2.7V | 03:26:33 | 02:32:11 | 00:00:00 | |
| DL3AQ-11 | 2026-09-02 12:22:57 | 52.70004 | 10.73714 | 96° | 20km/h | 32026m | 6.4m/s | -37.5°C | 0.1% | 9.1hPa | 2.6V | 00:00:00 | 00:00:00 | 00:00:00 | |
| DB0DAN | 2026-09-02 12:22:55 | 52.70005 | 10.73704 | 98° | 26km/h | 32020m | 5.6m/s | -37.4°C | 0% | 9.16hPa | 2.6V | 00:00:00 | 00:00:00 | 00:00:00 | |
| AA1-15 | 2026-09-02 12:22:54 | 52.70006 | 10.73693 | 99° | 27km/h | 32014m | 6m/s | -37.4°C | 0% | 9.2hPa | 2.6V | 03:27:24 | 02:32:08 | 00:00:00 | |
| DF8AY | 2026-09-02 12:22:53 | 52.70007 | 10.73683 | 101° | 24km/h | 32008m | 6.6m/s | -37.5°C | 0% | 9.2hPa | 2.7V | 03:27:24 | 02:32:07 | 00:00:00 | |
| HSKMA3-T | 2026-09-02 12:22:51 | 52.70009 | 10.73668 | 109° | 15km/h | 31995m | 6.5m/s | -37.4°C | 0% | 9.2hPa | 2.7V | 03:27:24 | 02:32:05 | 00:00:00 | |
| DL1NUX | 2026-09-02 12:22:51 | 52.70007 | 10.73641 | 69° | 24km/h | 31963m | 7m/s | -37.6°C | 1.5% | 9.2hPa | 2.7V | 03:26:42 | 02:32:00 | 00:00:00 | |
| BUE01 | 2026-09-02 12:22:51 | 52.70010 | 10.73659 | 88° | 9km/h | 31983m | 5.5m/s | -37.5°C | 0.0% | 9.2hPa | 2.6V | 00:00:00 | 00:00:00 | 00:00:00 | |
| DL1XH1-15 | 2026-09-02 12:22:50 | 52.70010 | 10.73659 | 88° | 9km/h | 31982m | 5.5m/s | -37.5°C | 1.5% | 9.2hPa | 2.6V | 03:26:39 | 02:32:03 | 00:00:00 | |
| DL1XH-west | 2026-09-02 12:22:47 | 52.70007 | 10.73641 | 70° | 24km/h | 31963m | 7m/s | -37.6°C | 0% | 9.2hPa | 2.7V | 03:27:24 | 02:32:00 | 00:00:00 | |
| DL3AQ-11 | 2026-09-02 12:22:46 | 52.70005 | 10.73631 | 71° | 26km/h | 31957m | 6.0m/s | -37.7°C | 0.1% | 9.2hPa | 2.7V | 00:00:00 | 00:00:00 | 00:00:00 | |
| EDDB2-11 | 2026-09-02 12:22:45 | 52.70005 | 10.73631 | 71° | 26km/h | 31957m | 6.0m/s | -37.7°C | 0.1% | 9.2hPa | 2.7V | 00:00:00 | 00:00:00 | 00:00:00 | |
| DF8AY | 2026-09-02 12:22:43 | 52.70001 | 10.73610 | 79° | 24km/h | 31944m | 6.8m/s | -37.6°C | 0% | 9.3hPa | 2.7V | 03:27:24 | 02:31:57 | 00:00:00 | |
| DJ8HS-15 | 2026-09-02 12:22:42 | 52.70000 | 10.73601 | 85° | 22km/h | 31938m | 6.8m/s | -37.6°C | 1.5% | 9.2hPa | 2.7V | 03:26:00 | 02:31:56 | 00:00:00 | |
| DL1NUX | 2026-09-02 12:22:41 | 52.69989 | 10.73558 | 40° | 26km/h | 31900m | 5.8m/s | -37.8°C | 1.6% | 9.3hPa | 2.7V | 03:26:52 | 02:31:50 | 00:00:00 | |
| DO2SHX-10 | 2026-09-02 12:22:41 | 52.70000 | 10.73593 | 90° | 18km/h | 31932m | 5.7m/s | -37.7°C | 1.5% | 9.3hPa | 2.6V | 03:26:00 | 02:31:55 | 00:00:00 | |
| DL1XH-15 | 2026-09-02 12:22:40 | 52.69997 | 10.73573 | 61° | 20km/h | 31913m | 7.2m/s | -37.8°C | 1.6% | 9.3hPa | 2.6V | 03:26:50 | 02:31:52 | 00:00:00 | |
| BIOWL1-15 | 2026-09-02 12:22:39 | 52.69999 | 10.73580 | 73° | 16km/h | 31920m | 6.2m/s | -37.7°C | 0% | 9.3hPa | 2.6V | 03:27:24 | 02:31:53 | 00:00:00 | |
| DL1XH-west | 2026-09-02 12:22:36 | 52.69979 | 10.73546 | 29° | 22km/h | 31888m | 7.4m/s | -37.8°C | 0% | 9.4hPa | 2.7V | 03:27:24 | 02:31:48 | 00:00:00 | |
| DM0DOS-11 | 2026-09-02 12:22:34 | 52.69959 | 10.73505 | 72° | 33km/h | 31849m | 6.7m/s | -38.1°C | 1.6% | 9.4hPa | 2.7V | 03:27:00 | 02:31:42 | 00:00:00 | |
| DF8AY | 2026-09-02 12:22:34 | 52.69971 | 10.73538 | 33° | 16km/h | 31875m | 5.2m/s | -37.9°C | 0% | 9.4hPa | 2.6V | 03:27:24 | 02:31:46 | 00:00:00 | |
| DD8BA-10 | 2026-09-02 12:22:33 | 52.69974 | 10.73542 | 29° | 24km/h | 31881m | 6.3m/s | -37.9°C | 1.6% | 9.3hPa | 2.7V | 03:26:00 | 00:00:00 | 00:00:00 | |
| DL1LOL-11 | 2026-09-02 12:22:32 | 52.69975 | 10.73542 | 30° | 18km/h | 31881m | 6.4m/s | -37.9°C | 0.1% | 9.3hPa | 2.7V | 00:00:00 | 00:00:00 | 00:00:00 | |
| DL1NUX | 2026-09-02 12:22:31 | 52.69955 | 10.73479 | 79° | 31km/h | 31837m | 6.7m/s | -38.1°C | 1.6% | 9.4hPa | 2.7V | 03:27:02 | 02:31:40 | 00:00:00 | |
| BIOWL1-15 | 2026-09-02 12:22:31 | 52.69961 | 10.73517 | 68° | 27km/h | 31857m | 7.3m/s | -38.1°C | 0% | 9.4hPa | 2.7V | 03:27:24 | 02:31:43 | 00:00:00 | |
| DL1XH1-15 | 2026-09-02 12:22:30 | 52.69962 | 10.73517 | 67° | 27km/h | 31856m | 7.2m/s | -38.1°C | 1.6% | 9.4hPa | 2.7V | 03:26:59 | 02:31:43 | 00:00:00 | |
| HSKMA3-T | 2026-09-02 12:22:29 | 52.69959 | 10.73505 | 73° | 33km/h | 31850m | 6.7m/s | -38.1°C | 0% | 9.4hPa | 2.7V | 03:27:24 | 02:31:42 | 00:00:00 | |
| DO2SHX-10 | 2026-09-02 12:22:29 | 52.69961 | 10.73517 | 68° | 27km/h | 31857m | 7.2m/s | -38.0°C | 1.6% | 9.3hPa | 2.6V | 00:00:00 | 02:31:43 | 00:00:00 | |
| GOEST3-10 | 2026-09-02 12:22:27 | 52.69956 | 10.73492 | 77° | 26km/h | 31844m | 5.6m/s | -38.0°C | 1.6% | 9.4hPa | 2.6V | 00:00:00 | 02:31:41 | 00:00:00 | |
| DB0DAN | 2026-09-02 12:22:25 | 52.69954 | 10.73467 | 80° | 24km/h | 31831m | 6.9m/s | -38.2°C | 0.1% | 9.4hPa | 2.6V | 00:00:00 | 00:00:00 | 00:00:00 | |
| DL1XH1-15 | 2026-09-02 12:22:24 | 52.69932 | 10.73430 | 31° | 31km/h | 31792m | 5.4m/s | -38.2°C | 1.6% | 9.5hPa | 2.7V | 03:27:09 | 02:31:33 | 00:00:00 | |
| DL1XH-west | 2026-09-02 12:22:23 | 52.69951 | 10.73452 | 56° | 16km/h | 31818m | 5.6m/s | -38.1°C | 0% | 9.5hPa | 2.6V | 03:27:24 | 02:31:37 | 00:00:00 | |
| DF8AY | 2026-09-02 12:22:21 | 52.69944 | 10.73442 | 33° | 24km/h | 31805m | 7.5m/s | -38.3°C | 0% | 9.4hPa | 2.7V | 03:27:24 | 02:31:35 | 00:00:00 | |
| DL1NUX | 2026-09-02 12:22:21 | 52.69915 | 10.73412 | 39° | 18km/h | 31774m | 7.3m/s | -38.2°C | 1.7% | 9.5hPa | 2.6V | 03:27:12 | 02:31:30 | 00:00:00 | |
| DO2SHX-10 | 2026-09-02 12:22:21 | 52.69944 | 10.73442 | 34° | 24km/h | 31806m | 7.4m/s | -38.2°C | 1.6% | 9.4hPa | 2.7V | 00:00:00 | 02:31:35 | 00:00:00 | |
| DL1XH-15 | 2026-09-02 12:22:19 | 52.69926 | 10.73423 | 31° | 29km/h | 31787m | 5.2m/s | -38.3°C | 1.6% | 9.5hPa | 2.7V | 03:27:10 | 02:31:32 | 00:00:00 | |
| BIOWL1-15 | 2026-09-02 12:22:18 | 52.69926 | 10.73423 | 32° | 29km/h | 31787m | 5.2m/s | -38.3°C | 0% | 9.5hPa | 2.7V | 03:27:24 | 02:31:32 | 00:00:00 | |
| DO2SHX-10 | 2026-09-02 12:22:18 | 52.69925 | 10.73423 | 32° | 22km/h | 31787m | 5.1m/s | -38.2°C | 1.6% | 9.5hPa | 2.7V | 00:00:00 | 02:31:32 | 00:00:00 | |
| DF8AY-15 | 2026-09-02 12:22:17 | 52.69920 | 10.73417 | 34° | 22km/h | 31781m | 6.0m/s | -38.3°C | 1.7% | 9.4hPa | 2.7V | 00:00:00 | 02:31:31 | 00:00:00 | |
| DO3MHA-11 | 2026-09-02 12:22:16 | 52.69915 | 10.73412 | 40° | 20km/h | 31775m | 7.3m/s | -38.2°C | 1.7% | 9.4hPa | 2.7V | 00:00:00 | 02:31:30 | 00:00:00 | |
| SMARD9-15 | 2026-09-02 12:22:15 | 52.69912 | 10.73402 | 79° | 13km/h | 31762m | 5.8m/s | -38.3°C | 0.0% | 9.5hPa | 2.7V | 00:00:00 | 00:00:00 | 00:00:00 | |
| EDDB2-11 | 2026-09-02 12:22:14 | 52.69912 | 10.73402 | 79° | 13km/h | 31762m | 5.8m/s | -38.3°C | 0.0% | 9.5hPa | 2.7V | 00:00:00 | 00:00:00 | 00:00:00 | |
| DM0DOS-11 | 2026-09-02 12:22:13 | 52.69903 | 10.73353 | 52° | 22km/h | 31724m | 6.4m/s | -38.4°C | 1.6% | 9.6hPa | 2.7V | 03:27:20 | 02:31:22 | 00:00:00 | |
| AA1-15 | 2026-09-02 12:22:11 | 52.69910 | 10.73380 | 78° | 24km/h | 31742m | 6.4m/s | -38.3°C | 0% | 9.6hPa | 2.7V | 03:27:24 | 02:31:25 | 00:00:00 | |
| DL1NUX | 2026-09-02 12:22:11 | 52.69896 | 10.73344 | 21° | 15km/h | 31711m | 7m/s | -38.3°C | 1.6% | 9.6hPa | 2.7V | 03:27:22 | 02:31:20 | 00:00:00 | |
| DF8AY | 2026-09-02 12:22:10 | 52.69906 | 10.73361 | 61° | 24km/h | 31731m | 5.5m/s | -38.3°C | 0% | 9.6hPa | 2.6V | 03:27:24 | 02:31:23 | 00:00:00 | |
| HSKMA3-T | 2026-09-02 12:22:08 | 52.69899 | 10.73347 | 39° | 18km/h | 31718m | 7.2m/s | -38.4°C | 0% | 9.6hPa | 2.7V | 03:27:24 | 02:31:21 | 00:00:00 | |
| BIOWL1-15 | 2026-09-02 12:22:08 | 52.69903 | 10.73353 | 52° | 22km/h | 31724m | 6.4m/s | -38.4°C | 0% | 9.6hPa | 2.7V | 03:27:24 | 02:31:22 | 00:00:00 | |
| DJTTGO | 2026-09-02 12:22:08 | 52.69903 | 10.73353 | 53° | 22km/h | 31725m | 6.4m/s | -38.4°C | 0.1% | 9.6hPa | 2.6V | 00:00:00 | 00:00:00 | 00:00:00 | |
| DL4BBY-15 | 2026-09-02 12:22:07 | 52.69899 | 10.73347 | 40° | 18km/h | 31718m | 7.2m/s | -38.2°C | 0% | 0hPa | 2.6V | 00:00:00 | 00:00:00 | 00:00:00 | |
| DO2SHX-10 | 2026-09-02 12:22:06 | 52.69896 | 10.73344 | 22° | 16km/h | 31711m | 7.0m/s | -38.3°C | 1.6% | 9.6hPa | 2.6V | 00:00:00 | 02:31:20 | 00:00:00 | |
| DK1YY | 2026-09-02 12:22:05 | 52.69889 | 10.73342 | 5° | 15km/h | 31699m | 4.9m/s | -38.4°C | 0.0% | 9.6hPa | 2.6V | 00:00:00 | 00:00:00 | 00:00:00 | |
| DL1XH1-15 | 2026-09-02 12:22:04 | 52.69867 | 10.73311 | 60° | 29km/h | 31669m | 5.5m/s | -38.4°C | 1.6% | 9.7hPa | 2.6V | 03:27:29 | 02:31:13 | 00:00:00 | |
| DB0UT-7 | 2026-09-02 12:22:04 | 52.69888 | 10.73342 | 6° | 16km/h | 31699m | 4.8m/s | -38.4°C | 1.6% | 9.6hPa | 2.6V | 00:00:00 | 00:00:00 | 00:00:00 | |
| GOEST3-10 | 2026-09-02 12:22:03 | 52.69880 | 10.73337 | 34° | 27km/h | 31688m | 7.0m/s | -38.3°C | 1.6% | 9.6hPa | 2.7V | 03:27:00 | 00:00:00 | 00:00:00 | |
| DL1NUX | 2026-09-02 12:22:02 | 52.69861 | 10.73286 | 86° | 15km/h | 31649m | 6.9m/s | -38.5°C | 1.6% | 9.7hPa | 2.7V | 03:27:32 | 02:31:10 | 00:00:00 | |
| DF8AY | 2026-09-02 12:22:00 | 52.69867 | 10.73311 | 61° | 29km/h | 31669m | 5.5m/s | -38.4°C | 0% | 9.7hPa | 2.6V | 03:28:15 | 02:31:13 | 00:00:00 | |
| DL1XH-15 | 2026-09-02 12:21:59 | 52.69864 | 10.73301 | 66° | 26km/h | 31663m | 6.3m/s | -38.5°C | 1.6% | 9.7hPa | 2.7V | 03:27:30 | 02:31:12 | 00:00:00 | |
| BIOWL1-15 | 2026-09-02 12:21:58 | 52.69861 | 10.73271 | 90° | 13km/h | 31629m | 6.8m/s | -38.5°C | 0% | 9.7hPa | 2.6V | 03:28:15 | 02:31:07 | 00:00:00 | |
| HSKMA3-T | 2026-09-02 12:21:58 | 52.69861 | 10.73286 | 86° | 15km/h | 31649m | 6.9m/s | -38.5°C | 0% | 9.7hPa | 2.7V | 03:28:15 | 02:31:10 | 00:00:00 | |
| EDDB2-12 | 2026-09-02 12:21:57 | 52.69861 | 10.73286 | 86° | 13km/h | 31649m | 6.9m/s | -38.5°C | 0.1% | 9.7hPa | 2.7V | 00:00:00 | 00:00:00 | 00:00:00 | |
| SONCRA | 2026-09-02 12:21:56 | 52.69861 | 10.73281 | 96° | 11km/h | 31643m | 6.2m/s | -38.5°C | 0.1% | 9.7hPa | 2.7V | 00:00:00 | 00:00:00 | 00:00:00 | |
| DB0DAN | 2026-09-02 12:21:55 | 52.69861 | 10.73281 | 96° | 11km/h | 31642m | 6.2m/s | -38.5°C | 0.1% | 9.7hPa | 2.7V | 00:00:00 | 00:00:00 | 00:00:00 | |
| DM0DOS-11 | 2026-09-02 12:21:53 | 52.69851 | 10.73245 | 16° | 15km/h | 31598m | 7.2m/s | -38.6°C | 1.6% | 9.8hPa | 2.6V | 03:27:40 | 02:31:02 | 00:00:00 | |
| DO2SHX-10 | 2026-09-02 12:21:53 | 52.69861 | 10.73271 | 90° | 16km/h | 31629m | 6.7m/s | -38.5°C | 1.6% | 9.7hPa | 2.6V | 00:00:00 | 02:31:07 | 00:00:00 | |
| GOEST3-10 | 2026-09-02 12:21:52 | 52.69861 | 10.73265 | 76° | 16km/h | 31623m | 6.0m/s | -38.5°C | 1.6% | 9.7hPa | 2.7V | 00:00:00 | 00:00:00 | 00:00:00 | |
| DL1NUX | 2026-09-02 12:21:51 | 52.69843 | 10.73243 | 9° | 18km/h | 31586m | 5.2m/s | -38.7°C | 1.6% | 9.8hPa | 2.7V | 03:27:42 | 02:31:00 | 00:00:00 | |
| DL1XH1-15 | 2026-09-02 12:21:50 | 52.69854 | 10.73248 | 34° | 16km/h | 31605m | 6.8m/s | -38.7°C | 1.7% | 9.8hPa | 2.6V | 03:27:39 | 02:31:03 | 00:00:00 | |
| DL1XH-west | 2026-09-02 12:21:49 | 52.69854 | 10.73248 | 34° | 16km/h | 31605m | 6.8m/s | -38.7°C | 0% | 9.8hPa | 2.6V | 03:28:15 | 02:31:03 | 00:00:00 | |
| AA1-15 | 2026-09-02 12:21:48 | 52.69850 | 10.73245 | 17° | 15km/h | 31598m | 7.2m/s | -38.6°C | 0% | 9.8hPa | 2.6V | 03:28:15 | 02:31:02 | 00:00:00 | |
| BIOWL1-15 | 2026-09-02 12:21:47 | 52.69847 | 10.73244 | 6° | 16km/h | 31592m | 5.8m/s | -38.7°C | 0% | 9.8hPa | 2.7V | 03:28:15 | 02:31:01 | 00:00:00 | |
| HSKMA3-T | 2026-09-02 12:21:47 | 52.69842 | 10.73243 | 9° | 18km/h | 31586m | 5.2m/s | -38.7°C | 0% | 9.8hPa | 2.7V | 03:28:15 | 02:31:00 | 00:00:00 | |
| DO3MHA-11 | 2026-09-02 12:21:46 | 52.69842 | 10.73243 | 10° | 16km/h | 31587m | 5.1m/s | -38.7°C | 1.6% | 9.7hPa | 2.7V | 03:27:00 | 02:31:00 | 00:00:00 | |
| TFSTFS | 2026-09-02 12:21:45 | 52.69842 | 10.73243 | 10° | 18km/h | 31587m | 5.2m/s | -38.7°C | 0.0% | 9.8hPa | 2.7V | 03:28:00 | 00:00:00 | 00:00:00 | |
| DL1XH1-15 | 2026-09-02 12:21:44 | 52.69817 | 10.73208 | 44° | 7km/h | 31542m | 6.8m/s | -38.8°C | 1.7% | 9.9hPa | 2.7V | 03:27:49 | 02:30:53 | 00:00:00 | |
| SONDE2-11 | 2026-09-02 12:21:44 | 52.69828 | 10.73232 | 42° | 24km/h | 31567m | 6.1m/s | -38.8°C | 0.1% | 9.8hPa | 2.6V | 00:00:00 | 00:00:00 | 00:00:00 | |
| DD8BA-10 | 2026-09-02 12:21:43 | 52.69828 | 10.73232 | 43° | 15km/h | 31567m | 6.1m/s | -38.8°C | 1.7% | 9.8hPa | 2.6V | 00:00:00 | 00:00:00 | 00:00:00 | |
| DJ8HS-15 | 2026-09-02 12:21:42 | 52.69824 | 10.73224 | 50° | 13km/h | 31561m | 5.4m/s | -38.7°C | 1.6% | 9.8hPa | 2.7V | 00:00:00 | 02:30:56 | 00:00:00 | |
| DL1NUX | 2026-09-02 12:21:41 | 52.69812 | 10.73207 | 359° | 9km/h | 31525m | 6.5m/s | -38.9°C | 1.7% | 9.9hPa | 2.7V | 03:27:52 | 02:30:50 | 00:00:00 | |
| DB0DAN | 2026-09-02 12:21:40 | 52.69818 | 10.73211 | 56° | 13km/h | 31549m | 7m/s | -38.9°C | 0.1% | 9.85hPa | 2.7V | 00:00:00 | 00:00:00 | 00:00:00 | |
| DL1XH-15 | 2026-09-02 12:21:39 | 52.69815 | 10.73207 | 1° | 4km/h | 31536m | 5.3m/s | -38.9°C | 1.6% | 9.8hPa | 2.6V | 03:27:50 | 02:30:52 | 00:00:00 | |
| DL1XH-west | 2026-09-02 12:21:38 | 52.69815 | 10.73207 | 2° | 4km/h | 31536m | 5.3m/s | -38.9°C | 0% | 9.8hPa | 2.6V | 03:28:15 | 02:30:52 | 00:00:00 | |
| DF8AY | 2026-09-02 12:21:38 | 52.69814 | 10.73207 | 345° | 5km/h | 31531m | 4.9m/s | -38.9°C | 0% | 9.9hPa | 2.6V | 03:28:15 | 02:30:51 | 00:00:00 | |
| HSKMA3-T | 2026-09-02 12:21:37 | 52.69812 | 10.73207 | 360° | 9km/h | 31525m | 6.5m/s | -38.9°C | 0% | 9.9hPa | 2.7V | 03:28:15 | 02:30:50 | 00:00:00 | |
| DL3AQ-11 | 2026-09-02 12:21:37 | 52.69812 | 10.73207 | 359° | 7km/h | 31526m | 6.5m/s | -38.9°C | 0.1% | 9.9hPa | 2.7V | 00:00:00 | 00:00:00 | 00:00:00 | |
| DO2SHX-10 | 2026-09-02 12:21:35 | 52.69810 | 10.73206 | 16° | 13km/h | 31519m | 7.1m/s | -38.9°C | 1.6% | 9.8hPa | 2.7V | 00:00:00 | 02:30:49 | 00:00:00 | |
| DB0UT-7 | 2026-09-02 12:21:34 | 52.69806 | 10.73204 | 23° | 13km/h | 31513m | 6.3m/s | -39.0°C | 1.7% | 9.8hPa | 2.6V | 00:00:00 | 02:30:48 | 00:00:00 | |
| DL1XH-15 | 2026-09-02 12:21:33 | 52.69781 | 10.73193 | 35° | 5km/h | 31471m | 5.4m/s | -39.3°C | 1.6% | 10hPa | 2.6V | 03:28:01 | 02:30:41 | 00:00:00 | |
| DO9LL-15 | 2026-09-02 12:21:33 | 52.69801 | 10.73201 | 24° | 13km/h | 31507m | 5.3m/s | -39.0°C | 1.6% | 9.9hPa | 2.6V | 03:27:00 | 02:30:47 | 00:00:00 | |
| DO2SHX-10 | 2026-09-02 12:21:32 | 52.69796 | 10.73198 | 22° | 18km/h | 31501m | 5.2m/s | -39.1°C | 1.7% | 9.9hPa | 2.6V | 03:27:00 | 02:30:46 | 00:00:00 | |
| DL1NUX | 2026-09-02 12:21:31 | 52.69780 | 10.73191 | 59° | 9km/h | 31465m | 6.5m/s | -39.4°C | 1.7% | 10hPa | 2.6V | 03:28:02 | 02:30:40 | 00:00:00 | |
| DL1XH-west | 2026-09-02 12:21:28 | 52.69779 | 10.73191 | 60° | 9km/h | 31465m | 6.5m/s | -39.4°C | 0% | 10hPa | 2.6V | 03:28:15 | 02:30:40 | 00:00:00 | |
| AA1-15 | 2026-09-02 12:21:28 | 52.69781 | 10.73193 | 35° | 5km/h | 31471m | 5.4m/s | -39.3°C | 0% | 10hPa | 2.6V | 03:28:15 | 02:30:41 | 00:00:00 | |
| HSKMA3-T | 2026-09-02 12:21:27 | 52.69777 | 10.73180 | 66° | 18km/h | 31451m | 6.5m/s | -39.4°C | 0% | 10hPa | 2.7V | 03:28:15 | 02:30:38 | 00:00:00 | |
| BIOWL1-15 | 2026-09-02 12:21:26 | 52.69764 | 10.73165 | 353° | 11km/h | 31415m | 5.9m/s | -39.6°C | 0% | 10hPa | 2.6V | 03:28:15 | 02:30:32 | 00:00:00 | |
| DB0DAN | 2026-09-02 12:21:25 | 52.69778 | 10.73187 | 67° | 13km/h | 31458m | 6.8m/s | -39.3°C | 0.1% | 9.97hPa | 2.6V | 00:00:00 | 00:00:00 | 00:00:00 | |
| SONCRA | 2026-09-02 12:21:24 | 52.69777 | 10.73180 | 65° | 16km/h | 31452m | 6.5m/s | -39.4°C | 0.1% | 10.0hPa | 2.7V | 00:00:00 | 00:00:00 | 00:00:00 | |
| DD8BA-10 | 2026-09-02 12:21:23 | 52.69775 | 10.73174 | 63° | 13km/h | 31446m | 5.6m/s | -39.4°C | 1.7% | 9.9hPa | 2.7V | 00:00:00 | 00:00:00 | 00:00:00 | |
| DF7ER-10 | 2026-09-02 12:21:22 | 52.69773 | 10.73168 | 55° | 15km/h | 31440m | 6.2m/s | -39.4°C | 0.1% | 10.0hPa | 2.7V | 03:28:00 | 00:00:00 | 00:00:00 | |
| DL1NUX | 2026-09-02 12:21:21 | 52.69758 | 10.73163 | 24° | 15km/h | 31401m | 7m/s | -39.7°C | 1.7% | 10.1hPa | 2.7V | 03:28:12 | 02:30:30 | 00:00:00 | |
| DL1XH-west | 2026-09-02 12:21:16 | 52.69758 | 10.73163 | 25° | 15km/h | 31401m | 7m/s | -39.7°C | 0% | 10.1hPa | 2.7V | 03:28:15 | 02:30:30 | 00:00:00 | |
| HSKMA3-T | 2026-09-02 12:21:14 | 52.69750 | 10.73154 | 40° | 9km/h | 31383m | 7.4m/s | -39.8°C | 0% | 10.1hPa | 2.7V | 03:28:15 | 02:30:27 | 00:00:00 | |
| SMARD9-15 | 2026-09-02 12:21:14 | 52.69750 | 10.73154 | 40° | 9km/h | 31383m | 7.4m/s | -39.8°C | 0.1% | 10.1hPa | 2.7V | 00:00:00 | 00:00:00 | 00:00:00 | |
| DO2SHX-10 | 2026-09-02 12:21:13 | 52.69750 | 10.73154 | 41° | 7km/h | 31383m | 7.3m/s | -39.7°C | 1.8% | 10.0hPa | 2.7V | 00:00:00 | 02:30:27 | 00:00:00 | |
| DM0DOS-11 | 2026-09-02 12:21:12 | 52.69743 | 10.73138 | 53° | 16km/h | 31350m | 6.8m/s | -39.8°C | 1.7% | 10.1hPa | 2.7V | 03:28:20 | 02:30:22 | 00:00:00 | |
| GOEST3-10 | 2026-09-02 12:21:12 | 52.69748 | 10.73151 | 53° | 9km/h | 31376m | 6.7m/s | -39.7°C | 1.8% | 10.1hPa | 2.6V | 00:00:00 | 00:00:00 | 00:00:00 | |
| DL1NUX | 2026-09-02 12:21:11 | 52.69738 | 10.73127 | 47° | 15km/h | 31339m | 5m/s | -39.9°C | 1.8% | 10.2hPa | 2.6V | 03:28:22 | 02:30:20 | 00:00:00 | |
| DL1XH1-15 | 2026-09-02 12:21:10 | 52.69745 | 10.73143 | 56° | 13km/h | 31357m | 7.5m/s | -39.8°C | 1.7% | 10.1hPa | 2.7V | 03:28:19 | 02:30:23 | 00:00:00 | |
| DB0DAN | 2026-09-02 12:21:10 | 52.69747 | 10.73147 | 62° | 9km/h | 31364m | 5.6m/s | -39.8°C | 0.1% | 10.13hPa | 2.7V | 00:00:00 | 00:00:00 | 00:00:00 | |
| BIOWL1-15 | 2026-09-02 12:21:09 | 52.69732 | 10.73120 | 25° | 4km/h | 31320m | 5.6m/s | -40°C | 0% | 10.2hPa | 2.7V | 03:29:06 | 02:30:17 | 00:00:00 | |
| DL1XH-west | 2026-09-02 12:21:06 | 52.69738 | 10.73127 | 47° | 15km/h | 31340m | 5m/s | -39.9°C | 0% | 10.2hPa | 2.6V | 03:29:06 | 02:30:20 | 00:00:00 | |
| DF8AY | 2026-09-02 12:21:05 | 52.69735 | 10.73123 | 42° | 11km/h | 31333m | 6.6m/s | -40°C | 0% | 10.1hPa | 2.6V | 03:29:06 | 02:30:19 | 00:00:00 | |
| DL1XH1-15 | 2026-09-02 12:21:04 | 52.69726 | 10.73110 | 54° | 16km/h | 31297m | 5.7m/s | -40.1°C | 1.8% | 10.2hPa | 2.6V | 03:28:29 | 02:30:13 | 00:00:00 | |
| HSKMA3-T | 2026-09-02 12:21:03 | 52.69731 | 10.73119 | 34° | 5km/h | 31315m | 5m/s | -40°C | 0% | 10.2hPa | 2.7V | 03:29:06 | 02:30:16 | 00:00:00 | |
| DO9LL-15 | 2026-09-02 12:21:03 | 52.69732 | 10.73120 | 25° | 16km/h | 31321m | 5.6m/s | -39.9°C | 1.8% | 10.1hPa | 2.7V | 00:00:00 | 02:30:17 | 00:00:00 | |
| DJ8HS-15 | 2026-09-02 12:21:02 | 52.69731 | 10.73119 | 35° | 16km/h | 31315m | 4.9m/s | -40.0°C | 1.7% | 10.1hPa | 2.6V | 00:00:00 | 02:30:16 | 00:00:00 | |
| DO2SHX-10 | 2026-09-02 12:21:01 | 52.69730 | 10.73117 | 46° | 13km/h | 31310m | 6.2m/s | -40.1°C | 1.8% | 10.1hPa | 2.6V | 00:00:00 | 02:30:15 | 00:00:00 | |
| DO3MHA-11 | 2026-09-02 12:21:00 | 52.69728 | 10.73114 | 50° | 15km/h | 31303m | 6.9m/s | -40.0°C | 1.8% | 10.2hPa | 2.6V | 03:28:00 | 02:30:14 | 00:00:00 | |
| DL1XH-15 | 2026-09-02 12:20:59 | 52.69723 | 10.73103 | 59° | 20km/h | 31291m | 4.8m/s | -40.2°C | 1.8% | 10.2hPa | 2.6V | 03:28:30 | 02:30:12 | 00:00:00 | |
| AA1-15 | 2026-09-02 12:20:56 | 52.69718 | 10.73090 | 60° | 16km/h | 31280m | 6.4m/s | -40.2°C | 0% | 10.2hPa | 2.7V | 03:29:06 | 02:30:10 | 00:00:00 | |
| BIOWL1-15 | 2026-09-02 12:20:55 | 52.69687 | 10.73055 | 47° | 26km/h | 31225m | 6.5m/s | -40.1°C | 0% | 10.3hPa | 2.6V | 03:29:06 | 02:30:01 | 00:00:00 | |
| DL1XH-west | 2026-09-02 12:20:55 | 52.69716 | 10.73085 | 55° | 11km/h | 31274m | 6.4m/s | -40.2°C | 0% | 10.2hPa | 2.7V | 03:29:06 | 02:30:09 | 00:00:00 | |
| DB0DAN | 2026-09-02 12:20:55 | 52.69716 | 10.73085 | 55° | 11km/h | 31274m | 6.4m/s | -40.2°C | 0.1% | 10.24hPa | 2.7V | 00:00:00 | 00:00:00 | 00:00:00 | |
| EDDB2-12 | 2026-09-02 12:20:54 | 52.69715 | 10.73083 | 32° | 5km/h | 31268m | 5.9m/s | -40.2°C | 0.1% | 10.3hPa | 2.6V | 00:00:00 | 00:00:00 | 00:00:00 | |
| DM0DOS-11 | 2026-09-02 12:20:53 | 52.69692 | 10.73063 | 41° | 27km/h | 31231m | 5.8m/s | -40.2°C | 1.9% | 10.3hPa | 2.6V | 03:28:40 | 02:30:02 | 00:00:00 | |
| HSKMA3-T | 2026-09-02 12:20:51 | 52.69707 | 10.73079 | 20° | 16km/h | 31251m | 6.9m/s | -40.2°C | 0% | 10.3hPa | 2.7V | 03:29:06 | 02:30:05 | 00:00:00 | |
| DL1XH-west | 2026-09-02 12:20:44 | 52.69679 | 10.73034 | 73° | 18km/h | 31206m | 5.1m/s | -40.1°C | 0% | 10.4hPa | 2.7V | 03:29:06 | 02:29:58 | 00:00:00 | |
| DF7PN | 2026-09-02 12:20:44 | 52.69679 | 10.73034 | 72° | 18km/h | 31207m | 5.1m/s | -40.1°C | 0.1% | 10.4hPa | 2.7V | 00:00:00 | 00:00:00 | 00:00:00 | |
| DD8BA-10 | 2026-09-02 12:20:43 | 52.69678 | 10.73026 | 74° | 16km/h | 31201m | 5.8m/s | -40.1°C | 1.8% | 10.3hPa | 2.7V | 00:00:00 | 00:00:00 | 00:00:00 | |
| DO2SHX-10 | 2026-09-02 12:20:42 | 52.69676 | 10.73017 | 72° | 24km/h | 31195m | 6.9m/s | -40.1°C | 1.7% | 10.3hPa | 2.7V | 03:28:00 | 02:29:56 | 00:00:00 | |
| DL1NUX | 2026-09-02 12:20:41 | 52.69661 | 10.72980 | 28° | 9km/h | 31158m | 5m/s | -40.2°C | 1.8% | 10.4hPa | 2.7V | 03:28:52 | 02:29:50 | 00:00:00 | |
| HSKMA3-T | 2026-09-02 12:20:40 | 52.69671 | 10.72998 | 61° | 24km/h | 31183m | 4.9m/s | -40.2°C | 0% | 10.4hPa | 2.6V | 03:29:06 | 02:29:54 | 00:00:00 | |
| DB0DAN | 2026-09-02 12:20:40 | 52.69671 | 10.72998 | 61° | 22km/h | 31183m | 4.9m/s | -40.2°C | 0.1% | 10.4hPa | 2.6V | 00:00:00 | 00:00:00 | 00:00:00 | |
| DF8AY | 2026-09-02 12:20:34 | 52.69656 | 10.72974 | 47° | 15km/h | 31147m | 7m/s | -40.2°C | 0% | 10.4hPa | 2.7V | 03:29:06 | 02:29:48 | 00:00:00 | |
| DL1XH-west | 2026-09-02 12:20:34 | 52.69653 | 10.72969 | 49° | 18km/h | 31140m | 6.2m/s | -40.3°C | 0% | 10.5hPa | 2.6V | 03:29:06 | 02:29:47 | 00:00:00 | |
| DO2SHX-10 | 2026-09-02 12:20:34 | 52.69653 | 10.72969 | 50° | 20km/h | 31141m | 6.2m/s | -40.2°C | 1.8% | 10.4hPa | 2.7V | 00:00:00 | 02:29:47 | 00:00:00 | |
| DD8BA-10 | 2026-09-02 12:20:33 | 52.69653 | 10.72969 | 50° | 15km/h | 31141m | 6.2m/s | -40.2°C | 1.8% | 10.4hPa | 2.7V | 03:28:00 | 00:00:00 | 00:00:00 | |
| DK1YY | 2026-09-02 12:20:32 | 52.69644 | 10.72950 | 53° | 15km/h | 31123m | 6.1m/s | -40.3°C | 0.1% | 10.5hPa | 2.7V | 00:00:00 | 00:00:00 | 00:00:00 | |
| DL1NUX | 2026-09-02 12:20:31 | 52.69637 | 10.72942 | 15° | 11km/h | 31099m | 6.2m/s | -40.4°C | 1.8% | 10.5hPa | 2.7V | 03:29:02 | 02:29:40 | 00:00:00 | |
| BIOWL1-15 | 2026-09-02 12:20:30 | 52.69644 | 10.72950 | 54° | 15km/h | 31123m | 6.1m/s | -40.3°C | 0% | 10.5hPa | 2.7V | 03:29:06 | 02:29:44 | 00:00:00 | |
| DL3AQ-11 | 2026-09-02 12:20:30 | 52.69642 | 10.72946 | 46° | 9km/h | 31117m | 6.7m/s | -40.3°C | 0.1% | 10.5hPa | 2.7V | 00:00:00 | 00:00:00 | 00:00:00 | |
| DO3MHA-11 | 2026-09-02 12:20:29 | 52.69642 | 10.72946 | 47° | 15km/h | 31117m | 6.7m/s | -40.3°C | 1.8% | 10.5hPa | 2.7V | 00:00:00 | 02:29:43 | 00:00:00 | |
| DO2SHX-10 | 2026-09-02 12:20:27 | 52.69639 | 10.72943 | 12° | 9km/h | 31105m | 5.4m/s | -40.2°C | 1.8% | 10.5hPa | 2.7V | 00:00:00 | 02:29:41 | 00:00:00 | |
| DF7ER-10 | 2026-09-02 12:20:26 | 52.69639 | 10.72943 | 12° | 9km/h | 31105m | 5.5m/s | -40.3°C | 0.1% | 10.5hPa | 2.7V | 03:29:00 | 00:00:00 | 00:00:00 | |
| DB0DAN | 2026-09-02 12:20:25 | 52.69634 | 10.72940 | 28° | 15km/h | 31092m | 6.7m/s | -40.3°C | 0.1% | 10.55hPa | 2.7V | 00:00:00 | 00:00:00 | 00:00:00 | |
| AA1-15 | 2026-09-02 12:20:24 | 52.69630 | 10.72936 | 37° | 18km/h | 31086m | 6.1m/s | -40.3°C | 0% | 10.5hPa | 2.7V | 03:29:06 | 02:29:38 | 00:00:00 | |
| BIOWL1-15 | 2026-09-02 12:20:24 | 52.69601 | 10.72861 | 69° | 24km/h | 31017m | 6m/s | -40.6°C | 0% | 10.6hPa | 2.7V | 03:29:57 | 02:29:26 | 00:00:00 | |
| DL1XH-west | 2026-09-02 12:20:23 | 52.69626 | 10.72931 | 44° | 20km/h | 31080m | 5.1m/s | -40.4°C | 0% | 10.6hPa | 2.7V | 03:29:06 | 02:29:37 | 00:00:00 | |
| DF8AY | 2026-09-02 12:20:23 | 52.69623 | 10.72925 | 48° | 20km/h | 31076m | 4.7m/s | -40.4°C | 0% | 10.6hPa | 2.6V | 03:29:06 | 02:29:36 | 00:00:00 | |
| HSKMA3-T | 2026-09-02 12:20:20 | 52.69616 | 10.72911 | 58° | 9km/h | 31057m | 5.5m/s | -40.5°C | 0% | 10.6hPa | 2.7V | 03:29:57 | 02:29:33 | 00:00:00 | |
| AA1-15 | 2026-09-02 12:20:14 | 52.69604 | 10.72871 | 66° | 27km/h | 31023m | 4.9m/s | -40.5°C | 0% | 10.7hPa | 2.7V | 03:29:57 | 02:29:27 | 00:00:00 | |
| DF8AY | 2026-09-02 12:20:14 | 52.69600 | 10.72853 | 76° | 20km/h | 31011m | 7m/s | -40.6°C | 0% | 10.7hPa | 2.7V | 03:29:57 | 02:29:25 | 00:00:00 | |
| DF7PN | 2026-09-02 12:20:13 | 52.69601 | 10.72861 | 69° | 24km/h | 31018m | 6.0m/s | -40.6°C | 0.1% | 10.6hPa | 2.6V | 00:00:00 | 00:00:00 | 00:00:00 | |
| DL1XH1-15 | 2026-09-02 12:20:12 | 52.69599 | 10.72840 | 93° | 13km/h | 30999m | 4.7m/s | -40.5°C | 1.8% | 10.7hPa | 2.6V | 03:29:19 | 02:29:23 | 00:00:00 | |
| DL1NUX | 2026-09-02 12:20:09 | 52.69597 | 10.72820 | 70° | 22km/h | 30984m | 6.8m/s | -40.5°C | 1.8% | 10.7hPa | 2.7V | 03:29:22 | 02:29:20 | 00:00:00 | |
| HSKMA3-T | 2026-09-02 12:20:08 | 52.69599 | 10.72834 | 90° | 15km/h | 30995m | 3.7m/s | -40.6°C | 0% | 10.7hPa | 2.6V | 03:29:57 | 02:29:22 | 00:00:00 | |
| BIOWL1-15 | 2026-09-02 12:20:07 | 52.69585 | 10.72773 | 68° | 29km/h | 30960m | 5.7m/s | -40.5°C | 0% | 10.8hPa | 2.6V | 03:29:57 | 02:29:16 | 00:00:00 | |
| DL3AQ-11 | 2026-09-02 12:20:06 | 52.69595 | 10.72809 | 66° | 29km/h | 30978m | 6.8m/s | -40.5°C | 0.1% | 10.8hPa | 2.7V | 00:00:00 | 00:00:00 | 00:00:00 | |
| DL1XH1-15 | 2026-09-02 12:20:04 | 52.69581 | 10.72751 | 87° | 9km/h | 30942m | 5.1m/s | -40.6°C | 1.8% | 10.8hPa | 2.7V | 03:29:29 | 02:29:13 | 00:00:00 | |
| AA1-15 | 2026-09-02 12:20:03 | 52.69588 | 10.72785 | 65° | 33km/h | 30966m | 5.5m/s | -40.7°C | 0% | 10.8hPa | 2.7V | 03:29:57 | 02:29:17 | 00:00:00 | |
| DO9LL-15 | 2026-09-02 12:20:03 | 52.69588 | 10.72785 | 66° | 15km/h | 30966m | 5.4m/s | -40.6°C | 1.8% | 10.7hPa | 2.6V | 00:00:00 | 02:29:17 | 00:00:00 | |
| DJ8HS-15 | 2026-09-02 12:20:02 | 52.69585 | 10.72773 | 69° | 15km/h | 30960m | 5.6m/s | -40.5°C | 1.9% | 10.7hPa | 2.6V | 03:29:00 | 02:29:16 | 00:00:00 | |
| DL1NUX | 2026-09-02 12:20:01 | 52.69579 | 10.72741 | 54° | 11km/h | 30924m | 6.2m/s | -40.7°C | 1.8% | 10.8hPa | 2.6V | 03:29:32 | 02:29:10 | 00:00:00 | |
| DL1XH-west | 2026-09-02 12:20:00 | 52.69581 | 10.72756 | 82° | 15km/h | 30947m | 5.7m/s | -40.6°C | 0% | 10.8hPa | 2.7V | 03:29:57 | 02:29:14 | 00:00:00 | |
| DL1XH-15 | 2026-09-02 12:19:59 | 52.69581 | 10.72748 | 79° | 7km/h | 30937m | 5.7m/s | -40.6°C | 1.8% | 10.8hPa | 2.7V | 03:29:30 | 02:29:12 | 00:00:00 | |
| DF8AY | 2026-09-02 12:19:58 | 52.69581 | 10.72748 | 80° | 7km/h | 30937m | 5.7m/s | -40.6°C | 0% | 10.8hPa | 2.7V | 03:29:57 | 02:29:12 | 00:00:00 | |
| HSKMA3-T | 2026-09-02 12:19:57 | 52.69580 | 10.72745 | 65° | 9km/h | 30930m | 6.4m/s | -40.6°C | 0% | 10.8hPa | 2.6V | 03:29:57 | 02:29:11 | 00:00:00 | |
| DL4XJ-10 | 2026-09-02 12:19:57 | 52.69580 | 10.72745 | 66° | 13km/h | 30931m | 6.4m/s | -40.4°C | 0% | 0hPa | 2.7V | 00:00:00 | 00:00:00 | 00:00:00 | |
| DB0DAN | 2026-09-02 12:19:55 | 52.69577 | 10.72737 | 54° | 15km/h | 30918m | 5.3m/s | -40.8°C | 0.1% | 10.8hPa | 2.7V | 00:00:00 | 00:00:00 | 00:00:00 | |
| AA1-15 | 2026-09-02 12:19:52 | 52.69573 | 10.72721 | 83° | 13km/h | 30901m | 7m/s | -40.8°C | 0% | 10.8hPa | 2.7V | 03:29:57 | 02:29:06 | 00:00:00 | |
| EDDB2-12 | 2026-09-02 12:19:52 | 52.69573 | 10.72721 | 82° | 13km/h | 30901m | 7.0m/s | -40.8°C | 0.1% | 10.8hPa | 2.6V | 00:00:00 | 00:00:00 | 00:00:00 | |
| DO2SHX-10 | 2026-09-02 12:19:51 | 52.69573 | 10.72715 | 91° | 18km/h | 30895m | 6.0m/s | -40.7°C | 1.8% | 10.8hPa | 2.6V | 00:00:00 | 02:29:05 | 00:00:00 | |
| DL1XH1-15 | 2026-09-02 12:19:50 | 52.69572 | 10.72702 | 81° | 18km/h | 30883m | 6.3m/s | -40.7°C | 1.8% | 10.9hPa | 2.6V | 03:29:39 | 02:29:03 | 00:00:00 | |
| DL1XH-west | 2026-09-02 12:19:50 | 52.69572 | 10.72702 | 81° | 18km/h | 30883m | 6.3m/s | -40.7°C | 0% | 10.9hPa | 2.6V | 03:29:57 | 02:29:03 | 00:00:00 | |
| DL1NUX | 2026-09-02 12:19:49 | 52.69565 | 10.72678 | 52° | 22km/h | 30866m | 4.5m/s | -40.7°C | 1.8% | 10.9hPa | 2.7V | 03:29:42 | 02:29:00 | 00:00:00 | |
| HSKMA3-T | 2026-09-02 12:19:47 | 52.69568 | 10.72686 | 60° | 24km/h | 30870m | 5.2m/s | -40.8°C | 0% | 10.9hPa | 2.7V | 03:29:57 | 02:29:01 | 00:00:00 | |
| S3001 | 2026-09-02 12:19:46 | 52.69559 | 10.72668 | 34° | 11km/h | 30855m | 6.9m/s | -40.8°C | 0.1% | 10.9hPa | 2.6V | 00:00:00 | 00:00:00 | 00:00:00 | |
| DL1XH1-15 | 2026-09-02 12:19:44 | 52.69553 | 10.72674 | 30° | 7km/h | 30817m | 5.1m/s | -40.8°C | 1.8% | 11hPa | 2.6V | 03:29:50 | 02:28:52 | 00:00:00 | |
| AA1-15 | 2026-09-02 12:19:41 | 52.69557 | 10.72670 | 282° | 7km/h | 30835m | 5.6m/s | -40.7°C | 0% | 11hPa | 2.7V | 03:29:57 | 02:28:55 | 00:00:00 | |
| BIOWL1-15 | 2026-09-02 12:19:40 | 52.69557 | 10.72645 | 102° | 16km/h | 30781m | 6.5m/s | -41.2°C | 0% | 11hPa | 2.6V | 03:29:57 | 02:28:46 | 00:00:00 | |
| DL1XH-west | 2026-09-02 12:19:39 | 52.69552 | 10.72672 | 63° | 9km/h | 30812m | 4.9m/s | -40.7°C | 0% | 11hPa | 2.7V | 03:29:57 | 02:28:51 | 00:00:00 | |
| NBG1-10 | 2026-09-02 12:19:39 | 52.69553 | 10.72674 | 31° | 9km/h | 30817m | 5.1m/s | -40.7°C | 1.8% | 10.9hPa | 2.7V | 00:00:00 | 02:28:52 | 00:00:00 | |
| DM0DOS-11 | 2026-09-02 12:19:38 | 52.69552 | 10.72668 | 93° | 11km/h | 30806m | 6.8m/s | -40.8°C | 1.8% | 11hPa | 2.7V | 03:29:52 | 02:28:50 | 00:00:00 | |
| HSKMA3-T | 2026-09-02 12:19:37 | 52.69552 | 10.72668 | 93° | 11km/h | 30806m | 6.8m/s | -40.8°C | 0% | 11.1hPa | 2.7V | 03:29:57 | 02:28:50 | 00:00:00 | |
| DF8AY | 2026-09-02 12:19:36 | 52.69559 | 10.72655 | 258° | 20km/h | 30740m | 4.6m/s | -41.7°C | 0% | 11.1hPa | 2.6V | 03:30:48 | 02:28:39 | 00:00:00 | |
| DO2SHX-10 | 2026-09-02 12:19:34 | 52.69554 | 10.72658 | 116° | 16km/h | 30793m | 6.1m/s | -41.0°C | 1.8% | 11.0hPa | 2.7V | 00:00:00 | 02:28:48 | 00:00:00 | |
| DO9LL-15 | 2026-09-02 12:19:33 | 52.69556 | 10.72651 | 115° | 13km/h | 30787m | 5.2m/s | -41.0°C | 1.8% | 11.0hPa | 2.6V | 03:29:00 | 02:28:47 | 00:00:00 | |
| DL1XH-15 | 2026-09-02 12:19:33 | 52.69556 | 10.72635 | 267° | 7km/h | 30760m | 7.4m/s | -41.5°C | 1.8% | 11.1hPa | 2.7V | 03:30:00 | 02:28:42 | 00:00:00 | |
| DL1NUX | 2026-09-02 12:19:31 | 52.69558 | 10.72647 | 256° | 20km/h | 30745m | 5.7m/s | -41.6°C | 1.9% | 11.1hPa | 2.6V | 03:30:02 | 02:28:40 | 00:00:00 | |
| DO2SHX-10 | 2026-09-02 12:19:31 | 52.69558 | 10.72638 | 89° | 9km/h | 30775m | 5.7m/s | -41.3°C | 1.8% | 11.0hPa | 2.7V | 03:29:00 | 02:28:45 | 00:00:00 | |
| DL1XH1-15 | 2026-09-02 12:19:30 | 52.69557 | 10.72633 | 339° | 4km/h | 30765m | 4.5m/s | -41.5°C | 1.9% | 11.1hPa | 2.7V | 03:29:59 | 02:28:43 | 00:00:00 | |
| DM0DOS-11 | 2026-09-02 12:19:30 | 52.69559 | 10.72662 | 262° | 16km/h | 30735m | 6.6m/s | -41.7°C | 1.9% | 11.1hPa | 2.7V | 03:30:04 | 02:28:38 | 00:00:00 | |
| BIOWL1-15 | 2026-09-02 12:19:29 | 52.69560 | 10.72670 | 284° | 2km/h | 30721m | 5.9m/s | -41.7°C | 0% | 11.2hPa | 2.7V | 03:31:39 | 02:28:36 | 00:00:00 | |
| AA1-15 | 2026-09-02 12:19:29 | 52.69557 | 10.72633 | 339° | 4km/h | 30765m | 4.5m/s | -41.5°C | 0% | 11.1hPa | 2.7V | 03:30:48 | 02:28:43 | 00:00:00 | |
| DL1XH-west | 2026-09-02 12:19:27 | 52.69557 | 10.72639 | 258° | 16km/h | 30752m | 7.6m/s | -41.5°C | 0% | 11.1hPa | 2.7V | 03:30:48 | 02:28:41 | 00:00:00 | |
| HSKMA3-T | 2026-09-02 12:19:26 | 52.69558 | 10.72647 | 257° | 20km/h | 30745m | 5.7m/s | -41.6°C | 0% | 11.1hPa | 2.6V | 03:30:48 | 02:28:40 | 00:00:00 | |
| DB0DAN | 2026-09-02 12:19:25 | 52.69559 | 10.72655 | 258° | 18km/h | 30740m | 4.6m/s | -41.7°C | 0.1% | 11.1hPa | 2.6V | 00:00:00 | 00:00:00 | 00:00:00 | |
| DL1XH1-15 | 2026-09-02 12:19:24 | 52.69562 | 10.72665 | 129° | 11km/h | 30702m | 6.4m/s | -41.7°C | 1.9% | 11.2hPa | 2.7V | 03:30:09 | 02:28:33 | 00:00:00 | |
| BIOWL1-15 | 2026-09-02 12:19:21 | 52.69562 | 10.72665 | 130° | 11km/h | 30702m | 6.4m/s | -41.7°C | 0% | 11.2hPa | 2.7V | 03:31:39 | 02:28:33 | 00:00:00 | |
| DL1NUX | 2026-09-02 12:19:21 | 52.69566 | 10.72651 | 87° | 13km/h | 30685m | 7m/s | -41.9°C | 1.9% | 11.2hPa | 2.7V | 03:30:12 | 02:28:30 | 00:00:00 | |
| DO2SHX-10 | 2026-09-02 12:19:21 | 52.69560 | 10.72670 | 109° | 7km/h | 30716m | 5.8m/s | -41.7°C | 2.0% | 11.1hPa | 2.6V | 00:00:00 | 02:28:35 | 00:00:00 | |
| SONCRA | 2026-09-02 12:19:20 | 52.69562 | 10.72665 | 129° | 11km/h | 30702m | 6.4m/s | -41.7°C | 0.1% | 11.2hPa | 2.6V | 00:00:00 | 00:00:00 | 00:00:00 | |
| DM0DOS-11 | 2026-09-02 12:19:19 | 52.69563 | 10.72644 | 18° | 7km/h | 30673m | 5.5m/s | -41.8°C | 1.9% | 11.2hPa | 2.6V | 03:30:14 | 02:28:28 | 00:00:00 | |
| AA1-15 | 2026-09-02 12:19:18 | 52.69564 | 10.72661 | 121° | 13km/h | 30696m | 5m/s | -41.7°C | 0% | 11.2hPa | 2.7V | 03:30:48 | 02:28:32 | 00:00:00 | |
| DL1XH-west | 2026-09-02 12:19:18 | 52.69565 | 10.72656 | 107° | 13km/h | 30691m | 5.2m/s | -41.8°C | 0% | 11.2hPa | 2.7V | 03:30:48 | 02:28:31 | 00:00:00 | |
| HSKMA3-T | 2026-09-02 12:19:16 | 52.69566 | 10.72651 | 87° | 13km/h | 30685m | 7m/s | -41.9°C | 0% | 11.2hPa | 2.7V | 03:30:48 | 02:28:30 | 00:00:00 | |
| DO3MHA-11 | 2026-09-02 12:19:16 | 52.69566 | 10.72651 | 88° | 9km/h | 30685m | 7.0m/s | -41.8°C | 1.9% | 11.1hPa | 2.6V | 00:00:00 | 02:28:30 | 00:00:00 | |
| DO2SHX-10 | 2026-09-02 12:19:14 | 52.69563 | 10.72644 | 19° | 7km/h | 30673m | 5.4m/s | -41.8°C | 1.9% | 11.2hPa | 2.6V | 00:00:00 | 02:28:28 | 00:00:00 | |
| BIOWL9-15 | 2026-09-02 12:19:13 | 52.69561 | 10.72647 | 274° | 9km/h | 30660m | 7.4m/s | -41.9°C | 0.1% | 11.3hPa | 2.7V | 00:00:00 | 00:00:00 | 00:00:00 | |
| DL1NUX | 2026-09-02 12:19:12 | 52.69570 | 10.72661 | 84° | 11km/h | 30625m | 6.7m/s | -42.1°C | 1.9% | 11.3hPa | 2.7V | 03:30:22 | 02:28:20 | 00:00:00 | |
| DO2SHX-10 | 2026-09-02 12:19:11 | 52.69562 | 10.72652 | 247° | 13km/h | 30653m | 6.1m/s | -41.9°C | 1.9% | 11.2hPa | 2.7V | 00:00:00 | 02:28:25 | 00:00:00 | |
| DL1XH1-15 | 2026-09-02 12:19:10 | 52.69566 | 10.72662 | 220° | 13km/h | 30644m | 4.1m/s | -41.9°C | 1.9% | 11.3hPa | 2.7V | 03:30:19 | 02:28:23 | 00:00:00 | |
| BIOWL1-15 | 2026-09-02 12:19:09 | 52.69568 | 10.72664 | 203° | 9km/h | 30639m | 6m/s | -42°C | 0% | 11.3hPa | 2.6V | 03:31:39 | 02:28:22 | 00:00:00 | |
| AA1-15 | 2026-09-02 12:19:07 | 52.69570 | 10.72664 | 131° | 5km/h | 30632m | 7m/s | -42°C | 0% | 11.3hPa | 2.6V | 03:30:48 | 02:28:21 | 00:00:00 | |
| DL1XH-west | 2026-09-02 12:19:07 | 52.69570 | 10.72661 | 85° | 11km/h | 30625m | 6.7m/s | -42.1°C | 0% | 11.3hPa | 2.7V | 03:30:48 | 02:28:20 | 00:00:00 | |
| HSKMA3-T | 2026-09-02 12:19:05 | 52.69569 | 10.72655 | 80° | 18km/h | 30619m | 6m/s | -42°C | 0% | 11.3hPa | 2.7V | 03:30:48 | 02:28:19 | 00:00:00 | |
| DF8AY | 2026-09-02 12:19:05 | 52.69569 | 10.72632 | 105° | 16km/h | 30601m | 5.9m/s | -42.2°C | 0% | 11.4hPa | 2.6V | 03:30:48 | 02:28:16 | 00:00:00 | |
| DL1XH1-15 | 2026-09-02 12:19:04 | 52.69574 | 10.72624 | 178° | 5km/h | 30585m | 5.7m/s | -42.1°C | 1.9% | 11.4hPa | 2.7V | 03:30:29 | 02:28:13 | 00:00:00 | |
| DB0UT-7 | 2026-09-02 12:19:04 | 52.69569 | 10.72647 | 83° | 9km/h | 30614m | 5.7m/s | -42.0°C | 1.9% | 11.3hPa | 2.7V | 00:00:00 | 00:00:00 | 00:00:00 | |
| DD8BA-10 | 2026-09-02 12:19:03 | 52.69568 | 10.72639 | 92° | 9km/h | 30608m | 6.1m/s | -42.1°C | 2.0% | 11.3hPa | 2.6V | 00:00:00 | 00:00:00 | 00:00:00 | |
| DO2SHX-10 | 2026-09-02 12:19:02 | 52.69569 | 10.72632 | 105° | 11km/h | 30602m | 5.8m/s | -42.1°C | 1.9% | 11.3hPa | 2.6V | 03:30:00 | 02:28:16 | 00:00:00 | |
| DL1NUX | 2026-09-02 12:19:01 | 52.69573 | 10.72625 | 359° | 5km/h | 30565m | 6.2m/s | -42.1°C | 1.9% | 11.4hPa | 2.7V | 03:30:32 | 02:28:10 | 00:00:00 | |
| GOEST3-10 | 2026-09-02 12:19:01 | 52.69570 | 10.72627 | 125° | 5km/h | 30596m | 5.6m/s | -42.0°C | 1.9% | 11.3hPa | 2.7V | 03:30:00 | 00:00:00 | 00:00:00 | |
| DF7ER-10 | 2026-09-02 12:19:00 | 52.69570 | 10.72627 | 126° | 11km/h | 30596m | 5.7m/s | -42.1°C | 0.1% | 11.4hPa | 2.6V | 03:30:00 | 00:00:00 | 00:00:00 | |
| DL1XH-15 | 2026-09-02 12:18:59 | 52.69574 | 10.72624 | 239° | 2km/h | 30578m | 6.5m/s | -42.2°C | 1.9% | 11.4hPa | 2.6V | 03:30:30 | 02:28:12 | 00:00:00 | |
| BIOWL1-15 | 2026-09-02 12:18:58 | 52.69579 | 10.72599 | 90° | 13km/h | 30516m | 6.8m/s | -42.5°C | 0% | 11.5hPa | 2.7V | 03:31:39 | 02:28:02 | 00:00:00 | |
| DM0DOS-11 | 2026-09-02 12:18:58 | 52.69570 | 10.72624 | 66° | 5km/h | 30554m | 5.8m/s | -42.2°C | 1.9% | 11.4hPa | 2.7V | 03:30:34 | 02:28:08 | 00:00:00 | |
| DL1XH-west | 2026-09-02 12:18:57 | 52.69573 | 10.72625 | 360° | 7km/h | 30565m | 6.2m/s | -42.1°C | 0% | 11.4hPa | 2.7V | 03:30:48 | 02:28:10 | 00:00:00 | |
| HSKMA3-T | 2026-09-02 12:18:54 | 52.69570 | 10.72623 | 67° | 5km/h | 30554m | 5.8m/s | -42.2°C | 0% | 11.4hPa | 2.7V | 03:30:48 | 02:28:08 | 00:00:00 | |
| SP3BTT-10 | 2026-09-02 12:18:54 | 52.69570 | 10.72623 | 67° | 9km/h | 30554m | 5.7m/s | -42.2°C | 1.9% | 11.4hPa | 2.7V | 03:30:00 | 00:00:00 | 00:00:00 | |
| DL1XH-15 | 2026-09-02 12:18:53 | 52.69579 | 10.72599 | 89° | 13km/h | 30516m | 6.8m/s | -42.5°C | 1.9% | 11.5hPa | 2.7V | 03:30:40 | 02:28:02 | 00:00:00 | |
| DF8AY | 2026-09-02 12:18:53 | 52.69572 | 10.72618 | 132° | 11km/h | 30540m | 6.7m/s | -42.2°C | 0% | 11.4hPa | 2.6V | 03:30:48 | 02:28:06 | 00:00:00 | |
| DL1NUX | 2026-09-02 12:18:51 | 52.69578 | 10.72592 | 68° | 4km/h | 30503m | 5.4m/s | -42.5°C | 2% | 11.5hPa | 2.7V | 03:30:42 | 02:28:00 | 00:00:00 | |
| AA1-15 | 2026-09-02 12:18:44 | 52.69579 | 10.72592 | 226° | 7km/h | 30490m | 7.1m/s | -42.7°C | 0% | 11.6hPa | 2.6V | 03:30:48 | 02:27:58 | 00:00:00 | |
| DF8AY | 2026-09-02 12:18:42 | 52.69582 | 10.72602 | 265° | 9km/h | 30473m | 6.4m/s | -42.7°C | 0% | 11.6hPa | 2.7V | 03:30:48 | 02:27:55 | 00:00:00 | |
| DJ8HS-15 | 2026-09-02 12:18:42 | 52.69581 | 10.72599 | 245° | 9km/h | 30479m | 5.0m/s | -42.6°C | 2.0% | 11.5hPa | 2.7V | 03:30:00 | 02:27:56 | 00:00:00 | |
| DL1NUX | 2026-09-02 12:18:41 | 52.69579 | 10.72608 | 144° | 4km/h | 30440m | 7.3m/s | -42.8°C | 2% | 11.6hPa | 2.7V | 03:30:52 | 02:27:50 | 00:00:00 | |
| DO2SHX-10 | 2026-09-02 12:18:41 | 52.69582 | 10.72602 | 265° | 7km/h | 30474m | 6.4m/s | -42.7°C | 2.0% | 11.6hPa | 2.7V | 00:00:00 | 02:27:55 | 00:00:00 | |
| DL1XH-15 | 2026-09-02 12:18:39 | 52.69580 | 10.72609 | 350° | 5km/h | 30453m | 5.6m/s | -42.8°C | 2% | 11.6hPa | 2.7V | 03:30:50 | 02:27:52 | 00:00:00 | |
| SMARD9-15 | 2026-09-02 12:18:38 | 52.69580 | 10.72609 | 350° | 4km/h | 30453m | 5.6m/s | -42.8°C | 0.1% | 11.6hPa | 2.6V | 00:00:00 | 00:00:00 | 00:00:00 | |
| DM0DOS-11 | 2026-09-02 12:18:37 | 52.69582 | 10.72607 | 181° | 5km/h | 30428m | 5.3m/s | -42.8°C | 2% | 11.7hPa | 2.6V | 03:30:54 | 02:27:48 | 00:00:00 | |
| BIOWL1-15 | 2026-09-02 12:18:36 | 52.69578 | 10.72623 | 273° | 13km/h | 30391m | 7m/s | -43°C | 0% | 11.7hPa | 2.7V | 03:31:39 | 02:27:42 | 00:00:00 | |
| AA1-15 | 2026-09-02 12:18:34 | 52.69582 | 10.72607 | 181° | 5km/h | 30428m | 5.3m/s | -42.8°C | 0% | 11.7hPa | 2.6V | 03:31:39 | 02:27:48 | 00:00:00 | |
| HSKMA3-T | 2026-09-02 12:18:34 | 52.69582 | 10.72608 | 218° | 4km/h | 30423m | 5.9m/s | -42.8°C | 0% | 11.7hPa | 2.7V | 03:31:39 | 02:27:47 | 00:00:00 | |
| DO2SHX-10 | 2026-09-02 12:18:34 | 52.69582 | 10.72607 | 182° | 4km/h | 30428m | 5.3m/s | -42.8°C | 2.0% | 11.6hPa | 2.6V | 00:00:00 | 02:27:48 | 00:00:00 | |
| DD8BA-10 | 2026-09-02 12:18:33 | 52.69582 | 10.72608 | 218° | 11km/h | 30423m | 5.8m/s | -42.7°C | 2.0% | 11.6hPa | 2.7V | 03:30:00 | 00:00:00 | 00:00:00 | |
| DL1NUX | 2026-09-02 12:18:31 | 52.69580 | 10.72633 | 220° | 15km/h | 30378m | 5.6m/s | -43°C | 2.1% | 11.7hPa | 2.7V | 03:31:02 | 02:27:40 | 00:00:00 | |
| DF8AY | 2026-09-02 12:18:29 | 52.69578 | 10.72628 | 244° | 15km/h | 30384m | 6.7m/s | -43°C | 0% | 11.7hPa | 2.7V | 03:31:39 | 02:27:41 | 00:00:00 | |
| DO3MHA-11 | 2026-09-02 12:18:27 | 52.69578 | 10.72628 | 245° | 11km/h | 30384m | 6.7m/s | -43.0°C | 2.0% | 11.7hPa | 2.6V | 00:00:00 | 02:27:41 | 00:00:00 | |
| DM0DOS-11 | 2026-09-02 12:18:26 | 52.69586 | 10.72636 | 173° | 9km/h | 30367m | 6.5m/s | -43°C | 2.1% | 11.8hPa | 2.6V | 03:31:04 | 02:27:38 | 00:00:00 | |
| DB0DAN | 2026-09-02 12:18:25 | 52.69583 | 10.72636 | 200° | 13km/h | 30372m | 5.1m/s | -43°C | 0.1% | 11.77hPa | 2.7V | 00:00:00 | 00:00:00 | 00:00:00 | |
| DL1XH1-15 | 2026-09-02 12:18:24 | 52.69593 | 10.72620 | 143° | 11km/h | 30333m | 7.2m/s | -43°C | 2% | 11.8hPa | 2.7V | 03:31:09 | 02:27:33 | 00:00:00 | |
| AA1-15 | 2026-09-02 12:18:23 | 52.69588 | 10.72635 | 135° | 9km/h | 30360m | 7.5m/s | -43°C | 0% | 11.8hPa | 2.6V | 03:31:39 | 02:27:37 | 00:00:00 | |
| DD8BA-10 | 2026-09-02 12:18:23 | 52.69588 | 10.72635 | 136° | 7km/h | 30360m | 7.5m/s | -43.0°C | 2.1% | 11.8hPa | 2.7V | 00:00:00 | 00:00:00 | 00:00:00 | |
| DO2SHX-10 | 2026-09-02 12:18:22 | 52.69589 | 10.72631 | 108° | 11km/h | 30353m | 6.5m/s | -43.0°C | 2.1% | 11.8hPa | 2.7V | 00:00:00 | 02:27:36 | 00:00:00 | |
| SO1NDE-10 | 2026-09-02 12:18:21 | 52.69590 | 10.72627 | 108° | 11km/h | 30347m | 5.4m/s | -43.0°C | 2.0% | 11.7hPa | 2.7V | 00:00:00 | 02:27:35 | 00:00:00 | |
| DM0DOS-11 | 2026-09-02 12:18:19 | 52.69597 | 10.72618 | 281° | 2km/h | 30300m | 5.4m/s | -43°C | 2% | 11.9hPa | 2.7V | 03:31:14 | 02:27:28 | 00:00:00 | |
| DO2SHX-10 | 2026-09-02 12:18:19 | 52.69593 | 10.72619 | 144° | 7km/h | 30333m | 7.2m/s | -42.9°C | 2.0% | 11.8hPa | 2.6V | 00:00:00 | 02:27:33 | 00:00:00 | |
| DL1NUX | 2026-09-02 12:18:18 | 52.69597 | 10.72617 | 197° | 2km/h | 30315m | 7.8m/s | -43°C | 2% | 11.8hPa | 2.6V | 03:31:12 | 02:27:30 | 00:00:00 | |
| DF8AY | 2026-09-02 12:18:17 | 52.69597 | 10.72617 | 198° | 2km/h | 30315m | 7.8m/s | -43°C | 0% | 11.8hPa | 2.6V | 03:31:39 | 02:27:30 | 00:00:00 | |
| AA1-15 | 2026-09-02 12:18:14 | 52.69598 | 10.72619 | 211° | 5km/h | 30295m | 5.7m/s | -43.1°C | 0% | 11.9hPa | 2.7V | 03:31:39 | 02:27:27 | 00:00:00 | |
| DL1XH-west | 2026-09-02 12:18:13 | 52.69600 | 10.72620 | 191° | 9km/h | 30288m | 8m/s | -43.1°C | 0% | 11.9hPa | 2.6V | 03:31:39 | 02:27:26 | 00:00:00 | |
| DL1XH-15 | 2026-09-02 12:18:13 | 52.69616 | 10.72601 | 113° | 20km/h | 30254m | 6.2m/s | -42.9°C | 2.1% | 11.9hPa | 2.6V | 03:31:21 | 02:27:21 | 00:00:00 | |
| S3001 | 2026-09-02 12:18:13 | 52.69600 | 10.72620 | 190° | 7km/h | 30289m | 8.0m/s | -43.1°C | 0.2% | 11.9hPa | 2.7V | 00:00:00 | 00:00:00 | 00:00:00 | |
| GOEST3-10 | 2026-09-02 12:18:11 | 52.69602 | 10.72620 | 173° | 18km/h | 30281m | 6.7m/s | -42.9°C | 2.1% | 11.9hPa | 2.7V | 00:00:00 | 00:00:00 | 00:00:00 | |
| DL1XH1-15 | 2026-09-02 12:18:10 | 52.69611 | 10.72614 | 138° | 20km/h | 30269m | 6.5m/s | -43°C | 2.1% | 11.9hPa | 2.7V | 03:31:19 | 02:27:23 | 00:00:00 | |
| DB0DAN | 2026-09-02 12:18:10 | 52.69606 | 10.72618 | 156° | 18km/h | 30275m | 4.9m/s | -43°C | 0.1% | 11.9hPa | 2.7V | 00:00:00 | 00:00:00 | 00:00:00 | |
| BIOWL1-15 | 2026-09-02 12:18:10 | 52.69629 | 10.72573 | 208° | 7km/h | 30189m | 7.8m/s | -42.9°C | 0% | 12.1hPa | 2.7V | 03:31:39 | 02:27:11 | 00:00:00 | |
| HTAHTA | 2026-09-02 12:18:09 | 52.69610 | 10.72614 | 138° | 18km/h | 30269m | 6.5m/s | -43.1°C | 0.2% | 11.9hPa | 2.6V | 00:00:00 | 00:00:00 | 00:00:00 | |
| DL1NUX | 2026-09-02 12:18:08 | 52.69618 | 10.72593 | 111° | 20km/h | 30249m | 5.3m/s | -42.9°C | 2.1% | 12hPa | 2.6V | 03:31:22 | 02:27:20 | 00:00:00 | |
| DF8AY | 2026-09-02 12:18:06 | 52.69618 | 10.72593 | 112° | 20km/h | 30249m | 5.3m/s | -42.9°C | 0% | 12hPa | 2.6V | 03:31:39 | 02:27:20 | 00:00:00 | |
| AA1-15 | 2026-09-02 12:18:02 | 52.69628 | 10.72572 | 143° | 7km/h | 30223m | 5.9m/s | -42.8°C | 0% | 12hPa | 2.7V | 03:31:39 | 02:27:16 | 00:00:00 | |
| DL1XH-west | 2026-09-02 12:18:02 | 52.69629 | 10.72570 | 133° | 4km/h | 30216m | 8m/s | -42.8°C | 0% | 12.1hPa | 2.6V | 03:31:39 | 02:27:15 | 00:00:00 | |
| DO2SHX-10 | 2026-09-02 12:18:01 | 52.69629 | 10.72570 | 133° | 4km/h | 30216m | 7.9m/s | -42.8°C | 2.0% | 12.0hPa | 2.7V | 03:31:00 | 02:27:15 | 00:00:00 | |
| DL1XH-15 | 2026-09-02 12:17:59 | 52.69628 | 10.72571 | 240° | 4km/h | 30196m | 6m/s | -42.9°C | 2% | 12.1hPa | 2.7V | 03:31:30 | 02:27:12 | 00:00:00 | |
| DF7ER-10 | 2026-09-02 12:17:57 | 52.69629 | 10.72573 | 209° | 7km/h | 30190m | 7.8m/s | -42.9°C | 0.2% | 12.1hPa | 2.6V | 03:31:00 | 00:00:00 | 00:00:00 | |
| DM0DOS-11 | 2026-09-02 12:17:56 | 52.69638 | 10.72571 | 153° | 16km/h | 30168m | 6.4m/s | -42.7°C | 2% | 12.1hPa | 2.6V | 03:31:34 | 02:27:08 | 00:00:00 | |
| DF8AY | 2026-09-02 12:17:55 | 52.69639 | 10.72571 | 153° | 16km/h | 30168m | 6.4m/s | -42.7°C | 0% | 12.1hPa | 2.6V | 03:31:39 | 02:27:08 | 00:00:00 | |
| DB0DAN | 2026-09-02 12:17:55 | 52.69635 | 10.72573 | 167° | 15km/h | 30175m | 6.2m/s | -42.7°C | 0.1% | 12.11hPa | 2.7V | 00:00:00 | 00:00:00 | 00:00:00 | |
| BIOWL1-15 | 2026-09-02 12:17:54 | 52.69651 | 10.72544 | 139° | 13km/h | 30131m | 6.9m/s | -42.8°C | 0% | 12.2hPa | 2.6V | 03:32:30 | 02:27:02 | 00:00:00 | |
| DL1XH-15 | 2026-09-02 12:17:54 | 52.69651 | 10.72544 | 139° | 13km/h | 30131m | 6.9m/s | -42.8°C | 2% | 12.2hPa | 2.6V | 03:31:40 | 02:27:02 | 00:00:00 | |
| DL1XH-west | 2026-09-02 12:17:51 | 52.69646 | 10.72557 | 113° | 15km/h | 30149m | 5.3m/s | -42.8°C | 0% | 12.2hPa | 2.7V | 03:31:39 | 02:27:05 | 00:00:00 | |
| DL1XH1-15 | 2026-09-02 12:17:51 | 52.69649 | 10.72548 | 128° | 15km/h | 30138m | 6.3m/s | -42.8°C | 2.1% | 12.2hPa | 2.6V | 03:31:39 | 02:27:03 | 00:00:00 | |
| DL3AQ-11 | 2026-09-02 12:17:50 | 52.69649 | 10.72548 | 128° | 13km/h | 30138m | 6.3m/s | -42.8°C | 0.2% | 12.2hPa | 2.6V | 00:00:00 | 00:00:00 | 00:00:00 | |
| DM0DOS-11 | 2026-09-02 12:17:49 | 52.69658 | 10.72538 | 336° | 2km/h | 30105m | 7.8m/s | -42.8°C | 2.1% | 12.2hPa | 2.6V | 03:31:44 | 02:26:58 | 00:00:00 | |
| DJ2DS-15 | 2026-09-02 12:17:49 | 52.69651 | 10.72544 | 139° | 13km/h | 30132m | 6.9m/s | -42.8°C | 0.1% | 12.2hPa | 2.7V | 00:00:00 | 00:00:00 | 00:00:00 | |
| EDDB2-12 | 2026-09-02 12:17:48 | 52.69651 | 10.72544 | 139° | 13km/h | 30132m | 6.9m/s | -42.8°C | 0.1% | 12.2hPa | 2.7V | 00:00:00 | 00:00:00 | 00:00:00 | |
| GOEST3-10 | 2026-09-02 12:17:47 | 52.69656 | 10.72539 | 164° | 7km/h | 30119m | 6.2m/s | -42.7°C | 2.0% | 12.2hPa | 2.7V | 00:00:00 | 02:27:00 | 00:00:00 | |
| DO2SHX-10 | 2026-09-02 12:17:46 | 52.69656 | 10.72539 | 164° | 5km/h | 30119m | 6.2m/s | -42.7°C | 2.0% | 12.2hPa | 2.7V | 00:00:00 | 02:27:00 | 00:00:00 | |
| DO3MHA-11 | 2026-09-02 12:17:45 | 52.69658 | 10.72538 | 173° | 4km/h | 30113m | 6.6m/s | -42.7°C | 2.0% | 12.2hPa | 2.7V | 00:00:00 | 02:26:59 | 00:00:00 | |
| DL1XH1-15 | 2026-09-02 12:17:44 | 52.69653 | 10.72540 | 178° | 7km/h | 30075m | 7.5m/s | -42.8°C | 2% | 12.3hPa | 2.6V | 03:31:49 | 02:26:53 | 00:00:00 | |
| DF8AY | 2026-09-02 12:17:44 | 52.69657 | 10.72539 | 348° | 9km/h | 30098m | 6.6m/s | -42.9°C | 0% | 12.2hPa | 2.6V | 03:32:30 | 02:26:57 | 00:00:00 | |
| AA1-15 | 2026-09-02 12:17:41 | 52.69653 | 10.72540 | 351° | 7km/h | 30087m | 4.7m/s | -42.7°C | 0% | 12.3hPa | 2.7V | 03:32:30 | 02:26:55 | 00:00:00 | |
| DL1XH-west | 2026-09-02 12:17:41 | 52.69652 | 10.72540 | 311° | 0km/h | 30082m | 6.6m/s | -42.8°C | 0% | 12.3hPa | 2.7V | 03:32:30 | 02:26:54 | 00:00:00 | |
| DB0DAN | 2026-09-02 12:17:40 | 52.69652 | 10.72540 | 311° | 0km/h | 30082m | 6.6m/s | -42.8°C | 0.1% | 12.29hPa | 2.7V | 00:00:00 | 00:00:00 | 00:00:00 | |
| DL1XH-15 | 2026-09-02 12:17:39 | 52.69655 | 10.72540 | 173° | 15km/h | 30067m | 7m/s | -42.9°C | 2% | 12.3hPa | 2.6V | 03:31:50 | 02:26:52 | 00:00:00 | |
| DM0DOS-11 | 2026-09-02 12:17:38 | 52.69670 | 10.72531 | 136° | 11km/h | 30040m | 6.4m/s | -42.9°C | 2% | 12.4hPa | 2.6V | 03:31:54 | 02:26:48 | 00:00:00 | |
| DF8AY | 2026-09-02 12:17:33 | 52.69673 | 10.72525 | 155° | 4km/h | 30022m | 7.4m/s | -43.2°C | 0% | 12.4hPa | 2.7V | 03:32:30 | 02:26:45 | 00:00:00 | |
| DO9LL-15 | 2026-09-02 12:17:33 | 52.69672 | 10.72528 | 121° | 15km/h | 30034m | 5.1m/s | -43.0°C | 2.0% | 12.3hPa | 2.6V | 03:31:00 | 02:26:47 | 00:00:00 | |
| DL1NUX | 2026-09-02 12:17:32 | 52.69679 | 10.72534 | 246° | 7km/h | 29987m | 6.5m/s | -43.3°C | 2% | 12.5hPa | 2.6V | 03:32:02 | 02:26:40 | 00:00:00 | |
| DL1XH-west | 2026-09-02 12:17:31 | 52.69674 | 10.72525 | 206° | 5km/h | 30015m | 7.5m/s | -43.1°C | 0% | 12.4hPa | 2.7V | 03:32:30 | 02:26:44 | 00:00:00 | |
| DL1XH1-15 | 2026-09-02 12:17:30 | 52.69675 | 10.72526 | 217° | 7km/h | 30008m | 6.8m/s | -43.1°C | 2.1% | 12.4hPa | 2.7V | 03:31:59 | 02:26:43 | 00:00:00 | |
| BIOWL1-15 | 2026-09-02 12:17:29 | 52.69716 | 10.72531 | 158° | 15km/h | 29929m | 6.5m/s | -43.1°C | 0% | 12.6hPa | 2.7V | 03:32:30 | 02:26:31 | 00:00:00 | |
| DO2SHX-10 | 2026-09-02 12:17:28 | 52.69677 | 10.72529 | 227° | 7km/h | 30001m | 6.4m/s | -43.0°C | 2.0% | 12.4hPa | 2.7V | 00:00:00 | 02:26:42 | 00:00:00 | |
| SMARD9-10 | 2026-09-02 12:17:27 | 52.69678 | 10.72531 | 239° | 9km/h | 29995m | 7.0m/s | -43.2°C | 0.2% | 12.5hPa | 2.7V | 00:00:00 | 00:00:00 | 00:00:00 | |
| DF7ER-10 | 2026-09-02 12:17:26 | 52.69678 | 10.72531 | 239° | 9km/h | 29995m | 7.0m/s | -43.2°C | 0.2% | 12.5hPa | 2.7V | 03:32:00 | 00:00:00 | 00:00:00 | |
| DB0DAN | 2026-09-02 12:17:25 | 52.69680 | 10.72536 | 235° | 5km/h | 29981m | 5.4m/s | -43.1°C | 0.1% | 12.48hPa | 2.7V | 00:00:00 | 00:00:00 | 00:00:00 | |
| DL1XH1-15 | 2026-09-02 12:17:25 | 52.69707 | 10.72536 | 165° | 24km/h | 29944m | 6.8m/s | -43.1°C | 2% | 12.5hPa | 2.7V | 03:32:09 | 02:26:33 | 00:00:00 | |
| AA1-15 | 2026-09-02 12:17:20 | 52.69701 | 10.72538 | 172° | 26km/h | 29949m | 4.9m/s | -43.1°C | 0% | 12.5hPa | 2.5V | 03:32:30 | 02:26:34 | 00:00:00 | |
| DL1NUX | 2026-09-02 12:17:20 | 52.69719 | 10.72529 | 167° | 13km/h | 29923m | 5.5m/s | -43.1°C | 2% | 12.6hPa | 2.6V | 03:32:12 | 02:26:30 | 00:00:00 | |
| HSKMA3-T | 2026-09-02 12:17:20 | 52.69707 | 10.72536 | 166° | 24km/h | 29944m | 6.8m/s | -43.1°C | 0% | 12.5hPa | 2.7V | 03:32:30 | 02:26:33 | 00:00:00 | |
| DL1XH-15 | 2026-09-02 12:17:19 | 52.69712 | 10.72533 | 159° | 18km/h | 29937m | 7.9m/s | -43.1°C | 2% | 12.6hPa | 2.7V | 03:32:10 | 02:26:32 | 00:00:00 | |
| BIOWL1-15 | 2026-09-02 12:17:16 | 52.69734 | 10.72531 | 187° | 15km/h | 29897m | 5.5m/s | -43.2°C | 0% | 12.6hPa | 2.7V | 03:32:30 | 02:26:26 | 00:00:00 | |
| DO2SHX-10 | 2026-09-02 12:17:16 | 52.69719 | 10.72529 | 168° | 15km/h | 29924m | 5.4m/s | -43.1°C | 2.0% | 12.5hPa | 2.7V | 00:00:00 | 02:26:30 | 00:00:00 | |
| DL1XH-15 | 2026-09-02 12:17:14 | 52.69746 | 10.72523 | 145° | 20km/h | 29869m | 6.6m/s | -43.4°C | 2.1% | 12.7hPa | 2.7V | 03:32:20 | 02:26:22 | 00:00:00 | |
| DF8AY | 2026-09-02 12:17:13 | 52.69762 | 10.72509 | 152° | 24km/h | 29850m | 4.6m/s | -43.4°C | 0% | 12.7hPa | 2.6V | 03:32:30 | 02:26:19 | 00:00:00 | |
| GOEST3-10 | 2026-09-02 12:17:11 | 52.69738 | 10.72531 | 177° | 16km/h | 29890m | 8.2m/s | -43.3°C | 2.0% | 12.6hPa | 2.6V | 00:00:00 | 00:00:00 | 00:00:00 | |
| DL1NUX | 2026-09-02 12:17:10 | 52.69757 | 10.72513 | 154° | 26km/h | 29855m | 5.5m/s | -43.4°C | 2.1% | 12.7hPa | 2.6V | 03:32:22 | 02:26:20 | 00:00:00 | |
| DL1XH1-15 | 2026-09-02 12:17:10 | 52.69743 | 10.72527 | 142° | 15km/h | 29875m | 5.1m/s | -43.3°C | 2% | 12.7hPa | 2.7V | 03:32:19 | 02:26:23 | 00:00:00 | |
| DB0DAN | 2026-09-02 12:17:10 | 52.69740 | 10.72530 | 151° | 9km/h | 29882m | 7.4m/s | -43.4°C | 0.2% | 12.66hPa | 2.6V | 00:00:00 | 00:00:00 | 00:00:00 | |
| DL1XH-west | 2026-09-02 12:17:08 | 52.69746 | 10.72523 | 146° | 20km/h | 29869m | 6.6m/s | -43.4°C | 0% | 12.7hPa | 2.7V | 03:32:30 | 02:26:22 | 00:00:00 | |
| DL4BBY-15 | 2026-09-02 12:17:07 | 52.69751 | 10.72518 | 151° | 16km/h | 29862m | 8.5m/s | -43.2°C | 0% | 0hPa | 2.7V | 00:00:00 | 00:00:00 | 00:00:00 | |
| GOEST3-10 | 2026-09-02 12:17:06 | 52.69756 | 10.72513 | 155° | 20km/h | 29855m | 5.4m/s | -43.4°C | 2.1% | 12.7hPa | 2.7V | 00:00:00 | 02:26:20 | 00:00:00 | |
| SMARD9-15 | 2026-09-02 12:17:05 | 52.69762 | 10.72509 | 151° | 24km/h | 29850m | 4.6m/s | -43.4°C | 0.1% | 12.7hPa | 2.7V | 00:00:00 | 00:00:00 | 00:00:00 | |
| DL1XH1-15 | 2026-09-02 12:17:04 | 52.69783 | 10.72477 | 142° | 11km/h | 29803m | 5m/s | -44°C | 2.1% | 12.8hPa | 2.7V | 03:32:30 | 02:26:12 | 00:00:00 | |
| EDDB2-11 | 2026-09-02 12:17:04 | 52.69771 | 10.72499 | 134° | 16km/h | 29836m | 8.3m/s | -43.6°C | 0.2% | 12.8hPa | 2.7V | 00:00:00 | 00:00:00 | 00:00:00 | |
| DD8BA-10 | 2026-09-02 12:17:03 | 52.69771 | 10.72499 | 135° | 13km/h | 29836m | 8.3m/s | -43.6°C | 2.0% | 12.7hPa | 2.7V | 00:00:00 | 00:00:00 | 00:00:00 | |
| DO2SHX-10 | 2026-09-02 12:17:01 | 52.69776 | 10.72488 | 126° | 15km/h | 29823m | 5.7m/s | -43.7°C | 2.1% | 12.8hPa | 2.7V | 03:32:00 | 02:26:15 | 00:00:00 | |
| DL1NUX | 2026-09-02 12:17:01 | 52.69786 | 10.72471 | 111° | 9km/h | 29790m | 7.8m/s | -44.3°C | 2.2% | 12.8hPa | 2.6V | 03:32:32 | 02:26:10 | 00:00:00 | |
| DL1XH-15 | 2026-09-02 12:17:00 | 52.69783 | 10.72477 | 142° | 11km/h | 29803m | 5m/s | -44°C | 2.1% | 12.8hPa | 2.7V | 03:32:30 | 02:26:12 | 00:00:00 | |
| HSKMA3-T | 2026-09-02 12:16:59 | 52.69785 | 10.72474 | 134° | 9km/h | 29798m | 6.4m/s | -44.1°C | 0% | 12.8hPa | 2.7V | 03:33:21 | 02:26:11 | 00:00:00 | |
| DL1XH-west | 2026-09-02 12:16:58 | 52.69783 | 10.72477 | 143° | 11km/h | 29803m | 5m/s | -44°C | 0% | 12.8hPa | 2.7V | 03:32:30 | 02:26:12 | 00:00:00 | |
| DL3AQ-11 | 2026-09-02 12:16:57 | 52.69787 | 10.72467 | 101° | 11km/h | 29784m | 5.8m/s | -44.3°C | 0.2% | 12.9hPa | 2.6V | 00:00:00 | 00:00:00 | 00:00:00 | |
| TFSTFS | 2026-09-02 12:16:56 | 52.69785 | 10.72474 | 135° | 9km/h | 29798m | 6.4m/s | -44.1°C | 0.1% | 12.8hPa | 2.6V | 00:00:00 | 00:00:00 | 00:00:00 | |
| DO2SHX-10 | 2026-09-02 12:16:55 | 52.69787 | 10.72467 | 102° | 15km/h | 29784m | 5.8m/s | -44.3°C | 2.2% | 12.8hPa | 2.6V | 00:00:00 | 02:26:09 | 00:00:00 | |
| DB0DAN | 2026-09-02 12:16:55 | 52.69787 | 10.72467 | 101° | 11km/h | 29783m | 5.8m/s | -44.3°C | 0.2% | 12.88hPa | 2.6V | 00:00:00 | 00:00:00 | 00:00:00 | |
| DL1XH-15 | 2026-09-02 12:16:54 | 52.69802 | 10.72415 | 91° | 24km/h | 29739m | 7.4m/s | -44.6°C | 2.2% | 12.9hPa | 2.7V | 03:32:40 | 02:26:02 | 00:00:00 | |
| DD8BA-10 | 2026-09-02 12:16:53 | 52.69790 | 10.72457 | 123° | 22km/h | 29772m | 7.5m/s | -44.3°C | 2.2% | 12.8hPa | 2.6V | 00:00:00 | 00:00:00 | 00:00:00 | |
| SO1NDE-10 | 2026-09-02 12:16:52 | 52.69796 | 10.72442 | 127° | 15km/h | 29758m | 5.1m/s | -44.3°C | 2.2% | 12.8hPa | 2.6V | 00:00:00 | 02:26:05 | 00:00:00 | |
| DL1XH1-15 | 2026-09-02 12:16:50 | 52.69802 | 10.72425 | 105° | 24km/h | 29746m | 6.5m/s | -44.6°C | 2.2% | 12.9hPa | 2.7V | 03:32:39 | 02:26:03 | 00:00:00 | |
| DL1NUX | 2026-09-02 12:16:50 | 52.69801 | 10.72396 | 75° | 24km/h | 29727m | 5m/s | -44.7°C | 2.2% | 12.9hPa | 2.7V | 03:32:42 | 02:26:00 | 00:00:00 | |
| DF8AY | 2026-09-02 12:16:49 | 52.69803 | 10.72415 | 92° | 24km/h | 29740m | 7.4m/s | -44.6°C | 0% | 12.9hPa | 2.7V | 03:33:21 | 02:26:02 | 00:00:00 | |
| DM0DOS-11 | 2026-09-02 12:16:48 | 52.69799 | 10.72379 | 92° | 18km/h | 29715m | 7.2m/s | -44.7°C | 2.3% | 13hPa | 2.6V | 03:32:44 | 02:25:58 | 00:00:00 | |
| DL1XH-west | 2026-09-02 12:16:47 | 52.69802 | 10.72405 | 80° | 24km/h | 29733m | 6.1m/s | -44.6°C | 0% | 13hPa | 2.7V | 03:33:21 | 02:26:01 | 00:00:00 | |
| DL3AQ-11 | 2026-09-02 12:16:46 | 52.69799 | 10.72379 | 92° | 16km/h | 29715m | 7.2m/s | -44.7°C | 0.2% | 13.0hPa | 2.6V | 00:00:00 | 00:00:00 | 00:00:00 | |
| SONCRA | 2026-09-02 12:16:45 | 52.69799 | 10.72379 | 92° | 16km/h | 29715m | 7.2m/s | -44.7°C | 0.2% | 13.0hPa | 2.6V | 00:00:00 | 00:00:00 | 00:00:00 | |
| DL1XH1-15 | 2026-09-02 12:16:44 | 52.69804 | 10.72355 | 39° | 11km/h | 29679m | 6.5m/s | -44.9°C | 2.2% | 13.1hPa | 2.6V | 03:32:50 | 02:25:52 | 00:00:00 | |
| DD8BA-10 | 2026-09-02 12:16:43 | 52.69800 | 10.72372 | 113° | 13km/h | 29709m | 5.8m/s | -44.7°C | 2.2% | 13.0hPa | 2.6V | 00:00:00 | 00:00:00 | 00:00:00 | |
| DL1XH-15 | 2026-09-02 12:16:42 | 52.69804 | 10.72355 | 39° | 11km/h | 29679m | 6.5m/s | -44.9°C | 2.2% | 13.1hPa | 2.6V | 03:32:50 | 02:25:52 | 00:00:00 | |
| DB0DAN | 2026-09-02 12:16:40 | 52.69805 | 10.72360 | 119° | 7km/h | 29692m | 6.1m/s | -44.8°C | 0.2% | 13.04hPa | 2.7V | 00:00:00 | 00:00:00 | 00:00:00 | |
| HSKMA3-T | 2026-09-02 12:16:39 | 52.69804 | 10.72355 | 39° | 11km/h | 29679m | 6.5m/s | -44.9°C | 0% | 13.1hPa | 2.6V | 03:33:21 | 02:25:52 | 00:00:00 | |
| BIOWL9-15 | 2026-09-02 12:16:37 | 52.69798 | 10.72347 | 46° | 18km/h | 29667m | 5.2m/s | -44.8°C | 0.2% | 13.1hPa | 2.7V | 00:00:00 | 00:00:00 | 00:00:00 | |
| DO2SHX-10 | 2026-09-02 12:16:36 | 52.69798 | 10.72347 | 47° | 20km/h | 29667m | 5.1m/s | -44.8°C | 2.2% | 13.0hPa | 2.7V | 03:32:00 | 02:25:50 | 00:00:00 | |
| DL1XH-west | 2026-09-02 12:16:36 | 52.69798 | 10.72347 | 46° | 18km/h | 29667m | 5.2m/s | -44.8°C | 0% | 13.1hPa | 2.7V | 03:33:21 | 02:25:50 | 00:00:00 | |
| DM0DOS-11 | 2026-09-02 12:16:35 | 52.69793 | 10.72333 | 75° | 20km/h | 29653m | 7.1m/s | -44.9°C | 2.2% | 13.1hPa | 2.7V | 03:32:54 | 02:25:48 | 00:00:00 | |
| AM1SDL-15 | 2026-09-02 12:16:35 | 52.69793 | 10.72333 | 76° | 13km/h | 29654m | 7.1m/s | -44.9°C | 2.2% | 13.1hPa | 2.7V | 00:00:00 | 02:25:48 | 00:00:00 | |
| DB0UT-7 | 2026-09-02 12:16:34 | 52.69793 | 10.72333 | 76° | 13km/h | 29654m | 7.1m/s | -44.9°C | 2.2% | 13.1hPa | 2.7V | 03:32:00 | 02:25:48 | 00:00:00 | |
| SONDE2-11 | 2026-09-02 12:16:33 | 52.69792 | 10.72316 | 89° | 18km/h | 29641m | 5.0m/s | -44.9°C | 0.2% | 13.1hPa | 2.7V | 00:00:00 | 00:00:00 | 00:00:00 | |
| DL4XJ-10 | 2026-09-02 12:16:32 | 52.69792 | 10.72316 | 90° | 15km/h | 29642m | 5.0m/s | -44.7°C | 0% | 0hPa | 2.7V | 00:00:00 | 00:00:00 | 00:00:00 | |
| GOEST3-10 | 2026-09-02 12:16:31 | 52.69792 | 10.72308 | 85° | 11km/h | 29635m | 7.0m/s | -44.9°C | 2.2% | 13.1hPa | 2.7V | 00:00:00 | 00:00:00 | 00:00:00 | |
| DL1XH1-15 | 2026-09-02 12:16:30 | 52.69790 | 10.72298 | 55° | 9km/h | 29622m | 6.2m/s | -44.9°C | 2.2% | 13.2hPa | 2.7V | 03:32:59 | 02:25:43 | 00:00:00 | |
| BIOWL1-15 | 2026-09-02 12:16:30 | 52.69778 | 10.72279 | 42° | 18km/h | 29571m | 4.9m/s | -45.1°C | 0% | 13.3hPa | 2.7V | 03:33:21 | 02:25:35 | 00:00:00 | |
| DL1XH-15 | 2026-09-02 12:16:30 | 52.69789 | 10.72295 | 51° | 7km/h | 29616m | 6m/s | -44.9°C | 2.3% | 13.2hPa | 2.6V | 03:33:00 | 02:25:42 | 00:00:00 | |
| DL3AQ-11 | 2026-09-02 12:16:30 | 52.69790 | 10.72298 | 55° | 9km/h | 29622m | 6.2m/s | -44.9°C | 0.2% | 13.2hPa | 2.6V | 00:00:00 | 00:00:00 | 00:00:00 | |
| DM0DOS-11 | 2026-09-02 12:16:29 | 52.69784 | 10.72286 | 29° | 13km/h | 29584m | 7m/s | -45°C | 2.3% | 13.2hPa | 2.6V | 03:33:05 | 02:25:37 | 00:00:00 | |
| HSKMA3-T | 2026-09-02 12:16:28 | 52.69788 | 10.72293 | 62° | 5km/h | 29609m | 7.3m/s | -45°C | 0% | 13.2hPa | 2.6V | 03:33:21 | 02:25:41 | 00:00:00 | |
| DL1NUX | 2026-09-02 12:16:27 | 52.69788 | 10.72292 | 81° | 4km/h | 29602m | 6.4m/s | -44.9°C | 2.2% | 13.2hPa | 2.7V | 03:33:02 | 02:25:40 | 00:00:00 | |
| AA1-15 | 2026-09-02 12:16:26 | 52.69788 | 10.72292 | 81° | 4km/h | 29602m | 6.4m/s | -44.9°C | 0% | 13.2hPa | 2.7V | 03:33:21 | 02:25:40 | 00:00:00 | |
| DL1XH-west | 2026-09-02 12:16:24 | 52.69786 | 10.72288 | 37° | 7km/h | 29591m | 6.2m/s | -45°C | 0% | 13.2hPa | 2.7V | 03:33:21 | 02:25:38 | 00:00:00 | |
| DK1YY | 2026-09-02 12:16:24 | 52.69784 | 10.72286 | 29° | 11km/h | 29584m | 7.0m/s | -45.0°C | 0.2% | 13.2hPa | 2.6V | 00:00:00 | 00:00:00 | 00:00:00 | |
| DD8BA-10 | 2026-09-02 12:16:23 | 52.69784 | 10.72286 | 30° | 15km/h | 29584m | 7.0m/s | -44.9°C | 2.3% | 13.2hPa | 2.6V | 00:00:00 | 00:00:00 | 00:00:00 | |
| DO3MHA-11 | 2026-09-02 12:16:22 | 52.69781 | 10.72283 | 32° | 13km/h | 29577m | 6.2m/s | -45.0°C | 2.3% | 13.2hPa | 2.6V | 00:00:00 | 02:25:36 | 00:00:00 | |
| DL1XH-15 | 2026-09-02 12:16:21 | 52.69773 | 10.72259 | 96° | 18km/h | 29552m | 6.2m/s | -45.1°C | 2.3% | 13.3hPa | 2.6V | 03:33:10 | 02:25:32 | 00:00:00 | |
| DO2JMG | 2026-09-02 12:16:21 | 52.69775 | 10.72273 | 59° | 16km/h | 29566m | 6.6m/s | -45°C | 0% | 13.3hPa | 2.7V | 03:35:54 | 02:25:34 | 00:00:00 | |
| BIOWL1-15 | 2026-09-02 12:16:20 | 52.69771 | 10.72216 | 29° | 13km/h | 29480m | 5.7m/s | -45.2°C | 0% | 13.5hPa | 2.6V | 03:33:21 | 02:25:21 | 00:00:00 | |
| DF8AY | 2026-09-02 12:16:18 | 52.69774 | 10.72252 | 103° | 16km/h | 29546m | 5.2m/s | -45°C | 0% | 13.4hPa | 2.6V | 03:33:21 | 02:25:31 | 00:00:00 | |
| DM0DOS-11 | 2026-09-02 12:16:18 | 52.69774 | 10.72238 | 73° | 7km/h | 29526m | 5.2m/s | -45°C | 2.2% | 13.4hPa | 2.7V | 03:33:14 | 02:25:28 | 00:00:00 | |
| DL1NUX | 2026-09-02 12:16:18 | 52.69775 | 10.72246 | 96° | 13km/h | 29539m | 6.8m/s | -45°C | 2.2% | 13.3hPa | 2.7V | 03:33:12 | 02:25:30 | 00:00:00 | |
| HSKMA3-T | 2026-09-02 12:16:17 | 52.69775 | 10.72246 | 97° | 13km/h | 29539m | 6.9m/s | -45°C | 0% | 13.3hPa | 2.7V | 03:33:21 | 02:25:30 | 00:00:00 | |
| DL1XH-west | 2026-09-02 12:16:14 | 52.69774 | 10.72238 | 73° | 7km/h | 29526m | 5.2m/s | -45°C | 0% | 13.4hPa | 2.7V | 03:33:21 | 02:25:28 | 00:00:00 | |
| SONCRA | 2026-09-02 12:16:14 | 52.69774 | 10.72235 | 86° | 5km/h | 29521m | 5.5m/s | -45.1°C | 0.3% | 13.4hPa | 2.6V | 00:00:00 | 00:00:00 | 00:00:00 | |
| DJ8HS-15 | 2026-09-02 12:16:13 | 52.69774 | 10.72235 | 87° | 11km/h | 29521m | 5.4m/s | -45.0°C | 2.3% | 13.3hPa | 2.6V | 00:00:00 | 02:25:27 | 00:00:00 | |
| DO2SHX-10 | 2026-09-02 12:16:12 | 52.69774 | 10.72232 | 98° | 9km/h | 29514m | 8.0m/s | -45.1°C | 2.2% | 13.3hPa | 2.7V | 03:33:00 | 02:25:26 | 00:00:00 | |
| DL1NUX | 2026-09-02 12:16:11 | 52.69769 | 10.72213 | 37° | 11km/h | 29474m | 4.5m/s | -45.3°C | 2.3% | 13.5hPa | 2.7V | 03:33:22 | 02:25:20 | 00:00:00 | |
| BIOWL1-15 | 2026-09-02 12:16:10 | 52.69764 | 10.72189 | 40° | 11km/h | 29431m | 5.2m/s | -45.3°C | 0% | 13.6hPa | 2.7V | 03:34:12 | 02:25:13 | 00:00:00 | |
| DB0DAN | 2026-09-02 12:16:10 | 52.69775 | 10.72225 | 93° | 9km/h | 29500m | 4.9m/s | -45.2°C | 0.2% | 13.44hPa | 2.7V | 00:00:00 | 00:00:00 | 00:00:00 | |
| DF8AY | 2026-09-02 12:16:07 | 52.69768 | 10.72213 | 38° | 11km/h | 29474m | 4.5m/s | -45.3°C | 0% | 13.5hPa | 2.7V | 03:34:12 | 02:25:20 | 00:00:00 | |
| GOEST3-10 | 2026-09-02 12:16:07 | 52.69768 | 10.72213 | 38° | 9km/h | 29475m | 4.5m/s | -45.2°C | 2.3% | 13.4hPa | 2.7V | 00:00:00 | 02:25:20 | 00:00:00 | |
| DO2SHX-10 | 2026-09-02 12:16:06 | 52.69768 | 10.72213 | 38° | 11km/h | 29475m | 4.5m/s | -45.2°C | 2.3% | 13.4hPa | 2.7V | 00:00:00 | 02:25:20 | 00:00:00 | |
| DM0DOS-11 | 2026-09-02 12:16:05 | 52.69766 | 10.72206 | 92° | 9km/h | 29461m | 7.5m/s | -45.3°C | 2.3% | 13.5hPa | 2.7V | 03:33:24 | 02:25:18 | 00:00:00 | |
| DL1XH-west | 2026-09-02 12:16:04 | 52.69766 | 10.72206 | 92° | 9km/h | 29461m | 7.5m/s | -45.3°C | 0% | 13.5hPa | 2.7V | 03:34:12 | 02:25:18 | 00:00:00 | |
| AA1-15 | 2026-09-02 12:16:03 | 52.69767 | 10.72202 | 104° | 9km/h | 29455m | 4.8m/s | -45.2°C | 0% | 13.5hPa | 2.6V | 03:34:12 | 02:25:17 | 00:00:00 | |
| DL1NUX | 2026-09-02 12:16:02 | 52.69758 | 10.72177 | 60° | 15km/h | 29411m | 6m/s | -45.2°C | 2.3% | 13.6hPa | 2.7V | 03:33:32 | 02:25:10 | 00:00:00 | |
| DL1XH-15 | 2026-09-02 12:16:02 | 52.69762 | 10.72186 | 48° | 13km/h | 29425m | 5.9m/s | -45.2°C | 2.3% | 13.6hPa | 2.6V | 03:33:30 | 02:25:12 | 00:00:00 | |
| GOEST3-10 | 2026-09-02 12:16:02 | 52.69767 | 10.72195 | 77° | 11km/h | 29444m | 7.5m/s | -45.3°C | 2.3% | 13.5hPa | 2.7V | 03:33:00 | 00:00:00 | 00:00:00 | |
| DM0DOS-11 | 2026-09-02 12:16:00 | 52.69754 | 10.72168 | 42° | 13km/h | 29399m | 7m/s | -45.2°C | 2.2% | 13.6hPa | 2.7V | 03:33:34 | 02:25:08 | 00:00:00 | |
| HSKMA3-T | 2026-09-02 12:15:56 | 52.69758 | 10.72177 | 61° | 15km/h | 29411m | 6m/s | -45.3°C | 0% | 13.6hPa | 2.7V | 03:34:12 | 02:25:10 | 00:00:00 | |
| DB0DAN | 2026-09-02 12:15:55 | 52.69756 | 10.72172 | 53° | 13km/h | 29405m | 5.8m/s | -45.2°C | 0.2% | 13.62hPa | 2.7V | 00:00:00 | 00:00:00 | 00:00:00 | |
| DL1XH-west | 2026-09-02 12:15:53 | 52.69751 | 10.72165 | 29° | 13km/h | 29392m | 6.9m/s | -45.3°C | 0% | 13.7hPa | 2.6V | 03:34:12 | 02:25:07 | 00:00:00 | |
| AA1-15 | 2026-09-02 12:15:52 | 52.69749 | 10.72162 | 24° | 11km/h | 29386m | 5.2m/s | -45.2°C | 0% | 13.7hPa | 2.6V | 03:34:12 | 02:25:06 | 00:00:00 | |
| DL1NUX | 2026-09-02 12:15:51 | 52.69753 | 10.72138 | 104° | 20km/h | 29351m | 5.3m/s | -45.3°C | 2.3% | 13.7hPa | 2.7V | 03:33:42 | 02:25:00 | 00:00:00 | |
| DL3AQ-11 | 2026-09-02 12:15:50 | 52.69747 | 10.72156 | 122° | 9km/h | 29368m | 7.0m/s | -45.2°C | 0.2% | 13.7hPa | 2.7V | 00:00:00 | 00:00:00 | 00:00:00 | |
| DO2SHX-10 | 2026-09-02 12:15:49 | 52.69747 | 10.72156 | 123° | 15km/h | 29369m | 6.9m/s | -45.2°C | 2.3% | 13.7hPa | 2.7V | 00:00:00 | 02:25:03 | 00:00:00 | |
| DM0DOS-11 | 2026-09-02 12:15:48 | 52.69752 | 10.72123 | 57° | 18km/h | 29339m | 6.2m/s | -45.3°C | 2.2% | 13.8hPa | 2.7V | 03:33:44 | 02:24:58 | 00:00:00 | |
| HSKMA3-T | 2026-09-02 12:15:47 | 52.69752 | 10.72123 | 58° | 18km/h | 29339m | 6.2m/s | -45.3°C | 0% | 13.8hPa | 2.7V | 03:34:12 | 02:24:58 | 00:00:00 | |
| BIOWL1-15 | 2026-09-02 12:15:45 | 52.69736 | 10.72092 | 66° | 13km/h | 29272m | 5.4m/s | -45.2°C | 0% | 13.9hPa | 2.6V | 03:34:12 | 02:24:47 | 00:00:00 | |
| DL1XH1-15 | 2026-09-02 12:15:44 | 52.69737 | 10.72114 | 41° | 2km/h | 29309m | 6.2m/s | -45.3°C | 2.3% | 13.8hPa | 2.7V | 03:33:49 | 02:24:53 | 00:00:00 | |
| DL1XH-west | 2026-09-02 12:15:43 | 52.69749 | 10.72118 | 31° | 18km/h | 29333m | 5.7m/s | -45.3°C | 0% | 13.8hPa | 2.6V | 03:34:12 | 02:24:57 | 00:00:00 | |
| AA1-15 | 2026-09-02 12:15:42 | 52.69741 | 10.72114 | 3° | 13km/h | 29322m | 5.9m/s | -45.4°C | 0% | 13.8hPa | 2.7V | 03:34:12 | 02:24:55 | 00:00:00 | |
| DL1NUX | 2026-09-02 12:15:41 | 52.69738 | 10.72107 | 98° | 9km/h | 29291m | 6.5m/s | -45.3°C | 2.3% | 13.9hPa | 2.7V | 03:33:52 | 02:24:50 | 00:00:00 | |
| DF7ER-10 | 2026-09-02 12:15:41 | 52.69741 | 10.72114 | 4° | 13km/h | 29322m | 5.9m/s | -45.4°C | 0.2% | 13.8hPa | 2.7V | 03:34:00 | 00:00:00 | 00:00:00 | |
| DL1LOL-11 | 2026-09-02 12:15:40 | 52.69737 | 10.72114 | 42° | 2km/h | 29309m | 6.2m/s | -45.3°C | 0.2% | 13.8hPa | 2.7V | 00:00:00 | 00:00:00 | 00:00:00 | |
| DO2SHX-10 | 2026-09-02 12:15:39 | 52.69737 | 10.72114 | 42° | 5km/h | 29309m | 6.2m/s | -45.2°C | 2.3% | 13.8hPa | 2.7V | 00:00:00 | 02:24:53 | 00:00:00 | |
| DM0DOS-11 | 2026-09-02 12:15:38 | 52.69737 | 10.72097 | 67° | 13km/h | 29278m | 6.3m/s | -45.3°C | 2.3% | 13.9hPa | 2.7V | 03:33:54 | 02:24:48 | 00:00:00 | |
| HSKMA3-T | 2026-09-02 12:15:35 | 52.69737 | 10.72097 | 68° | 15km/h | 29278m | 6.3m/s | -45.3°C | 0% | 13.9hPa | 2.7V | 03:34:12 | 02:24:48 | 00:00:00 | |
| BIOWL9-15 | 2026-09-02 12:15:35 | 52.69737 | 10.72097 | 67° | 13km/h | 29278m | 6.3m/s | -45.3°C | 0.2% | 13.9hPa | 2.6V | 00:00:00 | 00:00:00 | 00:00:00 | |
| DB0UT-7 | 2026-09-02 12:15:34 | 52.69737 | 10.72097 | 68° | 9km/h | 29278m | 6.3m/s | -45.3°C | 2.3% | 13.9hPa | 2.6V | 00:00:00 | 02:24:48 | 00:00:00 | |
| BIOWL1-15 | 2026-09-02 12:15:33 | 52.69702 | 10.72057 | 344° | 4km/h | 29114m | 6.5m/s | -45.2°C | 0% | 14.2hPa | 2.6V | 03:35:03 | 02:24:21 | 00:00:00 | |
| DL1XH-west | 2026-09-02 12:15:32 | 52.69735 | 10.72088 | 65° | 9km/h | 29267m | 5.4m/s | -45.3°C | 0% | 13.9hPa | 2.6V | 03:34:12 | 02:24:46 | 00:00:00 | |
| AA1-15 | 2026-09-02 12:15:31 | 52.69734 | 10.72085 | 72° | 7km/h | 29260m | 6.2m/s | -45.3°C | 0% | 13.9hPa | 2.7V | 03:34:12 | 02:24:45 | 00:00:00 | |
| DL1NUX | 2026-09-02 12:15:31 | 52.69730 | 10.72065 | 65° | 18km/h | 29230m | 6.2m/s | -45.3°C | 2.3% | 14hPa | 2.7V | 03:34:02 | 02:24:40 | 00:00:00 | |
| GOEST3-10 | 2026-09-02 12:15:31 | 52.69734 | 10.72085 | 72° | 9km/h | 29261m | 6.2m/s | -45.2°C | 2.2% | 13.9hPa | 2.7V | 00:00:00 | 00:00:00 | 00:00:00 | |
| DF7ER-10 | 2026-09-02 12:15:30 | 52.69734 | 10.72085 | 73° | 7km/h | 29261m | 6.2m/s | -45.3°C | 0.2% | 13.9hPa | 2.7V | 03:34:00 | 00:00:00 | 00:00:00 | |
| DO2SHX-10 | 2026-09-02 12:15:29 | 52.69733 | 10.72080 | 80° | 11km/h | 29250m | 4.5m/s | -45.3°C | 2.3% | 13.9hPa | 2.7V | 00:00:00 | 02:24:43 | 00:00:00 | |
| DM0DOS-11 | 2026-09-02 12:15:28 | 52.69726 | 10.72054 | 44° | 13km/h | 29219m | 6.2m/s | -45.4°C | 2.3% | 14hPa | 2.7V | 03:34:04 | 02:24:38 | 00:00:00 | |
| HSKMA3-T | 2026-09-02 12:15:25 | 52.69726 | 10.72054 | 45° | 13km/h | 29219m | 6.2m/s | -45.4°C | 0% | 14hPa | 2.7V | 03:34:12 | 02:24:38 | 00:00:00 | |
| DF8AY | 2026-09-02 12:15:22 | 52.69709 | 10.72070 | 272° | 7km/h | 29162m | 6.4m/s | -45.3°C | 0% | 14.2hPa | 2.7V | 03:35:03 | 02:24:29 | 00:00:00 | |
| DL1XH-west | 2026-09-02 12:15:22 | 52.69722 | 10.72053 | 331° | 11km/h | 29205m | 6.3m/s | -45.4°C | 0% | 14hPa | 2.6V | 03:34:12 | 02:24:36 | 00:00:00 | |
| AA1-15 | 2026-09-02 12:15:20 | 52.69710 | 10.72066 | 324° | 7km/h | 29175m | 5.3m/s | -45.3°C | 0% | 14.1hPa | 2.6V | 03:34:12 | 02:24:31 | 00:00:00 | |
| DO2JMG | 2026-09-02 12:15:14 | 52.69709 | 10.72072 | 254° | 5km/h | 29156m | 5.3m/s | -45.1°C | 0% | 14.2hPa | 2.7V | 03:35:54 | 02:24:28 | 00:00:00 | |
| DL1XH1-15 | 2026-09-02 12:15:14 | 52.69705 | 10.72061 | 54° | 13km/h | 29126m | 5.5m/s | -45.2°C | 2.3% | 14.2hPa | 2.7V | 03:34:19 | 02:24:23 | 00:00:00 | |
| HSKMA3-T | 2026-09-02 12:15:14 | 52.69709 | 10.72074 | 255° | 2km/h | 29151m | 5.1m/s | -45.2°C | 0% | 14.2hPa | 2.6V | 03:35:03 | 02:24:27 | 00:00:00 | |
| DF8AY | 2026-09-02 12:15:12 | 52.69709 | 10.72073 | 70° | 4km/h | 29145m | 6.6m/s | -45.1°C | 0% | 14.2hPa | 2.6V | 03:35:03 | 02:24:26 | 00:00:00 | |
| DL1XH-west | 2026-09-02 12:15:11 | 52.69708 | 10.72070 | 66° | 11km/h | 29139m | 7.3m/s | -45.2°C | 0% | 14.2hPa | 2.7V | 03:35:03 | 02:24:25 | 00:00:00 | |
| DL1NUX | 2026-09-02 12:15:11 | 52.69701 | 10.72059 | 282° | 7km/h | 29107m | 6.3m/s | -45.2°C | 2.3% | 14.2hPa | 2.7V | 03:34:22 | 02:24:20 | 00:00:00 | |
| AA1-15 | 2026-09-02 12:15:09 | 52.69705 | 10.72061 | 55° | 13km/h | 29126m | 5.5m/s | -45.2°C | 0% | 14.2hPa | 2.7V | 03:35:03 | 02:24:23 | 00:00:00 | |
| HSKMA3-T | 2026-09-02 12:15:04 | 52.69702 | 10.72072 | 248° | 7km/h | 29082m | 5.1m/s | -45.2°C | 0% | 14.3hPa | 2.6V | 03:35:03 | 02:24:16 | 00:00:00 | |
| DO2JMG | 2026-09-02 12:15:03 | 52.69701 | 10.72069 | 264° | 7km/h | 29087m | 6.1m/s | -45.1°C | 0% | 14.3hPa | 2.6V | 03:35:54 | 02:24:17 | 00:00:00 | |
| DF8AY | 2026-09-02 12:15:00 | 52.69704 | 10.72079 | 239° | 13km/h | 29070m | 7.3m/s | -45.2°C | 0% | 14.4hPa | 2.7V | 03:35:03 | 02:24:14 | 00:00:00 | |
| SONDE2-11 | 2026-09-02 12:15:00 | 52.69706 | 10.72084 | 238° | 15km/h | 29063m | 7.1m/s | -45.2°C | 0.2% | 14.4hPa | 2.6V | 00:00:00 | 00:00:00 | 00:00:00 | |
| DL1XH-15 | 2026-09-02 12:14:59 | 52.69708 | 10.72089 | 233° | 15km/h | 29057m | 5.1m/s | -45.2°C | 2.4% | 14.4hPa | 2.6V | 03:34:30 | 02:24:12 | 00:00:00 | |
| DL1XH-west | 2026-09-02 12:14:59 | 52.69706 | 10.72084 | 238° | 16km/h | 29063m | 7.1m/s | -45.2°C | 0% | 14.4hPa | 2.7V | 03:35:03 | 02:24:13 | 00:00:00 | |
| AA1-15 | 2026-09-02 12:14:58 | 52.69708 | 10.72089 | 233° | 15km/h | 29057m | 5.1m/s | -45.2°C | 0% | 14.4hPa | 2.6V | 03:35:03 | 02:24:12 | 00:00:00 | |
| DO2SHX-10 | 2026-09-02 12:14:57 | 52.69710 | 10.72093 | 233° | 5km/h | 29052m | 4.9m/s | -45.2°C | 2.2% | 14.4hPa | 2.7V | 00:00:00 | 02:24:11 | 00:00:00 | |
| DB0DAN | 2026-09-02 12:14:55 | 52.69711 | 10.72095 | 89° | 4km/h | 29038m | 7.3m/s | -45.3°C | 0.2% | 14.42hPa | 2.7V | 00:00:00 | 00:00:00 | 00:00:00 | |
| BIOWL1-15 | 2026-09-02 12:14:55 | 52.69719 | 10.72098 | 209° | 9km/h | 28990m | 6.7m/s | -45.3°C | 0% | 14.5hPa | 2.6V | 03:35:03 | 02:24:01 | 00:00:00 | |
| HSKMA3-T | 2026-09-02 12:14:54 | 52.69710 | 10.72089 | 91° | 2km/h | 29020m | 6.6m/s | -45.4°C | 0% | 14.4hPa | 2.6V | 03:35:03 | 02:24:06 | 00:00:00 | |
| DD8BA-10 | 2026-09-02 12:14:53 | 52.69710 | 10.72091 | 71° | 9km/h | 29026m | 4.9m/s | -45.3°C | 2.3% | 14.4hPa | 2.6V | 00:00:00 | 00:00:00 | 00:00:00 | |
| DL1XH-15 | 2026-09-02 12:14:52 | 52.69717 | 10.72096 | 214° | 9km/h | 28997m | 6.7m/s | -45.3°C | 2.4% | 14.5hPa | 2.6V | 03:34:40 | 02:24:02 | 00:00:00 | |
| DF8AY | 2026-09-02 12:14:49 | 52.69715 | 10.72093 | 219° | 11km/h | 29003m | 5.3m/s | -45.4°C | 0% | 14.5hPa | 2.7V | 03:35:03 | 02:24:03 | 00:00:00 | |
| DL1XH-west | 2026-09-02 12:14:48 | 52.69717 | 10.72096 | 214° | 9km/h | 28997m | 6.7m/s | -45.3°C | 0% | 14.5hPa | 2.6V | 03:35:03 | 02:24:02 | 00:00:00 | |
| AA1-15 | 2026-09-02 12:14:47 | 52.69721 | 10.72100 | 194° | 11km/h | 28984m | 5.8m/s | -45.3°C | 0% | 14.5hPa | 2.7V | 03:35:03 | 02:24:00 | 00:00:00 | |
| DL1NUX | 2026-09-02 12:14:47 | 52.69724 | 10.72101 | 197° | 13km/h | 28978m | 5.2m/s | -45.3°C | 2.3% | 14.5hPa | 2.7V | 03:34:43 | 02:23:59 | 00:00:00 | |
| DL3AQ-11 | 2026-09-02 12:14:46 | 52.69724 | 10.72101 | 197° | 11km/h | 28978m | 5.2m/s | -45.3°C | 0.2% | 14.5hPa | 2.6V | 00:00:00 | 00:00:00 | 00:00:00 | |
| HSKMA3-T | 2026-09-02 12:14:43 | 52.69731 | 10.72105 | 202° | 16km/h | 28965m | 6m/s | -45.2°C | 0% | 14.6hPa | 2.6V | 03:35:03 | 02:23:57 | 00:00:00 | |
| DO2SHX-10 | 2026-09-02 12:14:42 | 52.69734 | 10.72107 | 203° | 11km/h | 28961m | 4.2m/s | -45.1°C | 2.3% | 14.5hPa | 2.6V | 03:34:00 | 02:23:56 | 00:00:00 | |
| DB0DAN | 2026-09-02 12:14:40 | 52.69738 | 10.72109 | 144° | 2km/h | 28950m | 7.4m/s | -45.1°C | 0.2% | 14.63hPa | 2.7V | 00:00:00 | 00:00:00 | 00:00:00 | |
| DF8AY | 2026-09-02 12:14:39 | 52.69738 | 10.72107 | 44° | 9km/h | 28942m | 7.2m/s | -45.2°C | 0% | 14.6hPa | 2.7V | 03:35:03 | 02:23:53 | 00:00:00 | |
| DL1XH-15 | 2026-09-02 12:14:39 | 52.69736 | 10.72104 | 36° | 13km/h | 28936m | 5.5m/s | -45.1°C | 2.2% | 14.6hPa | 2.6V | 03:34:50 | 02:23:52 | 00:00:00 | |
| DL1XH-west | 2026-09-02 12:14:38 | 52.69736 | 10.72104 | 37° | 13km/h | 28936m | 5.5m/s | -45.1°C | 0% | 14.7hPa | 2.6V | 03:35:03 | 02:23:52 | 00:00:00 | |
| HSKMA3-T | 2026-09-02 12:14:34 | 52.69730 | 10.72096 | 171° | 7km/h | 28908m | 4.7m/s | -45.2°C | 0% | 14.7hPa | 2.6V | 03:35:03 | 02:23:47 | 00:00:00 | |
| BIOWL1-15 | 2026-09-02 12:14:33 | 52.69745 | 10.72069 | 141° | 7km/h | 28865m | 6.7m/s | -45.6°C | 0% | 14.8hPa | 2.7V | 03:35:03 | 02:23:40 | 00:00:00 | |
| BIOWL9-15 | 2026-09-02 12:14:33 | 52.69732 | 10.72095 | 158° | 11km/h | 28903m | 6.1m/s | -45.3°C | 0.2% | 14.7hPa | 2.7V | 00:00:00 | 00:00:00 | 00:00:00 | |
| DL1XH1-15 | 2026-09-02 12:14:32 | 52.69740 | 10.72083 | 120° | 18km/h | 28883m | 5.5m/s | -45.4°C | 2.3% | 14.8hPa | 2.7V | 03:34:59 | 02:23:43 | 00:00:00 | |
| DL1XH-west | 2026-09-02 12:14:28 | 52.69742 | 10.72077 | 120° | 16km/h | 28878m | 5.5m/s | -45.5°C | 0% | 14.8hPa | 2.6V | 03:35:03 | 02:23:42 | 00:00:00 | |
| DF7ER-10 | 2026-09-02 12:14:26 | 52.69744 | 10.72072 | 121° | 11km/h | 28872m | 6.5m/s | -45.6°C | 0.2% | 14.8hPa | 2.7V | 03:35:00 | 00:00:00 | 00:00:00 | |
| DB0DAN | 2026-09-02 12:14:25 | 52.69746 | 10.72068 | 175° | 4km/h | 28859m | 6.3m/s | -45.6°C | 0.2% | 14.83hPa | 2.7V | 00:00:00 | 00:00:00 | 00:00:00 | |
| AA1-15 | 2026-09-02 12:14:24 | 52.69747 | 10.72067 | 100° | 5km/h | 28848m | 5.9m/s | -45.6°C | 0% | 14.8hPa | 2.6V | 03:35:54 | 02:23:37 | 00:00:00 | |
| HSKMA3-T | 2026-09-02 12:14:23 | 52.69749 | 10.72040 | 99° | 22km/h | 28821m | 6.6m/s | -45.8°C | 0% | 14.9hPa | 2.7V | 03:35:54 | 02:23:33 | 00:00:00 | |
| BIOWL1-15 | 2026-09-02 12:14:22 | 52.69748 | 10.72057 | 92° | 18km/h | 28834m | 6.6m/s | -45.7°C | 0% | 14.9hPa | 2.7V | 03:35:54 | 02:23:35 | 00:00:00 | |
| DO3MHA-11 | 2026-09-02 12:14:22 | 52.69748 | 10.72057 | 93° | 20km/h | 28834m | 6.5m/s | -45.6°C | 2.3% | 14.8hPa | 2.7V | 00:00:00 | 02:23:35 | 00:00:00 | |
| DL1XH1-15 | 2026-09-02 12:14:21 | 52.69749 | 10.72040 | 98° | 22km/h | 28821m | 6.5m/s | -45.8°C | 2.3% | 14.9hPa | 2.7V | 03:35:09 | 02:23:33 | 00:00:00 | |
| DL1XH-15 | 2026-09-02 12:14:20 | 52.69750 | 10.72032 | 105° | 20km/h | 28814m | 7.1m/s | -45.7°C | 2.4% | 14.9hPa | 2.6V | 03:35:10 | 02:23:32 | 00:00:00 | |
| DF8AY | 2026-09-02 12:14:20 | 52.69750 | 10.72032 | 105° | 20km/h | 28814m | 7.1m/s | -45.7°C | 0% | 14.9hPa | 2.6V | 03:35:54 | 02:23:32 | 00:00:00 | |
| DL1XH-west | 2026-09-02 12:14:18 | 52.69751 | 10.72024 | 113° | 20km/h | 28808m | 5.7m/s | -45.8°C | 0% | 14.9hPa | 2.6V | 03:35:54 | 02:23:31 | 00:00:00 | |
| DF8AY-15 | 2026-09-02 12:14:17 | 52.69751 | 10.72024 | 114° | 22km/h | 28808m | 5.7m/s | -45.7°C | 2.4% | 14.9hPa | 2.7V | 00:00:00 | 02:23:31 | 00:00:00 | |
| DM0DOS-11 | 2026-09-02 12:14:16 | 52.69759 | 10.71999 | 115° | 26km/h | 28789m | 6.8m/s | -45.8°C | 2.4% | 15hPa | 2.7V | 03:35:14 | 02:23:28 | 00:00:00 | |
| DO2JMG | 2026-09-02 12:14:14 | 52.69759 | 10.71999 | 115° | 26km/h | 28789m | 6.8m/s | -45.8°C | 0% | 15hPa | 2.7V | 03:35:54 | 02:23:28 | 00:00:00 | |
| DL1XH1-15 | 2026-09-02 12:14:14 | 52.69768 | 10.71967 | 124° | 5km/h | 28758m | 5.8m/s | -45.7°C | 2.4% | 15hPa | 2.7V | 03:35:19 | 02:23:23 | 00:00:00 | |
| DL1XH-15 | 2026-09-02 12:14:14 | 52.69769 | 10.71965 | 102° | 5km/h | 28753m | 5.3m/s | -45.7°C | 2.4% | 15.1hPa | 2.6V | 03:35:20 | 02:23:22 | 00:00:00 | |
| HSKMA3-T | 2026-09-02 12:14:12 | 52.69764 | 10.71981 | 115° | 20km/h | 28777m | 5m/s | -45.8°C | 0% | 15hPa | 2.6V | 03:35:54 | 02:23:26 | 00:00:00 | |
| BIOWL1-15 | 2026-09-02 12:14:10 | 52.69769 | 10.71965 | 103° | 5km/h | 28753m | 5.3m/s | -45.7°C | 0% | 15.1hPa | 2.6V | 03:35:54 | 02:23:22 | 00:00:00 | |
| DF8AY | 2026-09-02 12:14:07 | 52.69769 | 10.71962 | 93° | 11km/h | 28747m | 6.5m/s | -45.7°C | 0% | 15.1hPa | 2.6V | 03:35:54 | 02:23:21 | 00:00:00 | |
| DL1XH-west | 2026-09-02 12:14:07 | 52.69769 | 10.71956 | 92° | 18km/h | 28740m | 6.7m/s | -45.7°C | 0% | 15.1hPa | 2.7V | 03:35:54 | 02:23:20 | 00:00:00 | |
| DL4BBY-15 | 2026-09-02 12:14:07 | 52.69769 | 10.71962 | 94° | 26km/h | 28747m | 6.4m/s | -45.5°C | 0% | 0hPa | 2.7V | 00:00:00 | 00:00:00 | 00:00:00 | |
| DO2SHX-10 | 2026-09-02 12:14:06 | 52.69769 | 10.71956 | 92° | 24km/h | 28741m | 6.7m/s | -45.7°C | 2.4% | 15.1hPa | 2.7V | 00:00:00 | 02:23:20 | 00:00:00 | |
| DM0DOS-11 | 2026-09-02 12:14:05 | 52.69770 | 10.71936 | 99° | 29km/h | 28728m | 5.4m/s | -45.7°C | 2.3% | 15.1hPa | 2.7V | 03:35:24 | 02:23:18 | 00:00:00 | |
| S3001 | 2026-09-02 12:14:04 | 52.69772 | 10.71924 | 104° | 27km/h | 28722m | 6.1m/s | -45.7°C | 0.3% | 15.1hPa | 2.6V | 00:00:00 | 00:00:00 | 00:00:00 | |
| DL1XH-15 | 2026-09-02 12:14:03 | 52.69781 | 10.71875 | 98° | 24km/h | 28691m | 7.6m/s | -45.8°C | 2.3% | 15.2hPa | 2.6V | 03:35:30 | 02:23:12 | 00:00:00 | |
| BUE01 | 2026-09-02 12:14:03 | 52.69774 | 10.71913 | 109° | 26km/h | 28716m | 6.7m/s | -45.8°C | 0.2% | 15.1hPa | 2.7V | 00:00:00 | 00:00:00 | 00:00:00 | |
| DL1XH1-15 | 2026-09-02 12:14:02 | 52.69780 | 10.71885 | 105° | 24km/h | 28698m | 6.6m/s | -45.8°C | 2.3% | 15.2hPa | 2.7V | 03:35:29 | 02:23:13 | 00:00:00 | |
| HSKMA3-T | 2026-09-02 12:14:01 | 52.69776 | 10.71903 | 115° | 24km/h | 28709m | 5.9m/s | -45.8°C | 0% | 15.2hPa | 2.7V | 03:35:54 | 02:23:15 | 00:00:00 | |
| DF7PN | 2026-09-02 12:14:00 | 52.69780 | 10.71885 | 105° | 22km/h | 28698m | 6.6m/s | -45.8°C | 0.2% | 15.2hPa | 2.7V | 00:00:00 | 00:00:00 | 00:00:00 | |
| DL1NUX | 2026-09-02 12:13:59 | 52.69784 | 10.71838 | 109° | 16km/h | 28665m | 7.1m/s | -45.8°C | 2.3% | 15.3hPa | 2.7V | 03:35:34 | 02:23:08 | 00:00:00 | |
| DO2JMG | 2026-09-02 12:13:58 | 52.69782 | 10.71865 | 93° | 26km/h | 28684m | 5.9m/s | -45.8°C | 0% | 15.2hPa | 2.6V | 03:35:54 | 02:23:11 | 00:00:00 | |
| DF8AY | 2026-09-02 12:13:56 | 52.69783 | 10.71855 | 94° | 24km/h | 28678m | 5.5m/s | -45.8°C | 0% | 15.2hPa | 2.7V | 03:35:54 | 02:23:10 | 00:00:00 | |
| DB0DAN | 2026-09-02 12:13:55 | 52.69783 | 10.71846 | 98° | 20km/h | 28672m | 6.9m/s | -45.8°C | 0.2% | 15.24hPa | 2.7V | 00:00:00 | 00:00:00 | 00:00:00 | |
| AA1-15 | 2026-09-02 12:13:51 | 52.69789 | 10.71817 | 107° | 22km/h | 28647m | 7.1m/s | -45.9°C | 0% | 15.3hPa | 2.7V | 03:35:54 | 02:23:05 | 00:00:00 | |
| SO1NDE-10 | 2026-09-02 12:13:51 | 52.69789 | 10.71817 | 107° | 27km/h | 28647m | 7.0m/s | -45.9°C | 2.4% | 15.2hPa | 2.7V | 03:35:00 | 02:23:05 | 00:00:00 | |
| DL1XH1-15 | 2026-09-02 12:13:50 | 52.69792 | 10.71794 | 97° | 35km/h | 28633m | 6.7m/s | -46°C | 2.3% | 15.3hPa | 2.7V | 03:35:39 | 02:23:03 | 00:00:00 | |
| DO2JMG | 2026-09-02 12:13:48 | 52.69795 | 10.71765 | 100° | 35km/h | 28620m | 6.7m/s | -46°C | 0% | 15.3hPa | 2.6V | 03:35:54 | 02:23:01 | 00:00:00 | |
| DM0DOS-11 | 2026-09-02 12:13:47 | 52.69800 | 10.71728 | 102° | 26km/h | 28602m | 3.7m/s | -46°C | 2.4% | 15.4hPa | 2.7V | 03:35:44 | 02:22:58 | 00:00:00 | |
| GOEST3-10 | 2026-09-02 12:13:46 | 52.69797 | 10.71751 | 104° | 27km/h | 28613m | 6.9m/s | -45.9°C | 2.4% | 15.3hPa | 2.7V | 00:00:00 | 02:23:00 | 00:00:00 | |
| DF8AY | 2026-09-02 12:13:46 | 52.69798 | 10.71739 | 105° | 29km/h | 28607m | 5.7m/s | -46°C | 0% | 15.4hPa | 2.7V | 03:35:54 | 02:22:59 | 00:00:00 | |
| DO2SHX-10 | 2026-09-02 12:13:45 | 52.69798 | 10.71739 | 105° | 27km/h | 28607m | 5.7m/s | -45.9°C | 2.4% | 15.4hPa | 2.7V | 00:00:00 | 02:22:59 | 00:00:00 | |
| DL1XH1-15 | 2026-09-02 12:13:44 | 52.69796 | 10.71675 | 72° | 26km/h | 28571m | 5.9m/s | -46.1°C | 2.4% | 15.5hPa | 2.7V | 03:35:49 | 02:22:53 | 00:00:00 | |
| BIOWL1-15 | 2026-09-02 12:13:42 | 52.69781 | 10.71605 | 70° | 31km/h | 28527m | 5.6m/s | -46.3°C | 0% | 15.6hPa | 2.6V | 03:41:51 | 02:22:46 | 00:00:00 | |
| DL1XH-15 | 2026-09-02 12:13:42 | 52.69793 | 10.71656 | 76° | 20km/h | 28558m | 5.9m/s | -46.1°C | 2.4% | 15.5hPa | 2.6V | 03:35:51 | 02:22:51 | 00:00:00 | |
| HSKMA3-T | 2026-09-02 12:13:41 | 52.69800 | 10.71696 | 77° | 27km/h | 28584m | 7.2m/s | -46.1°C | 0% | 15.4hPa | 2.7V | 03:35:54 | 02:22:55 | 00:00:00 | |
| AA1-15 | 2026-09-02 12:13:41 | 52.69796 | 10.71675 | 73° | 26km/h | 28572m | 5.9m/s | -46.1°C | 0% | 15.5hPa | 2.7V | 03:35:54 | 02:22:53 | 00:00:00 | |
| EDDB2-12 | 2026-09-02 12:13:40 | 52.69796 | 10.71675 | 72° | 26km/h | 28572m | 5.9m/s | -46.1°C | 0.3% | 15.5hPa | 2.7V | 00:00:00 | 00:00:00 | 00:00:00 | |
| DO3MHA-11 | 2026-09-02 12:13:39 | 52.69796 | 10.71675 | 73° | 26km/h | 28572m | 5.8m/s | -46.1°C | 2.4% | 15.4hPa | 2.7V | 00:00:00 | 02:22:53 | 00:00:00 | |
| DO2SHX-10 | 2026-09-02 12:13:38 | 52.69794 | 10.71665 | 73° | 26km/h | 28565m | 7.4m/s | -46.1°C | 2.4% | 15.4hPa | 2.7V | 00:00:00 | 02:22:52 | 00:00:00 | |
| DM0DOS-11 | 2026-09-02 12:13:37 | 52.69787 | 10.71628 | 69° | 27km/h | 28539m | 7.6m/s | -46.2°C | 2.4% | 15.5hPa | 2.7V | 03:35:54 | 02:22:48 | 00:00:00 | |
| DL1XH-west | 2026-09-02 12:13:36 | 52.69791 | 10.71648 | 73° | 22km/h | 28552m | 5.4m/s | -46.2°C | 0% | 15.5hPa | 2.7V | 03:35:54 | 02:22:50 | 00:00:00 | |
| DF8AY | 2026-09-02 12:13:35 | 52.69778 | 10.71574 | 91° | 20km/h | 28506m | 6.4m/s | -46.3°C | 0% | 15.6hPa | 2.7V | 03:36:45 | 02:22:43 | 00:00:00 | |
| DB0UT-7 | 2026-09-02 12:13:34 | 52.69787 | 10.71628 | 70° | 27km/h | 28539m | 7.6m/s | -46.1°C | 2.4% | 15.5hPa | 2.6V | 00:00:00 | 02:22:48 | 00:00:00 | |
| S3001 | 2026-09-02 12:13:33 | 52.69781 | 10.71605 | 70° | 29km/h | 28527m | 5.6m/s | -46.3°C | 0.2% | 15.6hPa | 2.6V | 00:00:00 | 00:00:00 | 00:00:00 | |
| DL1XH-15 | 2026-09-02 12:13:32 | 52.69778 | 10.71557 | 82° | 22km/h | 28495m | 6m/s | -46.3°C | 2.5% | 15.7hPa | 2.6V | 03:36:01 | 02:22:41 | 00:00:00 | |
| GOEST3-10 | 2026-09-02 12:13:31 | 52.69779 | 10.71593 | 76° | 22km/h | 28521m | 6.7m/s | -46.2°C | 2.4% | 15.6hPa | 2.7V | 00:00:00 | 00:00:00 | 00:00:00 | |
| DL1XH1-15 | 2026-09-02 12:13:30 | 52.69778 | 10.71574 | 90° | 20km/h | 28506m | 6.4m/s | -46.3°C | 2.4% | 15.6hPa | 2.7V | 03:35:59 | 02:22:43 | 00:00:00 | |
| AA1-15 | 2026-09-02 12:13:30 | 52.69778 | 10.71583 | 84° | 24km/h | 28513m | 7.5m/s | -46.3°C | 0% | 15.6hPa | 2.7V | 03:36:45 | 02:22:44 | 00:00:00 | |
| BIOWL1-15 | 2026-09-02 12:13:27 | 52.69761 | 10.71509 | 53° | 26km/h | 28463m | 7.1m/s | -46.2°C | 0% | 15.8hPa | 2.6V | 03:41:51 | 02:22:36 | 00:00:00 | |
| DO2JMG | 2026-09-02 12:13:26 | 52.69776 | 10.71548 | 71° | 24km/h | 28488m | 7.3m/s | -46.2°C | 0% | 15.7hPa | 2.7V | 03:37:36 | 02:22:40 | 00:00:00 | |
| DL3AQ-11 | 2026-09-02 12:13:26 | 52.69769 | 10.71528 | 55° | 29km/h | 28476m | 5.1m/s | -46.2°C | 0.3% | 15.7hPa | 2.7V | 00:00:00 | 00:00:00 | 00:00:00 | |
| DL1XH1-15 | 2026-09-02 12:13:24 | 52.69751 | 10.71484 | 56° | 26km/h | 28445m | 6.4m/s | -46.1°C | 2.4% | 15.8hPa | 2.7V | 03:36:09 | 02:22:33 | 00:00:00 | |
| DO2SHX-10 | 2026-09-02 12:13:24 | 52.69769 | 10.71527 | 56° | 29km/h | 28477m | 5.0m/s | -46.2°C | 2.5% | 15.7hPa | 2.6V | 00:00:00 | 02:22:38 | 00:00:00 | |
| DD8BA-10 | 2026-09-02 12:13:23 | 52.69765 | 10.71518 | 54° | 26km/h | 28470m | 6.6m/s | -46.1°C | 2.6% | 15.7hPa | 2.6V | 00:00:00 | 00:00:00 | 00:00:00 | |
| DL1XH-15 | 2026-09-02 12:13:22 | 52.69743 | 10.71465 | 57° | 31km/h | 28431m | 6.2m/s | -46.1°C | 2.4% | 15.8hPa | 2.6V | 03:36:11 | 02:22:31 | 00:00:00 | |
| AA1-15 | 2026-09-02 12:13:20 | 52.69754 | 10.71493 | 57° | 24km/h | 28451m | 5.4m/s | -46.1°C | 0% | 15.8hPa | 2.7V | 03:36:45 | 02:22:34 | 00:00:00 | |
| HSKMA3-T | 2026-09-02 12:13:19 | 52.69751 | 10.71484 | 56° | 26km/h | 28445m | 6.4m/s | -46.1°C | 0% | 15.8hPa | 2.7V | 03:36:45 | 02:22:33 | 00:00:00 | |
| DL1NUX | 2026-09-02 12:13:19 | 52.69733 | 10.71435 | 66° | 22km/h | 28411m | 7m/s | -46°C | 2.4% | 15.9hPa | 2.7V | 03:36:14 | 02:22:28 | 00:00:00 | |
| DF8AY | 2026-09-02 12:13:15 | 52.69720 | 10.71402 | 47° | 33km/h | 28386m | 7.1m/s | -45.7°C | 0% | 15.9hPa | 2.7V | 03:36:45 | 02:22:24 | 00:00:00 | |
| DL1XH-west | 2026-09-02 12:13:15 | 52.69734 | 10.71435 | 67° | 22km/h | 28411m | 7m/s | -46°C | 0% | 15.9hPa | 2.7V | 03:36:45 | 02:22:28 | 00:00:00 | |
| DD8BA-10 | 2026-09-02 12:13:13 | 52.69731 | 10.71427 | 63° | 29km/h | 28405m | 4.9m/s | -45.8°C | 2.4% | 15.8hPa | 2.6V | 03:36:00 | 00:00:00 | 00:00:00 | |
| DO2SHX-10 | 2026-09-02 12:13:12 | 52.69728 | 10.71419 | 57° | 27km/h | 28400m | 5.3m/s | -45.8°C | 2.4% | 15.9hPa | 2.7V | 00:00:00 | 02:22:26 | 00:00:00 | |
| DB0DAN | 2026-09-02 12:13:10 | 52.69720 | 10.71402 | 47° | 31km/h | 28386m | 7.1m/s | -45.7°C | 0.2% | 15.94hPa | 2.7V | 00:00:00 | 00:00:00 | 00:00:00 | |
| DL1XH1-15 | 2026-09-02 12:13:10 | 52.69714 | 10.71392 | 46° | 33km/h | 28380m | 5.3m/s | -45.7°C | 2.4% | 15.9hPa | 2.7V | 03:36:19 | 02:22:23 | 00:00:00 | |
| AA1-15 | 2026-09-02 12:13:10 | 52.69714 | 10.71392 | 46° | 33km/h | 28380m | 5.3m/s | -45.7°C | 0% | 15.9hPa | 2.7V | 03:36:45 | 02:22:23 | 00:00:00 | |
| HSKMA3-T | 2026-09-02 12:13:09 | 52.69708 | 10.71382 | 48° | 33km/h | 28374m | 6.4m/s | -45.7°C | 0% | 15.9hPa | 2.6V | 03:36:45 | 02:22:22 | 00:00:00 | |
| DO2JMG | 2026-09-02 12:13:07 | 52.69703 | 10.71372 | 50° | 31km/h | 28367m | 7.8m/s | -45.6°C | 0% | 16hPa | 2.6V | 03:37:36 | 02:22:21 | 00:00:00 | |
| DL1XH-west | 2026-09-02 12:13:05 | 52.69679 | 10.71320 | 48° | 37km/h | 28333m | 5.5m/s | -45.5°C | 0% | 16.1hPa | 2.6V | 03:36:45 | 02:22:16 | 00:00:00 | |
| DF8AY | 2026-09-02 12:13:00 | 52.69616 | 10.71233 | 46° | 40km/h | 28268m | 6.8m/s | -45.5°C | 0% | 16.2hPa | 2.6V | 03:36:45 | 02:22:06 | 00:00:00 | |
| AA1-15 | 2026-09-02 12:13:00 | 52.69662 | 10.71291 | 44° | 26km/h | 28314m | 7m/s | -45.5°C | 0% | 16.1hPa | 2.7V | 03:36:45 | 02:22:13 | 00:00:00 | |
| HSKMA3-T | 2026-09-02 12:12:58 | 52.69646 | 10.71271 | 33° | 29km/h | 28295m | 6.8m/s | -45.5°C | 0% | 16.1hPa | 2.7V | 03:36:45 | 02:22:10 | 00:00:00 | |
| DL1XH-15 | 2026-09-02 12:12:58 | 52.69652 | 10.71278 | 35° | 26km/h | 28302m | 5.7m/s | -45.6°C | 2.4% | 16.1hPa | 2.6V | 03:36:31 | 02:22:11 | 00:00:00 | |
| DF7PN | 2026-09-02 12:12:58 | 52.69652 | 10.71278 | 35° | 26km/h | 28302m | 5.7m/s | -45.6°C | 0.2% | 16.1hPa | 2.7V | 00:00:00 | 00:00:00 | 00:00:00 | |
| SMARD9-15 | 2026-09-02 12:12:57 | 52.69646 | 10.71271 | 32° | 29km/h | 28295m | 6.8m/s | -45.5°C | 0.2% | 16.1hPa | 2.7V | 00:00:00 | 00:00:00 | 00:00:00 | |
| DB0DAN | 2026-09-02 12:12:55 | 52.69639 | 10.71264 | 32° | 33km/h | 28288m | 7.8m/s | -45.5°C | 0.2% | 16.18hPa | 2.7V | 00:00:00 | 00:00:00 | 00:00:00 | |
| MECKS9 | 2026-09-02 12:12:54 | 52.69640 | 10.71264 | 33° | 35km/h | 28288m | 7.8m/s | -45.5°C | 0.2% | 16.2hPa | 2.6V | 00:00:00 | 00:00:00 | 00:00:00 | |
| DO2SHX-10 | 2026-09-02 12:12:53 | 52.69624 | 10.71245 | 41° | 42km/h | 28275m | 6.1m/s | -45.5°C | 2.4% | 16.2hPa | 2.6V | 00:00:00 | 02:22:07 | 00:00:00 | |
| DL1XH-15 | 2026-09-02 12:12:52 | 52.69587 | 10.71178 | 39° | 37km/h | 28237m | 7.2m/s | -45.2°C | 2.2% | 16.3hPa | 2.6V | 03:36:41 | 02:22:01 | 00:00:00 | |
| DL1XH-west | 2026-09-02 12:12:51 | 52.69610 | 10.71222 | 51° | 37km/h | 28261m | 6.8m/s | -45.3°C | 0% | 16.2hPa | 2.7V | 03:36:45 | 02:22:05 | 00:00:00 | |
| SO1NDE-10 | 2026-09-02 12:12:51 | 52.69610 | 10.71221 | 51° | 29km/h | 28261m | 6.8m/s | -45.3°C | 2.3% | 16.2hPa | 2.7V | 00:00:00 | 02:22:05 | 00:00:00 | |
| DL1XH1-15 | 2026-09-02 12:12:50 | 52.69600 | 10.71199 | 52° | 33km/h | 28249m | 5.2m/s | -45.4°C | 2.3% | 16.3hPa | 2.7V | 03:36:39 | 02:22:03 | 00:00:00 | |
| DF8AY | 2026-09-02 12:12:49 | 52.69559 | 10.71147 | 36° | 27km/h | 28212m | 7.9m/s | -45.2°C | 0% | 16.4hPa | 2.6V | 03:36:45 | 02:21:57 | 00:00:00 | |
| AA1-15 | 2026-09-02 12:12:49 | 52.69594 | 10.71188 | 47° | 35km/h | 28243m | 6.3m/s | -45.4°C | 0% | 16.2hPa | 2.6V | 03:36:45 | 02:22:02 | 00:00:00 | |
| HSKMA3-T | 2026-09-02 12:12:47 | 52.69587 | 10.71178 | 39° | 37km/h | 28237m | 7.2m/s | -45.2°C | 0% | 16.3hPa | 2.6V | 03:36:45 | 02:22:01 | 00:00:00 | |
| DO2JMG | 2026-09-02 12:12:45 | 52.69572 | 10.71161 | 31° | 35km/h | 28224m | 5m/s | -45.1°C | 0% | 16.4hPa | 2.7V | 03:37:36 | 02:21:59 | 00:00:00 | |
| DL1XH1-15 | 2026-09-02 12:12:45 | 52.69535 | 10.71112 | 41° | 29km/h | 28179m | 5.7m/s | -45.4°C | 2.3% | 16.4hPa | 2.6V | 03:36:50 | 02:21:52 | 00:00:00 | |
| DL1XH-west | 2026-09-02 12:12:40 | 52.69535 | 10.71112 | 42° | 29km/h | 28179m | 5.7m/s | -45.4°C | 0% | 16.4hPa | 2.6V | 03:37:36 | 02:21:52 | 00:00:00 | |
| DF8AY | 2026-09-02 12:12:40 | 52.69541 | 10.71120 | 41° | 27km/h | 28185m | 7.4m/s | -45.3°C | 0% | 16.4hPa | 2.7V | 03:37:36 | 02:21:53 | 00:00:00 | |
| DM0DOS-11 | 2026-09-02 12:12:39 | 52.69511 | 10.71066 | 47° | 29km/h | 28149m | 4.7m/s | -45.6°C | 2.4% | 16.5hPa | 2.5V | 03:36:55 | 02:21:47 | 00:00:00 | |
| DL1XH-15 | 2026-09-02 12:12:39 | 52.69530 | 10.71103 | 44° | 31km/h | 28174m | 5.3m/s | -45.3°C | 2.4% | 16.5hPa | 2.6V | 03:36:51 | 02:21:51 | 00:00:00 | |
| HSKMA3-T | 2026-09-02 12:12:37 | 52.69530 | 10.71103 | 44° | 31km/h | 28174m | 5.3m/s | -45.3°C | 0% | 16.5hPa | 2.6V | 03:37:36 | 02:21:51 | 00:00:00 | |
| DO2JMG | 2026-09-02 12:12:34 | 52.69515 | 10.71075 | 52° | 27km/h | 28154m | 5.5m/s | -45.5°C | 0% | 16.5hPa | 2.7V | 03:37:36 | 02:21:48 | 00:00:00 | |
| DO2SHX-10 | 2026-09-02 12:12:34 | 52.69515 | 10.71075 | 53° | 29km/h | 28155m | 5.4m/s | -45.5°C | 2.3% | 16.5hPa | 2.7V | 00:00:00 | 02:21:48 | 00:00:00 | |
| DD8BA-10 | 2026-09-02 12:12:33 | 52.69510 | 10.71066 | 48° | 31km/h | 28150m | 4.6m/s | -45.5°C | 2.4% | 16.5hPa | 2.7V | 03:36:00 | 00:00:00 | 00:00:00 | |
| DO9LL-15 | 2026-09-02 12:12:32 | 52.69505 | 10.71058 | 39° | 20km/h | 28144m | 6.1m/s | -45.6°C | 2.4% | 16.5hPa | 2.7V | 00:00:00 | 02:21:46 | 00:00:00 | |
| DO2SHX-10 | 2026-09-02 12:12:31 | 52.69498 | 10.71050 | 30° | 37km/h | 28138m | 7.4m/s | -45.6°C | 2.4% | 16.5hPa | 2.7V | 00:00:00 | 02:21:45 | 00:00:00 | |
| DL1XH1-15 | 2026-09-02 12:12:30 | 52.69480 | 10.71037 | 19° | 40km/h | 28125m | 5.3m/s | -45.7°C | 2.3% | 16.6hPa | 2.7V | 03:36:59 | 02:21:43 | 00:00:00 | |
| BUE01 | 2026-09-02 12:12:30 | 52.69480 | 10.71037 | 19° | 40km/h | 28125m | 5.3m/s | -45.7°C | 0.2% | 16.6hPa | 2.7V | 00:00:00 | 00:00:00 | 00:00:00 | |
| DL1NUX | 2026-09-02 12:12:29 | 52.69447 | 10.71012 | 29° | 18km/h | 28094m | 5.8m/s | -45.9°C | 2.4% | 16.6hPa | 2.7V | 03:37:04 | 02:21:38 | 00:00:00 | |
| DL1XH-west | 2026-09-02 12:12:28 | 52.69471 | 10.71032 | 21° | 38km/h | 28119m | 6m/s | -45.8°C | 0% | 16.6hPa | 2.5V | 03:37:36 | 02:21:42 | 00:00:00 | |
| AA1-15 | 2026-09-02 12:12:27 | 52.69463 | 10.71026 | 24° | 33km/h | 28112m | 7.3m/s | -45.8°C | 0% | 16.6hPa | 2.6V | 03:37:36 | 02:21:41 | 00:00:00 | |
| HSKMA3-T | 2026-09-02 12:12:26 | 52.69456 | 10.71021 | 28° | 27km/h | 28106m | 6.6m/s | -45.8°C | 0% | 16.6hPa | 2.7V | 03:37:36 | 02:21:40 | 00:00:00 | |
| DO2JMG | 2026-09-02 12:12:19 | 52.69425 | 10.70995 | 41° | 20km/h | 28061m | 7.5m/s | -45.8°C | 0% | 16.7hPa | 2.7V | 03:37:36 | 02:21:33 | 00:00:00 | |
| DL1NUX | 2026-09-02 12:12:19 | 52.69409 | 10.70964 | 33° | 22km/h | 28028m | 6.5m/s | -45.8°C | 2.3% | 16.8hPa | 2.7V | 03:37:14 | 02:21:28 | 00:00:00 | |
| DL1XH-west | 2026-09-02 12:12:19 | 52.69422 | 10.70989 | 50° | 20km/h | 28054m | 7.3m/s | -45.7°C | 0% | 16.8hPa | 2.5V | 03:37:36 | 02:21:32 | 00:00:00 | |
| DL1XH-15 | 2026-09-02 12:12:18 | 52.69419 | 10.70982 | 56° | 20km/h | 28047m | 6.3m/s | -45.8°C | 2.4% | 16.8hPa | 2.6V | 03:37:11 | 02:21:31 | 00:00:00 | |
| DF8AY | 2026-09-02 12:12:17 | 52.69393 | 10.70955 | 12° | 22km/h | 28010m | 5.8m/s | -45.9°C | 0% | 16.9hPa | 2.7V | 03:37:36 | 02:21:25 | 00:00:00 | |
| AA1-15 | 2026-09-02 12:12:17 | 52.69416 | 10.70976 | 57° | 20km/h | 28041m | 5.6m/s | -45.8°C | 0% | 16.8hPa | 2.7V | 03:37:36 | 02:21:30 | 00:00:00 | |
| DL3AQ-11 | 2026-09-02 12:12:17 | 52.69416 | 10.70976 | 56° | 18km/h | 28041m | 5.6m/s | -45.8°C | 0.2% | 16.8hPa | 2.6V | 00:00:00 | 00:00:00 | 00:00:00 | |
| DM0DOS-11 | 2026-09-02 12:12:16 | 52.69404 | 10.70959 | 20° | 24km/h | 28022m | 6.4m/s | -45.8°C | 2.3% | 16.8hPa | 2.6V | 03:37:15 | 02:21:27 | 00:00:00 | |
| HSKMA3-T | 2026-09-02 12:12:14 | 52.69409 | 10.70964 | 34° | 22km/h | 28028m | 6.5m/s | -45.8°C | 0% | 16.8hPa | 2.7V | 03:37:36 | 02:21:28 | 00:00:00 | |
| BIOWL1-15 | 2026-09-02 12:12:14 | 52.69389 | 10.70953 | 13° | 16km/h | 28004m | 6.9m/s | -45.9°C | 0% | 16.9hPa | 2.7V | 03:41:51 | 02:21:24 | 00:00:00 | |
| NBG1-10 | 2026-09-02 12:12:14 | 52.69409 | 10.70964 | 34° | 13km/h | 28029m | 6.4m/s | -45.8°C | 2.3% | 16.8hPa | 2.6V | 03:37:00 | 02:21:28 | 00:00:00 | |
| DD8BA-10 | 2026-09-02 12:12:13 | 52.69404 | 10.70960 | 21° | 13km/h | 28022m | 6.4m/s | -45.8°C | 2.3% | 16.8hPa | 2.6V | 00:00:00 | 00:00:00 | 00:00:00 | |
| DL1XH-15 | 2026-09-02 12:12:12 | 52.69382 | 10.70953 | 304° | 7km/h | 27985m | 6m/s | -45.7°C | 2.4% | 16.9hPa | 2.6V | 03:37:21 | 02:21:21 | 00:00:00 | |
| DL1XH1-15 | 2026-09-02 12:12:11 | 52.69385 | 10.70952 | 12° | 11km/h | 27997m | 7m/s | -45.9°C | 2.3% | 16.9hPa | 2.7V | 03:37:19 | 02:21:23 | 00:00:00 | |
| DL1NUX | 2026-09-02 12:12:09 | 52.69379 | 10.70962 | 286° | 5km/h | 27965m | 5.2m/s | -45.9°C | 2.3% | 17hPa | 2.7V | 03:37:24 | 02:21:18 | 00:00:00 | |
| DO2JMG | 2026-09-02 12:12:09 | 52.69385 | 10.70952 | 13° | 11km/h | 27997m | 7m/s | -45.9°C | 0% | 16.9hPa | 2.7V | 03:37:36 | 02:21:23 | 00:00:00 | |
| DL1XH-west | 2026-09-02 12:12:08 | 52.69382 | 10.70953 | 305° | 7km/h | 27985m | 6m/s | -45.7°C | 0% | 16.9hPa | 2.6V | 03:37:36 | 02:21:21 | 00:00:00 | |
| EDDB2-12 | 2026-09-02 12:12:07 | 52.69381 | 10.70956 | 297° | 7km/h | 27978m | 8.2m/s | -45.8°C | 0.2% | 17.0hPa | 2.6V | 00:00:00 | 00:00:00 | 00:00:00 | |
| DO3MHA-11 | 2026-09-02 12:12:06 | 52.69381 | 10.70956 | 298° | 7km/h | 27979m | 8.2m/s | -45.7°C | 2.4% | 16.9hPa | 2.6V | 00:00:00 | 02:21:20 | 00:00:00 | |
| DF8AY | 2026-09-02 12:12:06 | 52.69381 | 10.70956 | 297° | 9km/h | 27978m | 8.2m/s | -45.8°C | 0% | 17hPa | 2.7V | 03:37:36 | 02:21:20 | 00:00:00 | |
| DM0DOS-11 | 2026-09-02 12:12:05 | 52.69379 | 10.70963 | 238° | 2km/h | 27959m | 7m/s | -46°C | 2.4% | 17hPa | 2.6V | 03:37:25 | 02:21:17 | 00:00:00 | |
| HSKMA3-T | 2026-09-02 12:12:04 | 52.69380 | 10.70963 | 239° | 2km/h | 27959m | 7m/s | -46°C | 0% | 17hPa | 2.6V | 03:37:36 | 02:21:17 | 00:00:00 | |
| DL1XH1-15 | 2026-09-02 12:12:04 | 52.69379 | 10.70953 | 54° | 11km/h | 27932m | 7.6m/s | -45.8°C | 2.3% | 17.1hPa | 2.7V | 03:37:29 | 02:21:13 | 00:00:00 | |
| DO2SHX-10 | 2026-09-02 12:12:04 | 52.69380 | 10.70962 | 287° | 4km/h | 27966m | 5.1m/s | -45.8°C | 2.3% | 16.9hPa | 2.6V | 03:37:00 | 02:21:18 | 00:00:00 | |
| DD8BA-10 | 2026-09-02 12:12:03 | 52.69380 | 10.70963 | 239° | 7km/h | 27960m | 7.0m/s | -45.9°C | 2.4% | 17.0hPa | 2.6V | 00:00:00 | 00:00:00 | 00:00:00 | |
| DO9LL-15 | 2026-09-02 12:12:02 | 52.69380 | 10.70963 | 120° | 11km/h | 27952m | 7.6m/s | -45.9°C | 2.3% | 17.0hPa | 2.6V | 00:00:00 | 02:21:16 | 00:00:00 | |
| DO2SHX-10 | 2026-09-02 12:12:01 | 52.69380 | 10.70960 | 96° | 9km/h | 27945m | 5.8m/s | -45.8°C | 2.3% | 17.0hPa | 2.7V | 00:00:00 | 02:21:15 | 00:00:00 | |
| DL1NUX | 2026-09-02 12:11:59 | 52.69374 | 10.70951 | 211° | 9km/h | 27901m | 6.1m/s | -45.9°C | 2.4% | 17.1hPa | 2.7V | 03:37:34 | 02:21:08 | 00:00:00 | |
| BUE01 | 2026-09-02 12:11:59 | 52.69377 | 10.70950 | 27° | 9km/h | 27926m | 5.9m/s | -45.9°C | 0.3% | 17.1hPa | 2.6V | 00:00:00 | 00:00:00 | 00:00:00 | |
| DL1XH-15 | 2026-09-02 12:11:58 | 52.69375 | 10.70949 | 7° | 7km/h | 27920m | 5.6m/s | -46°C | 2.4% | 17.1hPa | 2.6V | 03:37:31 | 02:21:11 | 00:00:00 | |
| DO2JMG | 2026-09-02 12:11:56 | 52.69374 | 10.70949 | 338° | 4km/h | 27914m | 6.1m/s | -46°C | 0% | 17.1hPa | 2.7V | 03:37:36 | 02:21:10 | 00:00:00 | |
| DF7PN | 2026-09-02 12:11:56 | 52.69373 | 10.70950 | 244° | 2km/h | 27908m | 7.4m/s | -45.9°C | 0.2% | 17.1hPa | 2.7V | 00:00:00 | 00:00:00 | 00:00:00 | |
| DB0DAN | 2026-09-02 12:11:55 | 52.69373 | 10.70950 | 244° | 4km/h | 27907m | 7.4m/s | -45.9°C | 0.2% | 17.15hPa | 2.7V | 00:00:00 | 00:00:00 | 00:00:00 | |
| AA1-15 | 2026-09-02 12:11:55 | 52.69375 | 10.70951 | 212° | 9km/h | 27901m | 6.1m/s | -45.9°C | 0% | 17.1hPa | 2.7V | 03:37:36 | 02:21:08 | 00:00:00 | |
| DM0DOS-11 | 2026-09-02 12:11:54 | 52.69377 | 10.70954 | 211° | 13km/h | 27895m | 5.6m/s | -46°C | 2.4% | 17.1hPa | 2.6V | 03:37:35 | 02:21:07 | 00:00:00 | |
| HSKMA3-T | 2026-09-02 12:11:53 | 52.69380 | 10.70957 | 213° | 15km/h | 27889m | 6.5m/s | -46.1°C | 0% | 17.2hPa | 2.6V | 03:37:36 | 02:21:06 | 00:00:00 | |
| BIOWL1-15 | 2026-09-02 12:11:51 | 52.69384 | 10.70963 | 234° | 11km/h | 27876m | 6m/s | -45.9°C | 0% | 17.2hPa | 2.7V | 03:41:51 | 02:21:04 | 00:00:00 | |
| DO2SHX-10 | 2026-09-02 12:11:50 | 52.69384 | 10.70963 | 234° | 7km/h | 27876m | 5.9m/s | -45.9°C | 2.4% | 17.2hPa | 2.6V | 03:37:00 | 02:21:04 | 00:00:00 | |
| DL3OBA | 2026-09-02 12:11:49 | 52.69386 | 10.70967 | 236° | 7km/h | 27870m | 5.6m/s | -46.0°C | 0.2% | 17.2hPa | 2.6V | 03:38:00 | 00:00:00 | 00:00:00 | |
| DL1NUX | 2026-09-02 12:11:49 | 52.69398 | 10.70962 | 157° | 15km/h | 27838m | 5.2m/s | -46.4°C | 2.4% | 17.3hPa | 2.7V | 03:37:44 | 02:20:58 | 00:00:00 | |
| DM0DOS-11 | 2026-09-02 12:11:48 | 52.69401 | 10.70960 | 164° | 11km/h | 27832m | 6.9m/s | -46.5°C | 2.5% | 17.4hPa | 2.6V | 03:37:45 | 02:20:57 | 00:00:00 | |
| DF8AY | 2026-09-02 12:11:45 | 52.69394 | 10.70965 | 154° | 16km/h | 27844m | 6m/s | -46.4°C | 0% | 17.3hPa | 2.7V | 03:38:27 | 02:20:59 | 00:00:00 | |
| DO2JMG | 2026-09-02 12:11:44 | 52.69398 | 10.70962 | 158° | 15km/h | 27838m | 5.2m/s | -46.4°C | 0% | 17.3hPa | 2.7V | 03:38:27 | 02:20:58 | 00:00:00 | |
| DL1XH1-15 | 2026-09-02 12:11:44 | 52.69413 | 10.70968 | 204° | 18km/h | 27808m | 8.1m/s | -46.3°C | 2.4% | 17.4hPa | 2.7V | 03:37:49 | 02:20:53 | 00:00:00 | |
| HSKMA3-T | 2026-09-02 12:11:42 | 52.69403 | 10.70960 | 193° | 9km/h | 27825m | 6.7m/s | -46.5°C | 0% | 17.4hPa | 2.6V | 03:38:27 | 02:20:56 | 00:00:00 | |
| DB0DAN | 2026-09-02 12:11:40 | 52.69409 | 10.70965 | 210° | 15km/h | 27815m | 5.1m/s | -46.3°C | 0.3% | 17.39hPa | 2.7V | 00:00:00 | 00:00:00 | 00:00:00 | |
| DL1NUX | 2026-09-02 12:11:40 | 52.69440 | 10.70982 | 193° | 20km/h | 27775m | 5.2m/s | -46.4°C | 2.4% | 17.5hPa | 2.7V | 03:37:54 | 02:20:48 | 00:00:00 | |
| DM0DOS-11 | 2026-09-02 12:11:38 | 52.69450 | 10.70983 | 174° | 20km/h | 27763m | 7.6m/s | -46.3°C | 2.4% | 17.5hPa | 2.6V | 03:37:56 | 02:20:46 | 00:00:00 | |
| DL1XH-west | 2026-09-02 12:11:36 | 52.69435 | 10.70979 | 199° | 22km/h | 27781m | 7.5m/s | -46.4°C | 0% | 17.5hPa | 2.7V | 03:38:27 | 02:20:49 | 00:00:00 | |
| AA1-15 | 2026-09-02 12:11:35 | 52.69444 | 10.70983 | 184° | 18km/h | 27770m | 5.3m/s | -46.3°C | 0% | 17.5hPa | 2.6V | 03:38:27 | 02:20:47 | 00:00:00 | |
| DF8AY | 2026-09-02 12:11:34 | 52.69440 | 10.70982 | 194° | 20km/h | 27775m | 5.2m/s | -46.4°C | 0% | 17.5hPa | 2.7V | 03:38:27 | 02:20:48 | 00:00:00 | |
| HSKMA3-T | 2026-09-02 12:11:32 | 52.69455 | 10.70981 | 166° | 22km/h | 27756m | 6.6m/s | -46.3°C | 0% | 17.5hPa | 2.7V | 03:38:27 | 02:20:45 | 00:00:00 | |
| BIOWL1-15 | 2026-09-02 12:11:31 | 52.69465 | 10.70977 | 167° | 16km/h | 27745m | 5.5m/s | -46.3°C | 0% | 17.6hPa | 2.7V | 03:41:51 | 02:20:43 | 00:00:00 | |
| DO2JMG | 2026-09-02 12:11:30 | 52.69460 | 10.70979 | 164° | 20km/h | 27750m | 5m/s | -46.3°C | 0% | 17.6hPa | 2.7V | 03:38:27 | 02:20:44 | 00:00:00 | |
| DO2SHX-10 | 2026-09-02 12:11:30 | 52.69460 | 10.70979 | 165° | 16km/h | 27751m | 4.9m/s | -46.3°C | 2.4% | 17.5hPa | 2.6V | 00:00:00 | 02:20:44 | 00:00:00 | |
| BUE01 | 2026-09-02 12:11:28 | 52.69474 | 10.70977 | 173° | 5km/h | 27712m | 7.3m/s | -46.3°C | 0.2% | 17.7hPa | 2.6V | 00:00:00 | 00:00:00 | 00:00:00 | |
| DM0DOS-11 | 2026-09-02 12:11:27 | 52.69479 | 10.70976 | 176° | 9km/h | 27699m | 6.2m/s | -46.4°C | 2.5% | 17.7hPa | 2.6V | 03:38:06 | 02:20:36 | 00:00:00 | |
| DO2SHX-10 | 2026-09-02 12:11:27 | 52.69471 | 10.70976 | 194° | 9km/h | 27732m | 6.5m/s | -46.1°C | 2.4% | 17.5hPa | 2.6V | 00:00:00 | 02:20:41 | 00:00:00 | |
| MECKS9 | 2026-09-02 12:11:26 | 52.69471 | 10.70976 | 195° | 7km/h | 27732m | 6.6m/s | -46.2°C | 0.3% | 17.6hPa | 2.7V | 00:00:00 | 00:00:00 | 00:00:00 | |
| DB0DAN | 2026-09-02 12:11:25 | 52.69473 | 10.70977 | 193° | 4km/h | 27719m | 6.7m/s | -46.2°C | 0.2% | 17.67hPa | 2.7V | 00:00:00 | 00:00:00 | 00:00:00 | |
| AA1-15 | 2026-09-02 12:11:24 | 52.69474 | 10.70977 | 174° | 7km/h | 27712m | 7.3m/s | -46.3°C | 0% | 17.7hPa | 2.7V | 03:38:27 | 02:20:38 | 00:00:00 | |
| HSKMA3-T | 2026-09-02 12:11:21 | 52.69481 | 10.70976 | 187° | 9km/h | 27693m | 7.3m/s | -46.4°C | 0% | 17.7hPa | 2.7V | 03:38:27 | 02:20:35 | 00:00:00 | |
| DO2JMG | 2026-09-02 12:11:20 | 52.69485 | 10.70978 | 183° | 9km/h | 27681m | 3.7m/s | -46.3°C | 0% | 17.8hPa | 2.7V | 03:38:27 | 02:20:33 | 00:00:00 | |
| DM0DOS-11 | 2026-09-02 12:11:17 | 52.69506 | 10.70951 | 113° | 7km/h | 27639m | 6.2m/s | -46.1°C | 2.4% | 17.9hPa | 2.6V | 03:38:16 | 02:20:26 | 00:00:00 | |
| DL1XH-west | 2026-09-02 12:11:14 | 52.69505 | 10.70955 | 129° | 13km/h | 27645m | 7.3m/s | -46.1°C | 0% | 17.8hPa | 2.6V | 03:38:27 | 02:20:27 | 00:00:00 | |
| DF8AY | 2026-09-02 12:11:11 | 52.69507 | 10.70948 | 89° | 7km/h | 27633m | 5.9m/s | -46.1°C | 0% | 17.9hPa | 2.7V | 03:38:27 | 02:20:25 | 00:00:00 | |
| DO2JMG | 2026-09-02 12:11:09 | 52.69505 | 10.70938 | 68° | 9km/h | 27614m | 4.8m/s | -46°C | 0% | 17.9hPa | 2.6V | 03:38:27 | 02:20:22 | 00:00:00 | |
| DM0DOS-11 | 2026-09-02 12:11:07 | 52.69498 | 10.70922 | 105° | 11km/h | 27577m | 7.7m/s | -46.5°C | 2.4% | 18.1hPa | 2.6V | 03:38:26 | 02:20:16 | 00:00:00 | |
| DL1XH-west | 2026-09-02 12:11:03 | 52.69498 | 10.70926 | 80° | 7km/h | 27584m | 5.5m/s | -46.4°C | 0% | 18hPa | 2.6V | 03:38:27 | 02:20:17 | 00:00:00 | |
| DL1XH1-15 | 2026-09-02 12:11:03 | 52.69504 | 10.70905 | 123° | 15km/h | 27560m | 5.3m/s | -46.7°C | 2.4% | 18.1hPa | 2.7V | 03:38:29 | 02:20:13 | 00:00:00 | |
| AA1-15 | 2026-09-02 12:11:02 | 52.69500 | 10.70917 | 117° | 16km/h | 27571m | 6.3m/s | -46.6°C | 0% | 18.1hPa | 2.7V | 03:38:27 | 02:20:15 | 00:00:00 | |
| DF8AY | 2026-09-02 12:11:00 | 52.69502 | 10.70911 | 123° | 18km/h | 27565m | 5.1m/s | -46.6°C | 0% | 18.1hPa | 2.7V | 03:39:18 | 02:20:14 | 00:00:00 | |
| HSKMA3-T | 2026-09-02 12:11:00 | 52.69504 | 10.70905 | 124° | 15km/h | 27560m | 5.4m/s | -46.7°C | 0% | 18.1hPa | 2.7V | 03:39:18 | 02:20:13 | 00:00:00 | |
| DO2JMG | 2026-09-02 12:10:58 | 52.69506 | 10.70901 | 127° | 9km/h | 27554m | 6.4m/s | -46.8°C | 0% | 18.1hPa | 2.6V | 03:39:18 | 02:20:12 | 00:00:00 | |
| DL1XH-15 | 2026-09-02 12:10:58 | 52.69507 | 10.70899 | 110° | 2km/h | 27547m | 6.1m/s | -46.8°C | 2.5% | 18.1hPa | 2.6V | 03:38:31 | 02:20:11 | 00:00:00 | |
| BUE01 | 2026-09-02 12:10:57 | 52.69506 | 10.70899 | 314° | 4km/h | 27542m | 5.5m/s | -46.8°C | 0.3% | 18.1hPa | 2.7V | 00:00:00 | 00:00:00 | 00:00:00 | |
| DB0DAN | 2026-09-02 12:10:55 | 52.69505 | 10.70901 | 328° | 7km/h | 27536m | 5.9m/s | -46.9°C | 0.3% | 18.17hPa | 2.7V | 00:00:00 | 00:00:00 | 00:00:00 | |
| DL1XH-west | 2026-09-02 12:10:53 | 52.69500 | 10.70904 | 357° | 13km/h | 27524m | 6.1m/s | -47°C | 0% | 18.2hPa | 2.6V | 03:39:18 | 02:20:07 | 00:00:00 | |
| BIOWL1-15 | 2026-09-02 12:10:53 | 52.69482 | 10.70905 | 355° | 22km/h | 27500m | 5.7m/s | -46.9°C | 0% | 18.2hPa | 2.7V | 03:41:51 | 02:20:03 | 00:00:00 | |
| AA1-15 | 2026-09-02 12:10:51 | 52.69492 | 10.70904 | 358° | 20km/h | 27512m | 5.7m/s | -46.8°C | 0% | 18.2hPa | 2.7V | 03:39:18 | 02:20:05 | 00:00:00 | |
| DO2JMG | 2026-09-02 12:10:48 | 52.69477 | 10.70905 | 0° | 18km/h | 27494m | 5m/s | -47.1°C | 0% | 18.3hPa | 2.6V | 03:39:18 | 02:20:02 | 00:00:00 | |
| DM0DOS-11 | 2026-09-02 12:10:47 | 52.69471 | 10.70897 | 329° | 5km/h | 27459m | 6.2m/s | -47.1°C | 2.6% | 18.4hPa | 2.6V | 03:38:46 | 02:19:56 | 00:00:00 | |
| DL3AQ-11 | 2026-09-02 12:10:46 | 52.69470 | 10.70900 | 96° | 5km/h | 27476m | 6.0m/s | -47.2°C | -1.0% | -1.0hPa | 2.7V | 00:00:00 | 00:00:00 | 00:00:00 | |
| DL1XH1-15 | 2026-09-02 12:10:44 | 52.69458 | 10.70906 | 340° | 26km/h | 27442m | 6.6m/s | -47°C | 2.5% | 18.4hPa | 2.7V | 03:38:49 | 02:19:53 | 00:00:00 | |
| DL1XH-west | 2026-09-02 12:10:42 | 52.69471 | 10.70897 | 329° | 5km/h | 27459m | 6.2m/s | -47.1°C | 0% | 18.4hPa | 2.6V | 03:39:18 | 02:19:56 | 00:00:00 | |
| AA1-15 | 2026-09-02 12:10:40 | 52.69458 | 10.70906 | 341° | 26km/h | 27442m | 6.6m/s | -47.1°C | 0% | 18.4hPa | 2.7V | 03:39:18 | 02:19:53 | 00:00:00 | |
| DO2JMG | 2026-09-02 12:10:38 | 52.69452 | 10.70909 | 345° | 27km/h | 27435m | 6.6m/s | -47°C | 0% | 18.4hPa | 2.7V | 03:39:18 | 02:19:52 | 00:00:00 | |
| DL1NUX | 2026-09-02 12:10:38 | 52.69426 | 10.70924 | 327° | 24km/h | 27411m | 6.1m/s | -47°C | 2.5% | 18.5hPa | 2.7V | 03:38:54 | 02:19:48 | 00:00:00 | |
| DL1XH-15 | 2026-09-02 12:10:38 | 52.69445 | 10.70912 | 346° | 27km/h | 27429m | 6.1m/s | -46.9°C | 2.5% | 18.5hPa | 2.6V | 03:38:51 | 02:19:51 | 00:00:00 | |
| DF8AY | 2026-09-02 12:10:37 | 52.69438 | 10.70915 | 344° | 27km/h | 27423m | 5.6m/s | -46.9°C | 0% | 18.5hPa | 2.6V | 03:39:18 | 02:19:50 | 00:00:00 | |
| BIOWL1-15 | 2026-09-02 12:10:34 | 52.69422 | 10.70928 | 321° | 18km/h | 27406m | 5.5m/s | -46.8°C | 0% | 18.5hPa | 2.7V | 03:41:51 | 02:19:47 | 00:00:00 | |
| DL1XH-west | 2026-09-02 12:10:32 | 52.69417 | 10.70935 | 332° | 7km/h | 27394m | 6.8m/s | -47°C | 0% | 18.6hPa | 2.6V | 03:39:18 | 02:19:45 | 00:00:00 | |
| GOEST3-10 | 2026-09-02 12:10:31 | 52.69417 | 10.70935 | 333° | 5km/h | 27395m | 6.7m/s | -47.0°C | 2.5% | 18.5hPa | 2.6V | 00:00:00 | 00:00:00 | 00:00:00 | |
| DL1XH1-15 | 2026-09-02 12:10:30 | 52.69415 | 10.70934 | 53° | 5km/h | 27381m | 5.3m/s | -46.9°C | 2.4% | 18.6hPa | 2.7V | 03:38:59 | 02:19:43 | 00:00:00 | |
| DL3AQ-11 | 2026-09-02 12:10:30 | 52.69415 | 10.70934 | 53° | 4km/h | 27381m | 5.3m/s | -46.9°C | -1.0% | -1.0hPa | 2.7V | 00:00:00 | 00:00:00 | 00:00:00 | |
| DO2SHX-10 | 2026-09-02 12:10:29 | 52.69414 | 10.70934 | 54° | 4km/h | 27381m | 5.3m/s | -46.8°C | 2.4% | 18.5hPa | 2.7V | 00:00:00 | 02:19:43 | 00:00:00 | |
| DL1XH-15 | 2026-09-02 12:10:28 | 52.69414 | 10.70932 | 263° | 2km/h | 27370m | 6.4m/s | -47°C | 2.5% | 18.6hPa | 2.7V | 03:39:01 | 02:19:41 | 00:00:00 | |
| DO2JMG | 2026-09-02 12:10:28 | 52.69414 | 10.70933 | 74° | 4km/h | 27376m | 5m/s | -47°C | 0% | 18.6hPa | 2.7V | 03:39:18 | 02:19:42 | 00:00:00 | |
| DL1NUX | 2026-09-02 12:10:28 | 52.69412 | 10.70946 | 291° | 18km/h | 27352m | 5.5m/s | -47.1°C | 2.5% | 18.7hPa | 2.7V | 03:39:04 | 02:19:38 | 00:00:00 | |
| AM1SDL-15 | 2026-09-02 12:10:27 | 52.69414 | 10.70932 | 264° | 13km/h | 27371m | 6.4m/s | -47.0°C | 2.5% | 18.6hPa | 2.7V | 03:39:00 | 02:19:41 | 00:00:00 | |
| DM0DOS-11 | 2026-09-02 12:10:26 | 52.69403 | 10.70963 | 332° | 20km/h | 27333m | 5.8m/s | -47.2°C | 2.5% | 18.7hPa | 2.6V | 03:39:07 | 02:19:35 | 00:00:00 | |
| DB0DAN | 2026-09-02 12:10:25 | 52.69414 | 10.70939 | 280° | 15km/h | 27358m | 5.6m/s | -47°C | 0.3% | 18.67hPa | 2.6V | 00:00:00 | 00:00:00 | 00:00:00 | |
| HSKMA3-T | 2026-09-02 12:10:25 | 52.69414 | 10.70939 | 280° | 15km/h | 27358m | 5.6m/s | -47°C | 0% | 18.7hPa | 2.6V | 03:39:18 | 02:19:39 | 00:00:00 | |
| DL1XH1-15 | 2026-09-02 12:10:24 | 52.69395 | 10.70970 | 326° | 16km/h | 27322m | 5.7m/s | -47.2°C | 2.5% | 18.8hPa | 2.7V | 03:39:09 | 02:19:33 | 00:00:00 | |
| DL1XH-west | 2026-09-02 12:10:20 | 52.69398 | 10.70967 | 335° | 18km/h | 27328m | 4.9m/s | -47.2°C | 0% | 18.8hPa | 2.6V | 03:39:18 | 02:19:34 | 00:00:00 | |
| AA1-15 | 2026-09-02 12:10:19 | 52.69395 | 10.70970 | 327° | 16km/h | 27322m | 5.7m/s | -47.2°C | 0% | 18.8hPa | 2.7V | 03:39:18 | 02:19:33 | 00:00:00 | |
| BIOWL1-15 | 2026-09-02 12:10:18 | 52.69389 | 10.71044 | 229° | 13km/h | 27218m | 5.8m/s | -48.3°C | 0% | 19hPa | 2.7V | 03:41:51 | 02:19:16 | 00:00:00 | |
| DO2JMG | 2026-09-02 12:10:16 | 52.69390 | 10.70982 | 265° | 9km/h | 27305m | 5.2m/s | -47.3°C | 0% | 18.8hPa | 2.6V | 03:39:18 | 02:19:30 | 00:00:00 | |
| DM0DOS-11 | 2026-09-02 12:10:16 | 52.69394 | 10.70993 | 251° | 13km/h | 27275m | 7.3m/s | -47.5°C | 2.5% | 18.9hPa | 2.7V | 03:39:17 | 02:19:25 | 00:00:00 | |
| HSKMA3-T | 2026-09-02 12:10:14 | 52.69391 | 10.70986 | 209° | 5km/h | 27292m | 6.4m/s | -47.6°C | 0% | 18.8hPa | 2.7V | 03:39:18 | 02:19:28 | 00:00:00 | |
| DL1XH1-15 | 2026-09-02 12:10:14 | 52.69395 | 10.71007 | 273° | 20km/h | 27261m | 5.7m/s | -47.6°C | 2.6% | 18.9hPa | 2.5V | 03:39:19 | 02:19:23 | 00:00:00 | |
| DO2SHX-10 | 2026-09-02 12:10:13 | 52.69392 | 10.70987 | 217° | 5km/h | 27287m | 4.6m/s | -47.4°C | 2.5% | 18.8hPa | 2.7V | 00:00:00 | 02:19:27 | 00:00:00 | |
| DB0DAN | 2026-09-02 12:10:10 | 52.69395 | 10.70999 | 262° | 16km/h | 27268m | 7.1m/s | -47.5°C | 0.3% | 18.91hPa | 2.5V | 00:00:00 | 00:00:00 | 00:00:00 | |
| DO2SHX-10 | 2026-09-02 12:10:10 | 52.69395 | 10.70999 | 263° | 16km/h | 27268m | 7.1m/s | -47.4°C | 2.6% | 18.9hPa | 2.6V | 03:39:00 | 02:19:24 | 00:00:00 | |
| DL1NUX | 2026-09-02 12:10:09 | 52.69388 | 10.71036 | 289° | 9km/h | 27231m | 5.7m/s | -48.1°C | 2.6% | 19hPa | 2.6V | 03:39:24 | 02:19:18 | 00:00:00 | |
| AA1-15 | 2026-09-02 12:10:09 | 52.69395 | 10.71007 | 273° | 20km/h | 27261m | 5.7m/s | -47.6°C | 0% | 18.9hPa | 2.5V | 03:40:09 | 02:19:23 | 00:00:00 | |
| DO2JMG | 2026-09-02 12:10:06 | 52.69391 | 10.71028 | 307° | 15km/h | 27242m | 6.2m/s | -47.8°C | 0% | 19hPa | 2.7V | 03:40:09 | 02:19:20 | 00:00:00 | |
| HSKMA3-T | 2026-09-02 12:10:04 | 52.69388 | 10.71036 | 290° | 9km/h | 27231m | 5.7m/s | -48.1°C | 0% | 19hPa | 2.6V | 03:40:09 | 02:19:18 | 00:00:00 | |
| DF8AY | 2026-09-02 12:10:01 | 52.69392 | 10.71048 | 210° | 18km/h | 27213m | 6m/s | -48.4°C | 0% | 19hPa | 2.7V | 03:40:09 | 02:19:15 | 00:00:00 | |
| DL1XH-west | 2026-09-02 12:09:58 | 52.69407 | 10.71057 | 198° | 26km/h | 27193m | 4.5m/s | -48.4°C | 0% | 19.1hPa | 2.6V | 03:40:09 | 02:19:12 | 00:00:00 | |
| DL1XH-15 | 2026-09-02 12:09:58 | 52.69413 | 10.71061 | 207° | 27km/h | 27188m | 5m/s | -48.4°C | 2.7% | 19.1hPa | 2.7V | 03:39:31 | 02:19:11 | 00:00:00 | |
| DM0DOS-11 | 2026-09-02 12:09:56 | 52.69444 | 10.71112 | 223° | 18km/h | 27151m | 5.4m/s | -48.2°C | 2.7% | 19.2hPa | 2.7V | 03:39:37 | 02:19:05 | 00:00:00 | |
| DO2JMG | 2026-09-02 12:09:56 | 52.69420 | 10.71067 | 215° | 31km/h | 27182m | 7.4m/s | -48.4°C | 0% | 0hPa | 2.7V | 03:40:09 | 02:19:10 | 00:00:00 | |
| HSKMA3-T | 2026-09-02 12:09:54 | 52.69431 | 10.71086 | 231° | 33km/h | 27169m | 5.4m/s | -48.3°C | 0% | 19.2hPa | 2.5V | 03:40:09 | 02:19:08 | 00:00:00 | |
| BIOWL1-15 | 2026-09-02 12:09:53 | 52.69444 | 10.71112 | 223° | 18km/h | 27151m | 5.4m/s | -48.2°C | 0% | 19.2hPa | 2.7V | 03:41:51 | 02:19:05 | 00:00:00 | |
| DD8BA-10 | 2026-09-02 12:09:53 | 52.69436 | 10.71097 | 234° | 27km/h | 27164m | 5.6m/s | -48.2°C | 2.7% | 19.2hPa | 2.6V | 03:39:00 | 00:00:00 | 00:00:00 | |
| DL1XH-15 | 2026-09-02 12:09:52 | 52.69465 | 10.71128 | 199° | 33km/h | 27128m | 6.1m/s | -48°C | 2.6% | 19.3hPa | 2.6V | 03:39:41 | 02:19:01 | 00:00:00 | |
| DF8AY | 2026-09-02 12:09:50 | 52.69447 | 10.71116 | 209° | 18km/h | 27146m | 4.8m/s | -48.1°C | 0% | 19.3hPa | 2.7V | 03:40:09 | 02:19:04 | 00:00:00 | |
| DL1NUX | 2026-09-02 12:09:49 | 52.69488 | 10.71141 | 200° | 31km/h | 27110m | 7m/s | -48°C | 2.6% | 19.4hPa | 2.7V | 03:39:44 | 02:18:58 | 00:00:00 | |
| DL1XH-west | 2026-09-02 12:09:47 | 52.69465 | 10.71128 | 200° | 33km/h | 27128m | 6.1m/s | -48°C | 0% | 19.3hPa | 2.6V | 03:40:09 | 02:19:01 | 00:00:00 | |
| DO2JMG | 2026-09-02 12:09:45 | 52.69481 | 10.71137 | 200° | 33km/h | 27117m | 6.4m/s | -48°C | 0% | 0hPa | 2.7V | 03:40:09 | 02:18:59 | 00:00:00 | |
| HSKMA3-T | 2026-09-02 12:09:43 | 52.69495 | 10.71146 | 206° | 29km/h | 27104m | 5.2m/s | -48.1°C | 0% | 19.4hPa | 2.7V | 03:40:09 | 02:18:57 | 00:00:00 | |
| DD8BA-10 | 2026-09-02 12:09:43 | 52.69495 | 10.71146 | 206° | 29km/h | 27105m | 5.2m/s | -48.0°C | 2.7% | 19.3hPa | 2.7V | 00:00:00 | 00:00:00 | 00:00:00 | |
| DO2SHX-10 | 2026-09-02 12:09:41 | 52.69509 | 10.71159 | 212° | 33km/h | 27092m | 7.2m/s | -48.0°C | 2.7% | 19.4hPa | 2.7V | 00:00:00 | 02:18:55 | 00:00:00 | |
| DL1NUX | 2026-09-02 12:09:39 | 52.69553 | 10.71197 | 197° | 27km/h | 27051m | 7.1m/s | -48.1°C | 2.7% | 19.6hPa | 2.7V | 03:39:54 | 02:18:48 | 00:00:00 | |
| DF8AY | 2026-09-02 12:09:38 | 52.69530 | 10.71181 | 210° | 29km/h | 27074m | 6.6m/s | -48.1°C | 0% | 19.5hPa | 2.7V | 03:40:09 | 02:18:52 | 00:00:00 | |
| DL1XH-west | 2026-09-02 12:09:37 | 52.69553 | 10.71197 | 197° | 27km/h | 27051m | 7.1m/s | -48.2°C | 0% | 19.6hPa | 2.7V | 03:40:09 | 02:18:48 | 00:00:00 | |
| DO3MHA-11 | 2026-09-02 12:09:36 | 52.69541 | 10.71190 | 202° | 31km/h | 27062m | 4.8m/s | -48.1°C | 2.7% | 19.4hPa | 2.6V | 00:00:00 | 02:18:50 | 00:00:00 | |
| DM0DOS-11 | 2026-09-02 12:09:34 | 52.69577 | 10.71209 | 197° | 35km/h | 27033m | 5.2m/s | -48.1°C | 2.7% | 19.6hPa | 2.6V | 03:39:57 | 02:18:45 | 00:00:00 | |
| BIOWL1-15 | 2026-09-02 12:09:34 | 52.69560 | 10.71200 | 197° | 33km/h | 27044m | 6.5m/s | -48.2°C | 0% | 19.6hPa | 2.7V | 03:41:51 | 02:18:47 | 00:00:00 | |
| HSKMA3-T | 2026-09-02 12:09:32 | 52.69569 | 10.71204 | 197° | 35km/h | 27038m | 5.2m/s | -48.2°C | 0% | 19.6hPa | 2.6V | 03:40:09 | 02:18:46 | 00:00:00 | |
| GOEST3-10 | 2026-09-02 12:09:31 | 52.69577 | 10.71208 | 198° | 31km/h | 27033m | 5.2m/s | -48.1°C | 2.7% | 19.5hPa | 2.6V | 00:00:00 | 00:00:00 | 00:00:00 | |
| DO2SHX-10 | 2026-09-02 12:09:30 | 52.69585 | 10.71213 | 198° | 33km/h | 27027m | 7.4m/s | -48.1°C | 2.6% | 19.6hPa | 2.7V | 00:00:00 | 02:18:44 | 00:00:00 | |
| DL1NUX | 2026-09-02 12:09:29 | 52.69630 | 10.71228 | 185° | 33km/h | 26990m | 4.9m/s | -48°C | 2.7% | 19.7hPa | 2.7V | 03:40:04 | 02:18:38 | 00:00:00 | |
| DM0DOS-11 | 2026-09-02 12:09:26 | 52.69652 | 10.71230 | 181° | 22km/h | 26971m | 5.9m/s | -48.1°C | 2.8% | 19.8hPa | 2.5V | 03:40:07 | 02:18:35 | 00:00:00 | |
| TFSTFS | 2026-09-02 12:09:26 | 52.69606 | 10.71222 | 193° | 29km/h | 27008m | 5.6m/s | -48.1°C | 0.3% | 19.7hPa | 2.7V | 00:00:00 | 00:00:00 | 00:00:00 | |
| DB0DAN | 2026-09-02 12:09:25 | 52.69622 | 10.71227 | 187° | 33km/h | 26995m | 5.8m/s | -48°C | 0.3% | 19.71hPa | 2.7V | 00:00:00 | 00:00:00 | 00:00:00 | |
| DL1XH-west | 2026-09-02 12:09:25 | 52.69622 | 10.71227 | 187° | 35km/h | 26995m | 5.8m/s | -48°C | 0% | 19.7hPa | 2.7V | 03:40:09 | 02:18:39 | 00:00:00 | |
| DO2JMG | 2026-09-02 12:09:24 | 52.69631 | 10.71228 | 186° | 33km/h | 26990m | 4.9m/s | 0°C | 0% | 0hPa | 2.7V | 03:40:09 | 02:18:38 | 00:00:00 | |
| DL1XH1-15 | 2026-09-02 12:09:24 | 52.69664 | 10.71231 | 183° | 27km/h | 26960m | 6.1m/s | -48.2°C | 2.7% | 19.8hPa | 2.6V | 03:40:09 | 02:18:33 | 00:00:00 | |
| DF8AY | 2026-09-02 12:09:23 | 52.69639 | 10.71229 | 184° | 29km/h | 26984m | 6.4m/s | -48.1°C | 0% | 19.8hPa | 2.7V | 03:40:09 | 02:18:37 | 00:00:00 | |
| AA1-15 | 2026-09-02 12:09:22 | 52.69646 | 10.71230 | 183° | 26km/h | 26978m | 6.9m/s | -48.1°C | 0% | 19.8hPa | 2.7V | 03:40:09 | 02:18:36 | 00:00:00 | |
| HSKMA3-T | 2026-09-02 12:09:21 | 52.69652 | 10.71230 | 181° | 22km/h | 26971m | 5.9m/s | -48.1°C | 0% | 19.8hPa | 2.5V | 03:40:09 | 02:18:35 | 00:00:00 | |
| SO1NDE-10 | 2026-09-02 12:09:21 | 52.69652 | 10.71230 | 182° | 35km/h | 26972m | 5.8m/s | -48.0°C | 2.8% | 19.7hPa | 2.5V | 00:00:00 | 02:18:35 | 00:00:00 | |
| DF7PN | 2026-09-02 12:09:20 | 52.69664 | 10.71231 | 183° | 27km/h | 26961m | 6.1m/s | -48.2°C | 0.3% | 19.8hPa | 2.6V | 00:00:00 | 00:00:00 | 00:00:00 | |
| DL1NUX | 2026-09-02 12:09:19 | 52.69707 | 10.71241 | 187° | 33km/h | 26928m | 6.8m/s | -48°C | 2.7% | 19.9hPa | 2.6V | 03:40:14 | 02:18:28 | 00:00:00 | |
| DL1XH-west | 2026-09-02 12:09:14 | 52.69716 | 10.71242 | 183° | 33km/h | 26923m | 5m/s | -48°C | 0% | 19.9hPa | 2.7V | 03:41:00 | 02:18:27 | 00:00:00 | |
| DO2JMG | 2026-09-02 12:09:14 | 52.69708 | 10.71241 | 188° | 33km/h | 26928m | 6.9m/s | 0°C | 0% | 0hPa | 2.6V | 18:12:15 | 02:18:28 | 00:00:00 | |
| DM0DOS-11 | 2026-09-02 12:09:14 | 52.69733 | 10.71241 | 174° | 37km/h | 26911m | 7.3m/s | -48°C | 2.7% | 20hPa | 2.7V | 03:40:17 | 02:18:25 | 00:00:00 | |
| DD8BA-10 | 2026-09-02 12:09:13 | 52.69716 | 10.71242 | 184° | 35km/h | 26923m | 4.9m/s | -48.0°C | 2.7% | 19.9hPa | 2.7V | 03:40:00 | 00:00:00 | 00:00:00 | |
| BIOWL1-15 | 2026-09-02 12:09:12 | 52.69881 | 10.71202 | 157° | 38km/h | 26807m | 5.5m/s | -47.5°C | 0% | 20.3hPa | 2.7V | 03:41:51 | 02:18:08 | 00:00:00 | |
| DF8AY | 2026-09-02 12:09:11 | 52.69752 | 10.71236 | 168° | 37km/h | 26899m | 5.3m/s | -47.9°C | 0% | 20.1hPa | 2.6V | 03:41:00 | 02:18:23 | 00:00:00 | |
| AA1-15 | 2026-09-02 12:09:11 | 52.69733 | 10.71241 | 174° | 37km/h | 26911m | 7.3m/s | -48°C | 0% | 20hPa | 2.7V | 03:41:00 | 02:18:25 | 00:00:00 | |
| HSKMA3-T | 2026-09-02 12:09:10 | 52.69743 | 10.71239 | 170° | 38km/h | 26904m | 5.9m/s | -48°C | 0% | 20hPa | 2.6V | 03:41:00 | 02:18:24 | 00:00:00 | |
| DL1XH1-15 | 2026-09-02 12:09:10 | 52.69752 | 10.71236 | 167° | 37km/h | 26899m | 5.3m/s | -47.9°C | 2.8% | 20.1hPa | 2.6V | 03:40:19 | 02:18:23 | 00:00:00 | |
| DB0DAN | 2026-09-02 12:09:10 | 52.69743 | 10.71239 | 170° | 37km/h | 26904m | 5.9m/s | -48°C | 0.3% | 20hPa | 2.6V | 00:00:00 | 00:00:00 | 00:00:00 | |
| DO2SHX-10 | 2026-09-02 12:09:08 | 52.69761 | 10.71233 | 166° | 35km/h | 26893m | 7.0m/s | -47.9°C | 2.7% | 20.0hPa | 2.7V | 00:00:00 | 02:18:22 | 00:00:00 | |
| DL1XH-15 | 2026-09-02 12:09:08 | 52.69769 | 10.71229 | 163° | 31km/h | 26885m | 6.5m/s | -47.9°C | 2.7% | 20hPa | 2.7V | 03:40:21 | 02:18:21 | 00:00:00 | |
| DL4BBY-15 | 2026-09-02 12:09:07 | 52.69769 | 10.71229 | 164° | 33km/h | 26885m | 6.5m/s | -47.8°C | 0% | 0hPa | 2.7V | 00:00:00 | 00:00:00 | 00:00:00 | |
| GOEST3-10 | 2026-09-02 12:09:06 | 52.69776 | 10.71225 | 162° | 35km/h | 26880m | 5.1m/s | -47.9°C | 2.8% | 20.0hPa | 2.7V | 00:00:00 | 02:18:20 | 00:00:00 | |
| DM0DOS-11 | 2026-09-02 12:09:05 | 52.69820 | 10.71212 | 177° | 38km/h | 26850m | 5.8m/s | -47.8°C | 2.7% | 20.2hPa | 2.7V | 03:40:27 | 02:18:15 | 00:00:00 | |
| DL1XH1-15 | 2026-09-02 12:09:04 | 52.69838 | 10.71212 | 182° | 31km/h | 26837m | 6m/s | -47.6°C | 2.7% | 20.2hPa | 2.7V | 03:40:29 | 02:18:13 | 00:00:00 | |
| DO2JMG | 2026-09-02 12:09:04 | 52.69791 | 10.71218 | 166° | 35km/h | 26868m | 7.1m/s | 0°C | 0% | 0hPa | 2.5V | 18:12:15 | 02:18:18 | 00:00:00 | |
| DL1XH-west | 2026-09-02 12:09:03 | 52.69820 | 10.71212 | 178° | 38km/h | 26850m | 5.8m/s | -47.8°C | 0% | 20.2hPa | 2.7V | 03:41:00 | 02:18:15 | 00:00:00 | |
| AA1-15 | 2026-09-02 12:09:00 | 52.69829 | 10.71212 | 181° | 35km/h | 26843m | 7.4m/s | -47.7°C | 0% | 20.2hPa | 2.7V | 03:41:00 | 02:18:14 | 00:00:00 | |
| BIOWL1-15 | 2026-09-02 12:08:59 | 52.69896 | 10.71189 | 148° | 31km/h | 26794m | 7m/s | -47.5°C | 0% | 20.3hPa | 2.6V | 03:41:51 | 02:18:06 | 00:00:00 | |
| HSKMA3-T | 2026-09-02 12:08:59 | 52.69838 | 10.71212 | 183° | 31km/h | 26837m | 6m/s | -47.6°C | 0% | 20.2hPa | 2.7V | 03:41:00 | 02:18:13 | 00:00:00 | |
| DL1NUX | 2026-09-02 12:08:59 | 52.69881 | 10.71202 | 157° | 38km/h | 26807m | 5.5m/s | -47.5°C | 2.6% | 20.3hPa | 2.7V | 03:40:34 | 02:18:08 | 00:00:00 | |
| DO2SHX-10 | 2026-09-02 12:08:59 | 52.69838 | 10.71212 | 183° | 31km/h | 26837m | 6.0m/s | -47.6°C | 2.7% | 20.2hPa | 2.7V | 03:40:00 | 02:18:13 | 00:00:00 | |
| NBG1-10 | 2026-09-02 12:08:57 | 52.69854 | 10.71212 | 177° | 29km/h | 26826m | 6.4m/s | -47.6°C | 2.7% | 20.2hPa | 2.7V | 00:00:00 | 02:18:11 | 00:00:00 | |
| DB0DAN | 2026-09-02 12:08:55 | 52.69872 | 10.71207 | 163° | 37km/h | 26813m | 5.7m/s | -47.5°C | 0.3% | 20.28hPa | 2.7V | 00:00:00 | 00:00:00 | 00:00:00 | |
| DM0DOS-11 | 2026-09-02 12:08:53 | 52.69903 | 10.71182 | 151° | 29km/h | 26787m | 5.9m/s | -47.4°C | 2.5% | 20.4hPa | 2.7V | 03:40:37 | 02:18:05 | 00:00:00 | |
| AA1-15 | 2026-09-02 12:08:50 | 52.69909 | 10.71177 | 156° | 29km/h | 26781m | 6.2m/s | -47.4°C | 0% | 20.4hPa | 2.7V | 03:41:00 | 02:18:04 | 00:00:00 | |
| DL1XH1-15 | 2026-09-02 12:08:50 | 52.69916 | 10.71173 | 163° | 31km/h | 26774m | 7.1m/s | -47.4°C | 2.6% | 20.4hPa | 2.7V | 03:40:39 | 02:18:03 | 00:00:00 | |
| DF7PN | 2026-09-02 12:08:49 | 52.69916 | 10.71173 | 163° | 29km/h | 26775m | 7.1m/s | -47.4°C | 0.3% | 20.4hPa | 2.6V | 00:00:00 | 00:00:00 | 00:00:00 | |
| DL1XH-15 | 2026-09-02 12:08:48 | 52.69933 | 10.71170 | 182° | 33km/h | 26763m | 4m/s | -47.3°C | 2.6% | 20.4hPa | 2.6V | 03:40:41 | 02:18:01 | 00:00:00 | |
| HSKMA3-T | 2026-09-02 12:08:48 | 52.69924 | 10.71170 | 174° | 35km/h | 26768m | 5.5m/s | -47.3°C | 0% | 20.4hPa | 2.7V | 03:41:00 | 02:18:02 | 00:00:00 | |
| SONDE2-11 | 2026-09-02 12:08:48 | 52.69941 | 10.71171 | 188° | 31km/h | 26759m | 6.3m/s | -47.3°C | 0.3% | 20.4hPa | 2.6V | 00:00:00 | 00:00:00 | 00:00:00 | |
| DF8AY | 2026-09-02 12:08:48 | 52.69933 | 10.71170 | 183° | 33km/h | 26764m | 4m/s | -47.3°C | 0% | 20.4hPa | 2.6V | 03:41:00 | 02:18:01 | 00:00:00 | |
| DM0DOS-11 | 2026-09-02 12:08:45 | 52.69977 | 10.71172 | 160° | 33km/h | 26726m | 6.3m/s | -47.3°C | 2.6% | 20.5hPa | 2.6V | 03:40:47 | 02:17:55 | 00:00:00 | |
| DL1XH1-15 | 2026-09-02 12:08:44 | 52.69992 | 10.71159 | 147° | 33km/h | 26715m | 6.7m/s | -47.2°C | 2.6% | 20.6hPa | 2.7V | 03:40:49 | 02:17:53 | 00:00:00 | |
| BIOWL1-15 | 2026-09-02 12:08:42 | 52.69969 | 10.71175 | 171° | 31km/h | 26733m | 7.5m/s | -47.3°C | 0% | 20.5hPa | 2.7V | 03:41:51 | 02:17:56 | 00:00:00 | |
| DO2JMG | 2026-09-02 12:08:41 | 52.69977 | 10.71172 | 160° | 33km/h | 26726m | 6.3m/s | 0°C | 0% | 0hPa | 2.6V | 18:12:15 | 02:17:55 | 00:00:00 | |
| DB0DAN | 2026-09-02 12:08:40 | 52.69985 | 10.71166 | 153° | 33km/h | 26721m | 4.8m/s | -47.3°C | 0.3% | 20.56hPa | 2.6V | 00:00:00 | 00:00:00 | 00:00:00 | |
| DL1XH-west | 2026-09-02 12:08:39 | 52.69992 | 10.71159 | 147° | 33km/h | 26715m | 6.7m/s | -47.3°C | 0% | 20.6hPa | 2.7V | 03:41:00 | 02:17:53 | 00:00:00 | |
| DL1XH-15 | 2026-09-02 12:08:39 | 52.70005 | 10.71144 | 144° | 29km/h | 26702m | 5.8m/s | -47.2°C | 2.5% | 20.6hPa | 2.7V | 03:40:51 | 02:17:51 | 00:00:00 | |
| HSKMA3-T | 2026-09-02 12:08:37 | 52.70005 | 10.71144 | 144° | 29km/h | 26702m | 5.8m/s | -47.2°C | 0% | 20.6hPa | 2.7V | 03:41:00 | 02:17:51 | 00:00:00 | |
| DL4BBY-15 | 2026-09-02 12:08:37 | 52.70005 | 10.71144 | 145° | 22km/h | 26702m | 5.7m/s | -47.0°C | 0% | 0hPa | 2.6V | 00:00:00 | 00:00:00 | 00:00:00 | |
| DO2SHX-10 | 2026-09-02 12:08:34 | 52.70024 | 10.71128 | 163° | 26km/h | 26683m | 5.3m/s | -47.1°C | 2.6% | 20.6hPa | 2.6V | 00:00:00 | 02:17:48 | 00:00:00 | |
| DD8BA-10 | 2026-09-02 12:08:33 | 52.70030 | 10.71125 | 171° | 24km/h | 26679m | 4.7m/s | -47.0°C | 2.5% | 20.7hPa | 2.6V | 03:40:00 | 00:00:00 | 00:00:00 | |
| DL1XH1-15 | 2026-09-02 12:08:32 | 52.70052 | 10.71125 | 178° | 20km/h | 26653m | 5m/s | -46.9°C | 2.5% | 20.8hPa | 2.6V | 03:40:59 | 02:17:43 | 00:00:00 | |
| BIOWL1-15 | 2026-09-02 12:08:32 | 52.70037 | 10.71124 | 177° | 24km/h | 26672m | 7.3m/s | -47.1°C | 0% | 20.7hPa | 2.7V | 03:41:51 | 02:17:46 | 00:00:00 | |
| AA1-15 | 2026-09-02 12:08:29 | 52.70052 | 10.71125 | 179° | 20km/h | 26653m | 5m/s | -46.9°C | 0% | 20.8hPa | 2.6V | 03:41:00 | 02:17:43 | 00:00:00 | |
| DL1XH-west | 2026-09-02 12:08:29 | 52.70057 | 10.71124 | 171° | 24km/h | 26647m | 7.1m/s | -46.9°C | 0% | 20.8hPa | 2.6V | 03:41:00 | 02:17:42 | 00:00:00 | |
| DL1XH-15 | 2026-09-02 12:08:28 | 52.70063 | 10.71122 | 162° | 27km/h | 26640m | 6.7m/s | -46.9°C | 2.5% | 20.8hPa | 2.7V | 03:41:01 | 02:17:41 | 00:00:00 | |
| DL1NUX | 2026-09-02 12:08:28 | 52.70083 | 10.71104 | 141° | 27km/h | 26622m | 7.3m/s | -46.9°C | 2.6% | 20.9hPa | 2.5V | 03:41:04 | 02:17:38 | 00:00:00 | |
| HSKMA3-T | 2026-09-02 12:08:26 | 52.70070 | 10.71117 | 155° | 31km/h | 26634m | 5.7m/s | -46.8°C | 0% | 20.8hPa | 2.7V | 03:41:51 | 02:17:40 | 00:00:00 | |
| DF8AY | 2026-09-02 12:08:24 | 52.70110 | 10.71073 | 163° | 22km/h | 26586m | 5.8m/s | -46.8°C | 0% | 21hPa | 2.5V | 03:41:51 | 02:17:32 | 00:00:00 | |
| DL4XJ-10 | 2026-09-02 12:08:24 | 52.70083 | 10.71104 | 142° | 18km/h | 26622m | 7.2m/s | -46.7°C | 0% | 0hPa | 2.7V | 00:00:00 | 00:00:00 | 00:00:00 | |
| DM0DOS-11 | 2026-09-02 12:08:23 | 52.70095 | 10.71086 | 141° | 20km/h | 26604m | 5.2m/s | -46.9°C | 2.6% | 20.9hPa | 2.7V | 03:41:07 | 02:17:35 | 00:00:00 | |
| DD8BA-10 | 2026-09-02 12:08:23 | 52.70088 | 10.71097 | 137° | 18km/h | 26615m | 5.8m/s | -46.8°C | 2.6% | 20.9hPa | 2.7V | 00:00:00 | 00:00:00 | 00:00:00 | |
| DO2SHX-10 | 2026-09-02 12:08:22 | 52.70092 | 10.71091 | 135° | 20km/h | 26610m | 4.7m/s | -46.9°C | 2.5% | 20.9hPa | 2.7V | 00:00:00 | 02:17:36 | 00:00:00 | |
| SO1NDE-10 | 2026-09-02 12:08:21 | 52.70095 | 10.71086 | 142° | 18km/h | 26605m | 5.1m/s | -46.8°C | 2.6% | 20.9hPa | 2.7V | 00:00:00 | 02:17:35 | 00:00:00 | |
| DL1XH1-15 | 2026-09-02 12:08:20 | 52.70105 | 10.71077 | 155° | 22km/h | 26592m | 6.8m/s | -46.9°C | 2.6% | 21hPa | 2.7V | 03:41:09 | 02:17:33 | 00:00:00 | |
| DO3MHA-11 | 2026-09-02 12:08:20 | 52.70099 | 10.71081 | 150° | 18km/h | 26599m | 6.9m/s | -46.9°C | 2.6% | 20.9hPa | 2.7V | 03:41:00 | 02:17:34 | 00:00:00 | |
| DO2SHX-10 | 2026-09-02 12:08:19 | 52.70105 | 10.71077 | 156° | 22km/h | 26592m | 6.7m/s | -46.9°C | 2.6% | 20.9hPa | 2.7V | 00:00:00 | 02:17:33 | 00:00:00 | |
| DL1XH-15 | 2026-09-02 12:08:18 | 52.70115 | 10.71071 | 166° | 20km/h | 26580m | 5.8m/s | -46.8°C | 2.5% | 21hPa | 2.5V | 03:41:11 | 02:17:31 | 00:00:00 | |
| DL1XH-west | 2026-09-02 12:08:17 | 52.70115 | 10.71071 | 167° | 20km/h | 26580m | 5.8m/s | -46.8°C | 0% | 21hPa | 2.5V | 03:41:51 | 02:17:31 | 00:00:00 | |
| DL1NUX | 2026-09-02 12:08:17 | 52.70125 | 10.71066 | 143° | 11km/h | 26561m | 5.5m/s | -46.8°C | 2.5% | 21.1hPa | 2.7V | 03:41:14 | 02:17:28 | 00:00:00 | |
| HSKMA3-T | 2026-09-02 12:08:15 | 52.70123 | 10.71068 | 160° | 11km/h | 26567m | 5.9m/s | -46.8°C | 0% | 21.1hPa | 2.7V | 03:41:51 | 02:17:29 | 00:00:00 | |
| DL1XH1-15 | 2026-09-02 12:08:14 | 52.70142 | 10.71041 | 137° | 20km/h | 26533m | 4.4m/s | -46.8°C | 2.4% | 21.1hPa | 2.7V | 03:41:19 | 02:17:23 | 00:00:00 | |
| DF8AY | 2026-09-02 12:08:12 | 52.70138 | 10.71047 | 139° | 22km/h | 26537m | 3.6m/s | -46.8°C | 0% | 21.2hPa | 2.7V | 03:41:51 | 02:17:24 | 00:00:00 | |
| DO2SHX-10 | 2026-09-02 12:08:12 | 52.70130 | 10.71058 | 138° | 18km/h | 26549m | 6.5m/s | -46.8°C | 2.5% | 21.1hPa | 2.7V | 03:41:00 | 02:17:26 | 00:00:00 | |
| DB0DAN | 2026-09-02 12:08:10 | 52.70138 | 10.71047 | 139° | 22km/h | 26537m | 3.6m/s | -46.8°C | 0.3% | 21.16hPa | 2.7V | 00:00:00 | 00:00:00 | 00:00:00 | |
| DO2JMG | 2026-09-02 12:08:07 | 52.70148 | 10.71032 | 140° | 13km/h | 26520m | 6.9m/s | 0°C | 0% | 0hPa | 2.7V | 18:12:15 | 02:17:21 | 00:00:00 | |
| AA1-15 | 2026-09-02 12:08:06 | 52.70150 | 10.71029 | 156° | 11km/h | 26515m | 5.2m/s | -46.8°C | 0% | 21.2hPa | 2.5V | 03:41:51 | 02:17:20 | 00:00:00 | |
| BIOWL1-15 | 2026-09-02 12:08:04 | 52.70162 | 10.71023 | 130° | 11km/h | 26491m | 5.2m/s | -46.8°C | 0% | 21.3hPa | 2.7V | 03:41:51 | 02:17:16 | 00:00:00 | |
| DL1XH1-15 | 2026-09-02 12:08:04 | 52.70163 | 10.71004 | 85° | 24km/h | 26471m | 5.6m/s | -46.7°C | 2.6% | 21.4hPa | 2.6V | 03:41:29 | 02:17:13 | 00:00:00 | |
| HSKMA3-T | 2026-09-02 12:08:04 | 52.70156 | 10.71027 | 169° | 13km/h | 26501m | 7.1m/s | -46.8°C | 0% | 21.3hPa | 2.6V | 03:41:51 | 02:17:18 | 00:00:00 | |
| DF8AY | 2026-09-02 12:08:00 | 52.70162 | 10.71004 | 86° | 24km/h | 26471m | 5.6m/s | -46.7°C | 0% | 21.4hPa | 2.6V | 03:41:51 | 02:17:13 | 00:00:00 | |
| DO3MHA-11 | 2026-09-02 12:08:00 | 52.70163 | 10.71012 | 85° | 22km/h | 26477m | 6.4m/s | -46.8°C | 2.5% | 21.3hPa | 2.5V | 00:00:00 | 02:17:14 | 00:00:00 | |
| DL1XH-15 | 2026-09-02 12:07:58 | 52.70163 | 10.70981 | 101° | 29km/h | 26457m | 6.7m/s | -46.7°C | 2.4% | 21.4hPa | 2.7V | 03:41:31 | 02:17:11 | 00:00:00 | |
| DO2JMG | 2026-09-02 12:07:56 | 52.70165 | 10.70969 | 105° | 29km/h | 26451m | 5m/s | 0°C | 0% | 0hPa | 2.7V | 18:12:15 | 02:17:10 | 00:00:00 | |
| AA1-15 | 2026-09-02 12:07:56 | 52.70167 | 10.70958 | 106° | 27km/h | 26446m | 6.1m/s | -46.8°C | 0% | 21.5hPa | 2.7V | 03:41:51 | 02:17:09 | 00:00:00 | |
| DB0DAN | 2026-09-02 12:07:55 | 52.70167 | 10.70958 | 105° | 26km/h | 26446m | 6.1m/s | -46.8°C | 0.3% | 21.48hPa | 2.7V | 00:00:00 | 00:00:00 | 00:00:00 | |
| HSKMA3-T | 2026-09-02 12:07:54 | 52.70169 | 10.70949 | 106° | 20km/h | 26440m | 7.1m/s | -46.8°C | 0% | 21.5hPa | 2.6V | 03:41:51 | 02:17:08 | 00:00:00 | |
| BIOWL1-15 | 2026-09-02 12:07:51 | 52.70173 | 10.70937 | 175° | 9km/h | 26420m | 7.5m/s | -46.8°C | 0% | 21.5hPa | 2.7V | 03:41:51 | 02:17:05 | 00:00:00 | |
| DF8AY | 2026-09-02 12:07:50 | 52.70179 | 10.70939 | 201° | 2km/h | 26403m | 5.4m/s | -46.9°C | 0% | 21.6hPa | 2.6V | 03:41:51 | 02:17:02 | 00:00:00 | |
| BIOWL9-15 | 2026-09-02 12:07:49 | 52.70179 | 10.70939 | 201° | 0km/h | 26403m | 5.4m/s | -46.9°C | 0.3% | 21.6hPa | 2.6V | 00:00:00 | 00:00:00 | 00:00:00 | |
| DL1XH-15 | 2026-09-02 12:07:48 | 52.70179 | 10.70939 | 41° | 5km/h | 26397m | 6.5m/s | -46.8°C | 2.5% | 21.6hPa | 2.6V | 03:41:41 | 02:17:01 | 00:00:00 | |
| DL1XH-west | 2026-09-02 12:07:46 | 52.70175 | 10.70931 | 58° | 20km/h | 26385m | 5.6m/s | -46.8°C | 0% | 21.6hPa | 2.7V | 03:41:51 | 02:16:59 | 00:00:00 | |
| HSKMA3-T | 2026-09-02 12:07:44 | 52.70172 | 10.70923 | 70° | 24km/h | 26379m | 5.9m/s | -46.9°C | 0% | 21.7hPa | 2.7V | 03:41:51 | 02:16:58 | 00:00:00 | |
| BIOWL1-15 | 2026-09-02 12:07:40 | 52.70176 | 10.70887 | 155° | 2km/h | 26344m | 5.7m/s | -46.8°C | 0% | 21.8hPa | 2.7V | 03:41:51 | 02:16:52 | 00:00:00 | |
| DB0DAN | 2026-09-02 12:07:40 | 52.70174 | 10.70892 | 120° | 11km/h | 26357m | 6m/s | -46.8°C | 0.3% | 21.76hPa | 2.6V | 00:00:00 | 00:00:00 | 00:00:00 | |
| DO2SHX-10 | 2026-09-02 12:07:40 | 52.70174 | 10.70892 | 120° | 9km/h | 26357m | 5.9m/s | -46.8°C | 2.5% | 21.7hPa | 2.6V | 00:00:00 | 02:16:54 | 00:00:00 | |
| DL1XH-15 | 2026-09-02 12:07:38 | 52.70176 | 10.70887 | 217° | 2km/h | 26339m | 5.2m/s | -46.8°C | 2.5% | 21.8hPa | 2.7V | 03:41:51 | 02:16:51 | 00:00:00 | |
| AM1SDL-15 | 2026-09-02 12:07:38 | 52.70176 | 10.70887 | 156° | 4km/h | 26345m | 5.6m/s | -46.7°C | 2.4% | 21.7hPa | 2.7V | 00:00:00 | 02:16:52 | 00:00:00 | |
| DL1NUX | 2026-09-02 12:07:37 | 52.70178 | 10.70887 | 152° | 5km/h | 26321m | 6.3m/s | -46.8°C | 2.4% | 21.9hPa | 2.7V | 03:41:54 | 02:16:48 | 00:00:00 | |
| DL1XH-west | 2026-09-02 12:07:35 | 52.70177 | 10.70887 | 171° | 4km/h | 26328m | 6.4m/s | -46.8°C | 0% | 21.9hPa | 2.6V | 03:42:42 | 02:16:49 | 00:00:00 | |
| DF8AY | 2026-09-02 12:07:34 | 52.70177 | 10.70881 | 4° | 9km/h | 26293m | 5.3m/s | -46.8°C | 0% | 22hPa | 2.5V | 03:42:42 | 02:16:43 | 00:00:00 | |
| HSKMA3-T | 2026-09-02 12:07:33 | 52.70179 | 10.70886 | 142° | 5km/h | 26315m | 5.2m/s | -46.7°C | 0% | 21.9hPa | 2.7V | 03:42:42 | 02:16:47 | 00:00:00 | |
| DD8BA-10 | 2026-09-02 12:07:33 | 52.70179 | 10.70886 | 142° | 5km/h | 26316m | 5.2m/s | -46.7°C | 2.5% | 21.8hPa | 2.7V | 00:00:00 | 00:00:00 | 00:00:00 | |
| DM0DOS-11 | 2026-09-02 12:07:32 | 52.70181 | 10.70883 | 70° | 4km/h | 26305m | 6.1m/s | -46.7°C | 2.5% | 21.9hPa | 2.7V | 03:41:57 | 02:16:45 | 00:00:00 | |
| DF8AY-15 | 2026-09-02 12:07:31 | 52.70180 | 10.70882 | 71° | 7km/h | 26305m | 6.0m/s | -46.6°C | 2.5% | 21.8hPa | 2.5V | 00:00:00 | 02:16:45 | 00:00:00 | |
| DL1XH1-15 | 2026-09-02 12:07:30 | 52.70177 | 10.70881 | 3° | 9km/h | 26293m | 5.3m/s | -46.8°C | 2.5% | 22hPa | 2.5V | 03:41:59 | 02:16:43 | 00:00:00 | |
| DO2SHX-10 | 2026-09-02 12:07:30 | 52.70179 | 10.70881 | 15° | 7km/h | 26299m | 6.3m/s | -46.7°C | 2.5% | 21.9hPa | 2.5V | 00:00:00 | 02:16:44 | 00:00:00 | |
| DL1NUX | 2026-09-02 12:07:29 | 52.70175 | 10.70876 | 124° | 9km/h | 26265m | 4.3m/s | -46.9°C | 2.5% | 22.1hPa | 2.6V | 03:42:04 | 02:16:38 | 00:00:00 | |
| BIOWL1-15 | 2026-09-02 12:07:29 | 52.70175 | 10.70881 | 359° | 7km/h | 26288m | 4.1m/s | -46.7°C | 0% | 21.9hPa | 2.6V | 03:42:42 | 02:16:42 | 00:00:00 | |
| DL1XH-west | 2026-09-02 12:07:25 | 52.70174 | 10.70879 | 134° | 7km/h | 26270m | 5.1m/s | -46.8°C | 0% | 22hPa | 2.7V | 03:42:42 | 02:16:39 | 00:00:00 | |
| DB0DAN | 2026-09-02 12:07:25 | 52.70174 | 10.70879 | 134° | 7km/h | 26270m | 5.1m/s | -46.8°C | 0.3% | 22.03hPa | 2.7V | 00:00:00 | 00:00:00 | 00:00:00 | |
| DL1XH1-15 | 2026-09-02 12:07:24 | 52.70177 | 10.70853 | 98° | 11km/h | 26234m | 7.1m/s | -47.2°C | 2.5% | 22.1hPa | 2.7V | 03:42:09 | 02:16:33 | 00:00:00 | |
| HSKMA3-T | 2026-09-02 12:07:23 | 52.70176 | 10.70873 | 111° | 11km/h | 26259m | 7m/s | -46.8°C | 0% | 22.1hPa | 2.6V | 03:42:42 | 02:16:37 | 00:00:00 | |
| AA1-15 | 2026-09-02 12:07:22 | 52.70177 | 10.70868 | 91° | 13km/h | 26252m | 6.7m/s | -46.9°C | 0% | 22.1hPa | 2.7V | 03:42:42 | 02:16:36 | 00:00:00 | |
| DM0DOS-11 | 2026-09-02 12:07:22 | 52.70177 | 10.70863 | 84° | 13km/h | 26246m | 5.2m/s | -47°C | 2.4% | 22.1hPa | 2.7V | 03:42:07 | 02:16:35 | 00:00:00 | |
| DF8AY | 2026-09-02 12:07:19 | 52.70177 | 10.70853 | 99° | 11km/h | 26234m | 7.1m/s | -47.2°C | 0% | 22.1hPa | 2.7V | 03:42:42 | 02:16:33 | 00:00:00 | |
| DL1XH-15 | 2026-09-02 12:07:18 | 52.70177 | 10.70847 | 72° | 4km/h | 26222m | 5.7m/s | -47.2°C | 2.5% | 22.2hPa | 2.6V | 03:42:11 | 02:16:31 | 00:00:00 | |
| BIOWL1-15 | 2026-09-02 12:07:17 | 52.70178 | 10.70847 | 72° | 4km/h | 26222m | 5.7m/s | -47.3°C | 0% | 22.2hPa | 2.6V | 03:42:42 | 02:16:31 | 00:00:00 | |
| DO2SHX-10 | 2026-09-02 12:07:17 | 52.70177 | 10.70847 | 73° | 4km/h | 26222m | 5.6m/s | -47.2°C | 2.5% | 22.2hPa | 2.6V | 03:42:00 | 02:16:31 | 00:00:00 | |
| DL1NUX | 2026-09-02 12:07:16 | 52.70174 | 10.70847 | 332° | 5km/h | 26203m | 5.4m/s | -47.4°C | 2.5% | 22.3hPa | 2.7V | 03:42:14 | 02:16:28 | 00:00:00 | |
| DL1XH-west | 2026-09-02 12:07:14 | 52.70174 | 10.70847 | 332° | 5km/h | 26203m | 5.4m/s | -47.4°C | 0% | 22.3hPa | 2.7V | 03:42:42 | 02:16:28 | 00:00:00 | |
| HSKMA3-T | 2026-09-02 12:07:12 | 52.70174 | 10.70848 | 179° | 5km/h | 26191m | 5.7m/s | -47.5°C | 0% | 22.3hPa | 2.6V | 03:42:42 | 02:16:26 | 00:00:00 | |
| AA1-15 | 2026-09-02 12:07:11 | 52.70176 | 10.70847 | 156° | 9km/h | 26186m | 4.6m/s | -47.5°C | 0% | 22.3hPa | 2.6V | 03:42:42 | 02:16:25 | 00:00:00 | |
| DB0DAN | 2026-09-02 12:07:10 | 52.70178 | 10.70845 | 142° | 11km/h | 26180m | 5.4m/s | -47.7°C | 0.3% | 22.33hPa | 2.7V | 00:00:00 | 00:00:00 | 00:00:00 | |
| DO3MHA-11 | 2026-09-02 12:07:10 | 52.70178 | 10.70845 | 142° | 13km/h | 26181m | 5.4m/s | -47.6°C | 2.5% | 22.3hPa | 2.6V | 00:00:00 | 02:16:24 | 00:00:00 | |
| DL1NUX | 2026-09-02 12:07:09 | 52.70190 | 10.70815 | 132° | 16km/h | 26144m | 4.3m/s | -48°C | 2.5% | 22.5hPa | 2.6V | 03:42:24 | 02:16:18 | 00:00:00 | |
| DF8AY | 2026-09-02 12:07:08 | 52.70183 | 10.70832 | 113° | 15km/h | 26162m | 5.5m/s | -47.9°C | 0% | 22.4hPa | 2.7V | 03:42:42 | 02:16:21 | 00:00:00 | |
| BIOWL1-15 | 2026-09-02 12:07:07 | 52.70190 | 10.70815 | 132° | 16km/h | 26144m | 4.3m/s | -48°C | 0% | 22.5hPa | 2.6V | 03:42:42 | 02:16:18 | 00:00:00 | |
| DL4BBY-15 | 2026-09-02 12:07:07 | 52.70183 | 10.70832 | 113° | 15km/h | 26162m | 5.5m/s | -47.7°C | 0% | 0hPa | 2.7V | 00:00:00 | 00:00:00 | 00:00:00 | |
| GOEST3-10 | 2026-09-02 12:07:06 | 52.70185 | 10.70826 | 124° | 15km/h | 26156m | 6.2m/s | -47.9°C | 2.6% | 22.4hPa | 2.7V | 00:00:00 | 02:16:20 | 00:00:00 | |
| MECKS9 | 2026-09-02 12:07:05 | 52.70185 | 10.70826 | 124° | 16km/h | 26156m | 6.3m/s | -48.0°C | 0.3% | 22.4hPa | 2.7V | 00:00:00 | 00:00:00 | 00:00:00 | |
| DL4XJ-10 | 2026-09-02 12:07:04 | 52.70190 | 10.70815 | 133° | 16km/h | 26144m | 4.3m/s | -47.8°C | 0% | 0hPa | 2.7V | 00:00:00 | 00:00:00 | 00:00:00 | |
| DO2SHX-10 | 2026-09-02 12:07:03 | 52.70193 | 10.70810 | 124° | 13km/h | 26140m | 4.6m/s | -48.1°C | 2.6% | 22.4hPa | 2.7V | 00:00:00 | 02:16:17 | 00:00:00 | |
| DM0DOS-11 | 2026-09-02 12:07:02 | 52.70195 | 10.70801 | 84° | 11km/h | 26128m | 6m/s | -48.2°C | 2.6% | 22.5hPa | 2.7V | 03:42:27 | 02:16:15 | 00:00:00 | |
| HSKMA3-T | 2026-09-02 12:07:02 | 52.70194 | 10.70805 | 107° | 11km/h | 26134m | 6.5m/s | -48.1°C | 0% | 22.5hPa | 2.7V | 03:42:42 | 02:16:16 | 00:00:00 | |
| AA1-15 | 2026-09-02 12:07:00 | 52.70194 | 10.70796 | 79° | 13km/h | 26123m | 4.3m/s | -48.2°C | 0% | 22.6hPa | 2.6V | 03:42:42 | 02:16:14 | 00:00:00 | |
| DL1XH1-15 | 2026-09-02 12:07:00 | 52.70194 | 10.70790 | 86° | 15km/h | 26117m | 5m/s | -48.3°C | 2.7% | 22.5hPa | 2.6V | 03:42:29 | 02:16:13 | 00:00:00 | |
| DF8AY | 2026-09-02 12:06:56 | 52.70199 | 10.70761 | 113° | 18km/h | 26095m | 5.9m/s | -48.4°C | 0% | 22.6hPa | 2.7V | 03:42:42 | 02:16:09 | 00:00:00 | |
| DM0DOS-11 | 2026-09-02 12:06:56 | 52.70205 | 10.70741 | 138° | 13km/h | 26072m | 5.6m/s | -48.5°C | 2.7% | 22.7hPa | 2.7V | 03:42:37 | 02:16:05 | 00:00:00 | |
| EDDB2-12 | 2026-09-02 12:06:56 | 52.70197 | 10.70768 | 113° | 20km/h | 26100m | 4.7m/s | -48.4°C | 0.3% | 22.6hPa | 2.6V | 00:00:00 | 00:00:00 | 00:00:00 | |
| BIOWL1-15 | 2026-09-02 12:06:55 | 52.70225 | 10.70693 | 110° | 18km/h | 26022m | 6.3m/s | -48.5°C | 0% | 22.9hPa | 2.6V | 03:43:33 | 02:15:56 | 00:00:00 | |
| DB0DAN | 2026-09-02 12:06:55 | 52.70199 | 10.70761 | 113° | 18km/h | 26095m | 5.9m/s | -48.4°C | 0.4% | 22.64hPa | 2.7V | 00:00:00 | 00:00:00 | 00:00:00 | |
| DL1XH-west | 2026-09-02 12:06:54 | 52.70202 | 10.70749 | 114° | 13km/h | 26082m | 5m/s | -48.4°C | 0% | 22.7hPa | 2.6V | 03:42:42 | 02:16:07 | 00:00:00 | |
| HSKMA3-T | 2026-09-02 12:06:51 | 52.70205 | 10.70740 | 139° | 13km/h | 26072m | 5.6m/s | -48.5°C | 0% | 22.7hPa | 2.7V | 03:42:42 | 02:16:05 | 00:00:00 | |
| AA1-15 | 2026-09-02 12:06:49 | 52.70212 | 10.70733 | 146° | 18km/h | 26060m | 5m/s | -48.4°C | 0% | 22.8hPa | 2.7V | 03:42:42 | 02:16:03 | 00:00:00 | |
| DO2SHX-10 | 2026-09-02 12:06:49 | 52.70212 | 10.70733 | 146° | 18km/h | 26061m | 4.9m/s | -48.4°C | 2.7% | 22.7hPa | 2.6V | 00:00:00 | 02:16:03 | 00:00:00 | |
| DL1XH-15 | 2026-09-02 12:06:48 | 52.70219 | 10.70723 | 131° | 18km/h | 26051m | 5.4m/s | -48.4°C | 2.7% | 22.8hPa | 2.6V | 03:42:41 | 02:16:01 | 00:00:00 | |
| BUE01 | 2026-09-02 12:06:48 | 52.70215 | 10.70728 | 140° | 18km/h | 26056m | 3.8m/s | -48.4°C | 0.4% | 22.8hPa | 2.6V | 00:00:00 | 00:00:00 | 00:00:00 | |
| BIOWL9-15 | 2026-09-02 12:06:47 | 52.70221 | 10.70717 | 119° | 15km/h | 26046m | 6.3m/s | -48.5°C | 0.3% | 22.8hPa | 2.6V | 00:00:00 | 00:00:00 | 00:00:00 | |
| DM0DOS-11 | 2026-09-02 12:06:46 | 52.70227 | 10.70687 | 111° | 16km/h | 26017m | 4.8m/s | -48.5°C | 2.8% | 22.9hPa | 2.6V | 03:42:47 | 02:15:55 | 00:00:00 | |
| DF8AY | 2026-09-02 12:06:46 | 52.70231 | 10.70672 | 127° | 4km/h | 25994m | 4.3m/s | -48.4°C | 0% | 23hPa | 2.7V | 03:43:33 | 02:15:51 | 00:00:00 | |
| BIOWL1-15 | 2026-09-02 12:06:45 | 52.70229 | 10.70677 | 112° | 9km/h | 26006m | 7m/s | -48.5°C | 0% | 22.9hPa | 2.7V | 03:43:33 | 02:15:53 | 00:00:00 | |
| DL1XH-west | 2026-09-02 12:06:44 | 52.70227 | 10.70686 | 112° | 16km/h | 26017m | 4.8m/s | -48.5°C | 0% | 22.9hPa | 2.6V | 03:43:33 | 02:15:55 | 00:00:00 | |
| HSKMA3-T | 2026-09-02 12:06:40 | 52.70228 | 10.70681 | 116° | 13km/h | 26012m | 4.6m/s | -48.4°C | 0% | 22.9hPa | 2.6V | 03:43:33 | 02:15:54 | 00:00:00 | |
| DF8AY | 2026-09-02 12:06:40 | 52.70237 | 10.70663 | 131° | 11km/h | 25972m | 4.6m/s | -48.3°C | 0% | 23.1hPa | 2.7V | 03:43:33 | 02:15:47 | 00:00:00 | |
| DB0DAN | 2026-09-02 12:06:40 | 52.70228 | 10.70681 | 116° | 13km/h | 26012m | 4.6m/s | -48.4°C | 0.3% | 22.93hPa | 2.6V | 00:00:00 | 00:00:00 | 00:00:00 | |
| DL1NUX | 2026-09-02 12:06:39 | 52.70235 | 10.70666 | 140° | 13km/h | 25977m | 4.7m/s | -48.4°C | 2.7% | 23.1hPa | 2.7V | 03:42:54 | 02:15:48 | 00:00:00 | |
| DL1XH-15 | 2026-09-02 12:06:39 | 52.70230 | 10.70672 | 126° | 4km/h | 25994m | 4.3m/s | -48.4°C | 2.7% | 23hPa | 2.7V | 03:42:51 | 02:15:51 | 00:00:00 | |
| AA1-15 | 2026-09-02 12:06:39 | 52.70230 | 10.70674 | 112° | 5km/h | 25999m | 5.9m/s | -48.4°C | 0% | 23hPa | 2.7V | 03:43:33 | 02:15:52 | 00:00:00 | |
| AM1SDL-15 | 2026-09-02 12:06:39 | 52.70230 | 10.70674 | 112° | 9km/h | 26000m | 5.9m/s | -48.4°C | 2.7% | 22.9hPa | 2.7V | 00:00:00 | 02:15:52 | 00:00:00 | |
| DL4BBY-15 | 2026-09-02 12:06:37 | 52.70230 | 10.70672 | 127° | 9km/h | 25995m | 4.3m/s | -48.2°C | 0% | 0hPa | 2.7V | 00:00:00 | 00:00:00 | 00:00:00 | |
| DO2SHX-10 | 2026-09-02 12:06:36 | 52.70231 | 10.70671 | 142° | 9km/h | 25989m | 6.0m/s | -48.4°C | 2.8% | 22.9hPa | 2.7V | 00:00:00 | 02:15:50 | 00:00:00 | |
| DM0DOS-11 | 2026-09-02 12:06:35 | 52.70239 | 10.70656 | 90° | 9km/h | 25960m | 6.2m/s | -48.4°C | 2.7% | 23.1hPa | 2.7V | 03:42:57 | 02:15:45 | 00:00:00 | |
| DB0UT-7 | 2026-09-02 12:06:34 | 52.70235 | 10.70666 | 141° | 9km/h | 25977m | 4.6m/s | -48.3°C | 2.7% | 23.0hPa | 2.6V | 03:42:00 | 02:15:48 | 00:00:00 | |
| DL1XH1-15 | 2026-09-02 12:06:33 | 52.70238 | 10.70643 | 94° | 13km/h | 25942m | 6.2m/s | -48.5°C | 2.6% | 23.2hPa | 2.6V | 03:43:00 | 02:15:42 | 00:00:00 | |
| DL1XH-west | 2026-09-02 12:06:33 | 52.70239 | 10.70660 | 118° | 9km/h | 25967m | 7m/s | -48.4°C | 0% | 23.1hPa | 2.7V | 03:43:33 | 02:15:46 | 00:00:00 | |
| HSKMA3-T | 2026-09-02 12:06:30 | 52.70239 | 10.70652 | 79° | 9km/h | 25954m | 4.9m/s | -48.4°C | 0% | 23.1hPa | 2.5V | 03:43:33 | 02:15:44 | 00:00:00 | |
| BIOWL1-15 | 2026-09-02 12:06:29 | 52.70234 | 10.70629 | 357° | 9km/h | 25914m | 4.7m/s | -48.7°C | 0% | 23.3hPa | 2.6V | 03:43:33 | 02:15:37 | 00:00:00 | |
| AA1-15 | 2026-09-02 12:06:28 | 52.70239 | 10.70643 | 94° | 13km/h | 25942m | 6.2m/s | -48.5°C | 0% | 23.2hPa | 2.6V | 03:43:33 | 02:15:42 | 00:00:00 | |
| DB0DAN | 2026-09-02 12:06:25 | 52.70238 | 10.70631 | 46° | 7km/h | 25926m | 7.4m/s | -48.6°C | 0.3% | 23.24hPa | 2.7V | 00:00:00 | 00:00:00 | 00:00:00 | |
| DL4XJ-10 | 2026-09-02 12:06:24 | 52.70236 | 10.70629 | 10° | 7km/h | 25920m | 6.2m/s | -48.5°C | 0% | 0hPa | 2.7V | 00:00:00 | 00:00:00 | 00:00:00 | |
| DL1XH1-15 | 2026-09-02 12:06:23 | 52.70226 | 10.70624 | 23° | 11km/h | 25886m | 7.3m/s | -48.6°C | 2.8% | 23.4hPa | 2.7V | 03:43:10 | 02:15:32 | 00:00:00 | |
| DL1XH-west | 2026-09-02 12:06:22 | 52.70232 | 10.70629 | 359° | 5km/h | 25909m | 6.3m/s | -48.6°C | 0% | 23.3hPa | 2.6V | 03:43:33 | 02:15:36 | 00:00:00 | |
| DM0DOS-11 | 2026-09-02 12:06:22 | 52.70230 | 10.70629 | 32° | 4km/h | 25902m | 6m/s | -48.6°C | 2.9% | 23.3hPa | 2.6V | 03:43:07 | 02:15:35 | 00:00:00 | |
| HSKMA3-T | 2026-09-02 12:06:19 | 52.70228 | 10.70626 | 33° | 7km/h | 25892m | 5.2m/s | -48.6°C | 0% | 23.4hPa | 2.7V | 03:43:33 | 02:15:33 | 00:00:00 | |
| BIOWL1-15 | 2026-09-02 12:06:18 | 52.70220 | 10.70619 | 36° | 15km/h | 25874m | 4.7m/s | -48.6°C | 0% | 23.4hPa | 2.6V | 03:43:33 | 02:15:30 | 00:00:00 | |
| DL1XH-15 | 2026-09-02 12:06:18 | 52.70224 | 10.70622 | 26° | 15km/h | 25880m | 5.3m/s | -48.5°C | 2.8% | 23.4hPa | 2.6V | 03:43:11 | 02:15:31 | 00:00:00 | |
| AA1-15 | 2026-09-02 12:06:17 | 52.70223 | 10.70622 | 26° | 15km/h | 25880m | 5.3m/s | -48.5°C | 0% | 23.4hPa | 2.6V | 03:43:33 | 02:15:31 | 00:00:00 | |
| BUE01 | 2026-09-02 12:06:17 | 52.70220 | 10.70619 | 36° | 15km/h | 25875m | 4.7m/s | -48.6°C | 0.4% | 23.4hPa | 2.7V | 00:00:00 | 00:00:00 | 00:00:00 | |
| BIOWL9-15 | 2026-09-02 12:06:16 | 52.70215 | 10.70611 | 58° | 13km/h | 25862m | 6.3m/s | -48.5°C | 0.3% | 23.5hPa | 2.7V | 00:00:00 | 00:00:00 | 00:00:00 | |
| HTAHTA | 2026-09-02 12:06:15 | 52.70215 | 10.70611 | 58° | 13km/h | 25862m | 6.3m/s | -48.5°C | 0.3% | 23.5hPa | 2.7V | 00:00:00 | 00:00:00 | 00:00:00 | |
| DF7PN | 2026-09-02 12:06:14 | 52.70214 | 10.70607 | 56° | 9km/h | 25857m | 4.7m/s | -48.5°C | 0.3% | 23.5hPa | 2.7V | 00:00:00 | 00:00:00 | 00:00:00 | |
| DL1XH1-15 | 2026-09-02 12:06:13 | 52.70208 | 10.70609 | 273° | 5km/h | 25829m | 6.8m/s | -48.4°C | 2.7% | 23.6hPa | 2.7V | 03:43:20 | 02:15:22 | 00:00:00 | |
| DL1XH-west | 2026-09-02 12:06:11 | 52.70211 | 10.70603 | 357° | 5km/h | 25845m | 6.5m/s | -48.4°C | 0% | 23.5hPa | 2.6V | 03:43:33 | 02:15:25 | 00:00:00 | |
| DB0DAN | 2026-09-02 12:06:10 | 52.70209 | 10.70604 | 323° | 7km/h | 25839m | 4.8m/s | -48.5°C | 0.4% | 23.54hPa | 2.6V | 00:00:00 | 00:00:00 | 00:00:00 | |
| HSKMA3-T | 2026-09-02 12:06:09 | 52.70208 | 10.70607 | 299° | 7km/h | 25835m | 4.8m/s | -48.4°C | 0% | 23.6hPa | 2.6V | 03:43:33 | 02:15:23 | 00:00:00 | |
| DL1NUX | 2026-09-02 12:06:09 | 52.70210 | 10.70609 | 68° | 4km/h | 25807m | 5.6m/s | -48.4°C | 2.7% | 23.6hPa | 2.6V | 03:43:24 | 02:15:18 | 00:00:00 | |
| DL1XH-15 | 2026-09-02 12:06:08 | 52.70208 | 10.70611 | 220° | 4km/h | 25823m | 5.4m/s | -48.4°C | 2.7% | 23.6hPa | 2.7V | 03:43:21 | 02:15:21 | 00:00:00 | |
| BIOWL1-15 | 2026-09-02 12:06:08 | 52.70208 | 10.70609 | 274° | 5km/h | 25829m | 6.8m/s | -48.4°C | 0% | 23.6hPa | 2.7V | 03:43:33 | 02:15:22 | 00:00:00 | |
| AA1-15 | 2026-09-02 12:06:07 | 52.70208 | 10.70611 | 220° | 4km/h | 25823m | 5.4m/s | -48.4°C | 0% | 23.6hPa | 2.7V | 03:43:33 | 02:15:21 | 00:00:00 | |
| DF8AY | 2026-09-02 12:06:07 | 52.70209 | 10.70611 | 180° | 4km/h | 25817m | 4.7m/s | -48.3°C | 0% | 23.6hPa | 2.7V | 03:43:33 | 02:15:20 | 00:00:00 | |
| GOEST3-10 | 2026-09-02 12:06:06 | 52.70209 | 10.70611 | 181° | 5km/h | 25818m | 4.6m/s | -48.3°C | 2.6% | 23.6hPa | 2.6V | 00:00:00 | 02:15:20 | 00:00:00 | |
| DO2SHX-10 | 2026-09-02 12:06:04 | 52.70209 | 10.70609 | 69° | 7km/h | 25807m | 5.6m/s | -48.4°C | 2.7% | 23.6hPa | 2.6V | 00:00:00 | 02:15:18 | 00:00:00 | |
| DL1XH1-15 | 2026-09-02 12:06:03 | 52.70206 | 10.70586 | 98° | 11km/h | 25774m | 4.2m/s | -48.5°C | 2.8% | 23.8hPa | 2.5V | 03:43:30 | 02:15:12 | 00:00:00 | |
| DL1XH-west | 2026-09-02 12:06:01 | 52.70206 | 10.70591 | 102° | 13km/h | 25779m | 5.1m/s | -48.5°C | 0% | 23.7hPa | 2.5V | 03:43:33 | 02:15:13 | 00:00:00 | |
| HSKMA3-T | 2026-09-02 12:05:59 | 52.70206 | 10.70586 | 99° | 11km/h | 25774m | 4.3m/s | -48.5°C | 0% | 23.8hPa | 2.5V | 03:43:33 | 02:15:12 | 00:00:00 | |
| DL1XH-15 | 2026-09-02 12:05:58 | 52.70206 | 10.70581 | 91° | 11km/h | 25769m | 6.4m/s | -48.6°C | 2.8% | 23.8hPa | 2.6V | 03:43:31 | 02:15:11 | 00:00:00 | |
| AA1-15 | 2026-09-02 12:05:56 | 52.70206 | 10.70574 | 71° | 5km/h | 25757m | 4.7m/s | -48.6°C | 0% | 23.9hPa | 2.7V | 03:43:33 | 02:15:09 | 00:00:00 | |
| DF8AY | 2026-09-02 12:05:56 | 52.70206 | 10.70577 | 68° | 9km/h | 25763m | 6.3m/s | -48.5°C | 0% | 23.8hPa | 2.7V | 03:43:33 | 02:15:10 | 00:00:00 | |
| DB0DAN | 2026-09-02 12:05:55 | 52.70206 | 10.70574 | 71° | 5km/h | 25757m | 4.7m/s | -48.6°C | 0.3% | 23.86hPa | 2.7V | 00:00:00 | 00:00:00 | 00:00:00 | |
| MECKS9 | 2026-09-02 12:05:54 | 52.70206 | 10.70572 | 127° | 4km/h | 25752m | 5.8m/s | -48.6°C | 0.4% | 23.9hPa | 2.7V | 00:00:00 | 00:00:00 | 00:00:00 | |
| DL1XH1-15 | 2026-09-02 12:05:53 | 52.70217 | 10.70574 | 140° | 7km/h | 25712m | 6.2m/s | -48.5°C | 2.8% | 24hPa | 2.7V | 03:43:41 | 02:15:01 | 00:00:00 | |
| DD8BA-10 | 2026-09-02 12:05:53 | 52.70206 | 10.70572 | 172° | 9km/h | 25746m | 6.8m/s | -48.5°C | 2.7% | 23.9hPa | 2.6V | 03:43:00 | 00:00:00 | 00:00:00 | |
| DM0DOS-11 | 2026-09-02 12:05:52 | 52.70211 | 10.70573 | 201° | 9km/h | 25735m | 4.6m/s | -48.5°C | 2.7% | 23.9hPa | 2.6V | 03:43:37 | 02:15:05 | 00:00:00 | |
| DL1XH-west | 2026-09-02 12:05:49 | 52.70218 | 10.70571 | 134° | 13km/h | 25706m | 6.1m/s | -48.5°C | 0% | 24.1hPa | 2.6V | 03:44:24 | 02:15:00 | 00:00:00 | |
| DL1NUX | 2026-09-02 12:05:49 | 52.70222 | 10.70562 | 115° | 15km/h | 25696m | 5m/s | -48.6°C | 2.7% | 24.1hPa | 2.7V | 03:43:44 | 02:14:58 | 00:00:00 | |
| DL1XH-15 | 2026-09-02 12:05:48 | 52.70217 | 10.70574 | 140° | 7km/h | 25712m | 6.2m/s | -48.5°C | 2.8% | 24hPa | 2.7V | 03:43:41 | 02:15:01 | 00:00:00 | |
| HSKMA3-T | 2026-09-02 12:05:47 | 52.70217 | 10.70574 | 141° | 7km/h | 25712m | 6.2m/s | -48.5°C | 0% | 24hPa | 2.7V | 03:44:24 | 02:15:01 | 00:00:00 | |
| BIOWL1-15 | 2026-09-02 12:05:47 | 52.70229 | 10.70540 | 158° | 15km/h | 25668m | 6.3m/s | -48.6°C | 0% | 24.2hPa | 2.5V | 03:44:24 | 02:14:53 | 00:00:00 | |
| DO9LL-15 | 2026-09-02 12:05:47 | 52.70217 | 10.70574 | 141° | 9km/h | 25712m | 6.2m/s | -48.5°C | 2.8% | 24.0hPa | 2.7V | 00:00:00 | 02:15:01 | 00:00:00 | |
| DM0DOS-11 | 2026-09-02 12:05:46 | 52.70225 | 10.70546 | 107° | 9km/h | 25679m | 4.7m/s | -48.6°C | 2.8% | 24.1hPa | 2.7V | 03:43:47 | 02:14:55 | 00:00:00 | |
| DF8AY | 2026-09-02 12:05:46 | 52.70221 | 10.70567 | 124° | 15km/h | 25701m | 4.5m/s | -48.6°C | 0% | 24.1hPa | 2.6V | 03:44:24 | 02:14:59 | 00:00:00 | |
| AA1-15 | 2026-09-02 12:05:44 | 52.70222 | 10.70562 | 116° | 15km/h | 25696m | 5m/s | -48.6°C | 0% | 24.1hPa | 2.7V | 03:44:24 | 02:14:58 | 00:00:00 | |
| HTAHTA | 2026-09-02 12:05:44 | 52.70224 | 10.70556 | 103° | 13km/h | 25690m | 6.6m/s | -48.6°C | 0.3% | 24.1hPa | 2.5V | 00:00:00 | 00:00:00 | 00:00:00 | |
| DF7PN | 2026-09-02 12:05:43 | 52.70224 | 10.70551 | 98° | 11km/h | 25684m | 5.3m/s | -48.6°C | 0.3% | 24.1hPa | 2.5V | 00:00:00 | 00:00:00 | 00:00:00 | |
| DB0DAN | 2026-09-02 12:05:40 | 52.70226 | 10.70543 | 135° | 9km/h | 25674m | 5.8m/s | -48.6°C | 0.4% | 24.13hPa | 2.5V | 00:00:00 | 00:00:00 | 00:00:00 | |
| DO2SHX-10 | 2026-09-02 12:05:40 | 52.70226 | 10.70543 | 135° | 13km/h | 25674m | 5.8m/s | -48.6°C | 2.7% | 24.1hPa | 2.7V | 03:43:00 | 02:14:54 | 00:00:00 | |
| DL1NUX | 2026-09-02 12:05:39 | 52.70248 | 10.70539 | 185° | 13km/h | 25639m | 3.9m/s | -48.5°C | 2.7% | 24.3hPa | 2.7V | 03:43:54 | 02:14:48 | 00:00:00 | |
| DL1XH-15 | 2026-09-02 12:05:38 | 52.70237 | 10.70538 | 178° | 18km/h | 25656m | 5.1m/s | -48.5°C | 2.7% | 24.2hPa | 2.7V | 03:43:51 | 02:14:51 | 00:00:00 | |
| DL1XH-west | 2026-09-02 12:05:38 | 52.70232 | 10.70539 | 171° | 16km/h | 25661m | 5.5m/s | -48.5°C | 0% | 24.2hPa | 2.6V | 03:44:24 | 02:14:52 | 00:00:00 | |
| HSKMA3-T | 2026-09-02 12:05:37 | 52.70237 | 10.70538 | 178° | 18km/h | 25656m | 5.1m/s | -48.5°C | 0% | 24.2hPa | 2.7V | 03:44:24 | 02:14:51 | 00:00:00 | |
| AA1-15 | 2026-09-02 12:05:33 | 52.70252 | 10.70539 | 181° | 16km/h | 25634m | 5.9m/s | -48.5°C | 0% | 24.3hPa | 2.5V | 03:44:24 | 02:14:47 | 00:00:00 | |
| DD8BA-10 | 2026-09-02 12:05:33 | 52.70252 | 10.70539 | 182° | 13km/h | 25635m | 5.9m/s | -48.4°C | 2.7% | 24.2hPa | 2.5V | 00:00:00 | 00:00:00 | 00:00:00 | |
| DO2SHX-10 | 2026-09-02 12:05:32 | 52.70256 | 10.70539 | 179° | 18km/h | 25629m | 6.3m/s | -48.5°C | 2.7% | 24.2hPa | 2.5V | 00:00:00 | 02:14:46 | 00:00:00 | |
| DF8AY-15 | 2026-09-02 12:05:31 | 52.70260 | 10.70539 | 176° | 16km/h | 25623m | 4.2m/s | -48.5°C | 2.8% | 24.3hPa | 2.5V | 03:43:00 | 02:14:45 | 00:00:00 | |
| DO2SHX-10 | 2026-09-02 12:05:29 | 52.70266 | 10.70538 | 161° | 13km/h | 25613m | 7.0m/s | -48.6°C | 2.7% | 24.3hPa | 2.5V | 00:00:00 | 02:14:43 | 00:00:00 | |
| BIOWL1-15 | 2026-09-02 12:05:28 | 52.70332 | 10.70464 | 129° | 24km/h | 25498m | 5.7m/s | -48.8°C | 0% | 24.8hPa | 2.5V | 03:44:24 | 02:14:22 | 00:00:00 | |
| DL1XH-15 | 2026-09-02 12:05:28 | 52.70267 | 10.70534 | 99° | 7km/h | 25602m | 4.5m/s | -48.6°C | 2.8% | 24.4hPa | 2.5V | 03:44:01 | 02:14:41 | 00:00:00 | |
| HSKMA3-T | 2026-09-02 12:05:26 | 52.70268 | 10.70530 | 113° | 11km/h | 25596m | 5.4m/s | -48.7°C | 0% | 24.4hPa | 2.6V | 03:44:24 | 02:14:40 | 00:00:00 | |
| DB0DAN | 2026-09-02 12:05:25 | 52.70270 | 10.70526 | 127° | 15km/h | 25590m | 6.3m/s | -48.7°C | 0.3% | 24.47hPa | 2.7V | 00:00:00 | 00:00:00 | 00:00:00 | |
| AA1-15 | 2026-09-02 12:05:23 | 52.70277 | 10.70515 | 148° | 22km/h | 25580m | 4.5m/s | -48.7°C | 0% | 24.5hPa | 2.7V | 03:44:24 | 02:14:37 | 00:00:00 | |
| SONCRA | 2026-09-02 12:05:22 | 52.70287 | 10.70508 | 164° | 18km/h | 25569m | 6.1m/s | -48.8°C | 0.4% | 24.5hPa | 2.5V | 00:00:00 | 00:00:00 | 00:00:00 | |
| SO1NDE-10 | 2026-09-02 12:05:21 | 52.70287 | 10.70508 | 165° | 22km/h | 25569m | 6.1m/s | -48.8°C | 2.7% | 24.5hPa | 2.5V | 00:00:00 | 02:14:35 | 00:00:00 | |
| DL1NUX | 2026-09-02 12:05:19 | 52.70320 | 10.70497 | 148° | 18km/h | 25531m | 5.1m/s | -48.7°C | 2.8% | 24.7hPa | 2.5V | 03:44:14 | 02:14:28 | 00:00:00 | |
| DL1XH-west | 2026-09-02 12:05:17 | 52.70315 | 10.70501 | 156° | 20km/h | 25536m | 5.1m/s | -48.7°C | 0% | 24.7hPa | 2.7V | 03:44:24 | 02:14:29 | 00:00:00 | |
| HSKMA3-T | 2026-09-02 12:05:16 | 52.70310 | 10.70504 | 163° | 20km/h | 25542m | 6.2m/s | -48.8°C | 0% | 24.6hPa | 2.7V | 03:44:24 | 02:14:30 | 00:00:00 | |
| AA1-15 | 2026-09-02 12:05:12 | 52.70326 | 10.70489 | 120° | 13km/h | 25519m | 6.5m/s | -48.8°C | 0% | 24.8hPa | 2.5V | 03:44:24 | 02:14:26 | 00:00:00 | |
| DB0DAN | 2026-09-02 12:05:10 | 52.70328 | 10.70478 | 107° | 15km/h | 25509m | 4.5m/s | -48.9°C | 0.3% | 24.79hPa | 2.7V | 00:00:00 | 00:00:00 | 00:00:00 | |
| DL1NUX | 2026-09-02 12:05:09 | 52.70351 | 10.70438 | 151° | 24km/h | 25475m | 4.8m/s | -49.1°C | 2.7% | 24.9hPa | 2.7V | 03:44:24 | 02:14:18 | 00:00:00 | |
| BIOWL1-15 | 2026-09-02 12:05:08 | 52.70337 | 10.70456 | 136° | 26km/h | 25492m | 5.3m/s | -48.9°C | 0% | 24.8hPa | 2.5V | 03:44:24 | 02:14:21 | 00:00:00 | |
| DL1XH-15 | 2026-09-02 12:05:08 | 52.70337 | 10.70456 | 135° | 26km/h | 25492m | 5.3m/s | -48.9°C | 2.7% | 24.8hPa | 2.5V | 03:44:21 | 02:14:21 | 00:00:00 | |
| HSKMA3-T | 2026-09-02 12:05:05 | 52.70346 | 10.70443 | 148° | 24km/h | 25480m | 6.2m/s | -49°C | 0% | 24.9hPa | 2.7V | 03:44:24 | 02:14:19 | 00:00:00 | |
| DF8AY | 2026-09-02 12:05:02 | 52.70362 | 10.70429 | 149° | 26km/h | 25466m | 5.6m/s | -49.3°C | 0% | 24.9hPa | 2.5V | 03:45:15 | 02:14:16 | 00:00:00 | |
| AA1-15 | 2026-09-02 12:05:01 | 52.70368 | 10.70423 | 147° | 29km/h | 25460m | 6.2m/s | -49.3°C | 0% | 24.9hPa | 2.6V | 03:45:15 | 02:14:15 | 00:00:00 | |
| DO3MHA-11 | 2026-09-02 12:05:01 | 52.70368 | 10.70423 | 147° | 27km/h | 25461m | 6.2m/s | -49.2°C | 2.8% | 24.9hPa | 2.5V | 00:00:00 | 02:14:15 | 00:00:00 | |
| DL1NUX | 2026-09-02 12:04:59 | 52.70396 | 10.70377 | 115° | 22km/h | 25421m | 6.9m/s | -49.3°C | 2.8% | 25.1hPa | 2.5V | 03:44:34 | 02:14:08 | 00:00:00 | |
| BIOWL1-15 | 2026-09-02 12:04:58 | 52.70392 | 10.70390 | 129° | 16km/h | 25432m | 4.7m/s | -49.2°C | 0% | 25.1hPa | 2.7V | 03:45:15 | 02:14:10 | 00:00:00 | |
| DL1XH1-15 | 2026-09-02 12:04:58 | 52.70389 | 10.70395 | 137° | 18km/h | 25437m | 6.5m/s | -49.2°C | 2.8% | 25hPa | 2.7V | 03:44:31 | 02:14:11 | 00:00:00 | |
| GOEST3-10 | 2026-09-02 12:04:58 | 52.70384 | 10.70401 | 141° | 20km/h | 25443m | 6.2m/s | -49.1°C | 2.8% | 25.0hPa | 2.7V | 03:44:00 | 00:00:00 | 00:00:00 | |
| DB0DAN | 2026-09-02 12:04:55 | 52.70394 | 10.70384 | 119° | 16km/h | 25427m | 4.8m/s | -49.3°C | 0.4% | 25.05hPa | 2.5V | 00:00:00 | 00:00:00 | 00:00:00 | |
| DL1XH-west | 2026-09-02 12:04:55 | 52.70394 | 10.70384 | 119° | 18km/h | 25427m | 4.8m/s | -49.3°C | 0% | 25.1hPa | 2.5V | 03:45:15 | 02:14:09 | 00:00:00 | |
| HSKMA3-T | 2026-09-02 12:04:54 | 52.70396 | 10.70377 | 115° | 22km/h | 25421m | 6.9m/s | -49.3°C | 0% | 25.1hPa | 2.5V | 03:45:15 | 02:14:08 | 00:00:00 | |
| DD8BA-10 | 2026-09-02 12:04:53 | 52.70399 | 10.70368 | 117° | 26km/h | 25415m | 5.7m/s | -49.2°C | 2.8% | 25.1hPa | 2.7V | 00:00:00 | 00:00:00 | 00:00:00 | |
| DM0DOS-11 | 2026-09-02 12:04:52 | 52.70406 | 10.70348 | 127° | 29km/h | 25404m | 5.5m/s | -49.4°C | 2.8% | 25.2hPa | 2.7V | 03:44:37 | 02:14:05 | 00:00:00 | |
| AA1-15 | 2026-09-02 12:04:51 | 52.70411 | 10.70339 | 136° | 27km/h | 25398m | 6.4m/s | -49.5°C | 0% | 25.2hPa | 2.7V | 03:45:15 | 02:14:04 | 00:00:00 | |
| AM1SDL-15 | 2026-09-02 12:04:50 | 52.70411 | 10.70339 | 136° | 20km/h | 25398m | 6.4m/s | -49.4°C | 2.8% | 25.2hPa | 2.7V | 00:00:00 | 02:14:04 | 00:00:00 | |
| DL1NUX | 2026-09-02 12:04:49 | 52.70443 | 10.70305 | 136° | 22km/h | 25365m | 4.7m/s | -49.5°C | 3% | 25.3hPa | 2.7V | 03:44:44 | 02:13:58 | 00:00:00 | |
| DL1XH-15 | 2026-09-02 12:04:48 | 52.70427 | 10.70322 | 154° | 26km/h | 25382m | 5.6m/s | -49.5°C | 2.8% | 25.3hPa | 2.7V | 03:44:41 | 02:14:01 | 00:00:00 | |
| BIOWL1-15 | 2026-09-02 12:04:46 | 52.70439 | 10.70311 | 143° | 26km/h | 25370m | 5.2m/s | -49.6°C | 0% | 25.3hPa | 2.7V | 03:45:15 | 02:13:59 | 00:00:00 | |
| DL1XH-west | 2026-09-02 12:04:44 | 52.70443 | 10.70305 | 136° | 22km/h | 25365m | 4.7m/s | -49.5°C | 0% | 25.3hPa | 2.7V | 03:45:15 | 02:13:58 | 00:00:00 | |
| HSKMA3-T | 2026-09-02 12:04:43 | 52.70447 | 10.70299 | 129° | 18km/h | 25360m | 5.3m/s | -49.5°C | 0% | 25.4hPa | 2.5V | 03:45:15 | 02:13:57 | 00:00:00 | |
| DD8BA-10 | 2026-09-02 12:04:43 | 52.70447 | 10.70299 | 130° | 16km/h | 25361m | 5.2m/s | -49.4°C | 2.9% | 25.3hPa | 2.5V | 00:00:00 | 00:00:00 | 00:00:00 | |
| DM0DOS-11 | 2026-09-02 12:04:42 | 52.70450 | 10.70290 | 100° | 9km/h | 25348m | 5.8m/s | -49.5°C | 2.9% | 25.4hPa | 2.6V | 03:44:47 | 02:13:55 | 00:00:00 | |
| DO3MHA-11 | 2026-09-02 12:04:42 | 52.70449 | 10.70293 | 119° | 15km/h | 25355m | 6.4m/s | -49.5°C | 2.9% | 25.3hPa | 2.7V | 00:00:00 | 02:13:56 | 00:00:00 | |
| DB0DAN | 2026-09-02 12:04:40 | 52.70450 | 10.70286 | 86° | 9km/h | 25343m | 5.2m/s | -49.5°C | 0.3% | 25.4hPa | 2.7V | 00:00:00 | 00:00:00 | 00:00:00 | |
| DF8AY | 2026-09-02 12:04:39 | 52.70450 | 10.70282 | 87° | 13km/h | 25337m | 6.3m/s | -49.6°C | 0% | 25.4hPa | 2.7V | 03:45:15 | 02:13:53 | 00:00:00 | |
| SONDE2-11 | 2026-09-02 12:04:39 | 52.70450 | 10.70276 | 92° | 16km/h | 25331m | 6.6m/s | -49.6°C | 0.4% | 25.5hPa | 2.7V | 00:00:00 | 00:00:00 | 00:00:00 | |
| GOEST3-10 | 2026-09-02 12:04:38 | 52.70450 | 10.70276 | 93° | 20km/h | 25331m | 6.5m/s | -49.6°C | 2.8% | 25.4hPa | 2.7V | 03:44:00 | 00:00:00 | 00:00:00 | |
| DM0DOS-11 | 2026-09-02 12:04:37 | 52.70461 | 10.70224 | 112° | 15km/h | 25292m | 5.5m/s | -49.9°C | 2.9% | 25.6hPa | 2.7V | 03:44:57 | 02:13:45 | 00:00:00 | |
| DL1XH-west | 2026-09-02 12:04:34 | 52.70458 | 10.70235 | 116° | 16km/h | 25302m | 5.7m/s | -49.8°C | 0% | 25.6hPa | 2.7V | 03:45:15 | 02:13:47 | 00:00:00 | |
| HSKMA3-T | 2026-09-02 12:04:32 | 52.70459 | 10.70229 | 116° | 15km/h | 25297m | 5.1m/s | -49.9°C | 0% | 25.6hPa | 2.7V | 03:45:15 | 02:13:46 | 00:00:00 | |
| AA1-15 | 2026-09-02 12:04:30 | 52.70462 | 10.70217 | 108° | 16km/h | 25286m | 6.6m/s | -49.9°C | 0% | 25.6hPa | 2.7V | 03:45:15 | 02:13:44 | 00:00:00 | |
| GOEST3-10 | 2026-09-02 12:04:28 | 52.70464 | 10.70204 | 96° | 13km/h | 25276m | 4.4m/s | -49.9°C | 3.0% | 25.6hPa | 2.6V | 00:00:00 | 00:00:00 | 00:00:00 | |
| DM0DOS-11 | 2026-09-02 12:04:26 | 52.70456 | 10.70168 | 85° | 20km/h | 25234m | 5m/s | -50.1°C | 2.9% | 25.8hPa | 2.7V | 03:45:07 | 02:13:35 | 00:00:00 | |
| DB0DAN | 2026-09-02 12:04:25 | 52.70462 | 10.70190 | 46° | 9km/h | 25257m | 5.7m/s | -50°C | 0.3% | 25.75hPa | 2.7V | 00:00:00 | 00:00:00 | 00:00:00 | |
| BIOWL1-15 | 2026-09-02 12:04:24 | 52.70460 | 10.70187 | 48° | 11km/h | 25252m | 4.8m/s | -50°C | 0% | 25.8hPa | 2.7V | 03:45:15 | 02:13:38 | 00:00:00 | |
| DL1XH-west | 2026-09-02 12:04:24 | 52.70459 | 10.70182 | 62° | 15km/h | 25246m | 6.2m/s | -50.1°C | 0% | 25.8hPa | 2.6V | 03:45:15 | 02:13:37 | 00:00:00 | |
| HSKMA3-T | 2026-09-02 12:04:21 | 52.70456 | 10.70168 | 86° | 20km/h | 25234m | 5m/s | -50.1°C | 0% | 25.8hPa | 2.7V | 03:45:15 | 02:13:35 | 00:00:00 | |
| DF8AY | 2026-09-02 12:04:19 | 52.70457 | 10.70148 | 108° | 13km/h | 25216m | 5.7m/s | -50°C | 0% | 25.9hPa | 2.7V | 03:45:15 | 02:13:32 | 00:00:00 | |
| AA1-15 | 2026-09-02 12:04:19 | 52.70456 | 10.70153 | 100° | 15km/h | 25222m | 7.5m/s | -50°C | 0% | 25.9hPa | 2.7V | 03:45:15 | 02:13:33 | 00:00:00 | |
| BIOWL1-15 | 2026-09-02 12:04:13 | 52.70458 | 10.70127 | 32° | 7km/h | 25188m | 6.1m/s | -49.9°C | 0% | 26hPa | 2.7V | 03:45:15 | 02:13:27 | 00:00:00 | |
| HSKMA3-T | 2026-09-02 12:04:11 | 52.70453 | 10.70127 | 353° | 13km/h | 25175m | 5.8m/s | -49.9°C | 0% | 26.1hPa | 2.7V | 03:46:06 | 02:13:25 | 00:00:00 | |
| DB0DAN | 2026-09-02 12:04:10 | 52.70449 | 10.70127 | 3° | 15km/h | 25169m | 5.5m/s | -49.9°C | 0.4% | 26.12hPa | 2.5V | 00:00:00 | 00:00:00 | 00:00:00 | |
| AA1-15 | 2026-09-02 12:04:09 | 52.70442 | 10.70123 | 34° | 15km/h | 25157m | 4.8m/s | -49.8°C | 0% | 26.2hPa | 2.6V | 03:46:06 | 02:13:22 | 00:00:00 | |
| DL1XH-15 | 2026-09-02 12:04:08 | 52.70440 | 10.70119 | 40° | 15km/h | 25152m | 4.6m/s | -49.9°C | 2.8% | 26.2hPa | 2.7V | 03:45:21 | 02:13:21 | 00:00:00 | |
| BIOWL1-15 | 2026-09-02 12:04:06 | 52.70429 | 10.70102 | 58° | 13km/h | 25123m | 6.4m/s | -49.9°C | 0% | 26.3hPa | 2.5V | 03:46:06 | 02:13:16 | 00:00:00 | |
| DF8AY | 2026-09-02 12:04:06 | 52.70437 | 10.70115 | 39° | 13km/h | 25147m | 6.4m/s | -50°C | 0% | 26.2hPa | 2.7V | 03:46:06 | 02:13:20 | 00:00:00 | |
| DL1NUX | 2026-09-02 12:04:06 | 52.70432 | 10.70109 | 44° | 9km/h | 25135m | 5m/s | -49.8°C | 2.9% | 26.2hPa | 2.7V | 03:45:24 | 02:13:18 | 00:00:00 | |
| DM0DOS-11 | 2026-09-02 12:04:05 | 52.70427 | 10.70098 | 55° | 11km/h | 25118m | 4.8m/s | -49.9°C | 2.9% | 26.3hPa | 2.6V | 03:45:27 | 02:13:15 | 00:00:00 | |
| DL1XH-west | 2026-09-02 12:04:01 | 52.70427 | 10.70098 | 55° | 11km/h | 25118m | 4.8m/s | -49.9°C | 0% | 26.3hPa | 2.6V | 03:46:06 | 02:13:15 | 00:00:00 | |
| HSKMA3-T | 2026-09-02 12:04:00 | 52.70426 | 10.70095 | 34° | 11km/h | 25113m | 4.6m/s | -49.9°C | 0% | 26.3hPa | 2.7V | 03:46:06 | 02:13:14 | 00:00:00 | |
| AA1-15 | 2026-09-02 12:03:59 | 52.70421 | 10.70095 | 332° | 13km/h | 25101m | 6.4m/s | -49.9°C | 0% | 26.4hPa | 2.7V | 03:46:06 | 02:13:12 | 00:00:00 | |
| GOEST3-10 | 2026-09-02 12:03:58 | 52.70421 | 10.70095 | 333° | 13km/h | 25101m | 6.4m/s | -49.9°C | 2.9% | 26.3hPa | 2.7V | 03:45:00 | 00:00:00 | 00:00:00 | |
| DB0NH | 2026-09-02 12:03:56 | 52.70415 | 10.70101 | 328° | 9km/h | 25090m | 5.1m/s | -50.1°C | 2.9% | 26.4hPa | 2.7V | 03:45:00 | 02:13:10 | 00:00:00 | |
| DF8AY | 2026-09-02 12:03:56 | 52.70412 | 10.70103 | 343° | 13km/h | 25084m | 6.5m/s | -50°C | 0% | 26.4hPa | 2.5V | 03:46:06 | 02:13:09 | 00:00:00 | |
| DM0DOS-11 | 2026-09-02 12:03:55 | 52.70403 | 10.70099 | 44° | 5km/h | 25061m | 6.9m/s | -50.2°C | 2.9% | 26.6hPa | 2.7V | 03:45:37 | 02:13:05 | 00:00:00 | |
| DB0DAN | 2026-09-02 12:03:55 | 52.70412 | 10.70103 | 343° | 13km/h | 25084m | 6.5m/s | -50°C | 0.4% | 26.44hPa | 2.5V | 00:00:00 | 00:00:00 | 00:00:00 | |
| BIOWL1-15 | 2026-09-02 12:03:53 | 52.70405 | 10.70100 | 39° | 7km/h | 25067m | 5.9m/s | -50.1°C | 0% | 26.5hPa | 2.7V | 03:46:06 | 02:13:06 | 00:00:00 | |
| HSKMA3-T | 2026-09-02 12:03:50 | 52.70403 | 10.70097 | 69° | 4km/h | 25055m | 5.3m/s | -50.1°C | 0% | 26.6hPa | 2.6V | 03:46:06 | 02:13:04 | 00:00:00 | |
| AA1-15 | 2026-09-02 12:03:48 | 52.70402 | 10.70090 | 86° | 9km/h | 25037m | 6m/s | -50.2°C | 0% | 26.6hPa | 2.7V | 03:46:06 | 02:13:01 | 00:00:00 | |
| DF8AY | 2026-09-02 12:03:44 | 52.70400 | 10.70084 | 337° | 5km/h | 25020m | 6.9m/s | -50.4°C | 0% | 26.7hPa | 2.5V | 03:46:06 | 02:12:58 | 00:00:00 | |
| BIOWL1-15 | 2026-09-02 12:03:44 | 52.70394 | 10.70089 | 349° | 11km/h | 25003m | 6.4m/s | -50.4°C | 0% | 26.8hPa | 2.7V | 03:46:06 | 02:12:55 | 00:00:00 | |
| HSKMA3-T | 2026-09-02 12:03:40 | 52.70392 | 10.70089 | 16° | 11km/h | 24997m | 6m/s | -50.4°C | 0% | 26.8hPa | 2.7V | 03:46:06 | 02:12:54 | 00:00:00 | |
| DB0DAN | 2026-09-02 12:03:40 | 52.70392 | 10.70089 | 16° | 9km/h | 24996m | 6m/s | -50.4°C | 0.4% | 26.84hPa | 2.7V | 00:00:00 | 00:00:00 | 00:00:00 | |
| DL1XH-west | 2026-09-02 12:03:40 | 52.70387 | 10.70085 | 32° | 11km/h | 24985m | 6.4m/s | -50.6°C | 0% | 26.9hPa | 2.7V | 03:46:06 | 02:12:52 | 00:00:00 | |
| AA1-15 | 2026-09-02 12:03:38 | 52.70384 | 10.70080 | 64° | 7km/h | 24973m | 4.2m/s | -50.5°C | 0% | 26.9hPa | 2.5V | 03:46:06 | 02:12:50 | 00:00:00 | |
| MECKS9 | 2026-09-02 12:03:37 | 52.70387 | 10.70085 | 33° | 11km/h | 24985m | 6.4m/s | -50.6°C | 0.4% | 26.8hPa | 2.7V | 03:46:00 | 00:00:00 | 00:00:00 | |
| DL1NUX | 2026-09-02 12:03:36 | 52.70384 | 10.70073 | 105° | 11km/h | 24962m | 7.5m/s | -50.6°C | 2.9% | 27hPa | 2.7V | 03:45:54 | 02:12:48 | 00:00:00 | |
| DM0DOS-11 | 2026-09-02 12:03:35 | 52.70387 | 10.70060 | 104° | 7km/h | 24943m | 6.8m/s | -50.6°C | 3.1% | 27hPa | 2.7V | 03:45:57 | 02:12:45 | 00:00:00 | |
| DF8AY | 2026-09-02 12:03:34 | 52.70385 | 10.70068 | 113° | 15km/h | 24955m | 6.2m/s | -50.7°C | 0% | 27hPa | 2.7V | 03:46:06 | 02:12:47 | 00:00:00 | |
| BIOWL1-15 | 2026-09-02 12:03:32 | 52.70387 | 10.70060 | 104° | 7km/h | 24943m | 6.8m/s | -50.6°C | 0% | 27hPa | 2.7V | 03:46:06 | 02:12:45 | 00:00:00 | |
| DL1XH-west | 2026-09-02 12:03:29 | 52.70383 | 10.70054 | 27° | 11km/h | 24927m | 6.3m/s | -50.7°C | 0% | 27.1hPa | 2.5V | 03:46:06 | 02:12:42 | 00:00:00 | |
| HSKMA3-T | 2026-09-02 12:03:29 | 52.70386 | 10.70056 | 28° | 7km/h | 24932m | 4.1m/s | -50.6°C | 0% | 27.1hPa | 2.5V | 03:46:06 | 02:12:43 | 00:00:00 | |
| DL1NUX | 2026-09-02 12:03:29 | 52.70372 | 10.70041 | 34° | 13km/h | 24903m | 6.7m/s | -50.9°C | 3% | 27.2hPa | 2.7V | 03:46:04 | 02:12:38 | 00:00:00 | |
| DL1XH-15 | 2026-09-02 12:03:28 | 52.70381 | 10.70051 | 35° | 15km/h | 24920m | 6.7m/s | -50.8°C | 3% | 27.1hPa | 2.7V | 03:46:01 | 02:12:41 | 00:00:00 | |
| AA1-15 | 2026-09-02 12:03:25 | 52.70375 | 10.70044 | 36° | 15km/h | 24909m | 5.4m/s | -51°C | 0% | 27.2hPa | 2.7V | 03:46:06 | 02:12:39 | 00:00:00 | |
| DM0DOS-11 | 2026-09-02 12:03:25 | 52.70368 | 10.70030 | 95° | 13km/h | 24886m | 6.9m/s | -50.9°C | 3% | 27.3hPa | 2.6V | 03:46:07 | 02:12:35 | 00:00:00 | |
| DB0DAN | 2026-09-02 12:03:25 | 52.70375 | 10.70044 | 36° | 15km/h | 24909m | 5.4m/s | -51°C | 0.4% | 27.18hPa | 2.7V | 00:00:00 | 00:00:00 | 00:00:00 | |
| DF8AY | 2026-09-02 12:03:22 | 52.70368 | 10.70030 | 95° | 13km/h | 24886m | 6.9m/s | -50.9°C | 0% | 27.3hPa | 2.6V | 03:46:57 | 02:12:35 | 00:00:00 | |
| HSKMA3-T | 2026-09-02 12:03:19 | 52.70371 | 10.70016 | 116° | 22km/h | 24874m | 5.5m/s | -51°C | 0% | 27.3hPa | 2.7V | 03:46:57 | 02:12:33 | 00:00:00 | |
| DL1XH-15 | 2026-09-02 12:03:18 | 52.70377 | 10.70002 | 128° | 18km/h | 24861m | 7m/s | -51.1°C | 3.1% | 27.4hPa | 2.7V | 03:46:11 | 02:12:31 | 00:00:00 | |
| DL1XH-west | 2026-09-02 12:03:18 | 52.70376 | 10.70002 | 128° | 18km/h | 24861m | 7m/s | -51.1°C | 0% | 27.4hPa | 2.7V | 03:46:57 | 02:12:31 | 00:00:00 | |
| SONCRA | 2026-09-02 12:03:18 | 52.70376 | 10.70002 | 128° | 16km/h | 24862m | 7.0m/s | -51.1°C | 0.5% | 27.4hPa | 2.5V | 00:00:00 | 00:00:00 | 00:00:00 | |
| DM0DOS-11 | 2026-09-02 12:03:15 | 52.70380 | 10.69962 | 57° | 13km/h | 24822m | 6.1m/s | -51.2°C | 3.1% | 27.6hPa | 2.5V | 03:46:18 | 02:12:24 | 00:00:00 | |
| AA1-15 | 2026-09-02 12:03:15 | 52.70383 | 10.69986 | 108° | 15km/h | 24844m | 6.5m/s | -51.2°C | 0% | 27.4hPa | 2.6V | 03:46:57 | 02:12:28 | 00:00:00 | |
| DF8AY | 2026-09-02 12:03:11 | 52.70380 | 10.69962 | 58° | 13km/h | 24822m | 6.1m/s | -51.2°C | 0% | 27.6hPa | 2.5V | 03:46:57 | 02:12:24 | 00:00:00 | |
| DB0DAN | 2026-09-02 12:03:10 | 52.70380 | 10.69962 | 58° | 11km/h | 24822m | 6.1m/s | -51.2°C | 0.4% | 27.57hPa | 2.5V | 00:00:00 | 00:00:00 | 00:00:00 | |
| HSKMA3-T | 2026-09-02 12:03:09 | 52.70379 | 10.69959 | 43° | 9km/h | 24816m | 6.1m/s | -51.2°C | 0% | 27.6hPa | 2.6V | 03:46:57 | 02:12:23 | 00:00:00 | |
| BIOWL1-15 | 2026-09-02 12:03:08 | 52.70373 | 10.69950 | 61° | 13km/h | 24798m | 6.6m/s | -51.5°C | 0% | 27.6hPa | 2.7V | 03:46:57 | 02:12:20 | 00:00:00 | |
| DL1XH-15 | 2026-09-02 12:03:08 | 52.70375 | 10.69953 | 43° | 11km/h | 24804m | 6m/s | -51.4°C | 3.1% | 27.6hPa | 2.7V | 03:46:21 | 02:12:21 | 00:00:00 | |
| DL1XH-west | 2026-09-02 12:03:08 | 52.70375 | 10.69953 | 43° | 11km/h | 24804m | 6m/s | -51.4°C | 0% | 27.6hPa | 2.7V | 03:46:57 | 02:12:21 | 00:00:00 | |
| SMARD9-15 | 2026-09-02 12:03:07 | 52.70373 | 10.69950 | 61° | 11km/h | 24798m | 6.6m/s | -51.5°C | 0.5% | 27.6hPa | 2.5V | 00:00:00 | 00:00:00 | 00:00:00 | |
| DL1NUX | 2026-09-02 12:03:06 | 52.70372 | 10.69940 | 94° | 11km/h | 24787m | 5.1m/s | -51.5°C | 3.2% | 27.7hPa | 2.5V | 03:46:24 | 02:12:18 | 00:00:00 | |
| AA1-15 | 2026-09-02 12:03:04 | 52.70372 | 10.69936 | 116° | 9km/h | 24781m | 7.2m/s | -51.4°C | 0% | 27.7hPa | 2.6V | 03:46:57 | 02:12:17 | 00:00:00 | |
| DF8AY | 2026-09-02 12:02:59 | 52.70379 | 10.69923 | 103° | 11km/h | 24757m | 5.9m/s | -51.3°C | 0% | 27.8hPa | 2.7V | 03:46:57 | 02:12:13 | 00:00:00 | |
| DO3MHA-11 | 2026-09-02 12:02:59 | 52.70379 | 10.69923 | 103° | 7km/h | 24757m | 5.8m/s | -51.3°C | 3.2% | 27.8hPa | 2.7V | 00:00:00 | 02:12:13 | 00:00:00 | |
| DL1XH-15 | 2026-09-02 12:02:58 | 52.70378 | 10.69916 | 61° | 7km/h | 24747m | 5.2m/s | -51.5°C | 3.2% | 27.9hPa | 2.5V | 03:46:31 | 02:12:11 | 00:00:00 | |
| HSKMA3-T | 2026-09-02 12:02:58 | 52.70379 | 10.69919 | 81° | 9km/h | 24752m | 4.8m/s | -51.3°C | 0% | 27.9hPa | 2.7V | 03:46:57 | 02:12:12 | 00:00:00 | |
| GOEST3-10 | 2026-09-02 12:02:58 | 52.70379 | 10.69919 | 82° | 7km/h | 24752m | 4.8m/s | -51.3°C | 3.2% | 27.8hPa | 2.7V | 03:46:00 | 00:00:00 | 00:00:00 | |
| DM0DOS-11 | 2026-09-02 12:02:56 | 52.70370 | 10.69913 | 103° | 5km/h | 24711m | 4.8m/s | -51.3°C | 3.1% | 28hPa | 2.7V | 03:46:37 | 02:12:05 | 00:00:00 | |
| BIOWL1-15 | 2026-09-02 12:02:56 | 52.70377 | 10.69914 | 19° | 5km/h | 24741m | 7.3m/s | -51.6°C | 0% | 27.9hPa | 2.5V | 03:46:57 | 02:12:10 | 00:00:00 | |
| DL1NUX | 2026-09-02 12:02:56 | 52.70374 | 10.69915 | 339° | 7km/h | 24728m | 5.1m/s | -51.5°C | 3.2% | 27.9hPa | 2.7V | 03:46:34 | 02:12:08 | 00:00:00 | |
| DB0DAN | 2026-09-02 12:02:55 | 52.70376 | 10.69914 | 341° | 5km/h | 24734m | 5.9m/s | -51.5°C | 0.4% | 27.94hPa | 2.6V | 00:00:00 | 00:00:00 | 00:00:00 | |
| AA1-15 | 2026-09-02 12:02:53 | 52.70371 | 10.69915 | 36° | 5km/h | 24717m | 5.6m/s | -51.3°C | 0% | 28hPa | 2.7V | 03:46:57 | 02:12:06 | 00:00:00 | |
| DF8AY | 2026-09-02 12:02:50 | 52.70374 | 10.69909 | 164° | 13km/h | 24700m | 6.7m/s | -51.4°C | 0% | 28.1hPa | 2.6V | 03:46:57 | 02:12:03 | 00:00:00 | |
| DL1NUX | 2026-09-02 12:02:49 | 52.70393 | 10.69902 | 137° | 13km/h | 24672m | 5.7m/s | -51.1°C | 3.2% | 28.2hPa | 2.7V | 03:46:44 | 02:11:58 | 00:00:00 | |
| HSKMA3-T | 2026-09-02 12:02:47 | 52.70382 | 10.69908 | 177° | 18km/h | 24689m | 4.3m/s | -51.2°C | 0% | 28.1hPa | 2.7V | 03:46:57 | 02:12:01 | 00:00:00 | |
| DJ2DS-15 | 2026-09-02 12:02:47 | 52.70386 | 10.69907 | 169° | 16km/h | 24684m | 5.7m/s | -51.2°C | 0.5% | 28.1hPa | 2.6V | 00:00:00 | 00:00:00 | 00:00:00 | |
| DM0DOS-11 | 2026-09-02 12:02:46 | 52.70396 | 10.69895 | 122° | 2km/h | 24655m | 6.5m/s | -51°C | 3.1% | 28.3hPa | 2.6V | 03:46:47 | 02:11:55 | 00:00:00 | |
| BIOWL1-15 | 2026-09-02 12:02:46 | 52.70390 | 10.69905 | 157° | 15km/h | 24678m | 6.5m/s | -51.1°C | 0% | 28.1hPa | 2.7V | 03:46:57 | 02:11:59 | 00:00:00 | |
| AA1-15 | 2026-09-02 12:02:42 | 52.70395 | 10.69896 | 105° | 5km/h | 24661m | 5.6m/s | -51.2°C | 0% | 28.2hPa | 2.5V | 03:46:57 | 02:11:56 | 00:00:00 | |
| DB0DAN | 2026-09-02 12:02:40 | 52.70396 | 10.69895 | 251° | 4km/h | 24649m | 5.3m/s | -51°C | 0.5% | 28.31hPa | 2.7V | 00:00:00 | 00:00:00 | 00:00:00 | |
| DO3MHA-11 | 2026-09-02 12:02:39 | 52.70396 | 10.69896 | 271° | 13km/h | 24644m | 4.9m/s | -50.9°C | 3.0% | 28.3hPa | 2.7V | 03:46:00 | 02:11:53 | 00:00:00 | |
| DL1XH1-15 | 2026-09-02 12:02:38 | 52.70396 | 10.69897 | 113° | 4km/h | 24632m | 6.5m/s | -51°C | 3.1% | 28.4hPa | 2.7V | 03:46:51 | 02:11:51 | 00:00:00 | |
| HSKMA3-T | 2026-09-02 12:02:37 | 52.70396 | 10.69897 | 113° | 4km/h | 24632m | 6.5m/s | -51°C | 0% | 28.4hPa | 2.7V | 03:46:57 | 02:11:51 | 00:00:00 | |
| BIOWL1-15 | 2026-09-02 12:02:36 | 52.70405 | 10.69883 | 153° | 18km/h | 24608m | 6.6m/s | -50.8°C | 0% | 28.5hPa | 2.7V | 03:46:57 | 02:11:47 | 00:00:00 | |
| DL1XH-west | 2026-09-02 12:02:35 | 52.70401 | 10.69886 | 143° | 16km/h | 24615m | 6.4m/s | -50.9°C | 0% | 28.4hPa | 2.6V | 03:46:57 | 02:11:48 | 00:00:00 | |
| AA1-15 | 2026-09-02 12:02:32 | 52.70414 | 10.69875 | 149° | 20km/h | 24598m | 3.8m/s | -50.8°C | 0% | 28.5hPa | 2.7V | 03:46:57 | 02:11:45 | 00:00:00 | |
| DL1NUX | 2026-09-02 12:02:29 | 52.70423 | 10.69851 | 27° | 4km/h | 24559m | 5.4m/s | -50.9°C | 3.1% | 28.7hPa | 2.7V | 03:47:04 | 02:11:38 | 00:00:00 | |
| DO3MHA-11 | 2026-09-02 12:02:29 | 52.70421 | 10.69864 | 127° | 9km/h | 24588m | 5.6m/s | -50.7°C | 3.1% | 28.5hPa | 2.5V | 00:00:00 | 02:11:43 | 00:00:00 | |
| DL1XH1-15 | 2026-09-02 12:02:28 | 52.70424 | 10.69855 | 99° | 9km/h | 24577m | 6m/s | -50.8°C | 3.1% | 28.6hPa | 2.6V | 03:47:01 | 02:11:41 | 00:00:00 | |
| HSKMA3-T | 2026-09-02 12:02:26 | 52.70424 | 10.69852 | 75° | 4km/h | 24571m | 6.7m/s | -50.9°C | 0% | 28.6hPa | 2.7V | 03:47:48 | 02:11:40 | 00:00:00 | |
| DB0DAN | 2026-09-02 12:02:25 | 52.70424 | 10.69851 | 11° | 4km/h | 24564m | 5.6m/s | -51°C | 0.4% | 28.72hPa | 2.7V | 00:00:00 | 00:00:00 | 00:00:00 | |
| BIOWL1-15 | 2026-09-02 12:02:24 | 52.70423 | 10.69851 | 27° | 4km/h | 24559m | 5.4m/s | -50.9°C | 0% | 28.7hPa | 2.7V | 03:47:48 | 02:11:38 | 00:00:00 | |
| DL1XH-west | 2026-09-02 12:02:23 | 52.70422 | 10.69849 | 65° | 7km/h | 24553m | 6.1m/s | -50.8°C | 0% | 28.7hPa | 2.7V | 03:47:48 | 02:11:37 | 00:00:00 | |
| AA1-15 | 2026-09-02 12:02:20 | 52.70433 | 10.69825 | 138° | 22km/h | 24526m | 4m/s | -50.8°C | 0% | 28.9hPa | 2.7V | 03:47:48 | 02:11:32 | 00:00:00 | |
| HSKMA3-T | 2026-09-02 12:02:16 | 52.70440 | 10.69810 | 116° | 24km/h | 24515m | 6.8m/s | -50.8°C | 0% | 28.9hPa | 2.7V | 03:47:48 | 02:11:30 | 00:00:00 | |
| DF8AY | 2026-09-02 12:02:16 | 52.70442 | 10.69801 | 103° | 24km/h | 24509m | 4.9m/s | -50.8°C | 0% | 28.9hPa | 2.5V | 03:47:48 | 02:11:29 | 00:00:00 | |
| DM0DOS-11 | 2026-09-02 12:02:15 | 52.70441 | 10.69774 | 66° | 13km/h | 24486m | 5.3m/s | -50.7°C | 3% | 29hPa | 2.7V | 03:47:17 | 02:11:25 | 00:00:00 | |
| DL1NUX | 2026-09-02 12:02:15 | 52.70443 | 10.69792 | 91° | 20km/h | 24504m | 5.1m/s | -50.7°C | 3.1% | 29hPa | 2.6V | 03:47:14 | 02:11:28 | 00:00:00 | |
| BIOWL1-15 | 2026-09-02 12:02:13 | 52.70446 | 10.69710 | 88° | 26km/h | 24430m | 4.9m/s | -50.7°C | 0% | 29.3hPa | 2.5V | 03:47:48 | 02:11:15 | 00:00:00 | |
| DL1XH-west | 2026-09-02 12:02:13 | 52.70442 | 10.69779 | 73° | 13km/h | 24492m | 5.8m/s | -50.8°C | 0% | 29hPa | 2.7V | 03:47:48 | 02:11:26 | 00:00:00 | |
| MECKS9 | 2026-09-02 12:02:12 | 52.70442 | 10.69785 | 88° | 16km/h | 24499m | 7.0m/s | -50.7°C | 0.4% | 29.0hPa | 2.6V | 00:00:00 | 00:00:00 | 00:00:00 | |
| DL1XH1-15 | 2026-09-02 12:02:11 | 52.70440 | 10.69749 | 125° | 13km/h | 24457m | 5.5m/s | -50.7°C | 3% | 29.1hPa | 2.6V | 03:47:22 | 02:11:20 | 00:00:00 | |
| DL4BBY-15 | 2026-09-02 12:02:11 | 52.70441 | 10.69773 | 67° | 18km/h | 24486m | 5.3m/s | -50.5°C | 0% | 0hPa | 2.7V | 00:00:00 | 00:00:00 | 00:00:00 | |
| DL1NUX | 2026-09-02 12:02:10 | 52.70444 | 10.69738 | 114° | 18km/h | 24448m | 5.9m/s | -50.7°C | 3.1% | 29.2hPa | 2.7V | 03:47:24 | 02:11:18 | 00:00:00 | |
| DO3MHA-11 | 2026-09-02 12:02:10 | 52.70438 | 10.69763 | 74° | 18km/h | 24474m | 5.4m/s | -50.7°C | 3.0% | 29.0hPa | 2.6V | 00:00:00 | 02:11:23 | 00:00:00 | |
| DF7ER-10 | 2026-09-02 12:02:09 | 52.70438 | 10.69763 | 75° | 15km/h | 24474m | 5.5m/s | -50.7°C | 0.5% | 29.1hPa | 2.6V | 03:47:00 | 00:00:00 | 00:00:00 | |
| DL1XH-15 | 2026-09-02 12:02:08 | 52.70439 | 10.69753 | 110° | 11km/h | 24463m | 6.4m/s | -50.7°C | 3.1% | 29.1hPa | 2.6V | 03:47:21 | 02:11:21 | 00:00:00 | |
| AA1-15 | 2026-09-02 12:02:07 | 52.70439 | 10.69753 | 111° | 11km/h | 24463m | 6.4m/s | -50.7°C | 0% | 29.1hPa | 2.6V | 03:47:48 | 02:11:21 | 00:00:00 | |
| DF8AY | 2026-09-02 12:02:05 | 52.70444 | 10.69738 | 115° | 18km/h | 24448m | 5.9m/s | -50.7°C | 0% | 29.2hPa | 2.7V | 03:47:48 | 02:11:18 | 00:00:00 | |
| HSKMA3-T | 2026-09-02 12:02:05 | 52.70442 | 10.69744 | 124° | 15km/h | 24453m | 3.6m/s | -50.7°C | 0% | 29.2hPa | 2.7V | 03:47:48 | 02:11:19 | 00:00:00 | |
| DM0DOS-11 | 2026-09-02 12:02:04 | 52.70446 | 10.69710 | 88° | 26km/h | 24430m | 4.8m/s | -50.7°C | 3.1% | 29.3hPa | 2.5V | 03:47:27 | 02:11:15 | 00:00:00 | |
| BIOWL1-15 | 2026-09-02 12:02:02 | 52.70446 | 10.69700 | 87° | 24km/h | 24425m | 6.6m/s | -50.7°C | 0% | 29.3hPa | 2.6V | 03:47:48 | 02:11:14 | 00:00:00 | |
| DL1XH-west | 2026-09-02 12:02:02 | 52.70446 | 10.69721 | 91° | 26km/h | 24436m | 5.5m/s | -50.6°C | 0% | 29.2hPa | 2.7V | 03:47:48 | 02:11:16 | 00:00:00 | |
| MECKS9 | 2026-09-02 12:02:02 | 52.70446 | 10.69721 | 92° | 26km/h | 24436m | 5.5m/s | -50.6°C | 0.4% | 29.2hPa | 2.5V | 00:00:00 | 00:00:00 | 00:00:00 | |
| NBG1-10 | 2026-09-02 12:02:01 | 52.70446 | 10.69710 | 89° | 20km/h | 24430m | 4.8m/s | -50.6°C | 3.1% | 29.3hPa | 2.5V | 00:00:00 | 02:11:15 | 00:00:00 | |
| DL1XH-15 | 2026-09-02 12:01:59 | 52.70444 | 10.69674 | 80° | 22km/h | 24406m | 7.2m/s | -50.7°C | 3% | 29.4hPa | 2.7V | 03:47:31 | 02:11:11 | 00:00:00 | |
| AA1-15 | 2026-09-02 12:01:57 | 52.70444 | 10.69665 | 81° | 20km/h | 24399m | 5.8m/s | -50.6°C | 0% | 29.4hPa | 2.7V | 03:47:48 | 02:11:10 | 00:00:00 | |
| DB0DAN | 2026-09-02 12:01:55 | 52.70443 | 10.69657 | 82° | 16km/h | 24394m | 4.5m/s | -50.7°C | 0.4% | 29.43hPa | 2.7V | 00:00:00 | 00:00:00 | 00:00:00 | |
| DL1NUX | 2026-09-02 12:01:55 | 52.70443 | 10.69651 | 86° | 15km/h | 24389m | 6.4m/s | -50.7°C | 3% | 29.5hPa | 2.6V | 03:47:34 | 02:11:08 | 00:00:00 | |
| HSKMA3-T | 2026-09-02 12:01:54 | 52.70443 | 10.69651 | 87° | 15km/h | 24389m | 6.4m/s | -50.7°C | 0% | 29.5hPa | 2.6V | 03:47:48 | 02:11:08 | 00:00:00 | |
| DF8AY | 2026-09-02 12:01:54 | 52.70433 | 10.69586 | 64° | 24km/h | 24331m | 5.7m/s | -50.6°C | 0% | 29.7hPa | 2.7V | 03:47:48 | 02:10:58 | 00:00:00 | |
| DL1XH-west | 2026-09-02 12:01:52 | 52.70443 | 10.69642 | 97° | 7km/h | 24376m | 5.3m/s | -50.7°C | 0% | 29.5hPa | 2.6V | 03:47:48 | 02:11:06 | 00:00:00 | |
| BIOWL1-15 | 2026-09-02 12:01:50 | 52.70442 | 10.69627 | 75° | 18km/h | 24358m | 4.9m/s | -50.6°C | 0% | 29.6hPa | 2.7V | 03:47:48 | 02:11:03 | 00:00:00 | |
| DL3AQ-11 | 2026-09-02 12:01:50 | 52.70442 | 10.69627 | 74° | 18km/h | 24358m | 4.9m/s | -50.6°C | 0.4% | 29.6hPa | 2.7V | 00:00:00 | 00:00:00 | 00:00:00 | |
| DL1NUX | 2026-09-02 12:01:49 | 52.70433 | 10.69586 | 64° | 24km/h | 24331m | 5.7m/s | -50.6°C | 3% | 29.7hPa | 2.7V | 03:47:44 | 02:10:58 | 00:00:00 | |
| TFSTFS | 2026-09-02 12:01:49 | 52.70442 | 10.69627 | 76° | 18km/h | 24358m | 4.9m/s | -50.6°C | 0.4% | 29.6hPa | 2.6V | 00:00:00 | 00:00:00 | 00:00:00 | |
| DL1XH1-15 | 2026-09-02 12:01:48 | 52.70437 | 10.69603 | 70° | 20km/h | 24342m | 5.7m/s | -50.6°C | 3% | 29.7hPa | 2.6V | 03:47:42 | 02:11:00 | 00:00:00 | |
| AA1-15 | 2026-09-02 12:01:46 | 52.70437 | 10.69603 | 70° | 20km/h | 24342m | 5.7m/s | -50.6°C | 0% | 29.7hPa | 2.6V | 03:47:48 | 02:11:00 | 00:00:00 | |
| EDDB2-12 | 2026-09-02 12:01:46 | 52.70435 | 10.69595 | 66° | 20km/h | 24337m | 4.6m/s | -50.6°C | 0.4% | 29.7hPa | 2.7V | 00:00:00 | 00:00:00 | 00:00:00 | |
| SONCRA | 2026-09-02 12:01:45 | 52.70433 | 10.69586 | 64° | 24km/h | 24331m | 5.7m/s | -50.6°C | 0.4% | 29.7hPa | 2.7V | 00:00:00 | 00:00:00 | 00:00:00 | |
| DM0DOS-11 | 2026-09-02 12:01:44 | 52.70424 | 10.69558 | 63° | 24km/h | 24314m | 5.3m/s | -50.6°C | 3% | 29.8hPa | 2.7V | 03:47:47 | 02:10:55 | 00:00:00 | |
| HSKMA3-T | 2026-09-02 12:01:43 | 52.70430 | 10.69577 | 63° | 27km/h | 24325m | 6.7m/s | -50.6°C | 0% | 29.8hPa | 2.7V | 03:47:48 | 02:10:57 | 00:00:00 | |
| DL1XH-west | 2026-09-02 12:01:42 | 52.70422 | 10.69550 | 63° | 18km/h | 24307m | 6.8m/s | -50.6°C | 0% | 29.8hPa | 2.6V | 03:47:48 | 02:10:54 | 00:00:00 | |
| DB0DAN | 2026-09-02 12:01:40 | 52.70422 | 10.69550 | 63° | 18km/h | 24307m | 6.8m/s | -50.6°C | 0.5% | 29.84hPa | 2.6V | 00:00:00 | 00:00:00 | 00:00:00 | |
| DO2SHX-10 | 2026-09-02 12:01:40 | 52.70421 | 10.69550 | 63° | 16km/h | 24308m | 6.7m/s | -50.6°C | 3.1% | 29.8hPa | 2.6V | 03:47:00 | 02:10:54 | 00:00:00 | |
| DO3MHA-11 | 2026-09-02 12:01:39 | 52.70420 | 10.69544 | 64° | 15km/h | 24302m | 5.0m/s | -50.5°C | 3.1% | 29.8hPa | 2.7V | 00:00:00 | 02:10:53 | 00:00:00 | |
| BIOWL1-15 | 2026-09-02 12:01:39 | 52.70415 | 10.69533 | 42° | 13km/h | 24285m | 6.5m/s | -50.6°C | 0% | 29.9hPa | 2.7V | 03:48:39 | 02:10:50 | 00:00:00 | |
| DL1XH-15 | 2026-09-02 12:01:38 | 52.70417 | 10.69537 | 52° | 11km/h | 24291m | 5.7m/s | -50.6°C | 3% | 29.9hPa | 2.7V | 03:47:51 | 02:10:51 | 00:00:00 | |
| DL1XH1-15 | 2026-09-02 12:01:38 | 52.70415 | 10.69533 | 42° | 13km/h | 24285m | 6.5m/s | -50.6°C | 3% | 29.9hPa | 2.7V | 03:47:52 | 02:10:50 | 00:00:00 | |
| BUE01 | 2026-09-02 12:01:38 | 52.70417 | 10.69537 | 52° | 9km/h | 24292m | 5.7m/s | -50.6°C | 0.4% | 29.9hPa | 2.7V | 00:00:00 | 00:00:00 | 00:00:00 | |
| DF7ER-10 | 2026-09-02 12:01:37 | 52.70417 | 10.69537 | 53° | 11km/h | 24292m | 5.7m/s | -50.6°C | 0.5% | 29.9hPa | 2.7V | 00:00:00 | 00:00:00 | 00:00:00 | |
| BIOWL9-15 | 2026-09-02 12:01:36 | 52.70415 | 10.69533 | 42° | 13km/h | 24285m | 6.5m/s | -50.6°C | 0.4% | 29.9hPa | 2.7V | 00:00:00 | 00:00:00 | 00:00:00 | |
| AA1-15 | 2026-09-02 12:01:36 | 52.70412 | 10.69529 | 38° | 16km/h | 24279m | 5.4m/s | -50.6°C | 0% | 29.9hPa | 2.7V | 03:48:39 | 02:10:49 | 00:00:00 | |
| DL1NUX | 2026-09-02 12:01:35 | 52.70409 | 10.69525 | 40° | 18km/h | 24274m | 4.4m/s | -50.5°C | 3% | 30hPa | 2.7V | 03:47:54 | 02:10:48 | 00:00:00 | |
| DF8AY | 2026-09-02 12:01:34 | 52.70409 | 10.69525 | 41° | 18km/h | 24274m | 4.4m/s | -50.5°C | 0% | 30hPa | 2.7V | 03:48:39 | 02:10:48 | 00:00:00 | |
| HSKMA3-T | 2026-09-02 12:01:34 | 52.70405 | 10.69520 | 43° | 18km/h | 24269m | 5.5m/s | -50.6°C | 0% | 30hPa | 2.6V | 03:48:39 | 02:10:47 | 00:00:00 | |
| DM0DOS-11 | 2026-09-02 12:01:33 | 52.70401 | 10.69510 | 57° | 15km/h | 24257m | 5.5m/s | -50.5°C | 3.1% | 30.1hPa | 2.6V | 03:47:57 | 02:10:45 | 00:00:00 | |
| DL1XH-west | 2026-09-02 12:01:31 | 52.70400 | 10.69510 | 58° | 15km/h | 24257m | 5.5m/s | -50.5°C | 0% | 30.1hPa | 2.6V | 03:48:39 | 02:10:45 | 00:00:00 | |
| MECKS9 | 2026-09-02 12:01:30 | 52.70401 | 10.69510 | 59° | 15km/h | 24258m | 5.5m/s | -50.5°C | 0.5% | 30.1hPa | 2.7V | 03:48:00 | 00:00:00 | 00:00:00 | |
| DO3MHA-11 | 2026-09-02 12:01:29 | 52.70397 | 10.69499 | 59° | 22km/h | 24247m | 4.7m/s | -50.5°C | 3.0% | 30.0hPa | 2.7V | 00:00:00 | 02:10:43 | 00:00:00 | |
| DL1XH-15 | 2026-09-02 12:01:28 | 52.70390 | 10.69484 | 52° | 27km/h | 24235m | 5.9m/s | -50.5°C | 3% | 30.2hPa | 2.7V | 03:48:01 | 02:10:41 | 00:00:00 | |
| DL1XH1-15 | 2026-09-02 12:01:28 | 52.70386 | 10.69475 | 49° | 29km/h | 24229m | 5m/s | -50.6°C | 3.1% | 30.2hPa | 2.5V | 03:48:02 | 02:10:40 | 00:00:00 | |
| BIOWL1-15 | 2026-09-02 12:01:26 | 52.70386 | 10.69475 | 50° | 29km/h | 24229m | 5.1m/s | -50.6°C | 0% | 30.2hPa | 2.5V | 03:48:39 | 02:10:40 | 00:00:00 | |
| DF7ER-10 | 2026-09-02 12:01:26 | 52.70386 | 10.69475 | 51° | 29km/h | 24230m | 5.1m/s | -50.6°C | 0.5% | 30.2hPa | 2.7V | 00:00:00 | 00:00:00 | 00:00:00 | |
| DM0DOS-11 | 2026-09-02 12:01:25 | 52.70372 | 10.69445 | 40° | 9km/h | 24201m | 6.3m/s | -50.5°C | 3% | 30.3hPa | 2.7V | 03:48:07 | 02:10:35 | 00:00:00 | |
| DB0DAN | 2026-09-02 12:01:25 | 52.70381 | 10.69466 | 50° | 24km/h | 24225m | 4.5m/s | -50.5°C | 0.5% | 30.27hPa | 2.6V | 00:00:00 | 00:00:00 | 00:00:00 | |
| DF8AY | 2026-09-02 12:01:25 | 52.70378 | 10.69459 | 54° | 22km/h | 24219m | 6.2m/s | -50.6°C | 0% | 30.3hPa | 2.6V | 03:48:39 | 02:10:38 | 00:00:00 | |
| HSKMA3-T | 2026-09-02 12:01:22 | 52.70373 | 10.69448 | 56° | 11km/h | 24207m | 5.1m/s | -50.6°C | 0% | 30.3hPa | 2.7V | 03:48:39 | 02:10:36 | 00:00:00 | |
| DL1XH1-15 | 2026-09-02 12:01:21 | 52.70361 | 10.69437 | 22° | 7km/h | 24172m | 5.4m/s | -50.6°C | 3% | 30.5hPa | 2.7V | 03:48:12 | 02:10:30 | 00:00:00 | |
| DL1XH-west | 2026-09-02 12:01:20 | 52.70367 | 10.69441 | 20° | 11km/h | 24190m | 4.5m/s | -50.6°C | 0% | 30.4hPa | 2.6V | 03:48:39 | 02:10:33 | 00:00:00 | |
| AA1-15 | 2026-09-02 12:01:15 | 52.70356 | 10.69434 | 22° | 15km/h | 24161m | 7.2m/s | -50.6°C | 0% | 30.5hPa | 2.7V | 03:48:39 | 02:10:28 | 00:00:00 | |
| DL1NUX | 2026-09-02 12:01:15 | 52.70356 | 10.69434 | 22° | 15km/h | 24160m | 7.2m/s | -50.6°C | 3% | 30.5hPa | 2.7V | 03:48:14 | 02:10:28 | 00:00:00 | |
| EDDB2-12 | 2026-09-02 12:01:15 | 52.70356 | 10.69434 | 22° | 15km/h | 24161m | 7.2m/s | -50.6°C | 0.5% | 30.5hPa | 2.6V | 00:00:00 | 00:00:00 | 00:00:00 | |
| DM0DOS-11 | 2026-09-02 12:01:14 | 52.70342 | 10.69424 | 27° | 20km/h | 24144m | 5.2m/s | -50.6°C | 3.1% | 30.6hPa | 2.6V | 03:48:17 | 02:10:25 | 00:00:00 | |
| DF8AY | 2026-09-02 12:01:14 | 52.70352 | 10.69431 | 22° | 20km/h | 24154m | 6.1m/s | -50.6°C | 0% | 30.6hPa | 2.7V | 03:48:39 | 02:10:27 | 00:00:00 | |
| HSKMA3-T | 2026-09-02 12:01:12 | 52.70347 | 10.69428 | 26° | 22km/h | 24148m | 4.5m/s | -50.6°C | 0% | 30.6hPa | 2.6V | 03:48:39 | 02:10:26 | 00:00:00 | |
| DL1XH-15 | 2026-09-02 12:01:12 | 52.70332 | 10.69411 | 47° | 9km/h | 24122m | 5.8m/s | -50.6°C | 3% | 30.7hPa | 2.7V | 03:48:21 | 02:10:21 | 00:00:00 | |
| DB0DAN | 2026-09-02 12:01:10 | 52.70338 | 10.69420 | 34° | 15km/h | 24138m | 6.2m/s | -50.6°C | 0.4% | 30.64hPa | 2.6V | 00:00:00 | 00:00:00 | 00:00:00 | |
| DL3AQ-11 | 2026-09-02 12:01:10 | 52.70335 | 10.69416 | 40° | 11km/h | 24132m | 5.0m/s | -50.6°C | 0.4% | 30.7hPa | 2.6V | 00:00:00 | 00:00:00 | 00:00:00 | |
| DL1NUX | 2026-09-02 12:01:09 | 52.70325 | 10.69402 | 38° | 13km/h | 24104m | 5.5m/s | -50.6°C | 3.1% | 30.9hPa | 2.6V | 03:48:24 | 02:10:18 | 00:00:00 | |
| DL1XH-west | 2026-09-02 12:01:09 | 52.70333 | 10.69413 | 51° | 9km/h | 24127m | 4.7m/s | -50.6°C | 0% | 30.7hPa | 2.7V | 03:48:39 | 02:10:22 | 00:00:00 | |
| AA1-15 | 2026-09-02 12:01:04 | 52.70322 | 10.69396 | 59° | 9km/h | 24092m | 6.5m/s | -50.6°C | 0% | 30.9hPa | 2.7V | 03:48:39 | 02:10:16 | 00:00:00 | |
| DF8AY | 2026-09-02 12:01:03 | 52.70308 | 10.69380 | 26° | 18km/h | 24060m | 4.3m/s | -50.6°C | 0% | 31hPa | 2.6V | 03:48:39 | 02:10:10 | 00:00:00 | |
| HSKMA3-T | 2026-09-02 12:01:01 | 52.70321 | 10.69393 | 66° | 7km/h | 24086m | 5.5m/s | -50.6°C | 0% | 30.9hPa | 2.7V | 03:48:39 | 02:10:15 | 00:00:00 | |
| EDDB2-11 | 2026-09-02 12:01:01 | 52.70320 | 10.69390 | 51° | 5km/h | 24081m | 4.3m/s | -50.6°C | 0.4% | 30.9hPa | 2.6V | 00:00:00 | 00:00:00 | 00:00:00 | |
| DL1XH1-15 | 2026-09-02 12:00:58 | 52.70308 | 10.69380 | 25° | 18km/h | 24060m | 4.3m/s | -50.6°C | 3% | 31hPa | 2.6V | 03:48:32 | 02:10:10 | 00:00:00 | |
| DL1XH-west | 2026-09-02 12:00:58 | 52.70312 | 10.69383 | 22° | 18km/h | 24064m | 4.6m/s | -50.7°C | 0% | 31hPa | 2.6V | 03:48:39 | 02:10:11 | 00:00:00 | |
| DL3AQ-11 | 2026-09-02 12:00:57 | 52.70308 | 10.69380 | 25° | 16km/h | 24060m | 4.3m/s | -50.6°C | 0.4% | 31.0hPa | 2.7V | 00:00:00 | 00:00:00 | 00:00:00 | |
| DB0NH | 2026-09-02 12:00:56 | 52.70308 | 10.69380 | 26° | 9km/h | 24060m | 4.2m/s | -50.6°C | 3.0% | 31.0hPa | 2.7V | 00:00:00 | 02:10:10 | 00:00:00 | |
| DL1NUX | 2026-09-02 12:00:55 | 52.70301 | 10.69374 | 39° | 13km/h | 24048m | 5.7m/s | -50.6°C | 3.1% | 31.1hPa | 2.7V | 03:48:34 | 02:10:08 | 00:00:00 | |
| DB0DAN | 2026-09-02 12:00:55 | 52.70304 | 10.69377 | 30° | 15km/h | 24054m | 6.9m/s | -50.7°C | 0.4% | 31.08hPa | 2.7V | 00:00:00 | 00:00:00 | 00:00:00 | |
| AA1-15 | 2026-09-02 12:00:54 | 52.70299 | 10.69370 | 45° | 11km/h | 24042m | 5.4m/s | -50.6°C | 0% | 31.1hPa | 2.7V | 03:48:39 | 02:10:07 | 00:00:00 | |
| DM0DOS-11 | 2026-09-02 12:00:53 | 52.70295 | 10.69365 | 39° | 9km/h | 24031m | 6.5m/s | -50.6°C | 3.1% | 31.1hPa | 2.6V | 03:48:37 | 02:10:05 | 00:00:00 | |
| DF8AY | 2026-09-02 12:00:52 | 52.70297 | 10.69367 | 47° | 9km/h | 24037m | 5.5m/s | -50.6°C | 0% | 31.1hPa | 2.7V | 03:48:39 | 02:10:06 | 00:00:00 | |
| HSKMA3-T | 2026-09-02 12:00:50 | 52.70294 | 10.69362 | 36° | 9km/h | 24025m | 5.4m/s | -50.6°C | 0% | 31.2hPa | 2.6V | 03:48:39 | 02:10:04 | 00:00:00 | |
| DL1XH-15 | 2026-09-02 12:00:48 | 52.70290 | 10.69354 | 97° | 7km/h | 24009m | 6.9m/s | -50.6°C | 3.1% | 31.3hPa | 2.7V | 03:48:41 | 02:10:01 | 00:00:00 | |
| BIOWL1-15 | 2026-09-02 12:00:47 | 52.70291 | 10.69349 | 130° | 7km/h | 23997m | 3.9m/s | -50.5°C | 0% | 31.3hPa | 2.7V | 03:49:30 | 02:09:59 | 00:00:00 | |
| DL1XH-west | 2026-09-02 12:00:47 | 52.70290 | 10.69352 | 121° | 7km/h | 24002m | 6.4m/s | -50.6°C | 0% | 31.3hPa | 2.7V | 03:49:30 | 02:10:00 | 00:00:00 | |
| DL3AQ-11 | 2026-09-02 12:00:46 | 52.70291 | 10.69349 | 129° | 5km/h | 23997m | 3.9m/s | 0°C | -1.0% | 31.3hPa | 2.6V | 00:00:00 | 00:00:00 | 00:00:00 | |
| AA1-15 | 2026-09-02 12:00:43 | 52.70291 | 10.69344 | 31° | 5km/h | 23980m | 4.4m/s | -50.6°C | 0% | 31.4hPa | 2.6V | 03:49:30 | 02:09:56 | 00:00:00 | |
| DF8AY | 2026-09-02 12:00:42 | 52.70290 | 10.69343 | 50° | 7km/h | 23975m | 5.1m/s | -50.5°C | 0% | 31.4hPa | 2.7V | 03:49:30 | 02:09:55 | 00:00:00 | |
| DB0DAN | 2026-09-02 12:00:40 | 52.70289 | 10.69340 | 73° | 7km/h | 23969m | 7.1m/s | -50.5°C | 0.4% | 31.43hPa | 2.7V | 00:00:00 | 00:00:00 | 00:00:00 | |
| HSKMA3-T | 2026-09-02 12:00:39 | 52.70289 | 10.69337 | 91° | 9km/h | 23962m | 5.7m/s | -50.4°C | 0% | 31.5hPa | 2.7V | 03:49:30 | 02:09:53 | 00:00:00 | |
| GOEST3-10 | 2026-09-02 12:00:38 | 52.70289 | 10.69333 | 95° | 9km/h | 23957m | 5.7m/s | -50.4°C | 3.0% | 31.5hPa | 2.6V | 03:48:00 | 00:00:00 | 00:00:00 | |
| DL1XH1-15 | 2026-09-02 12:00:37 | 52.70290 | 10.69328 | 107° | 7km/h | 23944m | 4.9m/s | -50.4°C | 3% | 31.6hPa | 2.6V | 03:48:52 | 02:09:50 | 00:00:00 | |
| DL1XH-west | 2026-09-02 12:00:36 | 52.70289 | 10.69328 | 108° | 7km/h | 23944m | 4.9m/s | -50.4°C | 0% | 31.6hPa | 2.6V | 03:49:30 | 02:09:50 | 00:00:00 | |
| DL1NUX | 2026-09-02 12:00:36 | 52.70292 | 10.69322 | 131° | 11km/h | 23934m | 6.4m/s | -50.3°C | 3% | 31.6hPa | 2.7V | 03:48:54 | 02:09:48 | 00:00:00 | |
| AA1-15 | 2026-09-02 12:00:32 | 52.70296 | 10.69314 | 137° | 13km/h | 23922m | 5.3m/s | -50.3°C | 0% | 31.6hPa | 2.7V | 03:49:30 | 02:09:46 | 00:00:00 | |
| SMARD9-15 | 2026-09-02 12:00:32 | 52.70298 | 10.69311 | 137° | 9km/h | 23916m | 5.9m/s | -50.3°C | 0.4% | 31.7hPa | 2.7V | 00:00:00 | 00:00:00 | 00:00:00 | |
| DL1XH-15 | 2026-09-02 12:00:31 | 52.70296 | 10.69304 | 41° | 9km/h | 23894m | 6m/s | -50.3°C | 3% | 31.8hPa | 2.7V | 03:49:01 | 02:09:41 | 00:00:00 | |
| DF8AY | 2026-09-02 12:00:30 | 52.70300 | 10.69309 | 119° | 5km/h | 23910m | 6.3m/s | -50.3°C | 0% | 31.8hPa | 2.6V | 03:49:30 | 02:09:44 | 00:00:00 | |
| DL3AQ-11 | 2026-09-02 12:00:30 | 52.70299 | 10.69307 | 34° | 4km/h | 23905m | 4.5m/s | 0°C | -1.0% | 31.8hPa | 2.7V | 00:00:00 | 00:00:00 | 00:00:00 | |
| DL1NUX | 2026-09-02 12:00:29 | 52.70291 | 10.69291 | 56° | 15km/h | 23876m | 5.9m/s | -50.2°C | 3% | 31.9hPa | 2.7V | 03:49:04 | 02:09:38 | 00:00:00 | |
| HSKMA3-T | 2026-09-02 12:00:28 | 52.70298 | 10.69306 | 31° | 7km/h | 23899m | 4.8m/s | -50.3°C | 0% | 31.8hPa | 2.6V | 03:49:30 | 02:09:42 | 00:00:00 | |
| BIOWL1-15 | 2026-09-02 12:00:26 | 52.70291 | 10.69291 | 56° | 15km/h | 23876m | 5.9m/s | -50.2°C | 0% | 31.9hPa | 2.7V | 03:49:30 | 02:09:38 | 00:00:00 | |
| DL1XH-west | 2026-09-02 12:00:25 | 52.70293 | 10.69296 | 59° | 15km/h | 23881m | 5.6m/s | -50.3°C | 0% | 31.9hPa | 2.7V | 03:49:30 | 02:09:39 | 00:00:00 | |
| DB0DAN | 2026-09-02 12:00:25 | 52.70293 | 10.69296 | 58° | 13km/h | 23881m | 5.6m/s | -50.3°C | 0.4% | 31.88hPa | 2.7V | 00:00:00 | 00:00:00 | 00:00:00 | |
| DL4XJ-10 | 2026-09-02 12:00:25 | 52.70291 | 10.69291 | 57° | 16km/h | 23876m | 5.9m/s | -50.1°C | 0% | 0hPa | 2.6V | 00:00:00 | 00:00:00 | 00:00:00 | |
| DD8BA-10 | 2026-09-02 12:00:23 | 52.70289 | 10.69286 | 58° | 15km/h | 23870m | 6.2m/s | -50.2°C | 3.0% | 31.9hPa | 2.6V | 00:00:00 | 00:00:00 | 00:00:00 | |
| DM0DOS-11 | 2026-09-02 12:00:22 | 52.70286 | 10.69276 | 92° | 13km/h | 23859m | 4.6m/s | -50.3°C | 2.9% | 32hPa | 2.6V | 03:49:07 | 02:09:35 | 00:00:00 | |
| AA1-15 | 2026-09-02 12:00:21 | 52.70286 | 10.69276 | 92° | 13km/h | 23859m | 4.6m/s | -50.3°C | 0% | 32hPa | 2.6V | 03:49:30 | 02:09:35 | 00:00:00 | |
| SO1NDE-10 | 2026-09-02 12:00:21 | 52.70286 | 10.69275 | 93° | 16km/h | 23860m | 4.6m/s | -50.2°C | 2.9% | 31.9hPa | 2.6V | 00:00:00 | 02:09:35 | 00:00:00 | |
| SMARD9-10 | 2026-09-02 12:00:20 | 52.70286 | 10.69275 | 93° | 13km/h | 23860m | 4.6m/s | -50.3°C | 0.4% | 32.0hPa | 2.7V | 00:00:00 | 00:00:00 | 00:00:00 | |
| DL1XH-15 | 2026-09-02 12:00:18 | 52.70295 | 10.69253 | 128° | 15km/h | 23835m | 6.4m/s | -50.3°C | 3% | 32.1hPa | 2.7V | 03:49:11 | 02:09:31 | 00:00:00 | |
| HSKMA3-T | 2026-09-02 12:00:17 | 52.70296 | 10.69248 | 115° | 11km/h | 23830m | 6.3m/s | -50.2°C | 0% | 32.2hPa | 2.6V | 03:49:30 | 02:09:30 | 00:00:00 | |
| DM0DOS-11 | 2026-09-02 12:00:17 | 52.70290 | 10.69224 | 48° | 18km/h | 23799m | 6.2m/s | -50.3°C | 3% | 32.3hPa | 2.7V | 03:49:17 | 02:09:25 | 00:00:00 | |
| DO3MHA-11 | 2026-09-02 12:00:16 | 52.70296 | 10.69248 | 116° | 16km/h | 23830m | 6.2m/s | -50.2°C | 3.1% | 32.1hPa | 2.6V | 00:00:00 | 02:09:30 | 00:00:00 | |
| DL1NUX | 2026-09-02 12:00:15 | 52.70296 | 10.69240 | 70° | 11km/h | 23817m | 6.3m/s | -50.3°C | 3.1% | 32.2hPa | 2.6V | 03:49:14 | 02:09:28 | 00:00:00 | |
| DL1XH-west | 2026-09-02 12:00:15 | 52.70297 | 10.69245 | 85° | 9km/h | 23823m | 5.3m/s | -50.3°C | 0% | 32.2hPa | 2.6V | 03:49:30 | 02:09:29 | 00:00:00 | |
| BIOWL1-15 | 2026-09-02 12:00:13 | 52.70285 | 10.69162 | 114° | 15km/h | 23747m | 5.9m/s | -50.3°C | 0% | 32.5hPa | 2.6V | 03:49:30 | 02:09:16 | 00:00:00 | |
| AA1-15 | 2026-09-02 12:00:10 | 52.70287 | 10.69218 | 41° | 20km/h | 23793m | 7.5m/s | -50.3°C | 0% | 32.3hPa | 2.7V | 03:49:30 | 02:09:24 | 00:00:00 | |
| DB0DAN | 2026-09-02 12:00:10 | 52.70287 | 10.69218 | 41° | 18km/h | 23793m | 7.5m/s | -50.3°C | 0.4% | 32.31hPa | 2.7V | 00:00:00 | 00:00:00 | 00:00:00 | |
| DL1NUX | 2026-09-02 12:00:09 | 52.70280 | 10.69176 | 116° | 24km/h | 23758m | 5m/s | -50.4°C | 3% | 32.5hPa | 2.7V | 03:49:24 | 02:09:18 | 00:00:00 | |
| DL1XH1-15 | 2026-09-02 12:00:09 | 52.70277 | 10.69194 | 90° | 20km/h | 23770m | 6.9m/s | -50.4°C | 2.9% | 32.4hPa | 2.7V | 03:49:22 | 02:09:20 | 00:00:00 | |
| DF8AY | 2026-09-02 12:00:07 | 52.70285 | 10.69152 | 67° | 13km/h | 23736m | 5.4m/s | -50.3°C | 0% | 32.6hPa | 2.6V | 03:49:30 | 02:09:14 | 00:00:00 | |
| HSKMA3-T | 2026-09-02 12:00:06 | 52.70277 | 10.69194 | 90° | 20km/h | 23770m | 6.9m/s | -50.4°C | 0% | 32.4hPa | 2.7V | 03:49:30 | 02:09:20 | 00:00:00 | |
| DL1XH-west | 2026-09-02 12:00:04 | 52.70280 | 10.69176 | 117° | 24km/h | 23758m | 5m/s | -50.4°C | 0% | 32.5hPa | 2.7V | 03:49:30 | 02:09:18 | 00:00:00 | |
| DL4XJ-10 | 2026-09-02 12:00:04 | 52.70280 | 10.69176 | 117° | 16km/h | 23759m | 5.0m/s | -50.2°C | 0% | 0hPa | 2.6V | 00:00:00 | 00:00:00 | 00:00:00 | |
| DM0DOS-11 | 2026-09-02 12:00:03 | 52.70285 | 10.69157 | 89° | 11km/h | 23741m | 4.9m/s | -50.3°C | 3% | 32.6hPa | 2.6V | 03:49:27 | 02:09:15 | 00:00:00 | |
| DF7ER-10 | 2026-09-02 12:00:02 | 52.70284 | 10.69162 | 114° | 15km/h | 23747m | 5.9m/s | -50.3°C | 0.5% | 32.5hPa | 2.6V | 03:49:00 | 00:00:00 | 00:00:00 | |
| SMARD9-15 | 2026-09-02 12:00:01 | 52.70285 | 10.69152 | 66° | 11km/h | 23736m | 5.4m/s | -50.3°C | 0.4% | 32.6hPa | 2.6V | 00:00:00 | 00:00:00 | 00:00:00 | |
| AM1SDL-15 | 2026-09-02 12:00:00 | 52.70285 | 10.69152 | 67° | 16km/h | 23737m | 5.3m/s | -50.2°C | 3.0% | 32.6hPa | 2.6V | 00:00:00 | 02:09:14 | 00:00:00 | |
| DL1NUX | 2026-09-02 11:59:59 | 52.70264 | 10.69127 | 21° | 15km/h | 23701m | 4m/s | -50.2°C | 2.9% | 32.8hPa | 2.6V | 03:49:34 | 02:09:08 | 00:00:00 | |
| EDDB2-11 | 2026-09-02 11:59:59 | 52.70280 | 10.69142 | 47° | 16km/h | 23724m | 5.9m/s | -50.2°C | 0.4% | 32.7hPa | 2.7V | 00:00:00 | 00:00:00 | 00:00:00 | |
| DL1XH-15 | 2026-09-02 11:59:58 | 52.70277 | 10.69137 | 35° | 20km/h | 23718m | 5.5m/s | -50.3°C | 3% | 32.7hPa | 2.7V | 03:49:31 | 02:09:11 | 00:00:00 | |
| BIOWL1-15 | 2026-09-02 11:59:58 | 52.70277 | 10.69137 | 35° | 20km/h | 23718m | 5.5m/s | -50.3°C | 0% | 32.7hPa | 2.7V | 03:50:21 | 02:09:11 | 00:00:00 | |
| DL1XH1-15 | 2026-09-02 11:59:58 | 52.70272 | 10.69133 | 25° | 20km/h | 23712m | 6.7m/s | -50.2°C | 2.9% | 32.7hPa | 2.7V | 03:49:32 | 02:09:10 | 00:00:00 | |
| DB0DAN | 2026-09-02 11:59:55 | 52.70268 | 10.69130 | 19° | 18km/h | 23706m | 5.7m/s | -50.3°C | 0.5% | 32.74hPa | 2.6V | 00:00:00 | 00:00:00 | 00:00:00 | |
| DL1XH-west | 2026-09-02 11:59:54 | 52.70264 | 10.69127 | 22° | 15km/h | 23701m | 4m/s | -50.2°C | 0% | 32.8hPa | 2.6V | 03:50:21 | 02:09:08 | 00:00:00 | |
| GOEST3-10 | 2026-09-02 11:59:54 | 52.70261 | 10.69125 | 43° | 15km/h | 23697m | 4.7m/s | -50.2°C | 2.9% | 32.7hPa | 2.7V | 00:00:00 | 02:09:07 | 00:00:00 | |
| DD8BA-10 | 2026-09-02 11:59:53 | 52.70261 | 10.69125 | 43° | 16km/h | 23697m | 4.7m/s | -50.2°C | 2.9% | 32.7hPa | 2.7V | 03:49:00 | 00:00:00 | 00:00:00 | |
| DM0DOS-11 | 2026-09-02 11:59:52 | 52.70260 | 10.69116 | 104° | 15km/h | 23683m | 6.5m/s | -50.3°C | 3% | 32.9hPa | 2.7V | 03:49:37 | 02:09:05 | 00:00:00 | |
| DF8AY | 2026-09-02 11:59:52 | 52.70260 | 10.69116 | 105° | 15km/h | 23683m | 6.5m/s | -50.3°C | 0% | 32.9hPa | 2.7V | 03:50:21 | 02:09:05 | 00:00:00 | |
| DL1XH1-15 | 2026-09-02 11:59:52 | 52.70264 | 10.69083 | 54° | 15km/h | 23655m | 5.2m/s | -50.3°C | 3% | 33hPa | 2.6V | 03:49:42 | 02:09:00 | 00:00:00 | |
| SO1NDE-10 | 2026-09-02 11:59:51 | 52.70260 | 10.69116 | 105° | 15km/h | 23684m | 6.5m/s | -50.3°C | 3.0% | 32.8hPa | 2.6V | 03:49:00 | 02:09:05 | 00:00:00 | |
| DL1CLM-18 | 2026-09-02 11:59:50 | 52.70261 | 10.69109 | 115° | 20km/h | 23677m | 5.7m/s | -50.3°C | 0.4% | 32.9hPa | 2.6V | 00:00:00 | 00:00:00 | 00:00:00 | |
| DL1XH-15 | 2026-09-02 11:59:48 | 52.70265 | 10.69089 | 79° | 13km/h | 23660m | 5.3m/s | -50.3°C | 3% | 33hPa | 2.6V | 03:49:41 | 02:09:01 | 00:00:00 | |
| AA1-15 | 2026-09-02 11:59:47 | 52.70264 | 10.69083 | 54° | 15km/h | 23655m | 5.2m/s | -50.3°C | 0% | 33hPa | 2.6V | 03:50:21 | 02:09:00 | 00:00:00 | |
| BIOWL1-15 | 2026-09-02 11:59:47 | 52.70265 | 10.69089 | 79° | 13km/h | 23660m | 5.3m/s | -50.3°C | 0% | 33hPa | 2.6V | 03:50:21 | 02:09:01 | 00:00:00 | |
| HSKMA3-T | 2026-09-02 11:59:44 | 52.70257 | 10.69073 | 39° | 20km/h | 23642m | 7m/s | -50.3°C | 0% | 33.1hPa | 2.7V | 03:50:21 | 02:08:58 | 00:00:00 | |
| DL4XJ-10 | 2026-09-02 11:59:44 | 52.70258 | 10.69073 | 40° | 16km/h | 23643m | 6.9m/s | -50.2°C | 0% | 0hPa | 2.7V | 00:00:00 | 00:00:00 | 00:00:00 | |
| DD8BA-10 | 2026-09-02 11:59:43 | 52.70253 | 10.69068 | 32° | 15km/h | 23636m | 5.3m/s | -50.2°C | 3.0% | 33.1hPa | 2.7V | 00:00:00 | 00:00:00 | 00:00:00 | |
| DL1XH-west | 2026-09-02 11:59:43 | 52.70253 | 10.69068 | 32° | 20km/h | 23636m | 5.4m/s | -50.3°C | 0% | 33.1hPa | 2.7V | 03:50:21 | 02:08:57 | 00:00:00 | |
| DM0DOS-11 | 2026-09-02 11:59:42 | 52.70244 | 10.69062 | 7° | 18km/h | 23624m | 7.1m/s | -50.3°C | 3% | 33.2hPa | 2.6V | 03:49:47 | 02:08:55 | 00:00:00 | |
| EDDB2-12 | 2026-09-02 11:59:42 | 52.70244 | 10.69062 | 7° | 18km/h | 23624m | 7.1m/s | -50.3°C | 0.5% | 33.2hPa | 2.7V | 00:00:00 | 00:00:00 | 00:00:00 | |
| DL4BBY-15 | 2026-09-02 11:59:41 | 52.70243 | 10.69062 | 8° | 13km/h | 23624m | 7.1m/s | -50.1°C | 0% | 0hPa | 2.7V | 00:00:00 | 00:00:00 | 00:00:00 | |
| DL1XH1-15 | 2026-09-02 11:59:40 | 52.70231 | 10.69056 | 80° | 13km/h | 23595m | 6.2m/s | -50.5°C | 3% | 33.4hPa | 2.7V | 03:49:52 | 02:08:50 | 00:00:00 | |
| DB0DAN | 2026-09-02 11:59:40 | 52.70239 | 10.69062 | 354° | 15km/h | 23618m | 5.1m/s | -50.4°C | 0.4% | 33.22hPa | 2.6V | 00:00:00 | 00:00:00 | 00:00:00 | |
| DF8AY | 2026-09-02 11:59:40 | 52.70232 | 10.69061 | 56° | 9km/h | 23602m | 7.1m/s | -50.5°C | 0% | 33.3hPa | 2.7V | 03:50:21 | 02:08:51 | 00:00:00 | |
| AA1-15 | 2026-09-02 11:59:36 | 52.70230 | 10.69044 | 83° | 15km/h | 23582m | 6.6m/s | -50.6°C | 0% | 33.4hPa | 2.6V | 03:50:21 | 02:08:48 | 00:00:00 | |
| HSKMA3-T | 2026-09-02 11:59:34 | 52.70229 | 10.69038 | 67° | 15km/h | 23576m | 5.5m/s | -50.6°C | 0% | 33.4hPa | 2.6V | 03:50:21 | 02:08:47 | 00:00:00 | |
| DD8BA-10 | 2026-09-02 11:59:33 | 52.70229 | 10.69038 | 68° | 15km/h | 23577m | 5.5m/s | -50.6°C | 3.0% | 33.4hPa | 2.7V | 00:00:00 | 00:00:00 | 00:00:00 | |
| DM0DOS-11 | 2026-09-02 11:59:32 | 52.70224 | 10.69029 | 35° | 18km/h | 23566m | 5.6m/s | -50.7°C | 3% | 33.5hPa | 2.7V | 03:49:57 | 02:08:45 | 00:00:00 | |
| DL1XH-west | 2026-09-02 11:59:32 | 52.70227 | 10.69034 | 47° | 15km/h | 23571m | 4.5m/s | -50.6°C | 0% | 33.5hPa | 2.6V | 03:50:21 | 02:08:46 | 00:00:00 | |
| DF8AY | 2026-09-02 11:59:29 | 52.70210 | 10.69017 | 16° | 20km/h | 23548m | 4.7m/s | -50.8°C | 0% | 33.6hPa | 2.7V | 03:50:21 | 02:08:42 | 00:00:00 | |
| DL1NUX | 2026-09-02 11:59:29 | 52.70197 | 10.69020 | 348° | 5km/h | 23525m | 6.1m/s | -51.1°C | 3.1% | 33.7hPa | 2.7V | 03:50:04 | 02:08:38 | 00:00:00 | |
| EDDB2-11 | 2026-09-02 11:59:28 | 52.70206 | 10.69016 | 1° | 16km/h | 23543m | 6.9m/s | -50.8°C | 0.5% | 33.6hPa | 2.7V | 00:00:00 | 00:00:00 | 00:00:00 | |
| DM0DOS-11 | 2026-09-02 11:59:27 | 52.70195 | 10.69014 | 71° | 9km/h | 23506m | 5.9m/s | -51.1°C | 3.1% | 33.8hPa | 2.7V | 03:50:07 | 02:08:35 | 00:00:00 | |
| DB0DAN | 2026-09-02 11:59:25 | 52.70199 | 10.69019 | 332° | 9km/h | 23531m | 4.5m/s | -51°C | 0.4% | 33.67hPa | 2.6V | 00:00:00 | 00:00:00 | 00:00:00 | |
| AA1-15 | 2026-09-02 11:59:24 | 52.70197 | 10.69020 | 348° | 5km/h | 23525m | 6.1m/s | -51.1°C | 0% | 33.7hPa | 2.7V | 03:50:21 | 02:08:38 | 00:00:00 | |
| HSKMA3-T | 2026-09-02 11:59:22 | 52.70195 | 10.69017 | 74° | 7km/h | 23512m | 5.8m/s | -51.1°C | 0% | 33.8hPa | 2.7V | 03:50:21 | 02:08:36 | 00:00:00 | |
| DL1XH-west | 2026-09-02 11:59:21 | 52.70195 | 10.69014 | 72° | 9km/h | 23506m | 5.9m/s | -51.1°C | 0% | 33.8hPa | 2.7V | 03:50:21 | 02:08:35 | 00:00:00 | |
| SO1NDE-10 | 2026-09-02 11:59:21 | 52.70195 | 10.69014 | 72° | 16km/h | 23507m | 5.9m/s | -51.0°C | 3.1% | 33.7hPa | 2.7V | 00:00:00 | 02:08:35 | 00:00:00 | |
| DL1NUX | 2026-09-02 11:59:19 | 52.70175 | 10.68990 | 13° | 16km/h | 23465m | 6.2m/s | -51°C | 3.1% | 34hPa | 2.7V | 03:50:14 | 02:08:28 | 00:00:00 | |
| DF8AY | 2026-09-02 11:59:18 | 52.70190 | 10.69004 | 37° | 13km/h | 23489m | 5.6m/s | -51.1°C | 0% | 33.9hPa | 2.6V | 03:50:21 | 02:08:32 | 00:00:00 | |
| DL1XH-15 | 2026-09-02 11:59:18 | 52.70187 | 10.69001 | 35° | 16km/h | 23483m | 7.3m/s | -51°C | 3.1% | 33.9hPa | 2.7V | 03:50:11 | 02:08:31 | 00:00:00 | |
| AA1-15 | 2026-09-02 11:59:13 | 52.70171 | 10.68989 | 354° | 15km/h | 23459m | 6.4m/s | -51.1°C | 0% | 34hPa | 2.6V | 03:50:21 | 02:08:27 | 00:00:00 | |
| HSKMA3-T | 2026-09-02 11:59:12 | 52.70168 | 10.68990 | 337° | 13km/h | 23453m | 5.1m/s | -51°C | 0% | 34.1hPa | 2.6V | 03:50:21 | 02:08:26 | 00:00:00 | |
| BIOWL1-15 | 2026-09-02 11:59:11 | 52.70165 | 10.68992 | 334° | 11km/h | 23448m | 5m/s | -51.1°C | 0% | 34.1hPa | 2.6V | 03:50:21 | 02:08:25 | 00:00:00 | |
| DB0DAN | 2026-09-02 11:59:10 | 52.70163 | 10.68994 | 351° | 7km/h | 23442m | 6.9m/s | -51.1°C | 0.5% | 34.15hPa | 2.7V | 00:00:00 | 00:00:00 | 00:00:00 | |
| DL1XH-west | 2026-09-02 11:59:10 | 52.70163 | 10.68994 | 352° | 7km/h | 23442m | 6.9m/s | -51.1°C | 0% | 34.1hPa | 2.7V | 03:50:21 | 02:08:24 | 00:00:00 | |
| DL1NUX | 2026-09-02 11:59:09 | 52.70147 | 10.68979 | 30° | 22km/h | 23407m | 4.9m/s | -51.2°C | 3.1% | 34.3hPa | 2.6V | 03:50:24 | 02:08:18 | 00:00:00 | |
| DL1XH-15 | 2026-09-02 11:59:08 | 52.70157 | 10.68989 | 36° | 11km/h | 23424m | 6.1m/s | -51.1°C | 3.1% | 34.2hPa | 2.7V | 03:50:21 | 02:08:21 | 00:00:00 | |
| DF8AY | 2026-09-02 11:59:07 | 52.70157 | 10.68989 | 37° | 11km/h | 23424m | 6.1m/s | -51.2°C | 0% | 34.2hPa | 2.7V | 03:50:21 | 02:08:21 | 00:00:00 | |
| DM0DOS-11 | 2026-09-02 11:59:06 | 52.70131 | 10.68961 | 35° | 26km/h | 23390m | 4.1m/s | -51.1°C | 3.1% | 34.4hPa | 2.7V | 03:50:27 | 02:08:15 | 00:00:00 | |
| HSKMA3-T | 2026-09-02 11:59:02 | 52.70136 | 10.68968 | 36° | 27km/h | 23395m | 5.4m/s | -51.2°C | 0% | 34.4hPa | 2.7V | 03:51:12 | 02:08:16 | 00:00:00 | |
| DL1XH-west | 2026-09-02 11:59:00 | 52.70126 | 10.68956 | 29° | 22km/h | 23386m | 4.2m/s | -51.1°C | 0% | 34.4hPa | 2.7V | 03:51:12 | 02:08:14 | 00:00:00 | |
| HTAHTA | 2026-09-02 11:59:00 | 52.70108 | 10.68956 | 343° | 18km/h | 23365m | 4.3m/s | -51.0°C | 0.5% | 34.5hPa | 2.7V | 00:00:00 | 00:00:00 | 00:00:00 | |
| DL1NUX | 2026-09-02 11:58:59 | 52.70098 | 10.68958 | 7° | 22km/h | 23353m | 6m/s | -50.9°C | 3.1% | 34.6hPa | 2.7V | 03:50:34 | 02:08:08 | 00:00:00 | |
| DL1XH1-15 | 2026-09-02 11:58:59 | 52.70108 | 10.68956 | 343° | 20km/h | 23364m | 4.3m/s | -51°C | 3.1% | 34.5hPa | 2.7V | 03:50:32 | 02:08:10 | 00:00:00 | |
| DL1XH-15 | 2026-09-02 11:58:59 | 52.70113 | 10.68953 | 340° | 18km/h | 23370m | 4.8m/s | -51°C | 3.1% | 34.5hPa | 2.6V | 03:50:31 | 02:08:11 | 00:00:00 | |
| DF8AY | 2026-09-02 11:58:57 | 52.70103 | 10.68958 | 353° | 20km/h | 23359m | 6.1m/s | -50.9°C | 0% | 34.5hPa | 2.7V | 03:52:03 | 02:08:09 | 00:00:00 | |
| DM0DOS-11 | 2026-09-02 11:58:56 | 52.70081 | 10.68946 | 32° | 24km/h | 23337m | 6.1m/s | -50.8°C | 3.1% | 34.7hPa | 2.6V | 03:50:37 | 02:08:05 | 00:00:00 | |
| HSKMA3-T | 2026-09-02 11:58:52 | 52.70087 | 10.68951 | 28° | 26km/h | 23343m | 5.1m/s | -50.8°C | 0% | 34.6hPa | 2.6V | 03:51:12 | 02:08:06 | 00:00:00 | |
| DL1XH-west | 2026-09-02 11:58:50 | 52.70076 | 10.68941 | 34° | 20km/h | 23331m | 6.3m/s | -50.7°C | 0% | 34.7hPa | 2.6V | 03:51:12 | 02:08:04 | 00:00:00 | |
| DK1YY | 2026-09-02 11:58:48 | 52.70052 | 10.68927 | 8° | 20km/h | 23303m | 4.6m/s | -50.7°C | 0.5% | 34.9hPa | 2.7V | 00:00:00 | 00:00:00 | 00:00:00 | |
| AP2371 | 2026-09-02 11:58:47 | 52.70063 | 10.68930 | 16° | 22km/h | 23314m | 6.7m/s | -50.7°C | 0.4% | 34.8hPa | 2.7V | 00:00:00 | 00:00:00 | 00:00:00 | |
| DM0DOS-11 | 2026-09-02 11:58:46 | 52.70039 | 10.68924 | 19° | 7km/h | 23280m | 5m/s | -50.5°C | 3% | 35hPa | 2.7V | 03:50:47 | 02:07:55 | 00:00:00 | |
| DF8AY | 2026-09-02 11:58:45 | 52.70014 | 10.68915 | 11° | 11km/h | 23241m | 5.7m/s | -50.5°C | 0% | 35.2hPa | 2.7V | 03:52:03 | 02:07:48 | 00:00:00 | |
| BIOWL1-15 | 2026-09-02 11:58:44 | 52.70044 | 10.68925 | 5° | 13km/h | 23292m | 6.9m/s | -50.7°C | 0% | 34.9hPa | 2.6V | 03:51:12 | 02:07:57 | 00:00:00 | |
| HSKMA3-T | 2026-09-02 11:58:42 | 52.70041 | 10.68925 | 10° | 9km/h | 23286m | 5.5m/s | -50.6°C | 0% | 35hPa | 2.7V | 03:51:12 | 02:07:56 | 00:00:00 | |
| DL1XH-west | 2026-09-02 11:58:39 | 52.70034 | 10.68921 | 18° | 15km/h | 23269m | 6.4m/s | -50.5°C | 0% | 35.1hPa | 2.7V | 03:51:12 | 02:07:53 | 00:00:00 | |
| DF7ER-10 | 2026-09-02 11:58:39 | 52.70034 | 10.68921 | 19° | 15km/h | 23269m | 6.4m/s | -50.5°C | 0.5% | 35.1hPa | 2.6V | 03:51:00 | 00:00:00 | 00:00:00 | |
| DL1XH1-15 | 2026-09-02 11:58:38 | 52.70021 | 10.68916 | 7° | 16km/h | 23253m | 5.6m/s | -50.5°C | 3% | 35.2hPa | 2.6V | 03:50:52 | 02:07:50 | 00:00:00 | |
| DF8AY | 2026-09-02 11:58:37 | 52.70008 | 10.68912 | 23° | 15km/h | 23229m | 7m/s | -50.5°C | 0% | 35.2hPa | 2.7V | 03:52:03 | 02:07:46 | 00:00:00 | |
| DO2SHX-10 | 2026-09-02 11:58:36 | 52.70021 | 10.68916 | 8° | 16km/h | 23253m | 5.5m/s | -50.5°C | 3.0% | 35.1hPa | 2.6V | 03:50:00 | 02:07:50 | 00:00:00 | |
| DM0DOS-11 | 2026-09-02 11:58:35 | 52.70004 | 10.68909 | 22° | 18km/h | 23222m | 5.6m/s | -50.5°C | 3% | 35.3hPa | 2.6V | 03:50:57 | 02:07:45 | 00:00:00 | |
| AA1-15 | 2026-09-02 11:58:32 | 52.70000 | 10.68906 | 20° | 16km/h | 23218m | 4.7m/s | -50.5°C | 0% | 35.3hPa | 2.6V | 03:51:12 | 02:07:44 | 00:00:00 | |
| HSKMA3-T | 2026-09-02 11:58:31 | 52.70004 | 10.68909 | 23° | 18km/h | 23223m | 5.6m/s | -50.5°C | 0% | 35.3hPa | 2.6V | 03:51:12 | 02:07:45 | 00:00:00 | |
| DL1XH-west | 2026-09-02 11:58:29 | 52.69993 | 10.68904 | 4° | 11km/h | 23206m | 6.9m/s | -50.5°C | 0% | 35.4hPa | 2.7V | 03:51:12 | 02:07:42 | 00:00:00 | |
| HTAHTA | 2026-09-02 11:58:29 | 52.69993 | 10.68904 | 3° | 9km/h | 23206m | 6.9m/s | -50.5°C | 0.4% | 35.4hPa | 2.6V | 00:00:00 | 00:00:00 | 00:00:00 | |
| SMARD9-15 | 2026-09-02 11:58:28 | 52.69991 | 10.68904 | 337° | 7km/h | 23200m | 6.1m/s | -50.5°C | 0.4% | 35.4hPa | 2.6V | 00:00:00 | 00:00:00 | 00:00:00 | |
| DL1NUX | 2026-09-02 11:58:26 | 52.69984 | 10.68910 | 338° | 13km/h | 23182m | 5.9m/s | -50.6°C | 3.1% | 35.5hPa | 2.6V | 03:51:04 | 02:07:38 | 00:00:00 | |
| DB0DAN | 2026-09-02 11:58:25 | 52.69987 | 10.68908 | 326° | 9km/h | 23188m | 6.5m/s | -50.5°C | 0.4% | 35.5hPa | 2.7V | 00:00:00 | 00:00:00 | 00:00:00 | |
| DJTTGO | 2026-09-02 11:58:25 | 52.69987 | 10.68908 | 327° | 11km/h | 23189m | 6.5m/s | 0°C | 0% | 0hPa | 2.7V | 00:00:00 | 00:00:00 | 00:00:00 | |
| DD8BA-10 | 2026-09-02 11:58:24 | 52.69981 | 10.68912 | 346° | 11km/h | 23177m | 5.2m/s | -50.5°C | 3.0% | 35.5hPa | 2.7V | 00:00:00 | 00:00:00 | 00:00:00 | |
| DM0DOS-11 | 2026-09-02 11:58:22 | 52.69975 | 10.68913 | 359° | 9km/h | 23165m | 6.8m/s | -50.6°C | 3% | 35.6hPa | 2.7V | 03:51:07 | 02:07:35 | 00:00:00 | |
| AA1-15 | 2026-09-02 11:58:22 | 52.69978 | 10.68913 | 355° | 13km/h | 23172m | 5.2m/s | -50.7°C | 0% | 35.6hPa | 2.6V | 03:51:12 | 02:07:36 | 00:00:00 | |
| HSKMA3-T | 2026-09-02 11:58:21 | 52.69975 | 10.68913 | 360° | 9km/h | 23165m | 6.8m/s | -50.7°C | 0% | 35.6hPa | 2.7V | 03:51:12 | 02:07:35 | 00:00:00 | |
| DL1XH-west | 2026-09-02 11:58:18 | 52.69969 | 10.68910 | 18° | 11km/h | 23148m | 6.6m/s | -50.7°C | 0% | 35.7hPa | 2.7V | 03:51:12 | 02:07:32 | 00:00:00 | |
| DL1XH-15 | 2026-09-02 11:58:18 | 52.69966 | 10.68909 | 5° | 13km/h | 23142m | 6m/s | -50.8°C | 3% | 35.8hPa | 2.5V | 03:51:11 | 02:07:31 | 00:00:00 | |
| GOEST3-10 | 2026-09-02 11:58:18 | 52.69969 | 10.68910 | 18° | 11km/h | 23148m | 6.5m/s | -50.6°C | 3.0% | 35.6hPa | 2.7V | 03:51:00 | 00:00:00 | 00:00:00 | |
| DF7ER-10 | 2026-09-02 11:58:16 | 52.69966 | 10.68909 | 7° | 13km/h | 23142m | 6.0m/s | -50.8°C | 0.5% | 35.8hPa | 2.7V | 03:51:00 | 00:00:00 | 00:00:00 | |
| DO2SHX-10 | 2026-09-02 11:58:15 | 52.69959 | 10.68911 | 336° | 11km/h | 23131m | 6.7m/s | -50.8°C | 3.0% | 35.7hPa | 2.7V | 00:00:00 | 02:07:29 | 00:00:00 | |
| DD8BA-10 | 2026-09-02 11:58:13 | 52.69955 | 10.68917 | 311° | 5km/h | 23119m | 4.9m/s | -50.7°C | 3.1% | 35.8hPa | 2.7V | 00:00:00 | 00:00:00 | 00:00:00 | |
| DM0DOS-11 | 2026-09-02 11:58:12 | 52.69952 | 10.68922 | 328° | 7km/h | 23106m | 5.9m/s | -50.9°C | 3.1% | 35.9hPa | 2.7V | 03:51:17 | 02:07:25 | 00:00:00 | |
| AA1-15 | 2026-09-02 11:58:11 | 52.69952 | 10.68922 | 329° | 7km/h | 23106m | 5.9m/s | -50.9°C | 0% | 35.9hPa | 2.7V | 03:52:03 | 02:07:25 | 00:00:00 | |
| DF8AY | 2026-09-02 11:58:10 | 52.69950 | 10.68924 | 336° | 4km/h | 23101m | 5.1m/s | -50.8°C | 0% | 36hPa | 2.6V | 03:52:03 | 02:07:24 | 00:00:00 | |
| DB0DAN | 2026-09-02 11:58:10 | 52.69950 | 10.68924 | 336° | 4km/h | 23101m | 5.1m/s | -50.8°C | 0.4% | 35.98hPa | 2.6V | 00:00:00 | 00:00:00 | 00:00:00 | |
| DO2SHX-10 | 2026-09-02 11:58:09 | 52.69949 | 10.68924 | 318° | 4km/h | 23095m | 6.7m/s | -50.8°C | 3.0% | 35.9hPa | 2.7V | 03:51:00 | 02:07:23 | 00:00:00 | |
| DL1XH-15 | 2026-09-02 11:58:08 | 52.69951 | 10.68923 | 150° | 5km/h | 23083m | 4.5m/s | -50.8°C | 3.1% | 36hPa | 2.7V | 03:51:21 | 02:07:21 | 00:00:00 | |
| DL1XH-west | 2026-09-02 11:58:08 | 52.69951 | 10.68923 | 151° | 5km/h | 23083m | 4.5m/s | -50.8°C | 0% | 36.1hPa | 2.7V | 03:52:03 | 02:07:21 | 00:00:00 | |
| GOEST3-10 | 2026-09-02 11:58:07 | 52.69951 | 10.68923 | 151° | 5km/h | 23083m | 4.5m/s | -50.8°C | 3.1% | 36.0hPa | 2.7V | 00:00:00 | 00:00:00 | 00:00:00 | |
| DL1NUX | 2026-09-02 11:58:06 | 52.69951 | 10.68918 | 47° | 7km/h | 23066m | 5.4m/s | -50.8°C | 3% | 36.2hPa | 2.7V | 03:51:24 | 02:07:18 | 00:00:00 | |
| HSKMA3-T | 2026-09-02 11:58:00 | 52.69946 | 10.68914 | 323° | 4km/h | 23043m | 5.1m/s | -50.9°C | 0% | 36.3hPa | 2.7V | 03:52:03 | 02:07:14 | 00:00:00 | |
| DF8AY | 2026-09-02 11:57:58 | 52.69944 | 10.68918 | 313° | 7km/h | 23034m | 5.8m/s | -50.9°C | 0% | 36.3hPa | 2.7V | 03:52:03 | 02:07:12 | 00:00:00 | |
| DL1XH1-15 | 2026-09-02 11:57:58 | 52.69940 | 10.68921 | 346° | 9km/h | 23022m | 5m/s | -50.9°C | 3% | 36.4hPa | 2.6V | 03:51:32 | 02:07:10 | 00:00:00 | |
| DL1XH-15 | 2026-09-02 11:57:58 | 52.69942 | 10.68920 | 327° | 9km/h | 23028m | 6.1m/s | -51°C | 3.1% | 36.4hPa | 2.7V | 03:51:31 | 02:07:11 | 00:00:00 | |
| DL1XH-west | 2026-09-02 11:57:57 | 52.69940 | 10.68921 | 346° | 9km/h | 23022m | 5m/s | -50.9°C | 0% | 36.4hPa | 2.6V | 03:52:03 | 02:07:10 | 00:00:00 | |
| DF7PN | 2026-09-02 11:57:57 | 52.69940 | 10.68921 | 346° | 9km/h | 23022m | 5.0m/s | -50.9°C | 0.5% | 36.4hPa | 2.6V | 00:00:00 | 00:00:00 | 00:00:00 | |
| DL1NUX | 2026-09-02 11:57:56 | 52.69937 | 10.68920 | 52° | 7km/h | 23012m | 6.7m/s | -51°C | 3.1% | 36.5hPa | 2.6V | 03:51:34 | 02:07:08 | 00:00:00 | |
| DB0DAN | 2026-09-02 11:57:55 | 52.69938 | 10.68921 | 17° | 7km/h | 23018m | 4m/s | -50.9°C | 0.5% | 36.41hPa | 2.6V | 00:00:00 | 00:00:00 | 00:00:00 | |
| EDDB2-11 | 2026-09-02 11:57:55 | 52.69937 | 10.68920 | 52° | 7km/h | 23012m | 6.7m/s | -51.0°C | 0.5% | 36.5hPa | 2.6V | 00:00:00 | 00:00:00 | 00:00:00 | |
| DO2SHX-10 | 2026-09-02 11:57:54 | 52.69936 | 10.68920 | 53° | 11km/h | 23012m | 6.6m/s | -51.0°C | 3.1% | 36.5hPa | 2.6V | 00:00:00 | 02:07:08 | 00:00:00 | |
| AP2371 | 2026-09-02 11:57:53 | 52.69936 | 10.68916 | 82° | 11km/h | 23006m | 6.4m/s | -51.0°C | 0.5% | 36.5hPa | 2.7V | 00:00:00 | 00:00:00 | 00:00:00 | |
| DM0DOS-11 | 2026-09-02 11:57:52 | 52.69934 | 10.68905 | 73° | 16km/h | 22994m | 6.6m/s | -51°C | 3.1% | 36.5hPa | 2.7V | 03:51:37 | 02:07:05 | 00:00:00 | |
| BIOWL1-15 | 2026-09-02 11:57:50 | 52.69933 | 10.68899 | 62° | 16km/h | 22988m | 6m/s | -51°C | 0% | 36.6hPa | 2.7V | 03:52:03 | 02:07:04 | 00:00:00 | |
| DL1XH1-15 | 2026-09-02 11:57:48 | 52.69925 | 10.68886 | 3° | 7km/h | 22967m | 5.4m/s | -51.1°C | 3.1% | 36.7hPa | 2.7V | 03:51:42 | 02:07:00 | 00:00:00 | |
| DF8AY | 2026-09-02 11:57:47 | 52.69927 | 10.68887 | 35° | 7km/h | 22972m | 6.2m/s | -51.1°C | 0% | 36.7hPa | 2.6V | 03:52:03 | 02:07:01 | 00:00:00 | |
| DO2SHX-10 | 2026-09-02 11:57:47 | 52.69927 | 10.68887 | 36° | 7km/h | 22973m | 6.1m/s | -51.0°C | 3.0% | 36.6hPa | 2.7V | 00:00:00 | 02:07:01 | 00:00:00 | |
| DL1NUX | 2026-09-02 11:57:46 | 52.69921 | 10.68888 | 340° | 11km/h | 22955m | 6.6m/s | -51.3°C | 3.1% | 36.8hPa | 2.7V | 03:51:44 | 02:06:58 | 00:00:00 | |
| DL1XH-west | 2026-09-02 11:57:46 | 52.69923 | 10.68887 | 343° | 9km/h | 22961m | 5.5m/s | -51.2°C | 0% | 36.8hPa | 2.7V | 03:52:03 | 02:06:59 | 00:00:00 | |
| DK1YY | 2026-09-02 11:57:46 | 52.69923 | 10.68887 | 342° | 7km/h | 22961m | 5.5m/s | -51.2°C | 0.5% | 36.8hPa | 2.7V | 00:00:00 | 00:00:00 | 00:00:00 | |
| DO3MHA-11 | 2026-09-02 11:57:45 | 52.69923 | 10.68886 | 343° | 11km/h | 22961m | 5.4m/s | -51.2°C | 3.1% | 36.7hPa | 2.7V | 03:51:00 | 02:06:59 | 00:00:00 | |
| GOEST3-10 | 2026-09-02 11:57:43 | 52.69916 | 10.68890 | 350° | 7km/h | 22945m | 4.9m/s | -51.3°C | 3.0% | 36.8hPa | 2.6V | 00:00:00 | 02:06:56 | 00:00:00 | |
| DB0DAN | 2026-09-02 11:57:40 | 52.69914 | 10.68890 | 92° | 4km/h | 22933m | 5.3m/s | -51.5°C | 0.5% | 36.89hPa | 2.6V | 00:00:00 | 00:00:00 | 00:00:00 | |
| BIOWL1-15 | 2026-09-02 11:57:39 | 52.69914 | 10.68878 | 70° | 15km/h | 22917m | 6.5m/s | -51.4°C | 0% | 37hPa | 2.7V | 03:52:03 | 02:06:51 | 00:00:00 | |
| AA1-15 | 2026-09-02 11:57:39 | 52.69914 | 10.68887 | 98° | 7km/h | 22928m | 4.1m/s | -51.5°C | 0% | 37hPa | 2.7V | 03:52:03 | 02:06:53 | 00:00:00 | |
| DL1XH-15 | 2026-09-02 11:57:38 | 52.69913 | 10.68878 | 70° | 15km/h | 22917m | 6.5m/s | -51.4°C | 3.1% | 37hPa | 2.7V | 03:51:51 | 02:06:51 | 00:00:00 | |
| DL1XH1-15 | 2026-09-02 11:57:37 | 52.69912 | 10.68873 | 52° | 16km/h | 22912m | 5.3m/s | -51.4°C | 3.1% | 37hPa | 2.7V | 03:51:52 | 02:06:50 | 00:00:00 | |
| DF8AY | 2026-09-02 11:57:37 | 52.69899 | 10.68862 | 336° | 5km/h | 22885m | 5.3m/s | -51.6°C | 0% | 37.2hPa | 2.7V | 03:52:03 | 02:06:45 | 00:00:00 | |
| DL1XH-west | 2026-09-02 11:57:35 | 52.69906 | 10.68864 | 31° | 15km/h | 22902m | 5.5m/s | -51.5°C | 0% | 37.1hPa | 2.6V | 03:52:03 | 02:06:48 | 00:00:00 | |
| DO3MHA-11 | 2026-09-02 11:57:35 | 52.69909 | 10.68868 | 40° | 16km/h | 22907m | 4.0m/s | -51.4°C | 3.2% | 37.0hPa | 2.6V | 00:00:00 | 02:06:49 | 00:00:00 | |
| DB0UT-7 | 2026-09-02 11:57:34 | 52.69906 | 10.68864 | 31° | 13km/h | 22902m | 5.4m/s | -51.5°C | 3.2% | 37.0hPa | 2.6V | 00:00:00 | 02:06:48 | 00:00:00 | |
| DD8BA-10 | 2026-09-02 11:57:33 | 52.69903 | 10.68862 | 17° | 7km/h | 22896m | 5.9m/s | -51.5°C | 3.2% | 37.1hPa | 2.6V | 00:00:00 | 00:00:00 | 00:00:00 | |
| DO9LL-15 | 2026-09-02 11:57:32 | 52.69901 | 10.68862 | 356° | 13km/h | 22890m | 5.7m/s | -51.5°C | 3.2% | 37.1hPa | 2.6V | 03:51:00 | 02:06:46 | 00:00:00 | |
| DL1XH1-15 | 2026-09-02 11:57:31 | 52.69891 | 10.68864 | 348° | 4km/h | 22858m | 7m/s | -51.6°C | 3.2% | 37.3hPa | 2.6V | 03:52:02 | 02:06:40 | 00:00:00 | |
| BIOWL1-15 | 2026-09-02 11:57:29 | 52.69891 | 10.68864 | 349° | 4km/h | 22858m | 7m/s | -51.6°C | 0% | 37.3hPa | 2.6V | 03:52:03 | 02:06:40 | 00:00:00 | |
| AA1-15 | 2026-09-02 11:57:29 | 52.69896 | 10.68864 | 358° | 7km/h | 22873m | 5.7m/s | -51.7°C | 0% | 37.3hPa | 2.7V | 03:52:03 | 02:06:43 | 00:00:00 | |
| DL1XH-15 | 2026-09-02 11:57:28 | 52.69892 | 10.68864 | 2° | 5km/h | 22863m | 5.1m/s | -51.5°C | 3.2% | 37.3hPa | 2.6V | 03:52:01 | 02:06:41 | 00:00:00 | |
| BIOWL9-15 | 2026-09-02 11:57:28 | 52.69892 | 10.68864 | 2° | 4km/h | 22864m | 5.1m/s | -51.6°C | 0.5% | 37.3hPa | 2.7V | 00:00:00 | 00:00:00 | 00:00:00 | |
| DL1NUX | 2026-09-02 11:57:27 | 52.69889 | 10.68865 | 338° | 5km/h | 22846m | 4.9m/s | -51.7°C | 3.2% | 37.4hPa | 2.7V | 03:52:04 | 02:06:38 | 00:00:00 | |
| TFSTFS | 2026-09-02 11:57:27 | 52.69892 | 10.68864 | 3° | 5km/h | 22864m | 5.1m/s | -51.6°C | 0.5% | 37.3hPa | 2.7V | 00:00:00 | 00:00:00 | 00:00:00 | |
| DB0DAN | 2026-09-02 11:57:25 | 52.69890 | 10.68864 | 324° | 4km/h | 22851m | 5.4m/s | -51.6°C | 0.5% | 37.4hPa | 2.7V | 00:00:00 | 00:00:00 | 00:00:00 | |
| DL1XH-west | 2026-09-02 11:57:25 | 52.69890 | 10.68864 | 324° | 4km/h | 22851m | 5.4m/s | -51.6°C | 0% | 37.4hPa | 2.7V | 03:52:03 | 02:06:39 | 00:00:00 | |
| DF8AY | 2026-09-02 11:57:25 | 52.69884 | 10.68867 | 352° | 16km/h | 22834m | 5.6m/s | -51.6°C | 0% | 37.5hPa | 2.7V | 03:52:54 | 02:06:36 | 00:00:00 | |
| EDDB2-11 | 2026-09-02 11:57:24 | 52.69887 | 10.68866 | 349° | 9km/h | 22840m | 6.9m/s | -51.7°C | 0.5% | 37.4hPa | 2.7V | 00:00:00 | 00:00:00 | 00:00:00 | |
| DD8BA-10 | 2026-09-02 11:57:23 | 52.69887 | 10.68866 | 350° | 18km/h | 22840m | 6.9m/s | -51.6°C | 3.2% | 37.4hPa | 2.7V | 00:00:00 | 00:00:00 | 00:00:00 | |
| DL1XH-15 | 2026-09-02 11:57:22 | 52.69858 | 10.68888 | 316° | 16km/h | 22804m | 5m/s | -51.5°C | 3.2% | 37.7hPa | 2.7V | 03:52:12 | 02:06:30 | 00:00:00 | |
| DO2SHX-10 | 2026-09-02 11:57:22 | 52.69884 | 10.68867 | 353° | 18km/h | 22834m | 5.6m/s | -51.6°C | 3.1% | 37.4hPa | 2.7V | 00:00:00 | 02:06:36 | 00:00:00 | |
| DL1XH1-15 | 2026-09-02 11:57:21 | 52.69855 | 10.68892 | 321° | 15km/h | 22798m | 5.9m/s | -51.6°C | 3.2% | 37.7hPa | 2.7V | 03:52:13 | 02:06:29 | 00:00:00 | |
| HSKMA3-T | 2026-09-02 11:57:19 | 52.69869 | 10.68873 | 333° | 22km/h | 22819m | 5.9m/s | -51.6°C | 0% | 37.6hPa | 2.6V | 03:52:54 | 02:06:33 | 00:00:00 | |
| AA1-15 | 2026-09-02 11:57:18 | 52.69864 | 10.68878 | 322° | 18km/h | 22813m | 5.4m/s | -51.5°C | 0% | 37.6hPa | 2.7V | 03:52:54 | 02:06:32 | 00:00:00 | |
| BIOWL1-15 | 2026-09-02 11:57:17 | 52.69829 | 10.68932 | 306° | 7km/h | 22746m | 5.6m/s | -51.5°C | 0% | 38hPa | 2.6V | 03:52:54 | 02:06:19 | 00:00:00 | |
| DL1XH-west | 2026-09-02 11:57:16 | 52.69855 | 10.68892 | 321° | 15km/h | 22798m | 5.9m/s | -51.6°C | 0% | 37.7hPa | 2.7V | 03:52:54 | 02:06:29 | 00:00:00 | |
| DM0DOS-11 | 2026-09-02 11:57:16 | 52.69843 | 10.68910 | 305° | 18km/h | 22776m | 5.4m/s | -51.7°C | 3.2% | 37.8hPa | 2.7V | 03:52:17 | 02:06:25 | 00:00:00 | |
| DF8AY | 2026-09-02 11:57:13 | 52.69846 | 10.68904 | 313° | 16km/h | 22782m | 6.4m/s | -51.6°C | 0% | 37.8hPa | 2.6V | 03:52:54 | 02:06:26 | 00:00:00 | |
| DD8BA-10 | 2026-09-02 11:57:13 | 52.69849 | 10.68899 | 323° | 13km/h | 22788m | 4.6m/s | -51.5°C | 3.2% | 37.8hPa | 2.6V | 03:52:00 | 00:00:00 | 00:00:00 | |
| DO2SHX-10 | 2026-09-02 11:57:12 | 52.69846 | 10.68904 | 313° | 18km/h | 22782m | 6.3m/s | -51.6°C | 3.2% | 37.7hPa | 2.6V | 00:00:00 | 02:06:26 | 00:00:00 | |
| DB0DAN | 2026-09-02 11:57:10 | 52.69840 | 10.68916 | 305° | 16km/h | 22772m | 3.7m/s | -51.8°C | 0.5% | 37.87hPa | 2.7V | 00:00:00 | 00:00:00 | 00:00:00 | |
| DL1XH1-15 | 2026-09-02 11:57:10 | 52.69830 | 10.68930 | 330° | 7km/h | 22751m | 4.1m/s | -51.7°C | 3.3% | 38hPa | 2.6V | 03:52:22 | 02:06:20 | 00:00:00 | |
| HSKMA3-T | 2026-09-02 11:57:09 | 52.69838 | 10.68921 | 311° | 16km/h | 22767m | 5.3m/s | -51.8°C | 0% | 37.9hPa | 2.7V | 03:52:54 | 02:06:23 | 00:00:00 | |
| AA1-15 | 2026-09-02 11:57:07 | 52.69832 | 10.68928 | 334° | 11km/h | 22755m | 4.9m/s | -51.7°C | 0% | 37.9hPa | 2.6V | 03:52:54 | 02:06:21 | 00:00:00 | |
| GOEST3-10 | 2026-09-02 11:57:07 | 52.69832 | 10.68928 | 335° | 11km/h | 22756m | 4.8m/s | -51.7°C | 3.3% | 37.9hPa | 2.7V | 00:00:00 | 00:00:00 | 00:00:00 | |
| DL1NUX | 2026-09-02 11:57:06 | 52.69828 | 10.68936 | 278° | 11km/h | 22740m | 6.1m/s | -51.5°C | 3.2% | 38hPa | 2.7V | 03:52:24 | 02:06:18 | 00:00:00 | |
| BIOWL1-15 | 2026-09-02 11:57:04 | 52.69828 | 10.68936 | 279° | 11km/h | 22740m | 6.1m/s | -51.5°C | 0% | 38hPa | 2.7V | 03:52:54 | 02:06:18 | 00:00:00 | |
| DF8AY | 2026-09-02 11:57:03 | 52.69828 | 10.68941 | 274° | 15km/h | 22734m | 5.5m/s | -51.5°C | 0% | 38.1hPa | 2.7V | 03:52:54 | 02:06:17 | 00:00:00 | |
| DD8BA-10 | 2026-09-02 11:57:03 | 52.69828 | 10.68941 | 274° | 15km/h | 22734m | 5.5m/s | -51.5°C | 3.2% | 38.0hPa | 2.7V | 00:00:00 | 00:00:00 | 00:00:00 | |
| DO9LL-15 | 2026-09-02 11:57:02 | 52.69827 | 10.68948 | 276° | 11km/h | 22729m | 5.1m/s | -51.5°C | 3.2% | 38.0hPa | 2.7V | 00:00:00 | 02:06:16 | 00:00:00 | |
| DO2SHX-10 | 2026-09-02 11:57:01 | 52.69827 | 10.68956 | 285° | 20km/h | 22723m | 6.6m/s | -51.6°C | 3.2% | 38.1hPa | 2.7V | 03:52:00 | 02:06:15 | 00:00:00 | |
| DL1XH1-15 | 2026-09-02 11:57:00 | 52.69820 | 10.68991 | 251° | 11km/h | 22697m | 5.9m/s | -51.4°C | 3.1% | 38.3hPa | 2.7V | 03:52:32 | 02:06:10 | 00:00:00 | |
| HSKMA3-T | 2026-09-02 11:56:58 | 52.69820 | 10.68979 | 291° | 16km/h | 22708m | 4.1m/s | -51.4°C | 0% | 38.2hPa | 2.6V | 03:52:54 | 02:06:12 | 00:00:00 | |
| BIOWL9-15 | 2026-09-02 11:56:57 | 52.69820 | 10.68991 | 251° | 11km/h | 22697m | 5.9m/s | -51.4°C | 0.5% | 38.3hPa | 2.7V | 00:00:00 | 00:00:00 | 00:00:00 | |
| DL1NUX | 2026-09-02 11:56:56 | 52.69823 | 10.68996 | 194° | 7km/h | 22685m | 6.7m/s | -51.2°C | 3.1% | 38.4hPa | 2.7V | 03:52:34 | 02:06:08 | 00:00:00 | |
| AA1-15 | 2026-09-02 11:56:56 | 52.69820 | 10.68991 | 251° | 11km/h | 22697m | 5.9m/s | -51.4°C | 0% | 38.3hPa | 2.7V | 03:52:54 | 02:06:10 | 00:00:00 | |
| HTAHTA | 2026-09-02 11:56:56 | 52.69825 | 10.68996 | 168° | 5km/h | 22679m | 5.9m/s | -51.2°C | 0.5% | 38.4hPa | 2.6V | 00:00:00 | 00:00:00 | 00:00:00 | |
| DM0DOS-11 | 2026-09-02 11:56:55 | 52.69828 | 10.68995 | 177° | 5km/h | 22669m | 4.4m/s | -51.2°C | 3.1% | 38.5hPa | 2.6V | 03:52:37 | 02:06:05 | 00:00:00 | |
| DB0DAN | 2026-09-02 11:56:55 | 52.69821 | 10.68994 | 222° | 9km/h | 22691m | 5.6m/s | -51.3°C | 0.5% | 38.34hPa | 2.7V | 00:00:00 | 00:00:00 | 00:00:00 | |
| BIOWL1-15 | 2026-09-02 11:56:54 | 52.69832 | 10.68998 | 219° | 13km/h | 22657m | 6.2m/s | -51.3°C | 0% | 38.5hPa | 2.7V | 03:52:54 | 02:06:03 | 00:00:00 | |
| DL1XH-west | 2026-09-02 11:56:53 | 52.69825 | 10.68996 | 169° | 5km/h | 22679m | 5.9m/s | -51.2°C | 0% | 38.4hPa | 2.6V | 03:52:54 | 02:06:07 | 00:00:00 | |
| EDDB2-11 | 2026-09-02 11:56:53 | 52.69826 | 10.68995 | 157° | 5km/h | 22674m | 4.5m/s | -51.2°C | 0.5% | 38.4hPa | 2.7V | 00:00:00 | 00:00:00 | 00:00:00 | |
| GOEST3-10 | 2026-09-02 11:56:52 | 52.69826 | 10.68995 | 158° | 9km/h | 22674m | 4.5m/s | -51.1°C | 3.1% | 38.4hPa | 2.7V | 00:00:00 | 02:06:06 | 00:00:00 | |
| SO1NDE-10 | 2026-09-02 11:56:51 | 52.69828 | 10.68995 | 178° | 13km/h | 22670m | 4.4m/s | -51.2°C | 3.1% | 38.4hPa | 2.7V | 00:00:00 | 02:06:05 | 00:00:00 | |
| DO2SHX-10 | 2026-09-02 11:56:50 | 52.69829 | 10.68995 | 201° | 11km/h | 22664m | 6.3m/s | -51.2°C | 3.1% | 38.5hPa | 2.7V | 00:00:00 | 02:06:04 | 00:00:00 | |
| DL1XH1-15 | 2026-09-02 11:56:49 | 52.69837 | 10.69013 | 259° | 13km/h | 22640m | 6m/s | -51.6°C | 3.1% | 38.6hPa | 2.6V | 03:52:42 | 02:06:00 | 00:00:00 | |
| HSKMA3-T | 2026-09-02 11:56:47 | 52.69836 | 10.69007 | 247° | 15km/h | 22646m | 5.7m/s | -51.5°C | 0% | 38.6hPa | 2.7V | 03:52:54 | 02:06:01 | 00:00:00 | |
| DF8AY | 2026-09-02 11:56:47 | 52.69837 | 10.69013 | 260° | 15km/h | 22640m | 6m/s | -51.6°C | 0% | 38.6hPa | 2.6V | 03:52:54 | 02:06:00 | 00:00:00 | |
| DL1NUX | 2026-09-02 11:56:46 | 52.69838 | 10.69023 | 263° | 11km/h | 22630m | 4.3m/s | -51.6°C | 3.1% | 38.7hPa | 2.6V | 03:52:44 | 02:05:58 | 00:00:00 | |
| AA1-15 | 2026-09-02 11:56:45 | 52.69837 | 10.69018 | 268° | 13km/h | 22635m | 4.2m/s | -51.6°C | 0% | 38.7hPa | 2.6V | 03:52:54 | 02:05:59 | 00:00:00 | |
| DM0DOS-11 | 2026-09-02 11:56:45 | 52.69842 | 10.69033 | 206° | 11km/h | 22614m | 4.6m/s | -51.6°C | 3.2% | 38.8hPa | 2.7V | 03:52:47 | 02:05:55 | 00:00:00 | |
| BIOWL1-15 | 2026-09-02 11:56:44 | 52.69842 | 10.69033 | 207° | 11km/h | 22614m | 4.6m/s | -51.7°C | 0% | 38.8hPa | 2.7V | 03:52:54 | 02:05:55 | 00:00:00 | |
| DL1XH-west | 2026-09-02 11:56:43 | 52.69838 | 10.69027 | 248° | 11km/h | 22626m | 5.9m/s | -51.6°C | 0% | 38.7hPa | 2.7V | 03:52:54 | 02:05:57 | 00:00:00 | |
| DD8BA-10 | 2026-09-02 11:56:43 | 52.69838 | 10.69027 | 249° | 11km/h | 22626m | 5.8m/s | -51.6°C | 3.2% | 38.7hPa | 2.7V | 00:00:00 | 00:00:00 | 00:00:00 | |
| GOEST3-10 | 2026-09-02 11:56:42 | 52.69840 | 10.69030 | 226° | 11km/h | 22620m | 5.8m/s | -51.5°C | 3.2% | 38.7hPa | 2.7V | 00:00:00 | 02:05:56 | 00:00:00 | |
| DO2SHX-10 | 2026-09-02 11:56:41 | 52.69842 | 10.69033 | 207° | 11km/h | 22615m | 4.6m/s | -51.6°C | 3.2% | 38.7hPa | 2.7V | 00:00:00 | 02:05:55 | 00:00:00 | |
| AP2371 | 2026-09-02 11:56:40 | 52.69842 | 10.69033 | 208° | 11km/h | 22615m | 4.6m/s | -51.7°C | 0.5% | 38.8hPa | 2.7V | 00:00:00 | 00:00:00 | 00:00:00 | |
| DL1XH1-15 | 2026-09-02 11:56:39 | 52.69854 | 10.69033 | 174° | 13km/h | 22587m | 6.3m/s | -51.6°C | 3.2% | 39hPa | 2.7V | 03:52:52 | 02:05:50 | 00:00:00 | |
| HSKMA3-T | 2026-09-02 11:56:37 | 52.69851 | 10.69034 | 168° | 11km/h | 22592m | 4.7m/s | -51.6°C | 0% | 38.9hPa | 2.6V | 03:52:54 | 02:05:51 | 00:00:00 | |
| DF8AY | 2026-09-02 11:56:37 | 52.69871 | 10.69030 | 151° | 13km/h | 22560m | 4.5m/s | -51.7°C | 0% | 39.1hPa | 2.6V | 03:53:45 | 02:05:45 | 00:00:00 | |
| GOEST3-10 | 2026-09-02 11:56:37 | 52.69851 | 10.69034 | 168° | 13km/h | 22593m | 4.7m/s | -51.6°C | 3.2% | 38.9hPa | 2.7V | 03:52:00 | 00:00:00 | 00:00:00 | |
| DL1NUX | 2026-09-02 11:56:36 | 52.69862 | 10.69033 | 179° | 15km/h | 22577m | 4.4m/s | -51.6°C | 3.2% | 39hPa | 2.7V | 03:52:54 | 02:05:48 | 00:00:00 | |
| AA1-15 | 2026-09-02 11:56:34 | 52.69862 | 10.69033 | 180° | 15km/h | 22577m | 4.4m/s | -51.7°C | 0% | 39hPa | 2.7V | 03:52:54 | 02:05:48 | 00:00:00 | |
| DL1XH-west | 2026-09-02 11:56:33 | 52.69865 | 10.69033 | 178° | 13km/h | 22571m | 6.2m/s | -51.7°C | 0% | 39hPa | 2.7V | 03:53:45 | 02:05:47 | 00:00:00 | |
| BIOWL1-15 | 2026-09-02 11:56:32 | 52.69868 | 10.69032 | 165° | 13km/h | 22566m | 5.6m/s | -51.8°C | 0% | 39.1hPa | 2.6V | 03:53:45 | 02:05:46 | 00:00:00 | |
| GOEST3-10 | 2026-09-02 11:56:31 | 52.69871 | 10.69030 | 152° | 16km/h | 22561m | 4.4m/s | -51.7°C | 3.2% | 39.1hPa | 2.7V | 00:00:00 | 02:05:45 | 00:00:00 | |
| DF7ER-10 | 2026-09-02 11:56:30 | 52.69871 | 10.69030 | 152° | 13km/h | 22561m | 4.5m/s | -51.7°C | 0.6% | 39.1hPa | 2.7V | 03:53:00 | 00:00:00 | 00:00:00 | |
| DO2SHX-10 | 2026-09-02 11:56:29 | 52.69878 | 10.69024 | 152° | 18km/h | 22550m | 5.9m/s | -51.6°C | 3.2% | 39.1hPa | 2.7V | 00:00:00 | 02:05:43 | 00:00:00 | |
| DL1XH1-15 | 2026-09-02 11:56:28 | 52.69890 | 10.69013 | 142° | 18km/h | 22535m | 5.5m/s | -51.7°C | 3.2% | 39.3hPa | 2.7V | 03:53:02 | 02:05:40 | 00:00:00 | |
| HSKMA3-T | 2026-09-02 11:56:27 | 52.69890 | 10.69013 | 142° | 18km/h | 22535m | 5.5m/s | -51.7°C | 0% | 39.3hPa | 2.7V | 03:53:45 | 02:05:40 | 00:00:00 | |
| DL1NUX | 2026-09-02 11:56:26 | 52.69896 | 10.69001 | 115° | 18km/h | 22524m | 5.2m/s | -51.7°C | 3.2% | 39.3hPa | 2.6V | 03:53:04 | 02:05:38 | 00:00:00 | |
| DB0DAN | 2026-09-02 11:56:25 | 52.69894 | 10.69007 | 128° | 18km/h | 22530m | 5.7m/s | -51.8°C | 0.5% | 39.32hPa | 2.6V | 00:00:00 | 00:00:00 | 00:00:00 | |
| AA1-15 | 2026-09-02 11:56:24 | 52.69898 | 10.68993 | 113° | 18km/h | 22519m | 4.9m/s | -51.6°C | 0% | 39.4hPa | 2.6V | 03:53:45 | 02:05:37 | 00:00:00 | |
| DL1XH-west | 2026-09-02 11:56:22 | 52.69900 | 10.68987 | 121° | 18km/h | 22514m | 5.6m/s | -51.6°C | 0% | 39.4hPa | 2.7V | 03:53:45 | 02:05:36 | 00:00:00 | |
| BIOWL1-15 | 2026-09-02 11:56:22 | 52.69909 | 10.68974 | 149° | 15km/h | 22496m | 6m/s | -51.7°C | 0% | 39.5hPa | 2.7V | 03:53:45 | 02:05:33 | 00:00:00 | |
| HSKMA3-T | 2026-09-02 11:56:15 | 52.69922 | 10.68962 | 157° | 16km/h | 22475m | 6.4m/s | -51.9°C | 0% | 39.6hPa | 2.7V | 03:53:45 | 02:05:29 | 00:00:00 | |
| DO3MHA-11 | 2026-09-02 11:56:15 | 52.69922 | 10.68962 | 158° | 20km/h | 22475m | 6.3m/s | -51.9°C | 3.2% | 39.5hPa | 2.6V | 03:53:00 | 02:05:29 | 00:00:00 | |
| DM0DOS-11 | 2026-09-02 11:56:14 | 52.69932 | 10.68943 | 88° | 20km/h | 22454m | 5.3m/s | -52°C | 3.3% | 39.8hPa | 2.6V | 03:53:17 | 02:05:25 | 00:00:00 | |
| AA1-15 | 2026-09-02 11:56:13 | 52.69930 | 10.68955 | 136° | 15km/h | 22465m | 4.6m/s | -51.9°C | 0% | 39.7hPa | 2.7V | 03:53:45 | 02:05:27 | 00:00:00 | |
| DL1XH-west | 2026-09-02 11:56:11 | 52.69932 | 10.68943 | 89° | 20km/h | 22454m | 5.3m/s | -52.1°C | 0% | 39.8hPa | 2.6V | 03:53:45 | 02:05:25 | 00:00:00 | |
| DB0DAN | 2026-09-02 11:56:10 | 52.69932 | 10.68934 | 83° | 22km/h | 22449m | 4.2m/s | -52.1°C | 0.5% | 39.77hPa | 2.6V | 00:00:00 | 00:00:00 | 00:00:00 | |
| DF7ER-10 | 2026-09-02 11:56:09 | 52.69932 | 10.68934 | 84° | 24km/h | 22450m | 4.2m/s | -52.1°C | 0.5% | 39.8hPa | 2.7V | 03:53:00 | 00:00:00 | 00:00:00 | |
| DL1XH1-15 | 2026-09-02 11:56:08 | 52.69935 | 10.68894 | 117° | 26km/h | 22429m | 4.6m/s | -52.2°C | 3.3% | 39.9hPa | 2.7V | 03:53:22 | 02:05:20 | 00:00:00 | |
| DL1NUX | 2026-09-02 11:56:07 | 52.69941 | 10.68877 | 120° | 22km/h | 22419m | 5.8m/s | -52.2°C | 3.3% | 40hPa | 2.6V | 03:53:24 | 02:05:18 | 00:00:00 | |
| HSKMA3-T | 2026-09-02 11:56:05 | 52.69938 | 10.68885 | 121° | 24km/h | 22424m | 5.2m/s | -52.2°C | 0% | 39.9hPa | 2.7V | 03:53:45 | 02:05:19 | 00:00:00 | |
| AA1-15 | 2026-09-02 11:56:02 | 52.69947 | 10.68862 | 127° | 18km/h | 22409m | 4.5m/s | -52.3°C | 0% | 40hPa | 2.6V | 03:53:45 | 02:05:16 | 00:00:00 | |
| BIOWL1-15 | 2026-09-02 11:56:02 | 52.69958 | 10.68839 | 103° | 16km/h | 22387m | 6m/s | -52.3°C | 0% | 40.2hPa | 2.7V | 03:53:45 | 02:05:12 | 00:00:00 | |
| DL1XH-west | 2026-09-02 11:56:01 | 52.69953 | 10.68851 | 135° | 18km/h | 22397m | 5.4m/s | -52.3°C | 0% | 40.1hPa | 2.7V | 03:53:45 | 02:05:14 | 00:00:00 | |
| DF7ER-10 | 2026-09-02 11:55:59 | 52.69956 | 10.68845 | 125° | 16km/h | 22392m | 4.6m/s | -52.3°C | 0.6% | 40.2hPa | 2.6V | 03:53:00 | 00:00:00 | 00:00:00 | |
| DL1XH1-15 | 2026-09-02 11:55:58 | 52.69956 | 10.68824 | 67° | 22km/h | 22376m | 4.2m/s | -52.3°C | 3.2% | 40.2hPa | 2.6V | 03:53:32 | 02:05:10 | 00:00:00 | |
| S3001 | 2026-09-02 11:55:57 | 52.69956 | 10.68824 | 67° | 22km/h | 22376m | 4.2m/s | -52.3°C | 0.5% | 40.3hPa | 2.6V | 00:00:00 | 00:00:00 | 00:00:00 | |
| BUE01 | 2026-09-02 11:55:56 | 52.69956 | 10.68824 | 67° | 22km/h | 22376m | 4.2m/s | -52.3°C | 0.5% | 40.3hPa | 2.6V | 00:00:00 | 00:00:00 | 00:00:00 | |
| DM0DOS-11 | 2026-09-02 11:55:56 | 52.69950 | 10.68784 | 95° | 15km/h | 22351m | 5.6m/s | -52.2°C | 3.3% | 40.4hPa | 2.7V | 03:53:37 | 02:05:05 | 00:00:00 | |
| DB0DAN | 2026-09-02 11:55:55 | 52.69954 | 10.68815 | 68° | 22km/h | 22371m | 4m/s | -52.2°C | 0.5% | 40.25hPa | 2.6V | 00:00:00 | 00:00:00 | 00:00:00 | |
| DL1NUX | 2026-09-02 11:55:55 | 52.69952 | 10.68806 | 72° | 22km/h | 22367m | 5.6m/s | -52.2°C | 3.2% | 40.3hPa | 2.7V | 03:53:34 | 02:05:08 | 00:00:00 | |
| HSKMA3-T | 2026-09-02 11:55:54 | 52.69952 | 10.68806 | 73° | 22km/h | 22367m | 5.6m/s | -52.2°C | 0% | 40.3hPa | 2.7V | 03:53:45 | 02:05:08 | 00:00:00 | |
| DF8AY | 2026-09-02 11:55:53 | 52.69955 | 10.68756 | 112° | 18km/h | 22326m | 5.4m/s | -52.4°C | 0% | 40.6hPa | 2.7V | 03:53:45 | 02:05:00 | 00:00:00 | |
| AA1-15 | 2026-09-02 11:55:52 | 52.69950 | 10.68790 | 90° | 16km/h | 22356m | 5m/s | -52.2°C | 0% | 40.4hPa | 2.7V | 03:53:45 | 02:05:06 | 00:00:00 | |
| DL1XH-west | 2026-09-02 11:55:49 | 52.69951 | 10.68773 | 101° | 11km/h | 22341m | 4.3m/s | -52.3°C | 0% | 40.4hPa | 2.6V | 03:53:45 | 02:05:03 | 00:00:00 | |
| BIOWL1-15 | 2026-09-02 11:55:48 | 52.69957 | 10.68749 | 111° | 18km/h | 22322m | 3.8m/s | -52.5°C | 0% | 40.6hPa | 2.7V | 03:53:45 | 02:04:59 | 00:00:00 | |
| TFSTFS | 2026-09-02 11:55:47 | 52.69953 | 10.68763 | 113° | 16km/h | 22332m | 5.6m/s | -52.3°C | 0.5% | 40.5hPa | 2.6V | 00:00:00 | 00:00:00 | 00:00:00 | |
| DM0DOS-11 | 2026-09-02 11:55:46 | 52.69957 | 10.68727 | 71° | 15km/h | 22301m | 6.1m/s | -52.8°C | 3.5% | 40.7hPa | 2.6V | 03:53:47 | 02:04:55 | 00:00:00 | |
| GOEST3-10 | 2026-09-02 11:55:46 | 52.69955 | 10.68756 | 113° | 15km/h | 22327m | 5.4m/s | -52.3°C | 3.3% | 40.5hPa | 2.7V | 00:00:00 | 00:00:00 | 00:00:00 | |
| DL1NUX | 2026-09-02 11:55:45 | 52.69958 | 10.68742 | 107° | 15km/h | 22317m | 5.4m/s | -52.6°C | 3.3% | 40.6hPa | 2.7V | 03:53:44 | 02:04:58 | 00:00:00 | |
| HSKMA3-T | 2026-09-02 11:55:43 | 52.69959 | 10.68737 | 96° | 13km/h | 22312m | 5.9m/s | -52.6°C | 0% | 40.6hPa | 2.6V | 03:53:45 | 02:04:57 | 00:00:00 | |
| AA1-15 | 2026-09-02 11:55:41 | 52.69958 | 10.68727 | 72° | 15km/h | 22301m | 6.1m/s | -52.8°C | 0% | 40.7hPa | 2.6V | 03:54:36 | 02:04:55 | 00:00:00 | |
| DL1XH-west | 2026-09-02 11:55:39 | 52.69954 | 10.68713 | 61° | 20km/h | 22289m | 4.8m/s | -52.7°C | 0% | 40.8hPa | 2.7V | 03:54:36 | 02:04:53 | 00:00:00 | |
| DF8AY | 2026-09-02 11:55:36 | 52.69934 | 10.68649 | 72° | 13km/h | 22242m | 5.6m/s | -52.4°C | 0% | 41.1hPa | 2.7V | 03:55:27 | 02:04:44 | 00:00:00 | |
| BIOWL1-15 | 2026-09-02 11:55:36 | 52.69935 | 10.68655 | 82° | 16km/h | 22247m | 5.8m/s | -52.5°C | 0% | 41.1hPa | 2.7V | 03:54:36 | 02:04:45 | 00:00:00 | |
| DM0DOS-11 | 2026-09-02 11:55:36 | 52.69935 | 10.68655 | 82° | 16km/h | 22247m | 5.8m/s | -52.5°C | 3.3% | 41.1hPa | 2.7V | 03:53:57 | 02:04:45 | 00:00:00 | |
| HSKMA3-T | 2026-09-02 11:55:33 | 52.69936 | 10.68663 | 85° | 18km/h | 22252m | 4.2m/s | -52.6°C | 0% | 41.1hPa | 2.7V | 03:54:36 | 02:04:46 | 00:00:00 | |
| DL1XH-west | 2026-09-02 11:55:29 | 52.69933 | 10.68644 | 64° | 15km/h | 22236m | 4.6m/s | -52.5°C | 0% | 41.2hPa | 2.6V | 03:54:36 | 02:04:43 | 00:00:00 | |
| TFSTFS | 2026-09-02 11:55:28 | 52.69933 | 10.68644 | 65° | 15km/h | 22237m | 4.6m/s | -52.5°C | 0.6% | 41.2hPa | 2.6V | 03:54:00 | 00:00:00 | 00:00:00 | |
| DF8AY-15 | 2026-09-02 11:55:27 | 52.69929 | 10.68632 | 68° | 13km/h | 22226m | 5.6m/s | -52.4°C | 3.3% | 41.1hPa | 2.6V | 00:00:00 | 02:04:41 | 00:00:00 | |
| DM0DOS-11 | 2026-09-02 11:55:26 | 52.69921 | 10.68599 | 104° | 13km/h | 22195m | 6.5m/s | -52.7°C | 3.4% | 41.4hPa | 2.6V | 03:54:07 | 02:04:35 | 00:00:00 | |
| DB0NH | 2026-09-02 11:55:26 | 52.69927 | 10.68625 | 67° | 11km/h | 22221m | 4.9m/s | -52.6°C | 3.3% | 41.2hPa | 2.7V | 00:00:00 | 02:04:40 | 00:00:00 | |
| DL1NUX | 2026-09-02 11:55:25 | 52.69923 | 10.68613 | 57° | 15km/h | 22209m | 6m/s | -52.7°C | 3.4% | 41.3hPa | 2.7V | 03:54:04 | 02:04:38 | 00:00:00 | |
| DB0DAN | 2026-09-02 11:55:25 | 52.69926 | 10.68619 | 62° | 16km/h | 22215m | 5.5m/s | -52.7°C | 0.6% | 41.25hPa | 2.7V | 00:00:00 | 00:00:00 | 00:00:00 | |
| BIOWL1-15 | 2026-09-02 11:55:25 | 52.69923 | 10.68593 | 112° | 16km/h | 22189m | 5.7m/s | -52.8°C | 0% | 41.4hPa | 2.6V | 03:54:36 | 02:04:34 | 00:00:00 | |
| HSKMA3-T | 2026-09-02 11:55:22 | 52.69922 | 10.68599 | 105° | 15km/h | 22195m | 6.5m/s | -52.7°C | 0% | 41.4hPa | 2.6V | 03:54:36 | 02:04:35 | 00:00:00 | |
| DF8AY | 2026-09-02 11:55:20 | 52.69925 | 10.68586 | 118° | 18km/h | 22183m | 5.5m/s | -52.7°C | 0% | 41.5hPa | 2.7V | 03:55:27 | 02:04:33 | 00:00:00 | |
| SONDE2-11 | 2026-09-02 11:55:20 | 52.69925 | 10.68586 | 117° | 16km/h | 22183m | 5.5m/s | -52.7°C | 0.6% | 41.5hPa | 2.6V | 00:00:00 | 00:00:00 | 00:00:00 | |
| DL1NUX | 2026-09-02 11:55:19 | 52.69931 | 10.68559 | 97° | 16km/h | 22156m | 5.1m/s | -52.6°C | 3.4% | 41.6hPa | 2.6V | 03:54:14 | 02:04:28 | 00:00:00 | |
| AA1-15 | 2026-09-02 11:55:18 | 52.69927 | 10.68581 | 122° | 15km/h | 22177m | 6.5m/s | -52.7°C | 0% | 41.5hPa | 2.7V | 03:54:36 | 02:04:32 | 00:00:00 | |
| DL1XH1-15 | 2026-09-02 11:55:17 | 52.69930 | 10.68570 | 110° | 13km/h | 22167m | 4.1m/s | -52.6°C | 3.4% | 41.6hPa | 2.7V | 03:54:12 | 02:04:30 | 00:00:00 | |
| DO2SHX-10 | 2026-09-02 11:55:17 | 52.69928 | 10.68575 | 118° | 13km/h | 22171m | 4.9m/s | -52.6°C | 3.4% | 41.5hPa | 2.7V | 03:54:00 | 02:04:31 | 00:00:00 | |
| SP3BTT-10 | 2026-09-02 11:55:16 | 52.69930 | 10.68570 | 111° | 11km/h | 22167m | 4.1m/s | 0°C | 0% | 0hPa | 2.7V | 00:00:00 | 00:00:00 | 00:00:00 | |
| DL1CLM-18 | 2026-09-02 11:55:15 | 52.69930 | 10.68565 | 106° | 15km/h | 22162m | 6.1m/s | -52.6°C | 0.6% | 41.6hPa | 2.7V | 03:54:00 | 00:00:00 | 00:00:00 | |
| DO2SHX-10 | 2026-09-02 11:55:14 | 52.69931 | 10.68558 | 98° | 11km/h | 22156m | 5.0m/s | -52.6°C | 3.4% | 41.6hPa | 2.7V | 00:00:00 | 02:04:28 | 00:00:00 | |
| DM0DOS-11 | 2026-09-02 11:55:13 | 52.69931 | 10.68544 | 69° | 7km/h | 22140m | 6m/s | -52.5°C | 3.3% | 41.7hPa | 2.7V | 03:54:17 | 02:04:25 | 00:00:00 | |
| BIOWL1-15 | 2026-09-02 11:55:13 | 52.69931 | 10.68534 | 118° | 5km/h | 22114m | 4.6m/s | -52.5°C | 0% | 41.9hPa | 2.6V | 03:54:36 | 02:04:20 | 00:00:00 | |
| HSKMA3-T | 2026-09-02 11:55:12 | 52.69931 | 10.68542 | 64° | 4km/h | 22134m | 5.1m/s | -52.4°C | 0% | 41.8hPa | 2.7V | 03:54:36 | 02:04:24 | 00:00:00 | |
| DF8AY | 2026-09-02 11:55:10 | 52.69931 | 10.68540 | 73° | 4km/h | 22129m | 5.7m/s | -52.5°C | 0% | 41.8hPa | 2.7V | 03:55:27 | 02:04:23 | 00:00:00 | |
| DB0DAN | 2026-09-02 11:55:10 | 52.69931 | 10.68542 | 64° | 4km/h | 22134m | 5.1m/s | -52.4°C | 0.6% | 41.8hPa | 2.7V | 00:00:00 | 00:00:00 | 00:00:00 | |
| DL4BBY-15 | 2026-09-02 11:55:10 | 52.69931 | 10.68542 | 64° | 7km/h | 22134m | 5.1m/s | -52.3°C | 0% | 0hPa | 2.6V | 00:00:00 | 00:00:00 | 00:00:00 | |
| NBG1-10 | 2026-09-02 11:55:08 | 52.69930 | 10.68538 | 87° | 7km/h | 22123m | 5.5m/s | -52.4°C | 3.4% | 41.9hPa | 2.6V | 03:54:00 | 02:04:22 | 00:00:00 | |
| DL1XH1-15 | 2026-09-02 11:55:07 | 52.69931 | 10.68534 | 118° | 5km/h | 22114m | 4.6m/s | -52.5°C | 3.3% | 41.9hPa | 2.6V | 03:54:22 | 02:04:20 | 00:00:00 | |
| DL1XH-west | 2026-09-02 11:55:07 | 52.69931 | 10.68536 | 103° | 7km/h | 22118m | 4.5m/s | -52.5°C | 0% | 41.9hPa | 2.6V | 03:54:36 | 02:04:21 | 00:00:00 | |
| DF7ER-10 | 2026-09-02 11:55:07 | 52.69930 | 10.68536 | 104° | 7km/h | 22118m | 4.5m/s | -52.5°C | 0.6% | 41.9hPa | 2.7V | 03:54:00 | 00:00:00 | 00:00:00 | |
| GOEST3-10 | 2026-09-02 11:55:06 | 52.69931 | 10.68534 | 119° | 7km/h | 22114m | 4.5m/s | -52.5°C | 3.3% | 41.9hPa | 2.7V | 00:00:00 | 00:00:00 | 00:00:00 | |
| DL1NUX | 2026-09-02 11:55:05 | 52.69933 | 10.68530 | 134° | 7km/h | 22102m | 4.7m/s | -52.5°C | 3.4% | 42hPa | 2.7V | 03:54:24 | 02:04:18 | 00:00:00 | |
| HSKMA3-T | 2026-09-02 11:55:01 | 52.69937 | 10.68518 | 111° | 16km/h | 22087m | 5.5m/s | -52.5°C | 0% | 42.1hPa | 2.6V | 03:54:36 | 02:04:15 | 00:00:00 | |
| DF8AY | 2026-09-02 11:54:59 | 52.69939 | 10.68507 | 102° | 11km/h | 22076m | 6.7m/s | -52.5°C | 0% | 42.2hPa | 2.6V | 03:55:27 | 02:04:13 | 00:00:00 | |
| DJ2DS-15 | 2026-09-02 11:54:58 | 52.69940 | 10.68501 | 101° | 4km/h | 22064m | 4.9m/s | -52.5°C | 0.6% | 42.3hPa | 2.7V | 00:00:00 | 00:00:00 | 00:00:00 | |
| DL1XH-15 | 2026-09-02 11:54:57 | 52.69940 | 10.68500 | 122° | 4km/h | 22058m | 6.7m/s | -52.4°C | 3.3% | 42.3hPa | 2.7V | 03:54:32 | 02:04:10 | 00:00:00 | |
| DL1XH-west | 2026-09-02 11:54:56 | 52.69940 | 10.68500 | 122° | 4km/h | 22058m | 6.7m/s | -52.4°C | 0% | 42.3hPa | 2.7V | 03:54:36 | 02:04:10 | 00:00:00 | |
| DB0DAN | 2026-09-02 11:54:55 | 52.69941 | 10.68498 | 128° | 4km/h | 22053m | 5.2m/s | -52.4°C | 0.6% | 42.33hPa | 2.7V | 00:00:00 | 00:00:00 | 00:00:00 | |
| HSKMA3-T | 2026-09-02 11:54:50 | 52.69944 | 10.68504 | 168° | 5km/h | 22022m | 6.1m/s | -52.7°C | 0% | 42.5hPa | 2.7V | 03:55:27 | 02:04:03 | 00:00:00 | |
| SMARD9-15 | 2026-09-02 11:54:50 | 52.69942 | 10.68503 | 219° | 4km/h | 22027m | 4.0m/s | -52.6°C | 0.6% | 42.5hPa | 2.7V | 00:00:00 | 00:00:00 | 00:00:00 | |
| DF8AY | 2026-09-02 11:54:49 | 52.69950 | 10.68489 | 247° | 4km/h | 21986m | 5.7m/s | -52.9°C | 0% | 42.8hPa | 2.7V | 03:55:27 | 02:03:56 | 00:00:00 | |
| DL1XH1-15 | 2026-09-02 11:54:48 | 52.69949 | 10.68495 | 118° | 11km/h | 22007m | 4.2m/s | -52.8°C | 3.4% | 42.7hPa | 2.6V | 03:54:42 | 02:04:00 | 00:00:00 | |
| DL1XH-west | 2026-09-02 11:54:46 | 52.69949 | 10.68495 | 118° | 11km/h | 22007m | 4.2m/s | -52.8°C | 0% | 42.7hPa | 2.6V | 03:55:27 | 02:04:00 | 00:00:00 | |
| AA1-15 | 2026-09-02 11:54:45 | 52.69950 | 10.68491 | 107° | 9km/h | 22001m | 5.9m/s | -52.8°C | 0% | 42.7hPa | 2.6V | 03:55:27 | 02:03:59 | 00:00:00 | |
| DL4XJ-10 | 2026-09-02 11:54:44 | 52.69950 | 10.68488 | 88° | 7km/h | 21996m | 5.0m/s | -52.7°C | 0% | 0hPa | 2.7V | 00:00:00 | 00:00:00 | 00:00:00 | |
| DO3MHA-11 | 2026-09-02 11:54:43 | 52.69950 | 10.68488 | 275° | 5km/h | 21991m | 4.5m/s | -52.8°C | 3.4% | 42.7hPa | 2.7V | 00:00:00 | 02:03:57 | 00:00:00 | |
| DD8BA-10 | 2026-09-02 11:54:42 | 52.69950 | 10.68489 | 247° | 11km/h | 21986m | 5.6m/s | -52.8°C | 3.4% | 42.7hPa | 2.7V | 00:00:00 | 00:00:00 | 00:00:00 | |
| DB0DAN | 2026-09-02 11:54:40 | 52.69953 | 10.68494 | 216° | 11km/h | 21974m | 5.6m/s | -52.8°C | 0.6% | 42.79hPa | 2.6V | 00:00:00 | 00:00:00 | 00:00:00 | |
| DL4BBY-15 | 2026-09-02 11:54:40 | 52.69953 | 10.68494 | 216° | 7km/h | 21975m | 5.6m/s | -52.7°C | 0% | 0hPa | 2.7V | 00:00:00 | 00:00:00 | 00:00:00 | |
| DL1NUX | 2026-09-02 11:54:39 | 52.69967 | 10.68497 | 143° | 13km/h | 21943m | 6.1m/s | -52.7°C | 3.4% | 43.1hPa | 2.7V | 03:54:54 | 02:03:48 | 00:00:00 | |
| AM1SDL-15 | 2026-09-02 11:54:38 | 52.69958 | 10.68500 | 209° | 9km/h | 21964m | 5.0m/s | -52.7°C | 3.4% | 42.9hPa | 2.7V | 00:00:00 | 02:03:52 | 00:00:00 | |
| HSKMA3-T | 2026-09-02 11:54:38 | 52.69958 | 10.68500 | 209° | 11km/h | 21964m | 5m/s | -52.8°C | 0% | 42.9hPa | 2.6V | 03:55:27 | 02:03:52 | 00:00:00 | |
| DL1XH1-15 | 2026-09-02 11:54:37 | 52.69962 | 10.68502 | 163° | 5km/h | 21953m | 4.5m/s | -52.7°C | 3.4% | 43hPa | 2.7V | 03:54:52 | 02:03:50 | 00:00:00 | |
| DL1XH-west | 2026-09-02 11:54:35 | 52.69964 | 10.68500 | 145° | 9km/h | 21948m | 4.4m/s | -52.7°C | 0% | 43hPa | 2.7V | 03:55:27 | 02:03:49 | 00:00:00 | |
| AA1-15 | 2026-09-02 11:54:34 | 52.69966 | 10.68497 | 143° | 13km/h | 21943m | 6.1m/s | -52.7°C | 0% | 43.1hPa | 2.7V | 03:55:27 | 02:03:48 | 00:00:00 | |
| AP2371 | 2026-09-02 11:54:34 | 52.69967 | 10.68497 | 144° | 13km/h | 21943m | 6.1m/s | -52.7°C | 0.6% | 43.1hPa | 2.6V | 00:00:00 | 00:00:00 | 00:00:00 | |
| DM0DOS-11 | 2026-09-02 11:54:33 | 52.69976 | 10.68487 | 143° | 11km/h | 21927m | 5.2m/s | -52.6°C | 3.4% | 43.1hPa | 2.6V | 03:54:57 | 02:03:45 | 00:00:00 | |
| DD8BA-10 | 2026-09-02 11:54:32 | 52.69973 | 10.68490 | 147° | 5km/h | 21932m | 4.4m/s | -52.6°C | 3.3% | 43.1hPa | 2.6V | 03:54:00 | 00:00:00 | 00:00:00 | |
| GOEST3-10 | 2026-09-02 11:54:31 | 52.69975 | 10.68487 | 144° | 5km/h | 21927m | 5.1m/s | -52.5°C | 3.4% | 43.1hPa | 2.6V | 00:00:00 | 02:03:45 | 00:00:00 | |
| SONCRA | 2026-09-02 11:54:30 | 52.69978 | 10.68484 | 133° | 0km/h | 21916m | 4.6m/s | -52.6°C | 0.5% | 43.2hPa | 2.6V | 00:00:00 | 00:00:00 | 00:00:00 | |
| DL1NUX | 2026-09-02 11:54:29 | 52.69982 | 10.68488 | 186° | 5km/h | 21890m | 5.3m/s | -52.5°C | 3.4% | 43.4hPa | 2.6V | 03:55:04 | 02:03:38 | 00:00:00 | |
| HSKMA3-T | 2026-09-02 11:54:28 | 52.69978 | 10.68484 | 278° | 2km/h | 21911m | 4.9m/s | -52.5°C | 0% | 43.3hPa | 2.7V | 03:55:27 | 02:03:42 | 00:00:00 | |
| DF8AY | 2026-09-02 11:54:27 | 52.69979 | 10.68486 | 219° | 5km/h | 21900m | 5.3m/s | -52.5°C | 0% | 43.4hPa | 2.6V | 03:55:27 | 02:03:40 | 00:00:00 | |
| DF8AY-15 | 2026-09-02 11:54:27 | 52.69978 | 10.68485 | 249° | 5km/h | 21906m | 6.4m/s | -52.5°C | 3.4% | 43.3hPa | 2.7V | 03:55:00 | 02:03:41 | 00:00:00 | |
| DM0DOS-11 | 2026-09-02 11:54:26 | 52.69984 | 10.68484 | 105° | 7km/h | 21873m | 4.9m/s | -52.5°C | 3.4% | 43.5hPa | 2.7V | 03:55:07 | 02:03:35 | 00:00:00 | |
| DB0DAN | 2026-09-02 11:54:25 | 52.69980 | 10.68488 | 205° | 5km/h | 21895m | 4.1m/s | -52.5°C | 0.5% | 43.39hPa | 2.6V | 00:00:00 | 00:00:00 | 00:00:00 | |
| DL1XH-west | 2026-09-02 11:54:25 | 52.69980 | 10.68488 | 205° | 7km/h | 21895m | 4.1m/s | -52.5°C | 0% | 43.4hPa | 2.6V | 03:55:27 | 02:03:39 | 00:00:00 | |
| AA1-15 | 2026-09-02 11:54:23 | 52.69983 | 10.68488 | 144° | 4km/h | 21885m | 5.9m/s | -52.5°C | 0% | 43.5hPa | 2.7V | 03:55:27 | 02:03:37 | 00:00:00 | |
| BIOWL1-15 | 2026-09-02 11:54:22 | 52.69983 | 10.68487 | 108° | 5km/h | 21879m | 6m/s | -52.4°C | 0% | 43.5hPa | 2.7V | 03:55:27 | 02:03:36 | 00:00:00 | |
| DD8BA-10 | 2026-09-02 11:54:22 | 52.69983 | 10.68486 | 108° | 5km/h | 21879m | 5.9m/s | -52.4°C | 3.4% | 43.4hPa | 2.7V | 00:00:00 | 00:00:00 | 00:00:00 | |
| SO1NDE-10 | 2026-09-02 11:54:21 | 52.69984 | 10.68484 | 106° | 7km/h | 21873m | 4.8m/s | -52.4°C | 3.4% | 43.5hPa | 2.7V | 00:00:00 | 02:03:35 | 00:00:00 | |
| DL1NUX | 2026-09-02 11:54:19 | 52.69991 | 10.68468 | 45° | 4km/h | 21835m | 5.2m/s | -52.5°C | 3.4% | 43.8hPa | 2.7V | 03:55:14 | 02:03:28 | 00:00:00 | |
| HSKMA3-T | 2026-09-02 11:54:17 | 52.69990 | 10.68474 | 137° | 7km/h | 21852m | 5m/s | -52.5°C | 0% | 43.7hPa | 2.6V | 03:55:27 | 02:03:31 | 00:00:00 | |
| EDDB2-11 | 2026-09-02 11:54:17 | 52.69990 | 10.68474 | 136° | 7km/h | 21852m | 5.0m/s | -52.5°C | 0.6% | 43.7hPa | 2.6V | 00:00:00 | 00:00:00 | 00:00:00 | |
| DM0DOS-11 | 2026-09-02 11:54:16 | 52.69990 | 10.68469 | 265° | 2km/h | 21818m | 4.7m/s | -52.3°C | 3.4% | 43.9hPa | 2.6V | 03:55:17 | 02:03:25 | 00:00:00 | |
| DF8AY | 2026-09-02 11:54:15 | 52.69990 | 10.68469 | 51° | 2km/h | 21813m | 5.5m/s | -52.3°C | 0% | 44hPa | 2.6V | 03:55:27 | 02:03:24 | 00:00:00 | |
| DL1XH-west | 2026-09-02 11:54:14 | 52.69991 | 10.68468 | 46° | 4km/h | 21835m | 5.2m/s | -52.5°C | 0% | 43.8hPa | 2.7V | 03:55:27 | 02:03:28 | 00:00:00 | |
| AA1-15 | 2026-09-02 11:54:12 | 52.69990 | 10.68468 | 266° | 2km/h | 21824m | 5.3m/s | -52.4°C | 0% | 43.9hPa | 2.6V | 03:55:27 | 02:03:26 | 00:00:00 | |
| BIOWL1-15 | 2026-09-02 11:54:11 | 52.69989 | 10.68468 | 52° | 5km/h | 21808m | 5.9m/s | -52.3°C | 0% | 44hPa | 2.7V | 03:55:27 | 02:03:23 | 00:00:00 | |
| DB0DAN | 2026-09-02 11:54:10 | 52.69990 | 10.68469 | 51° | 2km/h | 21813m | 5.5m/s | -52.3°C | 0.6% | 43.95hPa | 2.6V | 00:00:00 | 00:00:00 | 00:00:00 | |
| DL2RXE-15 | 2026-09-02 11:54:10 | 52.69990 | 10.68469 | 0° | 0km/h | 21814m | 5.5m/s | -52.3°C | 0.6% | 43.9hPa | 2.6V | 00:00:00 | 00:00:00 | 00:00:00 | |
| DL1NUX | 2026-09-02 11:54:09 | 52.69988 | 10.68450 | 114° | 11km/h | 21780m | 4.5m/s | -52°C | 3.4% | 44.2hPa | 2.6V | 03:55:24 | 02:03:18 | 00:00:00 | |
| DL1XH1-15 | 2026-09-02 11:54:08 | 52.69987 | 10.68458 | 90° | 9km/h | 21792m | 6.6m/s | -52.1°C | 3.4% | 44.1hPa | 2.7V | 03:55:22 | 02:03:20 | 00:00:00 | |
| HSKMA3-T | 2026-09-02 11:54:07 | 52.69987 | 10.68458 | 90° | 9km/h | 21792m | 6.6m/s | -52.1°C | 0% | 44.1hPa | 2.7V | 03:55:27 | 02:03:20 | 00:00:00 | |
| DF8AY-15 | 2026-09-02 11:54:07 | 52.69987 | 10.68462 | 74° | 11km/h | 21797m | 4.3m/s | -52.2°C | 3.4% | 44.0hPa | 2.7V | 00:00:00 | 02:03:21 | 00:00:00 | |
| DM0DOS-11 | 2026-09-02 11:54:06 | 52.69991 | 10.68436 | 109° | 11km/h | 21764m | 4.9m/s | -51.9°C | 3.3% | 44.3hPa | 2.7V | 03:55:27 | 02:03:15 | 00:00:00 | |
| DF8AY | 2026-09-02 11:54:04 | 52.69990 | 10.68446 | 111° | 13km/h | 21775m | 6.4m/s | -52°C | 0% | 44.2hPa | 2.6V | 03:55:27 | 02:03:17 | 00:00:00 | |
| DL1XH-west | 2026-09-02 11:54:04 | 52.69988 | 10.68450 | 114° | 11km/h | 21780m | 4.5m/s | -52°C | 0% | 44.2hPa | 2.6V | 03:55:27 | 02:03:18 | 00:00:00 | |
| AA1-15 | 2026-09-02 11:54:01 | 52.69993 | 10.68432 | 117° | 11km/h | 21758m | 6.3m/s | -51.9°C | 0% | 44.3hPa | 2.7V | 03:56:18 | 02:03:14 | 00:00:00 | |
| EDDB2-12 | 2026-09-02 11:54:00 | 52.69993 | 10.68432 | 117° | 9km/h | 21758m | 6.3m/s | -51.9°C | 0.6% | 44.3hPa | 2.6V | 00:00:00 | 00:00:00 | 00:00:00 | |
| SONCRA | 2026-09-02 11:53:59 | 52.69994 | 10.68427 | 101° | 4km/h | 21747m | 4.9m/s | -51.8°C | 0.5% | 44.4hPa | 2.6V | 00:00:00 | 00:00:00 | 00:00:00 | |
| MECKS9 | 2026-09-02 11:53:58 | 52.69994 | 10.68427 | 103° | 5km/h | 21747m | 4.9m/s | -51.8°C | 0.5% | 44.4hPa | 2.6V | 00:00:00 | 00:00:00 | 00:00:00 | |
| DL1XH-15 | 2026-09-02 11:53:57 | 52.69994 | 10.68421 | 77° | 11km/h | 21735m | 5.3m/s | -51.8°C | 3.3% | 44.5hPa | 2.6V | 03:55:32 | 02:03:10 | 00:00:00 | |
| HSKMA3-T | 2026-09-02 11:53:56 | 52.69994 | 10.68421 | 77° | 11km/h | 21735m | 5.3m/s | -51.8°C | 0% | 44.5hPa | 2.6V | 03:56:18 | 02:03:10 | 00:00:00 | |
| DM0DOS-11 | 2026-09-02 11:53:56 | 52.69991 | 10.68398 | 87° | 13km/h | 21710m | 5.4m/s | -51.6°C | 3.2% | 44.6hPa | 2.6V | 03:55:37 | 02:03:05 | 00:00:00 | |
| DB0DAN | 2026-09-02 11:53:55 | 52.69993 | 10.68416 | 76° | 11km/h | 21730m | 3.9m/s | -51.9°C | 0.6% | 44.55hPa | 2.7V | 00:00:00 | 00:00:00 | 00:00:00 | |
| DL1XH-west | 2026-09-02 11:53:53 | 52.69992 | 10.68407 | 81° | 11km/h | 21720m | 5.8m/s | -51.8°C | 0% | 44.6hPa | 2.7V | 03:56:18 | 02:03:07 | 00:00:00 | |
| DF8AY | 2026-09-02 11:53:53 | 52.69991 | 10.68403 | 86° | 11km/h | 21715m | 4.8m/s | -51.7°C | 0% | 44.6hPa | 2.7V | 03:56:18 | 02:03:06 | 00:00:00 | |
| AA1-15 | 2026-09-02 11:53:49 | 52.69991 | 10.68384 | 94° | 20km/h | 21698m | 5.1m/s | -51.5°C | 0% | 44.7hPa | 2.6V | 03:56:18 | 02:03:03 | 00:00:00 | |
| DL1NUX | 2026-09-02 11:53:49 | 52.69999 | 10.68346 | 108° | 18km/h | 21670m | 6.8m/s | -51.4°C | 3.2% | 44.9hPa | 2.6V | 03:55:44 | 02:02:58 | 00:00:00 | |
| DO3MHA-11 | 2026-09-02 11:53:48 | 52.69992 | 10.68376 | 103° | 18km/h | 21693m | 5.1m/s | -51.5°C | 3.2% | 44.7hPa | 2.7V | 00:00:00 | 02:03:02 | 00:00:00 | |
| DL1XH1-15 | 2026-09-02 11:53:47 | 52.69995 | 10.68361 | 117° | 20km/h | 21680m | 5.3m/s | -51.5°C | 3.2% | 44.8hPa | 2.7V | 03:55:42 | 02:03:00 | 00:00:00 | |
| HSKMA3-T | 2026-09-02 11:53:46 | 52.69996 | 10.68361 | 117° | 20km/h | 21680m | 5.3m/s | -51.5°C | 0% | 44.8hPa | 2.7V | 03:56:18 | 02:03:00 | 00:00:00 | |
| DL1XH-west | 2026-09-02 11:53:42 | 52.70002 | 10.68331 | 109° | 18km/h | 21659m | 4.8m/s | -51.3°C | 0% | 45hPa | 2.6V | 03:56:18 | 02:02:56 | 00:00:00 | |
| DO2SHX-10 | 2026-09-02 11:53:42 | 52.70002 | 10.68331 | 110° | 18km/h | 21659m | 4.8m/s | -51.2°C | 3.2% | 45.0hPa | 2.7V | 00:00:00 | 02:02:56 | 00:00:00 | |
| DB0DAN | 2026-09-02 11:53:40 | 52.70006 | 10.68318 | 118° | 16km/h | 21648m | 5m/s | -51.2°C | 0.5% | 45.1hPa | 2.7V | 00:00:00 | 00:00:00 | 00:00:00 | |
| BIOWL1-15 | 2026-09-02 11:53:39 | 52.70027 | 10.68226 | 96° | 9km/h | 21558m | 5.9m/s | -51.5°C | 0% | 45.7hPa | 2.7V | 03:56:18 | 02:02:38 | 00:00:00 | |
| DL1NUX | 2026-09-02 11:53:39 | 52.70013 | 10.68276 | 112° | 15km/h | 21615m | 5.7m/s | -51°C | 3% | 45.3hPa | 2.7V | 03:55:54 | 02:02:48 | 00:00:00 | |
| AA1-15 | 2026-09-02 11:53:39 | 52.70009 | 10.68304 | 108° | 18km/h | 21637m | 6.6m/s | -51.2°C | 0% | 45.1hPa | 2.7V | 03:56:18 | 02:02:52 | 00:00:00 | |
| DO2SHX-10 | 2026-09-02 11:53:39 | 52.70008 | 10.68311 | 116° | 18km/h | 21643m | 4.8m/s | -51.1°C | 3.1% | 45.1hPa | 2.7V | 03:55:00 | 02:02:53 | 00:00:00 | |
| DO3MHA-11 | 2026-09-02 11:53:38 | 52.70009 | 10.68304 | 108° | 16km/h | 21637m | 6.5m/s | -51.1°C | 3.1% | 45.1hPa | 2.6V | 00:00:00 | 02:02:52 | 00:00:00 | |
| DL1XH-15 | 2026-09-02 11:53:37 | 52.70011 | 10.68290 | 97° | 18km/h | 21626m | 4.7m/s | -51°C | 3.1% | 45.3hPa | 2.6V | 03:55:52 | 02:02:50 | 00:00:00 | |
| DM0DOS-11 | 2026-09-02 11:53:36 | 52.70019 | 10.68259 | 116° | 16km/h | 21598m | 6.7m/s | -51°C | 3% | 45.4hPa | 2.7V | 03:55:57 | 02:02:45 | 00:00:00 | |
| HSKMA3-T | 2026-09-02 11:53:36 | 52.70011 | 10.68290 | 98° | 18km/h | 21626m | 4.7m/s | -51°C | 0% | 45.3hPa | 2.6V | 03:56:18 | 02:02:50 | 00:00:00 | |
| DL1XH-west | 2026-09-02 11:53:33 | 52.70017 | 10.68265 | 122° | 16km/h | 21604m | 5.5m/s | -51.1°C | 0% | 45.4hPa | 2.7V | 03:56:18 | 02:02:46 | 00:00:00 | |
| DF8AY | 2026-09-02 11:53:31 | 52.70019 | 10.68259 | 117° | 16km/h | 21598m | 6.7m/s | -51°C | 0% | 45.5hPa | 2.7V | 03:56:18 | 02:02:45 | 00:00:00 | |
| SP3BTT-10 | 2026-09-02 11:53:31 | 52.70019 | 10.68259 | 117° | 15km/h | 21598m | 6.7m/s | 0°C | 0% | 0hPa | 2.7V | 03:55:00 | 00:00:00 | 00:00:00 | |
| DL1NUX | 2026-09-02 11:53:29 | 52.70027 | 10.68226 | 96° | 9km/h | 21558m | 5.9m/s | -51.5°C | 3.1% | 45.7hPa | 2.7V | 03:56:04 | 02:02:38 | 00:00:00 | |
| AA1-15 | 2026-09-02 11:53:28 | 52.70024 | 10.68236 | 124° | 11km/h | 21575m | 5.9m/s | -51.4°C | 0% | 45.6hPa | 2.7V | 03:56:18 | 02:02:41 | 00:00:00 | |
| DL1XH1-15 | 2026-09-02 11:53:27 | 52.70025 | 10.68233 | 125° | 9km/h | 21569m | 4.8m/s | -51.4°C | 3.1% | 45.6hPa | 2.7V | 03:56:02 | 02:02:40 | 00:00:00 | |
| DF8AY-15 | 2026-09-02 11:53:27 | 52.70024 | 10.68236 | 124° | 15km/h | 21575m | 5.8m/s | -51.3°C | 3.1% | 45.5hPa | 2.6V | 00:00:00 | 02:02:41 | 00:00:00 | |
| DM0DOS-11 | 2026-09-02 11:53:26 | 52.70029 | 10.68209 | 115° | 18km/h | 21542m | 5.6m/s | -51.6°C | 3.2% | 45.8hPa | 2.6V | 03:56:07 | 02:02:35 | 00:00:00 | |
| HSKMA3-T | 2026-09-02 11:53:25 | 52.70026 | 10.68230 | 112° | 7km/h | 21564m | 5.3m/s | -51.4°C | 0% | 45.6hPa | 2.7V | 03:56:18 | 02:02:39 | 00:00:00 | |
| DB0DAN | 2026-09-02 11:53:25 | 52.70026 | 10.68230 | 112° | 7km/h | 21564m | 5.3m/s | -51.4°C | 0.5% | 45.64hPa | 2.7V | 00:00:00 | 00:00:00 | 00:00:00 | |
| DL1XH-west | 2026-09-02 11:53:22 | 52.70028 | 10.68215 | 106° | 16km/h | 21548m | 5.6m/s | -51.5°C | 0% | 45.8hPa | 2.6V | 03:56:18 | 02:02:36 | 00:00:00 | |
| DF8AY | 2026-09-02 11:53:19 | 52.70034 | 10.68195 | 124° | 20km/h | 21533m | 3.7m/s | -51.7°C | 0% | 45.9hPa | 2.7V | 03:56:18 | 02:02:33 | 00:00:00 | |
| DL1NUX | 2026-09-02 11:53:19 | 52.70042 | 10.68170 | 129° | 9km/h | 21506m | 5.8m/s | -52°C | 3.3% | 46.1hPa | 2.6V | 03:56:14 | 02:02:28 | 00:00:00 | |
| AA1-15 | 2026-09-02 11:53:16 | 52.70040 | 10.68177 | 113° | 13km/h | 21517m | 5.1m/s | -51.9°C | 0% | 46hPa | 2.6V | 03:56:18 | 02:02:30 | 00:00:00 | |
| HSKMA3-T | 2026-09-02 11:53:14 | 52.70042 | 10.68170 | 129° | 9km/h | 21506m | 5.8m/s | -52°C | 0% | 46.1hPa | 2.6V | 03:56:18 | 02:02:28 | 00:00:00 | |
| DL1XH-west | 2026-09-02 11:53:11 | 52.70045 | 10.68159 | 80° | 13km/h | 21490m | 6.6m/s | -51.9°C | 0% | 46.2hPa | 2.7V | 03:56:18 | 02:02:25 | 00:00:00 | |
| DB0DAN | 2026-09-02 11:53:10 | 52.70044 | 10.68153 | 74° | 16km/h | 21484m | 5.1m/s | -51.8°C | 0.6% | 46.24hPa | 2.7V | 00:00:00 | 00:00:00 | 00:00:00 | |
| DL4BBY-15 | 2026-09-02 11:53:10 | 52.70044 | 10.68153 | 75° | 20km/h | 21484m | 5.0m/s | -51.7°C | 0% | 0hPa | 2.7V | 00:00:00 | 00:00:00 | 00:00:00 | |
| DL1NUX | 2026-09-02 11:53:09 | 52.70043 | 10.68100 | 88° | 18km/h | 21452m | 6.2m/s | -52.2°C | 3.3% | 46.5hPa | 2.7V | 03:56:24 | 02:02:18 | 00:00:00 | |
| DF8AY | 2026-09-02 11:53:09 | 52.70043 | 10.68087 | 93° | 13km/h | 21440m | 6.7m/s | -52.5°C | 0% | 46.5hPa | 2.6V | 03:57:09 | 02:02:16 | 00:00:00 | |
| DO3MHA-11 | 2026-09-02 11:53:08 | 52.70042 | 10.68136 | 87° | 16km/h | 21475m | 6.1m/s | 0°C | 0% | 0hPa | 2.6V | 00:00:00 | 02:02:22 | 00:00:00 | |
| DM0DOS-11 | 2026-09-02 11:53:07 | 52.70043 | 10.68082 | 92° | 11km/h | 21434m | 5m/s | -52.6°C | 3.4% | 46.6hPa | 2.6V | 03:56:27 | 02:02:15 | 00:00:00 | |
| AA1-15 | 2026-09-02 11:53:06 | 52.70043 | 10.68117 | 96° | 22km/h | 21464m | 4.5m/s | -52°C | 0% | 46.4hPa | 2.7V | 03:57:09 | 02:02:20 | 00:00:00 | |
| BIOWL1-15 | 2026-09-02 11:53:04 | 52.70036 | 10.68057 | 67° | 18km/h | 21408m | 6m/s | -52.5°C | 0% | 46.8hPa | 2.7V | 03:57:09 | 02:02:10 | 00:00:00 | |
| HSKMA3-T | 2026-09-02 11:53:04 | 52.70043 | 10.68100 | 88° | 18km/h | 21452m | 6.3m/s | -52.2°C | 0% | 46.5hPa | 2.7V | 03:57:09 | 02:02:18 | 00:00:00 | |
| DL1XH-west | 2026-09-02 11:53:00 | 52.70043 | 10.68078 | 81° | 11km/h | 21430m | 4m/s | -52.5°C | 0% | 46.6hPa | 2.6V | 03:57:09 | 02:02:14 | 00:00:00 | |
| GOEST3-10 | 2026-09-02 11:53:00 | 52.70043 | 10.68078 | 81° | 15km/h | 21430m | 4.0m/s | -52.5°C | 3.4% | 46.6hPa | 2.6V | 00:00:00 | 02:02:14 | 00:00:00 | |
| DL1NUX | 2026-09-02 11:52:59 | 52.70035 | 10.68040 | 87° | 24km/h | 21397m | 4.5m/s | -52.5°C | 3.3% | 46.9hPa | 2.6V | 03:56:34 | 02:02:08 | 00:00:00 | |
| EDDB2-12 | 2026-09-02 11:52:58 | 52.70041 | 10.68069 | 56° | 15km/h | 21418m | 6.1m/s | -52.6°C | 0.6% | 46.7hPa | 2.7V | 00:00:00 | 00:00:00 | 00:00:00 | |
| SONCRA | 2026-09-02 11:52:57 | 52.70036 | 10.68057 | 67° | 16km/h | 21408m | 6.0m/s | -52.5°C | 0.6% | 46.8hPa | 2.7V | 00:00:00 | 00:00:00 | 00:00:00 | |
| DM0DOS-11 | 2026-09-02 11:52:56 | 52.70034 | 10.68004 | 85° | 33km/h | 21380m | 4.3m/s | -52.4°C | 3.4% | 47hPa | 2.7V | 03:56:37 | 02:02:05 | 00:00:00 | |
| DB0DAN | 2026-09-02 11:52:55 | 52.70035 | 10.68049 | 82° | 18km/h | 21402m | 5.7m/s | -52.5°C | 0.6% | 46.87hPa | 2.6V | 00:00:00 | 00:00:00 | 00:00:00 | |
| AA1-15 | 2026-09-02 11:52:55 | 52.70035 | 10.68049 | 82° | 20km/h | 21402m | 5.7m/s | -52.5°C | 0% | 46.9hPa | 2.6V | 03:57:09 | 02:02:09 | 00:00:00 | |
| DF8AY | 2026-09-02 11:52:54 | 52.70035 | 10.68040 | 87° | 24km/h | 21397m | 4.5m/s | -52.5°C | 0% | 46.9hPa | 2.6V | 03:57:09 | 02:02:08 | 00:00:00 | |
| BIOWL1-15 | 2026-09-02 11:52:53 | 52.70035 | 10.68030 | 88° | 27km/h | 21391m | 5.9m/s | -52.5°C | 0% | 46.9hPa | 2.6V | 03:57:09 | 02:02:07 | 00:00:00 | |
| DL1XH-west | 2026-09-02 11:52:50 | 52.70033 | 10.67991 | 87° | 31km/h | 21375m | 4.9m/s | -52.4°C | 0% | 47hPa | 2.7V | 03:57:09 | 02:02:04 | 00:00:00 | |
| BUE01 | 2026-09-02 11:52:50 | 52.70033 | 10.67979 | 88° | 27km/h | 21370m | 5.9m/s | -52.3°C | 0.6% | 47.1hPa | 2.6V | 00:00:00 | 00:00:00 | 00:00:00 | |
| DO2SHX-10 | 2026-09-02 11:52:49 | 52.70033 | 10.67979 | 89° | 26km/h | 21370m | 5.9m/s | -52.3°C | 3.3% | 47.0hPa | 2.6V | 03:56:00 | 02:02:03 | 00:00:00 | |
| DO3MHA-11 | 2026-09-02 11:52:48 | 52.70032 | 10.67968 | 89° | 20km/h | 21365m | 5.0m/s | 0°C | 0% | 0hPa | 2.6V | 00:00:00 | 02:02:02 | 00:00:00 | |
| DF8AY-15 | 2026-09-02 11:52:47 | 52.70032 | 10.67958 | 82° | 18km/h | 21360m | 4.4m/s | -52.2°C | 3.3% | 47.1hPa | 2.6V | 00:00:00 | 02:02:01 | 00:00:00 | |
| DM0DOS-11 | 2026-09-02 11:52:46 | 52.70017 | 10.67910 | 55° | 18km/h | 21327m | 5.8m/s | -52.3°C | 3.3% | 47.4hPa | 2.6V | 03:56:47 | 02:01:55 | 00:00:00 | |
| AA1-15 | 2026-09-02 11:52:45 | 52.70026 | 10.67931 | 59° | 24km/h | 21343m | 4.5m/s | -52.2°C | 0% | 47.3hPa | 2.7V | 03:57:09 | 02:01:58 | 00:00:00 | |
| EDDB2-11 | 2026-09-02 11:52:44 | 52.70026 | 10.67931 | 58° | 24km/h | 21343m | 4.5m/s | -52.2°C | 0.6% | 47.3hPa | 2.7V | 00:00:00 | 00:00:00 | 00:00:00 | |
| HSKMA3-T | 2026-09-02 11:52:43 | 52.70023 | 10.67923 | 55° | 22km/h | 21338m | 4.9m/s | -52.3°C | 0% | 47.3hPa | 2.7V | 03:57:09 | 02:01:57 | 00:00:00 | |
| BIOWL1-15 | 2026-09-02 11:52:42 | 52.70014 | 10.67903 | 59° | 18km/h | 21321m | 5.3m/s | -52.4°C | 0% | 47.4hPa | 2.7V | 03:57:09 | 02:01:54 | 00:00:00 | |
| DD8BA-10 | 2026-09-02 11:52:42 | 52.70019 | 10.67916 | 55° | 20km/h | 21333m | 6.7m/s | -52.2°C | 3.3% | 47.3hPa | 2.6V | 00:00:00 | 00:00:00 | 00:00:00 | |
| DL1CLM-18 | 2026-09-02 11:52:41 | 52.70019 | 10.67916 | 56° | 20km/h | 21333m | 6.7m/s | -52.2°C | 0.6% | 47.4hPa | 2.7V | 03:57:00 | 00:00:00 | 00:00:00 | |
| DB0DAN | 2026-09-02 11:52:40 | 52.70014 | 10.67903 | 59° | 16km/h | 21321m | 5.3m/s | -52.4°C | 0.6% | 47.43hPa | 2.7V | 00:00:00 | 00:00:00 | 00:00:00 | |
| DL1XH-west | 2026-09-02 11:52:39 | 52.70012 | 10.67897 | 60° | 20km/h | 21315m | 6.8m/s | -52.4°C | 0% | 47.5hPa | 2.7V | 03:57:09 | 02:01:53 | 00:00:00 | |
| DL1NUX | 2026-09-02 11:52:39 | 52.70003 | 10.67855 | 80° | 18km/h | 21287m | 4.5m/s | -52.5°C | 3.4% | 47.7hPa | 2.6V | 03:56:54 | 02:01:48 | 00:00:00 | |
| GOEST3-10 | 2026-09-02 11:52:39 | 52.70012 | 10.67897 | 60° | 22km/h | 21315m | 6.7m/s | -52.4°C | 3.3% | 47.4hPa | 2.7V | 00:00:00 | 02:01:53 | 00:00:00 | |
| DO2SHX-10 | 2026-09-02 11:52:38 | 52.70009 | 10.67889 | 65° | 22km/h | 21309m | 5.3m/s | -52.5°C | 3.4% | 47.5hPa | 2.7V | 00:00:00 | 02:01:52 | 00:00:00 | |
| DM0DOS-11 | 2026-09-02 11:52:36 | 52.69996 | 10.67828 | 47° | 13km/h | 21264m | 6.7m/s | -52.6°C | 3.4% | 47.9hPa | 2.7V | 03:56:58 | 02:01:44 | 00:00:00 | |
| AA1-15 | 2026-09-02 11:52:34 | 52.70003 | 10.67855 | 81° | 18km/h | 21287m | 4.5m/s | -52.5°C | 0% | 47.7hPa | 2.6V | 03:57:09 | 02:01:48 | 00:00:00 | |
| HSKMA3-T | 2026-09-02 11:52:33 | 52.70001 | 10.67839 | 68° | 20km/h | 21275m | 5.4m/s | -52.5°C | 0% | 47.7hPa | 2.7V | 03:57:09 | 02:01:46 | 00:00:00 | |
| BIOWL1-15 | 2026-09-02 11:52:32 | 52.69996 | 10.67828 | 47° | 13km/h | 21264m | 6.7m/s | -52.6°C | 0% | 47.9hPa | 2.7V | 03:57:09 | 02:01:44 | 00:00:00 | |
| DF8AY | 2026-09-02 11:52:32 | 52.69999 | 10.67833 | 58° | 16km/h | 21270m | 4.4m/s | -52.6°C | 0% | 47.8hPa | 2.7V | 03:57:09 | 02:01:45 | 00:00:00 | |
| DO2SHX-10 | 2026-09-02 11:52:31 | 52.69999 | 10.67833 | 58° | 13km/h | 21270m | 4.3m/s | -52.5°C | 3.4% | 47.8hPa | 2.7V | 00:00:00 | 02:01:45 | 00:00:00 | |
| DL1LOL-11 | 2026-09-02 11:52:30 | 52.69996 | 10.67828 | 48° | 13km/h | 21264m | 6.7m/s | -52.6°C | 0.6% | 47.9hPa | 2.7V | 00:00:00 | 00:00:00 | 00:00:00 | |
| DL1NUX | 2026-09-02 11:52:29 | 52.69986 | 10.67810 | 77° | 9km/h | 21230m | 6.1m/s | -52.7°C | 3.5% | 48.1hPa | 2.7V | 03:57:04 | 02:01:38 | 00:00:00 | |
| DL1XH-west | 2026-09-02 11:52:28 | 52.69992 | 10.67822 | 29° | 9km/h | 21252m | 5.1m/s | -52.8°C | 0% | 48hPa | 2.6V | 03:57:09 | 02:01:42 | 00:00:00 | |
| DO2SHX-10 | 2026-09-02 11:52:28 | 52.69992 | 10.67822 | 29° | 9km/h | 21252m | 5.1m/s | -52.7°C | 3.4% | 47.9hPa | 2.7V | 00:00:00 | 02:01:42 | 00:00:00 | |
| DL1XH1-15 | 2026-09-02 11:52:27 | 52.69988 | 10.67817 | 49° | 11km/h | 21240m | 5.2m/s | -52.7°C | 3.5% | 48hPa | 2.7V | 03:57:02 | 02:01:40 | 00:00:00 | |
| DL1CLM-18 | 2026-09-02 11:52:27 | 52.69990 | 10.67820 | 37° | 11km/h | 21247m | 6.5m/s | -52.7°C | 0.6% | 48.0hPa | 2.6V | 03:57:00 | 00:00:00 | 00:00:00 | |
| DB0NH | 2026-09-02 11:52:26 | 52.69988 | 10.67817 | 50° | 13km/h | 21241m | 5.2m/s | -52.7°C | 3.5% | 48.0hPa | 2.6V | 00:00:00 | 02:01:40 | 00:00:00 | |
| DM0DOS-11 | 2026-09-02 11:52:25 | 52.69986 | 10.67788 | 83° | 18km/h | 21209m | 5.6m/s | -52.5°C | 3.4% | 48.3hPa | 2.6V | 03:57:08 | 02:01:34 | 00:00:00 | |
| DB0DAN | 2026-09-02 11:52:25 | 52.69987 | 10.67814 | 64° | 9km/h | 21235m | 4.8m/s | -52.7°C | 0.6% | 48.07hPa | 2.7V | 00:00:00 | 00:00:00 | 00:00:00 | |
| HSKMA3-T | 2026-09-02 11:52:23 | 52.69986 | 10.67806 | 92° | 11km/h | 21224m | 4.9m/s | -52.7°C | 0% | 48.2hPa | 2.7V | 03:57:09 | 02:01:37 | 00:00:00 | |
| DF8AY | 2026-09-02 11:52:20 | 52.69986 | 10.67788 | 84° | 18km/h | 21209m | 5.6m/s | -52.5°C | 0% | 48.3hPa | 2.6V | 03:57:09 | 02:01:34 | 00:00:00 | |
| BIOWL1-15 | 2026-09-02 11:52:19 | 52.69985 | 10.67780 | 85° | 22km/h | 21204m | 4.3m/s | -52.5°C | 0% | 48.3hPa | 2.7V | 03:57:09 | 02:01:33 | 00:00:00 | |
| DL1XH-west | 2026-09-02 11:52:17 | 52.69985 | 10.67764 | 96° | 18km/h | 21194m | 5.7m/s | -52.4°C | 0% | 48.4hPa | 2.7V | 03:58:00 | 02:01:31 | 00:00:00 | |
| AA1-15 | 2026-09-02 11:52:13 | 52.69988 | 10.67737 | 97° | 16km/h | 21172m | 5.1m/s | -52.3°C | 0% | 48.6hPa | 2.6V | 03:58:00 | 02:01:27 | 00:00:00 | |
| HSKMA3-T | 2026-09-02 11:52:12 | 52.69989 | 10.67730 | 95° | 15km/h | 21167m | 5.2m/s | -52.3°C | 0% | 48.6hPa | 2.7V | 03:58:00 | 02:01:26 | 00:00:00 | |
| DO2SHX-10 | 2026-09-02 11:52:12 | 52.69989 | 10.67730 | 96° | 11km/h | 21167m | 5.1m/s | -52.3°C | 3.3% | 48.5hPa | 2.7V | 00:00:00 | 02:01:26 | 00:00:00 | |
| DB0DAN | 2026-09-02 11:52:10 | 52.69989 | 10.67722 | 83° | 5km/h | 21155m | 5.8m/s | -52.2°C | 0.6% | 48.72hPa | 2.7V | 00:00:00 | 00:00:00 | 00:00:00 | |
| DF8AY | 2026-09-02 11:52:10 | 52.69989 | 10.67720 | 64° | 5km/h | 21150m | 4.3m/s | -52.2°C | 0% | 48.7hPa | 2.7V | 03:58:00 | 02:01:23 | 00:00:00 | |
| BIOWL1-15 | 2026-09-02 11:52:08 | 52.69984 | 10.67686 | 116° | 11km/h | 21103m | 5.8m/s | -52.1°C | 0% | 49.1hPa | 2.6V | 03:58:00 | 02:01:14 | 00:00:00 | |
| DL1NUX | 2026-09-02 11:52:08 | 52.69981 | 10.67701 | 75° | 11km/h | 21124m | 5.8m/s | -52.1°C | 3.3% | 48.9hPa | 2.7V | 03:57:24 | 02:01:18 | 00:00:00 | |
| DL1XH-west | 2026-09-02 11:52:06 | 52.69984 | 10.67710 | 55° | 15km/h | 21134m | 4.1m/s | -52.2°C | 0% | 48.8hPa | 2.6V | 03:58:00 | 02:01:20 | 00:00:00 | |
| HSKMA3-T | 2026-09-02 11:52:02 | 52.69982 | 10.67693 | 120° | 9km/h | 21113m | 4.7m/s | -52.1°C | 0% | 49hPa | 2.7V | 03:58:00 | 02:01:16 | 00:00:00 | |
| DD8BA-10 | 2026-09-02 11:52:02 | 52.69982 | 10.67693 | 120° | 9km/h | 21113m | 4.7m/s | -52.0°C | 3.3% | 49.0hPa | 2.6V | 00:00:00 | 00:00:00 | 00:00:00 | |
| DM0DOS-11 | 2026-09-02 11:52:01 | 52.69984 | 10.67686 | 116° | 11km/h | 21103m | 5.8m/s | -52.1°C | 3.3% | 49.1hPa | 2.6V | 03:57:28 | 02:01:14 | 00:00:00 | |
| DF8AY | 2026-09-02 11:51:59 | 52.69985 | 10.67682 | 117° | 11km/h | 21097m | 4.7m/s | -52.1°C | 0% | 49.1hPa | 2.6V | 03:58:00 | 02:01:13 | 00:00:00 | |
| GOEST3-10 | 2026-09-02 11:51:59 | 52.69985 | 10.67682 | 117° | 9km/h | 21098m | 4.7m/s | -52.0°C | 3.3% | 49.1hPa | 2.6V | 00:00:00 | 02:01:13 | 00:00:00 | |
| DL1NUX | 2026-09-02 11:51:58 | 52.69993 | 10.67667 | 107° | 9km/h | 21072m | 5.8m/s | -52.1°C | 3.3% | 49.3hPa | 2.6V | 03:57:34 | 02:01:08 | 00:00:00 | |
| BIOWL1-15 | 2026-09-02 11:51:58 | 52.69987 | 10.67678 | 127° | 9km/h | 21092m | 5m/s | -52.1°C | 0% | 49.1hPa | 2.7V | 03:58:00 | 02:01:12 | 00:00:00 | |
| DO2SHX-10 | 2026-09-02 11:51:57 | 52.69988 | 10.67675 | 137° | 9km/h | 21087m | 6.1m/s | -52.2°C | 3.3% | 49.2hPa | 2.7V | 03:57:00 | 02:01:11 | 00:00:00 | |
| DB0NH | 2026-09-02 11:51:56 | 52.69990 | 10.67672 | 142° | 18km/h | 21081m | 5.2m/s | -52.1°C | 3.4% | 49.2hPa | 2.7V | 03:57:00 | 02:01:10 | 00:00:00 | |
| DM0DOS-11 | 2026-09-02 11:51:55 | 52.69993 | 10.67641 | 112° | 15km/h | 21045m | 5.3m/s | -52.2°C | 3.4% | 49.5hPa | 2.7V | 03:57:39 | 02:01:03 | 00:00:00 | |
| DB0DAN | 2026-09-02 11:51:55 | 52.69992 | 10.67670 | 132° | 9km/h | 21077m | 3.8m/s | -52.1°C | 0.6% | 49.29hPa | 2.7V | 00:00:00 | 00:00:00 | 00:00:00 | |
| DL1XH-west | 2026-09-02 11:51:54 | 52.69993 | 10.67667 | 107° | 9km/h | 21072m | 5.8m/s | -52.1°C | 0% | 49.3hPa | 2.6V | 03:58:00 | 02:01:08 | 00:00:00 | |
| AA1-15 | 2026-09-02 11:51:52 | 52.69993 | 10.67658 | 78° | 13km/h | 21061m | 4.6m/s | -52.1°C | 0% | 49.4hPa | 2.6V | 03:58:00 | 02:01:06 | 00:00:00 | |
| HSKMA3-T | 2026-09-02 11:51:51 | 52.69992 | 10.67647 | 97° | 15km/h | 21051m | 6.2m/s | -52.2°C | 0% | 49.5hPa | 2.7V | 03:58:00 | 02:01:04 | 00:00:00 | |
| DF8AY | 2026-09-02 11:51:49 | 52.69999 | 10.67621 | 115° | 20km/h | 21029m | 5m/s | -52.2°C | 0% | 49.6hPa | 2.6V | 03:58:00 | 02:01:00 | 00:00:00 | |
| BIOWL1-15 | 2026-09-02 11:51:47 | 52.69997 | 10.67628 | 115° | 18km/h | 21035m | 6.2m/s | -52.2°C | 0% | 49.6hPa | 2.6V | 03:58:00 | 02:01:01 | 00:00:00 | |
| DF8AY-15 | 2026-09-02 11:51:47 | 52.69997 | 10.67628 | 115° | 20km/h | 21035m | 6.1m/s | -52.1°C | 3.5% | 49.5hPa | 2.6V | 03:57:00 | 02:01:01 | 00:00:00 | |
| DF7ER-10 | 2026-09-02 11:51:46 | 52.69999 | 10.67621 | 116° | 20km/h | 21029m | 5.0m/s | -52.2°C | 0.6% | 49.6hPa | 2.6V | 03:58:00 | 00:00:00 | 00:00:00 | |
| DO2SHX-10 | 2026-09-02 11:51:45 | 52.70001 | 10.67613 | 120° | 22km/h | 21025m | 3.9m/s | -52.2°C | 3.4% | 49.6hPa | 2.6V | 03:57:00 | 02:00:59 | 00:00:00 | |
| DM0DOS-11 | 2026-09-02 11:51:44 | 52.70018 | 10.67569 | 106° | 20km/h | 20991m | 3.6m/s | -52°C | 3.4% | 49.9hPa | 2.6V | 03:57:49 | 02:00:53 | 00:00:00 | |
| DL1XH-west | 2026-09-02 11:51:43 | 52.70007 | 10.67599 | 131° | 22km/h | 21013m | 5.9m/s | -52.2°C | 0% | 49.8hPa | 2.7V | 03:58:00 | 02:00:57 | 00:00:00 | |
| AA1-15 | 2026-09-02 11:51:42 | 52.70011 | 10.67592 | 128° | 22km/h | 21007m | 5.7m/s | -52.1°C | 0% | 49.8hPa | 2.7V | 03:58:00 | 02:00:56 | 00:00:00 | |
| HSKMA3-T | 2026-09-02 11:51:40 | 52.70016 | 10.67577 | 110° | 20km/h | 20996m | 5.3m/s | -52.1°C | 0% | 49.9hPa | 2.6V | 03:58:00 | 02:00:54 | 00:00:00 | |
| DB0DAN | 2026-09-02 11:51:40 | 52.70016 | 10.67577 | 110° | 20km/h | 20996m | 5.3m/s | -52.1°C | 0.6% | 49.9hPa | 2.6V | 00:00:00 | 00:00:00 | 00:00:00 | |
| DL4BBY-15 | 2026-09-02 11:51:40 | 52.70016 | 10.67577 | 111° | 15km/h | 20996m | 5.3m/s | -51.9°C | 0% | 0hPa | 2.7V | 00:00:00 | 00:00:00 | 00:00:00 | |
| MECKS9 | 2026-09-02 11:51:39 | 52.70018 | 10.67569 | 108° | 20km/h | 20991m | 3.7m/s | -52.0°C | 0.6% | 49.9hPa | 2.7V | 03:58:00 | 00:00:00 | 00:00:00 | |
| DL1NUX | 2026-09-02 11:51:38 | 52.70027 | 10.67528 | 104° | 22km/h | 20964m | 5.5m/s | -51.9°C | 3.4% | 50.1hPa | 2.7V | 03:57:54 | 02:00:48 | 00:00:00 | |
| DL1XH-15 | 2026-09-02 11:51:37 | 52.70023 | 10.67545 | 111° | 20km/h | 20975m | 4.7m/s | -51.9°C | 3.3% | 50hPa | 2.7V | 03:57:52 | 02:00:50 | 00:00:00 | |
| DF8AY | 2026-09-02 11:51:34 | 52.70040 | 10.67488 | 116° | 15km/h | 20932m | 5.5m/s | -51.6°C | 0% | 50.4hPa | 2.7V | 03:58:00 | 02:00:42 | 00:00:00 | |
| DM0DOS-11 | 2026-09-02 11:51:34 | 52.70038 | 10.67493 | 125° | 16km/h | 20937m | 6.2m/s | -51.6°C | 3.4% | 50.4hPa | 2.7V | 03:57:59 | 02:00:43 | 00:00:00 | |
| DL1XH-west | 2026-09-02 11:51:32 | 52.70036 | 10.67499 | 131° | 18km/h | 20943m | 4.9m/s | -51.6°C | 0% | 50.3hPa | 2.7V | 03:58:00 | 02:00:44 | 00:00:00 | |
| AA1-15 | 2026-09-02 11:51:32 | 52.70033 | 10.67504 | 127° | 18km/h | 20948m | 5.1m/s | -51.7°C | 0% | 50.3hPa | 2.6V | 03:58:00 | 02:00:45 | 00:00:00 | |
| TFSTFS | 2026-09-02 11:51:32 | 52.70030 | 10.67511 | 118° | 20km/h | 20954m | 5.9m/s | -51.8°C | 0.6% | 50.2hPa | 2.6V | 03:58:00 | 00:00:00 | 00:00:00 | |
| SMARD9-10 | 2026-09-02 11:51:31 | 52.70033 | 10.67504 | 128° | 18km/h | 20949m | 5.1m/s | -51.7°C | 0.6% | 50.3hPa | 2.6V | 00:00:00 | 00:00:00 | 00:00:00 | |
| DL1XH1-15 | 2026-09-02 11:51:30 | 52.70043 | 10.67478 | 123° | 11km/h | 20921m | 6m/s | -51.5°C | 3.3% | 50.5hPa | 2.6V | 03:58:02 | 02:00:40 | 00:00:00 | |
| HSKMA3-T | 2026-09-02 11:51:30 | 52.70038 | 10.67493 | 125° | 16km/h | 20937m | 6.2m/s | -51.6°C | 0% | 50.4hPa | 2.7V | 03:58:00 | 02:00:43 | 00:00:00 | |
| TFSTFS | 2026-09-02 11:51:30 | 52.70036 | 10.67499 | 132° | 18km/h | 20943m | 4.9m/s | -51.6°C | 0.5% | 50.3hPa | 2.6V | 03:58:00 | 00:00:00 | 00:00:00 | |
| GOEST3-10 | 2026-09-02 11:51:29 | 52.70038 | 10.67493 | 126° | 13km/h | 20938m | 6.2m/s | -51.6°C | 3.4% | 50.3hPa | 2.6V | 00:00:00 | 02:00:43 | 00:00:00 | |
| MECKS9 | 2026-09-02 11:51:28 | 52.70040 | 10.67488 | 117° | 15km/h | 20932m | 5.5m/s | -51.6°C | 0.6% | 50.4hPa | 2.6V | 03:58:00 | 00:00:00 | 00:00:00 | |
| DO2SHX-10 | 2026-09-02 11:51:27 | 52.70042 | 10.67482 | 116° | 11km/h | 20927m | 4.5m/s | -51.4°C | 3.3% | 50.4hPa | 2.6V | 00:00:00 | 02:00:41 | 00:00:00 | |
| DB0DAN | 2026-09-02 11:51:25 | 52.70045 | 10.67475 | 129° | 9km/h | 20915m | 5.6m/s | -51.4°C | 0.6% | 50.47hPa | 2.7V | 00:00:00 | 00:00:00 | 00:00:00 | |
| EDDB2-12 | 2026-09-02 11:51:25 | 52.70045 | 10.67475 | 129° | 9km/h | 20916m | 5.6m/s | -51.4°C | 0.6% | 50.5hPa | 2.6V | 00:00:00 | 00:00:00 | 00:00:00 | |
| DO2SHX-10 | 2026-09-02 11:51:24 | 52.70046 | 10.67472 | 118° | 9km/h | 20910m | 4.4m/s | -51.3°C | 3.3% | 50.5hPa | 2.6V | 00:00:00 | 02:00:38 | 00:00:00 | |
| SONCRA | 2026-09-02 11:51:23 | 52.70047 | 10.67469 | 92° | 7km/h | 20905m | 6.6m/s | -51.3°C | 0.5% | 50.6hPa | 2.6V | 00:00:00 | 00:00:00 | 00:00:00 | |
| DM0DOS-11 | 2026-09-02 11:51:22 | 52.70045 | 10.67454 | 91° | 9km/h | 20882m | 4.6m/s | -51.1°C | 3.2% | 50.8hPa | 2.6V | 03:58:09 | 02:00:33 | 00:00:00 | |
| DL1XH-west | 2026-09-02 11:51:22 | 52.70046 | 10.67465 | 75° | 9km/h | 20898m | 5.6m/s | -51.3°C | 0% | 50.6hPa | 2.7V | 03:58:51 | 02:00:36 | 00:00:00 | |
| DF8AY | 2026-09-02 11:51:20 | 52.70045 | 10.67454 | 92° | 9km/h | 20882m | 4.6m/s | -51.1°C | 0% | 50.8hPa | 2.6V | 03:58:51 | 02:00:33 | 00:00:00 | |
| AM1SDL-15 | 2026-09-02 11:51:20 | 52.70045 | 10.67457 | 80° | 13km/h | 20888m | 6.2m/s | -51.1°C | 3.2% | 50.7hPa | 2.7V | 00:00:00 | 02:00:34 | 00:00:00 | |
| GOEST3-10 | 2026-09-02 11:51:19 | 52.70045 | 10.67453 | 92° | 13km/h | 20883m | 4.6m/s | -51.1°C | 3.2% | 50.7hPa | 2.7V | 00:00:00 | 02:00:33 | 00:00:00 | |
| HSKMA3-T | 2026-09-02 11:51:19 | 52.70045 | 10.67444 | 94° | 13km/h | 20871m | 6.9m/s | -51°C | 0% | 50.9hPa | 2.7V | 03:58:51 | 02:00:31 | 00:00:00 | |
| DO2SHX-10 | 2026-09-02 11:51:18 | 52.70045 | 10.67449 | 95° | 13km/h | 20878m | 4.9m/s | -51.1°C | 3.3% | 50.8hPa | 2.7V | 00:00:00 | 02:00:32 | 00:00:00 | |
| S3001 | 2026-09-02 11:51:17 | 52.70045 | 10.67444 | 94° | 13km/h | 20871m | 6.9m/s | -51.0°C | 0.5% | 50.9hPa | 2.7V | 00:00:00 | 00:00:00 | 00:00:00 | |
| DO2SHX-10 | 2026-09-02 11:51:15 | 52.70047 | 10.67432 | 110° | 16km/h | 20861m | 4.7m/s | -51.0°C | 3.2% | 50.9hPa | 2.7V | 00:00:00 | 02:00:29 | 00:00:00 | |
| GOEST3-10 | 2026-09-02 11:51:14 | 52.70049 | 10.67426 | 126° | 15km/h | 20855m | 6.1m/s | -51.0°C | 3.2% | 51.0hPa | 2.7V | 03:58:00 | 00:00:00 | 00:00:00 | |
| SMARD9-15 | 2026-09-02 11:51:13 | 52.70055 | 10.67416 | 140° | 15km/h | 20845m | 3.7m/s | -50.8°C | 0.5% | 51.1hPa | 2.7V | 00:00:00 | 00:00:00 | 00:00:00 | |
| DM0DOS-11 | 2026-09-02 11:51:12 | 52.70060 | 10.67403 | 95° | 9km/h | 20829m | 4.3m/s | -50.7°C | 3.1% | 51.2hPa | 2.7V | 03:58:19 | 02:00:23 | 00:00:00 | |
| DL1XH-west | 2026-09-02 11:51:11 | 52.70058 | 10.67411 | 134° | 15km/h | 20840m | 5.6m/s | -50.8°C | 0% | 51.1hPa | 2.7V | 03:58:51 | 02:00:25 | 00:00:00 | |
| DB0DAN | 2026-09-02 11:51:10 | 52.70059 | 10.67407 | 118° | 11km/h | 20834m | 5.5m/s | -50.8°C | 0.5% | 51.16hPa | 2.7V | 00:00:00 | 00:00:00 | 00:00:00 | |
| BIOWL1-15 | 2026-09-02 11:51:09 | 52.70060 | 10.67397 | 79° | 7km/h | 20818m | 5.4m/s | -50.7°C | 0% | 51.3hPa | 2.6V | 03:58:51 | 02:00:21 | 00:00:00 | |
| DF8AY | 2026-09-02 11:51:08 | 52.70060 | 10.67400 | 85° | 7km/h | 20824m | 6.1m/s | -50.7°C | 0% | 51.2hPa | 2.7V | 03:58:51 | 02:00:22 | 00:00:00 | |
| DL1NUX | 2026-09-02 11:51:08 | 52.70057 | 10.67386 | 66° | 15km/h | 20803m | 5.5m/s | -50.6°C | 3.1% | 51.4hPa | 2.7V | 03:58:24 | 02:00:18 | 00:00:00 | |
| DL1XH1-15 | 2026-09-02 11:51:07 | 52.70060 | 10.67394 | 64° | 7km/h | 20814m | 4.3m/s | -50.7°C | 3.1% | 51.3hPa | 2.6V | 03:58:22 | 02:00:20 | 00:00:00 | |
| HSKMA3-T | 2026-09-02 11:51:07 | 52.70059 | 10.67394 | 65° | 7km/h | 20814m | 4.3m/s | -50.7°C | 0% | 51.3hPa | 2.6V | 03:58:51 | 02:00:20 | 00:00:00 | |
| DL1XH-west | 2026-09-02 11:51:01 | 52.70056 | 10.67367 | 105° | 15km/h | 20788m | 5.7m/s | -50.6°C | 0% | 51.5hPa | 2.7V | 03:58:51 | 02:00:15 | 00:00:00 | |
| AA1-15 | 2026-09-02 11:51:00 | 52.70057 | 10.67362 | 122° | 13km/h | 20783m | 4.5m/s | -50.6°C | 0% | 51.6hPa | 2.6V | 03:58:51 | 02:00:14 | 00:00:00 | |
| BIOWL1-15 | 2026-09-02 11:50:58 | 52.70060 | 10.67354 | 127° | 11km/h | 20774m | 5.7m/s | -50.5°C | 0% | 51.6hPa | 2.6V | 03:58:51 | 02:00:12 | 00:00:00 | |
| DL1XH-15 | 2026-09-02 11:50:57 | 52.70062 | 10.67347 | 92° | 11km/h | 20763m | 4.8m/s | -50.5°C | 3% | 51.7hPa | 2.7V | 03:58:32 | 02:00:10 | 00:00:00 | |
| HSKMA3-T | 2026-09-02 11:50:55 | 52.70062 | 10.67343 | 96° | 11km/h | 20758m | 5.5m/s | -50.6°C | 0% | 51.8hPa | 2.7V | 03:58:51 | 02:00:09 | 00:00:00 | |
| DB0DAN | 2026-09-02 11:50:55 | 52.70062 | 10.67343 | 96° | 11km/h | 20758m | 5.5m/s | -50.6°C | 0.5% | 51.76hPa | 2.7V | 00:00:00 | 00:00:00 | 00:00:00 | |
| DM0DOS-11 | 2026-09-02 11:50:52 | 52.70061 | 10.67309 | 79° | 18km/h | 20725m | 6.1m/s | -50.5°C | 3.1% | 52hPa | 2.7V | 03:58:39 | 02:00:03 | 00:00:00 | |
| DL1XH-west | 2026-09-02 11:50:51 | 52.70063 | 10.67322 | 79° | 15km/h | 20736m | 6.2m/s | -50.6°C | 0% | 51.9hPa | 2.6V | 03:58:51 | 02:00:05 | 00:00:00 | |
| AA1-15 | 2026-09-02 11:50:49 | 52.70061 | 10.67309 | 80° | 18km/h | 20725m | 6.1m/s | -50.6°C | 0% | 52hPa | 2.7V | 03:58:51 | 02:00:03 | 00:00:00 | |
| GOEST3-10 | 2026-09-02 11:50:49 | 52.70061 | 10.67309 | 80° | 20km/h | 20725m | 6.0m/s | -50.5°C | 3.1% | 52.0hPa | 2.6V | 00:00:00 | 02:00:03 | 00:00:00 | |
| DL1NUX | 2026-09-02 11:50:48 | 52.70059 | 10.67268 | 81° | 20km/h | 20697m | 4m/s | -50.6°C | 3% | 52.2hPa | 2.6V | 03:58:44 | 01:59:58 | 00:00:00 | |
| BIOWL1-15 | 2026-09-02 11:50:47 | 52.70061 | 10.67293 | 89° | 20km/h | 20713m | 4.6m/s | -50.6°C | 0% | 52.1hPa | 2.7V | 03:58:51 | 02:00:01 | 00:00:00 | |
| DL1XH1-15 | 2026-09-02 11:50:47 | 52.70060 | 10.67285 | 85° | 20km/h | 20708m | 5m/s | -50.6°C | 3% | 52.1hPa | 2.6V | 03:58:42 | 02:00:00 | 00:00:00 | |
| HSKMA3-T | 2026-09-02 11:50:44 | 52.70059 | 10.67268 | 81° | 20km/h | 20697m | 4m/s | -50.6°C | 0% | 52.2hPa | 2.6V | 03:58:51 | 01:59:58 | 00:00:00 | |
| DF8AY | 2026-09-02 11:50:43 | 52.70059 | 10.67259 | 86° | 20km/h | 20693m | 4.7m/s | -50.6°C | 0% | 52.3hPa | 2.7V | 03:58:51 | 01:59:57 | 00:00:00 | |
| DB0DAN | 2026-09-02 11:50:40 | 52.70060 | 10.67237 | 95° | 16km/h | 20677m | 4.6m/s | -50.5°C | 0.5% | 52.42hPa | 2.7V | 00:00:00 | 00:00:00 | 00:00:00 | |
| DL4BBY-15 | 2026-09-02 11:50:40 | 52.70060 | 10.67236 | 96° | 27km/h | 20676m | 4.6m/s | -50.3°C | 0% | 0hPa | 2.6V | 00:00:00 | 00:00:00 | 00:00:00 | |
| GOEST3-10 | 2026-09-02 11:50:39 | 52.70060 | 10.67229 | 90° | 20km/h | 20672m | 5.8m/s | -50.5°C | 3.0% | 52.4hPa | 2.6V | 00:00:00 | 01:59:53 | 00:00:00 | |
| AA1-15 | 2026-09-02 11:50:39 | 52.70060 | 10.67221 | 87° | 20km/h | 20667m | 4.2m/s | -50.7°C | 0% | 52.5hPa | 2.6V | 03:58:51 | 01:59:52 | 00:00:00 | |
| DL1NUX | 2026-09-02 11:50:38 | 52.70063 | 10.67188 | 107° | 20km/h | 20647m | 4.5m/s | -50.8°C | 3.1% | 52.7hPa | 2.7V | 03:58:54 | 01:59:48 | 00:00:00 | |
| BIOWL1-15 | 2026-09-02 11:50:35 | 52.70061 | 10.67196 | 107° | 20km/h | 20651m | 4.8m/s | -50.7°C | 0% | 52.6hPa | 2.7V | 03:59:42 | 01:59:49 | 00:00:00 | |
| HSKMA3-T | 2026-09-02 11:50:34 | 52.70063 | 10.67188 | 107° | 20km/h | 20647m | 4.5m/s | -50.8°C | 0% | 52.7hPa | 2.7V | 03:59:42 | 01:59:48 | 00:00:00 | |
| DF8AY | 2026-09-02 11:50:31 | 52.70066 | 10.67167 | 101° | 16km/h | 20632m | 4.7m/s | -51°C | 0% | 52.8hPa | 2.6V | 03:59:42 | 01:59:45 | 00:00:00 | |
| DD8BA-10 | 2026-09-02 11:50:31 | 52.70066 | 10.67167 | 101° | 29km/h | 20632m | 4.7m/s | -50.9°C | 3.0% | 52.8hPa | 2.6V | 03:58:00 | 00:00:00 | 00:00:00 | |
| DO2SHX-10 | 2026-09-02 11:50:29 | 52.70068 | 10.67152 | 113° | 24km/h | 20621m | 5.3m/s | -50.9°C | 3.1% | 52.8hPa | 2.6V | 00:00:00 | 01:59:43 | 00:00:00 | |
| Es werden nur die letzten 3500 von 6360 Frames angezeigt. GPX/KML und Diagramme bleiben verfügbar. | |||||||||||||||